<?xml version="1.0" encoding="UTF-8" standalone="no" ?>
<gpx xmlns="http://www.topografix.com/GPX/1/1" xmlns:xsi="http://www.w3.org/2001/XMLSchema-instance" xsi:schemaLocation="http://www.topografix.com/GPX/1/1 http://www.topografix.com/GPX/1/1/gpx.xsd" version="1.1" creator="VisuGPX - https://www.visugpx.com">
  <metadata>
    <name>UTAG 2011--</name>
    <desc><![CDATA[OIX- BEGET- COMANEGRA- SANT ANIOL- EL MONT]]></desc>
  </metadata>
  <trk>
    <name><![CDATA[Ultra Trail Alta Garrotxa]]></name>
    <trkseg>
      <trkpt lat="42.27116" lon="2.52875">
        <ele>360.669</ele>
        <time>2011-04-02T05:03:35Z</time>
      </trkpt>
      <trkpt lat="42.27117" lon="2.52875">
        <ele>365.404</ele>
        <time>2011-04-02T05:03:40Z</time>
      </trkpt>
      <trkpt lat="42.27117" lon="2.52875">
        <ele>365.024</ele>
        <time>2011-04-02T05:03:41Z</time>
      </trkpt>
      <trkpt lat="42.27117" lon="2.52874">
        <ele>369.807</ele>
        <time>2011-04-02T05:03:43Z</time>
      </trkpt>
      <trkpt lat="42.27117" lon="2.52874">
        <ele>373.187</ele>
        <time>2011-04-02T05:03:46Z</time>
      </trkpt>
      <trkpt lat="42.27116" lon="2.52874">
        <ele>376.551</ele>
        <time>2011-04-02T05:03:49Z</time>
      </trkpt>
      <trkpt lat="42.27116" lon="2.52874">
        <ele>380.384</ele>
        <time>2011-04-02T05:03:53Z</time>
      </trkpt>
      <trkpt lat="42.27116" lon="2.52874">
        <ele>381.313</ele>
        <time>2011-04-02T05:03:55Z</time>
      </trkpt>
      <trkpt lat="42.27116" lon="2.52874">
        <ele>385.29</ele>
        <time>2011-04-02T05:03:59Z</time>
      </trkpt>
      <trkpt lat="42.27116" lon="2.52875">
        <ele>386.678</ele>
        <time>2011-04-02T05:04:02Z</time>
      </trkpt>
      <trkpt lat="42.27116" lon="2.52875">
        <ele>389.061</ele>
        <time>2011-04-02T05:04:06Z</time>
      </trkpt>
      <trkpt lat="42.27116" lon="2.52875">
        <ele>390.991</ele>
        <time>2011-04-02T05:04:09Z</time>
      </trkpt>
      <trkpt lat="42.27116" lon="2.52875">
        <ele>392.481</ele>
        <time>2011-04-02T05:04:12Z</time>
      </trkpt>
      <trkpt lat="42.27116" lon="2.52875">
        <ele>395.219</ele>
        <time>2011-04-02T05:04:19Z</time>
      </trkpt>
      <trkpt lat="42.27116" lon="2.52875">
        <ele>398.607</ele>
        <time>2011-04-02T05:04:29Z</time>
      </trkpt>
      <trkpt lat="42.27116" lon="2.52875">
        <ele>402.08</ele>
        <time>2011-04-02T05:04:43Z</time>
      </trkpt>
      <trkpt lat="42.27116" lon="2.52875">
        <ele>405.874</ele>
        <time>2011-04-02T05:05:25Z</time>
      </trkpt>
      <trkpt lat="42.27118" lon="2.52873">
        <ele>406.357</ele>
        <time>2011-04-02T05:07:50Z</time>
      </trkpt>
      <trkpt lat="42.27119" lon="2.52874">
        <ele>406.886</ele>
        <time>2011-04-02T05:07:57Z</time>
      </trkpt>
      <trkpt lat="42.2712" lon="2.52873">
        <ele>405.323</ele>
        <time>2011-04-02T05:08:31Z</time>
      </trkpt>
      <trkpt lat="42.2712" lon="2.52874">
        <ele>407.371</ele>
        <time>2011-04-02T05:09:46Z</time>
      </trkpt>
      <trkpt lat="42.27124" lon="2.52876">
        <ele>406.854</ele>
        <time>2011-04-02T05:10:01Z</time>
      </trkpt>
      <trkpt lat="42.27126" lon="2.52872">
        <ele>407.718</ele>
        <time>2011-04-02T05:10:10Z</time>
      </trkpt>
      <trkpt lat="42.27122" lon="2.52862">
        <ele>408.798</ele>
        <time>2011-04-02T05:10:19Z</time>
      </trkpt>
      <trkpt lat="42.27122" lon="2.52859">
        <ele>409.217</ele>
        <time>2011-04-02T05:10:21Z</time>
      </trkpt>
      <trkpt lat="42.27132" lon="2.52873">
        <ele>410.607</ele>
        <time>2011-04-02T05:10:37Z</time>
      </trkpt>
      <trkpt lat="42.27139" lon="2.52867">
        <ele>411.182</ele>
        <time>2011-04-02T05:10:53Z</time>
      </trkpt>
      <trkpt lat="42.27142" lon="2.52867">
        <ele>411.146</ele>
        <time>2011-04-02T05:11:04Z</time>
      </trkpt>
      <trkpt lat="42.27151" lon="2.52862">
        <ele>412.199</ele>
        <time>2011-04-02T05:11:15Z</time>
      </trkpt>
      <trkpt lat="42.27153" lon="2.52861">
        <ele>412.128</ele>
        <time>2011-04-02T05:11:17Z</time>
      </trkpt>
      <trkpt lat="42.2716" lon="2.52858">
        <ele>414.035</ele>
        <time>2011-04-02T05:11:23Z</time>
      </trkpt>
      <trkpt lat="42.27164" lon="2.52856">
        <ele>413.063</ele>
        <time>2011-04-02T05:11:27Z</time>
      </trkpt>
      <trkpt lat="42.27172" lon="2.52852">
        <ele>414.526</ele>
        <time>2011-04-02T05:11:38Z</time>
      </trkpt>
      <trkpt lat="42.27176" lon="2.52851">
        <ele>414.064</ele>
        <time>2011-04-02T05:11:41Z</time>
      </trkpt>
      <trkpt lat="42.2718" lon="2.52849">
        <ele>415.406</ele>
        <time>2011-04-02T05:11:46Z</time>
      </trkpt>
      <trkpt lat="42.27195" lon="2.52844">
        <ele>416.416</ele>
        <time>2011-04-02T05:11:59Z</time>
      </trkpt>
      <trkpt lat="42.27204" lon="2.5284">
        <ele>416.907</ele>
        <time>2011-04-02T05:12:07Z</time>
      </trkpt>
      <trkpt lat="42.27208" lon="2.52836">
        <ele>417.457</ele>
        <time>2011-04-02T05:12:11Z</time>
      </trkpt>
      <trkpt lat="42.27211" lon="2.52832">
        <ele>417.471</ele>
        <time>2011-04-02T05:12:14Z</time>
      </trkpt>
      <trkpt lat="42.27217" lon="2.52805">
        <ele>419.894</ele>
        <time>2011-04-02T05:12:32Z</time>
      </trkpt>
      <trkpt lat="42.27231" lon="2.52783">
        <ele>422.243</ele>
        <time>2011-04-02T05:12:49Z</time>
      </trkpt>
      <trkpt lat="42.27226" lon="2.52761">
        <ele>425.05</ele>
        <time>2011-04-02T05:13:04Z</time>
      </trkpt>
      <trkpt lat="42.27225" lon="2.5276">
        <ele>425.018</ele>
        <time>2011-04-02T05:13:05Z</time>
      </trkpt>
      <trkpt lat="42.2723" lon="2.5275">
        <ele>427.411</ele>
        <time>2011-04-02T05:13:13Z</time>
      </trkpt>
      <trkpt lat="42.27243" lon="2.52735">
        <ele>430.335</ele>
        <time>2011-04-02T05:13:27Z</time>
      </trkpt>
      <trkpt lat="42.27257" lon="2.52721">
        <ele>433.786</ele>
        <time>2011-04-02T05:13:41Z</time>
      </trkpt>
      <trkpt lat="42.27266" lon="2.52712">
        <ele>435.614</ele>
        <time>2011-04-02T05:13:49Z</time>
      </trkpt>
      <trkpt lat="42.27277" lon="2.52704">
        <ele>437.107</ele>
        <time>2011-04-02T05:13:59Z</time>
      </trkpt>
      <trkpt lat="42.27281" lon="2.52701">
        <ele>437.584</ele>
        <time>2011-04-02T05:14:03Z</time>
      </trkpt>
      <trkpt lat="42.27293" lon="2.52691">
        <ele>441.458</ele>
        <time>2011-04-02T05:14:15Z</time>
      </trkpt>
      <trkpt lat="42.27294" lon="2.52691">
        <ele>441.991</ele>
        <time>2011-04-02T05:14:16Z</time>
      </trkpt>
      <trkpt lat="42.27304" lon="2.52682">
        <ele>443.86</ele>
        <time>2011-04-02T05:14:26Z</time>
      </trkpt>
      <trkpt lat="42.27318" lon="2.52672">
        <ele>446.737</ele>
        <time>2011-04-02T05:14:39Z</time>
      </trkpt>
      <trkpt lat="42.27341" lon="2.52665">
        <ele>449.635</ele>
        <time>2011-04-02T05:14:57Z</time>
      </trkpt>
      <trkpt lat="42.27343" lon="2.52665">
        <ele>450.028</ele>
        <time>2011-04-02T05:14:58Z</time>
      </trkpt>
      <trkpt lat="42.27345" lon="2.52663">
        <ele>451.062</ele>
        <time>2011-04-02T05:15:01Z</time>
      </trkpt>
      <trkpt lat="42.27345" lon="2.5266">
        <ele>452.083</ele>
        <time>2011-04-02T05:15:04Z</time>
      </trkpt>
      <trkpt lat="42.2734" lon="2.52659">
        <ele>452.911</ele>
        <time>2011-04-02T05:15:10Z</time>
      </trkpt>
      <trkpt lat="42.27332" lon="2.52657">
        <ele>454.407</ele>
        <time>2011-04-02T05:15:17Z</time>
      </trkpt>
      <trkpt lat="42.27327" lon="2.52654">
        <ele>455.357</ele>
        <time>2011-04-02T05:15:21Z</time>
      </trkpt>
      <trkpt lat="42.27311" lon="2.52645">
        <ele>459.231</ele>
        <time>2011-04-02T05:15:37Z</time>
      </trkpt>
      <trkpt lat="42.27296" lon="2.52631">
        <ele>462.184</ele>
        <time>2011-04-02T05:15:51Z</time>
      </trkpt>
      <trkpt lat="42.2729" lon="2.52622">
        <ele>463.563</ele>
        <time>2011-04-02T05:15:58Z</time>
      </trkpt>
      <trkpt lat="42.27291" lon="2.5261">
        <ele>465.47</ele>
        <time>2011-04-02T05:16:05Z</time>
      </trkpt>
      <trkpt lat="42.27293" lon="2.52607">
        <ele>466.418</ele>
        <time>2011-04-02T05:16:08Z</time>
      </trkpt>
      <trkpt lat="42.27299" lon="2.52604">
        <ele>466.961</ele>
        <time>2011-04-02T05:16:13Z</time>
      </trkpt>
      <trkpt lat="42.27307" lon="2.52602">
        <ele>469.374</ele>
        <time>2011-04-02T05:16:21Z</time>
      </trkpt>
      <trkpt lat="42.27321" lon="2.52594">
        <ele>471.256</ele>
        <time>2011-04-02T05:16:36Z</time>
      </trkpt>
      <trkpt lat="42.27338" lon="2.52589">
        <ele>473.621</ele>
        <time>2011-04-02T05:16:51Z</time>
      </trkpt>
      <trkpt lat="42.27351" lon="2.52583">
        <ele>476.007</ele>
        <time>2011-04-02T05:17:03Z</time>
      </trkpt>
      <trkpt lat="42.27365" lon="2.52578">
        <ele>479.498</ele>
        <time>2011-04-02T05:17:16Z</time>
      </trkpt>
      <trkpt lat="42.27368" lon="2.52577">
        <ele>479.822</ele>
        <time>2011-04-02T05:17:19Z</time>
      </trkpt>
      <trkpt lat="42.27384" lon="2.52571">
        <ele>481.855</ele>
        <time>2011-04-02T05:17:34Z</time>
      </trkpt>
      <trkpt lat="42.27395" lon="2.52569">
        <ele>483.764</ele>
        <time>2011-04-02T05:17:44Z</time>
      </trkpt>
      <trkpt lat="42.27411" lon="2.52566">
        <ele>486.681</ele>
        <time>2011-04-02T05:17:58Z</time>
      </trkpt>
      <trkpt lat="42.27429" lon="2.52567">
        <ele>488.529</ele>
        <time>2011-04-02T05:18:12Z</time>
      </trkpt>
      <trkpt lat="42.27441" lon="2.52574">
        <ele>491.422</ele>
        <time>2011-04-02T05:18:23Z</time>
      </trkpt>
      <trkpt lat="42.27457" lon="2.52579">
        <ele>494.734</ele>
        <time>2011-04-02T05:18:37Z</time>
      </trkpt>
      <trkpt lat="42.27466" lon="2.52581">
        <ele>495.755</ele>
        <time>2011-04-02T05:18:44Z</time>
      </trkpt>
      <trkpt lat="42.27479" lon="2.52582">
        <ele>498.11</ele>
        <time>2011-04-02T05:18:56Z</time>
      </trkpt>
      <trkpt lat="42.27483" lon="2.52581">
        <ele>498.607</ele>
        <time>2011-04-02T05:19:03Z</time>
      </trkpt>
      <trkpt lat="42.27492" lon="2.52585">
        <ele>500.054</ele>
        <time>2011-04-02T05:19:12Z</time>
      </trkpt>
      <trkpt lat="42.27508" lon="2.52588">
        <ele>502.068</ele>
        <time>2011-04-02T05:19:25Z</time>
      </trkpt>
      <trkpt lat="42.27515" lon="2.52611">
        <ele>503.981</ele>
        <time>2011-04-02T05:19:39Z</time>
      </trkpt>
      <trkpt lat="42.27516" lon="2.52614">
        <ele>504.49</ele>
        <time>2011-04-02T05:19:41Z</time>
      </trkpt>
      <trkpt lat="42.27519" lon="2.52619">
        <ele>504.817</ele>
        <time>2011-04-02T05:19:45Z</time>
      </trkpt>
      <trkpt lat="42.27533" lon="2.52628">
        <ele>507.235</ele>
        <time>2011-04-02T05:20:02Z</time>
      </trkpt>
      <trkpt lat="42.27535" lon="2.52623">
        <ele>510.138</ele>
        <time>2011-04-02T05:20:15Z</time>
      </trkpt>
      <trkpt lat="42.27541" lon="2.52613">
        <ele>512.566</ele>
        <time>2011-04-02T05:20:28Z</time>
      </trkpt>
      <trkpt lat="42.27541" lon="2.52612">
        <ele>512.029</ele>
        <time>2011-04-02T05:20:29Z</time>
      </trkpt>
      <trkpt lat="42.27542" lon="2.52605">
        <ele>513.521</ele>
        <time>2011-04-02T05:20:36Z</time>
      </trkpt>
      <trkpt lat="42.27549" lon="2.52599">
        <ele>515.907</ele>
        <time>2011-04-02T05:20:47Z</time>
      </trkpt>
      <trkpt lat="42.27555" lon="2.52591">
        <ele>519.357</ele>
        <time>2011-04-02T05:20:57Z</time>
      </trkpt>
      <trkpt lat="42.27556" lon="2.52591">
        <ele>519.771</ele>
        <time>2011-04-02T05:20:58Z</time>
      </trkpt>
      <trkpt lat="42.27558" lon="2.5259">
        <ele>519.774</ele>
        <time>2011-04-02T05:21:01Z</time>
      </trkpt>
      <trkpt lat="42.27566" lon="2.52585">
        <ele>522.163</ele>
        <time>2011-04-02T05:21:10Z</time>
      </trkpt>
      <trkpt lat="42.27566" lon="2.52581">
        <ele>523.63</ele>
        <time>2011-04-02T05:21:14Z</time>
      </trkpt>
      <trkpt lat="42.27568" lon="2.52578">
        <ele>524.558</ele>
        <time>2011-04-02T05:21:18Z</time>
      </trkpt>
      <trkpt lat="42.27576" lon="2.52575">
        <ele>526.991</ele>
        <time>2011-04-02T05:21:27Z</time>
      </trkpt>
      <trkpt lat="42.27577" lon="2.52569">
        <ele>528.423</ele>
        <time>2011-04-02T05:21:34Z</time>
      </trkpt>
      <trkpt lat="42.27584" lon="2.52564">
        <ele>531.883</ele>
        <time>2011-04-02T05:21:45Z</time>
      </trkpt>
      <trkpt lat="42.27584" lon="2.52561">
        <ele>531.811</ele>
        <time>2011-04-02T05:21:48Z</time>
      </trkpt>
      <trkpt lat="42.27587" lon="2.52554">
        <ele>534.207</ele>
        <time>2011-04-02T05:21:55Z</time>
      </trkpt>
      <trkpt lat="42.27594" lon="2.52547">
        <ele>538.093</ele>
        <time>2011-04-02T05:22:06Z</time>
      </trkpt>
      <trkpt lat="42.27594" lon="2.52533">
        <ele>540.917</ele>
        <time>2011-04-02T05:22:19Z</time>
      </trkpt>
      <trkpt lat="42.27597" lon="2.52524">
        <ele>543.38</ele>
        <time>2011-04-02T05:22:27Z</time>
      </trkpt>
      <trkpt lat="42.27598" lon="2.5252">
        <ele>543.899</ele>
        <time>2011-04-02T05:22:30Z</time>
      </trkpt>
      <trkpt lat="42.276" lon="2.52517">
        <ele>544.716</ele>
        <time>2011-04-02T05:22:34Z</time>
      </trkpt>
      <trkpt lat="42.27602" lon="2.52513">
        <ele>546.274</ele>
        <time>2011-04-02T05:22:41Z</time>
      </trkpt>
      <trkpt lat="42.27606" lon="2.52502">
        <ele>549.137</ele>
        <time>2011-04-02T05:22:53Z</time>
      </trkpt>
      <trkpt lat="42.27608" lon="2.525">
        <ele>549.179</ele>
        <time>2011-04-02T05:22:55Z</time>
      </trkpt>
      <trkpt lat="42.27622" lon="2.52505">
        <ele>551.905</ele>
        <time>2011-04-02T05:23:09Z</time>
      </trkpt>
      <trkpt lat="42.27634" lon="2.525">
        <ele>554.825</ele>
        <time>2011-04-02T05:23:22Z</time>
      </trkpt>
      <trkpt lat="42.27641" lon="2.52495">
        <ele>557.707</ele>
        <time>2011-04-02T05:23:33Z</time>
      </trkpt>
      <trkpt lat="42.27641" lon="2.52494">
        <ele>558.768</ele>
        <time>2011-04-02T05:23:35Z</time>
      </trkpt>
      <trkpt lat="42.27643" lon="2.52494">
        <ele>558.792</ele>
        <time>2011-04-02T05:23:37Z</time>
      </trkpt>
      <trkpt lat="42.27646" lon="2.52494">
        <ele>559.695</ele>
        <time>2011-04-02T05:23:40Z</time>
      </trkpt>
      <trkpt lat="42.27651" lon="2.52493">
        <ele>561.154</ele>
        <time>2011-04-02T05:23:46Z</time>
      </trkpt>
      <trkpt lat="42.27653" lon="2.52492">
        <ele>562.091</ele>
        <time>2011-04-02T05:23:49Z</time>
      </trkpt>
      <trkpt lat="42.27663" lon="2.52491">
        <ele>564.919</ele>
        <time>2011-04-02T05:24:02Z</time>
      </trkpt>
      <trkpt lat="42.27674" lon="2.52487">
        <ele>566.412</ele>
        <time>2011-04-02T05:24:14Z</time>
      </trkpt>
      <trkpt lat="42.27677" lon="2.52485">
        <ele>567.848</ele>
        <time>2011-04-02T05:24:17Z</time>
      </trkpt>
      <trkpt lat="42.27686" lon="2.52478">
        <ele>570.761</ele>
        <time>2011-04-02T05:24:29Z</time>
      </trkpt>
      <trkpt lat="42.27687" lon="2.52477">
        <ele>571.217</ele>
        <time>2011-04-02T05:24:30Z</time>
      </trkpt>
      <trkpt lat="42.27691" lon="2.52474">
        <ele>572.607</ele>
        <time>2011-04-02T05:24:36Z</time>
      </trkpt>
      <trkpt lat="42.27692" lon="2.52474">
        <ele>569.285</ele>
        <time>2011-04-02T05:24:37Z</time>
      </trkpt>
      <trkpt lat="42.27693" lon="2.52473">
        <ele>573.179</ele>
        <time>2011-04-02T05:24:38Z</time>
      </trkpt>
      <trkpt lat="42.27698" lon="2.52471">
        <ele>576.962</ele>
        <time>2011-04-02T05:24:47Z</time>
      </trkpt>
      <trkpt lat="42.27699" lon="2.52471">
        <ele>573.631</ele>
        <time>2011-04-02T05:24:49Z</time>
      </trkpt>
      <trkpt lat="42.27699" lon="2.52471">
        <ele>575.078</ele>
        <time>2011-04-02T05:24:52Z</time>
      </trkpt>
      <trkpt lat="42.27701" lon="2.52466">
        <ele>578.466</ele>
        <time>2011-04-02T05:25:01Z</time>
      </trkpt>
      <trkpt lat="42.27702" lon="2.52465">
        <ele>577.429</ele>
        <time>2011-04-02T05:25:03Z</time>
      </trkpt>
      <trkpt lat="42.27703" lon="2.52461">
        <ele>582.241</ele>
        <time>2011-04-02T05:25:08Z</time>
      </trkpt>
      <trkpt lat="42.27703" lon="2.52461">
        <ele>581.781</ele>
        <time>2011-04-02T05:25:09Z</time>
      </trkpt>
      <trkpt lat="42.27703" lon="2.52459">
        <ele>578.409</ele>
        <time>2011-04-02T05:25:11Z</time>
      </trkpt>
      <trkpt lat="42.27705" lon="2.52457">
        <ele>583.707</ele>
        <time>2011-04-02T05:25:14Z</time>
      </trkpt>
      <trkpt lat="42.27706" lon="2.52455">
        <ele>580.345</ele>
        <time>2011-04-02T05:25:16Z</time>
      </trkpt>
      <trkpt lat="42.27715" lon="2.52448">
        <ele>583.299</ele>
        <time>2011-04-02T05:25:29Z</time>
      </trkpt>
      <trkpt lat="42.27716" lon="2.52447">
        <ele>584.632</ele>
        <time>2011-04-02T05:25:31Z</time>
      </trkpt>
      <trkpt lat="42.27717" lon="2.52446">
        <ele>588.071</ele>
        <time>2011-04-02T05:25:32Z</time>
      </trkpt>
      <trkpt lat="42.27718" lon="2.52445">
        <ele>584.698</ele>
        <time>2011-04-02T05:25:34Z</time>
      </trkpt>
      <trkpt lat="42.2772" lon="2.52444">
        <ele>589.486</ele>
        <time>2011-04-02T05:25:37Z</time>
      </trkpt>
      <trkpt lat="42.2772" lon="2.52443">
        <ele>586.199</ele>
        <time>2011-04-02T05:25:38Z</time>
      </trkpt>
      <trkpt lat="42.27723" lon="2.52441">
        <ele>593.334</ele>
        <time>2011-04-02T05:25:42Z</time>
      </trkpt>
      <trkpt lat="42.27724" lon="2.5244">
        <ele>589.055</ele>
        <time>2011-04-02T05:25:43Z</time>
      </trkpt>
      <trkpt lat="42.27725" lon="2.52439">
        <ele>589.91</ele>
        <time>2011-04-02T05:25:45Z</time>
      </trkpt>
      <trkpt lat="42.27729" lon="2.52436">
        <ele>590.407</ele>
        <time>2011-04-02T05:25:50Z</time>
      </trkpt>
      <trkpt lat="42.27731" lon="2.52436">
        <ele>592.344</ele>
        <time>2011-04-02T05:25:52Z</time>
      </trkpt>
      <trkpt lat="42.27735" lon="2.52434">
        <ele>595.258</ele>
        <time>2011-04-02T05:25:56Z</time>
      </trkpt>
      <trkpt lat="42.27736" lon="2.52433">
        <ele>592.371</ele>
        <time>2011-04-02T05:25:57Z</time>
      </trkpt>
      <trkpt lat="42.27738" lon="2.52433">
        <ele>588.55</ele>
        <time>2011-04-02T05:25:59Z</time>
      </trkpt>
      <trkpt lat="42.2774" lon="2.52433">
        <ele>591.897</ele>
        <time>2011-04-02T05:26:00Z</time>
      </trkpt>
      <trkpt lat="42.27743" lon="2.52433">
        <ele>594.215</ele>
        <time>2011-04-02T05:26:03Z</time>
      </trkpt>
      <trkpt lat="42.27747" lon="2.52432">
        <ele>589.968</ele>
        <time>2011-04-02T05:26:07Z</time>
      </trkpt>
      <trkpt lat="42.27749" lon="2.52431">
        <ele>597.192</ele>
        <time>2011-04-02T05:26:09Z</time>
      </trkpt>
      <trkpt lat="42.2775" lon="2.5243">
        <ele>593.873</ele>
        <time>2011-04-02T05:26:10Z</time>
      </trkpt>
      <trkpt lat="42.27754" lon="2.52427">
        <ele>598.12</ele>
        <time>2011-04-02T05:26:14Z</time>
      </trkpt>
      <trkpt lat="42.27756" lon="2.52424">
        <ele>596.607</ele>
        <time>2011-04-02T05:26:17Z</time>
      </trkpt>
      <trkpt lat="42.27762" lon="2.52415">
        <ele>600.02</ele>
        <time>2011-04-02T05:26:25Z</time>
      </trkpt>
      <trkpt lat="42.27765" lon="2.52413">
        <ele>595.774</ele>
        <time>2011-04-02T05:26:28Z</time>
      </trkpt>
      <trkpt lat="42.27766" lon="2.52413">
        <ele>596.667</ele>
        <time>2011-04-02T05:26:29Z</time>
      </trkpt>
      <trkpt lat="42.2777" lon="2.52412">
        <ele>601.046</ele>
        <time>2011-04-02T05:26:32Z</time>
      </trkpt>
      <trkpt lat="42.27771" lon="2.52412">
        <ele>599.063</ele>
        <time>2011-04-02T05:26:33Z</time>
      </trkpt>
      <trkpt lat="42.27776" lon="2.52411">
        <ele>598.151</ele>
        <time>2011-04-02T05:26:37Z</time>
      </trkpt>
      <trkpt lat="42.27778" lon="2.52411">
        <ele>599.054</ele>
        <time>2011-04-02T05:26:39Z</time>
      </trkpt>
      <trkpt lat="42.2778" lon="2.5241">
        <ele>599.551</ele>
        <time>2011-04-02T05:26:41Z</time>
      </trkpt>
      <trkpt lat="42.27784" lon="2.52411">
        <ele>600.501</ele>
        <time>2011-04-02T05:26:45Z</time>
      </trkpt>
      <trkpt lat="42.27787" lon="2.52412">
        <ele>601.011</ele>
        <time>2011-04-02T05:26:48Z</time>
      </trkpt>
      <trkpt lat="42.27792" lon="2.52412">
        <ele>599.507</ele>
        <time>2011-04-02T05:26:52Z</time>
      </trkpt>
      <trkpt lat="42.27793" lon="2.52412">
        <ele>601.416</ele>
        <time>2011-04-02T05:26:53Z</time>
      </trkpt>
      <trkpt lat="42.27799" lon="2.52415">
        <ele>601.48</ele>
        <time>2011-04-02T05:27:00Z</time>
      </trkpt>
      <trkpt lat="42.278" lon="2.52413">
        <ele>604.823</ele>
        <time>2011-04-02T05:27:03Z</time>
      </trkpt>
      <trkpt lat="42.27801" lon="2.52412">
        <ele>602.942</ele>
        <time>2011-04-02T05:27:04Z</time>
      </trkpt>
      <trkpt lat="42.27803" lon="2.52411">
        <ele>607.789</ele>
        <time>2011-04-02T05:27:06Z</time>
      </trkpt>
      <trkpt lat="42.27804" lon="2.52411">
        <ele>602.447</ele>
        <time>2011-04-02T05:27:07Z</time>
      </trkpt>
      <trkpt lat="42.27806" lon="2.52411">
        <ele>608.27</ele>
        <time>2011-04-02T05:27:09Z</time>
      </trkpt>
      <trkpt lat="42.27807" lon="2.5241">
        <ele>604.319</ele>
        <time>2011-04-02T05:27:10Z</time>
      </trkpt>
      <trkpt lat="42.27809" lon="2.5241">
        <ele>605.809</ele>
        <time>2011-04-02T05:27:12Z</time>
      </trkpt>
      <trkpt lat="42.27811" lon="2.52409">
        <ele>607.719</ele>
        <time>2011-04-02T05:27:14Z</time>
      </trkpt>
      <trkpt lat="42.27813" lon="2.52408">
        <ele>606.307</ele>
        <time>2011-04-02T05:27:16Z</time>
      </trkpt>
      <trkpt lat="42.27814" lon="2.52407">
        <ele>609.612</ele>
        <time>2011-04-02T05:27:17Z</time>
      </trkpt>
      <trkpt lat="42.27819" lon="2.52406">
        <ele>604.376</ele>
        <time>2011-04-02T05:27:22Z</time>
      </trkpt>
      <trkpt lat="42.27821" lon="2.52405">
        <ele>609.199</ele>
        <time>2011-04-02T05:27:24Z</time>
      </trkpt>
      <trkpt lat="42.27824" lon="2.52404">
        <ele>608.758</ele>
        <time>2011-04-02T05:27:27Z</time>
      </trkpt>
      <trkpt lat="42.27827" lon="2.52403">
        <ele>614.995</ele>
        <time>2011-04-02T05:27:31Z</time>
      </trkpt>
      <trkpt lat="42.27828" lon="2.52402">
        <ele>611.543</ele>
        <time>2011-04-02T05:27:32Z</time>
      </trkpt>
      <trkpt lat="42.27831" lon="2.52403">
        <ele>611.116</ele>
        <time>2011-04-02T05:27:34Z</time>
      </trkpt>
      <trkpt lat="42.27835" lon="2.52403">
        <ele>609.124</ele>
        <time>2011-04-02T05:27:37Z</time>
      </trkpt>
      <trkpt lat="42.27838" lon="2.52404">
        <ele>612.504</ele>
        <time>2011-04-02T05:27:40Z</time>
      </trkpt>
      <trkpt lat="42.27841" lon="2.52404">
        <ele>613.914</ele>
        <time>2011-04-02T05:27:42Z</time>
      </trkpt>
      <trkpt lat="42.27843" lon="2.52404">
        <ele>616.307</ele>
        <time>2011-04-02T05:27:44Z</time>
      </trkpt>
      <trkpt lat="42.27844" lon="2.52405">
        <ele>616.343</ele>
        <time>2011-04-02T05:27:45Z</time>
      </trkpt>
      <trkpt lat="42.27846" lon="2.52405">
        <ele>613.917</ele>
        <time>2011-04-02T05:27:47Z</time>
      </trkpt>
      <trkpt lat="42.27847" lon="2.52405">
        <ele>617.37</ele>
        <time>2011-04-02T05:27:48Z</time>
      </trkpt>
      <trkpt lat="42.27848" lon="2.52405">
        <ele>611.589</ele>
        <time>2011-04-02T05:27:49Z</time>
      </trkpt>
      <trkpt lat="42.27849" lon="2.52406">
        <ele>612.516</ele>
        <time>2011-04-02T05:27:50Z</time>
      </trkpt>
      <trkpt lat="42.27852" lon="2.52406">
        <ele>613.924</ele>
        <time>2011-04-02T05:27:52Z</time>
      </trkpt>
      <trkpt lat="42.27858" lon="2.52408">
        <ele>615.437</ele>
        <time>2011-04-02T05:27:57Z</time>
      </trkpt>
      <trkpt lat="42.27863" lon="2.52408">
        <ele>612.039</ele>
        <time>2011-04-02T05:28:01Z</time>
      </trkpt>
      <trkpt lat="42.27865" lon="2.52408">
        <ele>618.301</ele>
        <time>2011-04-02T05:28:03Z</time>
      </trkpt>
      <trkpt lat="42.27871" lon="2.52407">
        <ele>619.721</ele>
        <time>2011-04-02T05:28:09Z</time>
      </trkpt>
      <trkpt lat="42.27873" lon="2.52408">
        <ele>616.307</ele>
        <time>2011-04-02T05:28:11Z</time>
      </trkpt>
      <trkpt lat="42.27878" lon="2.52409">
        <ele>621.684</ele>
        <time>2011-04-02T05:28:15Z</time>
      </trkpt>
      <trkpt lat="42.27879" lon="2.5241">
        <ele>620.738</ele>
        <time>2011-04-02T05:28:16Z</time>
      </trkpt>
      <trkpt lat="42.27881" lon="2.52411">
        <ele>619.271</ele>
        <time>2011-04-02T05:28:18Z</time>
      </trkpt>
      <trkpt lat="42.27885" lon="2.52412">
        <ele>621.26</ele>
        <time>2011-04-02T05:28:21Z</time>
      </trkpt>
      <trkpt lat="42.27886" lon="2.52412">
        <ele>617.887</ele>
        <time>2011-04-02T05:28:22Z</time>
      </trkpt>
      <trkpt lat="42.27887" lon="2.52413">
        <ele>620.775</ele>
        <time>2011-04-02T05:28:23Z</time>
      </trkpt>
      <trkpt lat="42.27892" lon="2.52412">
        <ele>624.528</ele>
        <time>2011-04-02T05:28:29Z</time>
      </trkpt>
      <trkpt lat="42.27896" lon="2.52414">
        <ele>625.031</ele>
        <time>2011-04-02T05:28:33Z</time>
      </trkpt>
      <trkpt lat="42.27897" lon="2.52414">
        <ele>623.661</ele>
        <time>2011-04-02T05:28:34Z</time>
      </trkpt>
      <trkpt lat="42.27902" lon="2.52416">
        <ele>621.607</ele>
        <time>2011-04-02T05:28:38Z</time>
      </trkpt>
      <trkpt lat="42.27904" lon="2.52417">
        <ele>625.007</ele>
        <time>2011-04-02T05:28:40Z</time>
      </trkpt>
      <trkpt lat="42.27907" lon="2.52417">
        <ele>619.234</ele>
        <time>2011-04-02T05:28:44Z</time>
      </trkpt>
      <trkpt lat="42.27908" lon="2.52417">
        <ele>624.578</ele>
        <time>2011-04-02T05:28:45Z</time>
      </trkpt>
      <trkpt lat="42.27909" lon="2.52417">
        <ele>626.971</ele>
        <time>2011-04-02T05:28:46Z</time>
      </trkpt>
      <trkpt lat="42.27912" lon="2.52418">
        <ele>628.87</ele>
        <time>2011-04-02T05:28:49Z</time>
      </trkpt>
      <trkpt lat="42.27915" lon="2.52419">
        <ele>629.337</ele>
        <time>2011-04-02T05:28:52Z</time>
      </trkpt>
      <trkpt lat="42.2792" lon="2.52418">
        <ele>630.355</ele>
        <time>2011-04-02T05:28:58Z</time>
      </trkpt>
      <trkpt lat="42.27921" lon="2.52417">
        <ele>630.868</ele>
        <time>2011-04-02T05:28:59Z</time>
      </trkpt>
      <trkpt lat="42.27923" lon="2.52417">
        <ele>628.428</ele>
        <time>2011-04-02T05:29:03Z</time>
      </trkpt>
      <trkpt lat="42.27926" lon="2.52418">
        <ele>632.289</ele>
        <time>2011-04-02T05:29:06Z</time>
      </trkpt>
      <trkpt lat="42.27928" lon="2.52418">
        <ele>629.817</ele>
        <time>2011-04-02T05:29:09Z</time>
      </trkpt>
      <trkpt lat="42.2793" lon="2.52417">
        <ele>632.707</ele>
        <time>2011-04-02T05:29:11Z</time>
      </trkpt>
      <trkpt lat="42.27931" lon="2.52417">
        <ele>638.053</ele>
        <time>2011-04-02T05:29:13Z</time>
      </trkpt>
      <trkpt lat="42.27932" lon="2.52417">
        <ele>631.797</ele>
        <time>2011-04-02T05:29:14Z</time>
      </trkpt>
      <trkpt lat="42.27933" lon="2.52417">
        <ele>636.19</ele>
        <time>2011-04-02T05:29:16Z</time>
      </trkpt>
      <trkpt lat="42.27934" lon="2.52417">
        <ele>631.299</ele>
        <time>2011-04-02T05:29:17Z</time>
      </trkpt>
      <trkpt lat="42.27935" lon="2.52416">
        <ele>637.056</ele>
        <time>2011-04-02T05:29:18Z</time>
      </trkpt>
      <trkpt lat="42.27936" lon="2.52415">
        <ele>638.984</ele>
        <time>2011-04-02T05:29:23Z</time>
      </trkpt>
      <trkpt lat="42.27937" lon="2.52414">
        <ele>638.947</ele>
        <time>2011-04-02T05:29:25Z</time>
      </trkpt>
      <trkpt lat="42.27943" lon="2.5241">
        <ele>638.538</ele>
        <time>2011-04-02T05:29:34Z</time>
      </trkpt>
      <trkpt lat="42.27944" lon="2.52409">
        <ele>641.87</ele>
        <time>2011-04-02T05:29:36Z</time>
      </trkpt>
      <trkpt lat="42.27945" lon="2.52409">
        <ele>645.217</ele>
        <time>2011-04-02T05:29:37Z</time>
      </trkpt>
      <trkpt lat="42.27946" lon="2.52409">
        <ele>644.707</ele>
        <time>2011-04-02T05:29:38Z</time>
      </trkpt>
      <trkpt lat="42.27947" lon="2.5241">
        <ele>641.324</ele>
        <time>2011-04-02T05:29:40Z</time>
      </trkpt>
      <trkpt lat="42.27948" lon="2.5241">
        <ele>641.828</ele>
        <time>2011-04-02T05:29:41Z</time>
      </trkpt>
      <trkpt lat="42.27952" lon="2.52413">
        <ele>642.871</ele>
        <time>2011-04-02T05:29:45Z</time>
      </trkpt>
      <trkpt lat="42.27959" lon="2.52421">
        <ele>639.45</ele>
        <time>2011-04-02T05:29:51Z</time>
      </trkpt>
      <trkpt lat="42.2796" lon="2.52422">
        <ele>643.747</ele>
        <time>2011-04-02T05:29:52Z</time>
      </trkpt>
      <trkpt lat="42.27964" lon="2.52427">
        <ele>640.495</ele>
        <time>2011-04-02T05:29:56Z</time>
      </trkpt>
      <trkpt lat="42.27965" lon="2.52429">
        <ele>643.778</ele>
        <time>2011-04-02T05:29:57Z</time>
      </trkpt>
      <trkpt lat="42.27968" lon="2.52432">
        <ele>641.346</ele>
        <time>2011-04-02T05:30:00Z</time>
      </trkpt>
      <trkpt lat="42.2797" lon="2.52434">
        <ele>645.288</ele>
        <time>2011-04-02T05:30:02Z</time>
      </trkpt>
      <trkpt lat="42.27971" lon="2.52434">
        <ele>641.816</ele>
        <time>2011-04-02T05:30:03Z</time>
      </trkpt>
      <trkpt lat="42.27976" lon="2.52438">
        <ele>645.707</ele>
        <time>2011-04-02T05:30:08Z</time>
      </trkpt>
      <trkpt lat="42.27982" lon="2.52446">
        <ele>644.235</ele>
        <time>2011-04-02T05:30:15Z</time>
      </trkpt>
      <trkpt lat="42.27986" lon="2.5245">
        <ele>646.649</ele>
        <time>2011-04-02T05:30:19Z</time>
      </trkpt>
      <trkpt lat="42.27992" lon="2.52457">
        <ele>644.712</ele>
        <time>2011-04-02T05:30:25Z</time>
      </trkpt>
      <trkpt lat="42.27993" lon="2.52458">
        <ele>645.771</ele>
        <time>2011-04-02T05:30:26Z</time>
      </trkpt>
      <trkpt lat="42.27995" lon="2.52461">
        <ele>646.668</ele>
        <time>2011-04-02T05:30:28Z</time>
      </trkpt>
      <trkpt lat="42.28003" lon="2.52473">
        <ele>645.296</ele>
        <time>2011-04-02T05:30:36Z</time>
      </trkpt>
      <trkpt lat="42.28005" lon="2.52475">
        <ele>650.529</ele>
        <time>2011-04-02T05:30:38Z</time>
      </trkpt>
      <trkpt lat="42.28006" lon="2.52477">
        <ele>645.235</ele>
        <time>2011-04-02T05:30:39Z</time>
      </trkpt>
      <trkpt lat="42.28006" lon="2.52478">
        <ele>649.586</ele>
        <time>2011-04-02T05:30:40Z</time>
      </trkpt>
      <trkpt lat="42.2801" lon="2.52486">
        <ele>646.614</ele>
        <time>2011-04-02T05:30:45Z</time>
      </trkpt>
      <trkpt lat="42.28013" lon="2.52489">
        <ele>649.507</ele>
        <time>2011-04-02T05:30:48Z</time>
      </trkpt>
      <trkpt lat="42.28017" lon="2.52495">
        <ele>652.974</ele>
        <time>2011-04-02T05:30:53Z</time>
      </trkpt>
      <trkpt lat="42.28017" lon="2.52497">
        <ele>649.058</ele>
        <time>2011-04-02T05:30:54Z</time>
      </trkpt>
      <trkpt lat="42.28018" lon="2.52498">
        <ele>649.561</ele>
        <time>2011-04-02T05:30:55Z</time>
      </trkpt>
      <trkpt lat="42.28019" lon="2.52501">
        <ele>651.99</ele>
        <time>2011-04-02T05:30:57Z</time>
      </trkpt>
      <trkpt lat="42.28023" lon="2.52506">
        <ele>651.957</ele>
        <time>2011-04-02T05:31:01Z</time>
      </trkpt>
      <trkpt lat="42.28025" lon="2.52509">
        <ele>651.925</ele>
        <time>2011-04-02T05:31:03Z</time>
      </trkpt>
      <trkpt lat="42.2803" lon="2.52514">
        <ele>654.368</ele>
        <time>2011-04-02T05:31:08Z</time>
      </trkpt>
      <trkpt lat="42.28033" lon="2.52518">
        <ele>656.227</ele>
        <time>2011-04-02T05:31:11Z</time>
      </trkpt>
      <trkpt lat="42.28035" lon="2.5252">
        <ele>652.968</ele>
        <time>2011-04-02T05:31:13Z</time>
      </trkpt>
      <trkpt lat="42.28036" lon="2.52522">
        <ele>654.814</ele>
        <time>2011-04-02T05:31:14Z</time>
      </trkpt>
      <trkpt lat="42.28038" lon="2.52531">
        <ele>655.807</ele>
        <time>2011-04-02T05:31:20Z</time>
      </trkpt>
      <trkpt lat="42.2804" lon="2.52533">
        <ele>658.253</ele>
        <time>2011-04-02T05:31:22Z</time>
      </trkpt>
      <trkpt lat="42.2804" lon="2.52535">
        <ele>657.777</ele>
        <time>2011-04-02T05:31:23Z</time>
      </trkpt>
      <trkpt lat="42.28041" lon="2.52536">
        <ele>656.26</ele>
        <time>2011-04-02T05:31:24Z</time>
      </trkpt>
      <trkpt lat="42.28042" lon="2.5254">
        <ele>654.379</ele>
        <time>2011-04-02T05:31:26Z</time>
      </trkpt>
      <trkpt lat="42.28042" lon="2.52542">
        <ele>655.366</ele>
        <time>2011-04-02T05:31:27Z</time>
      </trkpt>
      <trkpt lat="42.28042" lon="2.52545">
        <ele>653.814</ele>
        <time>2011-04-02T05:31:29Z</time>
      </trkpt>
      <trkpt lat="42.28043" lon="2.52548">
        <ele>659.167</ele>
        <time>2011-04-02T05:31:31Z</time>
      </trkpt>
      <trkpt lat="42.28043" lon="2.52549">
        <ele>660.694</ele>
        <time>2011-04-02T05:31:32Z</time>
      </trkpt>
      <trkpt lat="42.28051" lon="2.52559">
        <ele>658.257</ele>
        <time>2011-04-02T05:31:42Z</time>
      </trkpt>
      <trkpt lat="42.28052" lon="2.52561">
        <ele>660.122</ele>
        <time>2011-04-02T05:31:44Z</time>
      </trkpt>
      <trkpt lat="42.28054" lon="2.52566">
        <ele>662.007</ele>
        <time>2011-04-02T05:31:48Z</time>
      </trkpt>
      <trkpt lat="42.28053" lon="2.52569">
        <ele>660.16</ele>
        <time>2011-04-02T05:31:51Z</time>
      </trkpt>
      <trkpt lat="42.28052" lon="2.52571">
        <ele>656.754</ele>
        <time>2011-04-02T05:31:55Z</time>
      </trkpt>
      <trkpt lat="42.28052" lon="2.52571">
        <ele>663.037</ele>
        <time>2011-04-02T05:31:56Z</time>
      </trkpt>
      <trkpt lat="42.28052" lon="2.52571">
        <ele>660.656</ele>
        <time>2011-04-02T05:31:57Z</time>
      </trkpt>
      <trkpt lat="42.28052" lon="2.52571">
        <ele>659.643</ele>
        <time>2011-04-02T05:31:59Z</time>
      </trkpt>
      <trkpt lat="42.28052" lon="2.52571">
        <ele>661.541</ele>
        <time>2011-04-02T05:32:00Z</time>
      </trkpt>
      <trkpt lat="42.28053" lon="2.52575">
        <ele>663.084</ele>
        <time>2011-04-02T05:32:05Z</time>
      </trkpt>
      <trkpt lat="42.28052" lon="2.52586">
        <ele>661.043</ele>
        <time>2011-04-02T05:32:12Z</time>
      </trkpt>
      <trkpt lat="42.28052" lon="2.52589">
        <ele>664.464</ele>
        <time>2011-04-02T05:32:14Z</time>
      </trkpt>
      <trkpt lat="42.28052" lon="2.52593">
        <ele>661.01</ele>
        <time>2011-04-02T05:32:17Z</time>
      </trkpt>
      <trkpt lat="42.28053" lon="2.52594">
        <ele>665.407</ele>
        <time>2011-04-02T05:32:18Z</time>
      </trkpt>
      <trkpt lat="42.28055" lon="2.52607">
        <ele>662.055</ele>
        <time>2011-04-02T05:32:26Z</time>
      </trkpt>
      <trkpt lat="42.28056" lon="2.5261">
        <ele>664.969</ele>
        <time>2011-04-02T05:32:28Z</time>
      </trkpt>
      <trkpt lat="42.28067" lon="2.5263">
        <ele>669.242</ele>
        <time>2011-04-02T05:32:42Z</time>
      </trkpt>
      <trkpt lat="42.28068" lon="2.52631">
        <ele>669.291</ele>
        <time>2011-04-02T05:32:43Z</time>
      </trkpt>
      <trkpt lat="42.2807" lon="2.52632">
        <ele>661.578</ele>
        <time>2011-04-02T05:32:45Z</time>
      </trkpt>
      <trkpt lat="42.28071" lon="2.52633">
        <ele>668.386</ele>
        <time>2011-04-02T05:32:46Z</time>
      </trkpt>
      <trkpt lat="42.28075" lon="2.52636">
        <ele>673.179</ele>
        <time>2011-04-02T05:32:51Z</time>
      </trkpt>
      <trkpt lat="42.28076" lon="2.52637">
        <ele>670.771</ele>
        <time>2011-04-02T05:32:52Z</time>
      </trkpt>
      <trkpt lat="42.2808" lon="2.52639">
        <ele>667.841</ele>
        <time>2011-04-02T05:32:57Z</time>
      </trkpt>
      <trkpt lat="42.28085" lon="2.5264">
        <ele>672.615</ele>
        <time>2011-04-02T05:33:01Z</time>
      </trkpt>
      <trkpt lat="42.28086" lon="2.52641">
        <ele>673.107</ele>
        <time>2011-04-02T05:33:02Z</time>
      </trkpt>
      <trkpt lat="42.28088" lon="2.52642">
        <ele>673.568</ele>
        <time>2011-04-02T05:33:04Z</time>
      </trkpt>
      <trkpt lat="42.281" lon="2.52643">
        <ele>677.462</ele>
        <time>2011-04-02T05:33:14Z</time>
      </trkpt>
      <trkpt lat="42.28101" lon="2.52644">
        <ele>673.135</ele>
        <time>2011-04-02T05:33:15Z</time>
      </trkpt>
      <trkpt lat="42.28109" lon="2.52648">
        <ele>674.034</ele>
        <time>2011-04-02T05:33:22Z</time>
      </trkpt>
      <trkpt lat="42.28114" lon="2.52651">
        <ele>678.881</ele>
        <time>2011-04-02T05:33:26Z</time>
      </trkpt>
      <trkpt lat="42.28118" lon="2.52653">
        <ele>674.589</ele>
        <time>2011-04-02T05:33:29Z</time>
      </trkpt>
      <trkpt lat="42.28119" lon="2.52654">
        <ele>679.342</ele>
        <time>2011-04-02T05:33:30Z</time>
      </trkpt>
      <trkpt lat="42.28121" lon="2.52656">
        <ele>676.454</ele>
        <time>2011-04-02T05:33:32Z</time>
      </trkpt>
      <trkpt lat="42.28128" lon="2.52665">
        <ele>679.356</ele>
        <time>2011-04-02T05:33:38Z</time>
      </trkpt>
      <trkpt lat="42.2813" lon="2.52668">
        <ele>674.511</ele>
        <time>2011-04-02T05:33:40Z</time>
      </trkpt>
      <trkpt lat="42.28131" lon="2.52669">
        <ele>679.807</ele>
        <time>2011-04-02T05:33:41Z</time>
      </trkpt>
      <trkpt lat="42.28131" lon="2.52671">
        <ele>674.546</ele>
        <time>2011-04-02T05:33:42Z</time>
      </trkpt>
      <trkpt lat="42.28132" lon="2.52673">
        <ele>678.89</ele>
        <time>2011-04-02T05:33:43Z</time>
      </trkpt>
      <trkpt lat="42.28134" lon="2.52687">
        <ele>676.413</ele>
        <time>2011-04-02T05:33:49Z</time>
      </trkpt>
      <trkpt lat="42.28135" lon="2.52693">
        <ele>680.852</ele>
        <time>2011-04-02T05:33:51Z</time>
      </trkpt>
      <trkpt lat="42.28135" lon="2.52695">
        <ele>675.599</ele>
        <time>2011-04-02T05:33:52Z</time>
      </trkpt>
      <trkpt lat="42.28135" lon="2.52698">
        <ele>680.377</ele>
        <time>2011-04-02T05:33:53Z</time>
      </trkpt>
      <trkpt lat="42.28135" lon="2.52702">
        <ele>675.08</ele>
        <time>2011-04-02T05:33:55Z</time>
      </trkpt>
      <trkpt lat="42.28136" lon="2.52705">
        <ele>679.867</ele>
        <time>2011-04-02T05:33:56Z</time>
      </trkpt>
      <trkpt lat="42.28138" lon="2.52716">
        <ele>679.381</ele>
        <time>2011-04-02T05:34:02Z</time>
      </trkpt>
      <trkpt lat="42.28145" lon="2.52733">
        <ele>679.319</ele>
        <time>2011-04-02T05:34:11Z</time>
      </trkpt>
      <trkpt lat="42.28152" lon="2.52747">
        <ele>684.607</ele>
        <time>2011-04-02T05:34:20Z</time>
      </trkpt>
      <trkpt lat="42.28152" lon="2.52749">
        <ele>684.617</ele>
        <time>2011-04-02T05:34:21Z</time>
      </trkpt>
      <trkpt lat="42.28153" lon="2.5275">
        <ele>681.731</ele>
        <time>2011-04-02T05:34:22Z</time>
      </trkpt>
      <trkpt lat="42.28154" lon="2.52752">
        <ele>681.774</ele>
        <time>2011-04-02T05:34:23Z</time>
      </trkpt>
      <trkpt lat="42.28155" lon="2.52753">
        <ele>685.623</ele>
        <time>2011-04-02T05:34:24Z</time>
      </trkpt>
      <trkpt lat="42.28156" lon="2.52755">
        <ele>682.73</ele>
        <time>2011-04-02T05:34:25Z</time>
      </trkpt>
      <trkpt lat="42.2816" lon="2.52765">
        <ele>688.938</ele>
        <time>2011-04-02T05:34:31Z</time>
      </trkpt>
      <trkpt lat="42.28161" lon="2.52768">
        <ele>682.761</ele>
        <time>2011-04-02T05:34:33Z</time>
      </trkpt>
      <trkpt lat="42.28162" lon="2.5277">
        <ele>682.733</ele>
        <time>2011-04-02T05:34:34Z</time>
      </trkpt>
      <trkpt lat="42.28163" lon="2.52771">
        <ele>687.023</ele>
        <time>2011-04-02T05:34:35Z</time>
      </trkpt>
      <trkpt lat="42.28163" lon="2.52773">
        <ele>685.615</ele>
        <time>2011-04-02T05:34:36Z</time>
      </trkpt>
      <trkpt lat="42.28171" lon="2.52782">
        <ele>688.907</ele>
        <time>2011-04-02T05:34:44Z</time>
      </trkpt>
      <trkpt lat="42.28177" lon="2.52784">
        <ele>685.684</ele>
        <time>2011-04-02T05:34:49Z</time>
      </trkpt>
      <trkpt lat="42.28178" lon="2.52783">
        <ele>692.388</ele>
        <time>2011-04-02T05:34:50Z</time>
      </trkpt>
      <trkpt lat="42.28181" lon="2.52779">
        <ele>691.361</ele>
        <time>2011-04-02T05:34:54Z</time>
      </trkpt>
      <trkpt lat="42.28182" lon="2.52773">
        <ele>686.03</ele>
        <time>2011-04-02T05:34:57Z</time>
      </trkpt>
      <trkpt lat="42.28177" lon="2.5276">
        <ele>691.887</ele>
        <time>2011-04-02T05:35:05Z</time>
      </trkpt>
      <trkpt lat="42.28176" lon="2.52754">
        <ele>695.255</ele>
        <time>2011-04-02T05:35:09Z</time>
      </trkpt>
      <trkpt lat="42.28176" lon="2.52752">
        <ele>691.348</ele>
        <time>2011-04-02T05:35:10Z</time>
      </trkpt>
      <trkpt lat="42.28175" lon="2.52749">
        <ele>688.092</ele>
        <time>2011-04-02T05:35:12Z</time>
      </trkpt>
      <trkpt lat="42.28175" lon="2.52747">
        <ele>692.873</ele>
        <time>2011-04-02T05:35:13Z</time>
      </trkpt>
      <trkpt lat="42.28177" lon="2.52717">
        <ele>697.62</ele>
        <time>2011-04-02T05:35:28Z</time>
      </trkpt>
      <trkpt lat="42.28178" lon="2.52715">
        <ele>695.707</ele>
        <time>2011-04-02T05:35:29Z</time>
      </trkpt>
      <trkpt lat="42.28179" lon="2.52711">
        <ele>695.75</ele>
        <time>2011-04-02T05:35:31Z</time>
      </trkpt>
      <trkpt lat="42.28194" lon="2.52692">
        <ele>697.694</ele>
        <time>2011-04-02T05:35:45Z</time>
      </trkpt>
      <trkpt lat="42.28199" lon="2.52686">
        <ele>694.217</ele>
        <time>2011-04-02T05:35:50Z</time>
      </trkpt>
      <trkpt lat="42.282" lon="2.52684">
        <ele>699.066</ele>
        <time>2011-04-02T05:35:51Z</time>
      </trkpt>
      <trkpt lat="42.28201" lon="2.52683">
        <ele>694.763</ele>
        <time>2011-04-02T05:35:52Z</time>
      </trkpt>
      <trkpt lat="42.28201" lon="2.52681">
        <ele>698.181</ele>
        <time>2011-04-02T05:35:53Z</time>
      </trkpt>
      <trkpt lat="42.28204" lon="2.52674">
        <ele>702.464</ele>
        <time>2011-04-02T05:35:57Z</time>
      </trkpt>
      <trkpt lat="42.28204" lon="2.52672">
        <ele>701.492</ele>
        <time>2011-04-02T05:35:58Z</time>
      </trkpt>
      <trkpt lat="42.28205" lon="2.52669">
        <ele>699.573</ele>
        <time>2011-04-02T05:36:00Z</time>
      </trkpt>
      <trkpt lat="42.28208" lon="2.52657">
        <ele>702.42</ele>
        <time>2011-04-02T05:36:07Z</time>
      </trkpt>
      <trkpt lat="42.28208" lon="2.52655">
        <ele>699.007</ele>
        <time>2011-04-02T05:36:08Z</time>
      </trkpt>
      <trkpt lat="42.28209" lon="2.52649">
        <ele>703.89</ele>
        <time>2011-04-02T05:36:11Z</time>
      </trkpt>
      <trkpt lat="42.2821" lon="2.52643">
        <ele>700.544</ele>
        <time>2011-04-02T05:36:14Z</time>
      </trkpt>
      <trkpt lat="42.28211" lon="2.52636">
        <ele>704.817</ele>
        <time>2011-04-02T05:36:18Z</time>
      </trkpt>
      <trkpt lat="42.28211" lon="2.52634">
        <ele>701.936</ele>
        <time>2011-04-02T05:36:19Z</time>
      </trkpt>
      <trkpt lat="42.28211" lon="2.52632">
        <ele>706.783</ele>
        <time>2011-04-02T05:36:20Z</time>
      </trkpt>
      <trkpt lat="42.28211" lon="2.5263">
        <ele>702.411</ele>
        <time>2011-04-02T05:36:21Z</time>
      </trkpt>
      <trkpt lat="42.28213" lon="2.52614">
        <ele>702.944</ele>
        <time>2011-04-02T05:36:30Z</time>
      </trkpt>
      <trkpt lat="42.28216" lon="2.52609">
        <ele>705.366</ele>
        <time>2011-04-02T05:36:33Z</time>
      </trkpt>
      <trkpt lat="42.28222" lon="2.52608">
        <ele>708.229</ele>
        <time>2011-04-02T05:36:37Z</time>
      </trkpt>
      <trkpt lat="42.28224" lon="2.52609">
        <ele>704.821</ele>
        <time>2011-04-02T05:36:38Z</time>
      </trkpt>
      <trkpt lat="42.28225" lon="2.52611">
        <ele>706.207</ele>
        <time>2011-04-02T05:36:39Z</time>
      </trkpt>
      <trkpt lat="42.28231" lon="2.5262">
        <ele>712.017</ele>
        <time>2011-04-02T05:36:45Z</time>
      </trkpt>
      <trkpt lat="42.28232" lon="2.52622">
        <ele>710.131</ele>
        <time>2011-04-02T05:36:46Z</time>
      </trkpt>
      <trkpt lat="42.28233" lon="2.52623">
        <ele>705.344</ele>
        <time>2011-04-02T05:36:47Z</time>
      </trkpt>
      <trkpt lat="42.28234" lon="2.52625">
        <ele>705.323</ele>
        <time>2011-04-02T05:36:48Z</time>
      </trkpt>
      <trkpt lat="42.28235" lon="2.52626">
        <ele>709.18</ele>
        <time>2011-04-02T05:36:49Z</time>
      </trkpt>
      <trkpt lat="42.28236" lon="2.52628">
        <ele>706.798</ele>
        <time>2011-04-02T05:36:50Z</time>
      </trkpt>
      <trkpt lat="42.28247" lon="2.52641">
        <ele>710.161</ele>
        <time>2011-04-02T05:36:59Z</time>
      </trkpt>
      <trkpt lat="42.28248" lon="2.52643">
        <ele>705.898</ele>
        <time>2011-04-02T05:37:00Z</time>
      </trkpt>
      <trkpt lat="42.2825" lon="2.52646">
        <ele>709.615</ele>
        <time>2011-04-02T05:37:02Z</time>
      </trkpt>
      <trkpt lat="42.28255" lon="2.52651">
        <ele>709.626</ele>
        <time>2011-04-02T05:37:06Z</time>
      </trkpt>
      <trkpt lat="42.28261" lon="2.52658">
        <ele>707.707</ele>
        <time>2011-04-02T05:37:11Z</time>
      </trkpt>
      <trkpt lat="42.28268" lon="2.52665">
        <ele>712.54</ele>
        <time>2011-04-02T05:37:17Z</time>
      </trkpt>
      <trkpt lat="42.28273" lon="2.52669">
        <ele>708.294</ele>
        <time>2011-04-02T05:37:21Z</time>
      </trkpt>
      <trkpt lat="42.28275" lon="2.52671">
        <ele>715.867</ele>
        <time>2011-04-02T05:37:23Z</time>
      </trkpt>
      <trkpt lat="42.28276" lon="2.52673">
        <ele>710.176</ele>
        <time>2011-04-02T05:37:24Z</time>
      </trkpt>
      <trkpt lat="42.28284" lon="2.52681">
        <ele>711.073</ele>
        <time>2011-04-02T05:37:30Z</time>
      </trkpt>
      <trkpt lat="42.28291" lon="2.52689">
        <ele>715.461</ele>
        <time>2011-04-02T05:37:36Z</time>
      </trkpt>
      <trkpt lat="42.28292" lon="2.52691">
        <ele>710.644</ele>
        <time>2011-04-02T05:37:37Z</time>
      </trkpt>
      <trkpt lat="42.28294" lon="2.52694">
        <ele>714.456</ele>
        <time>2011-04-02T05:37:39Z</time>
      </trkpt>
      <trkpt lat="42.28295" lon="2.52695">
        <ele>713.059</ele>
        <time>2011-04-02T05:37:40Z</time>
      </trkpt>
      <trkpt lat="42.28298" lon="2.52698">
        <ele>711.514</ele>
        <time>2011-04-02T05:37:42Z</time>
      </trkpt>
      <trkpt lat="42.28308" lon="2.52713">
        <ele>715.407</ele>
        <time>2011-04-02T05:37:52Z</time>
      </trkpt>
      <trkpt lat="42.28309" lon="2.52715">
        <ele>715.476</ele>
        <time>2011-04-02T05:37:53Z</time>
      </trkpt>
      <trkpt lat="42.28315" lon="2.52735">
        <ele>716.84</ele>
        <time>2011-04-02T05:38:04Z</time>
      </trkpt>
      <trkpt lat="42.28315" lon="2.52738">
        <ele>712.083</ele>
        <time>2011-04-02T05:38:05Z</time>
      </trkpt>
      <trkpt lat="42.28316" lon="2.52742">
        <ele>718.252</ele>
        <time>2011-04-02T05:38:07Z</time>
      </trkpt>
      <trkpt lat="42.28316" lon="2.52743">
        <ele>715.459</ele>
        <time>2011-04-02T05:38:08Z</time>
      </trkpt>
      <trkpt lat="42.28315" lon="2.52745">
        <ele>716.377</ele>
        <time>2011-04-02T05:38:09Z</time>
      </trkpt>
      <trkpt lat="42.28316" lon="2.52753">
        <ele>721.13</ele>
        <time>2011-04-02T05:38:14Z</time>
      </trkpt>
      <trkpt lat="42.28317" lon="2.52755">
        <ele>716.849</ele>
        <time>2011-04-02T05:38:15Z</time>
      </trkpt>
      <trkpt lat="42.28319" lon="2.52762">
        <ele>720.202</ele>
        <time>2011-04-02T05:38:19Z</time>
      </trkpt>
      <trkpt lat="42.28321" lon="2.52766">
        <ele>713.422</ele>
        <time>2011-04-02T05:38:21Z</time>
      </trkpt>
      <trkpt lat="42.28322" lon="2.52767">
        <ele>720.207</ele>
        <time>2011-04-02T05:38:22Z</time>
      </trkpt>
      <trkpt lat="42.28331" lon="2.52778">
        <ele>716.895</ele>
        <time>2011-04-02T05:38:31Z</time>
      </trkpt>
      <trkpt lat="42.28336" lon="2.52779">
        <ele>719.299</ele>
        <time>2011-04-02T05:38:36Z</time>
      </trkpt>
      <trkpt lat="42.28339" lon="2.52776">
        <ele>722.612</ele>
        <time>2011-04-02T05:38:40Z</time>
      </trkpt>
      <trkpt lat="42.28341" lon="2.52773">
        <ele>717.381</ele>
        <time>2011-04-02T05:38:43Z</time>
      </trkpt>
      <trkpt lat="42.28342" lon="2.52771">
        <ele>723.598</ele>
        <time>2011-04-02T05:38:44Z</time>
      </trkpt>
      <trkpt lat="42.28342" lon="2.5277">
        <ele>718.276</ele>
        <time>2011-04-02T05:38:45Z</time>
      </trkpt>
      <trkpt lat="42.28344" lon="2.52765">
        <ele>723.549</ele>
        <time>2011-04-02T05:38:48Z</time>
      </trkpt>
      <trkpt lat="42.28344" lon="2.52764">
        <ele>720.256</ele>
        <time>2011-04-02T05:38:49Z</time>
      </trkpt>
      <trkpt lat="42.28345" lon="2.52761">
        <ele>722.659</ele>
        <time>2011-04-02T05:38:51Z</time>
      </trkpt>
      <trkpt lat="42.28347" lon="2.52758">
        <ele>725.514</ele>
        <time>2011-04-02T05:38:53Z</time>
      </trkpt>
      <trkpt lat="42.28349" lon="2.52756">
        <ele>725.007</ele>
        <time>2011-04-02T05:38:55Z</time>
      </trkpt>
      <trkpt lat="42.28353" lon="2.52753">
        <ele>731.236</ele>
        <time>2011-04-02T05:38:58Z</time>
      </trkpt>
      <trkpt lat="42.28354" lon="2.52752">
        <ele>723.51</ele>
        <time>2011-04-02T05:38:59Z</time>
      </trkpt>
      <trkpt lat="42.28355" lon="2.52751">
        <ele>730.743</ele>
        <time>2011-04-02T05:39:00Z</time>
      </trkpt>
      <trkpt lat="42.28357" lon="2.52751">
        <ele>727.442</ele>
        <time>2011-04-02T05:39:01Z</time>
      </trkpt>
      <trkpt lat="42.28359" lon="2.5275">
        <ele>722.139</ele>
        <time>2011-04-02T05:39:03Z</time>
      </trkpt>
      <trkpt lat="42.2836" lon="2.52749">
        <ele>725.067</ele>
        <time>2011-04-02T05:39:04Z</time>
      </trkpt>
      <trkpt lat="42.28363" lon="2.52748">
        <ele>729.37</ele>
        <time>2011-04-02T05:39:06Z</time>
      </trkpt>
      <trkpt lat="42.28364" lon="2.52748">
        <ele>723.186</ele>
        <time>2011-04-02T05:39:07Z</time>
      </trkpt>
      <trkpt lat="42.28366" lon="2.52748">
        <ele>728.36</ele>
        <time>2011-04-02T05:39:08Z</time>
      </trkpt>
      <trkpt lat="42.28368" lon="2.52746">
        <ele>725.026</ele>
        <time>2011-04-02T05:39:10Z</time>
      </trkpt>
      <trkpt lat="42.28369" lon="2.52745">
        <ele>728.307</ele>
        <time>2011-04-02T05:39:11Z</time>
      </trkpt>
      <trkpt lat="42.28374" lon="2.52737">
        <ele>728.899</ele>
        <time>2011-04-02T05:39:18Z</time>
      </trkpt>
      <trkpt lat="42.28376" lon="2.52731">
        <ele>732.283</ele>
        <time>2011-04-02T05:39:22Z</time>
      </trkpt>
      <trkpt lat="42.28377" lon="2.52725">
        <ele>729.316</ele>
        <time>2011-04-02T05:39:26Z</time>
      </trkpt>
      <trkpt lat="42.28378" lon="2.5272">
        <ele>733.155</ele>
        <time>2011-04-02T05:39:29Z</time>
      </trkpt>
      <trkpt lat="42.28379" lon="2.52713">
        <ele>736.072</ele>
        <time>2011-04-02T05:39:33Z</time>
      </trkpt>
      <trkpt lat="42.28384" lon="2.52699">
        <ele>732.71</ele>
        <time>2011-04-02T05:39:42Z</time>
      </trkpt>
      <trkpt lat="42.28385" lon="2.52698">
        <ele>732.783</ele>
        <time>2011-04-02T05:39:43Z</time>
      </trkpt>
      <trkpt lat="42.28385" lon="2.52697">
        <ele>738.435</ele>
        <time>2011-04-02T05:39:44Z</time>
      </trkpt>
      <trkpt lat="42.28385" lon="2.52695">
        <ele>732.286</ele>
        <time>2011-04-02T05:39:45Z</time>
      </trkpt>
      <trkpt lat="42.28387" lon="2.52691">
        <ele>735.614</ele>
        <time>2011-04-02T05:39:48Z</time>
      </trkpt>
      <trkpt lat="42.28388" lon="2.52689">
        <ele>737.507</ele>
        <time>2011-04-02T05:39:50Z</time>
      </trkpt>
      <trkpt lat="42.28389" lon="2.52686">
        <ele>736.584</ele>
        <time>2011-04-02T05:39:52Z</time>
      </trkpt>
      <trkpt lat="42.2839" lon="2.52685">
        <ele>739.428</ele>
        <time>2011-04-02T05:39:53Z</time>
      </trkpt>
      <trkpt lat="42.2839" lon="2.52683">
        <ele>737.561</ele>
        <time>2011-04-02T05:39:54Z</time>
      </trkpt>
      <trkpt lat="42.28391" lon="2.5268">
        <ele>740.88</ele>
        <time>2011-04-02T05:39:56Z</time>
      </trkpt>
      <trkpt lat="42.28392" lon="2.52676">
        <ele>735.627</ele>
        <time>2011-04-02T05:39:58Z</time>
      </trkpt>
      <trkpt lat="42.28392" lon="2.52675">
        <ele>741.325</ele>
        <time>2011-04-02T05:39:59Z</time>
      </trkpt>
      <trkpt lat="42.28393" lon="2.52673">
        <ele>739.948</ele>
        <time>2011-04-02T05:40:00Z</time>
      </trkpt>
      <trkpt lat="42.28397" lon="2.52665">
        <ele>738.972</ele>
        <time>2011-04-02T05:40:05Z</time>
      </trkpt>
      <trkpt lat="42.28399" lon="2.52656">
        <ele>742.313</ele>
        <time>2011-04-02T05:40:11Z</time>
      </trkpt>
      <trkpt lat="42.284" lon="2.52654">
        <ele>741.814</ele>
        <time>2011-04-02T05:40:12Z</time>
      </trkpt>
      <trkpt lat="42.28402" lon="2.52648">
        <ele>740.807</ele>
        <time>2011-04-02T05:40:16Z</time>
      </trkpt>
      <trkpt lat="42.28406" lon="2.5264">
        <ele>747.658</ele>
        <time>2011-04-02T05:40:21Z</time>
      </trkpt>
      <trkpt lat="42.28407" lon="2.52639">
        <ele>744.742</ele>
        <time>2011-04-02T05:40:22Z</time>
      </trkpt>
      <trkpt lat="42.28407" lon="2.52637">
        <ele>743.715</ele>
        <time>2011-04-02T05:40:23Z</time>
      </trkpt>
      <trkpt lat="42.28412" lon="2.52625">
        <ele>747.134</ele>
        <time>2011-04-02T05:40:30Z</time>
      </trkpt>
      <trkpt lat="42.28415" lon="2.52616">
        <ele>750.031</ele>
        <time>2011-04-02T05:40:36Z</time>
      </trkpt>
      <trkpt lat="42.28416" lon="2.52612">
        <ele>751.939</ele>
        <time>2011-04-02T05:40:38Z</time>
      </trkpt>
      <trkpt lat="42.28416" lon="2.52609">
        <ele>748.512</ele>
        <time>2011-04-02T05:40:40Z</time>
      </trkpt>
      <trkpt lat="42.28418" lon="2.52602">
        <ele>749.534</ele>
        <time>2011-04-02T05:40:44Z</time>
      </trkpt>
      <trkpt lat="42.28418" lon="2.526">
        <ele>746.155</ele>
        <time>2011-04-02T05:40:45Z</time>
      </trkpt>
      <trkpt lat="42.28422" lon="2.52591">
        <ele>747.11</ele>
        <time>2011-04-02T05:40:51Z</time>
      </trkpt>
      <trkpt lat="42.28423" lon="2.52589">
        <ele>753.307</ele>
        <time>2011-04-02T05:40:52Z</time>
      </trkpt>
      <trkpt lat="42.28424" lon="2.52588">
        <ele>751.954</ele>
        <time>2011-04-02T05:40:53Z</time>
      </trkpt>
      <trkpt lat="42.28425" lon="2.52585">
        <ele>750.038</ele>
        <time>2011-04-02T05:40:55Z</time>
      </trkpt>
      <trkpt lat="42.28425" lon="2.52583">
        <ele>756.241</ele>
        <time>2011-04-02T05:40:56Z</time>
      </trkpt>
      <trkpt lat="42.28425" lon="2.52582">
        <ele>753.34</ele>
        <time>2011-04-02T05:40:57Z</time>
      </trkpt>
      <trkpt lat="42.28428" lon="2.52575">
        <ele>757.227</ele>
        <time>2011-04-02T05:41:02Z</time>
      </trkpt>
      <trkpt lat="42.28428" lon="2.52573">
        <ele>753.315</ele>
        <time>2011-04-02T05:41:03Z</time>
      </trkpt>
      <trkpt lat="42.28429" lon="2.52572">
        <ele>753.358</ele>
        <time>2011-04-02T05:41:04Z</time>
      </trkpt>
      <trkpt lat="42.28431" lon="2.52566">
        <ele>751.929</ele>
        <time>2011-04-02T05:41:08Z</time>
      </trkpt>
      <trkpt lat="42.28433" lon="2.52563">
        <ele>757.7</ele>
        <time>2011-04-02T05:41:10Z</time>
      </trkpt>
      <trkpt lat="42.28433" lon="2.52561">
        <ele>754.82</ele>
        <time>2011-04-02T05:41:11Z</time>
      </trkpt>
      <trkpt lat="42.28436" lon="2.52553">
        <ele>759.107</ele>
        <time>2011-04-02T05:41:16Z</time>
      </trkpt>
      <trkpt lat="42.28436" lon="2.52551">
        <ele>755.713</ele>
        <time>2011-04-02T05:41:17Z</time>
      </trkpt>
      <trkpt lat="42.28437" lon="2.52544">
        <ele>760.577</ele>
        <time>2011-04-02T05:41:21Z</time>
      </trkpt>
      <trkpt lat="42.28437" lon="2.52542">
        <ele>755.39</ele>
        <time>2011-04-02T05:41:22Z</time>
      </trkpt>
      <trkpt lat="42.28438" lon="2.52539">
        <ele>760.539</ele>
        <time>2011-04-02T05:41:24Z</time>
      </trkpt>
      <trkpt lat="42.28438" lon="2.52537">
        <ele>758.176</ele>
        <time>2011-04-02T05:41:25Z</time>
      </trkpt>
      <trkpt lat="42.28439" lon="2.52525">
        <ele>761.014</ele>
        <time>2011-04-02T05:41:32Z</time>
      </trkpt>
      <trkpt lat="42.28439" lon="2.52523">
        <ele>761.597</ele>
        <time>2011-04-02T05:41:33Z</time>
      </trkpt>
      <trkpt lat="42.2844" lon="2.52516">
        <ele>758.142</ele>
        <time>2011-04-02T05:41:37Z</time>
      </trkpt>
      <trkpt lat="42.28441" lon="2.5251">
        <ele>762.022</ele>
        <time>2011-04-02T05:41:40Z</time>
      </trkpt>
      <trkpt lat="42.28442" lon="2.52506">
        <ele>758.614</ele>
        <time>2011-04-02T05:41:42Z</time>
      </trkpt>
      <trkpt lat="42.28444" lon="2.52501">
        <ele>762.007</ele>
        <time>2011-04-02T05:41:45Z</time>
      </trkpt>
      <trkpt lat="42.2846" lon="2.52479">
        <ele>763.415</ele>
        <time>2011-04-02T05:42:00Z</time>
      </trkpt>
      <trkpt lat="42.28463" lon="2.52475">
        <ele>760.179</ele>
        <time>2011-04-02T05:42:03Z</time>
      </trkpt>
      <trkpt lat="42.28466" lon="2.52471">
        <ele>763.922</ele>
        <time>2011-04-02T05:42:06Z</time>
      </trkpt>
      <trkpt lat="42.28469" lon="2.52468">
        <ele>760.131</ele>
        <time>2011-04-02T05:42:08Z</time>
      </trkpt>
      <trkpt lat="42.2847" lon="2.52467">
        <ele>763.948</ele>
        <time>2011-04-02T05:42:09Z</time>
      </trkpt>
      <trkpt lat="42.28473" lon="2.52464">
        <ele>760.576</ele>
        <time>2011-04-02T05:42:11Z</time>
      </trkpt>
      <trkpt lat="42.28474" lon="2.52463">
        <ele>764.449</ele>
        <time>2011-04-02T05:42:12Z</time>
      </trkpt>
      <trkpt lat="42.28477" lon="2.5246">
        <ele>760.591</ele>
        <time>2011-04-02T05:42:14Z</time>
      </trkpt>
      <trkpt lat="42.28478" lon="2.52459">
        <ele>764.481</ele>
        <time>2011-04-02T05:42:15Z</time>
      </trkpt>
      <trkpt lat="42.28484" lon="2.52449">
        <ele>760.119</ele>
        <time>2011-04-02T05:42:21Z</time>
      </trkpt>
      <trkpt lat="42.28485" lon="2.52448">
        <ele>765.807</ele>
        <time>2011-04-02T05:42:22Z</time>
      </trkpt>
      <trkpt lat="42.28489" lon="2.52441">
        <ele>761.54</ele>
        <time>2011-04-02T05:42:26Z</time>
      </trkpt>
      <trkpt lat="42.28492" lon="2.52434">
        <ele>762.554</ele>
        <time>2011-04-02T05:42:30Z</time>
      </trkpt>
      <trkpt lat="42.28493" lon="2.5243">
        <ele>766.897</ele>
        <time>2011-04-02T05:42:32Z</time>
      </trkpt>
      <trkpt lat="42.28495" lon="2.52426">
        <ele>761.066</ele>
        <time>2011-04-02T05:42:34Z</time>
      </trkpt>
      <trkpt lat="42.28495" lon="2.52424">
        <ele>763.493</ele>
        <time>2011-04-02T05:42:35Z</time>
      </trkpt>
      <trkpt lat="42.28504" lon="2.52397">
        <ele>764.491</ele>
        <time>2011-04-02T05:42:50Z</time>
      </trkpt>
      <trkpt lat="42.2851" lon="2.52382">
        <ele>765.474</ele>
        <time>2011-04-02T05:42:58Z</time>
      </trkpt>
      <trkpt lat="42.28512" lon="2.52372">
        <ele>768.716</ele>
        <time>2011-04-02T05:43:03Z</time>
      </trkpt>
      <trkpt lat="42.28513" lon="2.5237">
        <ele>765.476</ele>
        <time>2011-04-02T05:43:04Z</time>
      </trkpt>
      <trkpt lat="42.28515" lon="2.52365">
        <ele>766.313</ele>
        <time>2011-04-02T05:43:07Z</time>
      </trkpt>
      <trkpt lat="42.28516" lon="2.52364">
        <ele>762.507</ele>
        <time>2011-04-02T05:43:08Z</time>
      </trkpt>
      <trkpt lat="42.28516" lon="2.52362">
        <ele>767.842</ele>
        <time>2011-04-02T05:43:09Z</time>
      </trkpt>
      <trkpt lat="42.28518" lon="2.52358">
        <ele>762.956</ele>
        <time>2011-04-02T05:43:11Z</time>
      </trkpt>
      <trkpt lat="42.28518" lon="2.52356">
        <ele>766.369</ele>
        <time>2011-04-02T05:43:12Z</time>
      </trkpt>
      <trkpt lat="42.28526" lon="2.5232">
        <ele>766.388</ele>
        <time>2011-04-02T05:43:26Z</time>
      </trkpt>
      <trkpt lat="42.28527" lon="2.52315">
        <ele>768.245</ele>
        <time>2011-04-02T05:43:28Z</time>
      </trkpt>
      <trkpt lat="42.28528" lon="2.52312">
        <ele>763.953</ele>
        <time>2011-04-02T05:43:29Z</time>
      </trkpt>
      <trkpt lat="42.28529" lon="2.5231">
        <ele>768.266</ele>
        <time>2011-04-02T05:43:30Z</time>
      </trkpt>
      <trkpt lat="42.28533" lon="2.52299">
        <ele>765.429</ele>
        <time>2011-04-02T05:43:34Z</time>
      </trkpt>
      <trkpt lat="42.28534" lon="2.52296">
        <ele>765.4</ele>
        <time>2011-04-02T05:43:35Z</time>
      </trkpt>
      <trkpt lat="42.28536" lon="2.52289">
        <ele>768.72</ele>
        <time>2011-04-02T05:43:38Z</time>
      </trkpt>
      <trkpt lat="42.28537" lon="2.52286">
        <ele>765.407</ele>
        <time>2011-04-02T05:43:39Z</time>
      </trkpt>
      <trkpt lat="42.28538" lon="2.52284">
        <ele>766.393</ele>
        <time>2011-04-02T05:43:40Z</time>
      </trkpt>
      <trkpt lat="42.2854" lon="2.52277">
        <ele>768.257</ele>
        <time>2011-04-02T05:43:43Z</time>
      </trkpt>
      <trkpt lat="42.28544" lon="2.52256">
        <ele>769.25</ele>
        <time>2011-04-02T05:43:52Z</time>
      </trkpt>
      <trkpt lat="42.28545" lon="2.52252">
        <ele>766.839</ele>
        <time>2011-04-02T05:43:54Z</time>
      </trkpt>
      <trkpt lat="42.28553" lon="2.52227">
        <ele>767.846</ele>
        <time>2011-04-02T05:44:04Z</time>
      </trkpt>
      <trkpt lat="42.28556" lon="2.52217">
        <ele>771.194</ele>
        <time>2011-04-02T05:44:08Z</time>
      </trkpt>
      <trkpt lat="42.28557" lon="2.52215">
        <ele>767.327</ele>
        <time>2011-04-02T05:44:09Z</time>
      </trkpt>
      <trkpt lat="42.28557" lon="2.52213">
        <ele>771.182</ele>
        <time>2011-04-02T05:44:10Z</time>
      </trkpt>
      <trkpt lat="42.28558" lon="2.52211">
        <ele>767.843</ele>
        <time>2011-04-02T05:44:11Z</time>
      </trkpt>
      <trkpt lat="42.28558" lon="2.52208">
        <ele>769.217</ele>
        <time>2011-04-02T05:44:12Z</time>
      </trkpt>
      <trkpt lat="42.28562" lon="2.52196">
        <ele>773.007</ele>
        <time>2011-04-02T05:44:17Z</time>
      </trkpt>
      <trkpt lat="42.28563" lon="2.52194">
        <ele>768.229</ele>
        <time>2011-04-02T05:44:18Z</time>
      </trkpt>
      <trkpt lat="42.28569" lon="2.52174">
        <ele>771.653</ele>
        <time>2011-04-02T05:44:25Z</time>
      </trkpt>
      <trkpt lat="42.2857" lon="2.52171">
        <ele>770.236</ele>
        <time>2011-04-02T05:44:26Z</time>
      </trkpt>
      <trkpt lat="42.28581" lon="2.52137">
        <ele>769.715</ele>
        <time>2011-04-02T05:44:40Z</time>
      </trkpt>
      <trkpt lat="42.28582" lon="2.52133">
        <ele>771.162</ele>
        <time>2011-04-02T05:44:42Z</time>
      </trkpt>
      <trkpt lat="42.28584" lon="2.52122">
        <ele>767.86</ele>
        <time>2011-04-02T05:44:47Z</time>
      </trkpt>
      <trkpt lat="42.28584" lon="2.5212">
        <ele>768.733</ele>
        <time>2011-04-02T05:44:48Z</time>
      </trkpt>
      <trkpt lat="42.28584" lon="2.52118">
        <ele>773.099</ele>
        <time>2011-04-02T05:44:49Z</time>
      </trkpt>
      <trkpt lat="42.28584" lon="2.52116">
        <ele>769.207</ele>
        <time>2011-04-02T05:44:50Z</time>
      </trkpt>
      <trkpt lat="42.28583" lon="2.52112">
        <ele>773.027</ele>
        <time>2011-04-02T05:44:52Z</time>
      </trkpt>
      <trkpt lat="42.28583" lon="2.52109">
        <ele>773.507</ele>
        <time>2011-04-02T05:44:54Z</time>
      </trkpt>
      <trkpt lat="42.28584" lon="2.521">
        <ele>774.01</ele>
        <time>2011-04-02T05:44:58Z</time>
      </trkpt>
      <trkpt lat="42.28584" lon="2.52094">
        <ele>775.434</ele>
        <time>2011-04-02T05:45:01Z</time>
      </trkpt>
      <trkpt lat="42.28585" lon="2.5209">
        <ele>777.897</ele>
        <time>2011-04-02T05:45:03Z</time>
      </trkpt>
      <trkpt lat="42.28598" lon="2.52067">
        <ele>777.836</ele>
        <time>2011-04-02T05:45:17Z</time>
      </trkpt>
      <trkpt lat="42.28612" lon="2.52052">
        <ele>783.153</ele>
        <time>2011-04-02T05:45:32Z</time>
      </trkpt>
      <trkpt lat="42.28613" lon="2.5205">
        <ele>776.431</ele>
        <time>2011-04-02T05:45:33Z</time>
      </trkpt>
      <trkpt lat="42.28614" lon="2.52049">
        <ele>780.364</ele>
        <time>2011-04-02T05:45:34Z</time>
      </trkpt>
      <trkpt lat="42.28615" lon="2.52046">
        <ele>777.443</ele>
        <time>2011-04-02T05:45:36Z</time>
      </trkpt>
      <trkpt lat="42.28616" lon="2.52044">
        <ele>783.164</ele>
        <time>2011-04-02T05:45:37Z</time>
      </trkpt>
      <trkpt lat="42.28619" lon="2.5204">
        <ele>777.41</ele>
        <time>2011-04-02T05:45:40Z</time>
      </trkpt>
      <trkpt lat="42.28621" lon="2.52038">
        <ele>782.207</ele>
        <time>2011-04-02T05:45:41Z</time>
      </trkpt>
      <trkpt lat="42.28622" lon="2.52036">
        <ele>776.965</ele>
        <time>2011-04-02T05:45:42Z</time>
      </trkpt>
      <trkpt lat="42.28624" lon="2.52034">
        <ele>781.289</ele>
        <time>2011-04-02T05:45:43Z</time>
      </trkpt>
      <trkpt lat="42.28641" lon="2.52018">
        <ele>779.312</ele>
        <time>2011-04-02T05:45:53Z</time>
      </trkpt>
      <trkpt lat="42.28646" lon="2.52011">
        <ele>780.791</ele>
        <time>2011-04-02T05:45:57Z</time>
      </trkpt>
      <trkpt lat="42.28649" lon="2.52007">
        <ele>779.358</ele>
        <time>2011-04-02T05:45:59Z</time>
      </trkpt>
      <trkpt lat="42.28651" lon="2.52006">
        <ele>782.236</ele>
        <time>2011-04-02T05:46:00Z</time>
      </trkpt>
      <trkpt lat="42.28653" lon="2.52004">
        <ele>780.389</ele>
        <time>2011-04-02T05:46:01Z</time>
      </trkpt>
      <trkpt lat="42.28656" lon="2.52">
        <ele>779.873</ele>
        <time>2011-04-02T05:46:03Z</time>
      </trkpt>
      <trkpt lat="42.28664" lon="2.51992">
        <ele>781.785</ele>
        <time>2011-04-02T05:46:08Z</time>
      </trkpt>
      <trkpt lat="42.28679" lon="2.51975">
        <ele>784.613</ele>
        <time>2011-04-02T05:46:17Z</time>
      </trkpt>
      <trkpt lat="42.28681" lon="2.51973">
        <ele>781.207</ele>
        <time>2011-04-02T05:46:18Z</time>
      </trkpt>
      <trkpt lat="42.28684" lon="2.51969">
        <ele>785.128</ele>
        <time>2011-04-02T05:46:20Z</time>
      </trkpt>
      <trkpt lat="42.28686" lon="2.51967">
        <ele>783.652</ele>
        <time>2011-04-02T05:46:21Z</time>
      </trkpt>
      <trkpt lat="42.28692" lon="2.5196">
        <ele>783.195</ele>
        <time>2011-04-02T05:46:25Z</time>
      </trkpt>
      <trkpt lat="42.287" lon="2.51951">
        <ele>781.234</ele>
        <time>2011-04-02T05:46:30Z</time>
      </trkpt>
      <trkpt lat="42.28702" lon="2.51949">
        <ele>782.731</ele>
        <time>2011-04-02T05:46:31Z</time>
      </trkpt>
      <trkpt lat="42.28704" lon="2.51947">
        <ele>786.049</ele>
        <time>2011-04-02T05:46:32Z</time>
      </trkpt>
      <trkpt lat="42.28706" lon="2.51944">
        <ele>783.122</ele>
        <time>2011-04-02T05:46:33Z</time>
      </trkpt>
      <trkpt lat="42.28709" lon="2.5194">
        <ele>786.063</ele>
        <time>2011-04-02T05:46:35Z</time>
      </trkpt>
      <trkpt lat="42.28711" lon="2.51936">
        <ele>781.244</ele>
        <time>2011-04-02T05:46:37Z</time>
      </trkpt>
      <trkpt lat="42.28713" lon="2.51934">
        <ele>785.518</ele>
        <time>2011-04-02T05:46:38Z</time>
      </trkpt>
      <trkpt lat="42.28719" lon="2.51925">
        <ele>782.207</ele>
        <time>2011-04-02T05:46:43Z</time>
      </trkpt>
      <trkpt lat="42.2872" lon="2.51924">
        <ele>785.517</ele>
        <time>2011-04-02T05:46:44Z</time>
      </trkpt>
      <trkpt lat="42.28721" lon="2.51922">
        <ele>782.221</ele>
        <time>2011-04-02T05:46:45Z</time>
      </trkpt>
      <trkpt lat="42.28724" lon="2.51918">
        <ele>788.444</ele>
        <time>2011-04-02T05:46:47Z</time>
      </trkpt>
      <trkpt lat="42.28726" lon="2.51916">
        <ele>786.013</ele>
        <time>2011-04-02T05:46:48Z</time>
      </trkpt>
      <trkpt lat="42.28732" lon="2.51906">
        <ele>782.78</ele>
        <time>2011-04-02T05:46:53Z</time>
      </trkpt>
      <trkpt lat="42.28733" lon="2.51903">
        <ele>786.558</ele>
        <time>2011-04-02T05:46:54Z</time>
      </trkpt>
      <trkpt lat="42.28741" lon="2.51889">
        <ele>789.971</ele>
        <time>2011-04-02T05:47:02Z</time>
      </trkpt>
      <trkpt lat="42.28742" lon="2.51888">
        <ele>786.537</ele>
        <time>2011-04-02T05:47:03Z</time>
      </trkpt>
      <trkpt lat="42.28742" lon="2.51886">
        <ele>790.349</ele>
        <time>2011-04-02T05:47:04Z</time>
      </trkpt>
      <trkpt lat="42.28758" lon="2.51858">
        <ele>791.813</ele>
        <time>2011-04-02T05:47:20Z</time>
      </trkpt>
      <trkpt lat="42.28766" lon="2.51846">
        <ele>796.607</ele>
        <time>2011-04-02T05:47:27Z</time>
      </trkpt>
      <trkpt lat="42.28767" lon="2.51845">
        <ele>792.744</ele>
        <time>2011-04-02T05:47:28Z</time>
      </trkpt>
      <trkpt lat="42.28774" lon="2.51831">
        <ele>797.168</ele>
        <time>2011-04-02T05:47:36Z</time>
      </trkpt>
      <trkpt lat="42.28775" lon="2.51828">
        <ele>792.741</ele>
        <time>2011-04-02T05:47:38Z</time>
      </trkpt>
      <trkpt lat="42.28776" lon="2.51827">
        <ele>798.02</ele>
        <time>2011-04-02T05:47:39Z</time>
      </trkpt>
      <trkpt lat="42.28777" lon="2.51825">
        <ele>793.247</ele>
        <time>2011-04-02T05:47:40Z</time>
      </trkpt>
      <trkpt lat="42.28779" lon="2.51823">
        <ele>798.575</ele>
        <time>2011-04-02T05:47:42Z</time>
      </trkpt>
      <trkpt lat="42.28779" lon="2.51821">
        <ele>796.128</ele>
        <time>2011-04-02T05:47:43Z</time>
      </trkpt>
      <trkpt lat="42.28785" lon="2.5181">
        <ele>802.445</ele>
        <time>2011-04-02T05:47:50Z</time>
      </trkpt>
      <trkpt lat="42.28786" lon="2.51809">
        <ele>798.047</ele>
        <time>2011-04-02T05:47:51Z</time>
      </trkpt>
      <trkpt lat="42.28795" lon="2.51788">
        <ele>801.411</ele>
        <time>2011-04-02T05:48:03Z</time>
      </trkpt>
      <trkpt lat="42.28796" lon="2.51784">
        <ele>798.007</ele>
        <time>2011-04-02T05:48:05Z</time>
      </trkpt>
      <trkpt lat="42.28797" lon="2.51783">
        <ele>803.385</ele>
        <time>2011-04-02T05:48:06Z</time>
      </trkpt>
      <trkpt lat="42.28798" lon="2.51781">
        <ele>800.969</ele>
        <time>2011-04-02T05:48:07Z</time>
      </trkpt>
      <trkpt lat="42.288" lon="2.51774">
        <ele>801.992</ele>
        <time>2011-04-02T05:48:11Z</time>
      </trkpt>
      <trkpt lat="42.28803" lon="2.51763">
        <ele>799.081</ele>
        <time>2011-04-02T05:48:16Z</time>
      </trkpt>
      <trkpt lat="42.28803" lon="2.51761">
        <ele>805.258</ele>
        <time>2011-04-02T05:48:17Z</time>
      </trkpt>
      <trkpt lat="42.28804" lon="2.51757">
        <ele>798.556</ele>
        <time>2011-04-02T05:48:19Z</time>
      </trkpt>
      <trkpt lat="42.28805" lon="2.51756">
        <ele>800.469</ele>
        <time>2011-04-02T05:48:20Z</time>
      </trkpt>
      <trkpt lat="42.28813" lon="2.51742">
        <ele>804.854</ele>
        <time>2011-04-02T05:48:30Z</time>
      </trkpt>
      <trkpt lat="42.28814" lon="2.51741">
        <ele>800.056</ele>
        <time>2011-04-02T05:48:31Z</time>
      </trkpt>
      <trkpt lat="42.28815" lon="2.5174">
        <ele>800.911</ele>
        <time>2011-04-02T05:48:32Z</time>
      </trkpt>
      <trkpt lat="42.28819" lon="2.51735">
        <ele>796.607</ele>
        <time>2011-04-02T05:48:36Z</time>
      </trkpt>
      <trkpt lat="42.28823" lon="2.51731">
        <ele>796.156</ele>
        <time>2011-04-02T05:48:40Z</time>
      </trkpt>
      <trkpt lat="42.28836" lon="2.51718">
        <ele>798.05</ele>
        <time>2011-04-02T05:48:51Z</time>
      </trkpt>
      <trkpt lat="42.28841" lon="2.5171">
        <ele>794.773</ele>
        <time>2011-04-02T05:48:56Z</time>
      </trkpt>
      <trkpt lat="42.28844" lon="2.51706">
        <ele>799.542</ele>
        <time>2011-04-02T05:48:59Z</time>
      </trkpt>
      <trkpt lat="42.28844" lon="2.51704">
        <ele>794.219</ele>
        <time>2011-04-02T05:49:00Z</time>
      </trkpt>
      <trkpt lat="42.28845" lon="2.51702">
        <ele>800.937</ele>
        <time>2011-04-02T05:49:01Z</time>
      </trkpt>
      <trkpt lat="42.28845" lon="2.51699">
        <ele>794.72</ele>
        <time>2011-04-02T05:49:03Z</time>
      </trkpt>
      <trkpt lat="42.28845" lon="2.51698">
        <ele>795.642</ele>
        <time>2011-04-02T05:49:04Z</time>
      </trkpt>
      <trkpt lat="42.28846" lon="2.51697">
        <ele>800.422</ele>
        <time>2011-04-02T05:49:05Z</time>
      </trkpt>
      <trkpt lat="42.28846" lon="2.51696">
        <ele>800.414</ele>
        <time>2011-04-02T05:49:06Z</time>
      </trkpt>
      <trkpt lat="42.28847" lon="2.51694">
        <ele>798.007</ele>
        <time>2011-04-02T05:49:08Z</time>
      </trkpt>
      <trkpt lat="42.28848" lon="2.51693">
        <ele>797.195</ele>
        <time>2011-04-02T05:49:09Z</time>
      </trkpt>
      <trkpt lat="42.28852" lon="2.51668">
        <ele>795.629</ele>
        <time>2011-04-02T05:49:25Z</time>
      </trkpt>
      <trkpt lat="42.28853" lon="2.51667">
        <ele>800.472</ele>
        <time>2011-04-02T05:49:26Z</time>
      </trkpt>
      <trkpt lat="42.28854" lon="2.51665">
        <ele>799.571</ele>
        <time>2011-04-02T05:49:27Z</time>
      </trkpt>
      <trkpt lat="42.28857" lon="2.51661">
        <ele>796.118</ele>
        <time>2011-04-02T05:49:30Z</time>
      </trkpt>
      <trkpt lat="42.28858" lon="2.51659">
        <ele>798.016</ele>
        <time>2011-04-02T05:49:31Z</time>
      </trkpt>
      <trkpt lat="42.28859" lon="2.51656">
        <ele>795.289</ele>
        <time>2011-04-02T05:49:33Z</time>
      </trkpt>
      <trkpt lat="42.2886" lon="2.51655">
        <ele>800.443</ele>
        <time>2011-04-02T05:49:34Z</time>
      </trkpt>
      <trkpt lat="42.2886" lon="2.51653">
        <ele>798.564</ele>
        <time>2011-04-02T05:49:35Z</time>
      </trkpt>
      <trkpt lat="42.28867" lon="2.51635">
        <ele>794.21</ele>
        <time>2011-04-02T05:49:45Z</time>
      </trkpt>
      <trkpt lat="42.28868" lon="2.51633">
        <ele>799.007</ele>
        <time>2011-04-02T05:49:46Z</time>
      </trkpt>
      <trkpt lat="42.28874" lon="2.51618">
        <ele>794.775</ele>
        <time>2011-04-02T05:49:54Z</time>
      </trkpt>
      <trkpt lat="42.28875" lon="2.51616">
        <ele>798.069</ele>
        <time>2011-04-02T05:49:55Z</time>
      </trkpt>
      <trkpt lat="42.28878" lon="2.51602">
        <ele>795.212</ele>
        <time>2011-04-02T05:50:02Z</time>
      </trkpt>
      <trkpt lat="42.2888" lon="2.51594">
        <ele>798.571</ele>
        <time>2011-04-02T05:50:06Z</time>
      </trkpt>
      <trkpt lat="42.2888" lon="2.51592">
        <ele>798.048</ele>
        <time>2011-04-02T05:50:07Z</time>
      </trkpt>
      <trkpt lat="42.28881" lon="2.5159">
        <ele>794.276</ele>
        <time>2011-04-02T05:50:08Z</time>
      </trkpt>
      <trkpt lat="42.28881" lon="2.51588">
        <ele>795.619</ele>
        <time>2011-04-02T05:50:09Z</time>
      </trkpt>
      <trkpt lat="42.28882" lon="2.51584">
        <ele>797.649</ele>
        <time>2011-04-02T05:50:11Z</time>
      </trkpt>
      <trkpt lat="42.28887" lon="2.51568">
        <ele>793.202</ele>
        <time>2011-04-02T05:50:19Z</time>
      </trkpt>
      <trkpt lat="42.28889" lon="2.5156">
        <ele>797.122</ele>
        <time>2011-04-02T05:50:23Z</time>
      </trkpt>
      <trkpt lat="42.2889" lon="2.51559">
        <ele>791.807</ele>
        <time>2011-04-02T05:50:24Z</time>
      </trkpt>
      <trkpt lat="42.2889" lon="2.51557">
        <ele>793.255</ele>
        <time>2011-04-02T05:50:25Z</time>
      </trkpt>
      <trkpt lat="42.28897" lon="2.5154">
        <ele>792.789</ele>
        <time>2011-04-02T05:50:34Z</time>
      </trkpt>
      <trkpt lat="42.28902" lon="2.51531">
        <ele>787.522</ele>
        <time>2011-04-02T05:50:40Z</time>
      </trkpt>
      <trkpt lat="42.28903" lon="2.51529">
        <ele>791.371</ele>
        <time>2011-04-02T05:50:41Z</time>
      </trkpt>
      <trkpt lat="42.28909" lon="2.51519">
        <ele>795.668</ele>
        <time>2011-04-02T05:50:49Z</time>
      </trkpt>
      <trkpt lat="42.2891" lon="2.51518">
        <ele>792.316</ele>
        <time>2011-04-02T05:50:50Z</time>
      </trkpt>
      <trkpt lat="42.28917" lon="2.51511">
        <ele>790.869</ele>
        <time>2011-04-02T05:50:57Z</time>
      </trkpt>
      <trkpt lat="42.28918" lon="2.51509">
        <ele>794.229</ele>
        <time>2011-04-02T05:50:58Z</time>
      </trkpt>
      <trkpt lat="42.28919" lon="2.51508">
        <ele>793.7</ele>
        <time>2011-04-02T05:50:59Z</time>
      </trkpt>
      <trkpt lat="42.28924" lon="2.51504">
        <ele>795.22</ele>
        <time>2011-04-02T05:51:03Z</time>
      </trkpt>
      <trkpt lat="42.28928" lon="2.51501">
        <ele>800.007</ele>
        <time>2011-04-02T05:51:07Z</time>
      </trkpt>
      <trkpt lat="42.28929" lon="2.515">
        <ele>796.683</ele>
        <time>2011-04-02T05:51:08Z</time>
      </trkpt>
      <trkpt lat="42.28933" lon="2.51497">
        <ele>791.897</ele>
        <time>2011-04-02T05:51:11Z</time>
      </trkpt>
      <trkpt lat="42.28934" lon="2.51497">
        <ele>796.12</ele>
        <time>2011-04-02T05:51:12Z</time>
      </trkpt>
      <trkpt lat="42.28936" lon="2.51495">
        <ele>794.779</ele>
        <time>2011-04-02T05:51:14Z</time>
      </trkpt>
      <trkpt lat="42.28948" lon="2.5148">
        <ele>800.416</ele>
        <time>2011-04-02T05:51:26Z</time>
      </trkpt>
      <trkpt lat="42.28949" lon="2.51478">
        <ele>797.114</ele>
        <time>2011-04-02T05:51:27Z</time>
      </trkpt>
      <trkpt lat="42.28953" lon="2.51474">
        <ele>795.297</ele>
        <time>2011-04-02T05:51:31Z</time>
      </trkpt>
      <trkpt lat="42.28966" lon="2.51461">
        <ele>794.274</ele>
        <time>2011-04-02T05:51:42Z</time>
      </trkpt>
      <trkpt lat="42.28967" lon="2.51458">
        <ele>796.656</ele>
        <time>2011-04-02T05:51:44Z</time>
      </trkpt>
      <trkpt lat="42.28969" lon="2.51455">
        <ele>793.721</ele>
        <time>2011-04-02T05:51:46Z</time>
      </trkpt>
      <trkpt lat="42.28973" lon="2.51444">
        <ele>797.607</ele>
        <time>2011-04-02T05:51:53Z</time>
      </trkpt>
      <trkpt lat="42.28974" lon="2.51444">
        <ele>793.278</ele>
        <time>2011-04-02T05:51:54Z</time>
      </trkpt>
      <trkpt lat="42.28978" lon="2.5143">
        <ele>793.282</ele>
        <time>2011-04-02T05:52:01Z</time>
      </trkpt>
      <trkpt lat="42.28981" lon="2.51415">
        <ele>792.315</ele>
        <time>2011-04-02T05:52:09Z</time>
      </trkpt>
      <trkpt lat="42.28981" lon="2.51414">
        <ele>795.294</ele>
        <time>2011-04-02T05:52:10Z</time>
      </trkpt>
      <trkpt lat="42.28981" lon="2.51413">
        <ele>792.721</ele>
        <time>2011-04-02T05:52:11Z</time>
      </trkpt>
      <trkpt lat="42.28981" lon="2.51412">
        <ele>788.939</ele>
        <time>2011-04-02T05:52:14Z</time>
      </trkpt>
      <trkpt lat="42.28982" lon="2.51411">
        <ele>792.792</ele>
        <time>2011-04-02T05:52:15Z</time>
      </trkpt>
      <trkpt lat="42.28983" lon="2.51408">
        <ele>794.249</ele>
        <time>2011-04-02T05:52:22Z</time>
      </trkpt>
      <trkpt lat="42.28989" lon="2.51399">
        <ele>791.802</ele>
        <time>2011-04-02T05:52:30Z</time>
      </trkpt>
      <trkpt lat="42.28991" lon="2.51397">
        <ele>793.722</ele>
        <time>2011-04-02T05:52:32Z</time>
      </trkpt>
      <trkpt lat="42.28992" lon="2.51396">
        <ele>789.907</ele>
        <time>2011-04-02T05:52:33Z</time>
      </trkpt>
      <trkpt lat="42.28994" lon="2.51395">
        <ele>790.815</ele>
        <time>2011-04-02T05:52:34Z</time>
      </trkpt>
      <trkpt lat="42.29001" lon="2.51383">
        <ele>791.899</ele>
        <time>2011-04-02T05:52:41Z</time>
      </trkpt>
      <trkpt lat="42.29003" lon="2.51379">
        <ele>789.942</ele>
        <time>2011-04-02T05:52:43Z</time>
      </trkpt>
      <trkpt lat="42.29014" lon="2.51358">
        <ele>786.581</ele>
        <time>2011-04-02T05:52:55Z</time>
      </trkpt>
      <trkpt lat="42.29016" lon="2.51355">
        <ele>790.868</ele>
        <time>2011-04-02T05:52:57Z</time>
      </trkpt>
      <trkpt lat="42.29017" lon="2.51353">
        <ele>787.916</ele>
        <time>2011-04-02T05:52:58Z</time>
      </trkpt>
      <trkpt lat="42.29022" lon="2.51346">
        <ele>790.839</ele>
        <time>2011-04-02T05:53:03Z</time>
      </trkpt>
      <trkpt lat="42.29023" lon="2.51345">
        <ele>790.355</ele>
        <time>2011-04-02T05:53:04Z</time>
      </trkpt>
      <trkpt lat="42.29025" lon="2.51343">
        <ele>786.507</ele>
        <time>2011-04-02T05:53:06Z</time>
      </trkpt>
      <trkpt lat="42.29026" lon="2.51342">
        <ele>791.317</ele>
        <time>2011-04-02T05:53:07Z</time>
      </trkpt>
      <trkpt lat="42.2903" lon="2.51338">
        <ele>787.507</ele>
        <time>2011-04-02T05:53:15Z</time>
      </trkpt>
      <trkpt lat="42.2903" lon="2.51338">
        <ele>788.946</ele>
        <time>2011-04-02T05:53:17Z</time>
      </trkpt>
      <trkpt lat="42.29031" lon="2.51339">
        <ele>789.97</ele>
        <time>2011-04-02T05:53:19Z</time>
      </trkpt>
      <trkpt lat="42.29032" lon="2.51339">
        <ele>785.173</ele>
        <time>2011-04-02T05:53:20Z</time>
      </trkpt>
      <trkpt lat="42.29033" lon="2.5134">
        <ele>787.542</ele>
        <time>2011-04-02T05:53:21Z</time>
      </trkpt>
      <trkpt lat="42.29034" lon="2.51341">
        <ele>787.539</ele>
        <time>2011-04-02T05:53:22Z</time>
      </trkpt>
      <trkpt lat="42.2904" lon="2.51339">
        <ele>789.487</ele>
        <time>2011-04-02T05:53:28Z</time>
      </trkpt>
      <trkpt lat="42.29039" lon="2.51326">
        <ele>790.86</ele>
        <time>2011-04-02T05:53:38Z</time>
      </trkpt>
      <trkpt lat="42.29039" lon="2.51325">
        <ele>786.587</ele>
        <time>2011-04-02T05:53:39Z</time>
      </trkpt>
      <trkpt lat="42.29037" lon="2.51313">
        <ele>790.342</ele>
        <time>2011-04-02T05:53:46Z</time>
      </trkpt>
      <trkpt lat="42.29038" lon="2.51306">
        <ele>788.926</ele>
        <time>2011-04-02T05:53:49Z</time>
      </trkpt>
      <trkpt lat="42.2904" lon="2.51299">
        <ele>783.607</ele>
        <time>2011-04-02T05:53:52Z</time>
      </trkpt>
      <trkpt lat="42.29041" lon="2.51297">
        <ele>785.189</ele>
        <time>2011-04-02T05:53:53Z</time>
      </trkpt>
      <trkpt lat="42.29042" lon="2.51293">
        <ele>788.473</ele>
        <time>2011-04-02T05:53:55Z</time>
      </trkpt>
      <trkpt lat="42.29055" lon="2.51269">
        <ele>785.196</ele>
        <time>2011-04-02T05:54:09Z</time>
      </trkpt>
      <trkpt lat="42.29059" lon="2.5126">
        <ele>790.845</ele>
        <time>2011-04-02T05:54:14Z</time>
      </trkpt>
      <trkpt lat="42.2906" lon="2.51258">
        <ele>784.132</ele>
        <time>2011-04-02T05:54:15Z</time>
      </trkpt>
      <trkpt lat="42.29061" lon="2.51256">
        <ele>790.31</ele>
        <time>2011-04-02T05:54:16Z</time>
      </trkpt>
      <trkpt lat="42.29062" lon="2.51255">
        <ele>787.063</ele>
        <time>2011-04-02T05:54:17Z</time>
      </trkpt>
      <trkpt lat="42.29065" lon="2.5125">
        <ele>789.414</ele>
        <time>2011-04-02T05:54:20Z</time>
      </trkpt>
      <trkpt lat="42.29067" lon="2.51247">
        <ele>787.954</ele>
        <time>2011-04-02T05:54:22Z</time>
      </trkpt>
      <trkpt lat="42.29068" lon="2.51244">
        <ele>784.609</ele>
        <time>2011-04-02T05:54:24Z</time>
      </trkpt>
      <trkpt lat="42.29069" lon="2.51243">
        <ele>789.407</ele>
        <time>2011-04-02T05:54:25Z</time>
      </trkpt>
      <trkpt lat="42.29081" lon="2.51228">
        <ele>785.142</ele>
        <time>2011-04-02T05:54:37Z</time>
      </trkpt>
      <trkpt lat="42.29083" lon="2.51225">
        <ele>787.576</ele>
        <time>2011-04-02T05:54:39Z</time>
      </trkpt>
      <trkpt lat="42.29088" lon="2.51212">
        <ele>783.659</ele>
        <time>2011-04-02T05:54:46Z</time>
      </trkpt>
      <trkpt lat="42.29094" lon="2.51199">
        <ele>787.048</ele>
        <time>2011-04-02T05:54:53Z</time>
      </trkpt>
      <trkpt lat="42.29098" lon="2.5119">
        <ele>787.075</ele>
        <time>2011-04-02T05:54:58Z</time>
      </trkpt>
      <trkpt lat="42.29106" lon="2.51184">
        <ele>788.983</ele>
        <time>2011-04-02T05:55:05Z</time>
      </trkpt>
      <trkpt lat="42.29106" lon="2.51184">
        <ele>784.176</ele>
        <time>2011-04-02T05:55:06Z</time>
      </trkpt>
      <trkpt lat="42.29107" lon="2.51181">
        <ele>787.994</ele>
        <time>2011-04-02T05:55:09Z</time>
      </trkpt>
      <trkpt lat="42.29107" lon="2.51181">
        <ele>787.957</ele>
        <time>2011-04-02T05:55:10Z</time>
      </trkpt>
      <trkpt lat="42.29107" lon="2.51178">
        <ele>784.122</ele>
        <time>2011-04-02T05:55:12Z</time>
      </trkpt>
      <trkpt lat="42.29108" lon="2.5117">
        <ele>787.507</ele>
        <time>2011-04-02T05:55:17Z</time>
      </trkpt>
      <trkpt lat="42.29108" lon="2.51168">
        <ele>783.63</ele>
        <time>2011-04-02T05:55:18Z</time>
      </trkpt>
      <trkpt lat="42.29108" lon="2.51165">
        <ele>786.514</ele>
        <time>2011-04-02T05:55:20Z</time>
      </trkpt>
      <trkpt lat="42.29109" lon="2.51163">
        <ele>779.827</ele>
        <time>2011-04-02T05:55:21Z</time>
      </trkpt>
      <trkpt lat="42.29109" lon="2.51162">
        <ele>784.156</ele>
        <time>2011-04-02T05:55:22Z</time>
      </trkpt>
      <trkpt lat="42.29109" lon="2.5116">
        <ele>790.813</ele>
        <time>2011-04-02T05:55:23Z</time>
      </trkpt>
      <trkpt lat="42.29109" lon="2.51159">
        <ele>787.091</ele>
        <time>2011-04-02T05:55:24Z</time>
      </trkpt>
      <trkpt lat="42.2911" lon="2.51148">
        <ele>783.174</ele>
        <time>2011-04-02T05:55:30Z</time>
      </trkpt>
      <trkpt lat="42.29109" lon="2.51144">
        <ele>787.049</ele>
        <time>2011-04-02T05:55:32Z</time>
      </trkpt>
      <trkpt lat="42.29111" lon="2.51135">
        <ele>782.202</ele>
        <time>2011-04-02T05:55:37Z</time>
      </trkpt>
      <trkpt lat="42.29112" lon="2.51132">
        <ele>785.522</ele>
        <time>2011-04-02T05:55:39Z</time>
      </trkpt>
      <trkpt lat="42.29111" lon="2.51127">
        <ele>781.707</ele>
        <time>2011-04-02T05:55:46Z</time>
      </trkpt>
      <trkpt lat="42.29111" lon="2.51125">
        <ele>785.565</ele>
        <time>2011-04-02T05:55:48Z</time>
      </trkpt>
      <trkpt lat="42.29112" lon="2.51123">
        <ele>769.749</ele>
        <time>2011-04-02T05:55:49Z</time>
      </trkpt>
      <trkpt lat="42.29112" lon="2.51121">
        <ele>785.182</ele>
        <time>2011-04-02T05:55:50Z</time>
      </trkpt>
      <trkpt lat="42.29112" lon="2.5112">
        <ele>778.861</ele>
        <time>2011-04-02T05:55:51Z</time>
      </trkpt>
      <trkpt lat="42.29112" lon="2.51118">
        <ele>772.628</ele>
        <time>2011-04-02T05:55:52Z</time>
      </trkpt>
      <trkpt lat="42.29112" lon="2.51116">
        <ele>783.636</ele>
        <time>2011-04-02T05:55:53Z</time>
      </trkpt>
      <trkpt lat="42.29112" lon="2.51115">
        <ele>786.599</ele>
        <time>2011-04-02T05:55:54Z</time>
      </trkpt>
      <trkpt lat="42.29111" lon="2.51113">
        <ele>773.073</ele>
        <time>2011-04-02T05:55:55Z</time>
      </trkpt>
      <trkpt lat="42.29111" lon="2.51111">
        <ele>785.185</ele>
        <time>2011-04-02T05:55:56Z</time>
      </trkpt>
      <trkpt lat="42.29111" lon="2.5111">
        <ele>778.813</ele>
        <time>2011-04-02T05:55:57Z</time>
      </trkpt>
      <trkpt lat="42.2911" lon="2.51108">
        <ele>783.607</ele>
        <time>2011-04-02T05:55:58Z</time>
      </trkpt>
      <trkpt lat="42.29109" lon="2.51105">
        <ele>773.568</ele>
        <time>2011-04-02T05:56:00Z</time>
      </trkpt>
      <trkpt lat="42.29109" lon="2.51103">
        <ele>782.762</ele>
        <time>2011-04-02T05:56:01Z</time>
      </trkpt>
      <trkpt lat="42.29109" lon="2.51102">
        <ele>775.945</ele>
        <time>2011-04-02T05:56:02Z</time>
      </trkpt>
      <trkpt lat="42.29109" lon="2.511">
        <ele>779.344</ele>
        <time>2011-04-02T05:56:03Z</time>
      </trkpt>
      <trkpt lat="42.2911" lon="2.51095">
        <ele>788.421</ele>
        <time>2011-04-02T05:56:06Z</time>
      </trkpt>
      <trkpt lat="42.2911" lon="2.51093">
        <ele>779.349</ele>
        <time>2011-04-02T05:56:07Z</time>
      </trkpt>
      <trkpt lat="42.29111" lon="2.51084">
        <ele>775.442</ele>
        <time>2011-04-02T05:56:12Z</time>
      </trkpt>
      <trkpt lat="42.29111" lon="2.51083">
        <ele>778.865</ele>
        <time>2011-04-02T05:56:13Z</time>
      </trkpt>
      <trkpt lat="42.29111" lon="2.51082">
        <ele>782.768</ele>
        <time>2011-04-02T05:56:14Z</time>
      </trkpt>
      <trkpt lat="42.29111" lon="2.51081">
        <ele>775.914</ele>
        <time>2011-04-02T05:56:15Z</time>
      </trkpt>
      <trkpt lat="42.29111" lon="2.5108">
        <ele>784.107</ele>
        <time>2011-04-02T05:56:16Z</time>
      </trkpt>
      <trkpt lat="42.29111" lon="2.51079">
        <ele>779.317</ele>
        <time>2011-04-02T05:56:18Z</time>
      </trkpt>
      <trkpt lat="42.29111" lon="2.51077">
        <ele>775.951</ele>
        <time>2011-04-02T05:56:20Z</time>
      </trkpt>
      <trkpt lat="42.29111" lon="2.51076">
        <ele>775.994</ele>
        <time>2011-04-02T05:56:21Z</time>
      </trkpt>
      <trkpt lat="42.29112" lon="2.51075">
        <ele>780.363</ele>
        <time>2011-04-02T05:56:22Z</time>
      </trkpt>
      <trkpt lat="42.29112" lon="2.51071">
        <ele>781.21</ele>
        <time>2011-04-02T05:56:24Z</time>
      </trkpt>
      <trkpt lat="42.29112" lon="2.51064">
        <ele>777.418</ele>
        <time>2011-04-02T05:56:28Z</time>
      </trkpt>
      <trkpt lat="42.29113" lon="2.51061">
        <ele>784.121</ele>
        <time>2011-04-02T05:56:30Z</time>
      </trkpt>
      <trkpt lat="42.29113" lon="2.51056">
        <ele>779.823</ele>
        <time>2011-04-02T05:56:33Z</time>
      </trkpt>
      <trkpt lat="42.29112" lon="2.51049">
        <ele>785.183</ele>
        <time>2011-04-02T05:56:36Z</time>
      </trkpt>
      <trkpt lat="42.29112" lon="2.51045">
        <ele>776.411</ele>
        <time>2011-04-02T05:56:38Z</time>
      </trkpt>
      <trkpt lat="42.29112" lon="2.51043">
        <ele>772.107</ele>
        <time>2011-04-02T05:56:39Z</time>
      </trkpt>
      <trkpt lat="42.29112" lon="2.51041">
        <ele>772.173</ele>
        <time>2011-04-02T05:56:40Z</time>
      </trkpt>
      <trkpt lat="42.29112" lon="2.51039">
        <ele>784.687</ele>
        <time>2011-04-02T05:56:41Z</time>
      </trkpt>
      <trkpt lat="42.29112" lon="2.51037">
        <ele>775.48</ele>
        <time>2011-04-02T05:56:42Z</time>
      </trkpt>
      <trkpt lat="42.29112" lon="2.51035">
        <ele>787.549</ele>
        <time>2011-04-02T05:56:43Z</time>
      </trkpt>
      <trkpt lat="42.29112" lon="2.51033">
        <ele>773.556</ele>
        <time>2011-04-02T05:56:44Z</time>
      </trkpt>
      <trkpt lat="42.29112" lon="2.51031">
        <ele>779.384</ele>
        <time>2011-04-02T05:56:45Z</time>
      </trkpt>
      <trkpt lat="42.29112" lon="2.51028">
        <ele>780.357</ele>
        <time>2011-04-02T05:56:47Z</time>
      </trkpt>
      <trkpt lat="42.29112" lon="2.51025">
        <ele>777.874</ele>
        <time>2011-04-02T05:56:49Z</time>
      </trkpt>
      <trkpt lat="42.29112" lon="2.51024">
        <ele>772.656</ele>
        <time>2011-04-02T05:56:50Z</time>
      </trkpt>
      <trkpt lat="42.29113" lon="2.51022">
        <ele>776.421</ele>
        <time>2011-04-02T05:56:51Z</time>
      </trkpt>
      <trkpt lat="42.29113" lon="2.5102">
        <ele>778.307</ele>
        <time>2011-04-02T05:56:53Z</time>
      </trkpt>
      <trkpt lat="42.29113" lon="2.51016">
        <ele>776.418</ele>
        <time>2011-04-02T05:56:55Z</time>
      </trkpt>
      <trkpt lat="42.29113" lon="2.51015">
        <ele>779.862</ele>
        <time>2011-04-02T05:56:56Z</time>
      </trkpt>
      <trkpt lat="42.29113" lon="2.51013">
        <ele>774.085</ele>
        <time>2011-04-02T05:56:57Z</time>
      </trkpt>
      <trkpt lat="42.29113" lon="2.51011">
        <ele>781.254</ele>
        <time>2011-04-02T05:56:58Z</time>
      </trkpt>
      <trkpt lat="42.29114" lon="2.51009">
        <ele>776.951</ele>
        <time>2011-04-02T05:56:59Z</time>
      </trkpt>
      <trkpt lat="42.29114" lon="2.51007">
        <ele>781.749</ele>
        <time>2011-04-02T05:57:00Z</time>
      </trkpt>
      <trkpt lat="42.29115" lon="2.51005">
        <ele>777.812</ele>
        <time>2011-04-02T05:57:01Z</time>
      </trkpt>
      <trkpt lat="42.29116" lon="2.51003">
        <ele>780.335</ele>
        <time>2011-04-02T05:57:03Z</time>
      </trkpt>
      <trkpt lat="42.29117" lon="2.51001">
        <ele>775.086</ele>
        <time>2011-04-02T05:57:04Z</time>
      </trkpt>
      <trkpt lat="42.29117" lon="2.51">
        <ele>774.514</ele>
        <time>2011-04-02T05:57:05Z</time>
      </trkpt>
      <trkpt lat="42.29117" lon="2.50994">
        <ele>772.107</ele>
        <time>2011-04-02T05:57:08Z</time>
      </trkpt>
      <trkpt lat="42.29117" lon="2.50992">
        <ele>774.554</ele>
        <time>2011-04-02T05:57:09Z</time>
      </trkpt>
      <trkpt lat="42.29117" lon="2.50989">
        <ele>766.878</ele>
        <time>2011-04-02T05:57:11Z</time>
      </trkpt>
      <trkpt lat="42.29116" lon="2.50987">
        <ele>780.721</ele>
        <time>2011-04-02T05:57:12Z</time>
      </trkpt>
      <trkpt lat="42.29116" lon="2.50985">
        <ele>780.78</ele>
        <time>2011-04-02T05:57:13Z</time>
      </trkpt>
      <trkpt lat="42.29117" lon="2.50983">
        <ele>779.377</ele>
        <time>2011-04-02T05:57:15Z</time>
      </trkpt>
      <trkpt lat="42.29117" lon="2.50981">
        <ele>783.145</ele>
        <time>2011-04-02T05:57:16Z</time>
      </trkpt>
      <trkpt lat="42.29118" lon="2.5098">
        <ele>781.258</ele>
        <time>2011-04-02T05:57:17Z</time>
      </trkpt>
      <trkpt lat="42.29118" lon="2.50978">
        <ele>778.365</ele>
        <time>2011-04-02T05:57:18Z</time>
      </trkpt>
      <trkpt lat="42.29119" lon="2.50976">
        <ele>771.168</ele>
        <time>2011-04-02T05:57:20Z</time>
      </trkpt>
      <trkpt lat="42.29119" lon="2.50974">
        <ele>774.514</ele>
        <time>2011-04-02T05:57:21Z</time>
      </trkpt>
      <trkpt lat="42.29119" lon="2.50971">
        <ele>776.407</ele>
        <time>2011-04-02T05:57:23Z</time>
      </trkpt>
      <trkpt lat="42.2912" lon="2.50967">
        <ele>782.757</ele>
        <time>2011-04-02T05:57:26Z</time>
      </trkpt>
      <trkpt lat="42.2912" lon="2.50966">
        <ele>778.371</ele>
        <time>2011-04-02T05:57:27Z</time>
      </trkpt>
      <trkpt lat="42.2912" lon="2.50964">
        <ele>772.154</ele>
        <time>2011-04-02T05:57:29Z</time>
      </trkpt>
      <trkpt lat="42.2912" lon="2.50963">
        <ele>775.053</ele>
        <time>2011-04-02T05:57:30Z</time>
      </trkpt>
      <trkpt lat="42.2912" lon="2.50962">
        <ele>780.37</ele>
        <time>2011-04-02T05:57:31Z</time>
      </trkpt>
      <trkpt lat="42.2912" lon="2.50961">
        <ele>777.848</ele>
        <time>2011-04-02T05:57:32Z</time>
      </trkpt>
      <trkpt lat="42.2912" lon="2.50958">
        <ele>777.811</ele>
        <time>2011-04-02T05:57:35Z</time>
      </trkpt>
      <trkpt lat="42.29119" lon="2.50951">
        <ele>781.281</ele>
        <time>2011-04-02T05:57:40Z</time>
      </trkpt>
      <trkpt lat="42.29118" lon="2.50949">
        <ele>775.461</ele>
        <time>2011-04-02T05:57:41Z</time>
      </trkpt>
      <trkpt lat="42.29118" lon="2.50946">
        <ele>779.317</ele>
        <time>2011-04-02T05:57:43Z</time>
      </trkpt>
      <trkpt lat="42.29118" lon="2.50945">
        <ele>777.407</ele>
        <time>2011-04-02T05:57:44Z</time>
      </trkpt>
      <trkpt lat="42.29119" lon="2.50942">
        <ele>781.739</ele>
        <time>2011-04-02T05:57:46Z</time>
      </trkpt>
      <trkpt lat="42.29119" lon="2.50941">
        <ele>775.033</ele>
        <time>2011-04-02T05:57:47Z</time>
      </trkpt>
      <trkpt lat="42.29119" lon="2.50938">
        <ele>770.646</ele>
        <time>2011-04-02T05:57:49Z</time>
      </trkpt>
      <trkpt lat="42.29119" lon="2.50936">
        <ele>778.315</ele>
        <time>2011-04-02T05:57:50Z</time>
      </trkpt>
      <trkpt lat="42.29119" lon="2.50934">
        <ele>777.852</ele>
        <time>2011-04-02T05:57:51Z</time>
      </trkpt>
      <trkpt lat="42.2912" lon="2.50933">
        <ele>774.05</ele>
        <time>2011-04-02T05:57:53Z</time>
      </trkpt>
      <trkpt lat="42.2912" lon="2.50932">
        <ele>775.953</ele>
        <time>2011-04-02T05:57:54Z</time>
      </trkpt>
      <trkpt lat="42.2912" lon="2.50932">
        <ele>765.821</ele>
        <time>2011-04-02T05:57:56Z</time>
      </trkpt>
      <trkpt lat="42.2912" lon="2.50932">
        <ele>778.841</ele>
        <time>2011-04-02T05:57:57Z</time>
      </trkpt>
      <trkpt lat="42.2912" lon="2.50933">
        <ele>775.005</ele>
        <time>2011-04-02T05:57:59Z</time>
      </trkpt>
      <trkpt lat="42.2912" lon="2.50933">
        <ele>778.307</ele>
        <time>2011-04-02T05:58:00Z</time>
      </trkpt>
      <trkpt lat="42.2912" lon="2.50934">
        <ele>769.753</ele>
        <time>2011-04-02T05:58:02Z</time>
      </trkpt>
      <trkpt lat="42.29121" lon="2.50934">
        <ele>776.477</ele>
        <time>2011-04-02T05:58:03Z</time>
      </trkpt>
      <trkpt lat="42.29121" lon="2.50935">
        <ele>772.67</ele>
        <time>2011-04-02T05:58:04Z</time>
      </trkpt>
      <trkpt lat="42.29121" lon="2.50935">
        <ele>773.019</ele>
        <time>2011-04-02T05:58:05Z</time>
      </trkpt>
      <trkpt lat="42.2912" lon="2.50934">
        <ele>777.476</ele>
        <time>2011-04-02T05:58:07Z</time>
      </trkpt>
      <trkpt lat="42.29119" lon="2.50934">
        <ele>771.664</ele>
        <time>2011-04-02T05:58:08Z</time>
      </trkpt>
      <trkpt lat="42.29119" lon="2.50935">
        <ele>777.427</ele>
        <time>2011-04-02T05:58:09Z</time>
      </trkpt>
      <trkpt lat="42.29118" lon="2.50935">
        <ele>772.191</ele>
        <time>2011-04-02T05:58:10Z</time>
      </trkpt>
      <trkpt lat="42.29116" lon="2.50934">
        <ele>768.781</ele>
        <time>2011-04-02T05:58:14Z</time>
      </trkpt>
      <trkpt lat="42.29116" lon="2.50934">
        <ele>772.119</ele>
        <time>2011-04-02T05:58:15Z</time>
      </trkpt>
      <trkpt lat="42.29117" lon="2.50933">
        <ele>776.407</ele>
        <time>2011-04-02T05:58:17Z</time>
      </trkpt>
      <trkpt lat="42.29117" lon="2.50933">
        <ele>771.69</ele>
        <time>2011-04-02T05:58:18Z</time>
      </trkpt>
      <trkpt lat="42.29118" lon="2.50932">
        <ele>770.624</ele>
        <time>2011-04-02T05:58:20Z</time>
      </trkpt>
      <trkpt lat="42.29119" lon="2.50932">
        <ele>775.957</ele>
        <time>2011-04-02T05:58:21Z</time>
      </trkpt>
      <trkpt lat="42.29119" lon="2.50931">
        <ele>772.126</ele>
        <time>2011-04-02T05:58:22Z</time>
      </trkpt>
      <trkpt lat="42.2912" lon="2.50931">
        <ele>776.933</ele>
        <time>2011-04-02T05:58:23Z</time>
      </trkpt>
      <trkpt lat="42.2912" lon="2.50931">
        <ele>773.551</ele>
        <time>2011-04-02T05:58:24Z</time>
      </trkpt>
      <trkpt lat="42.2912" lon="2.50931">
        <ele>776.934</ele>
        <time>2011-04-02T05:58:25Z</time>
      </trkpt>
      <trkpt lat="42.2912" lon="2.5093">
        <ele>772.677</ele>
        <time>2011-04-02T05:58:26Z</time>
      </trkpt>
      <trkpt lat="42.2912" lon="2.50929">
        <ele>776.961</ele>
        <time>2011-04-02T05:58:28Z</time>
      </trkpt>
      <trkpt lat="42.29119" lon="2.50928">
        <ele>776.927</ele>
        <time>2011-04-02T05:58:29Z</time>
      </trkpt>
      <trkpt lat="42.29119" lon="2.50928">
        <ele>771.607</ele>
        <time>2011-04-02T05:58:30Z</time>
      </trkpt>
      <trkpt lat="42.29119" lon="2.50928">
        <ele>767.878</ele>
        <time>2011-04-02T05:58:31Z</time>
      </trkpt>
      <trkpt lat="42.29119" lon="2.50928">
        <ele>772.112</ele>
        <time>2011-04-02T05:58:32Z</time>
      </trkpt>
      <trkpt lat="42.29117" lon="2.50928">
        <ele>778.845</ele>
        <time>2011-04-02T05:58:37Z</time>
      </trkpt>
      <trkpt lat="42.29116" lon="2.50928">
        <ele>776.934</ele>
        <time>2011-04-02T05:58:38Z</time>
      </trkpt>
      <trkpt lat="42.29115" lon="2.50927">
        <ele>771.141</ele>
        <time>2011-04-02T05:58:40Z</time>
      </trkpt>
      <trkpt lat="42.29114" lon="2.50922">
        <ele>772.679</ele>
        <time>2011-04-02T05:58:46Z</time>
      </trkpt>
      <trkpt lat="42.29114" lon="2.50919">
        <ele>769.232</ele>
        <time>2011-04-02T05:58:49Z</time>
      </trkpt>
      <trkpt lat="42.29114" lon="2.50917">
        <ele>773.043</ele>
        <time>2011-04-02T05:58:51Z</time>
      </trkpt>
      <trkpt lat="42.29114" lon="2.50916">
        <ele>768.264</ele>
        <time>2011-04-02T05:58:52Z</time>
      </trkpt>
      <trkpt lat="42.29114" lon="2.50915">
        <ele>771.61</ele>
        <time>2011-04-02T05:58:53Z</time>
      </trkpt>
      <trkpt lat="42.29114" lon="2.50913">
        <ele>767.807</ele>
        <time>2011-04-02T05:58:55Z</time>
      </trkpt>
      <trkpt lat="42.29114" lon="2.50912">
        <ele>769.795</ele>
        <time>2011-04-02T05:58:56Z</time>
      </trkpt>
      <trkpt lat="42.29114" lon="2.50911">
        <ele>773.019</ele>
        <time>2011-04-02T05:58:57Z</time>
      </trkpt>
      <trkpt lat="42.29114" lon="2.5091">
        <ele>771.622</ele>
        <time>2011-04-02T05:58:58Z</time>
      </trkpt>
      <trkpt lat="42.29116" lon="2.50904">
        <ele>765.841</ele>
        <time>2011-04-02T05:59:05Z</time>
      </trkpt>
      <trkpt lat="42.29116" lon="2.50905">
        <ele>774.038</ele>
        <time>2011-04-02T05:59:06Z</time>
      </trkpt>
      <trkpt lat="42.29116" lon="2.50905">
        <ele>772.616</ele>
        <time>2011-04-02T05:59:07Z</time>
      </trkpt>
      <trkpt lat="42.29116" lon="2.50906">
        <ele>769.219</ele>
        <time>2011-04-02T05:59:08Z</time>
      </trkpt>
      <trkpt lat="42.29116" lon="2.50906">
        <ele>773.058</ele>
        <time>2011-04-02T05:59:09Z</time>
      </trkpt>
      <trkpt lat="42.29116" lon="2.50907">
        <ele>766.852</ele>
        <time>2011-04-02T05:59:10Z</time>
      </trkpt>
      <trkpt lat="42.29116" lon="2.50908">
        <ele>766.317</ele>
        <time>2011-04-02T05:59:11Z</time>
      </trkpt>
      <trkpt lat="42.29116" lon="2.50908">
        <ele>770.607</ele>
        <time>2011-04-02T05:59:12Z</time>
      </trkpt>
      <trkpt lat="42.29116" lon="2.50908">
        <ele>774.596</ele>
        <time>2011-04-02T05:59:13Z</time>
      </trkpt>
      <trkpt lat="42.29116" lon="2.50908">
        <ele>773.09</ele>
        <time>2011-04-02T05:59:14Z</time>
      </trkpt>
      <trkpt lat="42.29116" lon="2.50908">
        <ele>772.653</ele>
        <time>2011-04-02T05:59:16Z</time>
      </trkpt>
      <trkpt lat="42.29116" lon="2.50908">
        <ele>767.842</ele>
        <time>2011-04-02T05:59:18Z</time>
      </trkpt>
      <trkpt lat="42.29116" lon="2.50907">
        <ele>773.029</ele>
        <time>2011-04-02T05:59:19Z</time>
      </trkpt>
      <trkpt lat="42.29116" lon="2.50907">
        <ele>767.897</ele>
        <time>2011-04-02T05:59:20Z</time>
      </trkpt>
      <trkpt lat="42.29116" lon="2.50906">
        <ele>771.61</ele>
        <time>2011-04-02T05:59:22Z</time>
      </trkpt>
      <trkpt lat="42.29116" lon="2.50905">
        <ele>769.265</ele>
        <time>2011-04-02T05:59:23Z</time>
      </trkpt>
      <trkpt lat="42.29116" lon="2.50905">
        <ele>773.068</ele>
        <time>2011-04-02T05:59:24Z</time>
      </trkpt>
      <trkpt lat="42.29116" lon="2.50905">
        <ele>768.214</ele>
        <time>2011-04-02T05:59:25Z</time>
      </trkpt>
      <trkpt lat="42.29116" lon="2.50905">
        <ele>773.507</ele>
        <time>2011-04-02T05:59:26Z</time>
      </trkpt>
      <trkpt lat="42.29116" lon="2.50905">
        <ele>774.027</ele>
        <time>2011-04-02T05:59:27Z</time>
      </trkpt>
      <trkpt lat="42.29115" lon="2.50907">
        <ele>772.621</ele>
        <time>2011-04-02T05:59:30Z</time>
      </trkpt>
      <trkpt lat="42.29116" lon="2.50908">
        <ele>767.824</ele>
        <time>2011-04-02T05:59:32Z</time>
      </trkpt>
      <trkpt lat="42.29116" lon="2.50909">
        <ele>771.123</ele>
        <time>2011-04-02T05:59:33Z</time>
      </trkpt>
      <trkpt lat="42.29117" lon="2.50909">
        <ele>772.15</ele>
        <time>2011-04-02T05:59:35Z</time>
      </trkpt>
      <trkpt lat="42.29118" lon="2.5091">
        <ele>766.898</ele>
        <time>2011-04-02T05:59:37Z</time>
      </trkpt>
      <trkpt lat="42.29118" lon="2.50911">
        <ele>773.561</ele>
        <time>2011-04-02T05:59:39Z</time>
      </trkpt>
      <trkpt lat="42.29118" lon="2.50912">
        <ele>767.837</ele>
        <time>2011-04-02T05:59:40Z</time>
      </trkpt>
      <trkpt lat="42.29118" lon="2.50914">
        <ele>774.549</ele>
        <time>2011-04-02T05:59:42Z</time>
      </trkpt>
      <trkpt lat="42.29118" lon="2.50915">
        <ele>770.613</ele>
        <time>2011-04-02T05:59:43Z</time>
      </trkpt>
      <trkpt lat="42.29118" lon="2.50917">
        <ele>775.907</ele>
        <time>2011-04-02T05:59:46Z</time>
      </trkpt>
      <trkpt lat="42.29118" lon="2.50918">
        <ele>769.754</ele>
        <time>2011-04-02T05:59:47Z</time>
      </trkpt>
      <trkpt lat="42.29119" lon="2.50919">
        <ele>774.588</ele>
        <time>2011-04-02T05:59:48Z</time>
      </trkpt>
      <trkpt lat="42.2912" lon="2.50921">
        <ele>775.941</ele>
        <time>2011-04-02T05:59:51Z</time>
      </trkpt>
      <trkpt lat="42.29121" lon="2.50921">
        <ele>770.62</ele>
        <time>2011-04-02T05:59:52Z</time>
      </trkpt>
      <trkpt lat="42.29121" lon="2.50922">
        <ele>775.917</ele>
        <time>2011-04-02T05:59:53Z</time>
      </trkpt>
      <trkpt lat="42.29121" lon="2.50922">
        <ele>772.675</ele>
        <time>2011-04-02T05:59:54Z</time>
      </trkpt>
      <trkpt lat="42.29122" lon="2.50923">
        <ele>776.478</ele>
        <time>2011-04-02T05:59:55Z</time>
      </trkpt>
      <trkpt lat="42.29122" lon="2.50923">
        <ele>772.629</ele>
        <time>2011-04-02T05:59:56Z</time>
      </trkpt>
      <trkpt lat="42.29124" lon="2.50924">
        <ele>776.4</ele>
        <time>2011-04-02T06:00:01Z</time>
      </trkpt>
      <trkpt lat="42.29124" lon="2.50924">
        <ele>776.42</ele>
        <time>2011-04-02T06:00:02Z</time>
      </trkpt>
      <trkpt lat="42.29124" lon="2.50924">
        <ele>772.107</ele>
        <time>2011-04-02T06:00:03Z</time>
      </trkpt>
      <trkpt lat="42.29124" lon="2.50924">
        <ele>774.553</ele>
        <time>2011-04-02T06:00:04Z</time>
      </trkpt>
      <trkpt lat="42.29124" lon="2.50924">
        <ele>780.397</ele>
        <time>2011-04-02T06:00:06Z</time>
      </trkpt>
      <trkpt lat="42.29124" lon="2.50924">
        <ele>777.46</ele>
        <time>2011-04-02T06:00:07Z</time>
      </trkpt>
      <trkpt lat="42.29125" lon="2.50924">
        <ele>773.579</ele>
        <time>2011-04-02T06:00:09Z</time>
      </trkpt>
      <trkpt lat="42.29127" lon="2.50924">
        <ele>779.376</ele>
        <time>2011-04-02T06:00:16Z</time>
      </trkpt>
      <trkpt lat="42.29128" lon="2.50925">
        <ele>773.594</ele>
        <time>2011-04-02T06:00:22Z</time>
      </trkpt>
      <trkpt lat="42.29127" lon="2.50925">
        <ele>775.957</ele>
        <time>2011-04-02T06:00:23Z</time>
      </trkpt>
      <trkpt lat="42.29127" lon="2.50926">
        <ele>781.741</ele>
        <time>2011-04-02T06:00:24Z</time>
      </trkpt>
      <trkpt lat="42.29127" lon="2.50928">
        <ele>768.781</ele>
        <time>2011-04-02T06:00:26Z</time>
      </trkpt>
      <trkpt lat="42.29127" lon="2.5093">
        <ele>779.309</ele>
        <time>2011-04-02T06:00:27Z</time>
      </trkpt>
      <trkpt lat="42.29127" lon="2.50931">
        <ele>776.407</ele>
        <time>2011-04-02T06:00:28Z</time>
      </trkpt>
      <trkpt lat="42.29126" lon="2.50938">
        <ele>779.335</ele>
        <time>2011-04-02T06:00:33Z</time>
      </trkpt>
      <trkpt lat="42.29126" lon="2.50943">
        <ele>772.679</ele>
        <time>2011-04-02T06:00:36Z</time>
      </trkpt>
      <trkpt lat="42.29126" lon="2.50945">
        <ele>775.472</ele>
        <time>2011-04-02T06:00:37Z</time>
      </trkpt>
      <trkpt lat="42.29126" lon="2.50952">
        <ele>778.821</ele>
        <time>2011-04-02T06:00:41Z</time>
      </trkpt>
      <trkpt lat="42.29127" lon="2.50953">
        <ele>778.398</ele>
        <time>2011-04-02T06:00:42Z</time>
      </trkpt>
      <trkpt lat="42.29126" lon="2.50957">
        <ele>776.476</ele>
        <time>2011-04-02T06:00:46Z</time>
      </trkpt>
      <trkpt lat="42.29124" lon="2.50971">
        <ele>780.769</ele>
        <time>2011-04-02T06:00:55Z</time>
      </trkpt>
      <trkpt lat="42.29124" lon="2.50972">
        <ele>775.034</ele>
        <time>2011-04-02T06:00:56Z</time>
      </trkpt>
      <trkpt lat="42.29124" lon="2.50974">
        <ele>779.355</ele>
        <time>2011-04-02T06:00:57Z</time>
      </trkpt>
      <trkpt lat="42.29124" lon="2.50976">
        <ele>770.61</ele>
        <time>2011-04-02T06:00:58Z</time>
      </trkpt>
      <trkpt lat="42.29123" lon="2.5098">
        <ele>776.407</ele>
        <time>2011-04-02T06:01:01Z</time>
      </trkpt>
      <trkpt lat="42.29122" lon="2.50983">
        <ele>772.134</ele>
        <time>2011-04-02T06:01:03Z</time>
      </trkpt>
      <trkpt lat="42.29122" lon="2.50985">
        <ele>775.968</ele>
        <time>2011-04-02T06:01:04Z</time>
      </trkpt>
      <trkpt lat="42.29122" lon="2.50989">
        <ele>772.611</ele>
        <time>2011-04-02T06:01:07Z</time>
      </trkpt>
      <trkpt lat="42.29122" lon="2.50993">
        <ele>776.97</ele>
        <time>2011-04-02T06:01:09Z</time>
      </trkpt>
      <trkpt lat="42.29122" lon="2.50997">
        <ele>773.577</ele>
        <time>2011-04-02T06:01:11Z</time>
      </trkpt>
      <trkpt lat="42.29122" lon="2.50998">
        <ele>779.825</ele>
        <time>2011-04-02T06:01:12Z</time>
      </trkpt>
      <trkpt lat="42.29122" lon="2.51">
        <ele>775.028</ele>
        <time>2011-04-02T06:01:13Z</time>
      </trkpt>
      <trkpt lat="42.2912" lon="2.51009">
        <ele>775.015</ele>
        <time>2011-04-02T06:01:19Z</time>
      </trkpt>
      <trkpt lat="42.2912" lon="2.51012">
        <ele>774.565</ele>
        <time>2011-04-02T06:01:21Z</time>
      </trkpt>
      <trkpt lat="42.2912" lon="2.51014">
        <ele>777.811</ele>
        <time>2011-04-02T06:01:22Z</time>
      </trkpt>
      <trkpt lat="42.29121" lon="2.51015">
        <ele>773.007</ele>
        <time>2011-04-02T06:01:23Z</time>
      </trkpt>
      <trkpt lat="42.29121" lon="2.51016">
        <ele>781.792</ele>
        <time>2011-04-02T06:01:24Z</time>
      </trkpt>
      <trkpt lat="42.29121" lon="2.51017">
        <ele>779.896</ele>
        <time>2011-04-02T06:01:25Z</time>
      </trkpt>
      <trkpt lat="42.29121" lon="2.51021">
        <ele>773.589</ele>
        <time>2011-04-02T06:01:28Z</time>
      </trkpt>
      <trkpt lat="42.29121" lon="2.51022">
        <ele>780.398</ele>
        <time>2011-04-02T06:01:29Z</time>
      </trkpt>
      <trkpt lat="42.29121" lon="2.51023">
        <ele>775.475</ele>
        <time>2011-04-02T06:01:30Z</time>
      </trkpt>
      <trkpt lat="42.29121" lon="2.51025">
        <ele>776.413</ele>
        <time>2011-04-02T06:01:31Z</time>
      </trkpt>
      <trkpt lat="42.2912" lon="2.51032">
        <ele>775.066</ele>
        <time>2011-04-02T06:01:36Z</time>
      </trkpt>
      <trkpt lat="42.29119" lon="2.51033">
        <ele>775.017</ele>
        <time>2011-04-02T06:01:37Z</time>
      </trkpt>
      <trkpt lat="42.29118" lon="2.51034">
        <ele>778.387</ele>
        <time>2011-04-02T06:01:42Z</time>
      </trkpt>
      <trkpt lat="42.29118" lon="2.51033">
        <ele>776.915</ele>
        <time>2011-04-02T06:01:43Z</time>
      </trkpt>
      <trkpt lat="42.29118" lon="2.51033">
        <ele>775.007</ele>
        <time>2011-04-02T06:01:46Z</time>
      </trkpt>
      <trkpt lat="42.29117" lon="2.51033">
        <ele>779.892</ele>
        <time>2011-04-02T06:01:47Z</time>
      </trkpt>
      <trkpt lat="42.29117" lon="2.51033">
        <ele>775.976</ele>
        <time>2011-04-02T06:01:48Z</time>
      </trkpt>
      <trkpt lat="42.29117" lon="2.51033">
        <ele>779.389</ele>
        <time>2011-04-02T06:01:49Z</time>
      </trkpt>
      <trkpt lat="42.29116" lon="2.51035">
        <ele>774.558</ele>
        <time>2011-04-02T06:01:58Z</time>
      </trkpt>
      <trkpt lat="42.29114" lon="2.51032">
        <ele>779.815</ele>
        <time>2011-04-02T06:02:03Z</time>
      </trkpt>
      <trkpt lat="42.29114" lon="2.51031">
        <ele>777.433</ele>
        <time>2011-04-02T06:02:04Z</time>
      </trkpt>
      <trkpt lat="42.29113" lon="2.5103">
        <ele>779.336</ele>
        <time>2011-04-02T06:02:06Z</time>
      </trkpt>
      <trkpt lat="42.29114" lon="2.51027">
        <ele>775.058</ele>
        <time>2011-04-02T06:02:09Z</time>
      </trkpt>
      <trkpt lat="42.29114" lon="2.51021">
        <ele>775.452</ele>
        <time>2011-04-02T06:02:13Z</time>
      </trkpt>
      <trkpt lat="42.29114" lon="2.51017">
        <ele>773.017</ele>
        <time>2011-04-02T06:02:15Z</time>
      </trkpt>
      <trkpt lat="42.29114" lon="2.51016">
        <ele>778.307</ele>
        <time>2011-04-02T06:02:16Z</time>
      </trkpt>
      <trkpt lat="42.29116" lon="2.51006">
        <ele>781.276</ele>
        <time>2011-04-02T06:02:22Z</time>
      </trkpt>
      <trkpt lat="42.29116" lon="2.51003">
        <ele>774.05</ele>
        <time>2011-04-02T06:02:24Z</time>
      </trkpt>
      <trkpt lat="42.29117" lon="2.51">
        <ele>776.423</ele>
        <time>2011-04-02T06:02:26Z</time>
      </trkpt>
      <trkpt lat="42.29116" lon="2.50991">
        <ele>779.832</ele>
        <time>2011-04-02T06:02:32Z</time>
      </trkpt>
      <trkpt lat="42.29116" lon="2.50989">
        <ele>775.479</ele>
        <time>2011-04-02T06:02:35Z</time>
      </trkpt>
      <trkpt lat="42.29116" lon="2.50988">
        <ele>778.887</ele>
        <time>2011-04-02T06:02:36Z</time>
      </trkpt>
      <trkpt lat="42.29115" lon="2.50987">
        <ele>773.51</ele>
        <time>2011-04-02T06:02:37Z</time>
      </trkpt>
      <trkpt lat="42.29117" lon="2.50982">
        <ele>780.747</ele>
        <time>2011-04-02T06:02:42Z</time>
      </trkpt>
      <trkpt lat="42.29117" lon="2.5098">
        <ele>773.529</ele>
        <time>2011-04-02T06:02:43Z</time>
      </trkpt>
      <trkpt lat="42.29118" lon="2.50973">
        <ele>775.921</ele>
        <time>2011-04-02T06:02:47Z</time>
      </trkpt>
      <trkpt lat="42.29118" lon="2.50972">
        <ele>779.807</ele>
        <time>2011-04-02T06:02:48Z</time>
      </trkpt>
      <trkpt lat="42.29119" lon="2.5097">
        <ele>774.025</ele>
        <time>2011-04-02T06:02:49Z</time>
      </trkpt>
      <trkpt lat="42.29119" lon="2.50969">
        <ele>778.319</ele>
        <time>2011-04-02T06:02:50Z</time>
      </trkpt>
      <trkpt lat="42.29119" lon="2.50967">
        <ele>779.872</ele>
        <time>2011-04-02T06:02:52Z</time>
      </trkpt>
      <trkpt lat="42.29118" lon="2.50966">
        <ele>775.471</ele>
        <time>2011-04-02T06:02:53Z</time>
      </trkpt>
      <trkpt lat="42.29118" lon="2.50966">
        <ele>776.448</ele>
        <time>2011-04-02T06:02:54Z</time>
      </trkpt>
      <trkpt lat="42.29118" lon="2.50965">
        <ele>779.896</ele>
        <time>2011-04-02T06:02:56Z</time>
      </trkpt>
      <trkpt lat="42.29118" lon="2.50965">
        <ele>772.679</ele>
        <time>2011-04-02T06:02:57Z</time>
      </trkpt>
      <trkpt lat="42.29118" lon="2.50965">
        <ele>773.089</ele>
        <time>2011-04-02T06:02:58Z</time>
      </trkpt>
      <trkpt lat="42.29118" lon="2.50964">
        <ele>779.306</ele>
        <time>2011-04-02T06:02:59Z</time>
      </trkpt>
      <trkpt lat="42.29118" lon="2.50963">
        <ele>776.926</ele>
        <time>2011-04-02T06:03:00Z</time>
      </trkpt>
      <trkpt lat="42.29119" lon="2.50961">
        <ele>776.407</ele>
        <time>2011-04-02T06:03:03Z</time>
      </trkpt>
      <trkpt lat="42.29119" lon="2.50958">
        <ele>777.899</ele>
        <time>2011-04-02T06:03:05Z</time>
      </trkpt>
      <trkpt lat="42.29119" lon="2.50955">
        <ele>775.013</ele>
        <time>2011-04-02T06:03:07Z</time>
      </trkpt>
      <trkpt lat="42.2912" lon="2.50941">
        <ele>774.586</ele>
        <time>2011-04-02T06:03:15Z</time>
      </trkpt>
      <trkpt lat="42.2912" lon="2.50939">
        <ele>778.345</ele>
        <time>2011-04-02T06:03:16Z</time>
      </trkpt>
      <trkpt lat="42.2912" lon="2.50938">
        <ele>773.072</ele>
        <time>2011-04-02T06:03:17Z</time>
      </trkpt>
      <trkpt lat="42.29119" lon="2.50933">
        <ele>777.49</ele>
        <time>2011-04-02T06:03:20Z</time>
      </trkpt>
      <trkpt lat="42.29119" lon="2.50932">
        <ele>781.293</ele>
        <time>2011-04-02T06:03:21Z</time>
      </trkpt>
      <trkpt lat="42.29118" lon="2.50931">
        <ele>778.821</ele>
        <time>2011-04-02T06:03:22Z</time>
      </trkpt>
      <trkpt lat="42.29117" lon="2.50928">
        <ele>775.041</ele>
        <time>2011-04-02T06:03:25Z</time>
      </trkpt>
      <trkpt lat="42.29117" lon="2.50926">
        <ele>773.005</ele>
        <time>2011-04-02T06:03:27Z</time>
      </trkpt>
      <trkpt lat="42.29119" lon="2.50917">
        <ele>776.907</ele>
        <time>2011-04-02T06:03:32Z</time>
      </trkpt>
      <trkpt lat="42.29119" lon="2.50915">
        <ele>773.593</ele>
        <time>2011-04-02T06:03:33Z</time>
      </trkpt>
      <trkpt lat="42.2912" lon="2.50913">
        <ele>777.837</ele>
        <time>2011-04-02T06:03:34Z</time>
      </trkpt>
      <trkpt lat="42.29121" lon="2.50909">
        <ele>774.08</ele>
        <time>2011-04-02T06:03:37Z</time>
      </trkpt>
      <trkpt lat="42.29122" lon="2.50906">
        <ele>773.059</ele>
        <time>2011-04-02T06:03:39Z</time>
      </trkpt>
      <trkpt lat="42.29124" lon="2.50905">
        <ele>777.816</ele>
        <time>2011-04-02T06:03:41Z</time>
      </trkpt>
      <trkpt lat="42.29124" lon="2.50904">
        <ele>772.694</ele>
        <time>2011-04-02T06:03:42Z</time>
      </trkpt>
      <trkpt lat="42.29127" lon="2.50901">
        <ele>769.757</ele>
        <time>2011-04-02T06:03:48Z</time>
      </trkpt>
      <trkpt lat="42.29126" lon="2.50901">
        <ele>772.616</ele>
        <time>2011-04-02T06:03:49Z</time>
      </trkpt>
      <trkpt lat="42.29128" lon="2.50898">
        <ele>775.976</ele>
        <time>2011-04-02T06:03:53Z</time>
      </trkpt>
      <trkpt lat="42.29129" lon="2.50896">
        <ele>770.213</ele>
        <time>2011-04-02T06:03:55Z</time>
      </trkpt>
      <trkpt lat="42.2913" lon="2.50895">
        <ele>773.507</ele>
        <time>2011-04-02T06:03:56Z</time>
      </trkpt>
      <trkpt lat="42.2913" lon="2.50895">
        <ele>769.722</ele>
        <time>2011-04-02T06:03:57Z</time>
      </trkpt>
      <trkpt lat="42.29132" lon="2.50893">
        <ele>773.546</ele>
        <time>2011-04-02T06:03:59Z</time>
      </trkpt>
      <trkpt lat="42.29132" lon="2.50891">
        <ele>770.649</ele>
        <time>2011-04-02T06:04:01Z</time>
      </trkpt>
      <trkpt lat="42.29133" lon="2.5089">
        <ele>775.418</ele>
        <time>2011-04-02T06:04:02Z</time>
      </trkpt>
      <trkpt lat="42.29133" lon="2.50889">
        <ele>770.615</ele>
        <time>2011-04-02T06:04:03Z</time>
      </trkpt>
      <trkpt lat="42.29133" lon="2.50886">
        <ele>772.163</ele>
        <time>2011-04-02T06:04:07Z</time>
      </trkpt>
      <trkpt lat="42.29133" lon="2.50884">
        <ele>768.286</ele>
        <time>2011-04-02T06:04:11Z</time>
      </trkpt>
      <trkpt lat="42.29132" lon="2.50883">
        <ele>771.688</ele>
        <time>2011-04-02T06:04:12Z</time>
      </trkpt>
      <trkpt lat="42.29133" lon="2.50881">
        <ele>765.824</ele>
        <time>2011-04-02T06:04:15Z</time>
      </trkpt>
      <trkpt lat="42.29133" lon="2.5088">
        <ele>768.726</ele>
        <time>2011-04-02T06:04:16Z</time>
      </trkpt>
      <trkpt lat="42.29132" lon="2.50876">
        <ele>772.107</ele>
        <time>2011-04-02T06:04:21Z</time>
      </trkpt>
      <trkpt lat="42.29131" lon="2.50874">
        <ele>768.269</ele>
        <time>2011-04-02T06:04:24Z</time>
      </trkpt>
      <trkpt lat="42.2913" lon="2.50873">
        <ele>768.223</ele>
        <time>2011-04-02T06:04:25Z</time>
      </trkpt>
      <trkpt lat="42.29131" lon="2.50869">
        <ele>765.466</ele>
        <time>2011-04-02T06:04:28Z</time>
      </trkpt>
      <trkpt lat="42.29132" lon="2.50868">
        <ele>770.225</ele>
        <time>2011-04-02T06:04:29Z</time>
      </trkpt>
      <trkpt lat="42.29132" lon="2.50865">
        <ele>766.882</ele>
        <time>2011-04-02T06:04:32Z</time>
      </trkpt>
      <trkpt lat="42.29133" lon="2.50861">
        <ele>770.28</ele>
        <time>2011-04-02T06:04:36Z</time>
      </trkpt>
      <trkpt lat="42.29134" lon="2.50857">
        <ele>768.723</ele>
        <time>2011-04-02T06:04:46Z</time>
      </trkpt>
      <trkpt lat="42.29133" lon="2.50857">
        <ele>765.479</ele>
        <time>2011-04-02T06:04:47Z</time>
      </trkpt>
      <trkpt lat="42.29133" lon="2.50856">
        <ele>770.205</ele>
        <time>2011-04-02T06:04:49Z</time>
      </trkpt>
      <trkpt lat="42.29133" lon="2.50856">
        <ele>766.325</ele>
        <time>2011-04-02T06:04:50Z</time>
      </trkpt>
      <trkpt lat="42.29134" lon="2.50855">
        <ele>770.207</ele>
        <time>2011-04-02T06:04:51Z</time>
      </trkpt>
      <trkpt lat="42.29135" lon="2.50855">
        <ele>770.248</ele>
        <time>2011-04-02T06:04:55Z</time>
      </trkpt>
      <trkpt lat="42.29135" lon="2.50855">
        <ele>768.222</ele>
        <time>2011-04-02T06:04:57Z</time>
      </trkpt>
      <trkpt lat="42.29136" lon="2.5086">
        <ele>771.165</ele>
        <time>2011-04-02T06:05:11Z</time>
      </trkpt>
      <trkpt lat="42.29136" lon="2.50861">
        <ele>767.344</ele>
        <time>2011-04-02T06:05:12Z</time>
      </trkpt>
      <trkpt lat="42.29136" lon="2.50861">
        <ele>767.811</ele>
        <time>2011-04-02T06:05:13Z</time>
      </trkpt>
      <trkpt lat="42.29136" lon="2.50862">
        <ele>771.159</ele>
        <time>2011-04-02T06:05:14Z</time>
      </trkpt>
      <trkpt lat="42.29136" lon="2.50864">
        <ele>769.252</ele>
        <time>2011-04-02T06:05:17Z</time>
      </trkpt>
      <trkpt lat="42.29136" lon="2.50872">
        <ele>773.066</ele>
        <time>2011-04-02T06:05:24Z</time>
      </trkpt>
      <trkpt lat="42.29136" lon="2.50873">
        <ele>768.729</ele>
        <time>2011-04-02T06:05:25Z</time>
      </trkpt>
      <trkpt lat="42.29135" lon="2.50874">
        <ele>774.021</ele>
        <time>2011-04-02T06:05:27Z</time>
      </trkpt>
      <trkpt lat="42.29135" lon="2.50875">
        <ele>768.207</ele>
        <time>2011-04-02T06:05:28Z</time>
      </trkpt>
      <trkpt lat="42.29135" lon="2.50877">
        <ele>773.577</ele>
        <time>2011-04-02T06:05:32Z</time>
      </trkpt>
      <trkpt lat="42.29134" lon="2.50878">
        <ele>770.271</ele>
        <time>2011-04-02T06:05:34Z</time>
      </trkpt>
      <trkpt lat="42.29134" lon="2.50878">
        <ele>766.874</ele>
        <time>2011-04-02T06:05:35Z</time>
      </trkpt>
      <trkpt lat="42.2913" lon="2.50886">
        <ele>769.273</ele>
        <time>2011-04-02T06:05:41Z</time>
      </trkpt>
      <trkpt lat="42.29127" lon="2.50892">
        <ele>772.61</ele>
        <time>2011-04-02T06:05:45Z</time>
      </trkpt>
      <trkpt lat="42.29125" lon="2.50895">
        <ele>773.078</ele>
        <time>2011-04-02T06:05:48Z</time>
      </trkpt>
      <trkpt lat="42.29122" lon="2.50902">
        <ele>772.191</ele>
        <time>2011-04-02T06:05:53Z</time>
      </trkpt>
      <trkpt lat="42.29122" lon="2.50911">
        <ele>774.539</ele>
        <time>2011-04-02T06:06:00Z</time>
      </trkpt>
      <trkpt lat="42.29121" lon="2.50922">
        <ele>776.401</ele>
        <time>2011-04-02T06:06:08Z</time>
      </trkpt>
      <trkpt lat="42.29118" lon="2.50931">
        <ele>770.621</ele>
        <time>2011-04-02T06:06:14Z</time>
      </trkpt>
      <trkpt lat="42.29117" lon="2.50932">
        <ele>773.007</ele>
        <time>2011-04-02T06:06:15Z</time>
      </trkpt>
      <trkpt lat="42.29117" lon="2.50934">
        <ele>774.014</ele>
        <time>2011-04-02T06:06:17Z</time>
      </trkpt>
      <trkpt lat="42.29117" lon="2.50936">
        <ele>771.168</ele>
        <time>2011-04-02T06:06:18Z</time>
      </trkpt>
      <trkpt lat="42.29117" lon="2.50938">
        <ele>773.061</ele>
        <time>2011-04-02T06:06:19Z</time>
      </trkpt>
      <trkpt lat="42.29117" lon="2.50942">
        <ele>774.04</ele>
        <time>2011-04-02T06:06:21Z</time>
      </trkpt>
      <trkpt lat="42.29116" lon="2.50944">
        <ele>772.667</ele>
        <time>2011-04-02T06:06:22Z</time>
      </trkpt>
      <trkpt lat="42.29116" lon="2.50951">
        <ele>775.425</ele>
        <time>2011-04-02T06:06:26Z</time>
      </trkpt>
      <trkpt lat="42.29119" lon="2.50971">
        <ele>778.388</ele>
        <time>2011-04-02T06:06:40Z</time>
      </trkpt>
      <trkpt lat="42.2912" lon="2.50972">
        <ele>777.479</ele>
        <time>2011-04-02T06:06:41Z</time>
      </trkpt>
      <trkpt lat="42.2912" lon="2.50974">
        <ele>773.505</ele>
        <time>2011-04-02T06:06:44Z</time>
      </trkpt>
      <trkpt lat="42.2912" lon="2.50975">
        <ele>773.525</ele>
        <time>2011-04-02T06:06:46Z</time>
      </trkpt>
      <trkpt lat="42.29118" lon="2.50983">
        <ele>773.007</ele>
        <time>2011-04-02T06:06:52Z</time>
      </trkpt>
      <trkpt lat="42.29119" lon="2.50989">
        <ele>776.978</ele>
        <time>2011-04-02T06:06:56Z</time>
      </trkpt>
      <trkpt lat="42.29119" lon="2.50992">
        <ele>772.642</ele>
        <time>2011-04-02T06:06:59Z</time>
      </trkpt>
      <trkpt lat="42.29119" lon="2.50992">
        <ele>776.485</ele>
        <time>2011-04-02T06:07:00Z</time>
      </trkpt>
      <trkpt lat="42.29119" lon="2.50996">
        <ele>776.924</ele>
        <time>2011-04-02T06:07:12Z</time>
      </trkpt>
      <trkpt lat="42.2912" lon="2.51">
        <ele>777.421</ele>
        <time>2011-04-02T06:07:17Z</time>
      </trkpt>
      <trkpt lat="42.29119" lon="2.51001">
        <ele>779.379</ele>
        <time>2011-04-02T06:07:19Z</time>
      </trkpt>
      <trkpt lat="42.29119" lon="2.51005">
        <ele>775.442</ele>
        <time>2011-04-02T06:07:22Z</time>
      </trkpt>
      <trkpt lat="42.29118" lon="2.51008">
        <ele>780.737</ele>
        <time>2011-04-02T06:07:24Z</time>
      </trkpt>
      <trkpt lat="42.29118" lon="2.51012">
        <ele>775.449</ele>
        <time>2011-04-02T06:07:27Z</time>
      </trkpt>
      <trkpt lat="42.29117" lon="2.51016">
        <ele>777.413</ele>
        <time>2011-04-02T06:07:30Z</time>
      </trkpt>
      <trkpt lat="42.29117" lon="2.51026">
        <ele>776.907</ele>
        <time>2011-04-02T06:07:38Z</time>
      </trkpt>
      <trkpt lat="42.29116" lon="2.5103">
        <ele>777.444</ele>
        <time>2011-04-02T06:07:40Z</time>
      </trkpt>
      <trkpt lat="42.29116" lon="2.51037">
        <ele>775.048</ele>
        <time>2011-04-02T06:07:45Z</time>
      </trkpt>
      <trkpt lat="42.29116" lon="2.51039">
        <ele>779.871</ele>
        <time>2011-04-02T06:07:47Z</time>
      </trkpt>
      <trkpt lat="42.29116" lon="2.51039">
        <ele>776.48</ele>
        <time>2011-04-02T06:07:48Z</time>
      </trkpt>
      <trkpt lat="42.29116" lon="2.51039">
        <ele>778.397</ele>
        <time>2011-04-02T06:07:51Z</time>
      </trkpt>
      <trkpt lat="42.29117" lon="2.51049">
        <ele>777.425</ele>
        <time>2011-04-02T06:08:08Z</time>
      </trkpt>
      <trkpt lat="42.29117" lon="2.51062">
        <ele>779.878</ele>
        <time>2011-04-02T06:08:20Z</time>
      </trkpt>
      <trkpt lat="42.29116" lon="2.51067">
        <ele>778.394</ele>
        <time>2011-04-02T06:08:23Z</time>
      </trkpt>
      <trkpt lat="42.29116" lon="2.51078">
        <ele>776.957</ele>
        <time>2011-04-02T06:08:30Z</time>
      </trkpt>
      <trkpt lat="42.29115" lon="2.51083">
        <ele>779.822</ele>
        <time>2011-04-02T06:08:35Z</time>
      </trkpt>
      <trkpt lat="42.29115" lon="2.51085">
        <ele>776.407</ele>
        <time>2011-04-02T06:08:37Z</time>
      </trkpt>
      <trkpt lat="42.29115" lon="2.5109">
        <ele>781.29</ele>
        <time>2011-04-02T06:08:40Z</time>
      </trkpt>
      <trkpt lat="42.29114" lon="2.51094">
        <ele>780.784</ele>
        <time>2011-04-02T06:08:42Z</time>
      </trkpt>
      <trkpt lat="42.29114" lon="2.51097">
        <ele>778.847</ele>
        <time>2011-04-02T06:08:44Z</time>
      </trkpt>
      <trkpt lat="42.29115" lon="2.51109">
        <ele>780.736</ele>
        <time>2011-04-02T06:08:51Z</time>
      </trkpt>
      <trkpt lat="42.29117" lon="2.51122">
        <ele>783.113</ele>
        <time>2011-04-02T06:09:02Z</time>
      </trkpt>
      <trkpt lat="42.29111" lon="2.51138">
        <ele>783.151</ele>
        <time>2011-04-02T06:09:13Z</time>
      </trkpt>
      <trkpt lat="42.2911" lon="2.51145">
        <ele>782.284</ele>
        <time>2011-04-02T06:09:19Z</time>
      </trkpt>
      <trkpt lat="42.2911" lon="2.51152">
        <ele>785.552</ele>
        <time>2011-04-02T06:09:25Z</time>
      </trkpt>
      <trkpt lat="42.2911" lon="2.5116">
        <ele>786.553</ele>
        <time>2011-04-02T06:09:30Z</time>
      </trkpt>
      <trkpt lat="42.2911" lon="2.51167">
        <ele>783.108</ele>
        <time>2011-04-02T06:09:34Z</time>
      </trkpt>
      <trkpt lat="42.29111" lon="2.51173">
        <ele>786.007</ele>
        <time>2011-04-02T06:09:39Z</time>
      </trkpt>
      <trkpt lat="42.29111" lon="2.51177">
        <ele>785.116</ele>
        <time>2011-04-02T06:09:43Z</time>
      </trkpt>
      <trkpt lat="42.29111" lon="2.51183">
        <ele>787.58</ele>
        <time>2011-04-02T06:09:51Z</time>
      </trkpt>
      <trkpt lat="42.29111" lon="2.51185">
        <ele>787.953</ele>
        <time>2011-04-02T06:09:53Z</time>
      </trkpt>
      <trkpt lat="42.29107" lon="2.51193">
        <ele>789.912</ele>
        <time>2011-04-02T06:10:00Z</time>
      </trkpt>
      <trkpt lat="42.29102" lon="2.51203">
        <ele>786.549</ele>
        <time>2011-04-02T06:10:07Z</time>
      </trkpt>
      <trkpt lat="42.291" lon="2.51207">
        <ele>789.937</ele>
        <time>2011-04-02T06:10:10Z</time>
      </trkpt>
      <trkpt lat="42.29089" lon="2.51225">
        <ele>791.35</ele>
        <time>2011-04-02T06:10:23Z</time>
      </trkpt>
      <trkpt lat="42.29087" lon="2.51229">
        <ele>787.597</ele>
        <time>2011-04-02T06:10:26Z</time>
      </trkpt>
      <trkpt lat="42.29086" lon="2.5123">
        <ele>788.423</ele>
        <time>2011-04-02T06:10:27Z</time>
      </trkpt>
      <trkpt lat="42.29078" lon="2.51244">
        <ele>791.825</ele>
        <time>2011-04-02T06:10:39Z</time>
      </trkpt>
      <trkpt lat="42.29077" lon="2.51245">
        <ele>788.407</ele>
        <time>2011-04-02T06:10:40Z</time>
      </trkpt>
      <trkpt lat="42.29073" lon="2.51249">
        <ele>787.08</ele>
        <time>2011-04-02T06:10:44Z</time>
      </trkpt>
      <trkpt lat="42.29072" lon="2.5125">
        <ele>787.574</ele>
        <time>2011-04-02T06:10:45Z</time>
      </trkpt>
      <trkpt lat="42.29062" lon="2.51269">
        <ele>788.427</ele>
        <time>2011-04-02T06:10:59Z</time>
      </trkpt>
      <trkpt lat="42.29061" lon="2.51272">
        <ele>787.946</ele>
        <time>2011-04-02T06:11:01Z</time>
      </trkpt>
      <trkpt lat="42.29058" lon="2.51276">
        <ele>792.713</ele>
        <time>2011-04-02T06:11:04Z</time>
      </trkpt>
      <trkpt lat="42.29057" lon="2.51278">
        <ele>787.521</ele>
        <time>2011-04-02T06:11:05Z</time>
      </trkpt>
      <trkpt lat="42.29057" lon="2.51279">
        <ele>788.914</ele>
        <time>2011-04-02T06:11:06Z</time>
      </trkpt>
      <trkpt lat="42.29054" lon="2.51285">
        <ele>790.374</ele>
        <time>2011-04-02T06:11:10Z</time>
      </trkpt>
      <trkpt lat="42.29045" lon="2.51299">
        <ele>790.856</ele>
        <time>2011-04-02T06:11:25Z</time>
      </trkpt>
      <trkpt lat="42.29044" lon="2.51302">
        <ele>791.321</ele>
        <time>2011-04-02T06:11:28Z</time>
      </trkpt>
      <trkpt lat="42.29042" lon="2.51314">
        <ele>791.307</ele>
        <time>2011-04-02T06:11:38Z</time>
      </trkpt>
      <trkpt lat="42.29043" lon="2.51318">
        <ele>789.968</ele>
        <time>2011-04-02T06:11:41Z</time>
      </trkpt>
      <trkpt lat="42.29043" lon="2.51321">
        <ele>790.832</ele>
        <time>2011-04-02T06:11:43Z</time>
      </trkpt>
      <trkpt lat="42.29043" lon="2.51332">
        <ele>788.965</ele>
        <time>2011-04-02T06:11:54Z</time>
      </trkpt>
      <trkpt lat="42.29041" lon="2.51339">
        <ele>791.344</ele>
        <time>2011-04-02T06:12:03Z</time>
      </trkpt>
      <trkpt lat="42.29029" lon="2.51342">
        <ele>793.251</ele>
        <time>2011-04-02T06:12:15Z</time>
      </trkpt>
      <trkpt lat="42.29028" lon="2.51343">
        <ele>793.239</ele>
        <time>2011-04-02T06:12:16Z</time>
      </trkpt>
      <trkpt lat="42.29027" lon="2.51343">
        <ele>793.792</ele>
        <time>2011-04-02T06:12:17Z</time>
      </trkpt>
      <trkpt lat="42.2902" lon="2.51345">
        <ele>790.848</ele>
        <time>2011-04-02T06:12:28Z</time>
      </trkpt>
      <trkpt lat="42.2902" lon="2.51342">
        <ele>788.961</ele>
        <time>2011-04-02T06:12:32Z</time>
      </trkpt>
      <trkpt lat="42.29025" lon="2.51337">
        <ele>787.517</ele>
        <time>2011-04-02T06:12:36Z</time>
      </trkpt>
      <trkpt lat="42.29033" lon="2.51328">
        <ele>787.507</ele>
        <time>2011-04-02T06:12:42Z</time>
      </trkpt>
      <trkpt lat="42.29033" lon="2.51324">
        <ele>785.165</ele>
        <time>2011-04-02T06:12:45Z</time>
      </trkpt>
      <trkpt lat="42.29031" lon="2.51311">
        <ele>788.439</ele>
        <time>2011-04-02T06:12:54Z</time>
      </trkpt>
      <trkpt lat="42.29031" lon="2.51309">
        <ele>784.662</ele>
        <time>2011-04-02T06:12:56Z</time>
      </trkpt>
      <trkpt lat="42.29031" lon="2.51308">
        <ele>786.091</ele>
        <time>2011-04-02T06:12:57Z</time>
      </trkpt>
      <trkpt lat="42.29031" lon="2.51307">
        <ele>786.558</ele>
        <time>2011-04-02T06:12:59Z</time>
      </trkpt>
      <trkpt lat="42.29031" lon="2.51303">
        <ele>786.016</ele>
        <time>2011-04-02T06:13:03Z</time>
      </trkpt>
      <trkpt lat="42.29031" lon="2.51302">
        <ele>785.199</ele>
        <time>2011-04-02T06:13:04Z</time>
      </trkpt>
      <trkpt lat="42.29032" lon="2.51297">
        <ele>783.683</ele>
        <time>2011-04-02T06:13:07Z</time>
      </trkpt>
      <trkpt lat="42.29032" lon="2.51296">
        <ele>784.125</ele>
        <time>2011-04-02T06:13:08Z</time>
      </trkpt>
      <trkpt lat="42.29033" lon="2.51294">
        <ele>785.517</ele>
        <time>2011-04-02T06:13:10Z</time>
      </trkpt>
      <trkpt lat="42.29039" lon="2.51272">
        <ele>783.607</ele>
        <time>2011-04-02T06:13:23Z</time>
      </trkpt>
      <trkpt lat="42.29039" lon="2.5127">
        <ele>782.229</ele>
        <time>2011-04-02T06:13:24Z</time>
      </trkpt>
      <trkpt lat="42.29049" lon="2.51244">
        <ele>782.753</ele>
        <time>2011-04-02T06:13:39Z</time>
      </trkpt>
      <trkpt lat="42.29058" lon="2.51226">
        <ele>784.646</ele>
        <time>2011-04-02T06:13:51Z</time>
      </trkpt>
      <trkpt lat="42.29058" lon="2.51224">
        <ele>782.795</ele>
        <time>2011-04-02T06:13:52Z</time>
      </trkpt>
      <trkpt lat="42.2906" lon="2.51222">
        <ele>782.252</ele>
        <time>2011-04-02T06:13:54Z</time>
      </trkpt>
      <trkpt lat="42.29064" lon="2.51217">
        <ele>781.26</ele>
        <time>2011-04-02T06:13:59Z</time>
      </trkpt>
      <trkpt lat="42.29066" lon="2.51213">
        <ele>783.173</ele>
        <time>2011-04-02T06:14:02Z</time>
      </trkpt>
      <trkpt lat="42.29068" lon="2.5121">
        <ele>780.335</ele>
        <time>2011-04-02T06:14:04Z</time>
      </trkpt>
      <trkpt lat="42.2907" lon="2.51208">
        <ele>779.886</ele>
        <time>2011-04-02T06:14:06Z</time>
      </trkpt>
      <trkpt lat="42.29073" lon="2.51204">
        <ele>783.114</ele>
        <time>2011-04-02T06:14:09Z</time>
      </trkpt>
      <trkpt lat="42.29078" lon="2.51197">
        <ele>779.307</ele>
        <time>2011-04-02T06:14:15Z</time>
      </trkpt>
      <trkpt lat="42.29079" lon="2.51194">
        <ele>782.754</ele>
        <time>2011-04-02T06:14:18Z</time>
      </trkpt>
      <trkpt lat="42.2908" lon="2.51194">
        <ele>783.168</ele>
        <time>2011-04-02T06:14:19Z</time>
      </trkpt>
      <trkpt lat="42.29082" lon="2.51189">
        <ele>780.771</ele>
        <time>2011-04-02T06:14:23Z</time>
      </trkpt>
      <trkpt lat="42.29088" lon="2.51178">
        <ele>780.75</ele>
        <time>2011-04-02T06:14:32Z</time>
      </trkpt>
      <trkpt lat="42.29092" lon="2.51174">
        <ele>780.387</ele>
        <time>2011-04-02T06:14:37Z</time>
      </trkpt>
      <trkpt lat="42.29094" lon="2.51165">
        <ele>781.715</ele>
        <time>2011-04-02T06:14:44Z</time>
      </trkpt>
      <trkpt lat="42.29095" lon="2.51161">
        <ele>783.148</ele>
        <time>2011-04-02T06:14:47Z</time>
      </trkpt>
      <trkpt lat="42.29098" lon="2.51131">
        <ele>783.127</ele>
        <time>2011-04-02T06:15:03Z</time>
      </trkpt>
      <trkpt lat="42.29102" lon="2.51123">
        <ele>779.868</ele>
        <time>2011-04-02T06:15:08Z</time>
      </trkpt>
      <trkpt lat="42.29105" lon="2.51107">
        <ele>780.714</ele>
        <time>2011-04-02T06:15:17Z</time>
      </trkpt>
      <trkpt lat="42.29105" lon="2.511">
        <ele>782.207</ele>
        <time>2011-04-02T06:15:21Z</time>
      </trkpt>
      <trkpt lat="42.29103" lon="2.51092">
        <ele>780.743</ele>
        <time>2011-04-02T06:15:26Z</time>
      </trkpt>
      <trkpt lat="42.29106" lon="2.51062">
        <ele>779.827</ele>
        <time>2011-04-02T06:15:40Z</time>
      </trkpt>
      <trkpt lat="42.29106" lon="2.51059">
        <ele>778.83</ele>
        <time>2011-04-02T06:15:42Z</time>
      </trkpt>
      <trkpt lat="42.29107" lon="2.5105">
        <ele>777.429</ele>
        <time>2011-04-02T06:15:47Z</time>
      </trkpt>
      <trkpt lat="42.29108" lon="2.51039">
        <ele>777.446</ele>
        <time>2011-04-02T06:15:53Z</time>
      </trkpt>
      <trkpt lat="42.29107" lon="2.51021">
        <ele>775.464</ele>
        <time>2011-04-02T06:16:03Z</time>
      </trkpt>
      <trkpt lat="42.29106" lon="2.51019">
        <ele>775.437</ele>
        <time>2011-04-02T06:16:04Z</time>
      </trkpt>
      <trkpt lat="42.29106" lon="2.51013">
        <ele>775.449</ele>
        <time>2011-04-02T06:16:07Z</time>
      </trkpt>
      <trkpt lat="42.29106" lon="2.51011">
        <ele>775.402</ele>
        <time>2011-04-02T06:16:08Z</time>
      </trkpt>
      <trkpt lat="42.29108" lon="2.50993">
        <ele>775.422</ele>
        <time>2011-04-02T06:16:18Z</time>
      </trkpt>
      <trkpt lat="42.29108" lon="2.50988">
        <ele>772.607</ele>
        <time>2011-04-02T06:16:21Z</time>
      </trkpt>
      <trkpt lat="42.29107" lon="2.50981">
        <ele>775.455</ele>
        <time>2011-04-02T06:16:26Z</time>
      </trkpt>
      <trkpt lat="42.29106" lon="2.50979">
        <ele>773.519</ele>
        <time>2011-04-02T06:16:28Z</time>
      </trkpt>
      <trkpt lat="42.29103" lon="2.50961">
        <ele>773.072</ele>
        <time>2011-04-02T06:16:40Z</time>
      </trkpt>
      <trkpt lat="42.291" lon="2.50934">
        <ele>772.631</ele>
        <time>2011-04-02T06:16:54Z</time>
      </trkpt>
      <trkpt lat="42.29105" lon="2.50915">
        <ele>770.678</ele>
        <time>2011-04-02T06:17:06Z</time>
      </trkpt>
      <trkpt lat="42.29107" lon="2.50895">
        <ele>769.266</ele>
        <time>2011-04-02T06:17:20Z</time>
      </trkpt>
      <trkpt lat="42.29109" lon="2.50882">
        <ele>767.369</ele>
        <time>2011-04-02T06:17:28Z</time>
      </trkpt>
      <trkpt lat="42.29108" lon="2.50867">
        <ele>766.362</ele>
        <time>2011-04-02T06:17:40Z</time>
      </trkpt>
      <trkpt lat="42.29108" lon="2.50855">
        <ele>764.983</ele>
        <time>2011-04-02T06:17:48Z</time>
      </trkpt>
      <trkpt lat="42.29108" lon="2.50852">
        <ele>765.811</ele>
        <time>2011-04-02T06:17:50Z</time>
      </trkpt>
      <trkpt lat="42.29107" lon="2.50848">
        <ele>764.907</ele>
        <time>2011-04-02T06:17:52Z</time>
      </trkpt>
      <trkpt lat="42.29106" lon="2.50826">
        <ele>763.417</ele>
        <time>2011-04-02T06:18:05Z</time>
      </trkpt>
      <trkpt lat="42.29106" lon="2.50821">
        <ele>762.951</ele>
        <time>2011-04-02T06:18:09Z</time>
      </trkpt>
      <trkpt lat="42.29107" lon="2.50811">
        <ele>759.624</ele>
        <time>2011-04-02T06:18:17Z</time>
      </trkpt>
      <trkpt lat="42.29109" lon="2.50803">
        <ele>760.153</ele>
        <time>2011-04-02T06:18:27Z</time>
      </trkpt>
      <trkpt lat="42.29109" lon="2.50802">
        <ele>760.18</ele>
        <time>2011-04-02T06:18:28Z</time>
      </trkpt>
      <trkpt lat="42.29118" lon="2.50782">
        <ele>758.648</ele>
        <time>2011-04-02T06:18:42Z</time>
      </trkpt>
      <trkpt lat="42.2912" lon="2.50772">
        <ele>756.221</ele>
        <time>2011-04-02T06:18:51Z</time>
      </trkpt>
      <trkpt lat="42.29124" lon="2.50765">
        <ele>754.388</ele>
        <time>2011-04-02T06:18:58Z</time>
      </trkpt>
      <trkpt lat="42.29129" lon="2.50756">
        <ele>753.824</ele>
        <time>2011-04-02T06:19:04Z</time>
      </trkpt>
      <trkpt lat="42.29136" lon="2.5075">
        <ele>752.426</ele>
        <time>2011-04-02T06:19:08Z</time>
      </trkpt>
      <trkpt lat="42.29149" lon="2.50749">
        <ele>751.907</ele>
        <time>2011-04-02T06:19:19Z</time>
      </trkpt>
      <trkpt lat="42.29158" lon="2.50749">
        <ele>751.969</ele>
        <time>2011-04-02T06:19:27Z</time>
      </trkpt>
      <trkpt lat="42.29165" lon="2.50757">
        <ele>750.033</ele>
        <time>2011-04-02T06:19:33Z</time>
      </trkpt>
      <trkpt lat="42.29172" lon="2.50761">
        <ele>750.576</ele>
        <time>2011-04-02T06:19:44Z</time>
      </trkpt>
      <trkpt lat="42.29174" lon="2.50755">
        <ele>748.555</ele>
        <time>2011-04-02T06:19:57Z</time>
      </trkpt>
      <trkpt lat="42.29176" lon="2.50753">
        <ele>748.072</ele>
        <time>2011-04-02T06:20:04Z</time>
      </trkpt>
      <trkpt lat="42.2918" lon="2.50749">
        <ele>747.67</ele>
        <time>2011-04-02T06:20:09Z</time>
      </trkpt>
      <trkpt lat="42.29183" lon="2.50741">
        <ele>745.683</ele>
        <time>2011-04-02T06:20:14Z</time>
      </trkpt>
      <trkpt lat="42.29184" lon="2.50735">
        <ele>746.153</ele>
        <time>2011-04-02T06:20:20Z</time>
      </trkpt>
      <trkpt lat="42.29183" lon="2.50731">
        <ele>745.204</ele>
        <time>2011-04-02T06:20:24Z</time>
      </trkpt>
      <trkpt lat="42.29188" lon="2.50718">
        <ele>743.214</ele>
        <time>2011-04-02T06:20:32Z</time>
      </trkpt>
      <trkpt lat="42.29191" lon="2.50712">
        <ele>742.307</ele>
        <time>2011-04-02T06:20:36Z</time>
      </trkpt>
      <trkpt lat="42.29209" lon="2.50683">
        <ele>740.476</ele>
        <time>2011-04-02T06:20:50Z</time>
      </trkpt>
      <trkpt lat="42.29217" lon="2.50673">
        <ele>740.42</ele>
        <time>2011-04-02T06:21:02Z</time>
      </trkpt>
      <trkpt lat="42.29228" lon="2.50659">
        <ele>738.063</ele>
        <time>2011-04-02T06:21:16Z</time>
      </trkpt>
      <trkpt lat="42.29238" lon="2.50646">
        <ele>736.532</ele>
        <time>2011-04-02T06:21:27Z</time>
      </trkpt>
      <trkpt lat="42.2924" lon="2.50643">
        <ele>736.049</ele>
        <time>2011-04-02T06:21:29Z</time>
      </trkpt>
      <trkpt lat="42.29244" lon="2.50638">
        <ele>736.027</ele>
        <time>2011-04-02T06:21:34Z</time>
      </trkpt>
      <trkpt lat="42.29245" lon="2.50636">
        <ele>734.69</ele>
        <time>2011-04-02T06:21:37Z</time>
      </trkpt>
      <trkpt lat="42.2925" lon="2.50625">
        <ele>732.777</ele>
        <time>2011-04-02T06:21:49Z</time>
      </trkpt>
      <trkpt lat="42.29257" lon="2.50612">
        <ele>729.361</ele>
        <time>2011-04-02T06:22:01Z</time>
      </trkpt>
      <trkpt lat="42.29257" lon="2.50609">
        <ele>728.327</ele>
        <time>2011-04-02T06:22:05Z</time>
      </trkpt>
      <trkpt lat="42.29259" lon="2.50604">
        <ele>726.407</ele>
        <time>2011-04-02T06:22:11Z</time>
      </trkpt>
      <trkpt lat="42.29261" lon="2.50596">
        <ele>725.528</ele>
        <time>2011-04-02T06:22:21Z</time>
      </trkpt>
      <trkpt lat="42.29263" lon="2.50594">
        <ele>725.042</ele>
        <time>2011-04-02T06:22:23Z</time>
      </trkpt>
      <trkpt lat="42.29264" lon="2.50591">
        <ele>724.055</ele>
        <time>2011-04-02T06:22:37Z</time>
      </trkpt>
      <trkpt lat="42.29262" lon="2.50591">
        <ele>723.124</ele>
        <time>2011-04-02T06:22:51Z</time>
      </trkpt>
      <trkpt lat="42.29263" lon="2.50586">
        <ele>721.631</ele>
        <time>2011-04-02T06:22:59Z</time>
      </trkpt>
      <trkpt lat="42.29263" lon="2.50583">
        <ele>720.729</ele>
        <time>2011-04-02T06:23:02Z</time>
      </trkpt>
      <trkpt lat="42.29266" lon="2.50572">
        <ele>718.712</ele>
        <time>2011-04-02T06:23:16Z</time>
      </trkpt>
      <trkpt lat="42.29259" lon="2.50569">
        <ele>715.881</ele>
        <time>2011-04-02T06:23:23Z</time>
      </trkpt>
      <trkpt lat="42.29265" lon="2.50557">
        <ele>713.461</ele>
        <time>2011-04-02T06:23:31Z</time>
      </trkpt>
      <trkpt lat="42.2927" lon="2.50546">
        <ele>712.017</ele>
        <time>2011-04-02T06:23:41Z</time>
      </trkpt>
      <trkpt lat="42.29273" lon="2.50538">
        <ele>709.607</ele>
        <time>2011-04-02T06:23:55Z</time>
      </trkpt>
      <trkpt lat="42.29273" lon="2.50532">
        <ele>707.249</ele>
        <time>2011-04-02T06:24:06Z</time>
      </trkpt>
      <trkpt lat="42.29272" lon="2.50527">
        <ele>704.313</ele>
        <time>2011-04-02T06:24:18Z</time>
      </trkpt>
      <trkpt lat="42.29272" lon="2.50524">
        <ele>703.316</ele>
        <time>2011-04-02T06:24:21Z</time>
      </trkpt>
      <trkpt lat="42.29271" lon="2.50519">
        <ele>701.985</ele>
        <time>2011-04-02T06:24:27Z</time>
      </trkpt>
      <trkpt lat="42.29273" lon="2.50508">
        <ele>699.092</ele>
        <time>2011-04-02T06:24:33Z</time>
      </trkpt>
      <trkpt lat="42.29274" lon="2.50507">
        <ele>699.04</ele>
        <time>2011-04-02T06:24:34Z</time>
      </trkpt>
      <trkpt lat="42.29277" lon="2.50505">
        <ele>698.573</ele>
        <time>2011-04-02T06:24:36Z</time>
      </trkpt>
      <trkpt lat="42.2928" lon="2.50498">
        <ele>696.664</ele>
        <time>2011-04-02T06:24:42Z</time>
      </trkpt>
      <trkpt lat="42.29284" lon="2.50492">
        <ele>694.206</ele>
        <time>2011-04-02T06:24:50Z</time>
      </trkpt>
      <trkpt lat="42.29283" lon="2.50489">
        <ele>692.816</ele>
        <time>2011-04-02T06:24:54Z</time>
      </trkpt>
      <trkpt lat="42.2928" lon="2.50488">
        <ele>691.807</ele>
        <time>2011-04-02T06:24:58Z</time>
      </trkpt>
      <trkpt lat="42.29267" lon="2.50489">
        <ele>690.437</ele>
        <time>2011-04-02T06:25:13Z</time>
      </trkpt>
      <trkpt lat="42.29266" lon="2.50489">
        <ele>689.961</ele>
        <time>2011-04-02T06:25:15Z</time>
      </trkpt>
      <trkpt lat="42.2927" lon="2.50479">
        <ele>688.994</ele>
        <time>2011-04-02T06:25:23Z</time>
      </trkpt>
      <trkpt lat="42.29273" lon="2.50475">
        <ele>688.453</ele>
        <time>2011-04-02T06:25:27Z</time>
      </trkpt>
      <trkpt lat="42.29275" lon="2.50472">
        <ele>688.07</ele>
        <time>2011-04-02T06:25:30Z</time>
      </trkpt>
      <trkpt lat="42.29286" lon="2.50465">
        <ele>685.678</ele>
        <time>2011-04-02T06:25:43Z</time>
      </trkpt>
      <trkpt lat="42.29299" lon="2.50457">
        <ele>683.631</ele>
        <time>2011-04-02T06:25:57Z</time>
      </trkpt>
      <trkpt lat="42.29308" lon="2.5045">
        <ele>683.246</ele>
        <time>2011-04-02T06:26:07Z</time>
      </trkpt>
      <trkpt lat="42.29312" lon="2.50448">
        <ele>682.788</ele>
        <time>2011-04-02T06:26:11Z</time>
      </trkpt>
      <trkpt lat="42.29318" lon="2.50446">
        <ele>680.816</ele>
        <time>2011-04-02T06:26:25Z</time>
      </trkpt>
      <trkpt lat="42.29307" lon="2.50447">
        <ele>677.907</ele>
        <time>2011-04-02T06:26:38Z</time>
      </trkpt>
      <trkpt lat="42.29305" lon="2.50447">
        <ele>678.465</ele>
        <time>2011-04-02T06:26:43Z</time>
      </trkpt>
      <trkpt lat="42.29302" lon="2.50443">
        <ele>677.469</ele>
        <time>2011-04-02T06:26:47Z</time>
      </trkpt>
      <trkpt lat="42.29309" lon="2.50432">
        <ele>675.092</ele>
        <time>2011-04-02T06:26:58Z</time>
      </trkpt>
      <trkpt lat="42.29309" lon="2.50431">
        <ele>674.581</ele>
        <time>2011-04-02T06:26:59Z</time>
      </trkpt>
      <trkpt lat="42.29319" lon="2.50423">
        <ele>673.548</ele>
        <time>2011-04-02T06:27:11Z</time>
      </trkpt>
      <trkpt lat="42.2932" lon="2.50423">
        <ele>672.126</ele>
        <time>2011-04-02T06:27:13Z</time>
      </trkpt>
      <trkpt lat="42.29319" lon="2.5042">
        <ele>671.199</ele>
        <time>2011-04-02T06:27:18Z</time>
      </trkpt>
      <trkpt lat="42.2931" lon="2.50416">
        <ele>669.754</ele>
        <time>2011-04-02T06:27:29Z</time>
      </trkpt>
      <trkpt lat="42.29307" lon="2.50417">
        <ele>668.356</ele>
        <time>2011-04-02T06:27:35Z</time>
      </trkpt>
      <trkpt lat="42.29301" lon="2.50416">
        <ele>667.311</ele>
        <time>2011-04-02T06:27:40Z</time>
      </trkpt>
      <trkpt lat="42.29292" lon="2.50413">
        <ele>666.807</ele>
        <time>2011-04-02T06:27:54Z</time>
      </trkpt>
      <trkpt lat="42.29292" lon="2.50409">
        <ele>665.926</ele>
        <time>2011-04-02T06:28:00Z</time>
      </trkpt>
      <trkpt lat="42.29292" lon="2.50404">
        <ele>663.92</ele>
        <time>2011-04-02T06:28:04Z</time>
      </trkpt>
      <trkpt lat="42.29295" lon="2.50401">
        <ele>663.553</ele>
        <time>2011-04-02T06:28:08Z</time>
      </trkpt>
      <trkpt lat="42.29297" lon="2.50399">
        <ele>662.532</ele>
        <time>2011-04-02T06:28:11Z</time>
      </trkpt>
      <trkpt lat="42.29294" lon="2.50393">
        <ele>661.019</ele>
        <time>2011-04-02T06:28:24Z</time>
      </trkpt>
      <trkpt lat="42.29293" lon="2.50392">
        <ele>661.027</ele>
        <time>2011-04-02T06:28:25Z</time>
      </trkpt>
      <trkpt lat="42.2929" lon="2.50388">
        <ele>661.02</ele>
        <time>2011-04-02T06:28:32Z</time>
      </trkpt>
      <trkpt lat="42.2929" lon="2.50385">
        <ele>659.622</ele>
        <time>2011-04-02T06:28:35Z</time>
      </trkpt>
      <trkpt lat="42.29293" lon="2.50378">
        <ele>659.162</ele>
        <time>2011-04-02T06:28:41Z</time>
      </trkpt>
      <trkpt lat="42.29296" lon="2.50378">
        <ele>657.708</ele>
        <time>2011-04-02T06:28:44Z</time>
      </trkpt>
      <trkpt lat="42.29297" lon="2.50378">
        <ele>657.707</ele>
        <time>2011-04-02T06:28:45Z</time>
      </trkpt>
      <trkpt lat="42.29297" lon="2.50377">
        <ele>657.253</ele>
        <time>2011-04-02T06:28:47Z</time>
      </trkpt>
      <trkpt lat="42.29296" lon="2.50375">
        <ele>657.247</ele>
        <time>2011-04-02T06:28:49Z</time>
      </trkpt>
      <trkpt lat="42.293" lon="2.50372">
        <ele>655.37</ele>
        <time>2011-04-02T06:28:56Z</time>
      </trkpt>
      <trkpt lat="42.29312" lon="2.50376">
        <ele>653.459</ele>
        <time>2011-04-02T06:29:12Z</time>
      </trkpt>
      <trkpt lat="42.29314" lon="2.50374">
        <ele>653.456</ele>
        <time>2011-04-02T06:29:17Z</time>
      </trkpt>
      <trkpt lat="42.29321" lon="2.50368">
        <ele>651.424</ele>
        <time>2011-04-02T06:29:31Z</time>
      </trkpt>
      <trkpt lat="42.29321" lon="2.50364">
        <ele>648.127</ele>
        <time>2011-04-02T06:29:39Z</time>
      </trkpt>
      <trkpt lat="42.29321" lon="2.50365">
        <ele>651.019</ele>
        <time>2011-04-02T06:29:41Z</time>
      </trkpt>
      <trkpt lat="42.29322" lon="2.50365">
        <ele>650.509</ele>
        <time>2011-04-02T06:29:43Z</time>
      </trkpt>
      <trkpt lat="42.29329" lon="2.5036">
        <ele>651.419</ele>
        <time>2011-04-02T06:29:54Z</time>
      </trkpt>
      <trkpt lat="42.29332" lon="2.50359">
        <ele>652.907</ele>
        <time>2011-04-02T06:29:59Z</time>
      </trkpt>
      <trkpt lat="42.29342" lon="2.50352">
        <ele>654.892</ele>
        <time>2011-04-02T06:30:07Z</time>
      </trkpt>
      <trkpt lat="42.29363" lon="2.50337">
        <ele>651.476</ele>
        <time>2011-04-02T06:30:20Z</time>
      </trkpt>
      <trkpt lat="42.29369" lon="2.50334">
        <ele>652.489</ele>
        <time>2011-04-02T06:30:26Z</time>
      </trkpt>
      <trkpt lat="42.29372" lon="2.50335">
        <ele>649.528</ele>
        <time>2011-04-02T06:30:29Z</time>
      </trkpt>
      <trkpt lat="42.29378" lon="2.50336">
        <ele>650.535</ele>
        <time>2011-04-02T06:30:39Z</time>
      </trkpt>
      <trkpt lat="42.29378" lon="2.50336">
        <ele>650.563</ele>
        <time>2011-04-02T06:30:41Z</time>
      </trkpt>
      <trkpt lat="42.29382" lon="2.50333">
        <ele>646.136</ele>
        <time>2011-04-02T06:30:49Z</time>
      </trkpt>
      <trkpt lat="42.29383" lon="2.50332">
        <ele>650.031</ele>
        <time>2011-04-02T06:30:50Z</time>
      </trkpt>
      <trkpt lat="42.29387" lon="2.50329">
        <ele>649.061</ele>
        <time>2011-04-02T06:30:54Z</time>
      </trkpt>
      <trkpt lat="42.29392" lon="2.50326">
        <ele>648.607</ele>
        <time>2011-04-02T06:30:59Z</time>
      </trkpt>
      <trkpt lat="42.29397" lon="2.50323">
        <ele>648.607</ele>
        <time>2011-04-02T06:31:03Z</time>
      </trkpt>
      <trkpt lat="42.29403" lon="2.50321">
        <ele>645.784</ele>
        <time>2011-04-02T06:31:08Z</time>
      </trkpt>
      <trkpt lat="42.29417" lon="2.50311">
        <ele>647.138</ele>
        <time>2011-04-02T06:31:19Z</time>
      </trkpt>
      <trkpt lat="42.2943" lon="2.50303">
        <ele>642.331</ele>
        <time>2011-04-02T06:31:30Z</time>
      </trkpt>
      <trkpt lat="42.29431" lon="2.50303">
        <ele>645.73</ele>
        <time>2011-04-02T06:31:31Z</time>
      </trkpt>
      <trkpt lat="42.29433" lon="2.50304">
        <ele>643.317</ele>
        <time>2011-04-02T06:31:33Z</time>
      </trkpt>
      <trkpt lat="42.29444" lon="2.50303">
        <ele>643.395</ele>
        <time>2011-04-02T06:31:41Z</time>
      </trkpt>
      <trkpt lat="42.29445" lon="2.50303">
        <ele>644.728</ele>
        <time>2011-04-02T06:31:42Z</time>
      </trkpt>
      <trkpt lat="42.29453" lon="2.50303">
        <ele>639.925</ele>
        <time>2011-04-02T06:31:48Z</time>
      </trkpt>
      <trkpt lat="42.29457" lon="2.50303">
        <ele>643.726</ele>
        <time>2011-04-02T06:31:51Z</time>
      </trkpt>
      <trkpt lat="42.29462" lon="2.50303">
        <ele>641.808</ele>
        <time>2011-04-02T06:31:56Z</time>
      </trkpt>
      <trkpt lat="42.29469" lon="2.50303">
        <ele>640.407</ele>
        <time>2011-04-02T06:32:03Z</time>
      </trkpt>
      <trkpt lat="42.29479" lon="2.50303">
        <ele>638.523</ele>
        <time>2011-04-02T06:32:13Z</time>
      </trkpt>
      <trkpt lat="42.2948" lon="2.50304">
        <ele>642.367</ele>
        <time>2011-04-02T06:32:15Z</time>
      </trkpt>
      <trkpt lat="42.29481" lon="2.50304">
        <ele>638.58</ele>
        <time>2011-04-02T06:32:16Z</time>
      </trkpt>
      <trkpt lat="42.29481" lon="2.50304">
        <ele>638.919</ele>
        <time>2011-04-02T06:32:17Z</time>
      </trkpt>
      <trkpt lat="42.29482" lon="2.50304">
        <ele>641.376</ele>
        <time>2011-04-02T06:32:19Z</time>
      </trkpt>
      <trkpt lat="42.29496" lon="2.50309">
        <ele>638.584</ele>
        <time>2011-04-02T06:32:31Z</time>
      </trkpt>
      <trkpt lat="42.29503" lon="2.50312">
        <ele>638.557</ele>
        <time>2011-04-02T06:32:36Z</time>
      </trkpt>
      <trkpt lat="42.29508" lon="2.50308">
        <ele>638.064</ele>
        <time>2011-04-02T06:32:41Z</time>
      </trkpt>
      <trkpt lat="42.29517" lon="2.50306">
        <ele>638.006</ele>
        <time>2011-04-02T06:32:50Z</time>
      </trkpt>
      <trkpt lat="42.29519" lon="2.50306">
        <ele>640.416</ele>
        <time>2011-04-02T06:32:52Z</time>
      </trkpt>
      <trkpt lat="42.29523" lon="2.50304">
        <ele>636.107</ele>
        <time>2011-04-02T06:32:56Z</time>
      </trkpt>
      <trkpt lat="42.29525" lon="2.50304">
        <ele>637.047</ele>
        <time>2011-04-02T06:32:57Z</time>
      </trkpt>
      <trkpt lat="42.29528" lon="2.50303">
        <ele>638.511</ele>
        <time>2011-04-02T06:33:00Z</time>
      </trkpt>
      <trkpt lat="42.2953" lon="2.50303">
        <ele>637.514</ele>
        <time>2011-04-02T06:33:02Z</time>
      </trkpt>
      <trkpt lat="42.29534" lon="2.50307">
        <ele>638.533</ele>
        <time>2011-04-02T06:33:06Z</time>
      </trkpt>
      <trkpt lat="42.29539" lon="2.50316">
        <ele>636.51</ele>
        <time>2011-04-02T06:33:13Z</time>
      </trkpt>
      <trkpt lat="42.29541" lon="2.50319">
        <ele>636.538</ele>
        <time>2011-04-02T06:33:18Z</time>
      </trkpt>
      <trkpt lat="42.29547" lon="2.50326">
        <ele>633.751</ele>
        <time>2011-04-02T06:33:25Z</time>
      </trkpt>
      <trkpt lat="42.29555" lon="2.50334">
        <ele>633.243</ele>
        <time>2011-04-02T06:33:33Z</time>
      </trkpt>
      <trkpt lat="42.29567" lon="2.50331">
        <ele>633.764</ele>
        <time>2011-04-02T06:33:47Z</time>
      </trkpt>
      <trkpt lat="42.29567" lon="2.50331">
        <ele>633.71</ele>
        <time>2011-04-02T06:33:48Z</time>
      </trkpt>
      <trkpt lat="42.29574" lon="2.5034">
        <ele>626.907</ele>
        <time>2011-04-02T06:33:58Z</time>
      </trkpt>
      <trkpt lat="42.29575" lon="2.50341">
        <ele>632.215</ele>
        <time>2011-04-02T06:33:59Z</time>
      </trkpt>
      <trkpt lat="42.29577" lon="2.50343">
        <ele>628.869</ele>
        <time>2011-04-02T06:34:02Z</time>
      </trkpt>
      <trkpt lat="42.29582" lon="2.50345">
        <ele>631.262</ele>
        <time>2011-04-02T06:34:07Z</time>
      </trkpt>
      <trkpt lat="42.29587" lon="2.50347">
        <ele>630.811</ele>
        <time>2011-04-02T06:34:11Z</time>
      </trkpt>
      <trkpt lat="42.2959" lon="2.50346">
        <ele>633.218</ele>
        <time>2011-04-02T06:34:13Z</time>
      </trkpt>
      <trkpt lat="42.29596" lon="2.50346">
        <ele>631.226</ele>
        <time>2011-04-02T06:34:18Z</time>
      </trkpt>
      <trkpt lat="42.29599" lon="2.5035">
        <ele>627.499</ele>
        <time>2011-04-02T06:34:21Z</time>
      </trkpt>
      <trkpt lat="42.296" lon="2.50351">
        <ele>631.298</ele>
        <time>2011-04-02T06:34:22Z</time>
      </trkpt>
      <trkpt lat="42.29607" lon="2.50358">
        <ele>631.715</ele>
        <time>2011-04-02T06:34:28Z</time>
      </trkpt>
      <trkpt lat="42.29617" lon="2.50361">
        <ele>631.226</ele>
        <time>2011-04-02T06:34:37Z</time>
      </trkpt>
      <trkpt lat="42.29627" lon="2.50367">
        <ele>631.707</ele>
        <time>2011-04-02T06:34:45Z</time>
      </trkpt>
      <trkpt lat="42.29634" lon="2.50369">
        <ele>631.76</ele>
        <time>2011-04-02T06:34:50Z</time>
      </trkpt>
      <trkpt lat="42.29647" lon="2.5038">
        <ele>630.814</ele>
        <time>2011-04-02T06:35:00Z</time>
      </trkpt>
      <trkpt lat="42.2966" lon="2.50391">
        <ele>629.357</ele>
        <time>2011-04-02T06:35:11Z</time>
      </trkpt>
      <trkpt lat="42.29665" lon="2.50391">
        <ele>632.276</ele>
        <time>2011-04-02T06:35:14Z</time>
      </trkpt>
      <trkpt lat="42.29673" lon="2.50391">
        <ele>631.223</ele>
        <time>2011-04-02T06:35:27Z</time>
      </trkpt>
      <trkpt lat="42.29676" lon="2.50391">
        <ele>629.871</ele>
        <time>2011-04-02T06:35:31Z</time>
      </trkpt>
      <trkpt lat="42.2968" lon="2.5039">
        <ele>631.774</ele>
        <time>2011-04-02T06:35:34Z</time>
      </trkpt>
      <trkpt lat="42.29684" lon="2.50388">
        <ele>630.338</ele>
        <time>2011-04-02T06:35:37Z</time>
      </trkpt>
      <trkpt lat="42.29693" lon="2.50386">
        <ele>631.77</ele>
        <time>2011-04-02T06:35:47Z</time>
      </trkpt>
      <trkpt lat="42.29694" lon="2.50386">
        <ele>629.817</ele>
        <time>2011-04-02T06:35:48Z</time>
      </trkpt>
      <trkpt lat="42.29702" lon="2.50381">
        <ele>628.407</ele>
        <time>2011-04-02T06:35:57Z</time>
      </trkpt>
      <trkpt lat="42.29718" lon="2.50386">
        <ele>629.824</ele>
        <time>2011-04-02T06:36:09Z</time>
      </trkpt>
      <trkpt lat="42.29734" lon="2.50389">
        <ele>629.838</ele>
        <time>2011-04-02T06:36:20Z</time>
      </trkpt>
      <trkpt lat="42.29744" lon="2.50387">
        <ele>631.731</ele>
        <time>2011-04-02T06:36:27Z</time>
      </trkpt>
      <trkpt lat="42.29754" lon="2.50385">
        <ele>629.37</ele>
        <time>2011-04-02T06:36:39Z</time>
      </trkpt>
      <trkpt lat="42.29761" lon="2.50381">
        <ele>628.447</ele>
        <time>2011-04-02T06:36:45Z</time>
      </trkpt>
      <trkpt lat="42.29767" lon="2.5038">
        <ele>630.395</ele>
        <time>2011-04-02T06:36:50Z</time>
      </trkpt>
      <trkpt lat="42.29768" lon="2.5038">
        <ele>629.338</ele>
        <time>2011-04-02T06:36:51Z</time>
      </trkpt>
      <trkpt lat="42.29773" lon="2.5038">
        <ele>628.444</ele>
        <time>2011-04-02T06:36:55Z</time>
      </trkpt>
      <trkpt lat="42.29785" lon="2.50381">
        <ele>628.405</ele>
        <time>2011-04-02T06:37:09Z</time>
      </trkpt>
      <trkpt lat="42.29787" lon="2.50382">
        <ele>628.415</ele>
        <time>2011-04-02T06:37:11Z</time>
      </trkpt>
      <trkpt lat="42.298" lon="2.50387">
        <ele>628.407</ele>
        <time>2011-04-02T06:37:19Z</time>
      </trkpt>
      <trkpt lat="42.29805" lon="2.50389">
        <ele>627.975</ele>
        <time>2011-04-02T06:37:23Z</time>
      </trkpt>
      <trkpt lat="42.29815" lon="2.50386">
        <ele>628.419</ele>
        <time>2011-04-02T06:37:32Z</time>
      </trkpt>
      <trkpt lat="42.29822" lon="2.50385">
        <ele>627.952</ele>
        <time>2011-04-02T06:37:38Z</time>
      </trkpt>
      <trkpt lat="42.29833" lon="2.50387">
        <ele>629.851</ele>
        <time>2011-04-02T06:37:45Z</time>
      </trkpt>
      <trkpt lat="42.2984" lon="2.50388">
        <ele>628.838</ele>
        <time>2011-04-02T06:37:51Z</time>
      </trkpt>
      <trkpt lat="42.29847" lon="2.5039">
        <ele>627.476</ele>
        <time>2011-04-02T06:37:56Z</time>
      </trkpt>
      <trkpt lat="42.2986" lon="2.50388">
        <ele>628.849</ele>
        <time>2011-04-02T06:38:04Z</time>
      </trkpt>
      <trkpt lat="42.29865" lon="2.50387">
        <ele>627.978</ele>
        <time>2011-04-02T06:38:08Z</time>
      </trkpt>
      <trkpt lat="42.29866" lon="2.50386">
        <ele>627.433</ele>
        <time>2011-04-02T06:38:10Z</time>
      </trkpt>
      <trkpt lat="42.29869" lon="2.50379">
        <ele>628.426</ele>
        <time>2011-04-02T06:38:15Z</time>
      </trkpt>
      <trkpt lat="42.29875" lon="2.50373">
        <ele>627.907</ele>
        <time>2011-04-02T06:38:22Z</time>
      </trkpt>
      <trkpt lat="42.29886" lon="2.50362">
        <ele>624.518</ele>
        <time>2011-04-02T06:38:31Z</time>
      </trkpt>
      <trkpt lat="42.29891" lon="2.50344">
        <ele>623.662</ele>
        <time>2011-04-02T06:38:42Z</time>
      </trkpt>
      <trkpt lat="42.29895" lon="2.50338">
        <ele>623.135</ele>
        <time>2011-04-02T06:38:47Z</time>
      </trkpt>
      <trkpt lat="42.29897" lon="2.50329">
        <ele>621.634</ele>
        <time>2011-04-02T06:38:52Z</time>
      </trkpt>
      <trkpt lat="42.299" lon="2.5032">
        <ele>620.711</ele>
        <time>2011-04-02T06:38:59Z</time>
      </trkpt>
      <trkpt lat="42.29904" lon="2.50339">
        <ele>618.869</ele>
        <time>2011-04-02T06:39:11Z</time>
      </trkpt>
      <trkpt lat="42.29905" lon="2.50346">
        <ele>618.322</ele>
        <time>2011-04-02T06:39:15Z</time>
      </trkpt>
      <trkpt lat="42.29904" lon="2.50361">
        <ele>617.375</ele>
        <time>2011-04-02T06:39:23Z</time>
      </trkpt>
      <trkpt lat="42.29905" lon="2.50363">
        <ele>615.928</ele>
        <time>2011-04-02T06:39:25Z</time>
      </trkpt>
      <trkpt lat="42.29909" lon="2.50373">
        <ele>614.92</ele>
        <time>2011-04-02T06:39:32Z</time>
      </trkpt>
      <trkpt lat="42.29915" lon="2.50369">
        <ele>613.007</ele>
        <time>2011-04-02T06:39:42Z</time>
      </trkpt>
      <trkpt lat="42.29919" lon="2.5035">
        <ele>610.188</ele>
        <time>2011-04-02T06:39:56Z</time>
      </trkpt>
      <trkpt lat="42.29923" lon="2.50342">
        <ele>609.192</ele>
        <time>2011-04-02T06:40:03Z</time>
      </trkpt>
      <trkpt lat="42.29924" lon="2.50338">
        <ele>608.255</ele>
        <time>2011-04-02T06:40:06Z</time>
      </trkpt>
      <trkpt lat="42.29927" lon="2.50328">
        <ele>607.214</ele>
        <time>2011-04-02T06:40:13Z</time>
      </trkpt>
      <trkpt lat="42.29934" lon="2.50313">
        <ele>605.391</ele>
        <time>2011-04-02T06:40:25Z</time>
      </trkpt>
      <trkpt lat="42.29941" lon="2.50307">
        <ele>603.469</ele>
        <time>2011-04-02T06:40:38Z</time>
      </trkpt>
      <trkpt lat="42.29944" lon="2.50309">
        <ele>601.962</ele>
        <time>2011-04-02T06:40:41Z</time>
      </trkpt>
      <trkpt lat="42.29946" lon="2.5031">
        <ele>601.496</ele>
        <time>2011-04-02T06:40:42Z</time>
      </trkpt>
      <trkpt lat="42.29949" lon="2.50319">
        <ele>598.131</ele>
        <time>2011-04-02T06:40:50Z</time>
      </trkpt>
      <trkpt lat="42.29952" lon="2.50326">
        <ele>601.924</ele>
        <time>2011-04-02T06:40:54Z</time>
      </trkpt>
      <trkpt lat="42.29952" lon="2.50328">
        <ele>598.607</ele>
        <time>2011-04-02T06:40:55Z</time>
      </trkpt>
      <trkpt lat="42.29953" lon="2.50331">
        <ele>599.09</ele>
        <time>2011-04-02T06:40:57Z</time>
      </trkpt>
      <trkpt lat="42.29956" lon="2.5034">
        <ele>598.174</ele>
        <time>2011-04-02T06:41:05Z</time>
      </trkpt>
      <trkpt lat="42.29958" lon="2.50346">
        <ele>596.657</ele>
        <time>2011-04-02T06:41:12Z</time>
      </trkpt>
      <trkpt lat="42.29958" lon="2.50348">
        <ele>595.756</ele>
        <time>2011-04-02T06:41:15Z</time>
      </trkpt>
      <trkpt lat="42.29964" lon="2.50358">
        <ele>594.263</ele>
        <time>2011-04-02T06:41:24Z</time>
      </trkpt>
      <trkpt lat="42.29975" lon="2.50367">
        <ele>593.311</ele>
        <time>2011-04-02T06:41:33Z</time>
      </trkpt>
      <trkpt lat="42.2998" lon="2.50381">
        <ele>591.864</ele>
        <time>2011-04-02T06:41:46Z</time>
      </trkpt>
      <trkpt lat="42.2998" lon="2.50371">
        <ele>589.943</ele>
        <time>2011-04-02T06:41:57Z</time>
      </trkpt>
      <trkpt lat="42.2998" lon="2.5037">
        <ele>589.064</ele>
        <time>2011-04-02T06:41:59Z</time>
      </trkpt>
      <trkpt lat="42.29977" lon="2.50357">
        <ele>586.51</ele>
        <time>2011-04-02T06:42:14Z</time>
      </trkpt>
      <trkpt lat="42.29977" lon="2.5034">
        <ele>585.107</ele>
        <time>2011-04-02T06:42:26Z</time>
      </trkpt>
      <trkpt lat="42.29978" lon="2.50339">
        <ele>583.765</ele>
        <time>2011-04-02T06:42:27Z</time>
      </trkpt>
      <trkpt lat="42.2998" lon="2.50332">
        <ele>581.349</ele>
        <time>2011-04-02T06:42:41Z</time>
      </trkpt>
      <trkpt lat="42.29985" lon="2.5033">
        <ele>579.322</ele>
        <time>2011-04-02T06:42:55Z</time>
      </trkpt>
      <trkpt lat="42.29986" lon="2.50331">
        <ele>579.831</ele>
        <time>2011-04-02T06:42:56Z</time>
      </trkpt>
      <trkpt lat="42.29989" lon="2.50334">
        <ele>577.488</ele>
        <time>2011-04-02T06:42:59Z</time>
      </trkpt>
      <trkpt lat="42.29999" lon="2.50341">
        <ele>576.536</ele>
        <time>2011-04-02T06:43:11Z</time>
      </trkpt>
      <trkpt lat="42.30001" lon="2.50341">
        <ele>575.549</ele>
        <time>2011-04-02T06:43:14Z</time>
      </trkpt>
      <trkpt lat="42.30002" lon="2.50341">
        <ele>575.542</ele>
        <time>2011-04-02T06:43:15Z</time>
      </trkpt>
      <trkpt lat="42.30019" lon="2.50348">
        <ele>574.022</ele>
        <time>2011-04-02T06:43:28Z</time>
      </trkpt>
      <trkpt lat="42.30031" lon="2.5035">
        <ele>571.214</ele>
        <time>2011-04-02T06:43:43Z</time>
      </trkpt>
      <trkpt lat="42.30037" lon="2.5035">
        <ele>570.207</ele>
        <time>2011-04-02T06:43:47Z</time>
      </trkpt>
      <trkpt lat="42.3005" lon="2.50345">
        <ele>566.495</ele>
        <time>2011-04-02T06:44:02Z</time>
      </trkpt>
      <trkpt lat="42.30051" lon="2.50343">
        <ele>566.469</ele>
        <time>2011-04-02T06:44:03Z</time>
      </trkpt>
      <trkpt lat="42.30057" lon="2.50334">
        <ele>565.432</ele>
        <time>2011-04-02T06:44:11Z</time>
      </trkpt>
      <trkpt lat="42.30059" lon="2.50329">
        <ele>564.911</ele>
        <time>2011-04-02T06:44:16Z</time>
      </trkpt>
      <trkpt lat="42.30065" lon="2.50329">
        <ele>563.598</ele>
        <time>2011-04-02T06:44:23Z</time>
      </trkpt>
      <trkpt lat="42.30079" lon="2.50343">
        <ele>561.636</ele>
        <time>2011-04-02T06:44:35Z</time>
      </trkpt>
      <trkpt lat="42.30089" lon="2.50361">
        <ele>559.699</ele>
        <time>2011-04-02T06:44:46Z</time>
      </trkpt>
      <trkpt lat="42.30094" lon="2.50368">
        <ele>558.237</ele>
        <time>2011-04-02T06:44:59Z</time>
      </trkpt>
      <trkpt lat="42.30095" lon="2.50369">
        <ele>556.349</ele>
        <time>2011-04-02T06:45:02Z</time>
      </trkpt>
      <trkpt lat="42.30103" lon="2.50383">
        <ele>554.813</ele>
        <time>2011-04-02T06:45:16Z</time>
      </trkpt>
      <trkpt lat="42.30106" lon="2.50389">
        <ele>553.907</ele>
        <time>2011-04-02T06:45:26Z</time>
      </trkpt>
      <trkpt lat="42.30114" lon="2.50396">
        <ele>551.584</ele>
        <time>2011-04-02T06:45:39Z</time>
      </trkpt>
      <trkpt lat="42.30117" lon="2.504">
        <ele>551.058</ele>
        <time>2011-04-02T06:45:47Z</time>
      </trkpt>
      <trkpt lat="42.30118" lon="2.504">
        <ele>549.511</ele>
        <time>2011-04-02T06:45:49Z</time>
      </trkpt>
      <trkpt lat="42.30129" lon="2.50413">
        <ele>547.14</ele>
        <time>2011-04-02T06:45:59Z</time>
      </trkpt>
      <trkpt lat="42.30132" lon="2.50417">
        <ele>546.737</ele>
        <time>2011-04-02T06:46:03Z</time>
      </trkpt>
      <trkpt lat="42.30128" lon="2.5042">
        <ele>544.285</ele>
        <time>2011-04-02T06:46:14Z</time>
      </trkpt>
      <trkpt lat="42.30128" lon="2.50421">
        <ele>544.268</ele>
        <time>2011-04-02T06:46:15Z</time>
      </trkpt>
      <trkpt lat="42.30133" lon="2.50434">
        <ele>541.869</ele>
        <time>2011-04-02T06:46:30Z</time>
      </trkpt>
      <trkpt lat="42.30139" lon="2.50446">
        <ele>539.004</ele>
        <time>2011-04-02T06:46:42Z</time>
      </trkpt>
      <trkpt lat="42.30142" lon="2.50455">
        <ele>538.024</ele>
        <time>2011-04-02T06:46:48Z</time>
      </trkpt>
      <trkpt lat="42.30143" lon="2.50457">
        <ele>536.607</ele>
        <time>2011-04-02T06:46:53Z</time>
      </trkpt>
      <trkpt lat="42.30144" lon="2.50458">
        <ele>535.657</ele>
        <time>2011-04-02T06:46:58Z</time>
      </trkpt>
      <trkpt lat="42.30147" lon="2.50464">
        <ele>534.221</ele>
        <time>2011-04-02T06:47:05Z</time>
      </trkpt>
      <trkpt lat="42.30151" lon="2.5047">
        <ele>532.764</ele>
        <time>2011-04-02T06:47:10Z</time>
      </trkpt>
      <trkpt lat="42.30154" lon="2.50476">
        <ele>532.733</ele>
        <time>2011-04-02T06:47:14Z</time>
      </trkpt>
      <trkpt lat="42.30166" lon="2.50486">
        <ele>529.33</ele>
        <time>2011-04-02T06:47:26Z</time>
      </trkpt>
      <trkpt lat="42.30174" lon="2.50486">
        <ele>528.478</ele>
        <time>2011-04-02T06:47:35Z</time>
      </trkpt>
      <trkpt lat="42.30176" lon="2.50486">
        <ele>527.421</ele>
        <time>2011-04-02T06:47:37Z</time>
      </trkpt>
      <trkpt lat="42.30194" lon="2.50498">
        <ele>526.061</ele>
        <time>2011-04-02T06:47:52Z</time>
      </trkpt>
      <trkpt lat="42.30202" lon="2.50501">
        <ele>525.021</ele>
        <time>2011-04-02T06:48:01Z</time>
      </trkpt>
      <trkpt lat="42.30215" lon="2.505">
        <ele>523.613</ele>
        <time>2011-04-02T06:48:18Z</time>
      </trkpt>
      <trkpt lat="42.30222" lon="2.505">
        <ele>522.607</ele>
        <time>2011-04-02T06:48:24Z</time>
      </trkpt>
      <trkpt lat="42.30223" lon="2.50499">
        <ele>522.667</ele>
        <time>2011-04-02T06:48:25Z</time>
      </trkpt>
      <trkpt lat="42.30233" lon="2.50496">
        <ele>519.711</ele>
        <time>2011-04-02T06:48:33Z</time>
      </trkpt>
      <trkpt lat="42.30244" lon="2.50506">
        <ele>517.874</ele>
        <time>2011-04-02T06:48:46Z</time>
      </trkpt>
      <trkpt lat="42.30248" lon="2.50508">
        <ele>515.933</ele>
        <time>2011-04-02T06:48:50Z</time>
      </trkpt>
      <trkpt lat="42.30257" lon="2.50512">
        <ele>514.01</ele>
        <time>2011-04-02T06:49:02Z</time>
      </trkpt>
      <trkpt lat="42.30258" lon="2.50513">
        <ele>517.328</ele>
        <time>2011-04-02T06:49:03Z</time>
      </trkpt>
      <trkpt lat="42.30259" lon="2.50514">
        <ele>515.931</ele>
        <time>2011-04-02T06:49:04Z</time>
      </trkpt>
      <trkpt lat="42.3026" lon="2.50515">
        <ele>513.077</ele>
        <time>2011-04-02T06:49:06Z</time>
      </trkpt>
      <trkpt lat="42.3027" lon="2.50516">
        <ele>512.561</ele>
        <time>2011-04-02T06:49:23Z</time>
      </trkpt>
      <trkpt lat="42.30271" lon="2.50517">
        <ele>509.227</ele>
        <time>2011-04-02T06:49:25Z</time>
      </trkpt>
      <trkpt lat="42.30272" lon="2.50518">
        <ele>509.207</ele>
        <time>2011-04-02T06:49:26Z</time>
      </trkpt>
      <trkpt lat="42.30273" lon="2.50518">
        <ele>512.558</ele>
        <time>2011-04-02T06:49:27Z</time>
      </trkpt>
      <trkpt lat="42.30274" lon="2.50519">
        <ele>512.512</ele>
        <time>2011-04-02T06:49:28Z</time>
      </trkpt>
      <trkpt lat="42.30277" lon="2.50522">
        <ele>508.295</ele>
        <time>2011-04-02T06:49:32Z</time>
      </trkpt>
      <trkpt lat="42.30278" lon="2.50522">
        <ele>511.624</ele>
        <time>2011-04-02T06:49:33Z</time>
      </trkpt>
      <trkpt lat="42.30282" lon="2.50521">
        <ele>506.341</ele>
        <time>2011-04-02T06:49:39Z</time>
      </trkpt>
      <trkpt lat="42.30282" lon="2.5052">
        <ele>506.389</ele>
        <time>2011-04-02T06:49:40Z</time>
      </trkpt>
      <trkpt lat="42.30283" lon="2.5052">
        <ele>511.612</ele>
        <time>2011-04-02T06:49:41Z</time>
      </trkpt>
      <trkpt lat="42.30283" lon="2.5052">
        <ele>510.632</ele>
        <time>2011-04-02T06:49:42Z</time>
      </trkpt>
      <trkpt lat="42.30287" lon="2.50523">
        <ele>506.892</ele>
        <time>2011-04-02T06:49:49Z</time>
      </trkpt>
      <trkpt lat="42.30288" lon="2.50524">
        <ele>510.111</ele>
        <time>2011-04-02T06:49:50Z</time>
      </trkpt>
      <trkpt lat="42.3029" lon="2.50527">
        <ele>507.207</ele>
        <time>2011-04-02T06:49:53Z</time>
      </trkpt>
      <trkpt lat="42.30295" lon="2.50535">
        <ele>504.834</ele>
        <time>2011-04-02T06:50:01Z</time>
      </trkpt>
      <trkpt lat="42.30298" lon="2.50535">
        <ele>507.288</ele>
        <time>2011-04-02T06:50:05Z</time>
      </trkpt>
      <trkpt lat="42.303" lon="2.50534">
        <ele>503.931</ele>
        <time>2011-04-02T06:50:07Z</time>
      </trkpt>
      <trkpt lat="42.30305" lon="2.50533">
        <ele>503.95</ele>
        <time>2011-04-02T06:50:14Z</time>
      </trkpt>
      <trkpt lat="42.30314" lon="2.50535">
        <ele>498.187</ele>
        <time>2011-04-02T06:50:27Z</time>
      </trkpt>
      <trkpt lat="42.30315" lon="2.50536">
        <ele>501.095</ele>
        <time>2011-04-02T06:50:28Z</time>
      </trkpt>
      <trkpt lat="42.30323" lon="2.50537">
        <ele>500.548</ele>
        <time>2011-04-02T06:50:34Z</time>
      </trkpt>
      <trkpt lat="42.30329" lon="2.50537">
        <ele>496.718</ele>
        <time>2011-04-02T06:50:39Z</time>
      </trkpt>
      <trkpt lat="42.30332" lon="2.50538">
        <ele>496.798</ele>
        <time>2011-04-02T06:50:41Z</time>
      </trkpt>
      <trkpt lat="42.30345" lon="2.50541">
        <ele>495.717</ele>
        <time>2011-04-02T06:50:52Z</time>
      </trkpt>
      <trkpt lat="42.30347" lon="2.50542">
        <ele>493.807</ele>
        <time>2011-04-02T06:50:58Z</time>
      </trkpt>
      <trkpt lat="42.30348" lon="2.50543">
        <ele>496.232</ele>
        <time>2011-04-02T06:51:03Z</time>
      </trkpt>
      <trkpt lat="42.3035" lon="2.50544">
        <ele>494.756</ele>
        <time>2011-04-02T06:51:08Z</time>
      </trkpt>
      <trkpt lat="42.30352" lon="2.50547">
        <ele>493.359</ele>
        <time>2011-04-02T06:51:21Z</time>
      </trkpt>
      <trkpt lat="42.30353" lon="2.50549">
        <ele>493.848</ele>
        <time>2011-04-02T06:51:25Z</time>
      </trkpt>
      <trkpt lat="42.30357" lon="2.50552">
        <ele>491.435</ele>
        <time>2011-04-02T06:51:29Z</time>
      </trkpt>
      <trkpt lat="42.30358" lon="2.50553">
        <ele>491.983</ele>
        <time>2011-04-02T06:51:30Z</time>
      </trkpt>
      <trkpt lat="42.30359" lon="2.50555">
        <ele>489.946</ele>
        <time>2011-04-02T06:51:32Z</time>
      </trkpt>
      <trkpt lat="42.3036" lon="2.50556">
        <ele>489.911</ele>
        <time>2011-04-02T06:51:33Z</time>
      </trkpt>
      <trkpt lat="42.30363" lon="2.50561">
        <ele>489.521</ele>
        <time>2011-04-02T06:51:42Z</time>
      </trkpt>
      <trkpt lat="42.30363" lon="2.50561">
        <ele>492.803</ele>
        <time>2011-04-02T06:51:45Z</time>
      </trkpt>
      <trkpt lat="42.30364" lon="2.5056">
        <ele>488.507</ele>
        <time>2011-04-02T06:51:47Z</time>
      </trkpt>
      <trkpt lat="42.3037" lon="2.50565">
        <ele>489.022</ele>
        <time>2011-04-02T06:51:57Z</time>
      </trkpt>
      <trkpt lat="42.30372" lon="2.50566">
        <ele>487.536</ele>
        <time>2011-04-02T06:52:00Z</time>
      </trkpt>
      <trkpt lat="42.30373" lon="2.50566">
        <ele>485.159</ele>
        <time>2011-04-02T06:52:02Z</time>
      </trkpt>
      <trkpt lat="42.30374" lon="2.50566">
        <ele>488.028</ele>
        <time>2011-04-02T06:52:03Z</time>
      </trkpt>
      <trkpt lat="42.30386" lon="2.50573">
        <ele>485.185</ele>
        <time>2011-04-02T06:52:15Z</time>
      </trkpt>
      <trkpt lat="42.30395" lon="2.50583">
        <ele>488.033</ele>
        <time>2011-04-02T06:52:22Z</time>
      </trkpt>
      <trkpt lat="42.30399" lon="2.50591">
        <ele>485.136</ele>
        <time>2011-04-02T06:52:27Z</time>
      </trkpt>
      <trkpt lat="42.30411" lon="2.50609">
        <ele>481.835</ele>
        <time>2011-04-02T06:52:42Z</time>
      </trkpt>
      <trkpt lat="42.30412" lon="2.5061">
        <ele>481.886</ele>
        <time>2011-04-02T06:52:43Z</time>
      </trkpt>
      <trkpt lat="42.3042" lon="2.50618">
        <ele>478.414</ele>
        <time>2011-04-02T06:52:51Z</time>
      </trkpt>
      <trkpt lat="42.30427" lon="2.50623">
        <ele>478.907</ele>
        <time>2011-04-02T06:52:57Z</time>
      </trkpt>
      <trkpt lat="42.30431" lon="2.50626">
        <ele>480.884</ele>
        <time>2011-04-02T06:53:00Z</time>
      </trkpt>
      <trkpt lat="42.30448" lon="2.50638">
        <ele>478.488</ele>
        <time>2011-04-02T06:53:14Z</time>
      </trkpt>
      <trkpt lat="42.3046" lon="2.50631">
        <ele>475.581</ele>
        <time>2011-04-02T06:53:25Z</time>
      </trkpt>
      <trkpt lat="42.30483" lon="2.50623">
        <ele>476.07</ele>
        <time>2011-04-02T06:53:36Z</time>
      </trkpt>
      <trkpt lat="42.30496" lon="2.50624">
        <ele>472.687</ele>
        <time>2011-04-02T06:53:41Z</time>
      </trkpt>
      <trkpt lat="42.30498" lon="2.50625">
        <ele>477.415</ele>
        <time>2011-04-02T06:53:42Z</time>
      </trkpt>
      <trkpt lat="42.30503" lon="2.50627">
        <ele>474.178</ele>
        <time>2011-04-02T06:53:44Z</time>
      </trkpt>
      <trkpt lat="42.30511" lon="2.50638">
        <ele>470.761</ele>
        <time>2011-04-02T06:53:48Z</time>
      </trkpt>
      <trkpt lat="42.30512" lon="2.50641">
        <ele>471.221</ele>
        <time>2011-04-02T06:53:49Z</time>
      </trkpt>
      <trkpt lat="42.30508" lon="2.50653">
        <ele>471.713</ele>
        <time>2011-04-02T06:53:53Z</time>
      </trkpt>
      <trkpt lat="42.30498" lon="2.5066">
        <ele>471.707</ele>
        <time>2011-04-02T06:53:57Z</time>
      </trkpt>
      <trkpt lat="42.305" lon="2.5067">
        <ele>466.997</ele>
        <time>2011-04-02T06:54:04Z</time>
      </trkpt>
      <trkpt lat="42.30502" lon="2.50671">
        <ele>467.851</ele>
        <time>2011-04-02T06:54:05Z</time>
      </trkpt>
      <trkpt lat="42.3051" lon="2.50668">
        <ele>463.594</ele>
        <time>2011-04-02T06:54:10Z</time>
      </trkpt>
      <trkpt lat="42.30514" lon="2.50665">
        <ele>465.463</ele>
        <time>2011-04-02T06:54:12Z</time>
      </trkpt>
      <trkpt lat="42.30522" lon="2.50658">
        <ele>465.49</ele>
        <time>2011-04-02T06:54:16Z</time>
      </trkpt>
      <trkpt lat="42.30525" lon="2.50654">
        <ele>467.878</ele>
        <time>2011-04-02T06:54:18Z</time>
      </trkpt>
      <trkpt lat="42.30527" lon="2.50652">
        <ele>463.031</ele>
        <time>2011-04-02T06:54:19Z</time>
      </trkpt>
      <trkpt lat="42.30529" lon="2.5065">
        <ele>465.957</ele>
        <time>2011-04-02T06:54:20Z</time>
      </trkpt>
      <trkpt lat="42.30542" lon="2.50634">
        <ele>463.5</ele>
        <time>2011-04-02T06:54:28Z</time>
      </trkpt>
      <trkpt lat="42.30548" lon="2.50626">
        <ele>464.92</ele>
        <time>2011-04-02T06:54:31Z</time>
      </trkpt>
      <trkpt lat="42.3055" lon="2.50623">
        <ele>464.007</ele>
        <time>2011-04-02T06:54:32Z</time>
      </trkpt>
      <trkpt lat="42.30562" lon="2.50613">
        <ele>461.696</ele>
        <time>2011-04-02T06:54:38Z</time>
      </trkpt>
      <trkpt lat="42.30593" lon="2.50615">
        <ele>458.21</ele>
        <time>2011-04-02T06:54:49Z</time>
      </trkpt>
      <trkpt lat="42.30626" lon="2.50626">
        <ele>457.773</ele>
        <time>2011-04-02T06:55:00Z</time>
      </trkpt>
      <trkpt lat="42.30632" lon="2.50643">
        <ele>456.382</ele>
        <time>2011-04-02T06:55:07Z</time>
      </trkpt>
      <trkpt lat="42.30639" lon="2.50653">
        <ele>452.449</ele>
        <time>2011-04-02T06:55:12Z</time>
      </trkpt>
      <trkpt lat="42.30641" lon="2.50657">
        <ele>456.327</ele>
        <time>2011-04-02T06:55:14Z</time>
      </trkpt>
      <trkpt lat="42.30643" lon="2.5066">
        <ele>456.39</ele>
        <time>2011-04-02T06:55:15Z</time>
      </trkpt>
      <trkpt lat="42.30653" lon="2.50674">
        <ele>451.569</ele>
        <time>2011-04-02T06:55:21Z</time>
      </trkpt>
      <trkpt lat="42.30654" lon="2.50676">
        <ele>451.004</ele>
        <time>2011-04-02T06:55:22Z</time>
      </trkpt>
      <trkpt lat="42.30668" lon="2.50704">
        <ele>449.124</ele>
        <time>2011-04-02T06:55:32Z</time>
      </trkpt>
      <trkpt lat="42.30672" lon="2.50705">
        <ele>450.507</ele>
        <time>2011-04-02T06:55:34Z</time>
      </trkpt>
      <trkpt lat="42.30676" lon="2.50703">
        <ele>447.297</ele>
        <time>2011-04-02T06:55:36Z</time>
      </trkpt>
      <trkpt lat="42.30677" lon="2.50702">
        <ele>452.011</ele>
        <time>2011-04-02T06:55:37Z</time>
      </trkpt>
      <trkpt lat="42.30679" lon="2.507">
        <ele>451.064</ele>
        <time>2011-04-02T06:55:38Z</time>
      </trkpt>
      <trkpt lat="42.30702" lon="2.50673">
        <ele>452.433</ele>
        <time>2011-04-02T06:55:52Z</time>
      </trkpt>
      <trkpt lat="42.30704" lon="2.50667">
        <ele>449.19</ele>
        <time>2011-04-02T06:55:54Z</time>
      </trkpt>
      <trkpt lat="42.30708" lon="2.50653">
        <ele>452.468</ele>
        <time>2011-04-02T06:55:59Z</time>
      </trkpt>
      <trkpt lat="42.3071" lon="2.50645">
        <ele>447.271</ele>
        <time>2011-04-02T06:56:02Z</time>
      </trkpt>
      <trkpt lat="42.30711" lon="2.50639">
        <ele>452.038</ele>
        <time>2011-04-02T06:56:04Z</time>
      </trkpt>
      <trkpt lat="42.30713" lon="2.50626">
        <ele>449.17</ele>
        <time>2011-04-02T06:56:08Z</time>
      </trkpt>
      <trkpt lat="42.30714" lon="2.50623">
        <ele>450.017</ele>
        <time>2011-04-02T06:56:09Z</time>
      </trkpt>
      <trkpt lat="42.30715" lon="2.50617">
        <ele>452.007</ele>
        <time>2011-04-02T06:56:11Z</time>
      </trkpt>
      <trkpt lat="42.30717" lon="2.50601">
        <ele>452.074</ele>
        <time>2011-04-02T06:56:16Z</time>
      </trkpt>
      <trkpt lat="42.30726" lon="2.50572">
        <ele>452.968</ele>
        <time>2011-04-02T06:56:28Z</time>
      </trkpt>
      <trkpt lat="42.30727" lon="2.50571">
        <ele>450.531</ele>
        <time>2011-04-02T06:56:29Z</time>
      </trkpt>
      <trkpt lat="42.3073" lon="2.50559">
        <ele>454.43</ele>
        <time>2011-04-02T06:56:34Z</time>
      </trkpt>
      <trkpt lat="42.30736" lon="2.50525">
        <ele>454.437</ele>
        <time>2011-04-02T06:56:46Z</time>
      </trkpt>
      <trkpt lat="42.30744" lon="2.50487">
        <ele>456.365</ele>
        <time>2011-04-02T06:56:58Z</time>
      </trkpt>
      <trkpt lat="42.3075" lon="2.50475">
        <ele>457.798</ele>
        <time>2011-04-02T06:57:03Z</time>
      </trkpt>
      <trkpt lat="42.30754" lon="2.5047">
        <ele>460.693</ele>
        <time>2011-04-02T06:57:06Z</time>
      </trkpt>
      <trkpt lat="42.30756" lon="2.50468">
        <ele>456.865</ele>
        <time>2011-04-02T06:57:07Z</time>
      </trkpt>
      <trkpt lat="42.30761" lon="2.50462">
        <ele>460.121</ele>
        <time>2011-04-02T06:57:11Z</time>
      </trkpt>
      <trkpt lat="42.30772" lon="2.50453">
        <ele>456.307</ele>
        <time>2011-04-02T06:57:17Z</time>
      </trkpt>
      <trkpt lat="42.30774" lon="2.5045">
        <ele>456.85</ele>
        <time>2011-04-02T06:57:18Z</time>
      </trkpt>
      <trkpt lat="42.30779" lon="2.50436">
        <ele>455.334</ele>
        <time>2011-04-02T06:57:22Z</time>
      </trkpt>
      <trkpt lat="42.30784" lon="2.50417">
        <ele>453.947</ele>
        <time>2011-04-02T06:57:27Z</time>
      </trkpt>
      <trkpt lat="42.30791" lon="2.50384">
        <ele>455.336</ele>
        <time>2011-04-02T06:57:37Z</time>
      </trkpt>
      <trkpt lat="42.3079" lon="2.5034">
        <ele>454.443</ele>
        <time>2011-04-02T06:57:51Z</time>
      </trkpt>
      <trkpt lat="42.30796" lon="2.50296">
        <ele>455.311</ele>
        <time>2011-04-02T06:58:04Z</time>
      </trkpt>
      <trkpt lat="42.30801" lon="2.50257">
        <ele>454.864</ele>
        <time>2011-04-02T06:58:15Z</time>
      </trkpt>
      <trkpt lat="42.308" lon="2.50227">
        <ele>455.323</ele>
        <time>2011-04-02T06:58:24Z</time>
      </trkpt>
      <trkpt lat="42.30803" lon="2.50214">
        <ele>453.483</ele>
        <time>2011-04-02T06:58:28Z</time>
      </trkpt>
      <trkpt lat="42.30809" lon="2.50195">
        <ele>457.711</ele>
        <time>2011-04-02T06:58:34Z</time>
      </trkpt>
      <trkpt lat="42.30809" lon="2.50192">
        <ele>452.407</ele>
        <time>2011-04-02T06:58:35Z</time>
      </trkpt>
      <trkpt lat="42.3081" lon="2.50185">
        <ele>458.783</ele>
        <time>2011-04-02T06:58:37Z</time>
      </trkpt>
      <trkpt lat="42.3081" lon="2.50182">
        <ele>454.427</ele>
        <time>2011-04-02T06:58:38Z</time>
      </trkpt>
      <trkpt lat="42.30811" lon="2.50167">
        <ele>457.26</ele>
        <time>2011-04-02T06:58:42Z</time>
      </trkpt>
      <trkpt lat="42.30811" lon="2.5016">
        <ele>454.439</ele>
        <time>2011-04-02T06:58:44Z</time>
      </trkpt>
      <trkpt lat="42.30811" lon="2.50156">
        <ele>458.256</ele>
        <time>2011-04-02T06:58:45Z</time>
      </trkpt>
      <trkpt lat="42.30811" lon="2.50152">
        <ele>458.294</ele>
        <time>2011-04-02T06:58:46Z</time>
      </trkpt>
      <trkpt lat="42.30811" lon="2.50149">
        <ele>454.817</ele>
        <time>2011-04-02T06:58:47Z</time>
      </trkpt>
      <trkpt lat="42.30811" lon="2.50145">
        <ele>455.346</ele>
        <time>2011-04-02T06:58:48Z</time>
      </trkpt>
      <trkpt lat="42.30812" lon="2.50135">
        <ele>457.788</ele>
        <time>2011-04-02T06:58:51Z</time>
      </trkpt>
      <trkpt lat="42.30815" lon="2.50101">
        <ele>455.816</ele>
        <time>2011-04-02T06:59:01Z</time>
      </trkpt>
      <trkpt lat="42.30824" lon="2.50056">
        <ele>459.707</ele>
        <time>2011-04-02T06:59:15Z</time>
      </trkpt>
      <trkpt lat="42.30826" lon="2.5005">
        <ele>456.375</ele>
        <time>2011-04-02T06:59:17Z</time>
      </trkpt>
      <trkpt lat="42.3083" lon="2.50036">
        <ele>459.719</ele>
        <time>2011-04-02T06:59:22Z</time>
      </trkpt>
      <trkpt lat="42.30834" lon="2.50017">
        <ele>461.152</ele>
        <time>2011-04-02T06:59:28Z</time>
      </trkpt>
      <trkpt lat="42.30837" lon="2.50001">
        <ele>464.931</ele>
        <time>2011-04-02T06:59:34Z</time>
      </trkpt>
      <trkpt lat="42.30843" lon="2.49961">
        <ele>464.968</ele>
        <time>2011-04-02T06:59:49Z</time>
      </trkpt>
      <trkpt lat="42.30845" lon="2.49925">
        <ele>467.356</ele>
        <time>2011-04-02T07:00:01Z</time>
      </trkpt>
      <trkpt lat="42.30846" lon="2.49922">
        <ele>462.599</ele>
        <time>2011-04-02T07:00:02Z</time>
      </trkpt>
      <trkpt lat="42.30847" lon="2.49919">
        <ele>465.449</ele>
        <time>2011-04-02T07:00:03Z</time>
      </trkpt>
      <trkpt lat="42.30854" lon="2.49899">
        <ele>468.302</ele>
        <time>2011-04-02T07:00:10Z</time>
      </trkpt>
      <trkpt lat="42.30855" lon="2.49896">
        <ele>468.322</ele>
        <time>2011-04-02T07:00:11Z</time>
      </trkpt>
      <trkpt lat="42.3087" lon="2.49861">
        <ele>472.107</ele>
        <time>2011-04-02T07:00:25Z</time>
      </trkpt>
      <trkpt lat="42.30876" lon="2.49822">
        <ele>472.685</ele>
        <time>2011-04-02T07:00:37Z</time>
      </trkpt>
      <trkpt lat="42.30877" lon="2.4981">
        <ele>469.789</ele>
        <time>2011-04-02T07:00:41Z</time>
      </trkpt>
      <trkpt lat="42.30872" lon="2.49778">
        <ele>468.392</ele>
        <time>2011-04-02T07:00:51Z</time>
      </trkpt>
      <trkpt lat="42.30866" lon="2.49764">
        <ele>466.931</ele>
        <time>2011-04-02T07:00:55Z</time>
      </trkpt>
      <trkpt lat="42.30861" lon="2.49747">
        <ele>464.038</ele>
        <time>2011-04-02T07:01:00Z</time>
      </trkpt>
      <trkpt lat="42.30866" lon="2.49711">
        <ele>460.166</ele>
        <time>2011-04-02T07:01:08Z</time>
      </trkpt>
      <trkpt lat="42.30866" lon="2.49708">
        <ele>463.529</ele>
        <time>2011-04-02T07:01:09Z</time>
      </trkpt>
      <trkpt lat="42.30876" lon="2.49668">
        <ele>463.527</ele>
        <time>2011-04-02T07:01:22Z</time>
      </trkpt>
      <trkpt lat="42.30889" lon="2.49662">
        <ele>462.168</ele>
        <time>2011-04-02T07:01:28Z</time>
      </trkpt>
      <trkpt lat="42.30899" lon="2.49657">
        <ele>463.514</ele>
        <time>2011-04-02T07:01:33Z</time>
      </trkpt>
      <trkpt lat="42.30901" lon="2.49651">
        <ele>462.107</ele>
        <time>2011-04-02T07:01:36Z</time>
      </trkpt>
      <trkpt lat="42.30897" lon="2.49646">
        <ele>466.443</ele>
        <time>2011-04-02T07:01:40Z</time>
      </trkpt>
      <trkpt lat="42.30896" lon="2.49644">
        <ele>464.987</ele>
        <time>2011-04-02T07:01:41Z</time>
      </trkpt>
      <trkpt lat="42.30891" lon="2.4963">
        <ele>466.97</ele>
        <time>2011-04-02T07:01:47Z</time>
      </trkpt>
      <trkpt lat="42.30888" lon="2.49611">
        <ele>467.349</ele>
        <time>2011-04-02T07:01:54Z</time>
      </trkpt>
      <trkpt lat="42.30884" lon="2.49574">
        <ele>469.756</ele>
        <time>2011-04-02T07:02:07Z</time>
      </trkpt>
      <trkpt lat="42.30884" lon="2.49548">
        <ele>469.314</ele>
        <time>2011-04-02T07:02:15Z</time>
      </trkpt>
      <trkpt lat="42.30884" lon="2.49542">
        <ele>470.767</ele>
        <time>2011-04-02T07:02:17Z</time>
      </trkpt>
      <trkpt lat="42.30884" lon="2.49511">
        <ele>472.663</ele>
        <time>2011-04-02T07:02:27Z</time>
      </trkpt>
      <trkpt lat="42.30886" lon="2.49478">
        <ele>473.644</ele>
        <time>2011-04-02T07:02:37Z</time>
      </trkpt>
      <trkpt lat="42.30879" lon="2.49446">
        <ele>472.118</ele>
        <time>2011-04-02T07:02:48Z</time>
      </trkpt>
      <trkpt lat="42.30873" lon="2.49426">
        <ele>476.007</ele>
        <time>2011-04-02T07:02:55Z</time>
      </trkpt>
      <trkpt lat="42.30872" lon="2.49423">
        <ele>472.677</ele>
        <time>2011-04-02T07:02:56Z</time>
      </trkpt>
      <trkpt lat="42.30868" lon="2.49408">
        <ele>476.011</ele>
        <time>2011-04-02T07:03:01Z</time>
      </trkpt>
      <trkpt lat="42.30865" lon="2.49396">
        <ele>476.064</ele>
        <time>2011-04-02T07:03:05Z</time>
      </trkpt>
      <trkpt lat="42.30861" lon="2.49356">
        <ele>479.883</ele>
        <time>2011-04-02T07:03:17Z</time>
      </trkpt>
      <trkpt lat="42.30853" lon="2.49319">
        <ele>475.52</ele>
        <time>2011-04-02T07:03:29Z</time>
      </trkpt>
      <trkpt lat="42.30851" lon="2.4931">
        <ele>479.828</ele>
        <time>2011-04-02T07:03:32Z</time>
      </trkpt>
      <trkpt lat="42.3085" lon="2.49306">
        <ele>478.991</ele>
        <time>2011-04-02T07:03:33Z</time>
      </trkpt>
      <trkpt lat="42.30846" lon="2.49283">
        <ele>475.049</ele>
        <time>2011-04-02T07:03:40Z</time>
      </trkpt>
      <trkpt lat="42.30845" lon="2.4928">
        <ele>475.502</ele>
        <time>2011-04-02T07:03:41Z</time>
      </trkpt>
      <trkpt lat="42.30845" lon="2.49273">
        <ele>477.922</ele>
        <time>2011-04-02T07:03:43Z</time>
      </trkpt>
      <trkpt lat="42.30845" lon="2.49262">
        <ele>476.507</ele>
        <time>2011-04-02T07:03:46Z</time>
      </trkpt>
      <trkpt lat="42.30847" lon="2.49244">
        <ele>480.355</ele>
        <time>2011-04-02T07:03:51Z</time>
      </trkpt>
      <trkpt lat="42.30849" lon="2.49234">
        <ele>477.049</ele>
        <time>2011-04-02T07:03:54Z</time>
      </trkpt>
      <trkpt lat="42.3085" lon="2.49196">
        <ele>478.912</ele>
        <time>2011-04-02T07:04:05Z</time>
      </trkpt>
      <trkpt lat="42.30848" lon="2.49151">
        <ele>480.311</ele>
        <time>2011-04-02T07:04:18Z</time>
      </trkpt>
      <trkpt lat="42.3085" lon="2.49137">
        <ele>476.558</ele>
        <time>2011-04-02T07:04:22Z</time>
      </trkpt>
      <trkpt lat="42.30851" lon="2.4913">
        <ele>480.336</ele>
        <time>2011-04-02T07:04:24Z</time>
      </trkpt>
      <trkpt lat="42.30851" lon="2.49127">
        <ele>477.929</ele>
        <time>2011-04-02T07:04:25Z</time>
      </trkpt>
      <trkpt lat="42.30859" lon="2.49076">
        <ele>479.451</ele>
        <time>2011-04-02T07:04:40Z</time>
      </trkpt>
      <trkpt lat="42.30865" lon="2.49067">
        <ele>481.301</ele>
        <time>2011-04-02T07:04:44Z</time>
      </trkpt>
      <trkpt lat="42.30871" lon="2.49059">
        <ele>481.811</ele>
        <time>2011-04-02T07:04:48Z</time>
      </trkpt>
      <trkpt lat="42.30896" lon="2.49028">
        <ele>482.207</ele>
        <time>2011-04-02T07:05:02Z</time>
      </trkpt>
      <trkpt lat="42.30916" lon="2.49009">
        <ele>485.626</ele>
        <time>2011-04-02T07:05:12Z</time>
      </trkpt>
      <trkpt lat="42.30918" lon="2.49007">
        <ele>482.28</ele>
        <time>2011-04-02T07:05:13Z</time>
      </trkpt>
      <trkpt lat="42.30928" lon="2.48996">
        <ele>483.293</ele>
        <time>2011-04-02T07:05:18Z</time>
      </trkpt>
      <trkpt lat="42.30956" lon="2.48974">
        <ele>484.242</ele>
        <time>2011-04-02T07:05:31Z</time>
      </trkpt>
      <trkpt lat="42.30966" lon="2.48958">
        <ele>484.699</ele>
        <time>2011-04-02T07:05:37Z</time>
      </trkpt>
      <trkpt lat="42.30979" lon="2.48932">
        <ele>483.237</ele>
        <time>2011-04-02T07:05:46Z</time>
      </trkpt>
      <trkpt lat="42.30993" lon="2.48915">
        <ele>483.21</ele>
        <time>2011-04-02T07:05:53Z</time>
      </trkpt>
      <trkpt lat="42.31011" lon="2.48874">
        <ele>483.281</ele>
        <time>2011-04-02T07:06:06Z</time>
      </trkpt>
      <trkpt lat="42.31023" lon="2.48855">
        <ele>484.661</ele>
        <time>2011-04-02T07:06:13Z</time>
      </trkpt>
      <trkpt lat="42.31042" lon="2.4884">
        <ele>488.017</ele>
        <time>2011-04-02T07:06:23Z</time>
      </trkpt>
      <trkpt lat="42.31055" lon="2.48821">
        <ele>491.907</ele>
        <time>2011-04-02T07:06:32Z</time>
      </trkpt>
      <trkpt lat="42.3106" lon="2.48815">
        <ele>488.519</ele>
        <time>2011-04-02T07:06:35Z</time>
      </trkpt>
      <trkpt lat="42.31064" lon="2.48809">
        <ele>491.943</ele>
        <time>2011-04-02T07:06:38Z</time>
      </trkpt>
      <trkpt lat="42.31066" lon="2.48807">
        <ele>488.566</ele>
        <time>2011-04-02T07:06:39Z</time>
      </trkpt>
      <trkpt lat="42.31071" lon="2.48803">
        <ele>492.335</ele>
        <time>2011-04-02T07:06:42Z</time>
      </trkpt>
      <trkpt lat="42.31072" lon="2.48802">
        <ele>489.022</ele>
        <time>2011-04-02T07:06:43Z</time>
      </trkpt>
      <trkpt lat="42.31081" lon="2.48799">
        <ele>493.88</ele>
        <time>2011-04-02T07:06:47Z</time>
      </trkpt>
      <trkpt lat="42.31093" lon="2.48799">
        <ele>491.963</ele>
        <time>2011-04-02T07:06:53Z</time>
      </trkpt>
      <trkpt lat="42.31123" lon="2.48811">
        <ele>492.827</ele>
        <time>2011-04-02T07:07:06Z</time>
      </trkpt>
      <trkpt lat="42.31144" lon="2.48819">
        <ele>494.768</ele>
        <time>2011-04-02T07:07:19Z</time>
      </trkpt>
      <trkpt lat="42.31149" lon="2.4882">
        <ele>490.914</ele>
        <time>2011-04-02T07:07:22Z</time>
      </trkpt>
      <trkpt lat="42.31154" lon="2.4882">
        <ele>495.207</ele>
        <time>2011-04-02T07:07:25Z</time>
      </trkpt>
      <trkpt lat="42.31159" lon="2.48821">
        <ele>491.963</ele>
        <time>2011-04-02T07:07:28Z</time>
      </trkpt>
      <trkpt lat="42.31162" lon="2.48822">
        <ele>489.997</ele>
        <time>2011-04-02T07:07:30Z</time>
      </trkpt>
      <trkpt lat="42.31165" lon="2.48822">
        <ele>492.82</ele>
        <time>2011-04-02T07:07:32Z</time>
      </trkpt>
      <trkpt lat="42.3117" lon="2.48821">
        <ele>489.059</ele>
        <time>2011-04-02T07:07:35Z</time>
      </trkpt>
      <trkpt lat="42.31173" lon="2.4882">
        <ele>493.346</ele>
        <time>2011-04-02T07:07:37Z</time>
      </trkpt>
      <trkpt lat="42.31175" lon="2.4882">
        <ele>492.864</ele>
        <time>2011-04-02T07:07:38Z</time>
      </trkpt>
      <trkpt lat="42.31208" lon="2.48799">
        <ele>492.327</ele>
        <time>2011-04-02T07:08:01Z</time>
      </trkpt>
      <trkpt lat="42.31226" lon="2.48778">
        <ele>492.377</ele>
        <time>2011-04-02T07:08:16Z</time>
      </trkpt>
      <trkpt lat="42.31237" lon="2.48767">
        <ele>491.461</ele>
        <time>2011-04-02T07:08:24Z</time>
      </trkpt>
      <trkpt lat="42.31239" lon="2.48764">
        <ele>492.827</ele>
        <time>2011-04-02T07:08:26Z</time>
      </trkpt>
      <trkpt lat="42.31254" lon="2.4874">
        <ele>492.807</ele>
        <time>2011-04-02T07:08:40Z</time>
      </trkpt>
      <trkpt lat="42.31255" lon="2.48738">
        <ele>496.768</ele>
        <time>2011-04-02T07:08:41Z</time>
      </trkpt>
      <trkpt lat="42.3126" lon="2.48731">
        <ele>491.482</ele>
        <time>2011-04-02T07:08:46Z</time>
      </trkpt>
      <trkpt lat="42.31261" lon="2.48729">
        <ele>492.895</ele>
        <time>2011-04-02T07:08:47Z</time>
      </trkpt>
      <trkpt lat="42.31263" lon="2.48726">
        <ele>497.674</ele>
        <time>2011-04-02T07:08:49Z</time>
      </trkpt>
      <trkpt lat="42.31264" lon="2.48725">
        <ele>493.341</ele>
        <time>2011-04-02T07:08:50Z</time>
      </trkpt>
      <trkpt lat="42.3127" lon="2.48714">
        <ele>497.159</ele>
        <time>2011-04-02T07:08:56Z</time>
      </trkpt>
      <trkpt lat="42.31271" lon="2.48713">
        <ele>493.382</ele>
        <time>2011-04-02T07:08:57Z</time>
      </trkpt>
      <trkpt lat="42.31274" lon="2.48706">
        <ele>496.234</ele>
        <time>2011-04-02T07:09:01Z</time>
      </trkpt>
      <trkpt lat="42.31278" lon="2.48699">
        <ele>491.955</ele>
        <time>2011-04-02T07:09:05Z</time>
      </trkpt>
      <trkpt lat="42.31279" lon="2.48697">
        <ele>495.71</ele>
        <time>2011-04-02T07:09:06Z</time>
      </trkpt>
      <trkpt lat="42.3128" lon="2.48695">
        <ele>495.707</ele>
        <time>2011-04-02T07:09:07Z</time>
      </trkpt>
      <trkpt lat="42.3129" lon="2.48677">
        <ele>492.354</ele>
        <time>2011-04-02T07:09:17Z</time>
      </trkpt>
      <trkpt lat="42.31292" lon="2.48673">
        <ele>496.758</ele>
        <time>2011-04-02T07:09:19Z</time>
      </trkpt>
      <trkpt lat="42.31293" lon="2.48672">
        <ele>495.721</ele>
        <time>2011-04-02T07:09:20Z</time>
      </trkpt>
      <trkpt lat="42.31306" lon="2.48649">
        <ele>499.12</ele>
        <time>2011-04-02T07:09:32Z</time>
      </trkpt>
      <trkpt lat="42.31307" lon="2.48647">
        <ele>494.717</ele>
        <time>2011-04-02T07:09:33Z</time>
      </trkpt>
      <trkpt lat="42.31308" lon="2.48645">
        <ele>500.015</ele>
        <time>2011-04-02T07:09:34Z</time>
      </trkpt>
      <trkpt lat="42.31309" lon="2.48643">
        <ele>495.248</ele>
        <time>2011-04-02T07:09:35Z</time>
      </trkpt>
      <trkpt lat="42.31316" lon="2.48629">
        <ele>497.124</ele>
        <time>2011-04-02T07:09:43Z</time>
      </trkpt>
      <trkpt lat="42.31324" lon="2.48612">
        <ele>499.104</ele>
        <time>2011-04-02T07:09:52Z</time>
      </trkpt>
      <trkpt lat="42.31327" lon="2.48606">
        <ele>495.714</ele>
        <time>2011-04-02T07:09:55Z</time>
      </trkpt>
      <trkpt lat="42.3133" lon="2.48601">
        <ele>498.607</ele>
        <time>2011-04-02T07:09:58Z</time>
      </trkpt>
      <trkpt lat="42.31334" lon="2.48596">
        <ele>495.223</ele>
        <time>2011-04-02T07:10:01Z</time>
      </trkpt>
      <trkpt lat="42.31337" lon="2.4859">
        <ele>501.527</ele>
        <time>2011-04-02T07:10:04Z</time>
      </trkpt>
      <trkpt lat="42.31338" lon="2.48588">
        <ele>500.51</ele>
        <time>2011-04-02T07:10:05Z</time>
      </trkpt>
      <trkpt lat="42.31341" lon="2.48583">
        <ele>497.179</ele>
        <time>2011-04-02T07:10:08Z</time>
      </trkpt>
      <trkpt lat="42.31352" lon="2.48568">
        <ele>500.566</ele>
        <time>2011-04-02T07:10:17Z</time>
      </trkpt>
      <trkpt lat="42.31355" lon="2.48563">
        <ele>495.764</ele>
        <time>2011-04-02T07:10:20Z</time>
      </trkpt>
      <trkpt lat="42.31359" lon="2.48559">
        <ele>499.567</ele>
        <time>2011-04-02T07:10:23Z</time>
      </trkpt>
      <trkpt lat="42.31361" lon="2.48558">
        <ele>499.553</ele>
        <time>2011-04-02T07:10:24Z</time>
      </trkpt>
      <trkpt lat="42.31368" lon="2.48553">
        <ele>496.204</ele>
        <time>2011-04-02T07:10:29Z</time>
      </trkpt>
      <trkpt lat="42.31373" lon="2.4855">
        <ele>502.014</ele>
        <time>2011-04-02T07:10:32Z</time>
      </trkpt>
      <trkpt lat="42.31374" lon="2.48549">
        <ele>502.007</ele>
        <time>2011-04-02T07:10:33Z</time>
      </trkpt>
      <trkpt lat="42.31379" lon="2.48548">
        <ele>495.256</ele>
        <time>2011-04-02T07:10:36Z</time>
      </trkpt>
      <trkpt lat="42.31381" lon="2.48547">
        <ele>498.12</ele>
        <time>2011-04-02T07:10:37Z</time>
      </trkpt>
      <trkpt lat="42.31385" lon="2.48547">
        <ele>500.523</ele>
        <time>2011-04-02T07:10:39Z</time>
      </trkpt>
      <trkpt lat="42.31389" lon="2.48546">
        <ele>499.112</ele>
        <time>2011-04-02T07:10:41Z</time>
      </trkpt>
      <trkpt lat="42.31403" lon="2.48543">
        <ele>502.439</ele>
        <time>2011-04-02T07:10:49Z</time>
      </trkpt>
      <trkpt lat="42.3141" lon="2.48541">
        <ele>499.147</ele>
        <time>2011-04-02T07:10:53Z</time>
      </trkpt>
      <trkpt lat="42.31423" lon="2.48532">
        <ele>503.41</ele>
        <time>2011-04-02T07:11:02Z</time>
      </trkpt>
      <trkpt lat="42.31424" lon="2.48531">
        <ele>502.946</ele>
        <time>2011-04-02T07:11:03Z</time>
      </trkpt>
      <trkpt lat="42.31433" lon="2.48523">
        <ele>498.188</ele>
        <time>2011-04-02T07:11:10Z</time>
      </trkpt>
      <trkpt lat="42.31434" lon="2.48522">
        <ele>503.416</ele>
        <time>2011-04-02T07:11:11Z</time>
      </trkpt>
      <trkpt lat="42.31435" lon="2.48521">
        <ele>503.407</ele>
        <time>2011-04-02T07:11:12Z</time>
      </trkpt>
      <trkpt lat="42.31443" lon="2.48515">
        <ele>499.195</ele>
        <time>2011-04-02T07:11:18Z</time>
      </trkpt>
      <trkpt lat="42.31444" lon="2.48513">
        <ele>502.479</ele>
        <time>2011-04-02T07:11:19Z</time>
      </trkpt>
      <trkpt lat="42.31448" lon="2.48505">
        <ele>506.372</ele>
        <time>2011-04-02T07:11:24Z</time>
      </trkpt>
      <trkpt lat="42.31449" lon="2.48503">
        <ele>503.491</ele>
        <time>2011-04-02T07:11:25Z</time>
      </trkpt>
      <trkpt lat="42.31452" lon="2.48496">
        <ele>506.838</ele>
        <time>2011-04-02T07:11:29Z</time>
      </trkpt>
      <trkpt lat="42.31453" lon="2.48495">
        <ele>503.496</ele>
        <time>2011-04-02T07:11:30Z</time>
      </trkpt>
      <trkpt lat="42.31454" lon="2.48493">
        <ele>506.349</ele>
        <time>2011-04-02T07:11:31Z</time>
      </trkpt>
      <trkpt lat="42.31456" lon="2.4849">
        <ele>508.286</ele>
        <time>2011-04-02T07:11:33Z</time>
      </trkpt>
      <trkpt lat="42.31458" lon="2.48488">
        <ele>506.86</ele>
        <time>2011-04-02T07:11:35Z</time>
      </trkpt>
      <trkpt lat="42.31464" lon="2.48483">
        <ele>507.226</ele>
        <time>2011-04-02T07:11:39Z</time>
      </trkpt>
      <trkpt lat="42.31481" lon="2.48456">
        <ele>506.807</ele>
        <time>2011-04-02T07:11:55Z</time>
      </trkpt>
      <trkpt lat="42.31483" lon="2.48453">
        <ele>507.789</ele>
        <time>2011-04-02T07:11:57Z</time>
      </trkpt>
      <trkpt lat="42.3149" lon="2.48441">
        <ele>510.623</ele>
        <time>2011-04-02T07:12:04Z</time>
      </trkpt>
      <trkpt lat="42.31493" lon="2.48436">
        <ele>507.296</ele>
        <time>2011-04-02T07:12:07Z</time>
      </trkpt>
      <trkpt lat="42.31494" lon="2.48435">
        <ele>502.965</ele>
        <time>2011-04-02T07:12:08Z</time>
      </trkpt>
      <trkpt lat="42.31495" lon="2.48433">
        <ele>510.152</ele>
        <time>2011-04-02T07:12:09Z</time>
      </trkpt>
      <trkpt lat="42.31506" lon="2.48415">
        <ele>506.35</ele>
        <time>2011-04-02T07:12:20Z</time>
      </trkpt>
      <trkpt lat="42.31508" lon="2.48411">
        <ele>509.623</ele>
        <time>2011-04-02T07:12:22Z</time>
      </trkpt>
      <trkpt lat="42.31509" lon="2.48409">
        <ele>510.144</ele>
        <time>2011-04-02T07:12:23Z</time>
      </trkpt>
      <trkpt lat="42.31514" lon="2.48399">
        <ele>513.505</ele>
        <time>2011-04-02T07:12:29Z</time>
      </trkpt>
      <trkpt lat="42.31515" lon="2.48397">
        <ele>513.515</ele>
        <time>2011-04-02T07:12:30Z</time>
      </trkpt>
      <trkpt lat="42.31516" lon="2.48395">
        <ele>509.607</ele>
        <time>2011-04-02T07:12:31Z</time>
      </trkpt>
      <trkpt lat="42.31517" lon="2.48394">
        <ele>511.685</ele>
        <time>2011-04-02T07:12:32Z</time>
      </trkpt>
      <trkpt lat="42.31529" lon="2.48373">
        <ele>513.059</ele>
        <time>2011-04-02T07:12:44Z</time>
      </trkpt>
      <trkpt lat="42.31532" lon="2.48368">
        <ele>511.112</ele>
        <time>2011-04-02T07:12:47Z</time>
      </trkpt>
      <trkpt lat="42.31536" lon="2.48361">
        <ele>513.041</ele>
        <time>2011-04-02T07:12:51Z</time>
      </trkpt>
      <trkpt lat="42.31537" lon="2.48359">
        <ele>509.638</ele>
        <time>2011-04-02T07:12:52Z</time>
      </trkpt>
      <trkpt lat="42.31537" lon="2.48357">
        <ele>513.016</ele>
        <time>2011-04-02T07:12:53Z</time>
      </trkpt>
      <trkpt lat="42.31541" lon="2.48344">
        <ele>509.689</ele>
        <time>2011-04-02T07:12:59Z</time>
      </trkpt>
      <trkpt lat="42.31542" lon="2.48342">
        <ele>512.023</ele>
        <time>2011-04-02T07:13:00Z</time>
      </trkpt>
      <trkpt lat="42.31543" lon="2.48338">
        <ele>512.583</ele>
        <time>2011-04-02T07:13:02Z</time>
      </trkpt>
      <trkpt lat="42.31547" lon="2.48327">
        <ele>515.911</ele>
        <time>2011-04-02T07:13:08Z</time>
      </trkpt>
      <trkpt lat="42.31548" lon="2.48325">
        <ele>513.007</ele>
        <time>2011-04-02T07:13:09Z</time>
      </trkpt>
      <trkpt lat="42.3155" lon="2.48319">
        <ele>514.033</ele>
        <time>2011-04-02T07:13:12Z</time>
      </trkpt>
      <trkpt lat="42.3156" lon="2.48295">
        <ele>517.897</ele>
        <time>2011-04-02T07:13:24Z</time>
      </trkpt>
      <trkpt lat="42.31563" lon="2.4829">
        <ele>514.47</ele>
        <time>2011-04-02T07:13:27Z</time>
      </trkpt>
      <trkpt lat="42.31566" lon="2.48285">
        <ele>511.159</ele>
        <time>2011-04-02T07:13:30Z</time>
      </trkpt>
      <trkpt lat="42.31566" lon="2.48283">
        <ele>515.466</ele>
        <time>2011-04-02T07:13:31Z</time>
      </trkpt>
      <trkpt lat="42.31567" lon="2.48281">
        <ele>514.094</ele>
        <time>2011-04-02T07:13:32Z</time>
      </trkpt>
      <trkpt lat="42.31568" lon="2.48279">
        <ele>517.357</ele>
        <time>2011-04-02T07:13:33Z</time>
      </trkpt>
      <trkpt lat="42.31569" lon="2.48277">
        <ele>517.328</ele>
        <time>2011-04-02T07:13:34Z</time>
      </trkpt>
      <trkpt lat="42.3157" lon="2.48275">
        <ele>513.589</ele>
        <time>2011-04-02T07:13:35Z</time>
      </trkpt>
      <trkpt lat="42.31571" lon="2.48273">
        <ele>515.417</ele>
        <time>2011-04-02T07:13:36Z</time>
      </trkpt>
      <trkpt lat="42.31585" lon="2.48251">
        <ele>520.707</ele>
        <time>2011-04-02T07:13:47Z</time>
      </trkpt>
      <trkpt lat="42.31587" lon="2.48249">
        <ele>516.463</ele>
        <time>2011-04-02T07:13:48Z</time>
      </trkpt>
      <trkpt lat="42.31591" lon="2.48244">
        <ele>515.477</ele>
        <time>2011-04-02T07:13:50Z</time>
      </trkpt>
      <trkpt lat="42.31599" lon="2.48233">
        <ele>511.15</ele>
        <time>2011-04-02T07:13:54Z</time>
      </trkpt>
      <trkpt lat="42.31608" lon="2.48219">
        <ele>514.459</ele>
        <time>2011-04-02T07:13:59Z</time>
      </trkpt>
      <trkpt lat="42.3161" lon="2.48216">
        <ele>514.486</ele>
        <time>2011-04-02T07:14:00Z</time>
      </trkpt>
      <trkpt lat="42.31623" lon="2.48201">
        <ele>513.014</ele>
        <time>2011-04-02T07:14:07Z</time>
      </trkpt>
      <trkpt lat="42.3164" lon="2.48187">
        <ele>514.447</ele>
        <time>2011-04-02T07:14:20Z</time>
      </trkpt>
      <trkpt lat="42.31652" lon="2.4818">
        <ele>511.118</ele>
        <time>2011-04-02T07:14:29Z</time>
      </trkpt>
      <trkpt lat="42.31654" lon="2.48179">
        <ele>512.598</ele>
        <time>2011-04-02T07:14:30Z</time>
      </trkpt>
      <trkpt lat="42.31659" lon="2.48174">
        <ele>512.517</ele>
        <time>2011-04-02T07:14:34Z</time>
      </trkpt>
      <trkpt lat="42.31661" lon="2.48167">
        <ele>513.507</ele>
        <time>2011-04-02T07:14:50Z</time>
      </trkpt>
      <trkpt lat="42.31662" lon="2.48167">
        <ele>512.082</ele>
        <time>2011-04-02T07:14:58Z</time>
      </trkpt>
      <trkpt lat="42.31662" lon="2.48168">
        <ele>514.956</ele>
        <time>2011-04-02T07:15:04Z</time>
      </trkpt>
      <trkpt lat="42.31662" lon="2.48167">
        <ele>511.159</ele>
        <time>2011-04-02T07:15:10Z</time>
      </trkpt>
      <trkpt lat="42.31662" lon="2.48168">
        <ele>515.498</ele>
        <time>2011-04-02T07:15:12Z</time>
      </trkpt>
      <trkpt lat="42.31662" lon="2.48168">
        <ele>511.125</ele>
        <time>2011-04-02T07:15:14Z</time>
      </trkpt>
      <trkpt lat="42.31662" lon="2.48168">
        <ele>515.453</ele>
        <time>2011-04-02T07:15:15Z</time>
      </trkpt>
      <trkpt lat="42.31662" lon="2.48169">
        <ele>508.746</ele>
        <time>2011-04-02T07:15:26Z</time>
      </trkpt>
      <trkpt lat="42.31662" lon="2.48169">
        <ele>512.071</ele>
        <time>2011-04-02T07:15:27Z</time>
      </trkpt>
      <trkpt lat="42.31662" lon="2.48171">
        <ele>515.441</ele>
        <time>2011-04-02T07:15:39Z</time>
      </trkpt>
      <trkpt lat="42.31662" lon="2.48171">
        <ele>512.015</ele>
        <time>2011-04-02T07:15:40Z</time>
      </trkpt>
      <trkpt lat="42.31662" lon="2.48171">
        <ele>515.907</ele>
        <time>2011-04-02T07:15:48Z</time>
      </trkpt>
      <trkpt lat="42.31662" lon="2.48171">
        <ele>512.538</ele>
        <time>2011-04-02T07:15:49Z</time>
      </trkpt>
      <trkpt lat="42.31662" lon="2.4817">
        <ele>515.912</ele>
        <time>2011-04-02T07:15:56Z</time>
      </trkpt>
      <trkpt lat="42.31662" lon="2.4817">
        <ele>511.645</ele>
        <time>2011-04-02T07:15:57Z</time>
      </trkpt>
      <trkpt lat="42.31662" lon="2.4817">
        <ele>515.494</ele>
        <time>2011-04-02T07:16:00Z</time>
      </trkpt>
      <trkpt lat="42.31662" lon="2.4817">
        <ele>511.621</ele>
        <time>2011-04-02T07:16:04Z</time>
      </trkpt>
      <trkpt lat="42.31663" lon="2.4817">
        <ele>513.099</ele>
        <time>2011-04-02T07:16:05Z</time>
      </trkpt>
      <trkpt lat="42.31664" lon="2.4817">
        <ele>512.092</ele>
        <time>2011-04-02T07:16:09Z</time>
      </trkpt>
      <trkpt lat="42.31671" lon="2.4817">
        <ele>510.669</ele>
        <time>2011-04-02T07:16:22Z</time>
      </trkpt>
      <trkpt lat="42.31671" lon="2.4817">
        <ele>514.404</ele>
        <time>2011-04-02T07:16:28Z</time>
      </trkpt>
      <trkpt lat="42.31671" lon="2.48171">
        <ele>514.924</ele>
        <time>2011-04-02T07:16:29Z</time>
      </trkpt>
      <trkpt lat="42.31671" lon="2.48171">
        <ele>511.107</ele>
        <time>2011-04-02T07:16:31Z</time>
      </trkpt>
      <trkpt lat="42.31671" lon="2.48171">
        <ele>515.457</ele>
        <time>2011-04-02T07:16:34Z</time>
      </trkpt>
      <trkpt lat="42.31671" lon="2.48171">
        <ele>511.611</ele>
        <time>2011-04-02T07:16:35Z</time>
      </trkpt>
      <trkpt lat="42.31671" lon="2.48173">
        <ele>514.424</ele>
        <time>2011-04-02T07:17:00Z</time>
      </trkpt>
      <trkpt lat="42.31671" lon="2.48173">
        <ele>514.943</ele>
        <time>2011-04-02T07:17:01Z</time>
      </trkpt>
      <trkpt lat="42.31673" lon="2.48174">
        <ele>513.07</ele>
        <time>2011-04-02T07:17:03Z</time>
      </trkpt>
      <trkpt lat="42.31674" lon="2.48174">
        <ele>510.198</ele>
        <time>2011-04-02T07:17:29Z</time>
      </trkpt>
      <trkpt lat="42.31674" lon="2.48174">
        <ele>510.151</ele>
        <time>2011-04-02T07:17:30Z</time>
      </trkpt>
      <trkpt lat="42.31674" lon="2.48174">
        <ele>513.591</ele>
        <time>2011-04-02T07:17:34Z</time>
      </trkpt>
      <trkpt lat="42.31674" lon="2.48174">
        <ele>510.181</ele>
        <time>2011-04-02T07:17:38Z</time>
      </trkpt>
      <trkpt lat="42.31674" lon="2.48173">
        <ele>513.519</ele>
        <time>2011-04-02T07:17:42Z</time>
      </trkpt>
      <trkpt lat="42.31677" lon="2.48175">
        <ele>514.007</ele>
        <time>2011-04-02T07:18:08Z</time>
      </trkpt>
      <trkpt lat="42.31678" lon="2.48175">
        <ele>514.04</ele>
        <time>2011-04-02T07:18:19Z</time>
      </trkpt>
      <trkpt lat="42.31679" lon="2.48176">
        <ele>512.594</ele>
        <time>2011-04-02T07:18:21Z</time>
      </trkpt>
      <trkpt lat="42.31694" lon="2.48171">
        <ele>509.627</ele>
        <time>2011-04-02T07:18:36Z</time>
      </trkpt>
      <trkpt lat="42.31696" lon="2.4817">
        <ele>512.076</ele>
        <time>2011-04-02T07:18:38Z</time>
      </trkpt>
      <trkpt lat="42.31698" lon="2.48168">
        <ele>513.593</ele>
        <time>2011-04-02T07:18:41Z</time>
      </trkpt>
      <trkpt lat="42.31699" lon="2.48166">
        <ele>510.661</ele>
        <time>2011-04-02T07:18:43Z</time>
      </trkpt>
      <trkpt lat="42.31701" lon="2.48164">
        <ele>513.554</ele>
        <time>2011-04-02T07:18:45Z</time>
      </trkpt>
      <trkpt lat="42.31709" lon="2.48159">
        <ele>509.664</ele>
        <time>2011-04-02T07:18:53Z</time>
      </trkpt>
      <trkpt lat="42.31729" lon="2.48154">
        <ele>512.506</ele>
        <time>2011-04-02T07:19:08Z</time>
      </trkpt>
      <trkpt lat="42.31734" lon="2.48154">
        <ele>514.016</ele>
        <time>2011-04-02T07:19:11Z</time>
      </trkpt>
      <trkpt lat="42.31745" lon="2.48152">
        <ele>514.907</ele>
        <time>2011-04-02T07:19:17Z</time>
      </trkpt>
      <trkpt lat="42.31766" lon="2.48155">
        <ele>518.397</ele>
        <time>2011-04-02T07:19:30Z</time>
      </trkpt>
      <trkpt lat="42.31768" lon="2.48155">
        <ele>513.551</ele>
        <time>2011-04-02T07:19:31Z</time>
      </trkpt>
      <trkpt lat="42.31786" lon="2.48157">
        <ele>516.434</ele>
        <time>2011-04-02T07:19:43Z</time>
      </trkpt>
      <trkpt lat="42.31797" lon="2.48156">
        <ele>515.423</ele>
        <time>2011-04-02T07:19:54Z</time>
      </trkpt>
      <trkpt lat="42.31818" lon="2.48166">
        <ele>518.34</ele>
        <time>2011-04-02T07:20:06Z</time>
      </trkpt>
      <trkpt lat="42.31836" lon="2.48172">
        <ele>518.378</ele>
        <time>2011-04-02T07:20:19Z</time>
      </trkpt>
      <trkpt lat="42.31842" lon="2.48174">
        <ele>520.761</ele>
        <time>2011-04-02T07:20:23Z</time>
      </trkpt>
      <trkpt lat="42.31864" lon="2.48188">
        <ele>520.762</ele>
        <time>2011-04-02T07:20:39Z</time>
      </trkpt>
      <trkpt lat="42.31876" lon="2.48198">
        <ele>520.783</ele>
        <time>2011-04-02T07:20:48Z</time>
      </trkpt>
      <trkpt lat="42.31889" lon="2.48202">
        <ele>520.711</ele>
        <time>2011-04-02T07:20:57Z</time>
      </trkpt>
      <trkpt lat="42.31894" lon="2.48203">
        <ele>524.507</ele>
        <time>2011-04-02T07:21:01Z</time>
      </trkpt>
      <trkpt lat="42.31904" lon="2.48199">
        <ele>524.527</ele>
        <time>2011-04-02T07:21:11Z</time>
      </trkpt>
      <trkpt lat="42.31906" lon="2.48198">
        <ele>522.671</ele>
        <time>2011-04-02T07:21:13Z</time>
      </trkpt>
      <trkpt lat="42.31908" lon="2.48197">
        <ele>526.584</ele>
        <time>2011-04-02T07:21:14Z</time>
      </trkpt>
      <trkpt lat="42.31915" lon="2.48194">
        <ele>523.173</ele>
        <time>2011-04-02T07:21:19Z</time>
      </trkpt>
      <trkpt lat="42.31919" lon="2.4819">
        <ele>522.17</ele>
        <time>2011-04-02T07:21:23Z</time>
      </trkpt>
      <trkpt lat="42.31924" lon="2.48183">
        <ele>525.568</ele>
        <time>2011-04-02T07:21:28Z</time>
      </trkpt>
      <trkpt lat="42.31927" lon="2.48179">
        <ele>521.271</ele>
        <time>2011-04-02T07:21:31Z</time>
      </trkpt>
      <trkpt lat="42.31928" lon="2.48178">
        <ele>523.679</ele>
        <time>2011-04-02T07:21:32Z</time>
      </trkpt>
      <trkpt lat="42.31931" lon="2.48176">
        <ele>525.005</ele>
        <time>2011-04-02T07:21:34Z</time>
      </trkpt>
      <trkpt lat="42.31934" lon="2.48174">
        <ele>520.725</ele>
        <time>2011-04-02T07:21:36Z</time>
      </trkpt>
      <trkpt lat="42.31936" lon="2.48174">
        <ele>525.007</ele>
        <time>2011-04-02T07:21:37Z</time>
      </trkpt>
      <trkpt lat="42.31942" lon="2.48171">
        <ele>523.688</ele>
        <time>2011-04-02T07:21:41Z</time>
      </trkpt>
      <trkpt lat="42.31944" lon="2.48169">
        <ele>525.552</ele>
        <time>2011-04-02T07:21:43Z</time>
      </trkpt>
      <trkpt lat="42.31959" lon="2.48157">
        <ele>528.985</ele>
        <time>2011-04-02T07:21:55Z</time>
      </trkpt>
      <trkpt lat="42.31972" lon="2.48147">
        <ele>527.434</ele>
        <time>2011-04-02T07:22:05Z</time>
      </trkpt>
      <trkpt lat="42.31975" lon="2.48143">
        <ele>530.851</ele>
        <time>2011-04-02T07:22:08Z</time>
      </trkpt>
      <trkpt lat="42.31976" lon="2.48142">
        <ele>526.059</ele>
        <time>2011-04-02T07:22:09Z</time>
      </trkpt>
      <trkpt lat="42.31977" lon="2.4814">
        <ele>530.812</ele>
        <time>2011-04-02T07:22:10Z</time>
      </trkpt>
      <trkpt lat="42.31987" lon="2.4813">
        <ele>526.581</ele>
        <time>2011-04-02T07:22:19Z</time>
      </trkpt>
      <trkpt lat="42.31988" lon="2.48129">
        <ele>531.361</ele>
        <time>2011-04-02T07:22:20Z</time>
      </trkpt>
      <trkpt lat="42.31989" lon="2.48128">
        <ele>527.917</ele>
        <time>2011-04-02T07:22:21Z</time>
      </trkpt>
      <trkpt lat="42.3199" lon="2.48127">
        <ele>531.807</ele>
        <time>2011-04-02T07:22:22Z</time>
      </trkpt>
      <trkpt lat="42.31994" lon="2.48123">
        <ele>527.989</ele>
        <time>2011-04-02T07:22:26Z</time>
      </trkpt>
      <trkpt lat="42.31994" lon="2.48122">
        <ele>531.833</ele>
        <time>2011-04-02T07:22:27Z</time>
      </trkpt>
      <trkpt lat="42.31996" lon="2.48119">
        <ele>527.456</ele>
        <time>2011-04-02T07:22:31Z</time>
      </trkpt>
      <trkpt lat="42.32" lon="2.48116">
        <ele>530.875</ele>
        <time>2011-04-02T07:22:36Z</time>
      </trkpt>
      <trkpt lat="42.3201" lon="2.48121">
        <ele>527.912</ele>
        <time>2011-04-02T07:22:41Z</time>
      </trkpt>
      <trkpt lat="42.32013" lon="2.48123">
        <ele>533.26</ele>
        <time>2011-04-02T07:22:42Z</time>
      </trkpt>
      <trkpt lat="42.32021" lon="2.48121">
        <ele>533.223</ele>
        <time>2011-04-02T07:22:53Z</time>
      </trkpt>
      <trkpt lat="42.32026" lon="2.48127">
        <ele>533.269</ele>
        <time>2011-04-02T07:22:57Z</time>
      </trkpt>
      <trkpt lat="42.32036" lon="2.4814">
        <ele>535.104</ele>
        <time>2011-04-02T07:23:05Z</time>
      </trkpt>
      <trkpt lat="42.32043" lon="2.48135">
        <ele>539.024</ele>
        <time>2011-04-02T07:23:13Z</time>
      </trkpt>
      <trkpt lat="42.32044" lon="2.48135">
        <ele>538.507</ele>
        <time>2011-04-02T07:23:14Z</time>
      </trkpt>
      <trkpt lat="42.32046" lon="2.48134">
        <ele>538.577</ele>
        <time>2011-04-02T07:23:17Z</time>
      </trkpt>
      <trkpt lat="42.32044" lon="2.48129">
        <ele>540.991</ele>
        <time>2011-04-02T07:23:22Z</time>
      </trkpt>
      <trkpt lat="42.32042" lon="2.48123">
        <ele>542.814</ele>
        <time>2011-04-02T07:23:27Z</time>
      </trkpt>
      <trkpt lat="42.32043" lon="2.48119">
        <ele>541.453</ele>
        <time>2011-04-02T07:23:30Z</time>
      </trkpt>
      <trkpt lat="42.32049" lon="2.48105">
        <ele>544.79</ele>
        <time>2011-04-02T07:23:42Z</time>
      </trkpt>
      <trkpt lat="42.32048" lon="2.48105">
        <ele>541.428</ele>
        <time>2011-04-02T07:23:47Z</time>
      </trkpt>
      <trkpt lat="42.32048" lon="2.48105">
        <ele>545.281</ele>
        <time>2011-04-02T07:23:48Z</time>
      </trkpt>
      <trkpt lat="42.32064" lon="2.48085">
        <ele>541.886</ele>
        <time>2011-04-02T07:24:02Z</time>
      </trkpt>
      <trkpt lat="42.32068" lon="2.48079">
        <ele>545.26</ele>
        <time>2011-04-02T07:24:06Z</time>
      </trkpt>
      <trkpt lat="42.32069" lon="2.48074">
        <ele>544.726</ele>
        <time>2011-04-02T07:24:16Z</time>
      </trkpt>
      <trkpt lat="42.3207" lon="2.48071">
        <ele>544.207</ele>
        <time>2011-04-02T07:24:18Z</time>
      </trkpt>
      <trkpt lat="42.3209" lon="2.4805">
        <ele>542.319</ele>
        <time>2011-04-02T07:24:28Z</time>
      </trkpt>
      <trkpt lat="42.32109" lon="2.48044">
        <ele>543.883</ele>
        <time>2011-04-02T07:24:44Z</time>
      </trkpt>
      <trkpt lat="42.32113" lon="2.48042">
        <ele>545.236</ele>
        <time>2011-04-02T07:24:47Z</time>
      </trkpt>
      <trkpt lat="42.32123" lon="2.48031">
        <ele>541.825</ele>
        <time>2011-04-02T07:24:56Z</time>
      </trkpt>
      <trkpt lat="42.32124" lon="2.48029">
        <ele>546.212</ele>
        <time>2011-04-02T07:24:57Z</time>
      </trkpt>
      <trkpt lat="42.32124" lon="2.48028">
        <ele>544.75</ele>
        <time>2011-04-02T07:24:58Z</time>
      </trkpt>
      <trkpt lat="42.32123" lon="2.48018">
        <ele>546.733</ele>
        <time>2011-04-02T07:25:03Z</time>
      </trkpt>
      <trkpt lat="42.32123" lon="2.48011">
        <ele>547.627</ele>
        <time>2011-04-02T07:25:07Z</time>
      </trkpt>
      <trkpt lat="42.32135" lon="2.4799">
        <ele>550.068</ele>
        <time>2011-04-02T07:25:23Z</time>
      </trkpt>
      <trkpt lat="42.32137" lon="2.47986">
        <ele>549.514</ele>
        <time>2011-04-02T07:25:26Z</time>
      </trkpt>
      <trkpt lat="42.32138" lon="2.47979">
        <ele>550.507</ele>
        <time>2011-04-02T07:25:31Z</time>
      </trkpt>
      <trkpt lat="42.32143" lon="2.47968">
        <ele>551.063</ele>
        <time>2011-04-02T07:25:40Z</time>
      </trkpt>
      <trkpt lat="42.3215" lon="2.47948">
        <ele>551.917</ele>
        <time>2011-04-02T07:25:56Z</time>
      </trkpt>
      <trkpt lat="42.32151" lon="2.47945">
        <ele>552.98</ele>
        <time>2011-04-02T07:25:58Z</time>
      </trkpt>
      <trkpt lat="42.32149" lon="2.47936">
        <ele>553.929</ele>
        <time>2011-04-02T07:26:12Z</time>
      </trkpt>
      <trkpt lat="42.32148" lon="2.47936">
        <ele>554.326</ele>
        <time>2011-04-02T07:26:13Z</time>
      </trkpt>
      <trkpt lat="42.32146" lon="2.47934">
        <ele>554.324</ele>
        <time>2011-04-02T07:26:24Z</time>
      </trkpt>
      <trkpt lat="42.32149" lon="2.47936">
        <ele>554.387</ele>
        <time>2011-04-02T07:26:27Z</time>
      </trkpt>
      <trkpt lat="42.32146" lon="2.47946">
        <ele>551.964</ele>
        <time>2011-04-02T07:26:39Z</time>
      </trkpt>
      <trkpt lat="42.32145" lon="2.47948">
        <ele>554.806</ele>
        <time>2011-04-02T07:26:42Z</time>
      </trkpt>
      <trkpt lat="42.32144" lon="2.47951">
        <ele>553.416</ele>
        <time>2011-04-02T07:27:00Z</time>
      </trkpt>
      <trkpt lat="42.32145" lon="2.47951">
        <ele>552.907</ele>
        <time>2011-04-02T07:27:12Z</time>
      </trkpt>
      <trkpt lat="42.32144" lon="2.47951">
        <ele>551.927</ele>
        <time>2011-04-02T07:27:29Z</time>
      </trkpt>
      <trkpt lat="42.32144" lon="2.47951">
        <ele>552.941</ele>
        <time>2011-04-02T07:27:42Z</time>
      </trkpt>
      <trkpt lat="42.32144" lon="2.47951">
        <ele>551.524</ele>
        <time>2011-04-02T07:28:01Z</time>
      </trkpt>
      <trkpt lat="42.32144" lon="2.47951">
        <ele>552.413</ele>
        <time>2011-04-02T07:28:03Z</time>
      </trkpt>
      <trkpt lat="42.32144" lon="2.47951">
        <ele>552.45</ele>
        <time>2011-04-02T07:28:19Z</time>
      </trkpt>
      <trkpt lat="42.32143" lon="2.47949">
        <ele>552.448</ele>
        <time>2011-04-02T07:28:41Z</time>
      </trkpt>
      <trkpt lat="42.32143" lon="2.47949">
        <ele>556.341</ele>
        <time>2011-04-02T07:28:45Z</time>
      </trkpt>
      <trkpt lat="42.32144" lon="2.47949">
        <ele>552.464</ele>
        <time>2011-04-02T07:28:46Z</time>
      </trkpt>
      <trkpt lat="42.32144" lon="2.47951">
        <ele>551.506</ele>
        <time>2011-04-02T07:29:05Z</time>
      </trkpt>
      <trkpt lat="42.32144" lon="2.47951">
        <ele>555.816</ele>
        <time>2011-04-02T07:29:20Z</time>
      </trkpt>
      <trkpt lat="42.32144" lon="2.47951">
        <ele>551.507</ele>
        <time>2011-04-02T07:29:22Z</time>
      </trkpt>
      <trkpt lat="42.32144" lon="2.47949">
        <ele>553.417</ele>
        <time>2011-04-02T07:29:42Z</time>
      </trkpt>
      <trkpt lat="42.32145" lon="2.47945">
        <ele>551.551</ele>
        <time>2011-04-02T07:29:51Z</time>
      </trkpt>
      <trkpt lat="42.32145" lon="2.47944">
        <ele>552.954</ele>
        <time>2011-04-02T07:29:53Z</time>
      </trkpt>
      <trkpt lat="42.32146" lon="2.47943">
        <ele>552.973</ele>
        <time>2011-04-02T07:30:04Z</time>
      </trkpt>
      <trkpt lat="42.32147" lon="2.47939">
        <ele>549.56</ele>
        <time>2011-04-02T07:30:20Z</time>
      </trkpt>
      <trkpt lat="42.32147" lon="2.47939">
        <ele>553.448</ele>
        <time>2011-04-02T07:30:21Z</time>
      </trkpt>
      <trkpt lat="42.32147" lon="2.47939">
        <ele>552.981</ele>
        <time>2011-04-02T07:30:22Z</time>
      </trkpt>
      <trkpt lat="42.32148" lon="2.47939">
        <ele>549.555</ele>
        <time>2011-04-02T07:30:34Z</time>
      </trkpt>
      <trkpt lat="42.32148" lon="2.47939">
        <ele>550.507</ele>
        <time>2011-04-02T07:30:35Z</time>
      </trkpt>
      <trkpt lat="42.32148" lon="2.47939">
        <ele>553.917</ele>
        <time>2011-04-02T07:30:40Z</time>
      </trkpt>
      <trkpt lat="42.32148" lon="2.47939">
        <ele>549.107</ele>
        <time>2011-04-02T07:30:45Z</time>
      </trkpt>
      <trkpt lat="42.32148" lon="2.47938">
        <ele>552.446</ele>
        <time>2011-04-02T07:30:48Z</time>
      </trkpt>
      <trkpt lat="42.32149" lon="2.47937">
        <ele>553.92</ele>
        <time>2011-04-02T07:31:13Z</time>
      </trkpt>
      <trkpt lat="42.32149" lon="2.47937">
        <ele>553.963</ele>
        <time>2011-04-02T07:31:14Z</time>
      </trkpt>
      <trkpt lat="42.32149" lon="2.47937">
        <ele>550.552</ele>
        <time>2011-04-02T07:31:26Z</time>
      </trkpt>
      <trkpt lat="42.32149" lon="2.47937">
        <ele>553.959</ele>
        <time>2011-04-02T07:31:31Z</time>
      </trkpt>
      <trkpt lat="42.32149" lon="2.47937">
        <ele>551.557</ele>
        <time>2011-04-02T07:31:36Z</time>
      </trkpt>
      <trkpt lat="42.32149" lon="2.47937">
        <ele>552.94</ele>
        <time>2011-04-02T07:31:42Z</time>
      </trkpt>
      <trkpt lat="42.3215" lon="2.47936">
        <ele>551.513</ele>
        <time>2011-04-02T07:31:48Z</time>
      </trkpt>
      <trkpt lat="42.32149" lon="2.47936">
        <ele>552.443</ele>
        <time>2011-04-02T07:31:51Z</time>
      </trkpt>
      <trkpt lat="42.32146" lon="2.47936">
        <ele>551.507</ele>
        <time>2011-04-02T07:31:55Z</time>
      </trkpt>
      <trkpt lat="42.32144" lon="2.47934">
        <ele>551.507</ele>
        <time>2011-04-02T07:32:05Z</time>
      </trkpt>
      <trkpt lat="42.32147" lon="2.47932">
        <ele>553.952</ele>
        <time>2011-04-02T07:32:28Z</time>
      </trkpt>
      <trkpt lat="42.32147" lon="2.47933">
        <ele>551.536</ele>
        <time>2011-04-02T07:32:29Z</time>
      </trkpt>
      <trkpt lat="42.32149" lon="2.47939">
        <ele>552.929</ele>
        <time>2011-04-02T07:32:36Z</time>
      </trkpt>
      <trkpt lat="42.32147" lon="2.47941">
        <ele>549.158</ele>
        <time>2011-04-02T07:32:41Z</time>
      </trkpt>
      <trkpt lat="42.32147" lon="2.47941">
        <ele>551.595</ele>
        <time>2011-04-02T07:32:42Z</time>
      </trkpt>
      <trkpt lat="42.32147" lon="2.47942">
        <ele>551.913</ele>
        <time>2011-04-02T07:32:44Z</time>
      </trkpt>
      <trkpt lat="42.32146" lon="2.47951">
        <ele>552.466</ele>
        <time>2011-04-02T07:32:50Z</time>
      </trkpt>
      <trkpt lat="42.32146" lon="2.47953">
        <ele>551.566</ele>
        <time>2011-04-02T07:32:59Z</time>
      </trkpt>
      <trkpt lat="42.32146" lon="2.47953">
        <ele>554.329</ele>
        <time>2011-04-02T07:33:01Z</time>
      </trkpt>
      <trkpt lat="42.32146" lon="2.47953">
        <ele>551.521</ele>
        <time>2011-04-02T07:33:11Z</time>
      </trkpt>
      <trkpt lat="42.32146" lon="2.47953">
        <ele>553.407</ele>
        <time>2011-04-02T07:33:21Z</time>
      </trkpt>
      <trkpt lat="42.32147" lon="2.47952">
        <ele>551.567</ele>
        <time>2011-04-02T07:33:23Z</time>
      </trkpt>
      <trkpt lat="42.32151" lon="2.47939">
        <ele>553.431</ele>
        <time>2011-04-02T07:33:39Z</time>
      </trkpt>
      <trkpt lat="42.32152" lon="2.47941">
        <ele>553.414</ele>
        <time>2011-04-02T07:33:42Z</time>
      </trkpt>
      <trkpt lat="42.32153" lon="2.47944">
        <ele>551.583</ele>
        <time>2011-04-02T07:33:45Z</time>
      </trkpt>
      <trkpt lat="42.32153" lon="2.47949">
        <ele>551.91</ele>
        <time>2011-04-02T07:33:52Z</time>
      </trkpt>
      <trkpt lat="42.32151" lon="2.47958">
        <ele>550.588</ele>
        <time>2011-04-02T07:33:58Z</time>
      </trkpt>
      <trkpt lat="42.32148" lon="2.47968">
        <ele>550.011</ele>
        <time>2011-04-02T07:34:04Z</time>
      </trkpt>
      <trkpt lat="42.32143" lon="2.4798">
        <ele>547.629</ele>
        <time>2011-04-02T07:34:17Z</time>
      </trkpt>
      <trkpt lat="42.32132" lon="2.48001">
        <ele>547.1</ele>
        <time>2011-04-02T07:34:32Z</time>
      </trkpt>
      <trkpt lat="42.32128" lon="2.48024">
        <ele>544.22</ele>
        <time>2011-04-02T07:34:45Z</time>
      </trkpt>
      <trkpt lat="42.32128" lon="2.48027">
        <ele>545.207</ele>
        <time>2011-04-02T07:34:47Z</time>
      </trkpt>
      <trkpt lat="42.3212" lon="2.48043">
        <ele>543.823</ele>
        <time>2011-04-02T07:34:54Z</time>
      </trkpt>
      <trkpt lat="42.32116" lon="2.48047">
        <ele>542.367</ele>
        <time>2011-04-02T07:34:56Z</time>
      </trkpt>
      <trkpt lat="42.32103" lon="2.48052">
        <ele>543.39</ele>
        <time>2011-04-02T07:35:03Z</time>
      </trkpt>
      <trkpt lat="42.32096" lon="2.48052">
        <ele>541.869</ele>
        <time>2011-04-02T07:35:06Z</time>
      </trkpt>
      <trkpt lat="42.32077" lon="2.48062">
        <ele>542.826</ele>
        <time>2011-04-02T07:35:17Z</time>
      </trkpt>
      <trkpt lat="42.3207" lon="2.48084">
        <ele>543.894</ele>
        <time>2011-04-02T07:35:28Z</time>
      </trkpt>
      <trkpt lat="42.32068" lon="2.48089">
        <ele>543.887</ele>
        <time>2011-04-02T07:35:30Z</time>
      </trkpt>
      <trkpt lat="42.32064" lon="2.48096">
        <ele>545.758</ele>
        <time>2011-04-02T07:35:33Z</time>
      </trkpt>
      <trkpt lat="42.32063" lon="2.48098">
        <ele>543.852</ele>
        <time>2011-04-02T07:35:34Z</time>
      </trkpt>
      <trkpt lat="42.32059" lon="2.48102">
        <ele>543.317</ele>
        <time>2011-04-02T07:35:36Z</time>
      </trkpt>
      <trkpt lat="42.3206" lon="2.48117">
        <ele>546.207</ele>
        <time>2011-04-02T07:35:45Z</time>
      </trkpt>
      <trkpt lat="42.32061" lon="2.48117">
        <ele>546.766</ele>
        <time>2011-04-02T07:35:46Z</time>
      </trkpt>
      <trkpt lat="42.32069" lon="2.48129">
        <ele>549.56</ele>
        <time>2011-04-02T07:35:56Z</time>
      </trkpt>
      <trkpt lat="42.3207" lon="2.4813">
        <ele>548.633</ele>
        <time>2011-04-02T07:35:57Z</time>
      </trkpt>
      <trkpt lat="42.3208" lon="2.48141">
        <ele>550.022</ele>
        <time>2011-04-02T07:36:07Z</time>
      </trkpt>
      <trkpt lat="42.32083" lon="2.48143">
        <ele>551.019</ele>
        <time>2011-04-02T07:36:09Z</time>
      </trkpt>
      <trkpt lat="42.32083" lon="2.48144">
        <ele>551.997</ele>
        <time>2011-04-02T07:36:10Z</time>
      </trkpt>
      <trkpt lat="42.32088" lon="2.48152">
        <ele>552.99</ele>
        <time>2011-04-02T07:36:16Z</time>
      </trkpt>
      <trkpt lat="42.32092" lon="2.48157">
        <ele>552.912</ele>
        <time>2011-04-02T07:36:21Z</time>
      </trkpt>
      <trkpt lat="42.32095" lon="2.4816">
        <ele>554.332</ele>
        <time>2011-04-02T07:36:26Z</time>
      </trkpt>
      <trkpt lat="42.32099" lon="2.48168">
        <ele>557.205</ele>
        <time>2011-04-02T07:36:36Z</time>
      </trkpt>
      <trkpt lat="42.32104" lon="2.48172">
        <ele>558.207</ele>
        <time>2011-04-02T07:36:41Z</time>
      </trkpt>
      <trkpt lat="42.32105" lon="2.48171">
        <ele>558.722</ele>
        <time>2011-04-02T07:36:43Z</time>
      </trkpt>
      <trkpt lat="42.32098" lon="2.48155">
        <ele>562.046</ele>
        <time>2011-04-02T07:36:56Z</time>
      </trkpt>
      <trkpt lat="42.32101" lon="2.48145">
        <ele>561.179</ele>
        <time>2011-04-02T07:37:01Z</time>
      </trkpt>
      <trkpt lat="42.32103" lon="2.4814">
        <ele>560.118</ele>
        <time>2011-04-02T07:37:03Z</time>
      </trkpt>
      <trkpt lat="42.3211" lon="2.48129">
        <ele>561.115</ele>
        <time>2011-04-02T07:37:09Z</time>
      </trkpt>
      <trkpt lat="42.32117" lon="2.48128">
        <ele>562.533</ele>
        <time>2011-04-02T07:37:14Z</time>
      </trkpt>
      <trkpt lat="42.32127" lon="2.48126">
        <ele>563.536</ele>
        <time>2011-04-02T07:37:22Z</time>
      </trkpt>
      <trkpt lat="42.3213" lon="2.48125">
        <ele>565.468</ele>
        <time>2011-04-02T07:37:27Z</time>
      </trkpt>
      <trkpt lat="42.32134" lon="2.48124">
        <ele>566.842</ele>
        <time>2011-04-02T07:37:31Z</time>
      </trkpt>
      <trkpt lat="42.32144" lon="2.48122">
        <ele>568.326</ele>
        <time>2011-04-02T07:37:42Z</time>
      </trkpt>
      <trkpt lat="42.32148" lon="2.48123">
        <ele>569.707</ele>
        <time>2011-04-02T07:37:46Z</time>
      </trkpt>
      <trkpt lat="42.32149" lon="2.48123">
        <ele>569.717</ele>
        <time>2011-04-02T07:37:48Z</time>
      </trkpt>
      <trkpt lat="42.32153" lon="2.48124">
        <ele>570.231</ele>
        <time>2011-04-02T07:37:52Z</time>
      </trkpt>
      <trkpt lat="42.3216" lon="2.48124">
        <ele>570.294</ele>
        <time>2011-04-02T07:37:58Z</time>
      </trkpt>
      <trkpt lat="42.32159" lon="2.4813">
        <ele>574.033</ele>
        <time>2011-04-02T07:38:05Z</time>
      </trkpt>
      <trkpt lat="42.32153" lon="2.48138">
        <ele>576.54</ele>
        <time>2011-04-02T07:38:19Z</time>
      </trkpt>
      <trkpt lat="42.32154" lon="2.48139">
        <ele>576.028</ele>
        <time>2011-04-02T07:38:20Z</time>
      </trkpt>
      <trkpt lat="42.32159" lon="2.48141">
        <ele>575.511</ele>
        <time>2011-04-02T07:38:25Z</time>
      </trkpt>
      <trkpt lat="42.32161" lon="2.48144">
        <ele>577.915</ele>
        <time>2011-04-02T07:38:29Z</time>
      </trkpt>
      <trkpt lat="42.32151" lon="2.48153">
        <ele>580.865</ele>
        <time>2011-04-02T07:38:41Z</time>
      </trkpt>
      <trkpt lat="42.32152" lon="2.48156">
        <ele>580.811</ele>
        <time>2011-04-02T07:38:45Z</time>
      </trkpt>
      <trkpt lat="42.32154" lon="2.48157">
        <ele>582.207</ele>
        <time>2011-04-02T07:38:47Z</time>
      </trkpt>
      <trkpt lat="42.32157" lon="2.48158">
        <ele>582.792</ele>
        <time>2011-04-02T07:38:50Z</time>
      </trkpt>
      <trkpt lat="42.32158" lon="2.48163">
        <ele>584.686</ele>
        <time>2011-04-02T07:38:55Z</time>
      </trkpt>
      <trkpt lat="42.32158" lon="2.48165">
        <ele>584.179</ele>
        <time>2011-04-02T07:38:57Z</time>
      </trkpt>
      <trkpt lat="42.32161" lon="2.48167">
        <ele>585.128</ele>
        <time>2011-04-02T07:39:01Z</time>
      </trkpt>
      <trkpt lat="42.32168" lon="2.48175">
        <ele>588.565</ele>
        <time>2011-04-02T07:39:15Z</time>
      </trkpt>
      <trkpt lat="42.3217" lon="2.48175">
        <ele>589.043</ele>
        <time>2011-04-02T07:39:17Z</time>
      </trkpt>
      <trkpt lat="42.32172" lon="2.48182">
        <ele>592.896</ele>
        <time>2011-04-02T07:39:29Z</time>
      </trkpt>
      <trkpt lat="42.32173" lon="2.48183">
        <ele>593.351</ele>
        <time>2011-04-02T07:39:30Z</time>
      </trkpt>
      <trkpt lat="42.32179" lon="2.48191">
        <ele>595.201</ele>
        <time>2011-04-02T07:39:40Z</time>
      </trkpt>
      <trkpt lat="42.32185" lon="2.48195">
        <ele>598.611</ele>
        <time>2011-04-02T07:39:51Z</time>
      </trkpt>
      <trkpt lat="42.32185" lon="2.48194">
        <ele>599.007</ele>
        <time>2011-04-02T07:39:52Z</time>
      </trkpt>
      <trkpt lat="42.32186" lon="2.48193">
        <ele>599.576</ele>
        <time>2011-04-02T07:39:53Z</time>
      </trkpt>
      <trkpt lat="42.32187" lon="2.48189">
        <ele>599.57</ele>
        <time>2011-04-02T07:39:57Z</time>
      </trkpt>
      <trkpt lat="42.32188" lon="2.48186">
        <ele>600.593</ele>
        <time>2011-04-02T07:39:59Z</time>
      </trkpt>
      <trkpt lat="42.32195" lon="2.48184">
        <ele>601.412</ele>
        <time>2011-04-02T07:40:07Z</time>
      </trkpt>
      <trkpt lat="42.32198" lon="2.48184">
        <ele>602.479</ele>
        <time>2011-04-02T07:40:11Z</time>
      </trkpt>
      <trkpt lat="42.32211" lon="2.48185">
        <ele>603.417</ele>
        <time>2011-04-02T07:40:22Z</time>
      </trkpt>
      <trkpt lat="42.32214" lon="2.48186">
        <ele>603.95</ele>
        <time>2011-04-02T07:40:24Z</time>
      </trkpt>
      <trkpt lat="42.32224" lon="2.48179">
        <ele>605.885</ele>
        <time>2011-04-02T07:40:35Z</time>
      </trkpt>
      <trkpt lat="42.32235" lon="2.48174">
        <ele>608.789</ele>
        <time>2011-04-02T07:40:45Z</time>
      </trkpt>
      <trkpt lat="42.32244" lon="2.48166">
        <ele>611.117</ele>
        <time>2011-04-02T07:40:57Z</time>
      </trkpt>
      <trkpt lat="42.32244" lon="2.48164">
        <ele>611.507</ele>
        <time>2011-04-02T07:41:00Z</time>
      </trkpt>
      <trkpt lat="42.3224" lon="2.4816">
        <ele>613.089</ele>
        <time>2011-04-02T07:41:07Z</time>
      </trkpt>
      <trkpt lat="42.32245" lon="2.48148">
        <ele>613.963</ele>
        <time>2011-04-02T07:41:16Z</time>
      </trkpt>
      <trkpt lat="42.32254" lon="2.48127">
        <ele>613.526</ele>
        <time>2011-04-02T07:41:29Z</time>
      </trkpt>
      <trkpt lat="42.32259" lon="2.48122">
        <ele>614.495</ele>
        <time>2011-04-02T07:41:33Z</time>
      </trkpt>
      <trkpt lat="42.32269" lon="2.48111">
        <ele>617.312</ele>
        <time>2011-04-02T07:41:43Z</time>
      </trkpt>
      <trkpt lat="42.32277" lon="2.48102">
        <ele>621.25</ele>
        <time>2011-04-02T07:41:54Z</time>
      </trkpt>
      <trkpt lat="42.32285" lon="2.48096">
        <ele>623.673</ele>
        <time>2011-04-02T07:42:05Z</time>
      </trkpt>
      <trkpt lat="42.32287" lon="2.48091">
        <ele>623.131</ele>
        <time>2011-04-02T07:42:09Z</time>
      </trkpt>
      <trkpt lat="42.32292" lon="2.48085">
        <ele>625.061</ele>
        <time>2011-04-02T07:42:16Z</time>
      </trkpt>
      <trkpt lat="42.32298" lon="2.48079">
        <ele>626.007</ele>
        <time>2011-04-02T07:42:22Z</time>
      </trkpt>
      <trkpt lat="42.323" lon="2.48078">
        <ele>626.007</ele>
        <time>2011-04-02T07:42:24Z</time>
      </trkpt>
      <trkpt lat="42.32301" lon="2.48093">
        <ele>629.824</ele>
        <time>2011-04-02T07:42:37Z</time>
      </trkpt>
      <trkpt lat="42.32302" lon="2.48095">
        <ele>630.348</ele>
        <time>2011-04-02T07:42:38Z</time>
      </trkpt>
      <trkpt lat="42.32301" lon="2.481">
        <ele>627.921</ele>
        <time>2011-04-02T07:42:42Z</time>
      </trkpt>
      <trkpt lat="42.32301" lon="2.48101">
        <ele>631.26</ele>
        <time>2011-04-02T07:42:43Z</time>
      </trkpt>
      <trkpt lat="42.323" lon="2.48102">
        <ele>631.717</ele>
        <time>2011-04-02T07:42:44Z</time>
      </trkpt>
      <trkpt lat="42.32302" lon="2.48111">
        <ele>634.115</ele>
        <time>2011-04-02T07:42:52Z</time>
      </trkpt>
      <trkpt lat="42.32303" lon="2.48116">
        <ele>636.558</ele>
        <time>2011-04-02T07:42:56Z</time>
      </trkpt>
      <trkpt lat="42.3231" lon="2.48123">
        <ele>635.177</ele>
        <time>2011-04-02T07:43:03Z</time>
      </trkpt>
      <trkpt lat="42.32317" lon="2.48125">
        <ele>633.761</ele>
        <time>2011-04-02T07:43:08Z</time>
      </trkpt>
      <trkpt lat="42.3232" lon="2.48126">
        <ele>638.027</ele>
        <time>2011-04-02T07:43:12Z</time>
      </trkpt>
      <trkpt lat="42.3233" lon="2.4813">
        <ele>639.907</ele>
        <time>2011-04-02T07:43:27Z</time>
      </trkpt>
      <trkpt lat="42.32328" lon="2.48129">
        <ele>641.348</ele>
        <time>2011-04-02T07:43:30Z</time>
      </trkpt>
      <trkpt lat="42.32326" lon="2.48127">
        <ele>641.372</ele>
        <time>2011-04-02T07:43:33Z</time>
      </trkpt>
      <trkpt lat="42.32322" lon="2.48123">
        <ele>640.995</ele>
        <time>2011-04-02T07:43:38Z</time>
      </trkpt>
      <trkpt lat="42.32321" lon="2.4812">
        <ele>642.854</ele>
        <time>2011-04-02T07:43:41Z</time>
      </trkpt>
      <trkpt lat="42.3232" lon="2.48115">
        <ele>645.211</ele>
        <time>2011-04-02T07:43:45Z</time>
      </trkpt>
      <trkpt lat="42.3232" lon="2.48107">
        <ele>645.239</ele>
        <time>2011-04-02T07:43:50Z</time>
      </trkpt>
      <trkpt lat="42.32322" lon="2.4809">
        <ele>647.672</ele>
        <time>2011-04-02T07:44:00Z</time>
      </trkpt>
      <trkpt lat="42.32326" lon="2.48083">
        <ele>649.095</ele>
        <time>2011-04-02T07:44:06Z</time>
      </trkpt>
      <trkpt lat="42.32334" lon="2.48076">
        <ele>652.949</ele>
        <time>2011-04-02T07:44:16Z</time>
      </trkpt>
      <trkpt lat="42.32336" lon="2.48073">
        <ele>653.423</ele>
        <time>2011-04-02T07:44:20Z</time>
      </trkpt>
      <trkpt lat="42.32339" lon="2.4807">
        <ele>652.907</ele>
        <time>2011-04-02T07:44:23Z</time>
      </trkpt>
      <trkpt lat="42.32345" lon="2.48057">
        <ele>656.26</ele>
        <time>2011-04-02T07:44:35Z</time>
      </trkpt>
      <trkpt lat="42.32346" lon="2.48057">
        <ele>655.874</ele>
        <time>2011-04-02T07:44:39Z</time>
      </trkpt>
      <trkpt lat="42.32349" lon="2.48075">
        <ele>660.167</ele>
        <time>2011-04-02T07:44:53Z</time>
      </trkpt>
      <trkpt lat="42.32352" lon="2.48079">
        <ele>660.636</ele>
        <time>2011-04-02T07:44:57Z</time>
      </trkpt>
      <trkpt lat="42.32352" lon="2.48086">
        <ele>663.053</ele>
        <time>2011-04-02T07:45:02Z</time>
      </trkpt>
      <trkpt lat="42.32353" lon="2.4809">
        <ele>663.081</ele>
        <time>2011-04-02T07:45:05Z</time>
      </trkpt>
      <trkpt lat="42.32356" lon="2.48095">
        <ele>665.984</ele>
        <time>2011-04-02T07:45:18Z</time>
      </trkpt>
      <trkpt lat="42.32357" lon="2.48089">
        <ele>668.765</ele>
        <time>2011-04-02T07:45:25Z</time>
      </trkpt>
      <trkpt lat="42.32358" lon="2.48087">
        <ele>668.368</ele>
        <time>2011-04-02T07:45:28Z</time>
      </trkpt>
      <trkpt lat="42.3236" lon="2.48087">
        <ele>670.214</ele>
        <time>2011-04-02T07:45:31Z</time>
      </trkpt>
      <trkpt lat="42.32362" lon="2.48094">
        <ele>671.107</ele>
        <time>2011-04-02T07:45:37Z</time>
      </trkpt>
      <trkpt lat="42.32363" lon="2.48097">
        <ele>672.687</ele>
        <time>2011-04-02T07:45:47Z</time>
      </trkpt>
      <trkpt lat="42.32363" lon="2.48094">
        <ele>673.141</ele>
        <time>2011-04-02T07:45:50Z</time>
      </trkpt>
      <trkpt lat="42.32364" lon="2.4809">
        <ele>673.524</ele>
        <time>2011-04-02T07:45:53Z</time>
      </trkpt>
      <trkpt lat="42.3237" lon="2.48078">
        <ele>677.463</ele>
        <time>2011-04-02T07:46:05Z</time>
      </trkpt>
      <trkpt lat="42.32374" lon="2.48069">
        <ele>679.81</ele>
        <time>2011-04-02T07:46:16Z</time>
      </trkpt>
      <trkpt lat="42.32376" lon="2.48066">
        <ele>681.268</ele>
        <time>2011-04-02T07:46:20Z</time>
      </trkpt>
      <trkpt lat="42.3238" lon="2.48064">
        <ele>683.651</ele>
        <time>2011-04-02T07:46:30Z</time>
      </trkpt>
      <trkpt lat="42.32383" lon="2.48076">
        <ele>685.154</ele>
        <time>2011-04-02T07:46:40Z</time>
      </trkpt>
      <trkpt lat="42.32386" lon="2.48086">
        <ele>688.056</ele>
        <time>2011-04-02T07:46:52Z</time>
      </trkpt>
      <trkpt lat="42.32387" lon="2.48081">
        <ele>691.811</ele>
        <time>2011-04-02T07:46:59Z</time>
      </trkpt>
      <trkpt lat="42.32389" lon="2.48077">
        <ele>690.407</ele>
        <time>2011-04-02T07:47:04Z</time>
      </trkpt>
      <trkpt lat="42.32391" lon="2.48071">
        <ele>694.266</ele>
        <time>2011-04-02T07:47:12Z</time>
      </trkpt>
      <trkpt lat="42.32392" lon="2.48065">
        <ele>693.79</ele>
        <time>2011-04-02T07:47:17Z</time>
      </trkpt>
      <trkpt lat="42.32395" lon="2.48055">
        <ele>697.163</ele>
        <time>2011-04-02T07:47:28Z</time>
      </trkpt>
      <trkpt lat="42.32394" lon="2.48054">
        <ele>698.162</ele>
        <time>2011-04-02T07:47:30Z</time>
      </trkpt>
      <trkpt lat="42.32389" lon="2.48038">
        <ele>700.079</ele>
        <time>2011-04-02T07:47:44Z</time>
      </trkpt>
      <trkpt lat="42.32393" lon="2.48032">
        <ele>700.547</ele>
        <time>2011-04-02T07:47:57Z</time>
      </trkpt>
      <trkpt lat="42.32395" lon="2.4803">
        <ele>701.47</ele>
        <time>2011-04-02T07:47:59Z</time>
      </trkpt>
      <trkpt lat="42.32403" lon="2.48026">
        <ele>703.371</ele>
        <time>2011-04-02T07:48:07Z</time>
      </trkpt>
      <trkpt lat="42.32406" lon="2.48027">
        <ele>704.341</ele>
        <time>2011-04-02T07:48:13Z</time>
      </trkpt>
      <trkpt lat="42.32404" lon="2.48033">
        <ele>705.815</ele>
        <time>2011-04-02T07:48:17Z</time>
      </trkpt>
      <trkpt lat="42.32406" lon="2.48035">
        <ele>707.707</ele>
        <time>2011-04-02T07:48:29Z</time>
      </trkpt>
      <trkpt lat="42.32407" lon="2.48033">
        <ele>708.628</ele>
        <time>2011-04-02T07:48:31Z</time>
      </trkpt>
      <trkpt lat="42.32409" lon="2.48027">
        <ele>710.112</ele>
        <time>2011-04-02T07:48:38Z</time>
      </trkpt>
      <trkpt lat="42.32412" lon="2.48027">
        <ele>712.025</ele>
        <time>2011-04-02T07:48:47Z</time>
      </trkpt>
      <trkpt lat="42.32417" lon="2.48016">
        <ele>715.484</ele>
        <time>2011-04-02T07:48:58Z</time>
      </trkpt>
      <trkpt lat="42.32419" lon="2.48023">
        <ele>717.331</ele>
        <time>2011-04-02T07:49:04Z</time>
      </trkpt>
      <trkpt lat="42.32417" lon="2.4803">
        <ele>719.759</ele>
        <time>2011-04-02T07:49:12Z</time>
      </trkpt>
      <trkpt lat="42.32419" lon="2.48033">
        <ele>720.792</ele>
        <time>2011-04-02T07:49:16Z</time>
      </trkpt>
      <trkpt lat="42.32425" lon="2.48031">
        <ele>722.127</ele>
        <time>2011-04-02T07:49:22Z</time>
      </trkpt>
      <trkpt lat="42.32431" lon="2.48026">
        <ele>725.068</ele>
        <time>2011-04-02T07:49:33Z</time>
      </trkpt>
      <trkpt lat="42.32431" lon="2.48018">
        <ele>726.414</ele>
        <time>2011-04-02T07:49:42Z</time>
      </trkpt>
      <trkpt lat="42.32429" lon="2.4801">
        <ele>726.407</ele>
        <time>2011-04-02T07:49:47Z</time>
      </trkpt>
      <trkpt lat="42.32427" lon="2.48007">
        <ele>729.333</ele>
        <time>2011-04-02T07:49:49Z</time>
      </trkpt>
      <trkpt lat="42.32425" lon="2.48004">
        <ele>727.987</ele>
        <time>2011-04-02T07:49:51Z</time>
      </trkpt>
      <trkpt lat="42.32418" lon="2.48">
        <ele>729.85</ele>
        <time>2011-04-02T07:49:57Z</time>
      </trkpt>
      <trkpt lat="42.32416" lon="2.47999">
        <ele>731.229</ele>
        <time>2011-04-02T07:49:59Z</time>
      </trkpt>
      <trkpt lat="42.32415" lon="2.47997">
        <ele>730.746</ele>
        <time>2011-04-02T07:50:01Z</time>
      </trkpt>
      <trkpt lat="42.32413" lon="2.47995">
        <ele>731.264</ele>
        <time>2011-04-02T07:50:03Z</time>
      </trkpt>
      <trkpt lat="42.32408" lon="2.47988">
        <ele>732.257</ele>
        <time>2011-04-02T07:50:10Z</time>
      </trkpt>
      <trkpt lat="42.32405" lon="2.47987">
        <ele>734.674</ele>
        <time>2011-04-02T07:50:13Z</time>
      </trkpt>
      <trkpt lat="42.32404" lon="2.47986">
        <ele>733.656</ele>
        <time>2011-04-02T07:50:14Z</time>
      </trkpt>
      <trkpt lat="42.32401" lon="2.4798">
        <ele>734.121</ele>
        <time>2011-04-02T07:50:29Z</time>
      </trkpt>
      <trkpt lat="42.32402" lon="2.47978">
        <ele>734.107</ele>
        <time>2011-04-02T07:50:36Z</time>
      </trkpt>
      <trkpt lat="42.32406" lon="2.47978">
        <ele>736.078</ele>
        <time>2011-04-02T07:50:42Z</time>
      </trkpt>
      <trkpt lat="42.32404" lon="2.47971">
        <ele>739.972</ele>
        <time>2011-04-02T07:50:50Z</time>
      </trkpt>
      <trkpt lat="42.32404" lon="2.4797">
        <ele>736.585</ele>
        <time>2011-04-02T07:50:51Z</time>
      </trkpt>
      <trkpt lat="42.32404" lon="2.47969">
        <ele>739.934</ele>
        <time>2011-04-02T07:50:52Z</time>
      </trkpt>
      <trkpt lat="42.32404" lon="2.47966">
        <ele>738.911</ele>
        <time>2011-04-02T07:50:55Z</time>
      </trkpt>
      <trkpt lat="42.3241" lon="2.47956">
        <ele>742.319</ele>
        <time>2011-04-02T07:51:04Z</time>
      </trkpt>
      <trkpt lat="42.32421" lon="2.47949">
        <ele>741.322</ele>
        <time>2011-04-02T07:51:17Z</time>
      </trkpt>
      <trkpt lat="42.32423" lon="2.47947">
        <ele>744.746</ele>
        <time>2011-04-02T07:51:19Z</time>
      </trkpt>
      <trkpt lat="42.32431" lon="2.47942">
        <ele>748.088</ele>
        <time>2011-04-02T07:51:27Z</time>
      </trkpt>
      <trkpt lat="42.32433" lon="2.4794">
        <ele>746.116</ele>
        <time>2011-04-02T07:51:29Z</time>
      </trkpt>
      <trkpt lat="42.32436" lon="2.47938">
        <ele>749.507</ele>
        <time>2011-04-02T07:51:32Z</time>
      </trkpt>
      <trkpt lat="42.32438" lon="2.47937">
        <ele>746.185</ele>
        <time>2011-04-02T07:51:34Z</time>
      </trkpt>
      <trkpt lat="42.32438" lon="2.47936">
        <ele>745.229</ele>
        <time>2011-04-02T07:51:35Z</time>
      </trkpt>
      <trkpt lat="42.32441" lon="2.47935">
        <ele>747.192</ele>
        <time>2011-04-02T07:51:39Z</time>
      </trkpt>
      <trkpt lat="42.32442" lon="2.47935">
        <ele>746.631</ele>
        <time>2011-04-02T07:51:40Z</time>
      </trkpt>
      <trkpt lat="42.32446" lon="2.47932">
        <ele>747.678</ele>
        <time>2011-04-02T07:51:45Z</time>
      </trkpt>
      <trkpt lat="42.32447" lon="2.47933">
        <ele>750.516</ele>
        <time>2011-04-02T07:51:47Z</time>
      </trkpt>
      <trkpt lat="42.32448" lon="2.47934">
        <ele>749.079</ele>
        <time>2011-04-02T07:51:49Z</time>
      </trkpt>
      <trkpt lat="42.32447" lon="2.47939">
        <ele>750.528</ele>
        <time>2011-04-02T07:51:54Z</time>
      </trkpt>
      <trkpt lat="42.32447" lon="2.4794">
        <ele>750.589</ele>
        <time>2011-04-02T07:51:55Z</time>
      </trkpt>
      <trkpt lat="42.32447" lon="2.47946">
        <ele>751.917</ele>
        <time>2011-04-02T07:52:01Z</time>
      </trkpt>
      <trkpt lat="42.32447" lon="2.47949">
        <ele>752.407</ele>
        <time>2011-04-02T07:52:03Z</time>
      </trkpt>
      <trkpt lat="42.32449" lon="2.47952">
        <ele>753.873</ele>
        <time>2011-04-02T07:52:08Z</time>
      </trkpt>
      <trkpt lat="42.32451" lon="2.47949">
        <ele>756.277</ele>
        <time>2011-04-02T07:52:11Z</time>
      </trkpt>
      <trkpt lat="42.32451" lon="2.47948">
        <ele>752.92</ele>
        <time>2011-04-02T07:52:13Z</time>
      </trkpt>
      <trkpt lat="42.32453" lon="2.47947">
        <ele>756.269</ele>
        <time>2011-04-02T07:52:16Z</time>
      </trkpt>
      <trkpt lat="42.32454" lon="2.47946">
        <ele>757.216</ele>
        <time>2011-04-02T07:52:18Z</time>
      </trkpt>
      <trkpt lat="42.32457" lon="2.4794">
        <ele>756.244</ele>
        <time>2011-04-02T07:52:24Z</time>
      </trkpt>
      <trkpt lat="42.32459" lon="2.47939">
        <ele>758.137</ele>
        <time>2011-04-02T07:52:28Z</time>
      </trkpt>
      <trkpt lat="42.32459" lon="2.47945">
        <ele>759.664</ele>
        <time>2011-04-02T07:52:33Z</time>
      </trkpt>
      <trkpt lat="42.3246" lon="2.4795">
        <ele>760.106</ele>
        <time>2011-04-02T07:52:37Z</time>
      </trkpt>
      <trkpt lat="42.32461" lon="2.47951">
        <ele>760.116</ele>
        <time>2011-04-02T07:52:38Z</time>
      </trkpt>
      <trkpt lat="42.32467" lon="2.47949">
        <ele>760.507</ele>
        <time>2011-04-02T07:52:47Z</time>
      </trkpt>
      <trkpt lat="42.32469" lon="2.47945">
        <ele>762.527</ele>
        <time>2011-04-02T07:52:52Z</time>
      </trkpt>
      <trkpt lat="42.32472" lon="2.47942">
        <ele>761.591</ele>
        <time>2011-04-02T07:52:57Z</time>
      </trkpt>
      <trkpt lat="42.32474" lon="2.47943">
        <ele>761.024</ele>
        <time>2011-04-02T07:52:59Z</time>
      </trkpt>
      <trkpt lat="42.32474" lon="2.47944">
        <ele>765.433</ele>
        <time>2011-04-02T07:53:00Z</time>
      </trkpt>
      <trkpt lat="42.32476" lon="2.47952">
        <ele>767.34</ele>
        <time>2011-04-02T07:53:09Z</time>
      </trkpt>
      <trkpt lat="42.3248" lon="2.47949">
        <ele>767.388</ele>
        <time>2011-04-02T07:53:14Z</time>
      </trkpt>
      <trkpt lat="42.32484" lon="2.47945">
        <ele>766.861</ele>
        <time>2011-04-02T07:53:21Z</time>
      </trkpt>
      <trkpt lat="42.32489" lon="2.47944">
        <ele>769.798</ele>
        <time>2011-04-02T07:53:26Z</time>
      </trkpt>
      <trkpt lat="42.32493" lon="2.47943">
        <ele>771.115</ele>
        <time>2011-04-02T07:53:30Z</time>
      </trkpt>
      <trkpt lat="42.32506" lon="2.47939">
        <ele>772.626</ele>
        <time>2011-04-02T07:53:43Z</time>
      </trkpt>
      <trkpt lat="42.32507" lon="2.47939">
        <ele>774.007</ele>
        <time>2011-04-02T07:53:44Z</time>
      </trkpt>
      <trkpt lat="42.3251" lon="2.47938">
        <ele>774.05</ele>
        <time>2011-04-02T07:53:47Z</time>
      </trkpt>
      <trkpt lat="42.32517" lon="2.47936">
        <ele>774.534</ele>
        <time>2011-04-02T07:53:53Z</time>
      </trkpt>
      <trkpt lat="42.3252" lon="2.47935">
        <ele>777.817</ele>
        <time>2011-04-02T07:53:56Z</time>
      </trkpt>
      <trkpt lat="42.32522" lon="2.47934">
        <ele>774.576</ele>
        <time>2011-04-02T07:53:58Z</time>
      </trkpt>
      <trkpt lat="42.32525" lon="2.47932">
        <ele>778.863</ele>
        <time>2011-04-02T07:54:01Z</time>
      </trkpt>
      <trkpt lat="42.32527" lon="2.47931">
        <ele>775.971</ele>
        <time>2011-04-02T07:54:03Z</time>
      </trkpt>
      <trkpt lat="42.32539" lon="2.47927">
        <ele>779.834</ele>
        <time>2011-04-02T07:54:13Z</time>
      </trkpt>
      <trkpt lat="42.32542" lon="2.47925">
        <ele>778.859</ele>
        <time>2011-04-02T07:54:16Z</time>
      </trkpt>
      <trkpt lat="42.32554" lon="2.47918">
        <ele>781.703</ele>
        <time>2011-04-02T07:54:28Z</time>
      </trkpt>
      <trkpt lat="42.32557" lon="2.47917">
        <ele>781.223</ele>
        <time>2011-04-02T07:54:31Z</time>
      </trkpt>
      <trkpt lat="42.3256" lon="2.47914">
        <ele>784.607</ele>
        <time>2011-04-02T07:54:34Z</time>
      </trkpt>
      <trkpt lat="42.32561" lon="2.47913">
        <ele>781.296</ele>
        <time>2011-04-02T07:54:35Z</time>
      </trkpt>
      <trkpt lat="42.32566" lon="2.4791">
        <ele>785.11</ele>
        <time>2011-04-02T07:54:39Z</time>
      </trkpt>
      <trkpt lat="42.32581" lon="2.47902">
        <ele>781.743</ele>
        <time>2011-04-02T07:54:46Z</time>
      </trkpt>
      <trkpt lat="42.32584" lon="2.479">
        <ele>783.162</ele>
        <time>2011-04-02T07:54:47Z</time>
      </trkpt>
      <trkpt lat="42.32593" lon="2.479">
        <ele>784.689</ele>
        <time>2011-04-02T07:54:51Z</time>
      </trkpt>
      <trkpt lat="42.3261" lon="2.47906">
        <ele>785.197</ele>
        <time>2011-04-02T07:55:04Z</time>
      </trkpt>
      <trkpt lat="42.32618" lon="2.4791">
        <ele>788.49</ele>
        <time>2011-04-02T07:55:10Z</time>
      </trkpt>
      <trkpt lat="42.32628" lon="2.47912">
        <ele>790.357</ele>
        <time>2011-04-02T07:55:20Z</time>
      </trkpt>
      <trkpt lat="42.32636" lon="2.47913">
        <ele>793.7</ele>
        <time>2011-04-02T07:55:29Z</time>
      </trkpt>
      <trkpt lat="42.32637" lon="2.47912">
        <ele>793.22</ele>
        <time>2011-04-02T07:55:32Z</time>
      </trkpt>
      <trkpt lat="42.32639" lon="2.47912">
        <ele>796.107</ele>
        <time>2011-04-02T07:55:34Z</time>
      </trkpt>
      <trkpt lat="42.3264" lon="2.47911">
        <ele>792.336</ele>
        <time>2011-04-02T07:55:35Z</time>
      </trkpt>
      <trkpt lat="42.32647" lon="2.47911">
        <ele>793.73</ele>
        <time>2011-04-02T07:55:38Z</time>
      </trkpt>
      <trkpt lat="42.32661" lon="2.47914">
        <ele>791.873</ele>
        <time>2011-04-02T07:55:44Z</time>
      </trkpt>
      <trkpt lat="42.32675" lon="2.47917">
        <ele>797.172</ele>
        <time>2011-04-02T07:55:50Z</time>
      </trkpt>
      <trkpt lat="42.3268" lon="2.47918">
        <ele>794.289</ele>
        <time>2011-04-02T07:55:54Z</time>
      </trkpt>
      <trkpt lat="42.32695" lon="2.4793">
        <ele>795.297</ele>
        <time>2011-04-02T07:56:08Z</time>
      </trkpt>
      <trkpt lat="42.32698" lon="2.47931">
        <ele>798.01</ele>
        <time>2011-04-02T07:56:10Z</time>
      </trkpt>
      <trkpt lat="42.32714" lon="2.47941">
        <ele>798.532</ele>
        <time>2011-04-02T07:56:25Z</time>
      </trkpt>
      <trkpt lat="42.32723" lon="2.47948">
        <ele>801.992</ele>
        <time>2011-04-02T07:56:33Z</time>
      </trkpt>
      <trkpt lat="42.3273" lon="2.47949">
        <ele>801.411</ele>
        <time>2011-04-02T07:56:38Z</time>
      </trkpt>
      <trkpt lat="42.32745" lon="2.47964">
        <ele>803.307</ele>
        <time>2011-04-02T07:56:51Z</time>
      </trkpt>
      <trkpt lat="42.3275" lon="2.47976">
        <ele>805.794</ele>
        <time>2011-04-02T07:56:58Z</time>
      </trkpt>
      <trkpt lat="42.32754" lon="2.47993">
        <ele>808.638</ele>
        <time>2011-04-02T07:57:09Z</time>
      </trkpt>
      <trkpt lat="42.32754" lon="2.47994">
        <ele>805.221</ele>
        <time>2011-04-02T07:57:10Z</time>
      </trkpt>
      <trkpt lat="42.32755" lon="2.47998">
        <ele>810.17</ele>
        <time>2011-04-02T07:57:15Z</time>
      </trkpt>
      <trkpt lat="42.32755" lon="2.47999">
        <ele>807.247</ele>
        <time>2011-04-02T07:57:16Z</time>
      </trkpt>
      <trkpt lat="42.32755" lon="2.48002">
        <ele>810.555</ele>
        <time>2011-04-02T07:57:18Z</time>
      </trkpt>
      <trkpt lat="42.32756" lon="2.48003">
        <ele>810.178</ele>
        <time>2011-04-02T07:57:19Z</time>
      </trkpt>
      <trkpt lat="42.32757" lon="2.48006">
        <ele>809.172</ele>
        <time>2011-04-02T07:57:21Z</time>
      </trkpt>
      <trkpt lat="42.32759" lon="2.4801">
        <ele>810.513</ele>
        <time>2011-04-02T07:57:24Z</time>
      </trkpt>
      <trkpt lat="42.32761" lon="2.48018">
        <ele>812.514</ele>
        <time>2011-04-02T07:57:29Z</time>
      </trkpt>
      <trkpt lat="42.32763" lon="2.4803">
        <ele>815.807</ele>
        <time>2011-04-02T07:57:33Z</time>
      </trkpt>
      <trkpt lat="42.32761" lon="2.48043">
        <ele>814.448</ele>
        <time>2011-04-02T07:57:39Z</time>
      </trkpt>
      <trkpt lat="42.32762" lon="2.48048">
        <ele>815.812</ele>
        <time>2011-04-02T07:57:43Z</time>
      </trkpt>
      <trkpt lat="42.32768" lon="2.48057">
        <ele>816.335</ele>
        <time>2011-04-02T07:57:50Z</time>
      </trkpt>
      <trkpt lat="42.3277" lon="2.4806">
        <ele>815.894</ele>
        <time>2011-04-02T07:57:53Z</time>
      </trkpt>
      <trkpt lat="42.32771" lon="2.48061">
        <ele>819.761</ele>
        <time>2011-04-02T07:57:54Z</time>
      </trkpt>
      <trkpt lat="42.32772" lon="2.48062">
        <ele>816.399</ele>
        <time>2011-04-02T07:57:55Z</time>
      </trkpt>
      <trkpt lat="42.32774" lon="2.48065">
        <ele>819.732</ele>
        <time>2011-04-02T07:57:58Z</time>
      </trkpt>
      <trkpt lat="42.32774" lon="2.48066">
        <ele>817.715</ele>
        <time>2011-04-02T07:57:59Z</time>
      </trkpt>
      <trkpt lat="42.32776" lon="2.48074">
        <ele>821.665</ele>
        <time>2011-04-02T07:58:04Z</time>
      </trkpt>
      <trkpt lat="42.32777" lon="2.48076">
        <ele>821.111</ele>
        <time>2011-04-02T07:58:05Z</time>
      </trkpt>
      <trkpt lat="42.32778" lon="2.48079">
        <ele>820.107</ele>
        <time>2011-04-02T07:58:07Z</time>
      </trkpt>
      <trkpt lat="42.3278" lon="2.48081">
        <ele>823.592</ele>
        <time>2011-04-02T07:58:09Z</time>
      </trkpt>
      <trkpt lat="42.32781" lon="2.48082">
        <ele>821.656</ele>
        <time>2011-04-02T07:58:10Z</time>
      </trkpt>
      <trkpt lat="42.32786" lon="2.48086">
        <ele>819.289</ele>
        <time>2011-04-02T07:58:15Z</time>
      </trkpt>
      <trkpt lat="42.32787" lon="2.48086">
        <ele>823.588</ele>
        <time>2011-04-02T07:58:16Z</time>
      </trkpt>
      <trkpt lat="42.32787" lon="2.48086">
        <ele>823.035</ele>
        <time>2011-04-02T07:58:17Z</time>
      </trkpt>
      <trkpt lat="42.32794" lon="2.48088">
        <ele>823.053</ele>
        <time>2011-04-02T07:58:24Z</time>
      </trkpt>
      <trkpt lat="42.32795" lon="2.4809">
        <ele>824.576</ele>
        <time>2011-04-02T07:58:26Z</time>
      </trkpt>
      <trkpt lat="42.32797" lon="2.48092">
        <ele>825.489</ele>
        <time>2011-04-02T07:58:30Z</time>
      </trkpt>
      <trkpt lat="42.32799" lon="2.48093">
        <ele>825.906</ele>
        <time>2011-04-02T07:58:33Z</time>
      </trkpt>
      <trkpt lat="42.32803" lon="2.48095">
        <ele>827.826</ele>
        <time>2011-04-02T07:58:39Z</time>
      </trkpt>
      <trkpt lat="42.32808" lon="2.48098">
        <ele>828.807</ele>
        <time>2011-04-02T07:58:45Z</time>
      </trkpt>
      <trkpt lat="42.32814" lon="2.48103">
        <ele>829.379</ele>
        <time>2011-04-02T07:58:50Z</time>
      </trkpt>
      <trkpt lat="42.32816" lon="2.48105">
        <ele>831.713</ele>
        <time>2011-04-02T07:58:52Z</time>
      </trkpt>
      <trkpt lat="42.32818" lon="2.4811">
        <ele>831.286</ele>
        <time>2011-04-02T07:58:56Z</time>
      </trkpt>
      <trkpt lat="42.32822" lon="2.48119">
        <ele>829.835</ele>
        <time>2011-04-02T07:59:01Z</time>
      </trkpt>
      <trkpt lat="42.32825" lon="2.48126">
        <ele>830.252</ele>
        <time>2011-04-02T07:59:05Z</time>
      </trkpt>
      <trkpt lat="42.32826" lon="2.48128">
        <ele>833.11</ele>
        <time>2011-04-02T07:59:06Z</time>
      </trkpt>
      <trkpt lat="42.3283" lon="2.48135">
        <ele>834.693</ele>
        <time>2011-04-02T07:59:11Z</time>
      </trkpt>
      <trkpt lat="42.32832" lon="2.48139">
        <ele>836.527</ele>
        <time>2011-04-02T07:59:14Z</time>
      </trkpt>
      <trkpt lat="42.32839" lon="2.48147">
        <ele>836.068</ele>
        <time>2011-04-02T07:59:23Z</time>
      </trkpt>
      <trkpt lat="42.32842" lon="2.48147">
        <ele>838.414</ele>
        <time>2011-04-02T07:59:26Z</time>
      </trkpt>
      <trkpt lat="42.32844" lon="2.48146">
        <ele>839.407</ele>
        <time>2011-04-02T07:59:28Z</time>
      </trkpt>
      <trkpt lat="42.32851" lon="2.48144">
        <ele>838.933</ele>
        <time>2011-04-02T07:59:36Z</time>
      </trkpt>
      <trkpt lat="42.32861" lon="2.48149">
        <ele>842.337</ele>
        <time>2011-04-02T07:59:46Z</time>
      </trkpt>
      <trkpt lat="42.32862" lon="2.48149">
        <ele>840.86</ele>
        <time>2011-04-02T07:59:47Z</time>
      </trkpt>
      <trkpt lat="42.32871" lon="2.48151">
        <ele>845.189</ele>
        <time>2011-04-02T07:59:56Z</time>
      </trkpt>
      <trkpt lat="42.32872" lon="2.48151">
        <ele>841.866</ele>
        <time>2011-04-02T07:59:57Z</time>
      </trkpt>
      <trkpt lat="42.32873" lon="2.48152">
        <ele>841.884</ele>
        <time>2011-04-02T07:59:58Z</time>
      </trkpt>
      <trkpt lat="42.32875" lon="2.48154">
        <ele>845.187</ele>
        <time>2011-04-02T08:00:00Z</time>
      </trkpt>
      <trkpt lat="42.32879" lon="2.48159">
        <ele>845.148</ele>
        <time>2011-04-02T08:00:04Z</time>
      </trkpt>
      <trkpt lat="42.32883" lon="2.48174">
        <ele>846.661</ele>
        <time>2011-04-02T08:00:13Z</time>
      </trkpt>
      <trkpt lat="42.32888" lon="2.48179">
        <ele>847.517</ele>
        <time>2011-04-02T08:00:18Z</time>
      </trkpt>
      <trkpt lat="42.32889" lon="2.4818">
        <ele>848.507</ele>
        <time>2011-04-02T08:00:19Z</time>
      </trkpt>
      <trkpt lat="42.32891" lon="2.48181">
        <ele>846.125</ele>
        <time>2011-04-02T08:00:22Z</time>
      </trkpt>
      <trkpt lat="42.32892" lon="2.48182">
        <ele>849.919</ele>
        <time>2011-04-02T08:00:24Z</time>
      </trkpt>
      <trkpt lat="42.32893" lon="2.48183">
        <ele>846.672</ele>
        <time>2011-04-02T08:00:25Z</time>
      </trkpt>
      <trkpt lat="42.32893" lon="2.48184">
        <ele>850.461</ele>
        <time>2011-04-02T08:00:26Z</time>
      </trkpt>
      <trkpt lat="42.32893" lon="2.48184">
        <ele>849.988</ele>
        <time>2011-04-02T08:00:27Z</time>
      </trkpt>
      <trkpt lat="42.32899" lon="2.48192">
        <ele>853.856</ele>
        <time>2011-04-02T08:00:38Z</time>
      </trkpt>
      <trkpt lat="42.329" lon="2.48195">
        <ele>853.329</ele>
        <time>2011-04-02T08:00:41Z</time>
      </trkpt>
      <trkpt lat="42.32905" lon="2.48211">
        <ele>855.218</ele>
        <time>2011-04-02T08:00:51Z</time>
      </trkpt>
      <trkpt lat="42.32909" lon="2.48216">
        <ele>858.198</ele>
        <time>2011-04-02T08:00:57Z</time>
      </trkpt>
      <trkpt lat="42.32913" lon="2.48219">
        <ele>858.117</ele>
        <time>2011-04-02T08:01:02Z</time>
      </trkpt>
      <trkpt lat="42.32917" lon="2.48225">
        <ele>856.707</ele>
        <time>2011-04-02T08:01:07Z</time>
      </trkpt>
      <trkpt lat="42.32924" lon="2.4823">
        <ele>861.512</ele>
        <time>2011-04-02T08:01:14Z</time>
      </trkpt>
      <trkpt lat="42.32927" lon="2.48234">
        <ele>862.066</ele>
        <time>2011-04-02T08:01:19Z</time>
      </trkpt>
      <trkpt lat="42.32933" lon="2.48237">
        <ele>862.959</ele>
        <time>2011-04-02T08:01:25Z</time>
      </trkpt>
      <trkpt lat="42.32941" lon="2.48251">
        <ele>864.878</ele>
        <time>2011-04-02T08:01:34Z</time>
      </trkpt>
      <trkpt lat="42.32943" lon="2.4826">
        <ele>865.815</ele>
        <time>2011-04-02T08:01:39Z</time>
      </trkpt>
      <trkpt lat="42.3294" lon="2.48278">
        <ele>866.863</ele>
        <time>2011-04-02T08:01:48Z</time>
      </trkpt>
      <trkpt lat="42.3294" lon="2.48281">
        <ele>866.856</ele>
        <time>2011-04-02T08:01:50Z</time>
      </trkpt>
      <trkpt lat="42.3294" lon="2.48289">
        <ele>867.342</ele>
        <time>2011-04-02T08:01:55Z</time>
      </trkpt>
      <trkpt lat="42.32941" lon="2.48295">
        <ele>870.622</ele>
        <time>2011-04-02T08:01:59Z</time>
      </trkpt>
      <trkpt lat="42.32941" lon="2.48296">
        <ele>869.214</ele>
        <time>2011-04-02T08:02:00Z</time>
      </trkpt>
      <trkpt lat="42.32942" lon="2.48301">
        <ele>871.107</ele>
        <time>2011-04-02T08:02:08Z</time>
      </trkpt>
      <trkpt lat="42.32943" lon="2.48303">
        <ele>872.545</ele>
        <time>2011-04-02T08:02:10Z</time>
      </trkpt>
      <trkpt lat="42.32945" lon="2.48315">
        <ele>875.459</ele>
        <time>2011-04-02T08:02:18Z</time>
      </trkpt>
      <trkpt lat="42.32948" lon="2.48322">
        <ele>875.972</ele>
        <time>2011-04-02T08:02:25Z</time>
      </trkpt>
      <trkpt lat="42.32951" lon="2.48332">
        <ele>879.321</ele>
        <time>2011-04-02T08:02:32Z</time>
      </trkpt>
      <trkpt lat="42.32955" lon="2.48347">
        <ele>875.988</ele>
        <time>2011-04-02T08:02:41Z</time>
      </trkpt>
      <trkpt lat="42.32955" lon="2.48348">
        <ele>880.266</ele>
        <time>2011-04-02T08:02:42Z</time>
      </trkpt>
      <trkpt lat="42.3296" lon="2.48357">
        <ele>883.139</ele>
        <time>2011-04-02T08:02:49Z</time>
      </trkpt>
      <trkpt lat="42.32963" lon="2.4836">
        <ele>879.398</ele>
        <time>2011-04-02T08:02:53Z</time>
      </trkpt>
      <trkpt lat="42.32965" lon="2.4836">
        <ele>883.115</ele>
        <time>2011-04-02T08:02:55Z</time>
      </trkpt>
      <trkpt lat="42.32974" lon="2.48359">
        <ele>885.026</ele>
        <time>2011-04-02T08:03:07Z</time>
      </trkpt>
      <trkpt lat="42.32978" lon="2.48359">
        <ele>887.907</ele>
        <time>2011-04-02T08:03:14Z</time>
      </trkpt>
      <trkpt lat="42.32979" lon="2.48359">
        <ele>887.44</ele>
        <time>2011-04-02T08:03:16Z</time>
      </trkpt>
      <trkpt lat="42.32981" lon="2.48358">
        <ele>889.424</ele>
        <time>2011-04-02T08:03:19Z</time>
      </trkpt>
      <trkpt lat="42.32984" lon="2.48358">
        <ele>889.887</ele>
        <time>2011-04-02T08:03:23Z</time>
      </trkpt>
      <trkpt lat="42.32989" lon="2.48359">
        <ele>891.846</ele>
        <time>2011-04-02T08:03:29Z</time>
      </trkpt>
      <trkpt lat="42.32994" lon="2.4836">
        <ele>894.683</ele>
        <time>2011-04-02T08:03:33Z</time>
      </trkpt>
      <trkpt lat="42.32996" lon="2.4836">
        <ele>890.391</ele>
        <time>2011-04-02T08:03:35Z</time>
      </trkpt>
      <trkpt lat="42.32997" lon="2.4836">
        <ele>893.754</ele>
        <time>2011-04-02T08:03:36Z</time>
      </trkpt>
      <trkpt lat="42.32998" lon="2.4836">
        <ele>892.798</ele>
        <time>2011-04-02T08:03:37Z</time>
      </trkpt>
      <trkpt lat="42.33002" lon="2.4836">
        <ele>892.215</ele>
        <time>2011-04-02T08:03:41Z</time>
      </trkpt>
      <trkpt lat="42.33004" lon="2.48361">
        <ele>894.626</ele>
        <time>2011-04-02T08:03:43Z</time>
      </trkpt>
      <trkpt lat="42.33005" lon="2.48361">
        <ele>893.707</ele>
        <time>2011-04-02T08:03:44Z</time>
      </trkpt>
      <trkpt lat="42.33007" lon="2.48362">
        <ele>895.13</ele>
        <time>2011-04-02T08:03:46Z</time>
      </trkpt>
      <trkpt lat="42.33009" lon="2.48362">
        <ele>894.224</ele>
        <time>2011-04-02T08:03:48Z</time>
      </trkpt>
      <trkpt lat="42.33013" lon="2.48366">
        <ele>897.117</ele>
        <time>2011-04-02T08:03:52Z</time>
      </trkpt>
      <trkpt lat="42.33018" lon="2.4837">
        <ele>898.596</ele>
        <time>2011-04-02T08:03:57Z</time>
      </trkpt>
      <trkpt lat="42.33022" lon="2.48371">
        <ele>895.173</ele>
        <time>2011-04-02T08:04:00Z</time>
      </trkpt>
      <trkpt lat="42.33023" lon="2.48372">
        <ele>897.521</ele>
        <time>2011-04-02T08:04:01Z</time>
      </trkpt>
      <trkpt lat="42.33026" lon="2.48375">
        <ele>899.014</ele>
        <time>2011-04-02T08:04:04Z</time>
      </trkpt>
      <trkpt lat="42.3303" lon="2.48381">
        <ele>900.493</ele>
        <time>2011-04-02T08:04:09Z</time>
      </trkpt>
      <trkpt lat="42.33035" lon="2.48385">
        <ele>902.365</ele>
        <time>2011-04-02T08:04:14Z</time>
      </trkpt>
      <trkpt lat="42.33041" lon="2.48389">
        <ele>901.421</ele>
        <time>2011-04-02T08:04:20Z</time>
      </trkpt>
      <trkpt lat="42.33045" lon="2.48391">
        <ele>904.307</ele>
        <time>2011-04-02T08:04:25Z</time>
      </trkpt>
      <trkpt lat="42.33047" lon="2.48391">
        <ele>905.24</ele>
        <time>2011-04-02T08:04:29Z</time>
      </trkpt>
      <trkpt lat="42.33052" lon="2.4839">
        <ele>906.724</ele>
        <time>2011-04-02T08:04:36Z</time>
      </trkpt>
      <trkpt lat="42.33053" lon="2.4839">
        <ele>907.657</ele>
        <time>2011-04-02T08:04:37Z</time>
      </trkpt>
      <trkpt lat="42.33056" lon="2.4839">
        <ele>909.596</ele>
        <time>2011-04-02T08:04:40Z</time>
      </trkpt>
      <trkpt lat="42.33057" lon="2.48391">
        <ele>905.243</ele>
        <time>2011-04-02T08:04:41Z</time>
      </trkpt>
      <trkpt lat="42.33061" lon="2.48391">
        <ele>907.681</ele>
        <time>2011-04-02T08:04:45Z</time>
      </trkpt>
      <trkpt lat="42.33063" lon="2.4839">
        <ele>908.684</ele>
        <time>2011-04-02T08:04:48Z</time>
      </trkpt>
      <trkpt lat="42.33074" lon="2.48393">
        <ele>913.479</ele>
        <time>2011-04-02T08:05:01Z</time>
      </trkpt>
      <trkpt lat="42.33078" lon="2.48393">
        <ele>911.505</ele>
        <time>2011-04-02T08:05:04Z</time>
      </trkpt>
      <trkpt lat="42.33079" lon="2.48394">
        <ele>913.425</ele>
        <time>2011-04-02T08:05:05Z</time>
      </trkpt>
      <trkpt lat="42.33088" lon="2.48399">
        <ele>911.507</ele>
        <time>2011-04-02T08:05:16Z</time>
      </trkpt>
      <trkpt lat="42.3309" lon="2.48398">
        <ele>915.848</ele>
        <time>2011-04-02T08:05:18Z</time>
      </trkpt>
      <trkpt lat="42.33101" lon="2.48394">
        <ele>918.232</ele>
        <time>2011-04-02T08:05:30Z</time>
      </trkpt>
      <trkpt lat="42.33109" lon="2.48391">
        <ele>920.145</ele>
        <time>2011-04-02T08:05:39Z</time>
      </trkpt>
      <trkpt lat="42.33112" lon="2.4839">
        <ele>917.294</ele>
        <time>2011-04-02T08:05:43Z</time>
      </trkpt>
      <trkpt lat="42.33113" lon="2.4839">
        <ele>923.571</ele>
        <time>2011-04-02T08:05:44Z</time>
      </trkpt>
      <trkpt lat="42.33114" lon="2.4839">
        <ele>919.259</ele>
        <time>2011-04-02T08:05:45Z</time>
      </trkpt>
      <trkpt lat="42.33114" lon="2.4839">
        <ele>919.292</ele>
        <time>2011-04-02T08:05:46Z</time>
      </trkpt>
      <trkpt lat="42.33117" lon="2.48392">
        <ele>920.151</ele>
        <time>2011-04-02T08:05:49Z</time>
      </trkpt>
      <trkpt lat="42.33126" lon="2.48397">
        <ele>921.601</ele>
        <time>2011-04-02T08:05:59Z</time>
      </trkpt>
      <trkpt lat="42.33127" lon="2.48397">
        <ele>925.411</ele>
        <time>2011-04-02T08:06:00Z</time>
      </trkpt>
      <trkpt lat="42.33133" lon="2.48405">
        <ele>924.007</ele>
        <time>2011-04-02T08:06:06Z</time>
      </trkpt>
      <trkpt lat="42.33134" lon="2.48407">
        <ele>926.486</ele>
        <time>2011-04-02T08:06:08Z</time>
      </trkpt>
      <trkpt lat="42.33146" lon="2.48416">
        <ele>927.34</ele>
        <time>2011-04-02T08:06:19Z</time>
      </trkpt>
      <trkpt lat="42.33147" lon="2.48417">
        <ele>925.963</ele>
        <time>2011-04-02T08:06:20Z</time>
      </trkpt>
      <trkpt lat="42.33149" lon="2.48418">
        <ele>928.382</ele>
        <time>2011-04-02T08:06:22Z</time>
      </trkpt>
      <trkpt lat="42.33153" lon="2.48421">
        <ele>925.969</ele>
        <time>2011-04-02T08:06:26Z</time>
      </trkpt>
      <trkpt lat="42.33155" lon="2.48422">
        <ele>930.277</ele>
        <time>2011-04-02T08:06:28Z</time>
      </trkpt>
      <trkpt lat="42.33156" lon="2.48423">
        <ele>930.26</ele>
        <time>2011-04-02T08:06:29Z</time>
      </trkpt>
      <trkpt lat="42.33158" lon="2.48426">
        <ele>928.347</ele>
        <time>2011-04-02T08:06:32Z</time>
      </trkpt>
      <trkpt lat="42.3316" lon="2.4843">
        <ele>930.729</ele>
        <time>2011-04-02T08:06:35Z</time>
      </trkpt>
      <trkpt lat="42.33161" lon="2.48432">
        <ele>929.721</ele>
        <time>2011-04-02T08:06:37Z</time>
      </trkpt>
      <trkpt lat="42.33164" lon="2.48435">
        <ele>932.107</ele>
        <time>2011-04-02T08:06:42Z</time>
      </trkpt>
      <trkpt lat="42.33167" lon="2.48436">
        <ele>932.135</ele>
        <time>2011-04-02T08:06:46Z</time>
      </trkpt>
      <trkpt lat="42.33168" lon="2.48436">
        <ele>934.579</ele>
        <time>2011-04-02T08:06:49Z</time>
      </trkpt>
      <trkpt lat="42.3317" lon="2.48438">
        <ele>932.122</ele>
        <time>2011-04-02T08:06:54Z</time>
      </trkpt>
      <trkpt lat="42.33171" lon="2.48437">
        <ele>931.231</ele>
        <time>2011-04-02T08:06:56Z</time>
      </trkpt>
      <trkpt lat="42.33172" lon="2.48437">
        <ele>936.018</ele>
        <time>2011-04-02T08:06:57Z</time>
      </trkpt>
      <trkpt lat="42.33176" lon="2.48434">
        <ele>940.336</ele>
        <time>2011-04-02T08:07:03Z</time>
      </trkpt>
      <trkpt lat="42.33176" lon="2.48433">
        <ele>937.919</ele>
        <time>2011-04-02T08:07:04Z</time>
      </trkpt>
      <trkpt lat="42.33176" lon="2.48432">
        <ele>935.084</ele>
        <time>2011-04-02T08:07:06Z</time>
      </trkpt>
      <trkpt lat="42.33177" lon="2.48432">
        <ele>940.807</ele>
        <time>2011-04-02T08:07:07Z</time>
      </trkpt>
      <trkpt lat="42.33178" lon="2.48431">
        <ele>936.917</ele>
        <time>2011-04-02T08:07:08Z</time>
      </trkpt>
      <trkpt lat="42.33179" lon="2.4843">
        <ele>936.507</ele>
        <time>2011-04-02T08:07:10Z</time>
      </trkpt>
      <trkpt lat="42.3318" lon="2.4843">
        <ele>937.419</ele>
        <time>2011-04-02T08:07:12Z</time>
      </trkpt>
      <trkpt lat="42.33181" lon="2.48429">
        <ele>940.333</ele>
        <time>2011-04-02T08:07:13Z</time>
      </trkpt>
      <trkpt lat="42.33181" lon="2.48428">
        <ele>937.466</ele>
        <time>2011-04-02T08:07:15Z</time>
      </trkpt>
      <trkpt lat="42.33182" lon="2.48427">
        <ele>943.265</ele>
        <time>2011-04-02T08:07:16Z</time>
      </trkpt>
      <trkpt lat="42.33186" lon="2.48425">
        <ele>939.472</ele>
        <time>2011-04-02T08:07:23Z</time>
      </trkpt>
      <trkpt lat="42.33189" lon="2.48424">
        <ele>941.83</ele>
        <time>2011-04-02T08:07:27Z</time>
      </trkpt>
      <trkpt lat="42.33192" lon="2.48424">
        <ele>943.773</ele>
        <time>2011-04-02T08:07:30Z</time>
      </trkpt>
      <trkpt lat="42.33194" lon="2.48423">
        <ele>945.116</ele>
        <time>2011-04-02T08:07:32Z</time>
      </trkpt>
      <trkpt lat="42.33197" lon="2.48424">
        <ele>945.676</ele>
        <time>2011-04-02T08:07:35Z</time>
      </trkpt>
      <trkpt lat="42.33203" lon="2.48428">
        <ele>948.013</ele>
        <time>2011-04-02T08:07:41Z</time>
      </trkpt>
      <trkpt lat="42.33205" lon="2.4843">
        <ele>948.507</ele>
        <time>2011-04-02T08:07:43Z</time>
      </trkpt>
      <trkpt lat="42.33209" lon="2.48432">
        <ele>945.642</ele>
        <time>2011-04-02T08:07:47Z</time>
      </trkpt>
      <trkpt lat="42.33211" lon="2.48433">
        <ele>949.926</ele>
        <time>2011-04-02T08:07:49Z</time>
      </trkpt>
      <trkpt lat="42.33212" lon="2.48434">
        <ele>949.439</ele>
        <time>2011-04-02T08:07:50Z</time>
      </trkpt>
      <trkpt lat="42.33213" lon="2.48434">
        <ele>947.598</ele>
        <time>2011-04-02T08:07:51Z</time>
      </trkpt>
      <trkpt lat="42.33216" lon="2.48435">
        <ele>950.915</ele>
        <time>2011-04-02T08:07:54Z</time>
      </trkpt>
      <trkpt lat="42.33221" lon="2.48435">
        <ele>950.963</ele>
        <time>2011-04-02T08:07:59Z</time>
      </trkpt>
      <trkpt lat="42.33222" lon="2.48435">
        <ele>949.956</ele>
        <time>2011-04-02T08:08:00Z</time>
      </trkpt>
      <trkpt lat="42.33226" lon="2.48433">
        <ele>951.483</ele>
        <time>2011-04-02T08:08:03Z</time>
      </trkpt>
      <trkpt lat="42.33229" lon="2.48433">
        <ele>949.925</ele>
        <time>2011-04-02T08:08:06Z</time>
      </trkpt>
      <trkpt lat="42.33231" lon="2.48433">
        <ele>952.317</ele>
        <time>2011-04-02T08:08:08Z</time>
      </trkpt>
      <trkpt lat="42.33235" lon="2.4843">
        <ele>949.007</ele>
        <time>2011-04-02T08:08:12Z</time>
      </trkpt>
      <trkpt lat="42.33236" lon="2.48429">
        <ele>953.389</ele>
        <time>2011-04-02T08:08:13Z</time>
      </trkpt>
      <trkpt lat="42.33245" lon="2.48426">
        <ele>953.853</ele>
        <time>2011-04-02T08:08:22Z</time>
      </trkpt>
      <trkpt lat="42.33253" lon="2.48422">
        <ele>957.196</ele>
        <time>2011-04-02T08:08:33Z</time>
      </trkpt>
      <trkpt lat="42.33255" lon="2.4842">
        <ele>957.145</ele>
        <time>2011-04-02T08:08:36Z</time>
      </trkpt>
      <trkpt lat="42.33258" lon="2.48418">
        <ele>957.162</ele>
        <time>2011-04-02T08:08:40Z</time>
      </trkpt>
      <trkpt lat="42.33262" lon="2.48416">
        <ele>959.16</ele>
        <time>2011-04-02T08:08:43Z</time>
      </trkpt>
      <trkpt lat="42.33264" lon="2.48415">
        <ele>954.773</ele>
        <time>2011-04-02T08:08:45Z</time>
      </trkpt>
      <trkpt lat="42.33265" lon="2.48415">
        <ele>959.526</ele>
        <time>2011-04-02T08:08:46Z</time>
      </trkpt>
      <trkpt lat="42.33282" lon="2.48399">
        <ele>958.147</ele>
        <time>2011-04-02T08:08:56Z</time>
      </trkpt>
      <trkpt lat="42.33292" lon="2.48392">
        <ele>961.511</ele>
        <time>2011-04-02T08:09:01Z</time>
      </trkpt>
      <trkpt lat="42.33294" lon="2.48391">
        <ele>957.607</ele>
        <time>2011-04-02T08:09:02Z</time>
      </trkpt>
      <trkpt lat="42.33296" lon="2.48391">
        <ele>961.083</ele>
        <time>2011-04-02T08:09:03Z</time>
      </trkpt>
      <trkpt lat="42.33304" lon="2.48389">
        <ele>961.547</ele>
        <time>2011-04-02T08:09:09Z</time>
      </trkpt>
      <trkpt lat="42.33307" lon="2.48388">
        <ele>959.58</ele>
        <time>2011-04-02T08:09:11Z</time>
      </trkpt>
      <trkpt lat="42.33309" lon="2.48388">
        <ele>962.939</ele>
        <time>2011-04-02T08:09:12Z</time>
      </trkpt>
      <trkpt lat="42.33311" lon="2.48388">
        <ele>957.676</ele>
        <time>2011-04-02T08:09:13Z</time>
      </trkpt>
      <trkpt lat="42.33315" lon="2.48388">
        <ele>962.914</ele>
        <time>2011-04-02T08:09:15Z</time>
      </trkpt>
      <trkpt lat="42.33317" lon="2.48387">
        <ele>961.947</ele>
        <time>2011-04-02T08:09:16Z</time>
      </trkpt>
      <trkpt lat="42.33336" lon="2.48383">
        <ele>958.631</ele>
        <time>2011-04-02T08:09:25Z</time>
      </trkpt>
      <trkpt lat="42.33339" lon="2.48383">
        <ele>961.961</ele>
        <time>2011-04-02T08:09:27Z</time>
      </trkpt>
      <trkpt lat="42.33342" lon="2.48382">
        <ele>961.907</ele>
        <time>2011-04-02T08:09:28Z</time>
      </trkpt>
      <trkpt lat="42.33354" lon="2.48381">
        <ele>964.307</ele>
        <time>2011-04-02T08:09:34Z</time>
      </trkpt>
      <trkpt lat="42.33358" lon="2.4838">
        <ele>963.954</ele>
        <time>2011-04-02T08:09:37Z</time>
      </trkpt>
      <trkpt lat="42.33364" lon="2.48381">
        <ele>963.498</ele>
        <time>2011-04-02T08:09:42Z</time>
      </trkpt>
      <trkpt lat="42.33369" lon="2.48385">
        <ele>966.321</ele>
        <time>2011-04-02T08:09:47Z</time>
      </trkpt>
      <trkpt lat="42.33372" lon="2.48386">
        <ele>964.82</ele>
        <time>2011-04-02T08:09:50Z</time>
      </trkpt>
      <trkpt lat="42.33374" lon="2.48386">
        <ele>960.047</ele>
        <time>2011-04-02T08:09:58Z</time>
      </trkpt>
      <trkpt lat="42.33374" lon="2.48386">
        <ele>965.365</ele>
        <time>2011-04-02T08:09:59Z</time>
      </trkpt>
      <trkpt lat="42.33374" lon="2.48386">
        <ele>968.298</ele>
        <time>2011-04-02T08:10:00Z</time>
      </trkpt>
      <trkpt lat="42.33382" lon="2.48391">
        <ele>968.775</ele>
        <time>2011-04-02T08:10:06Z</time>
      </trkpt>
      <trkpt lat="42.33389" lon="2.48391">
        <ele>970.628</ele>
        <time>2011-04-02T08:10:12Z</time>
      </trkpt>
      <trkpt lat="42.3339" lon="2.4839">
        <ele>966.32</ele>
        <time>2011-04-02T08:10:13Z</time>
      </trkpt>
      <trkpt lat="42.33395" lon="2.48386">
        <ele>969.607</ele>
        <time>2011-04-02T08:10:18Z</time>
      </trkpt>
      <trkpt lat="42.33398" lon="2.48384">
        <ele>968.748</ele>
        <time>2011-04-02T08:10:22Z</time>
      </trkpt>
      <trkpt lat="42.33399" lon="2.48382">
        <ele>973.092</ele>
        <time>2011-04-02T08:10:27Z</time>
      </trkpt>
      <trkpt lat="42.33399" lon="2.48382">
        <ele>969.625</ele>
        <time>2011-04-02T08:10:28Z</time>
      </trkpt>
      <trkpt lat="42.334" lon="2.4838">
        <ele>970.144</ele>
        <time>2011-04-02T08:10:33Z</time>
      </trkpt>
      <trkpt lat="42.33399" lon="2.4838">
        <ele>969.261</ele>
        <time>2011-04-02T08:10:57Z</time>
      </trkpt>
      <trkpt lat="42.33399" lon="2.4838">
        <ele>967.779</ele>
        <time>2011-04-02T08:11:01Z</time>
      </trkpt>
      <trkpt lat="42.334" lon="2.4838">
        <ele>974.452</ele>
        <time>2011-04-02T08:11:04Z</time>
      </trkpt>
      <trkpt lat="42.33399" lon="2.4838">
        <ele>967.227</ele>
        <time>2011-04-02T08:11:05Z</time>
      </trkpt>
      <trkpt lat="42.33399" lon="2.48379">
        <ele>972.068</ele>
        <time>2011-04-02T08:11:06Z</time>
      </trkpt>
      <trkpt lat="42.33398" lon="2.48379">
        <ele>968.714</ele>
        <time>2011-04-02T08:11:16Z</time>
      </trkpt>
      <trkpt lat="42.33399" lon="2.48379">
        <ele>972.007</ele>
        <time>2011-04-02T08:11:25Z</time>
      </trkpt>
      <trkpt lat="42.33399" lon="2.48378">
        <ele>970.613</ele>
        <time>2011-04-02T08:11:26Z</time>
      </trkpt>
      <trkpt lat="42.33401" lon="2.48376">
        <ele>967.277</ele>
        <time>2011-04-02T08:11:30Z</time>
      </trkpt>
      <trkpt lat="42.33401" lon="2.48376">
        <ele>970.64</ele>
        <time>2011-04-02T08:11:31Z</time>
      </trkpt>
      <trkpt lat="42.33403" lon="2.48378">
        <ele>967.269</ele>
        <time>2011-04-02T08:11:43Z</time>
      </trkpt>
      <trkpt lat="42.33403" lon="2.48378">
        <ele>971.656</ele>
        <time>2011-04-02T08:11:44Z</time>
      </trkpt>
      <trkpt lat="42.33405" lon="2.48379">
        <ele>971.644</ele>
        <time>2011-04-02T08:11:56Z</time>
      </trkpt>
      <trkpt lat="42.33405" lon="2.48379">
        <ele>967.247</ele>
        <time>2011-04-02T08:12:14Z</time>
      </trkpt>
      <trkpt lat="42.33405" lon="2.48379">
        <ele>971.189</ele>
        <time>2011-04-02T08:12:15Z</time>
      </trkpt>
      <trkpt lat="42.33405" lon="2.48378">
        <ele>967.206</ele>
        <time>2011-04-02T08:12:20Z</time>
      </trkpt>
      <trkpt lat="42.33405" lon="2.48377">
        <ele>970.626</ele>
        <time>2011-04-02T08:12:21Z</time>
      </trkpt>
      <trkpt lat="42.33405" lon="2.48377">
        <ele>974.907</ele>
        <time>2011-04-02T08:12:26Z</time>
      </trkpt>
      <trkpt lat="42.33405" lon="2.48377">
        <ele>970.189</ele>
        <time>2011-04-02T08:12:27Z</time>
      </trkpt>
      <trkpt lat="42.33405" lon="2.48377">
        <ele>967.243</ele>
        <time>2011-04-02T08:12:31Z</time>
      </trkpt>
      <trkpt lat="42.33405" lon="2.48377">
        <ele>970.186</ele>
        <time>2011-04-02T08:12:33Z</time>
      </trkpt>
      <trkpt lat="42.33402" lon="2.48375">
        <ele>973.595</ele>
        <time>2011-04-02T08:12:45Z</time>
      </trkpt>
      <trkpt lat="42.33402" lon="2.48375">
        <ele>968.232</ele>
        <time>2011-04-02T08:12:48Z</time>
      </trkpt>
      <trkpt lat="42.33402" lon="2.48375">
        <ele>972.05</ele>
        <time>2011-04-02T08:12:50Z</time>
      </trkpt>
      <trkpt lat="42.33403" lon="2.48376">
        <ele>968.793</ele>
        <time>2011-04-02T08:12:58Z</time>
      </trkpt>
      <trkpt lat="42.33403" lon="2.48375">
        <ele>972.049</ele>
        <time>2011-04-02T08:13:02Z</time>
      </trkpt>
      <trkpt lat="42.33403" lon="2.48375">
        <ele>968.702</ele>
        <time>2011-04-02T08:13:03Z</time>
      </trkpt>
      <trkpt lat="42.33403" lon="2.48375">
        <ele>969.222</ele>
        <time>2011-04-02T08:13:09Z</time>
      </trkpt>
      <trkpt lat="42.33403" lon="2.48376">
        <ele>973.507</ele>
        <time>2011-04-02T08:13:25Z</time>
      </trkpt>
      <trkpt lat="42.33404" lon="2.48376">
        <ele>969.665</ele>
        <time>2011-04-02T08:13:33Z</time>
      </trkpt>
      <trkpt lat="42.33404" lon="2.48376">
        <ele>973.549</ele>
        <time>2011-04-02T08:13:46Z</time>
      </trkpt>
      <trkpt lat="42.33404" lon="2.48376">
        <ele>967.772</ele>
        <time>2011-04-02T08:13:49Z</time>
      </trkpt>
      <trkpt lat="42.33404" lon="2.48376">
        <ele>971.151</ele>
        <time>2011-04-02T08:13:50Z</time>
      </trkpt>
      <trkpt lat="42.33404" lon="2.48376">
        <ele>966.778</ele>
        <time>2011-04-02T08:13:55Z</time>
      </trkpt>
      <trkpt lat="42.33404" lon="2.48376">
        <ele>970.656</ele>
        <time>2011-04-02T08:13:56Z</time>
      </trkpt>
      <trkpt lat="42.33404" lon="2.48376">
        <ele>974.429</ele>
        <time>2011-04-02T08:13:58Z</time>
      </trkpt>
      <trkpt lat="42.33404" lon="2.48376">
        <ele>970.681</ele>
        <time>2011-04-02T08:13:59Z</time>
      </trkpt>
      <trkpt lat="42.33404" lon="2.48376">
        <ele>966.761</ele>
        <time>2011-04-02T08:14:10Z</time>
      </trkpt>
      <trkpt lat="42.33404" lon="2.48376">
        <ele>970.117</ele>
        <time>2011-04-02T08:14:11Z</time>
      </trkpt>
      <trkpt lat="42.33404" lon="2.48376">
        <ele>969.607</ele>
        <time>2011-04-02T08:14:12Z</time>
      </trkpt>
      <trkpt lat="42.33404" lon="2.48376">
        <ele>972.069</ele>
        <time>2011-04-02T08:14:14Z</time>
      </trkpt>
      <trkpt lat="42.33405" lon="2.48378">
        <ele>971.143</ele>
        <time>2011-04-02T08:14:20Z</time>
      </trkpt>
      <trkpt lat="42.33405" lon="2.48378">
        <ele>971.696</ele>
        <time>2011-04-02T08:14:31Z</time>
      </trkpt>
      <trkpt lat="42.33405" lon="2.48378">
        <ele>967.725</ele>
        <time>2011-04-02T08:14:34Z</time>
      </trkpt>
      <trkpt lat="42.33405" lon="2.48378">
        <ele>967.732</ele>
        <time>2011-04-02T08:14:35Z</time>
      </trkpt>
      <trkpt lat="42.33405" lon="2.48378">
        <ele>971.65</ele>
        <time>2011-04-02T08:14:37Z</time>
      </trkpt>
      <trkpt lat="42.33406" lon="2.48378">
        <ele>971.133</ele>
        <time>2011-04-02T08:14:38Z</time>
      </trkpt>
      <trkpt lat="42.33407" lon="2.48379">
        <ele>972.074</ele>
        <time>2011-04-02T08:14:40Z</time>
      </trkpt>
      <trkpt lat="42.33409" lon="2.4838">
        <ele>966.356</ele>
        <time>2011-04-02T08:14:47Z</time>
      </trkpt>
      <trkpt lat="42.33409" lon="2.4838">
        <ele>970.621</ele>
        <time>2011-04-02T08:14:48Z</time>
      </trkpt>
      <trkpt lat="42.33407" lon="2.48381">
        <ele>974.007</ele>
        <time>2011-04-02T08:15:04Z</time>
      </trkpt>
      <trkpt lat="42.33407" lon="2.48381">
        <ele>969.278</ele>
        <time>2011-04-02T08:15:05Z</time>
      </trkpt>
      <trkpt lat="42.33407" lon="2.48381">
        <ele>972.582</ele>
        <time>2011-04-02T08:15:11Z</time>
      </trkpt>
      <trkpt lat="42.33407" lon="2.48381">
        <ele>969.225</ele>
        <time>2011-04-02T08:15:13Z</time>
      </trkpt>
      <trkpt lat="42.33407" lon="2.48379">
        <ele>974.074</ele>
        <time>2011-04-02T08:15:22Z</time>
      </trkpt>
      <trkpt lat="42.33407" lon="2.48379">
        <ele>970.151</ele>
        <time>2011-04-02T08:15:23Z</time>
      </trkpt>
      <trkpt lat="42.33407" lon="2.48379">
        <ele>974.029</ele>
        <time>2011-04-02T08:15:36Z</time>
      </trkpt>
      <trkpt lat="42.33407" lon="2.48379">
        <ele>969.632</ele>
        <time>2011-04-02T08:15:37Z</time>
      </trkpt>
      <trkpt lat="42.33407" lon="2.48379">
        <ele>973.017</ele>
        <time>2011-04-02T08:15:40Z</time>
      </trkpt>
      <trkpt lat="42.33407" lon="2.48379">
        <ele>967.287</ele>
        <time>2011-04-02T08:15:41Z</time>
      </trkpt>
      <trkpt lat="42.33407" lon="2.48379">
        <ele>972.515</ele>
        <time>2011-04-02T08:15:47Z</time>
      </trkpt>
      <trkpt lat="42.33407" lon="2.48379">
        <ele>968.707</ele>
        <time>2011-04-02T08:15:48Z</time>
      </trkpt>
      <trkpt lat="42.33407" lon="2.48379">
        <ele>972.512</ele>
        <time>2011-04-02T08:15:51Z</time>
      </trkpt>
      <trkpt lat="42.33407" lon="2.48379">
        <ele>970.696</ele>
        <time>2011-04-02T08:15:54Z</time>
      </trkpt>
      <trkpt lat="42.33408" lon="2.48378">
        <ele>975.929</ele>
        <time>2011-04-02T08:16:01Z</time>
      </trkpt>
      <trkpt lat="42.33408" lon="2.48378">
        <ele>970.128</ele>
        <time>2011-04-02T08:16:02Z</time>
      </trkpt>
      <trkpt lat="42.33409" lon="2.48375">
        <ele>973.515</ele>
        <time>2011-04-02T08:16:21Z</time>
      </trkpt>
      <trkpt lat="42.33409" lon="2.48375">
        <ele>970.623</ele>
        <time>2011-04-02T08:16:23Z</time>
      </trkpt>
      <trkpt lat="42.33409" lon="2.48375">
        <ele>974.966</ele>
        <time>2011-04-02T08:16:52Z</time>
      </trkpt>
      <trkpt lat="42.33409" lon="2.48375">
        <ele>970.627</ele>
        <time>2011-04-02T08:16:53Z</time>
      </trkpt>
      <trkpt lat="42.33409" lon="2.48375">
        <ele>974.468</ele>
        <time>2011-04-02T08:17:10Z</time>
      </trkpt>
      <trkpt lat="42.33409" lon="2.48375">
        <ele>969.614</ele>
        <time>2011-04-02T08:17:11Z</time>
      </trkpt>
      <trkpt lat="42.33409" lon="2.48375">
        <ele>973.007</ele>
        <time>2011-04-02T08:17:12Z</time>
      </trkpt>
      <trkpt lat="42.33409" lon="2.48375">
        <ele>969.653</ele>
        <time>2011-04-02T08:17:15Z</time>
      </trkpt>
      <trkpt lat="42.33409" lon="2.48375">
        <ele>973.077</ele>
        <time>2011-04-02T08:17:17Z</time>
      </trkpt>
      <trkpt lat="42.33409" lon="2.48375">
        <ele>969.25</ele>
        <time>2011-04-02T08:17:18Z</time>
      </trkpt>
      <trkpt lat="42.33409" lon="2.48375">
        <ele>972.529</ele>
        <time>2011-04-02T08:17:19Z</time>
      </trkpt>
      <trkpt lat="42.33409" lon="2.48375">
        <ele>969.296</ele>
        <time>2011-04-02T08:17:25Z</time>
      </trkpt>
      <trkpt lat="42.33409" lon="2.48375">
        <ele>972.564</ele>
        <time>2011-04-02T08:17:28Z</time>
      </trkpt>
      <trkpt lat="42.33409" lon="2.48375">
        <ele>969.297</ele>
        <time>2011-04-02T08:17:33Z</time>
      </trkpt>
      <trkpt lat="42.33409" lon="2.48376">
        <ele>972.546</ele>
        <time>2011-04-02T08:17:40Z</time>
      </trkpt>
      <trkpt lat="42.33409" lon="2.48376">
        <ele>967.288</ele>
        <time>2011-04-02T08:17:45Z</time>
      </trkpt>
      <trkpt lat="42.33409" lon="2.48376">
        <ele>971.616</ele>
        <time>2011-04-02T08:17:47Z</time>
      </trkpt>
      <trkpt lat="42.33409" lon="2.48375">
        <ele>968.707</ele>
        <time>2011-04-02T08:17:49Z</time>
      </trkpt>
      <trkpt lat="42.33409" lon="2.48375">
        <ele>977.345</ele>
        <time>2011-04-02T08:17:50Z</time>
      </trkpt>
      <trkpt lat="42.33409" lon="2.48375">
        <ele>971.169</ele>
        <time>2011-04-02T08:17:51Z</time>
      </trkpt>
      <trkpt lat="42.33409" lon="2.48375">
        <ele>968.292</ele>
        <time>2011-04-02T08:17:52Z</time>
      </trkpt>
      <trkpt lat="42.33409" lon="2.48375">
        <ele>969.691</ele>
        <time>2011-04-02T08:17:53Z</time>
      </trkpt>
      <trkpt lat="42.33409" lon="2.48375">
        <ele>973.518</ele>
        <time>2011-04-02T08:17:54Z</time>
      </trkpt>
      <trkpt lat="42.33409" lon="2.48375">
        <ele>973.096</ele>
        <time>2011-04-02T08:17:55Z</time>
      </trkpt>
      <trkpt lat="42.33409" lon="2.48376">
        <ele>969.259</ele>
        <time>2011-04-02T08:17:58Z</time>
      </trkpt>
      <trkpt lat="42.33409" lon="2.48376">
        <ele>972.079</ele>
        <time>2011-04-02T08:18:00Z</time>
      </trkpt>
      <trkpt lat="42.33409" lon="2.48376">
        <ele>968.705</ele>
        <time>2011-04-02T08:18:04Z</time>
      </trkpt>
      <trkpt lat="42.33409" lon="2.48376">
        <ele>972.025</ele>
        <time>2011-04-02T08:18:05Z</time>
      </trkpt>
      <trkpt lat="42.33409" lon="2.48376">
        <ele>965.807</ele>
        <time>2011-04-02T08:18:09Z</time>
      </trkpt>
      <trkpt lat="42.33409" lon="2.48376">
        <ele>968.798</ele>
        <time>2011-04-02T08:18:10Z</time>
      </trkpt>
      <trkpt lat="42.33409" lon="2.48375">
        <ele>970.632</ele>
        <time>2011-04-02T08:18:12Z</time>
      </trkpt>
      <trkpt lat="42.3341" lon="2.48375">
        <ele>972.515</ele>
        <time>2011-04-02T08:18:14Z</time>
      </trkpt>
      <trkpt lat="42.3341" lon="2.48374">
        <ele>976.834</ele>
        <time>2011-04-02T08:18:16Z</time>
      </trkpt>
      <trkpt lat="42.3341" lon="2.48373">
        <ele>975.451</ele>
        <time>2011-04-02T08:18:17Z</time>
      </trkpt>
      <trkpt lat="42.33411" lon="2.4837">
        <ele>974.419</ele>
        <time>2011-04-02T08:18:20Z</time>
      </trkpt>
      <trkpt lat="42.33411" lon="2.48361">
        <ele>971.632</ele>
        <time>2011-04-02T08:18:34Z</time>
      </trkpt>
      <trkpt lat="42.33411" lon="2.4836">
        <ele>971.669</ele>
        <time>2011-04-02T08:18:35Z</time>
      </trkpt>
      <trkpt lat="42.33411" lon="2.48358">
        <ele>976.404</ele>
        <time>2011-04-02T08:18:37Z</time>
      </trkpt>
      <trkpt lat="42.33412" lon="2.48357">
        <ele>974.024</ele>
        <time>2011-04-02T08:18:38Z</time>
      </trkpt>
      <trkpt lat="42.33412" lon="2.48353">
        <ele>976.407</ele>
        <time>2011-04-02T08:18:41Z</time>
      </trkpt>
      <trkpt lat="42.33412" lon="2.48347">
        <ele>972.587</ele>
        <time>2011-04-02T08:18:46Z</time>
      </trkpt>
      <trkpt lat="42.33413" lon="2.48341">
        <ele>975.931</ele>
        <time>2011-04-02T08:18:51Z</time>
      </trkpt>
      <trkpt lat="42.33413" lon="2.48338">
        <ele>975.464</ele>
        <time>2011-04-02T08:18:53Z</time>
      </trkpt>
      <trkpt lat="42.33415" lon="2.48333">
        <ele>979.723</ele>
        <time>2011-04-02T08:18:56Z</time>
      </trkpt>
      <trkpt lat="42.33416" lon="2.4833">
        <ele>976.44</ele>
        <time>2011-04-02T08:18:59Z</time>
      </trkpt>
      <trkpt lat="42.33416" lon="2.48329">
        <ele>980.268</ele>
        <time>2011-04-02T08:19:00Z</time>
      </trkpt>
      <trkpt lat="42.33419" lon="2.48314">
        <ele>982.171</ele>
        <time>2011-04-02T08:19:10Z</time>
      </trkpt>
      <trkpt lat="42.33419" lon="2.48308">
        <ele>978.853</ele>
        <time>2011-04-02T08:19:14Z</time>
      </trkpt>
      <trkpt lat="42.33419" lon="2.48306">
        <ele>979.704</ele>
        <time>2011-04-02T08:19:15Z</time>
      </trkpt>
      <trkpt lat="42.3342" lon="2.48303">
        <ele>983.114</ele>
        <time>2011-04-02T08:19:18Z</time>
      </trkpt>
      <trkpt lat="42.33421" lon="2.483">
        <ele>984.107</ele>
        <time>2011-04-02T08:19:20Z</time>
      </trkpt>
      <trkpt lat="42.33422" lon="2.48299">
        <ele>983.656</ele>
        <time>2011-04-02T08:19:21Z</time>
      </trkpt>
      <trkpt lat="42.33423" lon="2.48296">
        <ele>985.59</ele>
        <time>2011-04-02T08:19:23Z</time>
      </trkpt>
      <trkpt lat="42.33424" lon="2.48295">
        <ele>981.243</ele>
        <time>2011-04-02T08:19:24Z</time>
      </trkpt>
      <trkpt lat="42.33424" lon="2.48293">
        <ele>986.982</ele>
        <time>2011-04-02T08:19:25Z</time>
      </trkpt>
      <trkpt lat="42.33429" lon="2.48283">
        <ele>986.059</ele>
        <time>2011-04-02T08:19:33Z</time>
      </trkpt>
      <trkpt lat="42.3343" lon="2.48274">
        <ele>986.527</ele>
        <time>2011-04-02T08:19:39Z</time>
      </trkpt>
      <trkpt lat="42.33432" lon="2.48266">
        <ele>982.18</ele>
        <time>2011-04-02T08:19:45Z</time>
      </trkpt>
      <trkpt lat="42.33432" lon="2.48264">
        <ele>989.827</ele>
        <time>2011-04-02T08:19:46Z</time>
      </trkpt>
      <trkpt lat="42.33432" lon="2.4826">
        <ele>985.068</ele>
        <time>2011-04-02T08:19:49Z</time>
      </trkpt>
      <trkpt lat="42.33432" lon="2.48258">
        <ele>986.014</ele>
        <time>2011-04-02T08:19:50Z</time>
      </trkpt>
      <trkpt lat="42.33434" lon="2.48244">
        <ele>989.807</ele>
        <time>2011-04-02T08:19:57Z</time>
      </trkpt>
      <trkpt lat="42.33434" lon="2.48242">
        <ele>985.073</ele>
        <time>2011-04-02T08:19:58Z</time>
      </trkpt>
      <trkpt lat="42.33434" lon="2.48236">
        <ele>988.427</ele>
        <time>2011-04-02T08:20:01Z</time>
      </trkpt>
      <trkpt lat="42.33435" lon="2.48221">
        <ele>986.05</ele>
        <time>2011-04-02T08:20:09Z</time>
      </trkpt>
      <trkpt lat="42.33435" lon="2.48216">
        <ele>984.529</ele>
        <time>2011-04-02T08:20:11Z</time>
      </trkpt>
      <trkpt lat="42.33435" lon="2.48211">
        <ele>986.946</ele>
        <time>2011-04-02T08:20:13Z</time>
      </trkpt>
      <trkpt lat="42.33433" lon="2.48192">
        <ele>985.084</ele>
        <time>2011-04-02T08:20:19Z</time>
      </trkpt>
      <trkpt lat="42.33432" lon="2.4819">
        <ele>985.097</ele>
        <time>2011-04-02T08:20:20Z</time>
      </trkpt>
      <trkpt lat="42.33432" lon="2.48184">
        <ele>983.672</ele>
        <time>2011-04-02T08:20:22Z</time>
      </trkpt>
      <trkpt lat="42.33433" lon="2.48165">
        <ele>983.113</ele>
        <time>2011-04-02T08:20:29Z</time>
      </trkpt>
      <trkpt lat="42.33433" lon="2.48158">
        <ele>984.514</ele>
        <time>2011-04-02T08:20:31Z</time>
      </trkpt>
      <trkpt lat="42.3343" lon="2.48149">
        <ele>980.707</ele>
        <time>2011-04-02T08:20:34Z</time>
      </trkpt>
      <trkpt lat="42.33429" lon="2.48147">
        <ele>985.048</ele>
        <time>2011-04-02T08:20:35Z</time>
      </trkpt>
      <trkpt lat="42.33424" lon="2.48129">
        <ele>987.992</ele>
        <time>2011-04-02T08:20:42Z</time>
      </trkpt>
      <trkpt lat="42.33418" lon="2.48107">
        <ele>987.995</ele>
        <time>2011-04-02T08:20:52Z</time>
      </trkpt>
      <trkpt lat="42.33417" lon="2.48105">
        <ele>985.064</ele>
        <time>2011-04-02T08:20:53Z</time>
      </trkpt>
      <trkpt lat="42.33417" lon="2.48103">
        <ele>988.951</ele>
        <time>2011-04-02T08:20:54Z</time>
      </trkpt>
      <trkpt lat="42.33418" lon="2.48075">
        <ele>990.339</ele>
        <time>2011-04-02T08:21:09Z</time>
      </trkpt>
      <trkpt lat="42.33422" lon="2.48057">
        <ele>990.812</ele>
        <time>2011-04-02T08:21:18Z</time>
      </trkpt>
      <trkpt lat="42.33424" lon="2.48054">
        <ele>987.432</ele>
        <time>2011-04-02T08:21:20Z</time>
      </trkpt>
      <trkpt lat="42.33425" lon="2.48053">
        <ele>991.392</ele>
        <time>2011-04-02T08:21:21Z</time>
      </trkpt>
      <trkpt lat="42.33432" lon="2.48041">
        <ele>989.811</ele>
        <time>2011-04-02T08:21:32Z</time>
      </trkpt>
      <trkpt lat="42.33432" lon="2.48041">
        <ele>994.607</ele>
        <time>2011-04-02T08:21:34Z</time>
      </trkpt>
      <trkpt lat="42.33432" lon="2.48041">
        <ele>989.864</ele>
        <time>2011-04-02T08:21:35Z</time>
      </trkpt>
      <trkpt lat="42.33432" lon="2.48041">
        <ele>991.768</ele>
        <time>2011-04-02T08:21:45Z</time>
      </trkpt>
      <trkpt lat="42.33432" lon="2.48041">
        <ele>987.941</ele>
        <time>2011-04-02T08:21:47Z</time>
      </trkpt>
      <trkpt lat="42.33432" lon="2.48041">
        <ele>992.29</ele>
        <time>2011-04-02T08:21:48Z</time>
      </trkpt>
      <trkpt lat="42.33432" lon="2.48041">
        <ele>987.477</ele>
        <time>2011-04-02T08:21:54Z</time>
      </trkpt>
      <trkpt lat="42.33432" lon="2.48041">
        <ele>989.835</ele>
        <time>2011-04-02T08:21:55Z</time>
      </trkpt>
      <trkpt lat="42.33432" lon="2.48041">
        <ele>986.588</ele>
        <time>2011-04-02T08:22:08Z</time>
      </trkpt>
      <trkpt lat="42.33432" lon="2.48041">
        <ele>991.726</ele>
        <time>2011-04-02T08:22:09Z</time>
      </trkpt>
      <trkpt lat="42.33432" lon="2.48041">
        <ele>986.947</ele>
        <time>2011-04-02T08:22:10Z</time>
      </trkpt>
      <trkpt lat="42.33432" lon="2.48041">
        <ele>990.311</ele>
        <time>2011-04-02T08:22:13Z</time>
      </trkpt>
      <trkpt lat="42.33432" lon="2.48041">
        <ele>990.307</ele>
        <time>2011-04-02T08:22:25Z</time>
      </trkpt>
      <trkpt lat="42.33432" lon="2.48041">
        <ele>989.393</ele>
        <time>2011-04-02T08:22:28Z</time>
      </trkpt>
      <trkpt lat="42.33432" lon="2.48041">
        <ele>992.787</ele>
        <time>2011-04-02T08:22:35Z</time>
      </trkpt>
      <trkpt lat="42.33432" lon="2.48041">
        <ele>990.83</ele>
        <time>2011-04-02T08:22:36Z</time>
      </trkpt>
      <trkpt lat="42.33432" lon="2.48041">
        <ele>989.359</ele>
        <time>2011-04-02T08:22:38Z</time>
      </trkpt>
      <trkpt lat="42.33432" lon="2.48041">
        <ele>991.336</ele>
        <time>2011-04-02T08:22:40Z</time>
      </trkpt>
      <trkpt lat="42.33432" lon="2.48041">
        <ele>986.584</ele>
        <time>2011-04-02T08:22:45Z</time>
      </trkpt>
      <trkpt lat="42.33432" lon="2.48041">
        <ele>988.957</ele>
        <time>2011-04-02T08:22:46Z</time>
      </trkpt>
      <trkpt lat="42.33432" lon="2.48041">
        <ele>993.236</ele>
        <time>2011-04-02T08:22:53Z</time>
      </trkpt>
      <trkpt lat="42.33432" lon="2.48041">
        <ele>990.317</ele>
        <time>2011-04-02T08:22:54Z</time>
      </trkpt>
      <trkpt lat="42.33437" lon="2.48033">
        <ele>993.718</ele>
        <time>2011-04-02T08:23:12Z</time>
      </trkpt>
      <trkpt lat="42.33439" lon="2.48032">
        <ele>990.307</ele>
        <time>2011-04-02T08:23:16Z</time>
      </trkpt>
      <trkpt lat="42.33439" lon="2.48032">
        <ele>994.184</ele>
        <time>2011-04-02T08:23:22Z</time>
      </trkpt>
      <trkpt lat="42.33438" lon="2.48032">
        <ele>989.828</ele>
        <time>2011-04-02T08:23:23Z</time>
      </trkpt>
      <trkpt lat="42.33438" lon="2.48032">
        <ele>990.831</ele>
        <time>2011-04-02T08:23:27Z</time>
      </trkpt>
      <trkpt lat="42.33438" lon="2.48032">
        <ele>987.94</ele>
        <time>2011-04-02T08:23:36Z</time>
      </trkpt>
      <trkpt lat="42.33438" lon="2.48032">
        <ele>992.737</ele>
        <time>2011-04-02T08:23:38Z</time>
      </trkpt>
      <trkpt lat="42.33438" lon="2.48032">
        <ele>990.885</ele>
        <time>2011-04-02T08:23:39Z</time>
      </trkpt>
      <trkpt lat="42.33445" lon="2.48023">
        <ele>996.548</ele>
        <time>2011-04-02T08:23:48Z</time>
      </trkpt>
      <trkpt lat="42.33448" lon="2.48019">
        <ele>994.133</ele>
        <time>2011-04-02T08:23:52Z</time>
      </trkpt>
      <trkpt lat="42.33452" lon="2.4801">
        <ele>997.523</ele>
        <time>2011-04-02T08:23:58Z</time>
      </trkpt>
      <trkpt lat="42.33452" lon="2.48009">
        <ele>996.115</ele>
        <time>2011-04-02T08:23:59Z</time>
      </trkpt>
      <trkpt lat="42.33453" lon="2.48007">
        <ele>995.607</ele>
        <time>2011-04-02T08:24:00Z</time>
      </trkpt>
      <trkpt lat="42.33462" lon="2.47997">
        <ele>1001.484</ele>
        <time>2011-04-02T08:24:12Z</time>
      </trkpt>
      <trkpt lat="42.33463" lon="2.47996">
        <ele>996.558</ele>
        <time>2011-04-02T08:24:13Z</time>
      </trkpt>
      <trkpt lat="42.33464" lon="2.47995">
        <ele>999.971</ele>
        <time>2011-04-02T08:24:15Z</time>
      </trkpt>
      <trkpt lat="42.33466" lon="2.47994">
        <ele>999.93</ele>
        <time>2011-04-02T08:24:17Z</time>
      </trkpt>
      <trkpt lat="42.33472" lon="2.47987">
        <ele>998.587</ele>
        <time>2011-04-02T08:24:24Z</time>
      </trkpt>
      <trkpt lat="42.33474" lon="2.47984">
        <ele>999.485</ele>
        <time>2011-04-02T08:24:27Z</time>
      </trkpt>
      <trkpt lat="42.33475" lon="2.47982">
        <ele>1001.838</ele>
        <time>2011-04-02T08:24:29Z</time>
      </trkpt>
      <trkpt lat="42.33481" lon="2.47978">
        <ele>1005.241</ele>
        <time>2011-04-02T08:24:38Z</time>
      </trkpt>
      <trkpt lat="42.33485" lon="2.47976">
        <ele>1006.681</ele>
        <time>2011-04-02T08:24:47Z</time>
      </trkpt>
      <trkpt lat="42.33485" lon="2.47977">
        <ele>1007.109</ele>
        <time>2011-04-02T08:24:48Z</time>
      </trkpt>
      <trkpt lat="42.33489" lon="2.47973">
        <ele>1007.607</ele>
        <time>2011-04-02T08:24:55Z</time>
      </trkpt>
      <trkpt lat="42.33489" lon="2.47972">
        <ele>1006.645</ele>
        <time>2011-04-02T08:24:57Z</time>
      </trkpt>
      <trkpt lat="42.33491" lon="2.47968">
        <ele>1011.969</ele>
        <time>2011-04-02T08:25:00Z</time>
      </trkpt>
      <trkpt lat="42.33491" lon="2.47966">
        <ele>1008.672</ele>
        <time>2011-04-02T08:25:01Z</time>
      </trkpt>
      <trkpt lat="42.33492" lon="2.47965">
        <ele>1007.141</ele>
        <time>2011-04-02T08:25:02Z</time>
      </trkpt>
      <trkpt lat="42.33492" lon="2.47959">
        <ele>1006.278</ele>
        <time>2011-04-02T08:25:05Z</time>
      </trkpt>
      <trkpt lat="42.33492" lon="2.47956">
        <ele>1008.156</ele>
        <time>2011-04-02T08:25:07Z</time>
      </trkpt>
      <trkpt lat="42.33491" lon="2.4795">
        <ele>1007.179</ele>
        <time>2011-04-02T08:25:10Z</time>
      </trkpt>
      <trkpt lat="42.33492" lon="2.47945">
        <ele>1009.566</ele>
        <time>2011-04-02T08:25:13Z</time>
      </trkpt>
      <trkpt lat="42.33493" lon="2.47943">
        <ele>1006.229</ele>
        <time>2011-04-02T08:25:15Z</time>
      </trkpt>
      <trkpt lat="42.33494" lon="2.47942">
        <ele>1009.521</ele>
        <time>2011-04-02T08:25:16Z</time>
      </trkpt>
      <trkpt lat="42.33515" lon="2.47926">
        <ele>1010.007</ele>
        <time>2011-04-02T08:25:28Z</time>
      </trkpt>
      <trkpt lat="42.33522" lon="2.47922">
        <ele>1008.137</ele>
        <time>2011-04-02T08:25:33Z</time>
      </trkpt>
      <trkpt lat="42.33525" lon="2.47918">
        <ele>1011.071</ele>
        <time>2011-04-02T08:25:37Z</time>
      </trkpt>
      <trkpt lat="42.33529" lon="2.47911">
        <ele>1010.594</ele>
        <time>2011-04-02T08:25:44Z</time>
      </trkpt>
      <trkpt lat="42.3353" lon="2.47908">
        <ele>1013.983</ele>
        <time>2011-04-02T08:25:46Z</time>
      </trkpt>
      <trkpt lat="42.33535" lon="2.47902">
        <ele>1010.54</ele>
        <time>2011-04-02T08:25:51Z</time>
      </trkpt>
      <trkpt lat="42.33537" lon="2.479">
        <ele>1008.638</ele>
        <time>2011-04-02T08:25:53Z</time>
      </trkpt>
      <trkpt lat="42.3354" lon="2.47898">
        <ele>1008.651</ele>
        <time>2011-04-02T08:25:56Z</time>
      </trkpt>
      <trkpt lat="42.33548" lon="2.47894">
        <ele>1004.215</ele>
        <time>2011-04-02T08:26:03Z</time>
      </trkpt>
      <trkpt lat="42.33549" lon="2.47893">
        <ele>1005.265</ele>
        <time>2011-04-02T08:26:04Z</time>
      </trkpt>
      <trkpt lat="42.33551" lon="2.47893">
        <ele>1007.111</ele>
        <time>2011-04-02T08:26:06Z</time>
      </trkpt>
      <trkpt lat="42.33553" lon="2.47892">
        <ele>1005.207</ele>
        <time>2011-04-02T08:26:09Z</time>
      </trkpt>
      <trkpt lat="42.33556" lon="2.4789">
        <ele>1001.892</ele>
        <time>2011-04-02T08:26:11Z</time>
      </trkpt>
      <trkpt lat="42.33562" lon="2.47887">
        <ele>1006.226</ele>
        <time>2011-04-02T08:26:14Z</time>
      </trkpt>
      <trkpt lat="42.33564" lon="2.47886">
        <ele>1005.779</ele>
        <time>2011-04-02T08:26:15Z</time>
      </trkpt>
      <trkpt lat="42.33573" lon="2.47881">
        <ele>1002.848</ele>
        <time>2011-04-02T08:26:19Z</time>
      </trkpt>
      <trkpt lat="42.33576" lon="2.4788">
        <ele>1004.785</ele>
        <time>2011-04-02T08:26:21Z</time>
      </trkpt>
      <trkpt lat="42.33581" lon="2.4788">
        <ele>1003.353</ele>
        <time>2011-04-02T08:26:24Z</time>
      </trkpt>
      <trkpt lat="42.33585" lon="2.47879">
        <ele>1006.246</ele>
        <time>2011-04-02T08:26:26Z</time>
      </trkpt>
      <trkpt lat="42.33587" lon="2.47879">
        <ele>1002.814</ele>
        <time>2011-04-02T08:26:27Z</time>
      </trkpt>
      <trkpt lat="42.33589" lon="2.4788">
        <ele>1003.354</ele>
        <time>2011-04-02T08:26:28Z</time>
      </trkpt>
      <trkpt lat="42.33591" lon="2.4788">
        <ele>1005.709</ele>
        <time>2011-04-02T08:26:29Z</time>
      </trkpt>
      <trkpt lat="42.33607" lon="2.47876">
        <ele>1004.207</ele>
        <time>2011-04-02T08:26:39Z</time>
      </trkpt>
      <trkpt lat="42.3361" lon="2.47874">
        <ele>1001.452</ele>
        <time>2011-04-02T08:26:41Z</time>
      </trkpt>
      <trkpt lat="42.33612" lon="2.47874">
        <ele>1001.866</ele>
        <time>2011-04-02T08:26:42Z</time>
      </trkpt>
      <trkpt lat="42.33619" lon="2.47871">
        <ele>1005.259</ele>
        <time>2011-04-02T08:26:46Z</time>
      </trkpt>
      <trkpt lat="42.33621" lon="2.47871">
        <ele>1004.298</ele>
        <time>2011-04-02T08:26:47Z</time>
      </trkpt>
      <trkpt lat="42.33631" lon="2.47869">
        <ele>1005.285</ele>
        <time>2011-04-02T08:26:52Z</time>
      </trkpt>
      <trkpt lat="42.33645" lon="2.47858">
        <ele>1001.463</ele>
        <time>2011-04-02T08:27:01Z</time>
      </trkpt>
      <trkpt lat="42.33649" lon="2.47853">
        <ele>999.996</ele>
        <time>2011-04-02T08:27:03Z</time>
      </trkpt>
      <trkpt lat="42.3365" lon="2.47848">
        <ele>1004.793</ele>
        <time>2011-04-02T08:27:05Z</time>
      </trkpt>
      <trkpt lat="42.33651" lon="2.47846">
        <ele>1000.465</ele>
        <time>2011-04-02T08:27:06Z</time>
      </trkpt>
      <trkpt lat="42.33651" lon="2.47844">
        <ele>1000.421</ele>
        <time>2011-04-02T08:27:07Z</time>
      </trkpt>
      <trkpt lat="42.33653" lon="2.47833">
        <ele>1002.307</ele>
        <time>2011-04-02T08:27:11Z</time>
      </trkpt>
      <trkpt lat="42.33653" lon="2.4783">
        <ele>999.09</ele>
        <time>2011-04-02T08:27:12Z</time>
      </trkpt>
      <trkpt lat="42.33654" lon="2.47826">
        <ele>999.964</ele>
        <time>2011-04-02T08:27:13Z</time>
      </trkpt>
      <trkpt lat="42.33657" lon="2.47814">
        <ele>997.597</ele>
        <time>2011-04-02T08:27:17Z</time>
      </trkpt>
      <trkpt lat="42.33662" lon="2.47804">
        <ele>998.526</ele>
        <time>2011-04-02T08:27:21Z</time>
      </trkpt>
      <trkpt lat="42.33678" lon="2.47785">
        <ele>998.593</ele>
        <time>2011-04-02T08:27:31Z</time>
      </trkpt>
      <trkpt lat="42.33683" lon="2.47781">
        <ele>1002.371</ele>
        <time>2011-04-02T08:27:35Z</time>
      </trkpt>
      <trkpt lat="42.3369" lon="2.47775">
        <ele>1002.324</ele>
        <time>2011-04-02T08:27:41Z</time>
      </trkpt>
      <trkpt lat="42.33692" lon="2.47772">
        <ele>998.596</ele>
        <time>2011-04-02T08:27:43Z</time>
      </trkpt>
      <trkpt lat="42.33693" lon="2.47771">
        <ele>1004.231</ele>
        <time>2011-04-02T08:27:44Z</time>
      </trkpt>
      <trkpt lat="42.33694" lon="2.4777">
        <ele>1000.924</ele>
        <time>2011-04-02T08:27:45Z</time>
      </trkpt>
      <trkpt lat="42.33703" lon="2.47761">
        <ele>1003.807</ele>
        <time>2011-04-02T08:27:54Z</time>
      </trkpt>
      <trkpt lat="42.3371" lon="2.47755">
        <ele>1003.37</ele>
        <time>2011-04-02T08:28:02Z</time>
      </trkpt>
      <trkpt lat="42.33712" lon="2.47752">
        <ele>1006.614</ele>
        <time>2011-04-02T08:28:04Z</time>
      </trkpt>
      <trkpt lat="42.33714" lon="2.4775">
        <ele>1005.727</ele>
        <time>2011-04-02T08:28:06Z</time>
      </trkpt>
      <trkpt lat="42.33717" lon="2.47747">
        <ele>1008.666</ele>
        <time>2011-04-02T08:28:10Z</time>
      </trkpt>
      <trkpt lat="42.33722" lon="2.47743">
        <ele>1005.783</ele>
        <time>2011-04-02T08:28:16Z</time>
      </trkpt>
      <trkpt lat="42.33723" lon="2.47739">
        <ele>1008.111</ele>
        <time>2011-04-02T08:28:19Z</time>
      </trkpt>
      <trkpt lat="42.33723" lon="2.47738">
        <ele>1012.454</ele>
        <time>2011-04-02T08:28:20Z</time>
      </trkpt>
      <trkpt lat="42.33723" lon="2.47736">
        <ele>1011.463</ele>
        <time>2011-04-02T08:28:21Z</time>
      </trkpt>
      <trkpt lat="42.33724" lon="2.47733">
        <ele>1010.044</ele>
        <time>2011-04-02T08:28:23Z</time>
      </trkpt>
      <trkpt lat="42.3373" lon="2.47723">
        <ele>1010.518</ele>
        <time>2011-04-02T08:28:31Z</time>
      </trkpt>
      <trkpt lat="42.33732" lon="2.47722">
        <ele>1013.907</ele>
        <time>2011-04-02T08:28:33Z</time>
      </trkpt>
      <trkpt lat="42.33735" lon="2.47711">
        <ele>1015.327</ele>
        <time>2011-04-02T08:28:44Z</time>
      </trkpt>
      <trkpt lat="42.33734" lon="2.4771">
        <ele>1015.351</ele>
        <time>2011-04-02T08:28:45Z</time>
      </trkpt>
      <trkpt lat="42.33736" lon="2.47705">
        <ele>1016.314</ele>
        <time>2011-04-02T08:28:53Z</time>
      </trkpt>
      <trkpt lat="42.33738" lon="2.47701">
        <ele>1021.513</ele>
        <time>2011-04-02T08:28:58Z</time>
      </trkpt>
      <trkpt lat="42.33738" lon="2.477">
        <ele>1019.67</ele>
        <time>2011-04-02T08:28:59Z</time>
      </trkpt>
      <trkpt lat="42.33737" lon="2.47699">
        <ele>1020.648</ele>
        <time>2011-04-02T08:29:03Z</time>
      </trkpt>
      <trkpt lat="42.33742" lon="2.47695">
        <ele>1025.441</ele>
        <time>2011-04-02T08:29:13Z</time>
      </trkpt>
      <trkpt lat="42.33742" lon="2.47694">
        <ele>1022.091</ele>
        <time>2011-04-02T08:29:14Z</time>
      </trkpt>
      <trkpt lat="42.33746" lon="2.47688">
        <ele>1025.481</ele>
        <time>2011-04-02T08:29:19Z</time>
      </trkpt>
      <trkpt lat="42.3375" lon="2.47683">
        <ele>1023.519</ele>
        <time>2011-04-02T08:29:23Z</time>
      </trkpt>
      <trkpt lat="42.33762" lon="2.47666">
        <ele>1022.507</ele>
        <time>2011-04-02T08:29:32Z</time>
      </trkpt>
      <trkpt lat="42.33764" lon="2.47665">
        <ele>1021.12</ele>
        <time>2011-04-02T08:29:33Z</time>
      </trkpt>
      <trkpt lat="42.33767" lon="2.47662">
        <ele>1021.574</ele>
        <time>2011-04-02T08:29:36Z</time>
      </trkpt>
      <trkpt lat="42.33769" lon="2.47657">
        <ele>1024.457</ele>
        <time>2011-04-02T08:29:40Z</time>
      </trkpt>
      <trkpt lat="42.33771" lon="2.47653">
        <ele>1024.496</ele>
        <time>2011-04-02T08:29:44Z</time>
      </trkpt>
      <trkpt lat="42.33774" lon="2.47648">
        <ele>1027.863</ele>
        <time>2011-04-02T08:29:49Z</time>
      </trkpt>
      <trkpt lat="42.33777" lon="2.47644">
        <ele>1025.441</ele>
        <time>2011-04-02T08:29:52Z</time>
      </trkpt>
      <trkpt lat="42.33781" lon="2.4764">
        <ele>1023.024</ele>
        <time>2011-04-02T08:29:56Z</time>
      </trkpt>
      <trkpt lat="42.338" lon="2.47623">
        <ele>1028.891</ele>
        <time>2011-04-02T08:30:12Z</time>
      </trkpt>
      <trkpt lat="42.33802" lon="2.47619">
        <ele>1029.281</ele>
        <time>2011-04-02T08:30:16Z</time>
      </trkpt>
      <trkpt lat="42.33807" lon="2.47614">
        <ele>1032.119</ele>
        <time>2011-04-02T08:30:22Z</time>
      </trkpt>
      <trkpt lat="42.33807" lon="2.47614">
        <ele>1030.207</ele>
        <time>2011-04-02T08:30:23Z</time>
      </trkpt>
      <trkpt lat="42.33809" lon="2.47613">
        <ele>1028.87</ele>
        <time>2011-04-02T08:30:25Z</time>
      </trkpt>
      <trkpt lat="42.3381" lon="2.47612">
        <ele>1030.234</ele>
        <time>2011-04-02T08:30:27Z</time>
      </trkpt>
      <trkpt lat="42.33815" lon="2.47608">
        <ele>1033.117</ele>
        <time>2011-04-02T08:30:33Z</time>
      </trkpt>
      <trkpt lat="42.33818" lon="2.47606">
        <ele>1032.126</ele>
        <time>2011-04-02T08:30:38Z</time>
      </trkpt>
      <trkpt lat="42.3383" lon="2.47616">
        <ele>1036.093</ele>
        <time>2011-04-02T08:30:51Z</time>
      </trkpt>
      <trkpt lat="42.33832" lon="2.47618">
        <ele>1036.921</ele>
        <time>2011-04-02T08:30:53Z</time>
      </trkpt>
      <trkpt lat="42.33839" lon="2.47624">
        <ele>1032.664</ele>
        <time>2011-04-02T08:30:59Z</time>
      </trkpt>
      <trkpt lat="42.33839" lon="2.47625">
        <ele>1035.587</ele>
        <time>2011-04-02T08:31:00Z</time>
      </trkpt>
      <trkpt lat="42.33842" lon="2.47627">
        <ele>1036.942</ele>
        <time>2011-04-02T08:31:03Z</time>
      </trkpt>
      <trkpt lat="42.33845" lon="2.47631">
        <ele>1036.426</ele>
        <time>2011-04-02T08:31:07Z</time>
      </trkpt>
      <trkpt lat="42.33849" lon="2.47634">
        <ele>1033.107</ele>
        <time>2011-04-02T08:31:10Z</time>
      </trkpt>
      <trkpt lat="42.3385" lon="2.47635">
        <ele>1034.539</ele>
        <time>2011-04-02T08:31:11Z</time>
      </trkpt>
      <trkpt lat="42.33854" lon="2.47637">
        <ele>1036.993</ele>
        <time>2011-04-02T08:31:15Z</time>
      </trkpt>
      <trkpt lat="42.33856" lon="2.47637">
        <ele>1035.096</ele>
        <time>2011-04-02T08:31:17Z</time>
      </trkpt>
      <trkpt lat="42.33858" lon="2.47637">
        <ele>1038.885</ele>
        <time>2011-04-02T08:31:18Z</time>
      </trkpt>
      <trkpt lat="42.33859" lon="2.47638">
        <ele>1036.082</ele>
        <time>2011-04-02T08:31:19Z</time>
      </trkpt>
      <trkpt lat="42.33866" lon="2.47644">
        <ele>1039.35</ele>
        <time>2011-04-02T08:31:27Z</time>
      </trkpt>
      <trkpt lat="42.33867" lon="2.47644">
        <ele>1038.413</ele>
        <time>2011-04-02T08:31:28Z</time>
      </trkpt>
      <trkpt lat="42.3387" lon="2.47646">
        <ele>1038.841</ele>
        <time>2011-04-02T08:31:31Z</time>
      </trkpt>
      <trkpt lat="42.33878" lon="2.47654">
        <ele>1039.381</ele>
        <time>2011-04-02T08:31:41Z</time>
      </trkpt>
      <trkpt lat="42.3388" lon="2.47658">
        <ele>1041.309</ele>
        <time>2011-04-02T08:31:44Z</time>
      </trkpt>
      <trkpt lat="42.33881" lon="2.47661">
        <ele>1040.307</ele>
        <time>2011-04-02T08:31:46Z</time>
      </trkpt>
      <trkpt lat="42.33891" lon="2.47674">
        <ele>1045.675</ele>
        <time>2011-04-02T08:31:58Z</time>
      </trkpt>
      <trkpt lat="42.33899" lon="2.47686">
        <ele>1047.569</ele>
        <time>2011-04-02T08:32:12Z</time>
      </trkpt>
      <trkpt lat="42.33906" lon="2.47692">
        <ele>1050.462</ele>
        <time>2011-04-02T08:32:22Z</time>
      </trkpt>
      <trkpt lat="42.33908" lon="2.47695">
        <ele>1048.071</ele>
        <time>2011-04-02T08:32:25Z</time>
      </trkpt>
      <trkpt lat="42.33908" lon="2.47696">
        <ele>1051.868</ele>
        <time>2011-04-02T08:32:26Z</time>
      </trkpt>
      <trkpt lat="42.33909" lon="2.47697">
        <ele>1048.066</ele>
        <time>2011-04-02T08:32:27Z</time>
      </trkpt>
      <trkpt lat="42.33912" lon="2.47704">
        <ele>1052.899</ele>
        <time>2011-04-02T08:32:32Z</time>
      </trkpt>
      <trkpt lat="42.33915" lon="2.47709">
        <ele>1053.339</ele>
        <time>2011-04-02T08:32:36Z</time>
      </trkpt>
      <trkpt lat="42.33919" lon="2.47723">
        <ele>1053.701</ele>
        <time>2011-04-02T08:32:46Z</time>
      </trkpt>
      <trkpt lat="42.3392" lon="2.47728">
        <ele>1055.221</ele>
        <time>2011-04-02T08:32:50Z</time>
      </trkpt>
      <trkpt lat="42.33924" lon="2.47737">
        <ele>1053.307</ele>
        <time>2011-04-02T08:32:57Z</time>
      </trkpt>
      <trkpt lat="42.33925" lon="2.47738">
        <ele>1056.694</ele>
        <time>2011-04-02T08:32:58Z</time>
      </trkpt>
      <trkpt lat="42.33929" lon="2.47751">
        <ele>1060.588</ele>
        <time>2011-04-02T08:33:06Z</time>
      </trkpt>
      <trkpt lat="42.33929" lon="2.47755">
        <ele>1056.261</ele>
        <time>2011-04-02T08:33:08Z</time>
      </trkpt>
      <trkpt lat="42.3393" lon="2.47757">
        <ele>1060.54</ele>
        <time>2011-04-02T08:33:09Z</time>
      </trkpt>
      <trkpt lat="42.33931" lon="2.47764">
        <ele>1057.117</ele>
        <time>2011-04-02T08:33:13Z</time>
      </trkpt>
      <trkpt lat="42.33936" lon="2.47776">
        <ele>1060.065</ele>
        <time>2011-04-02T08:33:21Z</time>
      </trkpt>
      <trkpt lat="42.3394" lon="2.47795">
        <ele>1059.518</ele>
        <time>2011-04-02T08:33:31Z</time>
      </trkpt>
      <trkpt lat="42.33941" lon="2.47802">
        <ele>1061.459</ele>
        <time>2011-04-02T08:33:35Z</time>
      </trkpt>
      <trkpt lat="42.33942" lon="2.47811">
        <ele>1064.303</ele>
        <time>2011-04-02T08:33:41Z</time>
      </trkpt>
      <trkpt lat="42.33939" lon="2.47815">
        <ele>1064.323</ele>
        <time>2011-04-02T08:33:53Z</time>
      </trkpt>
      <trkpt lat="42.33939" lon="2.47819">
        <ele>1067.707</ele>
        <time>2011-04-02T08:33:56Z</time>
      </trkpt>
      <trkpt lat="42.33939" lon="2.4782">
        <ele>1064.336</ele>
        <time>2011-04-02T08:33:57Z</time>
      </trkpt>
      <trkpt lat="42.33939" lon="2.47823">
        <ele>1067.28</ele>
        <time>2011-04-02T08:34:00Z</time>
      </trkpt>
      <trkpt lat="42.3394" lon="2.47826">
        <ele>1067.743</ele>
        <time>2011-04-02T08:34:02Z</time>
      </trkpt>
      <trkpt lat="42.33943" lon="2.47831">
        <ele>1062.942</ele>
        <time>2011-04-02T08:34:06Z</time>
      </trkpt>
      <trkpt lat="42.33946" lon="2.47833">
        <ele>1064.359</ele>
        <time>2011-04-02T08:34:09Z</time>
      </trkpt>
      <trkpt lat="42.33949" lon="2.47834">
        <ele>1061.437</ele>
        <time>2011-04-02T08:34:12Z</time>
      </trkpt>
      <trkpt lat="42.33954" lon="2.47838">
        <ele>1062.42</ele>
        <time>2011-04-02T08:34:18Z</time>
      </trkpt>
      <trkpt lat="42.33961" lon="2.47846">
        <ele>1061.974</ele>
        <time>2011-04-02T08:34:28Z</time>
      </trkpt>
      <trkpt lat="42.33963" lon="2.47847">
        <ele>1065.356</ele>
        <time>2011-04-02T08:34:30Z</time>
      </trkpt>
      <trkpt lat="42.33967" lon="2.47849">
        <ele>1063.421</ele>
        <time>2011-04-02T08:34:34Z</time>
      </trkpt>
      <trkpt lat="42.33968" lon="2.47851">
        <ele>1065.307</ele>
        <time>2011-04-02T08:34:36Z</time>
      </trkpt>
      <trkpt lat="42.33973" lon="2.47857">
        <ele>1065.878</ele>
        <time>2011-04-02T08:34:41Z</time>
      </trkpt>
      <trkpt lat="42.33975" lon="2.47864">
        <ele>1067.752</ele>
        <time>2011-04-02T08:34:47Z</time>
      </trkpt>
      <trkpt lat="42.33978" lon="2.47867">
        <ele>1067.735</ele>
        <time>2011-04-02T08:34:51Z</time>
      </trkpt>
      <trkpt lat="42.33989" lon="2.4787">
        <ele>1070.144</ele>
        <time>2011-04-02T08:35:01Z</time>
      </trkpt>
      <trkpt lat="42.33993" lon="2.47871">
        <ele>1072.041</ele>
        <time>2011-04-02T08:35:06Z</time>
      </trkpt>
      <trkpt lat="42.33994" lon="2.4787">
        <ele>1068.659</ele>
        <time>2011-04-02T08:35:07Z</time>
      </trkpt>
      <trkpt lat="42.33997" lon="2.47869">
        <ele>1072.012</ele>
        <time>2011-04-02T08:35:11Z</time>
      </trkpt>
      <trkpt lat="42.33998" lon="2.47869">
        <ele>1068.283</ele>
        <time>2011-04-02T08:35:14Z</time>
      </trkpt>
      <trkpt lat="42.33998" lon="2.4787">
        <ele>1073.025</ele>
        <time>2011-04-02T08:35:15Z</time>
      </trkpt>
      <trkpt lat="42.33999" lon="2.4787">
        <ele>1072.017</ele>
        <time>2011-04-02T08:35:16Z</time>
      </trkpt>
      <trkpt lat="42.34" lon="2.47871">
        <ele>1070.607</ele>
        <time>2011-04-02T08:35:18Z</time>
      </trkpt>
      <trkpt lat="42.34002" lon="2.47871">
        <ele>1072.049</ele>
        <time>2011-04-02T08:35:21Z</time>
      </trkpt>
      <trkpt lat="42.34006" lon="2.47872">
        <ele>1071.563</ele>
        <time>2011-04-02T08:35:28Z</time>
      </trkpt>
      <trkpt lat="42.34007" lon="2.47874">
        <ele>1070.136</ele>
        <time>2011-04-02T08:35:33Z</time>
      </trkpt>
      <trkpt lat="42.34011" lon="2.47876">
        <ele>1073.995</ele>
        <time>2011-04-02T08:35:49Z</time>
      </trkpt>
      <trkpt lat="42.34019" lon="2.47878">
        <ele>1074.432</ele>
        <time>2011-04-02T08:36:03Z</time>
      </trkpt>
      <trkpt lat="42.34021" lon="2.47881">
        <ele>1075.94</ele>
        <time>2011-04-02T08:36:19Z</time>
      </trkpt>
      <trkpt lat="42.34022" lon="2.47883">
        <ele>1076.363</ele>
        <time>2011-04-02T08:36:23Z</time>
      </trkpt>
      <trkpt lat="42.34022" lon="2.47883">
        <ele>1072.543</ele>
        <time>2011-04-02T08:36:24Z</time>
      </trkpt>
      <trkpt lat="42.34023" lon="2.47883">
        <ele>1074.964</ele>
        <time>2011-04-02T08:36:25Z</time>
      </trkpt>
      <trkpt lat="42.34024" lon="2.47885">
        <ele>1074.41</ele>
        <time>2011-04-02T08:36:31Z</time>
      </trkpt>
      <trkpt lat="42.34029" lon="2.47887">
        <ele>1075.907</ele>
        <time>2011-04-02T08:36:44Z</time>
      </trkpt>
      <trkpt lat="42.34037" lon="2.4789">
        <ele>1076.385</ele>
        <time>2011-04-02T08:36:52Z</time>
      </trkpt>
      <trkpt lat="42.34045" lon="2.47894">
        <ele>1079.739</ele>
        <time>2011-04-02T08:37:00Z</time>
      </trkpt>
      <trkpt lat="42.34055" lon="2.47899">
        <ele>1083.562</ele>
        <time>2011-04-02T08:37:09Z</time>
      </trkpt>
      <trkpt lat="42.34056" lon="2.479">
        <ele>1079.771</ele>
        <time>2011-04-02T08:37:10Z</time>
      </trkpt>
      <trkpt lat="42.34059" lon="2.47904">
        <ele>1080.298</ele>
        <time>2011-04-02T08:37:14Z</time>
      </trkpt>
      <trkpt lat="42.34064" lon="2.47911">
        <ele>1083.166</ele>
        <time>2011-04-02T08:37:24Z</time>
      </trkpt>
      <trkpt lat="42.34065" lon="2.47912">
        <ele>1084.029</ele>
        <time>2011-04-02T08:37:26Z</time>
      </trkpt>
      <trkpt lat="42.34072" lon="2.47919">
        <ele>1086.421</ele>
        <time>2011-04-02T08:37:37Z</time>
      </trkpt>
      <trkpt lat="42.34082" lon="2.47931">
        <ele>1089.841</ele>
        <time>2011-04-02T08:37:49Z</time>
      </trkpt>
      <trkpt lat="42.34086" lon="2.47934">
        <ele>1089.305</ele>
        <time>2011-04-02T08:37:55Z</time>
      </trkpt>
      <trkpt lat="42.34089" lon="2.47937">
        <ele>1092.207</ele>
        <time>2011-04-02T08:37:58Z</time>
      </trkpt>
      <trkpt lat="42.3409" lon="2.47938">
        <ele>1090.383</ele>
        <time>2011-04-02T08:37:59Z</time>
      </trkpt>
      <trkpt lat="42.3409" lon="2.47941">
        <ele>1090.857</ele>
        <time>2011-04-02T08:38:02Z</time>
      </trkpt>
      <trkpt lat="42.34088" lon="2.47945">
        <ele>1092.22</ele>
        <time>2011-04-02T08:38:08Z</time>
      </trkpt>
      <trkpt lat="42.34086" lon="2.47952">
        <ele>1097.559</ele>
        <time>2011-04-02T08:38:15Z</time>
      </trkpt>
      <trkpt lat="42.34085" lon="2.47952">
        <ele>1095.656</ele>
        <time>2011-04-02T08:38:16Z</time>
      </trkpt>
      <trkpt lat="42.34078" lon="2.47962">
        <ele>1097.054</ele>
        <time>2011-04-02T08:38:29Z</time>
      </trkpt>
      <trkpt lat="42.34076" lon="2.47969">
        <ele>1100.957</ele>
        <time>2011-04-02T08:38:39Z</time>
      </trkpt>
      <trkpt lat="42.34077" lon="2.4797">
        <ele>1099.928</ele>
        <time>2011-04-02T08:38:42Z</time>
      </trkpt>
      <trkpt lat="42.34078" lon="2.47974">
        <ele>1101.889</ele>
        <time>2011-04-02T08:38:47Z</time>
      </trkpt>
      <trkpt lat="42.3408" lon="2.47979">
        <ele>1103.717</ele>
        <time>2011-04-02T08:38:59Z</time>
      </trkpt>
      <trkpt lat="42.34081" lon="2.47981">
        <ele>1105.707</ele>
        <time>2011-04-02T08:39:04Z</time>
      </trkpt>
      <trkpt lat="42.34082" lon="2.47983">
        <ele>1106.643</ele>
        <time>2011-04-02T08:39:08Z</time>
      </trkpt>
      <trkpt lat="42.34085" lon="2.47983">
        <ele>1107.137</ele>
        <time>2011-04-02T08:39:12Z</time>
      </trkpt>
      <trkpt lat="42.34088" lon="2.47987">
        <ele>1109.07</ele>
        <time>2011-04-02T08:39:18Z</time>
      </trkpt>
      <trkpt lat="42.3409" lon="2.47994">
        <ele>1111.459</ele>
        <time>2011-04-02T08:39:25Z</time>
      </trkpt>
      <trkpt lat="42.34102" lon="2.47998">
        <ele>1113.856</ele>
        <time>2011-04-02T08:39:39Z</time>
      </trkpt>
      <trkpt lat="42.3411" lon="2.48">
        <ele>1114.894</ele>
        <time>2011-04-02T08:39:48Z</time>
      </trkpt>
      <trkpt lat="42.34111" lon="2.48003">
        <ele>1116.767</ele>
        <time>2011-04-02T08:39:52Z</time>
      </trkpt>
      <trkpt lat="42.3411" lon="2.48014">
        <ele>1119.637</ele>
        <time>2011-04-02T08:40:05Z</time>
      </trkpt>
      <trkpt lat="42.34108" lon="2.48017">
        <ele>1120.649</ele>
        <time>2011-04-02T08:40:09Z</time>
      </trkpt>
      <trkpt lat="42.34104" lon="2.48023">
        <ele>1122.513</ele>
        <time>2011-04-02T08:40:20Z</time>
      </trkpt>
      <trkpt lat="42.34107" lon="2.48028">
        <ele>1124.407</ele>
        <time>2011-04-02T08:40:33Z</time>
      </trkpt>
      <trkpt lat="42.34108" lon="2.48031">
        <ele>1125.824</ele>
        <time>2011-04-02T08:40:36Z</time>
      </trkpt>
      <trkpt lat="42.34104" lon="2.48038">
        <ele>1128.288</ele>
        <time>2011-04-02T08:40:44Z</time>
      </trkpt>
      <trkpt lat="42.34103" lon="2.48043">
        <ele>1128.741</ele>
        <time>2011-04-02T08:40:50Z</time>
      </trkpt>
      <trkpt lat="42.34108" lon="2.48055">
        <ele>1132.69</ele>
        <time>2011-04-02T08:41:01Z</time>
      </trkpt>
      <trkpt lat="42.34109" lon="2.48065">
        <ele>1133.147</ele>
        <time>2011-04-02T08:41:09Z</time>
      </trkpt>
      <trkpt lat="42.34109" lon="2.4807">
        <ele>1133.185</ele>
        <time>2011-04-02T08:41:13Z</time>
      </trkpt>
      <trkpt lat="42.34105" lon="2.48092">
        <ele>1131.188</ele>
        <time>2011-04-02T08:41:29Z</time>
      </trkpt>
      <trkpt lat="42.34104" lon="2.48094">
        <ele>1131.184</ele>
        <time>2011-04-02T08:42:02Z</time>
      </trkpt>
      <trkpt lat="42.34103" lon="2.48096">
        <ele>1131.607</ele>
        <time>2011-04-02T08:42:23Z</time>
      </trkpt>
      <trkpt lat="42.34103" lon="2.48102">
        <ele>1132.117</ele>
        <time>2011-04-02T08:42:40Z</time>
      </trkpt>
      <trkpt lat="42.34096" lon="2.48108">
        <ele>1131.607</ele>
        <time>2011-04-02T08:42:55Z</time>
      </trkpt>
      <trkpt lat="42.34095" lon="2.48106">
        <ele>1131.689</ele>
        <time>2011-04-02T08:43:25Z</time>
      </trkpt>
      <trkpt lat="42.34097" lon="2.48103">
        <ele>1130.723</ele>
        <time>2011-04-02T08:43:55Z</time>
      </trkpt>
      <trkpt lat="42.34099" lon="2.481">
        <ele>1131.136</ele>
        <time>2011-04-02T08:44:01Z</time>
      </trkpt>
      <trkpt lat="42.34104" lon="2.48097">
        <ele>1131.135</ele>
        <time>2011-04-02T08:44:20Z</time>
      </trkpt>
      <trkpt lat="42.34108" lon="2.48093">
        <ele>1131.632</ele>
        <time>2011-04-02T08:44:29Z</time>
      </trkpt>
      <trkpt lat="42.34109" lon="2.48092">
        <ele>1131.68</ele>
        <time>2011-04-02T08:44:32Z</time>
      </trkpt>
      <trkpt lat="42.34115" lon="2.48088">
        <ele>1132.693</ele>
        <time>2011-04-02T08:44:50Z</time>
      </trkpt>
      <trkpt lat="42.34116" lon="2.48089">
        <ele>1131.637</ele>
        <time>2011-04-02T08:45:16Z</time>
      </trkpt>
      <trkpt lat="42.34116" lon="2.4809">
        <ele>1131.649</ele>
        <time>2011-04-02T08:46:05Z</time>
      </trkpt>
      <trkpt lat="42.34117" lon="2.4809">
        <ele>1132.113</ele>
        <time>2011-04-02T08:47:49Z</time>
      </trkpt>
      <trkpt lat="42.34116" lon="2.4809">
        <ele>1131.607</ele>
        <time>2011-04-02T08:48:18Z</time>
      </trkpt>
      <trkpt lat="42.34115" lon="2.48089">
        <ele>1131.164</ele>
        <time>2011-04-02T08:48:33Z</time>
      </trkpt>
      <trkpt lat="42.34115" lon="2.4809">
        <ele>1130.778</ele>
        <time>2011-04-02T08:48:56Z</time>
      </trkpt>
      <trkpt lat="42.34116" lon="2.48093">
        <ele>1131.171</ele>
        <time>2011-04-02T08:49:29Z</time>
      </trkpt>
      <trkpt lat="42.34116" lon="2.48093">
        <ele>1131.61</ele>
        <time>2011-04-02T08:49:57Z</time>
      </trkpt>
      <trkpt lat="42.34115" lon="2.48093">
        <ele>1131.697</ele>
        <time>2011-04-02T08:50:46Z</time>
      </trkpt>
      <trkpt lat="42.34112" lon="2.48091">
        <ele>1132.125</ele>
        <time>2011-04-02T08:51:10Z</time>
      </trkpt>
      <trkpt lat="42.34112" lon="2.4809">
        <ele>1132.188</ele>
        <time>2011-04-02T08:51:25Z</time>
      </trkpt>
      <trkpt lat="42.34112" lon="2.4809">
        <ele>1132.668</ele>
        <time>2011-04-02T08:51:42Z</time>
      </trkpt>
      <trkpt lat="42.34094" lon="2.48109">
        <ele>1131.142</ele>
        <time>2011-04-02T08:51:59Z</time>
      </trkpt>
      <trkpt lat="42.34091" lon="2.48115">
        <ele>1132.126</ele>
        <time>2011-04-02T08:52:03Z</time>
      </trkpt>
      <trkpt lat="42.34085" lon="2.48137">
        <ele>1132.107</ele>
        <time>2011-04-02T08:52:18Z</time>
      </trkpt>
      <trkpt lat="42.34083" lon="2.48145">
        <ele>1132.687</ele>
        <time>2011-04-02T08:52:23Z</time>
      </trkpt>
      <trkpt lat="42.34083" lon="2.48158">
        <ele>1133.511</ele>
        <time>2011-04-02T08:52:32Z</time>
      </trkpt>
      <trkpt lat="42.34082" lon="2.48165">
        <ele>1134.574</ele>
        <time>2011-04-02T08:52:37Z</time>
      </trkpt>
      <trkpt lat="42.34082" lon="2.48177">
        <ele>1134.583</ele>
        <time>2011-04-02T08:52:46Z</time>
      </trkpt>
      <trkpt lat="42.34082" lon="2.48185">
        <ele>1136.46</ele>
        <time>2011-04-02T08:52:52Z</time>
      </trkpt>
      <trkpt lat="42.34083" lon="2.48197">
        <ele>1139.328</ele>
        <time>2011-04-02T08:53:04Z</time>
      </trkpt>
      <trkpt lat="42.34084" lon="2.48212">
        <ele>1139.881</ele>
        <time>2011-04-02T08:53:18Z</time>
      </trkpt>
      <trkpt lat="42.34086" lon="2.48217">
        <ele>1138.814</ele>
        <time>2011-04-02T08:53:26Z</time>
      </trkpt>
      <trkpt lat="42.34091" lon="2.48229">
        <ele>1139.354</ele>
        <time>2011-04-02T08:53:38Z</time>
      </trkpt>
      <trkpt lat="42.34094" lon="2.48246">
        <ele>1141.209</ele>
        <time>2011-04-02T08:53:51Z</time>
      </trkpt>
      <trkpt lat="42.34095" lon="2.4826">
        <ele>1142.207</ele>
        <time>2011-04-02T08:54:01Z</time>
      </trkpt>
      <trkpt lat="42.34096" lon="2.48271">
        <ele>1145.182</ele>
        <time>2011-04-02T08:54:14Z</time>
      </trkpt>
      <trkpt lat="42.34095" lon="2.48283">
        <ele>1148.076</ele>
        <time>2011-04-02T08:54:28Z</time>
      </trkpt>
      <trkpt lat="42.34095" lon="2.48298">
        <ele>1150.479</ele>
        <time>2011-04-02T08:54:40Z</time>
      </trkpt>
      <trkpt lat="42.34097" lon="2.48302">
        <ele>1150.868</ele>
        <time>2011-04-02T08:54:44Z</time>
      </trkpt>
      <trkpt lat="42.34102" lon="2.48313">
        <ele>1151.855</ele>
        <time>2011-04-02T08:54:57Z</time>
      </trkpt>
      <trkpt lat="42.34109" lon="2.48334">
        <ele>1154.773</ele>
        <time>2011-04-02T08:55:09Z</time>
      </trkpt>
      <trkpt lat="42.34112" lon="2.48347">
        <ele>1156.136</ele>
        <time>2011-04-02T08:55:16Z</time>
      </trkpt>
      <trkpt lat="42.34117" lon="2.48372">
        <ele>1159.049</ele>
        <time>2011-04-02T08:55:32Z</time>
      </trkpt>
      <trkpt lat="42.34118" lon="2.48374">
        <ele>1158.502</ele>
        <time>2011-04-02T08:55:33Z</time>
      </trkpt>
      <trkpt lat="42.3412" lon="2.48379">
        <ele>1159.022</ele>
        <time>2011-04-02T08:55:36Z</time>
      </trkpt>
      <trkpt lat="42.34122" lon="2.48393">
        <ele>1160.007</ele>
        <time>2011-04-02T08:55:44Z</time>
      </trkpt>
      <trkpt lat="42.3412" lon="2.48412">
        <ele>1161.975</ele>
        <time>2011-04-02T08:55:54Z</time>
      </trkpt>
      <trkpt lat="42.34122" lon="2.4843">
        <ele>1160.599</ele>
        <time>2011-04-02T08:56:05Z</time>
      </trkpt>
      <trkpt lat="42.34124" lon="2.48444">
        <ele>1162.942</ele>
        <time>2011-04-02T08:56:19Z</time>
      </trkpt>
      <trkpt lat="42.34126" lon="2.48467">
        <ele>1166.211</ele>
        <time>2011-04-02T08:56:35Z</time>
      </trkpt>
      <trkpt lat="42.34126" lon="2.48486">
        <ele>1169.698</ele>
        <time>2011-04-02T08:56:51Z</time>
      </trkpt>
      <trkpt lat="42.34127" lon="2.48504">
        <ele>1173.056</ele>
        <time>2011-04-02T08:57:06Z</time>
      </trkpt>
      <trkpt lat="42.34127" lon="2.48506">
        <ele>1173.019</ele>
        <time>2011-04-02T08:57:07Z</time>
      </trkpt>
      <trkpt lat="42.34124" lon="2.48521">
        <ele>1175.859</ele>
        <time>2011-04-02T08:57:19Z</time>
      </trkpt>
      <trkpt lat="42.34126" lon="2.48533">
        <ele>1178.703</ele>
        <time>2011-04-02T08:57:30Z</time>
      </trkpt>
      <trkpt lat="42.34122" lon="2.48552">
        <ele>1181.623</ele>
        <time>2011-04-02T08:57:47Z</time>
      </trkpt>
      <trkpt lat="42.34116" lon="2.48564">
        <ele>1184.007</ele>
        <time>2011-04-02T08:57:56Z</time>
      </trkpt>
      <trkpt lat="42.34112" lon="2.48569">
        <ele>1185.416</ele>
        <time>2011-04-02T08:57:59Z</time>
      </trkpt>
      <trkpt lat="42.34092" lon="2.48584">
        <ele>1183.53</ele>
        <time>2011-04-02T08:58:14Z</time>
      </trkpt>
      <trkpt lat="42.34091" lon="2.48589">
        <ele>1182.653</ele>
        <time>2011-04-02T08:58:17Z</time>
      </trkpt>
      <trkpt lat="42.34091" lon="2.48595">
        <ele>1184.042</ele>
        <time>2011-04-02T08:58:21Z</time>
      </trkpt>
      <trkpt lat="42.34097" lon="2.48614">
        <ele>1187.929</ele>
        <time>2011-04-02T08:58:38Z</time>
      </trkpt>
      <trkpt lat="42.34099" lon="2.48623">
        <ele>1191.247</ele>
        <time>2011-04-02T08:58:49Z</time>
      </trkpt>
      <trkpt lat="42.34104" lon="2.48634">
        <ele>1194.19</ele>
        <time>2011-04-02T08:59:01Z</time>
      </trkpt>
      <trkpt lat="42.34106" lon="2.48648">
        <ele>1197.955</ele>
        <time>2011-04-02T08:59:17Z</time>
      </trkpt>
      <trkpt lat="42.34106" lon="2.48649">
        <ele>1197.907</ele>
        <time>2011-04-02T08:59:18Z</time>
      </trkpt>
      <trkpt lat="42.3411" lon="2.48669">
        <ele>1199.917</ele>
        <time>2011-04-02T08:59:30Z</time>
      </trkpt>
      <trkpt lat="42.34111" lon="2.4867">
        <ele>1199.407</ele>
        <time>2011-04-02T08:59:31Z</time>
      </trkpt>
      <trkpt lat="42.34111" lon="2.48702">
        <ele>1202.366</ele>
        <time>2011-04-02T08:59:48Z</time>
      </trkpt>
      <trkpt lat="42.34106" lon="2.48709">
        <ele>1203.79</ele>
        <time>2011-04-02T09:00:01Z</time>
      </trkpt>
      <trkpt lat="42.34103" lon="2.48711">
        <ele>1203.283</ele>
        <time>2011-04-02T09:00:09Z</time>
      </trkpt>
      <trkpt lat="42.34105" lon="2.48714">
        <ele>1202.872</ele>
        <time>2011-04-02T09:00:14Z</time>
      </trkpt>
      <trkpt lat="42.34108" lon="2.48718">
        <ele>1202.869</ele>
        <time>2011-04-02T09:00:17Z</time>
      </trkpt>
      <trkpt lat="42.34112" lon="2.4875">
        <ele>1206.117</ele>
        <time>2011-04-02T09:00:34Z</time>
      </trkpt>
      <trkpt lat="42.34114" lon="2.48761">
        <ele>1205.66</ele>
        <time>2011-04-02T09:00:38Z</time>
      </trkpt>
      <trkpt lat="42.34116" lon="2.48775">
        <ele>1207.132</ele>
        <time>2011-04-02T09:00:43Z</time>
      </trkpt>
      <trkpt lat="42.34117" lon="2.48782">
        <ele>1207.192</ele>
        <time>2011-04-02T09:00:46Z</time>
      </trkpt>
      <trkpt lat="42.34115" lon="2.48787">
        <ele>1208.511</ele>
        <time>2011-04-02T09:00:50Z</time>
      </trkpt>
      <trkpt lat="42.34115" lon="2.48813">
        <ele>1211.407</ele>
        <time>2011-04-02T09:01:00Z</time>
      </trkpt>
      <trkpt lat="42.34116" lon="2.48817">
        <ele>1211.414</ele>
        <time>2011-04-02T09:01:02Z</time>
      </trkpt>
      <trkpt lat="42.34122" lon="2.48843">
        <ele>1213.368</ele>
        <time>2011-04-02T09:01:18Z</time>
      </trkpt>
      <trkpt lat="42.34132" lon="2.4886">
        <ele>1215.251</ele>
        <time>2011-04-02T09:01:32Z</time>
      </trkpt>
      <trkpt lat="42.34135" lon="2.48866">
        <ele>1216.78</ele>
        <time>2011-04-02T09:01:39Z</time>
      </trkpt>
      <trkpt lat="42.34144" lon="2.48882">
        <ele>1219.697</ele>
        <time>2011-04-02T09:01:51Z</time>
      </trkpt>
      <trkpt lat="42.34147" lon="2.48886">
        <ele>1219.695</ele>
        <time>2011-04-02T09:01:54Z</time>
      </trkpt>
      <trkpt lat="42.34149" lon="2.4889">
        <ele>1221.048</ele>
        <time>2011-04-02T09:01:57Z</time>
      </trkpt>
      <trkpt lat="42.34153" lon="2.48912">
        <ele>1222.048</ele>
        <time>2011-04-02T09:02:09Z</time>
      </trkpt>
      <trkpt lat="42.34158" lon="2.48936">
        <ele>1224.461</ele>
        <time>2011-04-02T09:02:23Z</time>
      </trkpt>
      <trkpt lat="42.34158" lon="2.48939">
        <ele>1224.417</ele>
        <time>2011-04-02T09:02:25Z</time>
      </trkpt>
      <trkpt lat="42.34159" lon="2.48943">
        <ele>1225.307</ele>
        <time>2011-04-02T09:02:28Z</time>
      </trkpt>
      <trkpt lat="42.34162" lon="2.48949">
        <ele>1225.845</ele>
        <time>2011-04-02T09:02:33Z</time>
      </trkpt>
      <trkpt lat="42.34165" lon="2.48952">
        <ele>1225.869</ele>
        <time>2011-04-02T09:02:37Z</time>
      </trkpt>
      <trkpt lat="42.34171" lon="2.48953">
        <ele>1224.422</ele>
        <time>2011-04-02T09:02:43Z</time>
      </trkpt>
      <trkpt lat="42.34175" lon="2.4896">
        <ele>1224.981</ele>
        <time>2011-04-02T09:02:49Z</time>
      </trkpt>
      <trkpt lat="42.34187" lon="2.48977">
        <ele>1227.778</ele>
        <time>2011-04-02T09:03:05Z</time>
      </trkpt>
      <trkpt lat="42.34199" lon="2.48987">
        <ele>1231.126</ele>
        <time>2011-04-02T09:03:17Z</time>
      </trkpt>
      <trkpt lat="42.342" lon="2.48989">
        <ele>1231.129</ele>
        <time>2011-04-02T09:03:19Z</time>
      </trkpt>
      <trkpt lat="42.34211" lon="2.49002">
        <ele>1233.585</ele>
        <time>2011-04-02T09:03:31Z</time>
      </trkpt>
      <trkpt lat="42.34215" lon="2.49006">
        <ele>1233.089</ele>
        <time>2011-04-02T09:03:35Z</time>
      </trkpt>
      <trkpt lat="42.34222" lon="2.49015">
        <ele>1234.017</ele>
        <time>2011-04-02T09:03:42Z</time>
      </trkpt>
      <trkpt lat="42.34233" lon="2.49046">
        <ele>1235.907</ele>
        <time>2011-04-02T09:03:59Z</time>
      </trkpt>
      <trkpt lat="42.34234" lon="2.49053">
        <ele>1236.429</ele>
        <time>2011-04-02T09:04:02Z</time>
      </trkpt>
      <trkpt lat="42.34241" lon="2.49073">
        <ele>1235.923</ele>
        <time>2011-04-02T09:04:13Z</time>
      </trkpt>
      <trkpt lat="42.34249" lon="2.49094">
        <ele>1237.456</ele>
        <time>2011-04-02T09:04:26Z</time>
      </trkpt>
      <trkpt lat="42.34254" lon="2.49113">
        <ele>1240.795</ele>
        <time>2011-04-02T09:04:39Z</time>
      </trkpt>
      <trkpt lat="42.34254" lon="2.49116">
        <ele>1241.742</ele>
        <time>2011-04-02T09:04:41Z</time>
      </trkpt>
      <trkpt lat="42.3425" lon="2.49133">
        <ele>1241.72</ele>
        <time>2011-04-02T09:04:52Z</time>
      </trkpt>
      <trkpt lat="42.34246" lon="2.49145">
        <ele>1240.233</ele>
        <time>2011-04-02T09:04:57Z</time>
      </trkpt>
      <trkpt lat="42.34245" lon="2.49146">
        <ele>1240.739</ele>
        <time>2011-04-02T09:04:58Z</time>
      </trkpt>
      <trkpt lat="42.34235" lon="2.49156">
        <ele>1237.401</ele>
        <time>2011-04-02T09:05:06Z</time>
      </trkpt>
      <trkpt lat="42.34229" lon="2.49161">
        <ele>1236.421</ele>
        <time>2011-04-02T09:05:11Z</time>
      </trkpt>
      <trkpt lat="42.34225" lon="2.49164">
        <ele>1235.407</ele>
        <time>2011-04-02T09:05:14Z</time>
      </trkpt>
      <trkpt lat="42.34219" lon="2.49173">
        <ele>1238.354</ele>
        <time>2011-04-02T09:05:25Z</time>
      </trkpt>
      <trkpt lat="42.34217" lon="2.49173">
        <ele>1241.238</ele>
        <time>2011-04-02T09:05:31Z</time>
      </trkpt>
      <trkpt lat="42.34212" lon="2.49171">
        <ele>1242.691</ele>
        <time>2011-04-02T09:05:38Z</time>
      </trkpt>
      <trkpt lat="42.34206" lon="2.49174">
        <ele>1245.06</ele>
        <time>2011-04-02T09:05:46Z</time>
      </trkpt>
      <trkpt lat="42.34199" lon="2.49179">
        <ele>1247.997</ele>
        <time>2011-04-02T09:05:58Z</time>
      </trkpt>
      <trkpt lat="42.34197" lon="2.49181">
        <ele>1249.925</ele>
        <time>2011-04-02T09:06:05Z</time>
      </trkpt>
      <trkpt lat="42.34188" lon="2.4918">
        <ele>1253.248</ele>
        <time>2011-04-02T09:06:17Z</time>
      </trkpt>
      <trkpt lat="42.34185" lon="2.49183">
        <ele>1254.796</ele>
        <time>2011-04-02T09:06:23Z</time>
      </trkpt>
      <trkpt lat="42.34183" lon="2.49185">
        <ele>1256.131</ele>
        <time>2011-04-02T09:06:27Z</time>
      </trkpt>
      <trkpt lat="42.34171" lon="2.49186">
        <ele>1259.924</ele>
        <time>2011-04-02T09:06:44Z</time>
      </trkpt>
      <trkpt lat="42.3417" lon="2.49186">
        <ele>1259.907</ele>
        <time>2011-04-02T09:06:45Z</time>
      </trkpt>
      <trkpt lat="42.34163" lon="2.49193">
        <ele>1262.46</ele>
        <time>2011-04-02T09:06:53Z</time>
      </trkpt>
      <trkpt lat="42.34154" lon="2.49197">
        <ele>1264.344</ele>
        <time>2011-04-02T09:07:07Z</time>
      </trkpt>
      <trkpt lat="42.34146" lon="2.49201">
        <ele>1267.657</ele>
        <time>2011-04-02T09:07:18Z</time>
      </trkpt>
      <trkpt lat="42.3414" lon="2.49211">
        <ele>1266.286</ele>
        <time>2011-04-02T09:07:27Z</time>
      </trkpt>
      <trkpt lat="42.34139" lon="2.49219">
        <ele>1267.673</ele>
        <time>2011-04-02T09:07:34Z</time>
      </trkpt>
      <trkpt lat="42.34139" lon="2.49235">
        <ele>1270.521</ele>
        <time>2011-04-02T09:07:47Z</time>
      </trkpt>
      <trkpt lat="42.3414" lon="2.49252">
        <ele>1271.564</ele>
        <time>2011-04-02T09:08:00Z</time>
      </trkpt>
      <trkpt lat="42.34144" lon="2.49265">
        <ele>1274.975</ele>
        <time>2011-04-02T09:08:12Z</time>
      </trkpt>
      <trkpt lat="42.34149" lon="2.4928">
        <ele>1276.828</ele>
        <time>2011-04-02T09:08:27Z</time>
      </trkpt>
      <trkpt lat="42.34148" lon="2.49288">
        <ele>1277.72</ele>
        <time>2011-04-02T09:08:38Z</time>
      </trkpt>
      <trkpt lat="42.34148" lon="2.49291">
        <ele>1279.207</ele>
        <time>2011-04-02T09:08:47Z</time>
      </trkpt>
      <trkpt lat="42.34149" lon="2.49304">
        <ele>1280.658</ele>
        <time>2011-04-02T09:09:01Z</time>
      </trkpt>
      <trkpt lat="42.34152" lon="2.49311">
        <ele>1282.152</ele>
        <time>2011-04-02T09:09:13Z</time>
      </trkpt>
      <trkpt lat="42.34154" lon="2.49305">
        <ele>1285.475</ele>
        <time>2011-04-02T09:09:23Z</time>
      </trkpt>
      <trkpt lat="42.34155" lon="2.49304">
        <ele>1285.414</ele>
        <time>2011-04-02T09:09:24Z</time>
      </trkpt>
      <trkpt lat="42.34156" lon="2.49302">
        <ele>1287.351</ele>
        <time>2011-04-02T09:09:27Z</time>
      </trkpt>
      <trkpt lat="42.34159" lon="2.49296">
        <ele>1289.349</ele>
        <time>2011-04-02T09:09:37Z</time>
      </trkpt>
      <trkpt lat="42.3416" lon="2.49295">
        <ele>1290.212</ele>
        <time>2011-04-02T09:09:39Z</time>
      </trkpt>
      <trkpt lat="42.34164" lon="2.49292">
        <ele>1293.163</ele>
        <time>2011-04-02T09:09:49Z</time>
      </trkpt>
      <trkpt lat="42.34168" lon="2.49291">
        <ele>1293.644</ele>
        <time>2011-04-02T09:09:58Z</time>
      </trkpt>
      <trkpt lat="42.34172" lon="2.49288">
        <ele>1297.018</ele>
        <time>2011-04-02T09:10:06Z</time>
      </trkpt>
      <trkpt lat="42.34176" lon="2.49286">
        <ele>1300.807</ele>
        <time>2011-04-02T09:10:15Z</time>
      </trkpt>
      <trkpt lat="42.34179" lon="2.49287">
        <ele>1303.267</ele>
        <time>2011-04-02T09:10:20Z</time>
      </trkpt>
      <trkpt lat="42.34183" lon="2.49279">
        <ele>1305.631</ele>
        <time>2011-04-02T09:10:34Z</time>
      </trkpt>
      <trkpt lat="42.34187" lon="2.49284">
        <ele>1307.584</ele>
        <time>2011-04-02T09:10:45Z</time>
      </trkpt>
      <trkpt lat="42.34194" lon="2.49294">
        <ele>1310.423</ele>
        <time>2011-04-02T09:10:58Z</time>
      </trkpt>
      <trkpt lat="42.34204" lon="2.49302">
        <ele>1310.49</ele>
        <time>2011-04-02T09:11:10Z</time>
      </trkpt>
      <trkpt lat="42.34213" lon="2.49311">
        <ele>1313.338</ele>
        <time>2011-04-02T09:11:23Z</time>
      </trkpt>
      <trkpt lat="42.34216" lon="2.49317">
        <ele>1311.981</ele>
        <time>2011-04-02T09:11:27Z</time>
      </trkpt>
      <trkpt lat="42.3423" lon="2.49329">
        <ele>1311.449</ele>
        <time>2011-04-02T09:11:35Z</time>
      </trkpt>
      <trkpt lat="42.34235" lon="2.49344">
        <ele>1312.302</ele>
        <time>2011-04-02T09:11:49Z</time>
      </trkpt>
      <trkpt lat="42.34237" lon="2.49359">
        <ele>1312.822</ele>
        <time>2011-04-02T09:12:10Z</time>
      </trkpt>
      <trkpt lat="42.34241" lon="2.49375">
        <ele>1313.807</ele>
        <time>2011-04-02T09:12:20Z</time>
      </trkpt>
      <trkpt lat="42.34245" lon="2.49394">
        <ele>1315.765</ele>
        <time>2011-04-02T09:12:32Z</time>
      </trkpt>
      <trkpt lat="42.3425" lon="2.49419">
        <ele>1316.779</ele>
        <time>2011-04-02T09:12:46Z</time>
      </trkpt>
      <trkpt lat="42.34249" lon="2.49421">
        <ele>1316.782</ele>
        <time>2011-04-02T09:12:47Z</time>
      </trkpt>
      <trkpt lat="42.34259" lon="2.49439">
        <ele>1314.391</ele>
        <time>2011-04-02T09:12:59Z</time>
      </trkpt>
      <trkpt lat="42.34264" lon="2.49451">
        <ele>1314.768</ele>
        <time>2011-04-02T09:13:10Z</time>
      </trkpt>
      <trkpt lat="42.34272" lon="2.49463">
        <ele>1315.796</ele>
        <time>2011-04-02T09:13:21Z</time>
      </trkpt>
      <trkpt lat="42.34273" lon="2.49474">
        <ele>1317.159</ele>
        <time>2011-04-02T09:13:33Z</time>
      </trkpt>
      <trkpt lat="42.34277" lon="2.49491">
        <ele>1318.686</ele>
        <time>2011-04-02T09:13:47Z</time>
      </trkpt>
      <trkpt lat="42.34278" lon="2.49499">
        <ele>1318.66</ele>
        <time>2011-04-02T09:13:52Z</time>
      </trkpt>
      <trkpt lat="42.34279" lon="2.49501">
        <ele>1319.126</ele>
        <time>2011-04-02T09:13:54Z</time>
      </trkpt>
      <trkpt lat="42.34282" lon="2.49521">
        <ele>1318.107</ele>
        <time>2011-04-02T09:14:07Z</time>
      </trkpt>
      <trkpt lat="42.34281" lon="2.49536">
        <ele>1319.179</ele>
        <time>2011-04-02T09:14:17Z</time>
      </trkpt>
      <trkpt lat="42.34282" lon="2.49557">
        <ele>1318.643</ele>
        <time>2011-04-02T09:14:29Z</time>
      </trkpt>
      <trkpt lat="42.34281" lon="2.4957">
        <ele>1319.626</ele>
        <time>2011-04-02T09:14:36Z</time>
      </trkpt>
      <trkpt lat="42.34285" lon="2.49591">
        <ele>1320.565</ele>
        <time>2011-04-02T09:14:47Z</time>
      </trkpt>
      <trkpt lat="42.34286" lon="2.49601">
        <ele>1321.562</ele>
        <time>2011-04-02T09:14:53Z</time>
      </trkpt>
      <trkpt lat="42.34286" lon="2.49606">
        <ele>1322.49</ele>
        <time>2011-04-02T09:14:57Z</time>
      </trkpt>
      <trkpt lat="42.34287" lon="2.49619">
        <ele>1324.893</ele>
        <time>2011-04-02T09:15:08Z</time>
      </trkpt>
      <trkpt lat="42.34292" lon="2.49635">
        <ele>1325.879</ele>
        <time>2011-04-02T09:15:20Z</time>
      </trkpt>
      <trkpt lat="42.34297" lon="2.49654">
        <ele>1327.705</ele>
        <time>2011-04-02T09:15:33Z</time>
      </trkpt>
      <trkpt lat="42.34297" lon="2.49662">
        <ele>1328.725</ele>
        <time>2011-04-02T09:15:39Z</time>
      </trkpt>
      <trkpt lat="42.34296" lon="2.49675">
        <ele>1331.107</ele>
        <time>2011-04-02T09:15:50Z</time>
      </trkpt>
      <trkpt lat="42.34294" lon="2.49694">
        <ele>1333.528</ele>
        <time>2011-04-02T09:16:04Z</time>
      </trkpt>
      <trkpt lat="42.34291" lon="2.49706">
        <ele>1335.432</ele>
        <time>2011-04-02T09:16:13Z</time>
      </trkpt>
      <trkpt lat="42.34291" lon="2.4971">
        <ele>1336.955</ele>
        <time>2011-04-02T09:16:16Z</time>
      </trkpt>
      <trkpt lat="42.34293" lon="2.49726">
        <ele>1338.814</ele>
        <time>2011-04-02T09:16:27Z</time>
      </trkpt>
      <trkpt lat="42.34293" lon="2.4974">
        <ele>1340.711</ele>
        <time>2011-04-02T09:16:40Z</time>
      </trkpt>
      <trkpt lat="42.34294" lon="2.49743">
        <ele>1340.779</ele>
        <time>2011-04-02T09:16:42Z</time>
      </trkpt>
      <trkpt lat="42.34294" lon="2.49746">
        <ele>1342.662</ele>
        <time>2011-04-02T09:16:45Z</time>
      </trkpt>
      <trkpt lat="42.34296" lon="2.49759">
        <ele>1346.078</ele>
        <time>2011-04-02T09:16:57Z</time>
      </trkpt>
      <trkpt lat="42.34299" lon="2.49765">
        <ele>1346.533</ele>
        <time>2011-04-02T09:17:03Z</time>
      </trkpt>
      <trkpt lat="42.343" lon="2.49777">
        <ele>1348.926</ele>
        <time>2011-04-02T09:17:15Z</time>
      </trkpt>
      <trkpt lat="42.34302" lon="2.49789">
        <ele>1351.307</ele>
        <time>2011-04-02T09:17:28Z</time>
      </trkpt>
      <trkpt lat="42.34304" lon="2.49802">
        <ele>1354.288</ele>
        <time>2011-04-02T09:17:42Z</time>
      </trkpt>
      <trkpt lat="42.34303" lon="2.49809">
        <ele>1357.582</ele>
        <time>2011-04-02T09:17:52Z</time>
      </trkpt>
      <trkpt lat="42.34302" lon="2.49819">
        <ele>1359.935</ele>
        <time>2011-04-02T09:18:05Z</time>
      </trkpt>
      <trkpt lat="42.34298" lon="2.49827">
        <ele>1361.884</ele>
        <time>2011-04-02T09:18:19Z</time>
      </trkpt>
      <trkpt lat="42.34296" lon="2.49829">
        <ele>1359.951</ele>
        <time>2011-04-02T09:18:49Z</time>
      </trkpt>
      <trkpt lat="42.34295" lon="2.4983">
        <ele>1363.819</ele>
        <time>2011-04-02T09:18:57Z</time>
      </trkpt>
      <trkpt lat="42.34295" lon="2.49831">
        <ele>1363.872</ele>
        <time>2011-04-02T09:18:58Z</time>
      </trkpt>
      <trkpt lat="42.34294" lon="2.49831">
        <ele>1363.388</ele>
        <time>2011-04-02T09:19:06Z</time>
      </trkpt>
      <trkpt lat="42.34297" lon="2.4984">
        <ele>1365.224</ele>
        <time>2011-04-02T09:19:31Z</time>
      </trkpt>
      <trkpt lat="42.34302" lon="2.49853">
        <ele>1364.326</ele>
        <time>2011-04-02T09:19:44Z</time>
      </trkpt>
      <trkpt lat="42.34308" lon="2.4987">
        <ele>1365.707</ele>
        <time>2011-04-02T09:19:58Z</time>
      </trkpt>
      <trkpt lat="42.34309" lon="2.49875">
        <ele>1366.279</ele>
        <time>2011-04-02T09:20:02Z</time>
      </trkpt>
      <trkpt lat="42.34316" lon="2.49894">
        <ele>1367.143</ele>
        <time>2011-04-02T09:20:18Z</time>
      </trkpt>
      <trkpt lat="42.34321" lon="2.4991">
        <ele>1368.696</ele>
        <time>2011-04-02T09:20:30Z</time>
      </trkpt>
      <trkpt lat="42.34325" lon="2.49939">
        <ele>1367.615</ele>
        <time>2011-04-02T09:20:46Z</time>
      </trkpt>
      <trkpt lat="42.34327" lon="2.49957">
        <ele>1369.112</ele>
        <time>2011-04-02T09:20:56Z</time>
      </trkpt>
      <trkpt lat="42.34328" lon="2.49959">
        <ele>1368.62</ele>
        <time>2011-04-02T09:20:58Z</time>
      </trkpt>
      <trkpt lat="42.34328" lon="2.49971">
        <ele>1370.093</ele>
        <time>2011-04-02T09:21:07Z</time>
      </trkpt>
      <trkpt lat="42.34328" lon="2.49984">
        <ele>1372.999</ele>
        <time>2011-04-02T09:21:17Z</time>
      </trkpt>
      <trkpt lat="42.34325" lon="2.5">
        <ele>1374.807</ele>
        <time>2011-04-02T09:21:30Z</time>
      </trkpt>
      <trkpt lat="42.34325" lon="2.50001">
        <ele>1375.327</ele>
        <time>2011-04-02T09:21:31Z</time>
      </trkpt>
      <trkpt lat="42.34325" lon="2.50002">
        <ele>1374.807</ele>
        <time>2011-04-02T09:21:33Z</time>
      </trkpt>
      <trkpt lat="42.34324" lon="2.50018">
        <ele>1376.89</ele>
        <time>2011-04-02T09:21:45Z</time>
      </trkpt>
      <trkpt lat="42.34321" lon="2.50028">
        <ele>1374.354</ele>
        <time>2011-04-02T09:21:50Z</time>
      </trkpt>
      <trkpt lat="42.34305" lon="2.50052">
        <ele>1371.537</ele>
        <time>2011-04-02T09:22:01Z</time>
      </trkpt>
      <trkpt lat="42.343" lon="2.50064">
        <ele>1369.576</ele>
        <time>2011-04-02T09:22:07Z</time>
      </trkpt>
      <trkpt lat="42.343" lon="2.50066">
        <ele>1368.143</ele>
        <time>2011-04-02T09:22:08Z</time>
      </trkpt>
      <trkpt lat="42.34297" lon="2.50074">
        <ele>1366.731</ele>
        <time>2011-04-02T09:22:12Z</time>
      </trkpt>
      <trkpt lat="42.34282" lon="2.50084">
        <ele>1366.784</ele>
        <time>2011-04-02T09:22:19Z</time>
      </trkpt>
      <trkpt lat="42.34272" lon="2.50093">
        <ele>1370.073</ele>
        <time>2011-04-02T09:22:31Z</time>
      </trkpt>
      <trkpt lat="42.34269" lon="2.50098">
        <ele>1371.985</ele>
        <time>2011-04-02T09:22:36Z</time>
      </trkpt>
      <trkpt lat="42.34262" lon="2.50112">
        <ele>1368.113</ele>
        <time>2011-04-02T09:22:45Z</time>
      </trkpt>
      <trkpt lat="42.34259" lon="2.50121">
        <ele>1366.707</ele>
        <time>2011-04-02T09:22:49Z</time>
      </trkpt>
      <trkpt lat="42.34259" lon="2.50126">
        <ele>1365.738</ele>
        <time>2011-04-02T09:22:51Z</time>
      </trkpt>
      <trkpt lat="42.3425" lon="2.50147">
        <ele>1363.872</ele>
        <time>2011-04-02T09:23:01Z</time>
      </trkpt>
      <trkpt lat="42.3425" lon="2.50146">
        <ele>1362.865</ele>
        <time>2011-04-02T09:23:27Z</time>
      </trkpt>
      <trkpt lat="42.34245" lon="2.50157">
        <ele>1360.424</ele>
        <time>2011-04-02T09:23:35Z</time>
      </trkpt>
      <trkpt lat="42.34241" lon="2.50167">
        <ele>1359.481</ele>
        <time>2011-04-02T09:23:38Z</time>
      </trkpt>
      <trkpt lat="42.34227" lon="2.50199">
        <ele>1356.129</ele>
        <time>2011-04-02T09:23:48Z</time>
      </trkpt>
      <trkpt lat="42.34219" lon="2.5022">
        <ele>1354.632</ele>
        <time>2011-04-02T09:23:55Z</time>
      </trkpt>
      <trkpt lat="42.34213" lon="2.50227">
        <ele>1356.632</ele>
        <time>2011-04-02T09:24:00Z</time>
      </trkpt>
      <trkpt lat="42.34206" lon="2.50243">
        <ele>1357.592</ele>
        <time>2011-04-02T09:24:17Z</time>
      </trkpt>
      <trkpt lat="42.342" lon="2.50253">
        <ele>1360.411</ele>
        <time>2011-04-02T09:24:30Z</time>
      </trkpt>
      <trkpt lat="42.34197" lon="2.5026">
        <ele>1361.407</ele>
        <time>2011-04-02T09:24:38Z</time>
      </trkpt>
      <trkpt lat="42.34196" lon="2.50264">
        <ele>1361.494</ele>
        <time>2011-04-02T09:24:42Z</time>
      </trkpt>
      <trkpt lat="42.34189" lon="2.50272">
        <ele>1363.858</ele>
        <time>2011-04-02T09:24:52Z</time>
      </trkpt>
      <trkpt lat="42.34183" lon="2.5028">
        <ele>1366.291</ele>
        <time>2011-04-02T09:24:59Z</time>
      </trkpt>
      <trkpt lat="42.34179" lon="2.50287">
        <ele>1367.69</ele>
        <time>2011-04-02T09:25:07Z</time>
      </trkpt>
      <trkpt lat="42.34176" lon="2.503">
        <ele>1368.647</ele>
        <time>2011-04-02T09:25:20Z</time>
      </trkpt>
      <trkpt lat="42.34177" lon="2.50311">
        <ele>1368.655</ele>
        <time>2011-04-02T09:25:27Z</time>
      </trkpt>
      <trkpt lat="42.3417" lon="2.50334">
        <ele>1367.118</ele>
        <time>2011-04-02T09:25:38Z</time>
      </trkpt>
      <trkpt lat="42.34168" lon="2.50346">
        <ele>1369.152</ele>
        <time>2011-04-02T09:25:45Z</time>
      </trkpt>
      <trkpt lat="42.34166" lon="2.50353">
        <ele>1370.053</ele>
        <time>2011-04-02T09:25:50Z</time>
      </trkpt>
      <trkpt lat="42.34163" lon="2.5036">
        <ele>1368.608</ele>
        <time>2011-04-02T09:25:56Z</time>
      </trkpt>
      <trkpt lat="42.34163" lon="2.50372">
        <ele>1370.007</ele>
        <time>2011-04-02T09:26:04Z</time>
      </trkpt>
      <trkpt lat="42.34163" lon="2.50376">
        <ele>1371.096</ele>
        <time>2011-04-02T09:26:09Z</time>
      </trkpt>
      <trkpt lat="42.34161" lon="2.50382">
        <ele>1371.08</ele>
        <time>2011-04-02T09:26:14Z</time>
      </trkpt>
      <trkpt lat="42.34159" lon="2.5041">
        <ele>1370.523</ele>
        <time>2011-04-02T09:26:24Z</time>
      </trkpt>
      <trkpt lat="42.34159" lon="2.50413">
        <ele>1370.012</ele>
        <time>2011-04-02T09:26:26Z</time>
      </trkpt>
      <trkpt lat="42.3416" lon="2.5043">
        <ele>1370.549</ele>
        <time>2011-04-02T09:26:40Z</time>
      </trkpt>
      <trkpt lat="42.34163" lon="2.50442">
        <ele>1371.917</ele>
        <time>2011-04-02T09:26:52Z</time>
      </trkpt>
      <trkpt lat="42.34162" lon="2.50453">
        <ele>1375.31</ele>
        <time>2011-04-02T09:27:02Z</time>
      </trkpt>
      <trkpt lat="42.34164" lon="2.50463">
        <ele>1378.226</ele>
        <time>2011-04-02T09:27:16Z</time>
      </trkpt>
      <trkpt lat="42.34163" lon="2.50471">
        <ele>1381.647</ele>
        <time>2011-04-02T09:27:27Z</time>
      </trkpt>
      <trkpt lat="42.34164" lon="2.50473">
        <ele>1381.111</ele>
        <time>2011-04-02T09:27:29Z</time>
      </trkpt>
      <trkpt lat="42.34163" lon="2.50488">
        <ele>1383.507</ele>
        <time>2011-04-02T09:27:42Z</time>
      </trkpt>
      <trkpt lat="42.34163" lon="2.50496">
        <ele>1384.963</ele>
        <time>2011-04-02T09:27:49Z</time>
      </trkpt>
      <trkpt lat="42.34163" lon="2.50516">
        <ele>1387.867</ele>
        <time>2011-04-02T09:28:03Z</time>
      </trkpt>
      <trkpt lat="42.34165" lon="2.50542">
        <ele>1389.22</ele>
        <time>2011-04-02T09:28:20Z</time>
      </trkpt>
      <trkpt lat="42.34164" lon="2.50547">
        <ele>1390.779</ele>
        <time>2011-04-02T09:28:24Z</time>
      </trkpt>
      <trkpt lat="42.34164" lon="2.50554">
        <ele>1390.736</ele>
        <time>2011-04-02T09:28:28Z</time>
      </trkpt>
      <trkpt lat="42.3415" lon="2.50581">
        <ele>1387.314</ele>
        <time>2011-04-02T09:28:38Z</time>
      </trkpt>
      <trkpt lat="42.34149" lon="2.50583">
        <ele>1387.897</ele>
        <time>2011-04-02T09:28:39Z</time>
      </trkpt>
      <trkpt lat="42.34136" lon="2.50611">
        <ele>1384.067</ele>
        <time>2011-04-02T09:28:51Z</time>
      </trkpt>
      <trkpt lat="42.34135" lon="2.50614">
        <ele>1384.481</ele>
        <time>2011-04-02T09:28:52Z</time>
      </trkpt>
      <trkpt lat="42.34132" lon="2.50619">
        <ele>1381.119</ele>
        <time>2011-04-02T09:28:54Z</time>
      </trkpt>
      <trkpt lat="42.3413" lon="2.50624">
        <ele>1380.607</ele>
        <time>2011-04-02T09:28:56Z</time>
      </trkpt>
      <trkpt lat="42.34128" lon="2.50629">
        <ele>1378.777</ele>
        <time>2011-04-02T09:28:59Z</time>
      </trkpt>
      <trkpt lat="42.34125" lon="2.50637">
        <ele>1374.841</ele>
        <time>2011-04-02T09:29:03Z</time>
      </trkpt>
      <trkpt lat="42.34125" lon="2.50639">
        <ele>1374.824</ele>
        <time>2011-04-02T09:29:04Z</time>
      </trkpt>
      <trkpt lat="42.3412" lon="2.50653">
        <ele>1371.553</ele>
        <time>2011-04-02T09:29:09Z</time>
      </trkpt>
      <trkpt lat="42.34118" lon="2.50655">
        <ele>1371.51</ele>
        <time>2011-04-02T09:29:10Z</time>
      </trkpt>
      <trkpt lat="42.34112" lon="2.50662">
        <ele>1368.638</ele>
        <time>2011-04-02T09:29:17Z</time>
      </trkpt>
      <trkpt lat="42.34106" lon="2.50666">
        <ele>1366.261</ele>
        <time>2011-04-02T09:29:21Z</time>
      </trkpt>
      <trkpt lat="42.34098" lon="2.50676">
        <ele>1362.393</ele>
        <time>2011-04-02T09:29:26Z</time>
      </trkpt>
      <trkpt lat="42.34098" lon="2.50678">
        <ele>1362.365</ele>
        <time>2011-04-02T09:29:27Z</time>
      </trkpt>
      <trkpt lat="42.34098" lon="2.50683">
        <ele>1359.021</ele>
        <time>2011-04-02T09:29:32Z</time>
      </trkpt>
      <trkpt lat="42.34097" lon="2.50691">
        <ele>1355.607</ele>
        <time>2011-04-02T09:29:38Z</time>
      </trkpt>
      <trkpt lat="42.34094" lon="2.50697">
        <ele>1353.71</ele>
        <time>2011-04-02T09:29:43Z</time>
      </trkpt>
      <trkpt lat="42.34093" lon="2.50703">
        <ele>1351.844</ele>
        <time>2011-04-02T09:29:46Z</time>
      </trkpt>
      <trkpt lat="42.3409" lon="2.50707">
        <ele>1351.387</ele>
        <time>2011-04-02T09:29:48Z</time>
      </trkpt>
      <trkpt lat="42.34087" lon="2.50712">
        <ele>1349.866</ele>
        <time>2011-04-02T09:29:50Z</time>
      </trkpt>
      <trkpt lat="42.3408" lon="2.50722">
        <ele>1349.483</ele>
        <time>2011-04-02T09:29:56Z</time>
      </trkpt>
      <trkpt lat="42.34074" lon="2.50727">
        <ele>1348.971</ele>
        <time>2011-04-02T09:30:00Z</time>
      </trkpt>
      <trkpt lat="42.3407" lon="2.50734">
        <ele>1347.414</ele>
        <time>2011-04-02T09:30:02Z</time>
      </trkpt>
      <trkpt lat="42.34056" lon="2.50764">
        <ele>1344.596</ele>
        <time>2011-04-02T09:30:13Z</time>
      </trkpt>
      <trkpt lat="42.34055" lon="2.50767">
        <ele>1344.131</ele>
        <time>2011-04-02T09:30:14Z</time>
      </trkpt>
      <trkpt lat="42.34048" lon="2.50782">
        <ele>1343.124</ele>
        <time>2011-04-02T09:30:19Z</time>
      </trkpt>
      <trkpt lat="42.34042" lon="2.50794">
        <ele>1341.207</ele>
        <time>2011-04-02T09:30:24Z</time>
      </trkpt>
      <trkpt lat="42.34028" lon="2.5083">
        <ele>1340.25</ele>
        <time>2011-04-02T09:30:36Z</time>
      </trkpt>
      <trkpt lat="42.34016" lon="2.50852">
        <ele>1339.764</ele>
        <time>2011-04-02T09:30:46Z</time>
      </trkpt>
      <trkpt lat="42.3401" lon="2.50864">
        <ele>1340.787</ele>
        <time>2011-04-02T09:30:51Z</time>
      </trkpt>
      <trkpt lat="42.34006" lon="2.50872">
        <ele>1341.236</ele>
        <time>2011-04-02T09:30:55Z</time>
      </trkpt>
      <trkpt lat="42.33993" lon="2.50908">
        <ele>1342.633</ele>
        <time>2011-04-02T09:31:09Z</time>
      </trkpt>
      <trkpt lat="42.33979" lon="2.50937">
        <ele>1346.081</ele>
        <time>2011-04-02T09:31:22Z</time>
      </trkpt>
      <trkpt lat="42.33978" lon="2.5094">
        <ele>1345.024</ele>
        <time>2011-04-02T09:31:23Z</time>
      </trkpt>
      <trkpt lat="42.33965" lon="2.50978">
        <ele>1344.165</ele>
        <time>2011-04-02T09:31:37Z</time>
      </trkpt>
      <trkpt lat="42.33949" lon="2.51001">
        <ele>1343.668</ele>
        <time>2011-04-02T09:31:46Z</time>
      </trkpt>
      <trkpt lat="42.33932" lon="2.51026">
        <ele>1344.114</ele>
        <time>2011-04-02T09:31:57Z</time>
      </trkpt>
      <trkpt lat="42.33917" lon="2.51051">
        <ele>1342.107</ele>
        <time>2011-04-02T09:32:09Z</time>
      </trkpt>
      <trkpt lat="42.33902" lon="2.51053">
        <ele>1339.377</ele>
        <time>2011-04-02T09:32:14Z</time>
      </trkpt>
      <trkpt lat="42.3388" lon="2.51062">
        <ele>1335.951</ele>
        <time>2011-04-02T09:32:23Z</time>
      </trkpt>
      <trkpt lat="42.33878" lon="2.51064">
        <ele>1335.934</ele>
        <time>2011-04-02T09:32:24Z</time>
      </trkpt>
      <trkpt lat="42.33865" lon="2.51088">
        <ele>1334.093</ele>
        <time>2011-04-02T09:32:35Z</time>
      </trkpt>
      <trkpt lat="42.33859" lon="2.51099">
        <ele>1334.07</ele>
        <time>2011-04-02T09:32:42Z</time>
      </trkpt>
      <trkpt lat="42.3383" lon="2.51124">
        <ele>1334.948</ele>
        <time>2011-04-02T09:32:54Z</time>
      </trkpt>
      <trkpt lat="42.33819" lon="2.51128">
        <ele>1333.011</ele>
        <time>2011-04-02T09:32:58Z</time>
      </trkpt>
      <trkpt lat="42.33816" lon="2.51129">
        <ele>1333.517</ele>
        <time>2011-04-02T09:32:59Z</time>
      </trkpt>
      <trkpt lat="42.33802" lon="2.51128">
        <ele>1333.087</ele>
        <time>2011-04-02T09:33:05Z</time>
      </trkpt>
      <trkpt lat="42.33793" lon="2.51131">
        <ele>1332.015</ele>
        <time>2011-04-02T09:33:10Z</time>
      </trkpt>
      <trkpt lat="42.3378" lon="2.51163">
        <ele>1331.607</ele>
        <time>2011-04-02T09:33:22Z</time>
      </trkpt>
      <trkpt lat="42.33763" lon="2.51197">
        <ele>1330.182</ele>
        <time>2011-04-02T09:33:34Z</time>
      </trkpt>
      <trkpt lat="42.33754" lon="2.51205">
        <ele>1330.166</ele>
        <time>2011-04-02T09:33:38Z</time>
      </trkpt>
      <trkpt lat="42.33738" lon="2.51232">
        <ele>1328.289</ele>
        <time>2011-04-02T09:33:49Z</time>
      </trkpt>
      <trkpt lat="42.33732" lon="2.5127">
        <ele>1326.868</ele>
        <time>2011-04-02T09:34:01Z</time>
      </trkpt>
      <trkpt lat="42.3373" lon="2.51308">
        <ele>1326.375</ele>
        <time>2011-04-02T09:34:12Z</time>
      </trkpt>
      <trkpt lat="42.33727" lon="2.51324">
        <ele>1324.433</ele>
        <time>2011-04-02T09:34:21Z</time>
      </trkpt>
      <trkpt lat="42.33724" lon="2.51339">
        <ele>1322.466</ele>
        <time>2011-04-02T09:34:32Z</time>
      </trkpt>
      <trkpt lat="42.33724" lon="2.51347">
        <ele>1322.064</ele>
        <time>2011-04-02T09:34:38Z</time>
      </trkpt>
      <trkpt lat="42.33719" lon="2.51359">
        <ele>1324.406</ele>
        <time>2011-04-02T09:34:45Z</time>
      </trkpt>
      <trkpt lat="42.33714" lon="2.51376">
        <ele>1324.816</ele>
        <time>2011-04-02T09:34:55Z</time>
      </trkpt>
      <trkpt lat="42.33714" lon="2.51382">
        <ele>1323.407</ele>
        <time>2011-04-02T09:34:59Z</time>
      </trkpt>
      <trkpt lat="42.33715" lon="2.51384">
        <ele>1322.447</ele>
        <time>2011-04-02T09:35:00Z</time>
      </trkpt>
      <trkpt lat="42.33716" lon="2.51389">
        <ele>1322.051</ele>
        <time>2011-04-02T09:35:02Z</time>
      </trkpt>
      <trkpt lat="42.33713" lon="2.51421">
        <ele>1319.684</ele>
        <time>2011-04-02T09:35:12Z</time>
      </trkpt>
      <trkpt lat="42.33703" lon="2.5144">
        <ele>1321.593</ele>
        <time>2011-04-02T09:35:26Z</time>
      </trkpt>
      <trkpt lat="42.33695" lon="2.5145">
        <ele>1322.97</ele>
        <time>2011-04-02T09:35:32Z</time>
      </trkpt>
      <trkpt lat="42.33679" lon="2.51463">
        <ele>1325.828</ele>
        <time>2011-04-02T09:35:44Z</time>
      </trkpt>
      <trkpt lat="42.33675" lon="2.51465">
        <ele>1326.811</ele>
        <time>2011-04-02T09:35:47Z</time>
      </trkpt>
      <trkpt lat="42.33669" lon="2.5147">
        <ele>1327.232</ele>
        <time>2011-04-02T09:35:51Z</time>
      </trkpt>
      <trkpt lat="42.33655" lon="2.5149">
        <ele>1328.792</ele>
        <time>2011-04-02T09:36:07Z</time>
      </trkpt>
      <trkpt lat="42.33647" lon="2.51507">
        <ele>1332.511</ele>
        <time>2011-04-02T09:36:19Z</time>
      </trkpt>
      <trkpt lat="42.33643" lon="2.51514">
        <ele>1333.507</ele>
        <time>2011-04-02T09:36:25Z</time>
      </trkpt>
      <trkpt lat="42.3364" lon="2.51518">
        <ele>1334.934</ele>
        <time>2011-04-02T09:36:29Z</time>
      </trkpt>
      <trkpt lat="42.33628" lon="2.51534">
        <ele>1336.498</ele>
        <time>2011-04-02T09:36:42Z</time>
      </trkpt>
      <trkpt lat="42.33621" lon="2.51544">
        <ele>1339.791</ele>
        <time>2011-04-02T09:36:50Z</time>
      </trkpt>
      <trkpt lat="42.33621" lon="2.51545">
        <ele>1339.33</ele>
        <time>2011-04-02T09:36:51Z</time>
      </trkpt>
      <trkpt lat="42.3362" lon="2.51548">
        <ele>1339.317</ele>
        <time>2011-04-02T09:36:53Z</time>
      </trkpt>
      <trkpt lat="42.33616" lon="2.51556">
        <ele>1343.185</ele>
        <time>2011-04-02T09:37:01Z</time>
      </trkpt>
      <trkpt lat="42.33612" lon="2.51564">
        <ele>1342.618</ele>
        <time>2011-04-02T09:37:08Z</time>
      </trkpt>
      <trkpt lat="42.33618" lon="2.51583">
        <ele>1346.947</ele>
        <time>2011-04-02T09:37:24Z</time>
      </trkpt>
      <trkpt lat="42.33618" lon="2.51584">
        <ele>1346.929</ele>
        <time>2011-04-02T09:37:25Z</time>
      </trkpt>
      <trkpt lat="42.3362" lon="2.51595">
        <ele>1348.921</ele>
        <time>2011-04-02T09:37:36Z</time>
      </trkpt>
      <trkpt lat="42.33618" lon="2.51603">
        <ele>1350.807</ele>
        <time>2011-04-02T09:37:45Z</time>
      </trkpt>
      <trkpt lat="42.33619" lon="2.51613">
        <ele>1355.155</ele>
        <time>2011-04-02T09:37:57Z</time>
      </trkpt>
      <trkpt lat="42.33618" lon="2.51626">
        <ele>1358.099</ele>
        <time>2011-04-02T09:38:09Z</time>
      </trkpt>
      <trkpt lat="42.33618" lon="2.51626">
        <ele>1358.582</ele>
        <time>2011-04-02T09:38:10Z</time>
      </trkpt>
      <trkpt lat="42.3361" lon="2.51631">
        <ele>1359.431</ele>
        <time>2011-04-02T09:38:18Z</time>
      </trkpt>
      <trkpt lat="42.33605" lon="2.51632">
        <ele>1360.988</ele>
        <time>2011-04-02T09:38:23Z</time>
      </trkpt>
      <trkpt lat="42.33604" lon="2.51634">
        <ele>1361.876</ele>
        <time>2011-04-02T09:38:25Z</time>
      </trkpt>
      <trkpt lat="42.33605" lon="2.51644">
        <ele>1365.719</ele>
        <time>2011-04-02T09:38:36Z</time>
      </trkpt>
      <trkpt lat="42.33601" lon="2.5166">
        <ele>1368.114</ele>
        <time>2011-04-02T09:38:49Z</time>
      </trkpt>
      <trkpt lat="42.33601" lon="2.51678">
        <ele>1369.154</ele>
        <time>2011-04-02T09:39:02Z</time>
      </trkpt>
      <trkpt lat="42.33601" lon="2.51694">
        <ele>1372.409</ele>
        <time>2011-04-02T09:39:13Z</time>
      </trkpt>
      <trkpt lat="42.33599" lon="2.51706">
        <ele>1376.807</ele>
        <time>2011-04-02T09:39:22Z</time>
      </trkpt>
      <trkpt lat="42.33599" lon="2.5172">
        <ele>1377.722</ele>
        <time>2011-04-02T09:39:32Z</time>
      </trkpt>
      <trkpt lat="42.33597" lon="2.51732">
        <ele>1379.256</ele>
        <time>2011-04-02T09:39:40Z</time>
      </trkpt>
      <trkpt lat="42.33596" lon="2.5174">
        <ele>1380.619</ele>
        <time>2011-04-02T09:39:45Z</time>
      </trkpt>
      <trkpt lat="42.33593" lon="2.51761">
        <ele>1382.028</ele>
        <time>2011-04-02T09:39:59Z</time>
      </trkpt>
      <trkpt lat="42.33592" lon="2.51772">
        <ele>1384.455</ele>
        <time>2011-04-02T09:40:06Z</time>
      </trkpt>
      <trkpt lat="42.33585" lon="2.51792">
        <ele>1387.823</ele>
        <time>2011-04-02T09:40:19Z</time>
      </trkpt>
      <trkpt lat="42.33582" lon="2.51813">
        <ele>1391.286</ele>
        <time>2011-04-02T09:40:33Z</time>
      </trkpt>
      <trkpt lat="42.33582" lon="2.51815">
        <ele>1391.286</ele>
        <time>2011-04-02T09:40:34Z</time>
      </trkpt>
      <trkpt lat="42.3358" lon="2.51821">
        <ele>1392.16</ele>
        <time>2011-04-02T09:40:38Z</time>
      </trkpt>
      <trkpt lat="42.33577" lon="2.51831">
        <ele>1390.226</ele>
        <time>2011-04-02T09:40:45Z</time>
      </trkpt>
      <trkpt lat="42.33577" lon="2.51837">
        <ele>1393.607</ele>
        <time>2011-04-02T09:40:49Z</time>
      </trkpt>
      <trkpt lat="42.33577" lon="2.51838">
        <ele>1393.139</ele>
        <time>2011-04-02T09:40:50Z</time>
      </trkpt>
      <trkpt lat="42.33577" lon="2.51853">
        <ele>1395.093</ele>
        <time>2011-04-02T09:41:01Z</time>
      </trkpt>
      <trkpt lat="42.33577" lon="2.51856">
        <ele>1396.046</ele>
        <time>2011-04-02T09:41:03Z</time>
      </trkpt>
      <trkpt lat="42.33576" lon="2.51865">
        <ele>1397.465</ele>
        <time>2011-04-02T09:41:09Z</time>
      </trkpt>
      <trkpt lat="42.33576" lon="2.51877">
        <ele>1399.872</ele>
        <time>2011-04-02T09:41:17Z</time>
      </trkpt>
      <trkpt lat="42.33576" lon="2.51898">
        <ele>1403.24</ele>
        <time>2011-04-02T09:41:32Z</time>
      </trkpt>
      <trkpt lat="42.33576" lon="2.51903">
        <ele>1403.253</ele>
        <time>2011-04-02T09:41:35Z</time>
      </trkpt>
      <trkpt lat="42.33576" lon="2.51905">
        <ele>1404.171</ele>
        <time>2011-04-02T09:41:37Z</time>
      </trkpt>
      <trkpt lat="42.33575" lon="2.5192">
        <ele>1404.141</ele>
        <time>2011-04-02T09:41:47Z</time>
      </trkpt>
      <trkpt lat="42.33575" lon="2.51922">
        <ele>1406.115</ele>
        <time>2011-04-02T09:41:49Z</time>
      </trkpt>
      <trkpt lat="42.33574" lon="2.51928">
        <ele>1407.507</ele>
        <time>2011-04-02T09:41:53Z</time>
      </trkpt>
      <trkpt lat="42.33573" lon="2.51931">
        <ele>1407.088</ele>
        <time>2011-04-02T09:41:55Z</time>
      </trkpt>
      <trkpt lat="42.33573" lon="2.51943">
        <ele>1409.052</ele>
        <time>2011-04-02T09:42:03Z</time>
      </trkpt>
      <trkpt lat="42.3357" lon="2.51962">
        <ele>1409.945</ele>
        <time>2011-04-02T09:42:19Z</time>
      </trkpt>
      <trkpt lat="42.3357" lon="2.51965">
        <ele>1411.844</ele>
        <time>2011-04-02T09:42:21Z</time>
      </trkpt>
      <trkpt lat="42.33568" lon="2.51977">
        <ele>1411.861</ele>
        <time>2011-04-02T09:42:32Z</time>
      </trkpt>
      <trkpt lat="42.33568" lon="2.5198">
        <ele>1413.369</ele>
        <time>2011-04-02T09:42:35Z</time>
      </trkpt>
      <trkpt lat="42.33569" lon="2.51983">
        <ele>1414.212</ele>
        <time>2011-04-02T09:42:38Z</time>
      </trkpt>
      <trkpt lat="42.33561" lon="2.52003">
        <ele>1418.171</ele>
        <time>2011-04-02T09:42:54Z</time>
      </trkpt>
      <trkpt lat="42.33556" lon="2.52018">
        <ele>1420.541</ele>
        <time>2011-04-02T09:43:07Z</time>
      </trkpt>
      <trkpt lat="42.33555" lon="2.52023">
        <ele>1421.515</ele>
        <time>2011-04-02T09:43:12Z</time>
      </trkpt>
      <trkpt lat="42.33553" lon="2.52025">
        <ele>1421.007</ele>
        <time>2011-04-02T09:43:15Z</time>
      </trkpt>
      <trkpt lat="42.33548" lon="2.52035">
        <ele>1426.718</ele>
        <time>2011-04-02T09:43:27Z</time>
      </trkpt>
      <trkpt lat="42.33543" lon="2.52041">
        <ele>1429.632</ele>
        <time>2011-04-02T09:43:34Z</time>
      </trkpt>
      <trkpt lat="42.33534" lon="2.52056">
        <ele>1429.665</ele>
        <time>2011-04-02T09:43:49Z</time>
      </trkpt>
      <trkpt lat="42.3353" lon="2.52061">
        <ele>1431.564</ele>
        <time>2011-04-02T09:43:55Z</time>
      </trkpt>
      <trkpt lat="42.33522" lon="2.52068">
        <ele>1433.961</ele>
        <time>2011-04-02T09:44:07Z</time>
      </trkpt>
      <trkpt lat="42.33521" lon="2.52069">
        <ele>1433.059</ele>
        <time>2011-04-02T09:44:08Z</time>
      </trkpt>
      <trkpt lat="42.33516" lon="2.52075">
        <ele>1435.962</ele>
        <time>2011-04-02T09:44:15Z</time>
      </trkpt>
      <trkpt lat="42.33513" lon="2.5208">
        <ele>1436.437</ele>
        <time>2011-04-02T09:44:19Z</time>
      </trkpt>
      <trkpt lat="42.33508" lon="2.52085">
        <ele>1437.849</ele>
        <time>2011-04-02T09:44:24Z</time>
      </trkpt>
      <trkpt lat="42.33505" lon="2.5209">
        <ele>1438.313</ele>
        <time>2011-04-02T09:44:28Z</time>
      </trkpt>
      <trkpt lat="42.33502" lon="2.52097">
        <ele>1439.207</ele>
        <time>2011-04-02T09:44:34Z</time>
      </trkpt>
      <trkpt lat="42.33501" lon="2.521">
        <ele>1440.734</ele>
        <time>2011-04-02T09:44:36Z</time>
      </trkpt>
      <trkpt lat="42.33495" lon="2.52112">
        <ele>1444.058</ele>
        <time>2011-04-02T09:44:48Z</time>
      </trkpt>
      <trkpt lat="42.33491" lon="2.52117">
        <ele>1445.521</ele>
        <time>2011-04-02T09:44:55Z</time>
      </trkpt>
      <trkpt lat="42.33482" lon="2.52127">
        <ele>1448.46</ele>
        <time>2011-04-02T09:45:09Z</time>
      </trkpt>
      <trkpt lat="42.33476" lon="2.52134">
        <ele>1452.217</ele>
        <time>2011-04-02T09:45:17Z</time>
      </trkpt>
      <trkpt lat="42.33474" lon="2.52136">
        <ele>1456.155</ele>
        <time>2011-04-02T09:45:20Z</time>
      </trkpt>
      <trkpt lat="42.33472" lon="2.52147">
        <ele>1455.118</ele>
        <time>2011-04-02T09:45:33Z</time>
      </trkpt>
      <trkpt lat="42.33472" lon="2.52152">
        <ele>1455.696</ele>
        <time>2011-04-02T09:45:37Z</time>
      </trkpt>
      <trkpt lat="42.33468" lon="2.52163">
        <ele>1459.931</ele>
        <time>2011-04-02T09:45:48Z</time>
      </trkpt>
      <trkpt lat="42.33468" lon="2.52165">
        <ele>1459.924</ele>
        <time>2011-04-02T09:45:49Z</time>
      </trkpt>
      <trkpt lat="42.33464" lon="2.52176">
        <ele>1462.807</ele>
        <time>2011-04-02T09:45:58Z</time>
      </trkpt>
      <trkpt lat="42.33463" lon="2.5218">
        <ele>1464.21</ele>
        <time>2011-04-02T09:46:01Z</time>
      </trkpt>
      <trkpt lat="42.33463" lon="2.52186">
        <ele>1466.244</ele>
        <time>2011-04-02T09:46:05Z</time>
      </trkpt>
      <trkpt lat="42.33459" lon="2.52209">
        <ele>1469.547</ele>
        <time>2011-04-02T09:46:22Z</time>
      </trkpt>
      <trkpt lat="42.33455" lon="2.52221">
        <ele>1473.886</ele>
        <time>2011-04-02T09:46:32Z</time>
      </trkpt>
      <trkpt lat="42.33454" lon="2.52223">
        <ele>1475.373</ele>
        <time>2011-04-02T09:46:34Z</time>
      </trkpt>
      <trkpt lat="42.33453" lon="2.52225">
        <ele>1477.781</ele>
        <time>2011-04-02T09:46:37Z</time>
      </trkpt>
      <trkpt lat="42.33451" lon="2.52232">
        <ele>1481.174</ele>
        <time>2011-04-02T09:46:44Z</time>
      </trkpt>
      <trkpt lat="42.33451" lon="2.52234">
        <ele>1479.183</ele>
        <time>2011-04-02T09:46:46Z</time>
      </trkpt>
      <trkpt lat="42.3345" lon="2.52238">
        <ele>1478.725</ele>
        <time>2011-04-02T09:46:50Z</time>
      </trkpt>
      <trkpt lat="42.33446" lon="2.52245">
        <ele>1483.517</ele>
        <time>2011-04-02T09:46:59Z</time>
      </trkpt>
      <trkpt lat="42.33445" lon="2.52246">
        <ele>1480.107</ele>
        <time>2011-04-02T09:47:00Z</time>
      </trkpt>
      <trkpt lat="42.33443" lon="2.52252">
        <ele>1482.519</ele>
        <time>2011-04-02T09:47:06Z</time>
      </trkpt>
      <trkpt lat="42.33439" lon="2.5226">
        <ele>1481.533</ele>
        <time>2011-04-02T09:47:13Z</time>
      </trkpt>
      <trkpt lat="42.33438" lon="2.52264">
        <ele>1481.586</ele>
        <time>2011-04-02T09:47:17Z</time>
      </trkpt>
      <trkpt lat="42.33438" lon="2.52265">
        <ele>1483.025</ele>
        <time>2011-04-02T09:47:19Z</time>
      </trkpt>
      <trkpt lat="42.33437" lon="2.52271">
        <ele>1480.672</ele>
        <time>2011-04-02T09:47:24Z</time>
      </trkpt>
      <trkpt lat="42.33431" lon="2.52282">
        <ele>1483.56</ele>
        <time>2011-04-02T09:47:37Z</time>
      </trkpt>
      <trkpt lat="42.33429" lon="2.52285">
        <ele>1484.493</ele>
        <time>2011-04-02T09:47:42Z</time>
      </trkpt>
      <trkpt lat="42.33425" lon="2.52292">
        <ele>1487.876</ele>
        <time>2011-04-02T09:47:52Z</time>
      </trkpt>
      <trkpt lat="42.33425" lon="2.52293">
        <ele>1487.39</ele>
        <time>2011-04-02T09:47:53Z</time>
      </trkpt>
      <trkpt lat="42.33424" lon="2.52302">
        <ele>1488.719</ele>
        <time>2011-04-02T09:48:03Z</time>
      </trkpt>
      <trkpt lat="42.3342" lon="2.52311">
        <ele>1492.107</ele>
        <time>2011-04-02T09:48:14Z</time>
      </trkpt>
      <trkpt lat="42.33418" lon="2.52314">
        <ele>1492.158</ele>
        <time>2011-04-02T09:48:32Z</time>
      </trkpt>
      <trkpt lat="42.33418" lon="2.52315">
        <ele>1493.122</ele>
        <time>2011-04-02T09:48:53Z</time>
      </trkpt>
      <trkpt lat="42.33418" lon="2.52315">
        <ele>1493.135</ele>
        <time>2011-04-02T09:49:08Z</time>
      </trkpt>
      <trkpt lat="42.33418" lon="2.52316">
        <ele>1491.614</ele>
        <time>2011-04-02T09:49:18Z</time>
      </trkpt>
      <trkpt lat="42.33416" lon="2.52318">
        <ele>1493.161</ele>
        <time>2011-04-02T09:49:37Z</time>
      </trkpt>
      <trkpt lat="42.33415" lon="2.52321">
        <ele>1493.619</ele>
        <time>2011-04-02T09:50:19Z</time>
      </trkpt>
      <trkpt lat="42.33415" lon="2.52327">
        <ele>1494.072</ele>
        <time>2011-04-02T09:50:23Z</time>
      </trkpt>
      <trkpt lat="42.33416" lon="2.52331">
        <ele>1494.543</ele>
        <time>2011-04-02T09:50:25Z</time>
      </trkpt>
      <trkpt lat="42.33415" lon="2.52336">
        <ele>1492.664</ele>
        <time>2011-04-02T09:50:28Z</time>
      </trkpt>
      <trkpt lat="42.33415" lon="2.52339">
        <ele>1493.11</ele>
        <time>2011-04-02T09:50:30Z</time>
      </trkpt>
      <trkpt lat="42.33408" lon="2.52354">
        <ele>1496.007</ele>
        <time>2011-04-02T09:50:42Z</time>
      </trkpt>
      <trkpt lat="42.33408" lon="2.52355">
        <ele>1495.585</ele>
        <time>2011-04-02T09:50:43Z</time>
      </trkpt>
      <trkpt lat="42.33403" lon="2.5237">
        <ele>1497.459</ele>
        <time>2011-04-02T09:50:54Z</time>
      </trkpt>
      <trkpt lat="42.33396" lon="2.52384">
        <ele>1496.972</ele>
        <time>2011-04-02T09:51:06Z</time>
      </trkpt>
      <trkpt lat="42.33395" lon="2.52386">
        <ele>1498.421</ele>
        <time>2011-04-02T09:51:08Z</time>
      </trkpt>
      <trkpt lat="42.33391" lon="2.5239">
        <ele>1498.858</ele>
        <time>2011-04-02T09:51:12Z</time>
      </trkpt>
      <trkpt lat="42.33387" lon="2.52396">
        <ele>1501.216</ele>
        <time>2011-04-02T09:51:17Z</time>
      </trkpt>
      <trkpt lat="42.33385" lon="2.524">
        <ele>1501.789</ele>
        <time>2011-04-02T09:51:21Z</time>
      </trkpt>
      <trkpt lat="42.33381" lon="2.52407">
        <ele>1502.761</ele>
        <time>2011-04-02T09:51:28Z</time>
      </trkpt>
      <trkpt lat="42.3337" lon="2.52431">
        <ele>1505.121</ele>
        <time>2011-04-02T09:51:44Z</time>
      </trkpt>
      <trkpt lat="42.33364" lon="2.52436">
        <ele>1505.613</ele>
        <time>2011-04-02T09:51:55Z</time>
      </trkpt>
      <trkpt lat="42.33362" lon="2.52447">
        <ele>1508.507</ele>
        <time>2011-04-02T09:52:05Z</time>
      </trkpt>
      <trkpt lat="42.33356" lon="2.52466">
        <ele>1509.957</ele>
        <time>2011-04-02T09:52:20Z</time>
      </trkpt>
      <trkpt lat="42.3335" lon="2.52487">
        <ele>1510.981</ele>
        <time>2011-04-02T09:52:31Z</time>
      </trkpt>
      <trkpt lat="42.33347" lon="2.52503">
        <ele>1512.354</ele>
        <time>2011-04-02T09:52:46Z</time>
      </trkpt>
      <trkpt lat="42.33347" lon="2.52504">
        <ele>1511.343</ele>
        <time>2011-04-02T09:52:48Z</time>
      </trkpt>
      <trkpt lat="42.33341" lon="2.52517">
        <ele>1512.89</ele>
        <time>2011-04-02T09:52:57Z</time>
      </trkpt>
      <trkpt lat="42.33329" lon="2.52552">
        <ele>1512.898</ele>
        <time>2011-04-02T09:53:10Z</time>
      </trkpt>
      <trkpt lat="42.33321" lon="2.5259">
        <ele>1511.381</ele>
        <time>2011-04-02T09:53:22Z</time>
      </trkpt>
      <trkpt lat="42.33311" lon="2.52622">
        <ele>1510.996</ele>
        <time>2011-04-02T09:53:33Z</time>
      </trkpt>
      <trkpt lat="42.33305" lon="2.52643">
        <ele>1508.931</ele>
        <time>2011-04-02T09:53:43Z</time>
      </trkpt>
      <trkpt lat="42.33304" lon="2.52648">
        <ele>1510.924</ele>
        <time>2011-04-02T09:53:47Z</time>
      </trkpt>
      <trkpt lat="42.33304" lon="2.52658">
        <ele>1511.807</ele>
        <time>2011-04-02T09:53:55Z</time>
      </trkpt>
      <trkpt lat="42.33301" lon="2.52669">
        <ele>1513.31</ele>
        <time>2011-04-02T09:54:10Z</time>
      </trkpt>
      <trkpt lat="42.33301" lon="2.52671">
        <ele>1513.794</ele>
        <time>2011-04-02T09:54:13Z</time>
      </trkpt>
      <trkpt lat="42.33301" lon="2.52677">
        <ele>1512.847</ele>
        <time>2011-04-02T09:54:17Z</time>
      </trkpt>
      <trkpt lat="42.333" lon="2.52684">
        <ele>1514.746</ele>
        <time>2011-04-02T09:54:21Z</time>
      </trkpt>
      <trkpt lat="42.333" lon="2.52696">
        <ele>1515.773</ele>
        <time>2011-04-02T09:54:28Z</time>
      </trkpt>
      <trkpt lat="42.333" lon="2.52717">
        <ele>1514.291</ele>
        <time>2011-04-02T09:54:44Z</time>
      </trkpt>
      <trkpt lat="42.333" lon="2.52722">
        <ele>1515.764</ele>
        <time>2011-04-02T09:54:57Z</time>
      </trkpt>
      <trkpt lat="42.33302" lon="2.52712">
        <ele>1516.683</ele>
        <time>2011-04-02T09:55:09Z</time>
      </trkpt>
      <trkpt lat="42.33302" lon="2.52711">
        <ele>1520.025</ele>
        <time>2011-04-02T09:55:11Z</time>
      </trkpt>
      <trkpt lat="42.33307" lon="2.52705">
        <ele>1522.417</ele>
        <time>2011-04-02T09:55:23Z</time>
      </trkpt>
      <trkpt lat="42.33309" lon="2.52704">
        <ele>1524.307</ele>
        <time>2011-04-02T09:55:29Z</time>
      </trkpt>
      <trkpt lat="42.33313" lon="2.52704">
        <ele>1528.249</ele>
        <time>2011-04-02T09:55:42Z</time>
      </trkpt>
      <trkpt lat="42.33314" lon="2.52705">
        <ele>1529.173</ele>
        <time>2011-04-02T09:55:44Z</time>
      </trkpt>
      <trkpt lat="42.33315" lon="2.52708">
        <ele>1531.546</ele>
        <time>2011-04-02T09:55:50Z</time>
      </trkpt>
      <trkpt lat="42.33316" lon="2.52708">
        <ele>1530.675</ele>
        <time>2011-04-02T09:55:52Z</time>
      </trkpt>
      <trkpt lat="42.33317" lon="2.52709">
        <ele>1533.932</ele>
        <time>2011-04-02T09:55:59Z</time>
      </trkpt>
      <trkpt lat="42.33318" lon="2.52711">
        <ele>1534.41</ele>
        <time>2011-04-02T09:56:02Z</time>
      </trkpt>
      <trkpt lat="42.33319" lon="2.52714">
        <ele>1535.893</ele>
        <time>2011-04-02T09:56:05Z</time>
      </trkpt>
      <trkpt lat="42.33319" lon="2.52717">
        <ele>1537.392</ele>
        <time>2011-04-02T09:56:09Z</time>
      </trkpt>
      <trkpt lat="42.3332" lon="2.52718">
        <ele>1538.773</ele>
        <time>2011-04-02T09:56:11Z</time>
      </trkpt>
      <trkpt lat="42.33323" lon="2.52726">
        <ele>1542.62</ele>
        <time>2011-04-02T09:56:24Z</time>
      </trkpt>
      <trkpt lat="42.33327" lon="2.52741">
        <ele>1544.507</ele>
        <time>2011-04-02T09:56:37Z</time>
      </trkpt>
      <trkpt lat="42.3333" lon="2.52751">
        <ele>1546.91</ele>
        <time>2011-04-02T09:56:48Z</time>
      </trkpt>
      <trkpt lat="42.33332" lon="2.52754">
        <ele>1551.274</ele>
        <time>2011-04-02T09:56:54Z</time>
      </trkpt>
      <trkpt lat="42.33332" lon="2.52755">
        <ele>1550.747</ele>
        <time>2011-04-02T09:56:55Z</time>
      </trkpt>
      <trkpt lat="42.33335" lon="2.5276">
        <ele>1551.796</ele>
        <time>2011-04-02T09:57:01Z</time>
      </trkpt>
      <trkpt lat="42.33335" lon="2.52763">
        <ele>1552.713</ele>
        <time>2011-04-02T09:57:04Z</time>
      </trkpt>
      <trkpt lat="42.33335" lon="2.52765">
        <ele>1551.281</ele>
        <time>2011-04-02T09:57:06Z</time>
      </trkpt>
      <trkpt lat="42.33333" lon="2.52775">
        <ele>1551.774</ele>
        <time>2011-04-02T09:57:19Z</time>
      </trkpt>
      <trkpt lat="42.33329" lon="2.52779">
        <ele>1552.214</ele>
        <time>2011-04-02T09:57:41Z</time>
      </trkpt>
      <trkpt lat="42.33328" lon="2.52779">
        <ele>1552.754</ele>
        <time>2011-04-02T09:58:02Z</time>
      </trkpt>
      <trkpt lat="42.33328" lon="2.5278">
        <ele>1553.209</ele>
        <time>2011-04-02T09:58:06Z</time>
      </trkpt>
      <trkpt lat="42.33328" lon="2.5278">
        <ele>1551.707</ele>
        <time>2011-04-02T09:58:29Z</time>
      </trkpt>
      <trkpt lat="42.3333" lon="2.52781">
        <ele>1552.242</ele>
        <time>2011-04-02T09:58:46Z</time>
      </trkpt>
      <trkpt lat="42.3333" lon="2.52783">
        <ele>1551.246</ele>
        <time>2011-04-02T09:59:15Z</time>
      </trkpt>
      <trkpt lat="42.33327" lon="2.52786">
        <ele>1551.299</ele>
        <time>2011-04-02T10:00:01Z</time>
      </trkpt>
      <trkpt lat="42.33327" lon="2.52785">
        <ele>1550.358</ele>
        <time>2011-04-02T10:00:13Z</time>
      </trkpt>
      <trkpt lat="42.33328" lon="2.52784">
        <ele>1550.715</ele>
        <time>2011-04-02T10:00:26Z</time>
      </trkpt>
      <trkpt lat="42.33329" lon="2.52792">
        <ele>1549.863</ele>
        <time>2011-04-02T10:00:56Z</time>
      </trkpt>
      <trkpt lat="42.33332" lon="2.52804">
        <ele>1547.916</ele>
        <time>2011-04-02T10:01:05Z</time>
      </trkpt>
      <trkpt lat="42.33331" lon="2.52815">
        <ele>1545.526</ele>
        <time>2011-04-02T10:01:15Z</time>
      </trkpt>
      <trkpt lat="42.33332" lon="2.52818">
        <ele>1545.547</ele>
        <time>2011-04-02T10:01:18Z</time>
      </trkpt>
      <trkpt lat="42.3333" lon="2.52833">
        <ele>1542.111</ele>
        <time>2011-04-02T10:01:28Z</time>
      </trkpt>
      <trkpt lat="42.33329" lon="2.52841">
        <ele>1542.607</ele>
        <time>2011-04-02T10:01:31Z</time>
      </trkpt>
      <trkpt lat="42.33327" lon="2.52853">
        <ele>1539.753</ele>
        <time>2011-04-02T10:01:36Z</time>
      </trkpt>
      <trkpt lat="42.33326" lon="2.52861">
        <ele>1538.337</ele>
        <time>2011-04-02T10:01:39Z</time>
      </trkpt>
      <trkpt lat="42.33325" lon="2.52864">
        <ele>1537.87</ele>
        <time>2011-04-02T10:01:40Z</time>
      </trkpt>
      <trkpt lat="42.33324" lon="2.52883">
        <ele>1536.859</ele>
        <time>2011-04-02T10:01:48Z</time>
      </trkpt>
      <trkpt lat="42.33323" lon="2.52906">
        <ele>1533.416</ele>
        <time>2011-04-02T10:01:59Z</time>
      </trkpt>
      <trkpt lat="42.33323" lon="2.52921">
        <ele>1531.094</ele>
        <time>2011-04-02T10:02:08Z</time>
      </trkpt>
      <trkpt lat="42.33324" lon="2.52924">
        <ele>1529.687</ele>
        <time>2011-04-02T10:02:10Z</time>
      </trkpt>
      <trkpt lat="42.33323" lon="2.5294">
        <ele>1527.773</ele>
        <time>2011-04-02T10:02:20Z</time>
      </trkpt>
      <trkpt lat="42.33322" lon="2.52951">
        <ele>1527.285</ele>
        <time>2011-04-02T10:02:25Z</time>
      </trkpt>
      <trkpt lat="42.33322" lon="2.52969">
        <ele>1524.313</ele>
        <time>2011-04-02T10:02:34Z</time>
      </trkpt>
      <trkpt lat="42.33322" lon="2.52974">
        <ele>1523.807</ele>
        <time>2011-04-02T10:02:36Z</time>
      </trkpt>
      <trkpt lat="42.33323" lon="2.52993">
        <ele>1520.548</ele>
        <time>2011-04-02T10:02:48Z</time>
      </trkpt>
      <trkpt lat="42.33322" lon="2.53008">
        <ele>1519.532</ele>
        <time>2011-04-02T10:02:55Z</time>
      </trkpt>
      <trkpt lat="42.3332" lon="2.53013">
        <ele>1518.165</ele>
        <time>2011-04-02T10:02:58Z</time>
      </trkpt>
      <trkpt lat="42.3332" lon="2.53022">
        <ele>1514.754</ele>
        <time>2011-04-02T10:03:02Z</time>
      </trkpt>
      <trkpt lat="42.3332" lon="2.53025">
        <ele>1514.741</ele>
        <time>2011-04-02T10:03:03Z</time>
      </trkpt>
      <trkpt lat="42.33321" lon="2.53031">
        <ele>1513.359</ele>
        <time>2011-04-02T10:03:06Z</time>
      </trkpt>
      <trkpt lat="42.33323" lon="2.53042">
        <ele>1511.352</ele>
        <time>2011-04-02T10:03:09Z</time>
      </trkpt>
      <trkpt lat="42.33323" lon="2.53051">
        <ele>1509.461</ele>
        <time>2011-04-02T10:03:12Z</time>
      </trkpt>
      <trkpt lat="42.33319" lon="2.53059">
        <ele>1508.021</ele>
        <time>2011-04-02T10:03:18Z</time>
      </trkpt>
      <trkpt lat="42.33319" lon="2.5306">
        <ele>1508.013</ele>
        <time>2011-04-02T10:03:19Z</time>
      </trkpt>
      <trkpt lat="42.33318" lon="2.53062">
        <ele>1506.507</ele>
        <time>2011-04-02T10:03:21Z</time>
      </trkpt>
      <trkpt lat="42.33316" lon="2.53066">
        <ele>1505.117</ele>
        <time>2011-04-02T10:03:24Z</time>
      </trkpt>
      <trkpt lat="42.33313" lon="2.53073">
        <ele>1503.271</ele>
        <time>2011-04-02T10:03:28Z</time>
      </trkpt>
      <trkpt lat="42.33309" lon="2.53081">
        <ele>1502.244</ele>
        <time>2011-04-02T10:03:33Z</time>
      </trkpt>
      <trkpt lat="42.33307" lon="2.53085">
        <ele>1501.293</ele>
        <time>2011-04-02T10:03:46Z</time>
      </trkpt>
      <trkpt lat="42.33308" lon="2.53094">
        <ele>1502.24</ele>
        <time>2011-04-02T10:04:21Z</time>
      </trkpt>
      <trkpt lat="42.33305" lon="2.53097">
        <ele>1502.298</ele>
        <time>2011-04-02T10:05:10Z</time>
      </trkpt>
      <trkpt lat="42.33303" lon="2.53097">
        <ele>1502.251</ele>
        <time>2011-04-02T10:07:15Z</time>
      </trkpt>
      <trkpt lat="42.33302" lon="2.53107">
        <ele>1502.276</ele>
        <time>2011-04-02T10:08:19Z</time>
      </trkpt>
      <trkpt lat="42.33302" lon="2.53104">
        <ele>1502.29</ele>
        <time>2011-04-02T10:08:51Z</time>
      </trkpt>
      <trkpt lat="42.33301" lon="2.53103">
        <ele>1502.719</ele>
        <time>2011-04-02T10:09:08Z</time>
      </trkpt>
      <trkpt lat="42.33304" lon="2.53102">
        <ele>1502.207</ele>
        <time>2011-04-02T10:09:34Z</time>
      </trkpt>
      <trkpt lat="42.33307" lon="2.53114">
        <ele>1502.718</ele>
        <time>2011-04-02T10:10:02Z</time>
      </trkpt>
      <trkpt lat="42.33311" lon="2.53122">
        <ele>1503.622</ele>
        <time>2011-04-02T10:10:10Z</time>
      </trkpt>
      <trkpt lat="42.33314" lon="2.53134">
        <ele>1503.275</ele>
        <time>2011-04-02T10:10:18Z</time>
      </trkpt>
      <trkpt lat="42.33312" lon="2.53152">
        <ele>1503.294</ele>
        <time>2011-04-02T10:10:30Z</time>
      </trkpt>
      <trkpt lat="42.33312" lon="2.53169">
        <ele>1501.271</ele>
        <time>2011-04-02T10:10:39Z</time>
      </trkpt>
      <trkpt lat="42.33312" lon="2.5317">
        <ele>1500.369</ele>
        <time>2011-04-02T10:10:40Z</time>
      </trkpt>
      <trkpt lat="42.33312" lon="2.5318">
        <ele>1500.322</ele>
        <time>2011-04-02T10:10:46Z</time>
      </trkpt>
      <trkpt lat="42.33313" lon="2.53185">
        <ele>1498.827</ele>
        <time>2011-04-02T10:10:49Z</time>
      </trkpt>
      <trkpt lat="42.33311" lon="2.53207">
        <ele>1497.468</ele>
        <time>2011-04-02T10:10:56Z</time>
      </trkpt>
      <trkpt lat="42.33307" lon="2.53241">
        <ele>1497.414</ele>
        <time>2011-04-02T10:11:06Z</time>
      </trkpt>
      <trkpt lat="42.33305" lon="2.53274">
        <ele>1496.907</ele>
        <time>2011-04-02T10:11:18Z</time>
      </trkpt>
      <trkpt lat="42.33305" lon="2.53286">
        <ele>1495.593</ele>
        <time>2011-04-02T10:11:24Z</time>
      </trkpt>
      <trkpt lat="42.33304" lon="2.533">
        <ele>1493.697</ele>
        <time>2011-04-02T10:11:31Z</time>
      </trkpt>
      <trkpt lat="42.33304" lon="2.53311">
        <ele>1491.66</ele>
        <time>2011-04-02T10:11:36Z</time>
      </trkpt>
      <trkpt lat="42.33307" lon="2.53323">
        <ele>1488.759</ele>
        <time>2011-04-02T10:11:43Z</time>
      </trkpt>
      <trkpt lat="42.3331" lon="2.53325">
        <ele>1487.386</ele>
        <time>2011-04-02T10:11:45Z</time>
      </trkpt>
      <trkpt lat="42.33314" lon="2.53328">
        <ele>1484.464</ele>
        <time>2011-04-02T10:11:48Z</time>
      </trkpt>
      <trkpt lat="42.33315" lon="2.53329">
        <ele>1484.437</ele>
        <time>2011-04-02T10:11:49Z</time>
      </trkpt>
      <trkpt lat="42.33317" lon="2.53333">
        <ele>1483.099</ele>
        <time>2011-04-02T10:11:51Z</time>
      </trkpt>
      <trkpt lat="42.33324" lon="2.53345">
        <ele>1479.107</ele>
        <time>2011-04-02T10:11:57Z</time>
      </trkpt>
      <trkpt lat="42.33328" lon="2.53351">
        <ele>1476.727</ele>
        <time>2011-04-02T10:12:02Z</time>
      </trkpt>
      <trkpt lat="42.33331" lon="2.53356">
        <ele>1473.407</ele>
        <time>2011-04-02T10:12:07Z</time>
      </trkpt>
      <trkpt lat="42.33336" lon="2.53364">
        <ele>1469.08</ele>
        <time>2011-04-02T10:12:17Z</time>
      </trkpt>
      <trkpt lat="42.33336" lon="2.53365">
        <ele>1469.584</ele>
        <time>2011-04-02T10:12:18Z</time>
      </trkpt>
      <trkpt lat="42.3334" lon="2.5337">
        <ele>1466.237</ele>
        <time>2011-04-02T10:12:24Z</time>
      </trkpt>
      <trkpt lat="42.33345" lon="2.53381">
        <ele>1463.336</ele>
        <time>2011-04-02T10:12:33Z</time>
      </trkpt>
      <trkpt lat="42.33345" lon="2.53382">
        <ele>1462.343</ele>
        <time>2011-04-02T10:12:35Z</time>
      </trkpt>
      <trkpt lat="42.33345" lon="2.53385">
        <ele>1461.351</ele>
        <time>2011-04-02T10:12:41Z</time>
      </trkpt>
      <trkpt lat="42.33349" lon="2.53384">
        <ele>1457.024</ele>
        <time>2011-04-02T10:12:52Z</time>
      </trkpt>
      <trkpt lat="42.33351" lon="2.53383">
        <ele>1454.129</ele>
        <time>2011-04-02T10:12:59Z</time>
      </trkpt>
      <trkpt lat="42.33352" lon="2.53384">
        <ele>1454.1</ele>
        <time>2011-04-02T10:13:02Z</time>
      </trkpt>
      <trkpt lat="42.33355" lon="2.53384">
        <ele>1451.32</ele>
        <time>2011-04-02T10:13:05Z</time>
      </trkpt>
      <trkpt lat="42.33358" lon="2.53388">
        <ele>1450.307</ele>
        <time>2011-04-02T10:13:10Z</time>
      </trkpt>
      <trkpt lat="42.33358" lon="2.53395">
        <ele>1447.913</ele>
        <time>2011-04-02T10:13:16Z</time>
      </trkpt>
      <trkpt lat="42.33358" lon="2.53398">
        <ele>1446.037</ele>
        <time>2011-04-02T10:13:18Z</time>
      </trkpt>
      <trkpt lat="42.3336" lon="2.53413">
        <ele>1443.19</ele>
        <time>2011-04-02T10:13:29Z</time>
      </trkpt>
      <trkpt lat="42.33363" lon="2.53412">
        <ele>1439.739</ele>
        <time>2011-04-02T10:13:41Z</time>
      </trkpt>
      <trkpt lat="42.33367" lon="2.53416">
        <ele>1435.916</ele>
        <time>2011-04-02T10:13:52Z</time>
      </trkpt>
      <trkpt lat="42.33367" lon="2.53416">
        <ele>1435.914</ele>
        <time>2011-04-02T10:13:53Z</time>
      </trkpt>
      <trkpt lat="42.33368" lon="2.53416">
        <ele>1435.497</ele>
        <time>2011-04-02T10:13:54Z</time>
      </trkpt>
      <trkpt lat="42.33378" lon="2.53425">
        <ele>1433.052</ele>
        <time>2011-04-02T10:14:05Z</time>
      </trkpt>
      <trkpt lat="42.33384" lon="2.53433">
        <ele>1434.453</ele>
        <time>2011-04-02T10:14:12Z</time>
      </trkpt>
      <trkpt lat="42.33388" lon="2.53442">
        <ele>1431.508</ele>
        <time>2011-04-02T10:14:16Z</time>
      </trkpt>
      <trkpt lat="42.3339" lon="2.53453">
        <ele>1428.207</ele>
        <time>2011-04-02T10:14:21Z</time>
      </trkpt>
      <trkpt lat="42.3339" lon="2.53456">
        <ele>1428.226</ele>
        <time>2011-04-02T10:14:22Z</time>
      </trkpt>
      <trkpt lat="42.33391" lon="2.5346">
        <ele>1428.23</ele>
        <time>2011-04-02T10:14:24Z</time>
      </trkpt>
      <trkpt lat="42.33391" lon="2.53466">
        <ele>1431.123</ele>
        <time>2011-04-02T10:14:26Z</time>
      </trkpt>
      <trkpt lat="42.33391" lon="2.5347">
        <ele>1430.132</ele>
        <time>2011-04-02T10:14:27Z</time>
      </trkpt>
      <trkpt lat="42.33389" lon="2.53492">
        <ele>1425.899</ele>
        <time>2011-04-02T10:14:33Z</time>
      </trkpt>
      <trkpt lat="42.33389" lon="2.53494">
        <ele>1425.867</ele>
        <time>2011-04-02T10:14:34Z</time>
      </trkpt>
      <trkpt lat="42.33388" lon="2.53501">
        <ele>1423.95</ele>
        <time>2011-04-02T10:14:38Z</time>
      </trkpt>
      <trkpt lat="42.33389" lon="2.53505">
        <ele>1421.958</ele>
        <time>2011-04-02T10:14:40Z</time>
      </trkpt>
      <trkpt lat="42.33389" lon="2.53519">
        <ele>1420.552</ele>
        <time>2011-04-02T10:14:44Z</time>
      </trkpt>
      <trkpt lat="42.33387" lon="2.53536">
        <ele>1415.717</ele>
        <time>2011-04-02T10:14:49Z</time>
      </trkpt>
      <trkpt lat="42.33388" lon="2.53542">
        <ele>1414.207</ele>
        <time>2011-04-02T10:14:51Z</time>
      </trkpt>
      <trkpt lat="42.33388" lon="2.53567">
        <ele>1409.466</ele>
        <time>2011-04-02T10:14:59Z</time>
      </trkpt>
      <trkpt lat="42.33389" lon="2.53571">
        <ele>1410.93</ele>
        <time>2011-04-02T10:15:00Z</time>
      </trkpt>
      <trkpt lat="42.33391" lon="2.53579">
        <ele>1405.683</ele>
        <time>2011-04-02T10:15:03Z</time>
      </trkpt>
      <trkpt lat="42.33396" lon="2.53602">
        <ele>1403.712</ele>
        <time>2011-04-02T10:15:09Z</time>
      </trkpt>
      <trkpt lat="42.33395" lon="2.53622">
        <ele>1400.869</ele>
        <time>2011-04-02T10:15:14Z</time>
      </trkpt>
      <trkpt lat="42.33389" lon="2.53657">
        <ele>1401.347</ele>
        <time>2011-04-02T10:15:26Z</time>
      </trkpt>
      <trkpt lat="42.33385" lon="2.53674">
        <ele>1403.78</ele>
        <time>2011-04-02T10:15:32Z</time>
      </trkpt>
      <trkpt lat="42.33385" lon="2.53683">
        <ele>1403.714</ele>
        <time>2011-04-02T10:15:35Z</time>
      </trkpt>
      <trkpt lat="42.33384" lon="2.53712">
        <ele>1402.254</ele>
        <time>2011-04-02T10:15:47Z</time>
      </trkpt>
      <trkpt lat="42.33385" lon="2.53723">
        <ele>1402.709</ele>
        <time>2011-04-02T10:15:51Z</time>
      </trkpt>
      <trkpt lat="42.33382" lon="2.53748">
        <ele>1405.607</ele>
        <time>2011-04-02T10:16:00Z</time>
      </trkpt>
      <trkpt lat="42.33383" lon="2.53758">
        <ele>1402.792</ele>
        <time>2011-04-02T10:16:04Z</time>
      </trkpt>
      <trkpt lat="42.33385" lon="2.53769">
        <ele>1404.116</ele>
        <time>2011-04-02T10:16:08Z</time>
      </trkpt>
      <trkpt lat="42.33387" lon="2.53785">
        <ele>1402.259</ele>
        <time>2011-04-02T10:16:13Z</time>
      </trkpt>
      <trkpt lat="42.33389" lon="2.53813">
        <ele>1402.298</ele>
        <time>2011-04-02T10:16:23Z</time>
      </trkpt>
      <trkpt lat="42.33387" lon="2.5383">
        <ele>1401.315</ele>
        <time>2011-04-02T10:16:34Z</time>
      </trkpt>
      <trkpt lat="42.33389" lon="2.53863">
        <ele>1398.973</ele>
        <time>2011-04-02T10:16:44Z</time>
      </trkpt>
      <trkpt lat="42.33388" lon="2.53867">
        <ele>1399.856</ele>
        <time>2011-04-02T10:16:45Z</time>
      </trkpt>
      <trkpt lat="42.33378" lon="2.53922">
        <ele>1396.542</ele>
        <time>2011-04-02T10:17:00Z</time>
      </trkpt>
      <trkpt lat="42.33378" lon="2.53925">
        <ele>1397.422</ele>
        <time>2011-04-02T10:17:01Z</time>
      </trkpt>
      <trkpt lat="42.33378" lon="2.53934">
        <ele>1395.514</ele>
        <time>2011-04-02T10:17:04Z</time>
      </trkpt>
      <trkpt lat="42.33376" lon="2.53952">
        <ele>1396.907</ele>
        <time>2011-04-02T10:17:15Z</time>
      </trkpt>
      <trkpt lat="42.33375" lon="2.53962">
        <ele>1399.845</ele>
        <time>2011-04-02T10:17:19Z</time>
      </trkpt>
      <trkpt lat="42.33374" lon="2.53964">
        <ele>1399.889</ele>
        <time>2011-04-02T10:17:20Z</time>
      </trkpt>
      <trkpt lat="42.3337" lon="2.54008">
        <ele>1397.482</ele>
        <time>2011-04-02T10:17:32Z</time>
      </trkpt>
      <trkpt lat="42.33369" lon="2.54046">
        <ele>1398.971</ele>
        <time>2011-04-02T10:17:44Z</time>
      </trkpt>
      <trkpt lat="42.3337" lon="2.54086">
        <ele>1397.988</ele>
        <time>2011-04-02T10:17:55Z</time>
      </trkpt>
      <trkpt lat="42.33363" lon="2.54123">
        <ele>1394.536</ele>
        <time>2011-04-02T10:18:06Z</time>
      </trkpt>
      <trkpt lat="42.33359" lon="2.54136">
        <ele>1392.679</ele>
        <time>2011-04-02T10:18:10Z</time>
      </trkpt>
      <trkpt lat="42.33351" lon="2.54165">
        <ele>1388.886</ele>
        <time>2011-04-02T10:18:20Z</time>
      </trkpt>
      <trkpt lat="42.3334" lon="2.54192">
        <ele>1385.96</ele>
        <time>2011-04-02T10:18:28Z</time>
      </trkpt>
      <trkpt lat="42.33338" lon="2.54199">
        <ele>1384.926</ele>
        <time>2011-04-02T10:18:30Z</time>
      </trkpt>
      <trkpt lat="42.33337" lon="2.54206">
        <ele>1384.407</ele>
        <time>2011-04-02T10:18:32Z</time>
      </trkpt>
      <trkpt lat="42.33335" lon="2.54228">
        <ele>1382.539</ele>
        <time>2011-04-02T10:18:38Z</time>
      </trkpt>
      <trkpt lat="42.33334" lon="2.54242">
        <ele>1382.543</ele>
        <time>2011-04-02T10:18:42Z</time>
      </trkpt>
      <trkpt lat="42.33331" lon="2.54258">
        <ele>1380.676</ele>
        <time>2011-04-02T10:18:47Z</time>
      </trkpt>
      <trkpt lat="42.33324" lon="2.54268">
        <ele>1376.315</ele>
        <time>2011-04-02T10:18:51Z</time>
      </trkpt>
      <trkpt lat="42.33321" lon="2.54279">
        <ele>1378.222</ele>
        <time>2011-04-02T10:18:54Z</time>
      </trkpt>
      <trkpt lat="42.33299" lon="2.54316">
        <ele>1376.32</ele>
        <time>2011-04-02T10:19:06Z</time>
      </trkpt>
      <trkpt lat="42.33277" lon="2.54359">
        <ele>1374.353</ele>
        <time>2011-04-02T10:19:20Z</time>
      </trkpt>
      <trkpt lat="42.33268" lon="2.54377">
        <ele>1374.366</ele>
        <time>2011-04-02T10:19:27Z</time>
      </trkpt>
      <trkpt lat="42.33265" lon="2.54381">
        <ele>1375.829</ele>
        <time>2011-04-02T10:19:29Z</time>
      </trkpt>
      <trkpt lat="42.33263" lon="2.54383">
        <ele>1379.221</ele>
        <time>2011-04-02T10:19:30Z</time>
      </trkpt>
      <trkpt lat="42.33261" lon="2.54385">
        <ele>1377.707</ele>
        <time>2011-04-02T10:19:31Z</time>
      </trkpt>
      <trkpt lat="42.33254" lon="2.54388">
        <ele>1372.417</ele>
        <time>2011-04-02T10:19:34Z</time>
      </trkpt>
      <trkpt lat="42.33252" lon="2.54389">
        <ele>1372.451</ele>
        <time>2011-04-02T10:19:35Z</time>
      </trkpt>
      <trkpt lat="42.3325" lon="2.54391">
        <ele>1371.054</ele>
        <time>2011-04-02T10:19:36Z</time>
      </trkpt>
      <trkpt lat="42.33248" lon="2.54395">
        <ele>1370.093</ele>
        <time>2011-04-02T10:19:38Z</time>
      </trkpt>
      <trkpt lat="42.33242" lon="2.54416">
        <ele>1368.15</ele>
        <time>2011-04-02T10:19:45Z</time>
      </trkpt>
      <trkpt lat="42.33236" lon="2.54435">
        <ele>1366.218</ele>
        <time>2011-04-02T10:19:53Z</time>
      </trkpt>
      <trkpt lat="42.33234" lon="2.5444">
        <ele>1366.241</ele>
        <time>2011-04-02T10:19:55Z</time>
      </trkpt>
      <trkpt lat="42.33226" lon="2.54448">
        <ele>1362.343</ele>
        <time>2011-04-02T10:20:01Z</time>
      </trkpt>
      <trkpt lat="42.33208" lon="2.5446">
        <ele>1364.364</ele>
        <time>2011-04-02T10:20:10Z</time>
      </trkpt>
      <trkpt lat="42.33207" lon="2.54461">
        <ele>1363.81</ele>
        <time>2011-04-02T10:20:11Z</time>
      </trkpt>
      <trkpt lat="42.33204" lon="2.54465">
        <ele>1363.807</ele>
        <time>2011-04-02T10:20:15Z</time>
      </trkpt>
      <trkpt lat="42.33202" lon="2.54477">
        <ele>1363.365</ele>
        <time>2011-04-02T10:20:19Z</time>
      </trkpt>
      <trkpt lat="42.33199" lon="2.54485">
        <ele>1362.889</ele>
        <time>2011-04-02T10:20:21Z</time>
      </trkpt>
      <trkpt lat="42.33196" lon="2.54492">
        <ele>1363.382</ele>
        <time>2011-04-02T10:20:24Z</time>
      </trkpt>
      <trkpt lat="42.33193" lon="2.54498">
        <ele>1361.481</ele>
        <time>2011-04-02T10:20:30Z</time>
      </trkpt>
      <trkpt lat="42.33192" lon="2.54499">
        <ele>1362.318</ele>
        <time>2011-04-02T10:20:31Z</time>
      </trkpt>
      <trkpt lat="42.33183" lon="2.54506">
        <ele>1357.056</ele>
        <time>2011-04-02T10:20:40Z</time>
      </trkpt>
      <trkpt lat="42.33179" lon="2.54509">
        <ele>1356.119</ele>
        <time>2011-04-02T10:20:42Z</time>
      </trkpt>
      <trkpt lat="42.33176" lon="2.54513">
        <ele>1355.186</ele>
        <time>2011-04-02T10:20:45Z</time>
      </trkpt>
      <trkpt lat="42.33174" lon="2.54515">
        <ele>1353.26</ele>
        <time>2011-04-02T10:20:50Z</time>
      </trkpt>
      <trkpt lat="42.3317" lon="2.54517">
        <ele>1351.326</ele>
        <time>2011-04-02T10:20:53Z</time>
      </trkpt>
      <trkpt lat="42.33159" lon="2.5453">
        <ele>1349.807</ele>
        <time>2011-04-02T10:20:59Z</time>
      </trkpt>
      <trkpt lat="42.33154" lon="2.54534">
        <ele>1347.929</ele>
        <time>2011-04-02T10:21:03Z</time>
      </trkpt>
      <trkpt lat="42.33151" lon="2.54538">
        <ele>1346.533</ele>
        <time>2011-04-02T10:21:06Z</time>
      </trkpt>
      <trkpt lat="42.33136" lon="2.54567">
        <ele>1343.136</ele>
        <time>2011-04-02T10:21:17Z</time>
      </trkpt>
      <trkpt lat="42.33134" lon="2.54569">
        <ele>1342.645</ele>
        <time>2011-04-02T10:21:18Z</time>
      </trkpt>
      <trkpt lat="42.33132" lon="2.54571">
        <ele>1341.792</ele>
        <time>2011-04-02T10:21:20Z</time>
      </trkpt>
      <trkpt lat="42.33127" lon="2.54576">
        <ele>1340.29</ele>
        <time>2011-04-02T10:21:24Z</time>
      </trkpt>
      <trkpt lat="42.33121" lon="2.54585">
        <ele>1338.323</ele>
        <time>2011-04-02T10:21:28Z</time>
      </trkpt>
      <trkpt lat="42.33111" lon="2.54598">
        <ele>1336.989</ele>
        <time>2011-04-02T10:21:33Z</time>
      </trkpt>
      <trkpt lat="42.33091" lon="2.54629">
        <ele>1335.906</ele>
        <time>2011-04-02T10:21:45Z</time>
      </trkpt>
      <trkpt lat="42.33075" lon="2.54655">
        <ele>1336.426</ele>
        <time>2011-04-02T10:21:56Z</time>
      </trkpt>
      <trkpt lat="42.33069" lon="2.54673">
        <ele>1337.807</ele>
        <time>2011-04-02T10:22:03Z</time>
      </trkpt>
      <trkpt lat="42.33065" lon="2.54682">
        <ele>1337.399</ele>
        <time>2011-04-02T10:22:07Z</time>
      </trkpt>
      <trkpt lat="42.33058" lon="2.54695">
        <ele>1337.853</ele>
        <time>2011-04-02T10:22:14Z</time>
      </trkpt>
      <trkpt lat="42.33042" lon="2.54722">
        <ele>1338.846</ele>
        <time>2011-04-02T10:22:26Z</time>
      </trkpt>
      <trkpt lat="42.33041" lon="2.54744">
        <ele>1339.755</ele>
        <time>2011-04-02T10:22:34Z</time>
      </trkpt>
      <trkpt lat="42.33037" lon="2.54754">
        <ele>1340.212</ele>
        <time>2011-04-02T10:22:39Z</time>
      </trkpt>
      <trkpt lat="42.33033" lon="2.54773">
        <ele>1341.77</ele>
        <time>2011-04-02T10:22:48Z</time>
      </trkpt>
      <trkpt lat="42.33024" lon="2.54785">
        <ele>1343.663</ele>
        <time>2011-04-02T10:22:54Z</time>
      </trkpt>
      <trkpt lat="42.33021" lon="2.54805">
        <ele>1346.512</ele>
        <time>2011-04-02T10:23:06Z</time>
      </trkpt>
      <trkpt lat="42.33017" lon="2.54828">
        <ele>1345.032</ele>
        <time>2011-04-02T10:23:16Z</time>
      </trkpt>
      <trkpt lat="42.3301" lon="2.54845">
        <ele>1343.605</ele>
        <time>2011-04-02T10:23:21Z</time>
      </trkpt>
      <trkpt lat="42.33004" lon="2.54854">
        <ele>1343.107</ele>
        <time>2011-04-02T10:23:25Z</time>
      </trkpt>
      <trkpt lat="42.33" lon="2.54867">
        <ele>1341.732</ele>
        <time>2011-04-02T10:23:30Z</time>
      </trkpt>
      <trkpt lat="42.32997" lon="2.54878">
        <ele>1343.166</ele>
        <time>2011-04-02T10:23:34Z</time>
      </trkpt>
      <trkpt lat="42.32994" lon="2.54894">
        <ele>1341.239</ele>
        <time>2011-04-02T10:23:40Z</time>
      </trkpt>
      <trkpt lat="42.32991" lon="2.54913">
        <ele>1339.748</ele>
        <time>2011-04-02T10:23:47Z</time>
      </trkpt>
      <trkpt lat="42.32991" lon="2.54915">
        <ele>1339.375</ele>
        <time>2011-04-02T10:23:48Z</time>
      </trkpt>
      <trkpt lat="42.3299" lon="2.54918">
        <ele>1338.343</ele>
        <time>2011-04-02T10:23:50Z</time>
      </trkpt>
      <trkpt lat="42.32983" lon="2.5494">
        <ele>1334.966</ele>
        <time>2011-04-02T10:23:59Z</time>
      </trkpt>
      <trkpt lat="42.32983" lon="2.54942">
        <ele>1334.993</ele>
        <time>2011-04-02T10:24:00Z</time>
      </trkpt>
      <trkpt lat="42.32976" lon="2.54955">
        <ele>1331.165</ele>
        <time>2011-04-02T10:24:07Z</time>
      </trkpt>
      <trkpt lat="42.32966" lon="2.54969">
        <ele>1328.221</ele>
        <time>2011-04-02T10:24:13Z</time>
      </trkpt>
      <trkpt lat="42.32961" lon="2.54979">
        <ele>1323.407</ele>
        <time>2011-04-02T10:24:18Z</time>
      </trkpt>
      <trkpt lat="42.32959" lon="2.54982">
        <ele>1323.43</ele>
        <time>2011-04-02T10:24:19Z</time>
      </trkpt>
      <trkpt lat="42.32954" lon="2.54995">
        <ele>1321.584</ele>
        <time>2011-04-02T10:24:23Z</time>
      </trkpt>
      <trkpt lat="42.32952" lon="2.55">
        <ele>1321.537</ele>
        <time>2011-04-02T10:24:25Z</time>
      </trkpt>
      <trkpt lat="42.32948" lon="2.55008">
        <ele>1317.636</ele>
        <time>2011-04-02T10:24:35Z</time>
      </trkpt>
      <trkpt lat="42.32942" lon="2.55021">
        <ele>1313.823</ele>
        <time>2011-04-02T10:24:46Z</time>
      </trkpt>
      <trkpt lat="42.32939" lon="2.55027">
        <ele>1311.971</ele>
        <time>2011-04-02T10:24:49Z</time>
      </trkpt>
      <trkpt lat="42.32936" lon="2.55034">
        <ele>1311.924</ele>
        <time>2011-04-02T10:24:51Z</time>
      </trkpt>
      <trkpt lat="42.32924" lon="2.55051">
        <ele>1314.392</ele>
        <time>2011-04-02T10:25:04Z</time>
      </trkpt>
      <trkpt lat="42.32917" lon="2.55056">
        <ele>1317.173</ele>
        <time>2011-04-02T10:25:15Z</time>
      </trkpt>
      <trkpt lat="42.3291" lon="2.55051">
        <ele>1320.52</ele>
        <time>2011-04-02T10:25:25Z</time>
      </trkpt>
      <trkpt lat="42.32906" lon="2.55049">
        <ele>1322.907</ele>
        <time>2011-04-02T10:25:36Z</time>
      </trkpt>
      <trkpt lat="42.32901" lon="2.5505">
        <ele>1324.88</ele>
        <time>2011-04-02T10:25:44Z</time>
      </trkpt>
      <trkpt lat="42.32898" lon="2.5505">
        <ele>1324.424</ele>
        <time>2011-04-02T10:25:47Z</time>
      </trkpt>
      <trkpt lat="42.32883" lon="2.55072">
        <ele>1323.917</ele>
        <time>2011-04-02T10:25:59Z</time>
      </trkpt>
      <trkpt lat="42.32865" lon="2.55089">
        <ele>1322.096</ele>
        <time>2011-04-02T10:26:09Z</time>
      </trkpt>
      <trkpt lat="42.32859" lon="2.55093">
        <ele>1322.023</ele>
        <time>2011-04-02T10:26:13Z</time>
      </trkpt>
      <trkpt lat="42.3284" lon="2.55103">
        <ele>1321.051</ele>
        <time>2011-04-02T10:26:22Z</time>
      </trkpt>
      <trkpt lat="42.32836" lon="2.55102">
        <ele>1319.694</ele>
        <time>2011-04-02T10:26:26Z</time>
      </trkpt>
      <trkpt lat="42.32832" lon="2.55107">
        <ele>1322.058</ele>
        <time>2011-04-02T10:26:48Z</time>
      </trkpt>
      <trkpt lat="42.32828" lon="2.55112">
        <ele>1324.852</ele>
        <time>2011-04-02T10:26:56Z</time>
      </trkpt>
      <trkpt lat="42.32821" lon="2.5512">
        <ele>1328.717</ele>
        <time>2011-04-02T10:27:11Z</time>
      </trkpt>
      <trkpt lat="42.32813" lon="2.55122">
        <ele>1330.607</ele>
        <time>2011-04-02T10:27:22Z</time>
      </trkpt>
      <trkpt lat="42.32806" lon="2.55121">
        <ele>1333.566</ele>
        <time>2011-04-02T10:27:32Z</time>
      </trkpt>
      <trkpt lat="42.32797" lon="2.55123">
        <ele>1336.41</ele>
        <time>2011-04-02T10:27:46Z</time>
      </trkpt>
      <trkpt lat="42.32794" lon="2.55125">
        <ele>1338.353</ele>
        <time>2011-04-02T10:27:54Z</time>
      </trkpt>
      <trkpt lat="42.3279" lon="2.55121">
        <ele>1342.182</ele>
        <time>2011-04-02T10:28:05Z</time>
      </trkpt>
      <trkpt lat="42.32787" lon="2.55121">
        <ele>1346.039</ele>
        <time>2011-04-02T10:28:09Z</time>
      </trkpt>
      <trkpt lat="42.32787" lon="2.55121">
        <ele>1344.167</ele>
        <time>2011-04-02T10:28:10Z</time>
      </trkpt>
      <trkpt lat="42.32786" lon="2.55121">
        <ele>1344.13</ele>
        <time>2011-04-02T10:28:11Z</time>
      </trkpt>
      <trkpt lat="42.32774" lon="2.55132">
        <ele>1343.138</ele>
        <time>2011-04-02T10:28:20Z</time>
      </trkpt>
      <trkpt lat="42.32755" lon="2.55158">
        <ele>1343.67</ele>
        <time>2011-04-02T10:28:33Z</time>
      </trkpt>
      <trkpt lat="42.32754" lon="2.55161">
        <ele>1343.117</ele>
        <time>2011-04-02T10:28:35Z</time>
      </trkpt>
      <trkpt lat="42.32754" lon="2.55163">
        <ele>1341.707</ele>
        <time>2011-04-02T10:28:37Z</time>
      </trkpt>
      <trkpt lat="42.32746" lon="2.55176">
        <ele>1339.784</ele>
        <time>2011-04-02T10:28:46Z</time>
      </trkpt>
      <trkpt lat="42.32739" lon="2.55186">
        <ele>1339.348</ele>
        <time>2011-04-02T10:28:50Z</time>
      </trkpt>
      <trkpt lat="42.32731" lon="2.5519">
        <ele>1337.391</ele>
        <time>2011-04-02T10:28:57Z</time>
      </trkpt>
      <trkpt lat="42.32729" lon="2.55192">
        <ele>1335.93</ele>
        <time>2011-04-02T10:28:59Z</time>
      </trkpt>
      <trkpt lat="42.32713" lon="2.55217">
        <ele>1336.967</ele>
        <time>2011-04-02T10:29:09Z</time>
      </trkpt>
      <trkpt lat="42.32691" lon="2.55248">
        <ele>1334.925</ele>
        <time>2011-04-02T10:29:21Z</time>
      </trkpt>
      <trkpt lat="42.32672" lon="2.55262">
        <ele>1334.918</ele>
        <time>2011-04-02T10:29:31Z</time>
      </trkpt>
      <trkpt lat="42.32664" lon="2.55272">
        <ele>1335.441</ele>
        <time>2011-04-02T10:29:37Z</time>
      </trkpt>
      <trkpt lat="42.32658" lon="2.55281">
        <ele>1334.581</ele>
        <time>2011-04-02T10:29:41Z</time>
      </trkpt>
      <trkpt lat="42.32635" lon="2.55305">
        <ele>1333.509</ele>
        <time>2011-04-02T10:29:53Z</time>
      </trkpt>
      <trkpt lat="42.32621" lon="2.55328">
        <ele>1333.507</ele>
        <time>2011-04-02T10:30:06Z</time>
      </trkpt>
      <trkpt lat="42.32612" lon="2.5534">
        <ele>1337.375</ele>
        <time>2011-04-02T10:30:18Z</time>
      </trkpt>
      <trkpt lat="42.32611" lon="2.55342">
        <ele>1336.949</ele>
        <time>2011-04-02T10:30:20Z</time>
      </trkpt>
      <trkpt lat="42.32611" lon="2.55345">
        <ele>1338.322</ele>
        <time>2011-04-02T10:30:23Z</time>
      </trkpt>
      <trkpt lat="42.32609" lon="2.55348">
        <ele>1339.721</ele>
        <time>2011-04-02T10:30:26Z</time>
      </trkpt>
      <trkpt lat="42.32606" lon="2.55355">
        <ele>1340.258</ele>
        <time>2011-04-02T10:30:31Z</time>
      </trkpt>
      <trkpt lat="42.32602" lon="2.55363">
        <ele>1341.766</ele>
        <time>2011-04-02T10:30:39Z</time>
      </trkpt>
      <trkpt lat="42.326" lon="2.55367">
        <ele>1342.119</ele>
        <time>2011-04-02T10:30:43Z</time>
      </trkpt>
      <trkpt lat="42.326" lon="2.55371">
        <ele>1343.643</ele>
        <time>2011-04-02T10:30:46Z</time>
      </trkpt>
      <trkpt lat="42.32597" lon="2.55376">
        <ele>1345.564</ele>
        <time>2011-04-02T10:30:51Z</time>
      </trkpt>
      <trkpt lat="42.32596" lon="2.55383">
        <ele>1346.91</ele>
        <time>2011-04-02T10:31:00Z</time>
      </trkpt>
      <trkpt lat="42.32596" lon="2.55385">
        <ele>1348.907</ele>
        <time>2011-04-02T10:31:03Z</time>
      </trkpt>
      <trkpt lat="42.32596" lon="2.55388">
        <ele>1350.895</ele>
        <time>2011-04-02T10:31:06Z</time>
      </trkpt>
      <trkpt lat="42.32593" lon="2.55398">
        <ele>1353.259</ele>
        <time>2011-04-02T10:31:19Z</time>
      </trkpt>
      <trkpt lat="42.32592" lon="2.55399">
        <ele>1353.212</ele>
        <time>2011-04-02T10:31:20Z</time>
      </trkpt>
      <trkpt lat="42.32591" lon="2.55405">
        <ele>1354.691</ele>
        <time>2011-04-02T10:31:28Z</time>
      </trkpt>
      <trkpt lat="42.32589" lon="2.55408">
        <ele>1356.668</ele>
        <time>2011-04-02T10:31:33Z</time>
      </trkpt>
      <trkpt lat="42.32587" lon="2.55411">
        <ele>1356.676</ele>
        <time>2011-04-02T10:31:37Z</time>
      </trkpt>
      <trkpt lat="42.32587" lon="2.5542">
        <ele>1357.529</ele>
        <time>2011-04-02T10:31:45Z</time>
      </trkpt>
      <trkpt lat="42.32581" lon="2.55434">
        <ele>1359.435</ele>
        <time>2011-04-02T10:32:00Z</time>
      </trkpt>
      <trkpt lat="42.32573" lon="2.55444">
        <ele>1362.386</ele>
        <time>2011-04-02T10:32:15Z</time>
      </trkpt>
      <trkpt lat="42.3257" lon="2.55448">
        <ele>1364.314</ele>
        <time>2011-04-02T10:32:19Z</time>
      </trkpt>
      <trkpt lat="42.32561" lon="2.55458">
        <ele>1365.707</ele>
        <time>2011-04-02T10:32:29Z</time>
      </trkpt>
      <trkpt lat="42.32551" lon="2.5547">
        <ele>1366.734</ele>
        <time>2011-04-02T10:32:45Z</time>
      </trkpt>
      <trkpt lat="42.32549" lon="2.55472">
        <ele>1365.728</ele>
        <time>2011-04-02T10:33:02Z</time>
      </trkpt>
      <trkpt lat="42.32542" lon="2.55485">
        <ele>1367.111</ele>
        <time>2011-04-02T10:33:11Z</time>
      </trkpt>
      <trkpt lat="42.3254" lon="2.55488">
        <ele>1369.57</ele>
        <time>2011-04-02T10:33:13Z</time>
      </trkpt>
      <trkpt lat="42.3253" lon="2.55504">
        <ele>1371.067</ele>
        <time>2011-04-02T10:33:27Z</time>
      </trkpt>
      <trkpt lat="42.32521" lon="2.55518">
        <ele>1373.925</ele>
        <time>2011-04-02T10:33:37Z</time>
      </trkpt>
      <trkpt lat="42.32512" lon="2.55526">
        <ele>1377.798</ele>
        <time>2011-04-02T10:33:49Z</time>
      </trkpt>
      <trkpt lat="42.32511" lon="2.55527">
        <ele>1377.223</ele>
        <time>2011-04-02T10:33:50Z</time>
      </trkpt>
      <trkpt lat="42.32504" lon="2.55535">
        <ele>1380.183</ele>
        <time>2011-04-02T10:34:03Z</time>
      </trkpt>
      <trkpt lat="42.32501" lon="2.55536">
        <ele>1381.611</ele>
        <time>2011-04-02T10:34:09Z</time>
      </trkpt>
      <trkpt lat="42.32496" lon="2.55538">
        <ele>1383.507</ele>
        <time>2011-04-02T10:34:19Z</time>
      </trkpt>
      <trkpt lat="42.32491" lon="2.5554">
        <ele>1387.353</ele>
        <time>2011-04-02T10:34:28Z</time>
      </trkpt>
      <trkpt lat="42.32487" lon="2.55541">
        <ele>1389.297</ele>
        <time>2011-04-02T10:34:32Z</time>
      </trkpt>
      <trkpt lat="42.32467" lon="2.55545">
        <ele>1388.85</ele>
        <time>2011-04-02T10:34:44Z</time>
      </trkpt>
      <trkpt lat="42.32461" lon="2.55547">
        <ele>1390.249</ele>
        <time>2011-04-02T10:34:51Z</time>
      </trkpt>
      <trkpt lat="42.32449" lon="2.55552">
        <ele>1389.296</ele>
        <time>2011-04-02T10:35:00Z</time>
      </trkpt>
      <trkpt lat="42.32448" lon="2.55552">
        <ele>1389.214</ele>
        <time>2011-04-02T10:35:01Z</time>
      </trkpt>
      <trkpt lat="42.32437" lon="2.55554">
        <ele>1386.487</ele>
        <time>2011-04-02T10:35:14Z</time>
      </trkpt>
      <trkpt lat="42.32434" lon="2.55553">
        <ele>1382.544</ele>
        <time>2011-04-02T10:35:19Z</time>
      </trkpt>
      <trkpt lat="42.32433" lon="2.55553">
        <ele>1384.905</ele>
        <time>2011-04-02T10:35:21Z</time>
      </trkpt>
      <trkpt lat="42.3243" lon="2.55551">
        <ele>1380.615</ele>
        <time>2011-04-02T10:35:27Z</time>
      </trkpt>
      <trkpt lat="42.32429" lon="2.55553">
        <ele>1379.207</ele>
        <time>2011-04-02T10:35:32Z</time>
      </trkpt>
      <trkpt lat="42.32426" lon="2.55557">
        <ele>1375.875</ele>
        <time>2011-04-02T10:35:40Z</time>
      </trkpt>
      <trkpt lat="42.32426" lon="2.55557">
        <ele>1375.859</ele>
        <time>2011-04-02T10:35:41Z</time>
      </trkpt>
      <trkpt lat="42.32422" lon="2.55559">
        <ele>1371.582</ele>
        <time>2011-04-02T10:35:49Z</time>
      </trkpt>
      <trkpt lat="42.32418" lon="2.55559">
        <ele>1369.191</ele>
        <time>2011-04-02T10:35:54Z</time>
      </trkpt>
      <trkpt lat="42.32416" lon="2.5556">
        <ele>1368.158</ele>
        <time>2011-04-02T10:35:58Z</time>
      </trkpt>
      <trkpt lat="42.32415" lon="2.55562">
        <ele>1366.796</ele>
        <time>2011-04-02T10:36:00Z</time>
      </trkpt>
      <trkpt lat="42.32407" lon="2.55563">
        <ele>1362.829</ele>
        <time>2011-04-02T10:36:06Z</time>
      </trkpt>
      <trkpt lat="42.32405" lon="2.55564">
        <ele>1362.389</ele>
        <time>2011-04-02T10:36:07Z</time>
      </trkpt>
      <trkpt lat="42.32403" lon="2.55565">
        <ele>1360.906</ele>
        <time>2011-04-02T10:36:09Z</time>
      </trkpt>
      <trkpt lat="42.324" lon="2.55568">
        <ele>1359.026</ele>
        <time>2011-04-02T10:36:11Z</time>
      </trkpt>
      <trkpt lat="42.32391" lon="2.55575">
        <ele>1357.007</ele>
        <time>2011-04-02T10:36:16Z</time>
      </trkpt>
      <trkpt lat="42.32386" lon="2.55576">
        <ele>1354.679</ele>
        <time>2011-04-02T10:36:19Z</time>
      </trkpt>
      <trkpt lat="42.32379" lon="2.55578">
        <ele>1352.733</ele>
        <time>2011-04-02T10:36:24Z</time>
      </trkpt>
      <trkpt lat="42.32369" lon="2.55586">
        <ele>1349.866</ele>
        <time>2011-04-02T10:36:30Z</time>
      </trkpt>
      <trkpt lat="42.32364" lon="2.5559">
        <ele>1345.545</ele>
        <time>2011-04-02T10:36:34Z</time>
      </trkpt>
      <trkpt lat="42.32363" lon="2.5559">
        <ele>1344.522</ele>
        <time>2011-04-02T10:36:36Z</time>
      </trkpt>
      <trkpt lat="42.32363" lon="2.55588">
        <ele>1347.91</ele>
        <time>2011-04-02T10:36:46Z</time>
      </trkpt>
      <trkpt lat="42.32362" lon="2.55588">
        <ele>1346.953</ele>
        <time>2011-04-02T10:36:47Z</time>
      </trkpt>
      <trkpt lat="42.3236" lon="2.55588">
        <ele>1345.015</ele>
        <time>2011-04-02T10:36:51Z</time>
      </trkpt>
      <trkpt lat="42.32347" lon="2.55591">
        <ele>1340.265</ele>
        <time>2011-04-02T10:37:05Z</time>
      </trkpt>
      <trkpt lat="42.32345" lon="2.55592">
        <ele>1340.711</ele>
        <time>2011-04-02T10:37:06Z</time>
      </trkpt>
      <trkpt lat="42.32338" lon="2.55596">
        <ele>1337.807</ele>
        <time>2011-04-02T10:37:09Z</time>
      </trkpt>
      <trkpt lat="42.32323" lon="2.55606">
        <ele>1337.352</ele>
        <time>2011-04-02T10:37:15Z</time>
      </trkpt>
      <trkpt lat="42.32312" lon="2.55609">
        <ele>1335.926</ele>
        <time>2011-04-02T10:37:19Z</time>
      </trkpt>
      <trkpt lat="42.32305" lon="2.5561">
        <ele>1335.929</ele>
        <time>2011-04-02T10:37:22Z</time>
      </trkpt>
      <trkpt lat="42.32291" lon="2.55628">
        <ele>1333.018</ele>
        <time>2011-04-02T10:37:32Z</time>
      </trkpt>
      <trkpt lat="42.32283" lon="2.55646">
        <ele>1331.655</ele>
        <time>2011-04-02T10:37:40Z</time>
      </trkpt>
      <trkpt lat="42.32279" lon="2.55652">
        <ele>1329.283</ele>
        <time>2011-04-02T10:37:47Z</time>
      </trkpt>
      <trkpt lat="42.32277" lon="2.55656">
        <ele>1327.796</ele>
        <time>2011-04-02T10:37:49Z</time>
      </trkpt>
      <trkpt lat="42.32272" lon="2.55662">
        <ele>1326.367</ele>
        <time>2011-04-02T10:37:53Z</time>
      </trkpt>
      <trkpt lat="42.32268" lon="2.55666">
        <ele>1325.881</ele>
        <time>2011-04-02T10:37:55Z</time>
      </trkpt>
      <trkpt lat="42.32255" lon="2.55688">
        <ele>1324.819</ele>
        <time>2011-04-02T10:38:07Z</time>
      </trkpt>
      <trkpt lat="42.32254" lon="2.5569">
        <ele>1324.807</ele>
        <time>2011-04-02T10:38:20Z</time>
      </trkpt>
      <trkpt lat="42.32252" lon="2.5569">
        <ele>1323.937</ele>
        <time>2011-04-02T10:38:35Z</time>
      </trkpt>
      <trkpt lat="42.32249" lon="2.5569">
        <ele>1323.411</ele>
        <time>2011-04-02T10:38:49Z</time>
      </trkpt>
      <trkpt lat="42.32249" lon="2.55691">
        <ele>1322.974</ele>
        <time>2011-04-02T10:38:51Z</time>
      </trkpt>
      <trkpt lat="42.32243" lon="2.5569">
        <ele>1319.653</ele>
        <time>2011-04-02T10:39:01Z</time>
      </trkpt>
      <trkpt lat="42.32239" lon="2.55692">
        <ele>1316.77</ele>
        <time>2011-04-02T10:39:08Z</time>
      </trkpt>
      <trkpt lat="42.32238" lon="2.55693">
        <ele>1316.798</ele>
        <time>2011-04-02T10:39:09Z</time>
      </trkpt>
      <trkpt lat="42.32235" lon="2.55693">
        <ele>1314.781</ele>
        <time>2011-04-02T10:39:12Z</time>
      </trkpt>
      <trkpt lat="42.32234" lon="2.55693">
        <ele>1314.315</ele>
        <time>2011-04-02T10:39:13Z</time>
      </trkpt>
      <trkpt lat="42.3223" lon="2.55693">
        <ele>1312.865</ele>
        <time>2011-04-02T10:39:16Z</time>
      </trkpt>
      <trkpt lat="42.32227" lon="2.55691">
        <ele>1309.911</ele>
        <time>2011-04-02T10:39:19Z</time>
      </trkpt>
      <trkpt lat="42.32219" lon="2.55689">
        <ele>1308.507</ele>
        <time>2011-04-02T10:39:24Z</time>
      </trkpt>
      <trkpt lat="42.32215" lon="2.55692">
        <ele>1307.142</ele>
        <time>2011-04-02T10:39:26Z</time>
      </trkpt>
      <trkpt lat="42.32211" lon="2.55725">
        <ele>1305.676</ele>
        <time>2011-04-02T10:39:37Z</time>
      </trkpt>
      <trkpt lat="42.32208" lon="2.55735">
        <ele>1306.149</ele>
        <time>2011-04-02T10:39:41Z</time>
      </trkpt>
      <trkpt lat="42.32198" lon="2.55746">
        <ele>1303.278</ele>
        <time>2011-04-02T10:39:48Z</time>
      </trkpt>
      <trkpt lat="42.32193" lon="2.55751">
        <ele>1302.255</ele>
        <time>2011-04-02T10:39:52Z</time>
      </trkpt>
      <trkpt lat="42.32177" lon="2.55762">
        <ele>1297.973</ele>
        <time>2011-04-02T10:40:00Z</time>
      </trkpt>
      <trkpt lat="42.32173" lon="2.55766">
        <ele>1297.416</ele>
        <time>2011-04-02T10:40:02Z</time>
      </trkpt>
      <trkpt lat="42.32154" lon="2.55782">
        <ele>1294.698</ele>
        <time>2011-04-02T10:40:12Z</time>
      </trkpt>
      <trkpt lat="42.32143" lon="2.55792">
        <ele>1292.615</ele>
        <time>2011-04-02T10:40:18Z</time>
      </trkpt>
      <trkpt lat="42.32137" lon="2.558">
        <ele>1289.826</ele>
        <time>2011-04-02T10:40:27Z</time>
      </trkpt>
      <trkpt lat="42.32138" lon="2.55815">
        <ele>1284.907</ele>
        <time>2011-04-02T10:40:35Z</time>
      </trkpt>
      <trkpt lat="42.32135" lon="2.5583">
        <ele>1281.19</ele>
        <time>2011-04-02T10:40:42Z</time>
      </trkpt>
      <trkpt lat="42.32133" lon="2.55837">
        <ele>1279.214</ele>
        <time>2011-04-02T10:40:49Z</time>
      </trkpt>
      <trkpt lat="42.32129" lon="2.55846">
        <ele>1276.337</ele>
        <time>2011-04-02T10:40:55Z</time>
      </trkpt>
      <trkpt lat="42.32126" lon="2.55848">
        <ele>1273.416</ele>
        <time>2011-04-02T10:40:57Z</time>
      </trkpt>
      <trkpt lat="42.32125" lon="2.55842">
        <ele>1271.573</ele>
        <time>2011-04-02T10:41:06Z</time>
      </trkpt>
      <trkpt lat="42.32124" lon="2.55841">
        <ele>1270.551</ele>
        <time>2011-04-02T10:41:08Z</time>
      </trkpt>
      <trkpt lat="42.32122" lon="2.55843">
        <ele>1269.144</ele>
        <time>2011-04-02T10:41:11Z</time>
      </trkpt>
      <trkpt lat="42.32121" lon="2.55845">
        <ele>1269.152</ele>
        <time>2011-04-02T10:41:12Z</time>
      </trkpt>
      <trkpt lat="42.32121" lon="2.55859">
        <ele>1269.653</ele>
        <time>2011-04-02T10:41:18Z</time>
      </trkpt>
      <trkpt lat="42.32118" lon="2.5587">
        <ele>1269.608</ele>
        <time>2011-04-02T10:41:26Z</time>
      </trkpt>
      <trkpt lat="42.32113" lon="2.55878">
        <ele>1266.707</ele>
        <time>2011-04-02T10:41:32Z</time>
      </trkpt>
      <trkpt lat="42.32112" lon="2.55881">
        <ele>1265.746</ele>
        <time>2011-04-02T10:41:34Z</time>
      </trkpt>
      <trkpt lat="42.32111" lon="2.55882">
        <ele>1265.75</ele>
        <time>2011-04-02T10:41:35Z</time>
      </trkpt>
      <trkpt lat="42.32108" lon="2.55889">
        <ele>1263.393</ele>
        <time>2011-04-02T10:41:41Z</time>
      </trkpt>
      <trkpt lat="42.32101" lon="2.55898">
        <ele>1259.582</ele>
        <time>2011-04-02T10:41:49Z</time>
      </trkpt>
      <trkpt lat="42.32096" lon="2.55903">
        <ele>1257.599</ele>
        <time>2011-04-02T10:41:52Z</time>
      </trkpt>
      <trkpt lat="42.32086" lon="2.55917">
        <ele>1256.177</ele>
        <time>2011-04-02T10:42:01Z</time>
      </trkpt>
      <trkpt lat="42.32083" lon="2.55938">
        <ele>1259.57</ele>
        <time>2011-04-02T10:42:13Z</time>
      </trkpt>
      <trkpt lat="42.32075" lon="2.55961">
        <ele>1260.994</ele>
        <time>2011-04-02T10:42:22Z</time>
      </trkpt>
      <trkpt lat="42.32069" lon="2.5598">
        <ele>1259.557</ele>
        <time>2011-04-02T10:42:31Z</time>
      </trkpt>
      <trkpt lat="42.32069" lon="2.5598">
        <ele>1260.422</ele>
        <time>2011-04-02T10:42:32Z</time>
      </trkpt>
      <trkpt lat="42.32063" lon="2.55999">
        <ele>1257.507</ele>
        <time>2011-04-02T10:42:40Z</time>
      </trkpt>
      <trkpt lat="42.32055" lon="2.56019">
        <ele>1256.17</ele>
        <time>2011-04-02T10:42:47Z</time>
      </trkpt>
      <trkpt lat="42.32047" lon="2.56044">
        <ele>1256.114</ele>
        <time>2011-04-02T10:42:56Z</time>
      </trkpt>
      <trkpt lat="42.3204" lon="2.56057">
        <ele>1257.197</ele>
        <time>2011-04-02T10:43:02Z</time>
      </trkpt>
      <trkpt lat="42.32034" lon="2.56067">
        <ele>1259.026</ele>
        <time>2011-04-02T10:43:09Z</time>
      </trkpt>
      <trkpt lat="42.32028" lon="2.56079">
        <ele>1259.043</ele>
        <time>2011-04-02T10:43:17Z</time>
      </trkpt>
      <trkpt lat="42.32022" lon="2.56093">
        <ele>1258.581</ele>
        <time>2011-04-02T10:43:26Z</time>
      </trkpt>
      <trkpt lat="42.32013" lon="2.56102">
        <ele>1261.414</ele>
        <time>2011-04-02T10:43:34Z</time>
      </trkpt>
      <trkpt lat="42.31995" lon="2.56114">
        <ele>1260.964</ele>
        <time>2011-04-02T10:43:47Z</time>
      </trkpt>
      <trkpt lat="42.31984" lon="2.56124">
        <ele>1261.406</ele>
        <time>2011-04-02T10:43:54Z</time>
      </trkpt>
      <trkpt lat="42.3198" lon="2.56129">
        <ele>1261.416</ele>
        <time>2011-04-02T10:43:58Z</time>
      </trkpt>
      <trkpt lat="42.31977" lon="2.56134">
        <ele>1261.407</ele>
        <time>2011-04-02T10:44:02Z</time>
      </trkpt>
      <trkpt lat="42.31962" lon="2.56147">
        <ele>1262.827</ele>
        <time>2011-04-02T10:44:15Z</time>
      </trkpt>
      <trkpt lat="42.3196" lon="2.5615">
        <ele>1262.871</ele>
        <time>2011-04-02T10:44:17Z</time>
      </trkpt>
      <trkpt lat="42.31958" lon="2.56163">
        <ele>1266.294</ele>
        <time>2011-04-02T10:44:29Z</time>
      </trkpt>
      <trkpt lat="42.31957" lon="2.56166">
        <ele>1266.733</ele>
        <time>2011-04-02T10:44:31Z</time>
      </trkpt>
      <trkpt lat="42.31949" lon="2.56178">
        <ele>1265.72</ele>
        <time>2011-04-02T10:44:41Z</time>
      </trkpt>
      <trkpt lat="42.31943" lon="2.56188">
        <ele>1263.888</ele>
        <time>2011-04-02T10:44:53Z</time>
      </trkpt>
      <trkpt lat="42.31942" lon="2.56189">
        <ele>1264.331</ele>
        <time>2011-04-02T10:44:54Z</time>
      </trkpt>
      <trkpt lat="42.31937" lon="2.56189">
        <ele>1262.487</ele>
        <time>2011-04-02T10:45:05Z</time>
      </trkpt>
      <trkpt lat="42.31933" lon="2.56186">
        <ele>1261.942</ele>
        <time>2011-04-02T10:45:10Z</time>
      </trkpt>
      <trkpt lat="42.31931" lon="2.56183">
        <ele>1259.926</ele>
        <time>2011-04-02T10:45:13Z</time>
      </trkpt>
      <trkpt lat="42.3193" lon="2.56175">
        <ele>1259.507</ele>
        <time>2011-04-02T10:45:19Z</time>
      </trkpt>
      <trkpt lat="42.31929" lon="2.56174">
        <ele>1258.049</ele>
        <time>2011-04-02T10:45:23Z</time>
      </trkpt>
      <trkpt lat="42.31921" lon="2.56171">
        <ele>1255.113</ele>
        <time>2011-04-02T10:45:33Z</time>
      </trkpt>
      <trkpt lat="42.31919" lon="2.56169">
        <ele>1254.736</ele>
        <time>2011-04-02T10:45:35Z</time>
      </trkpt>
      <trkpt lat="42.31914" lon="2.56165">
        <ele>1253.285</ele>
        <time>2011-04-02T10:45:51Z</time>
      </trkpt>
      <trkpt lat="42.31909" lon="2.56162">
        <ele>1249.982</ele>
        <time>2011-04-02T10:46:28Z</time>
      </trkpt>
      <trkpt lat="42.31909" lon="2.56162">
        <ele>1250.89</ele>
        <time>2011-04-02T10:46:29Z</time>
      </trkpt>
      <trkpt lat="42.31903" lon="2.56164">
        <ele>1250.363</ele>
        <time>2011-04-02T10:46:36Z</time>
      </trkpt>
      <trkpt lat="42.31896" lon="2.56161">
        <ele>1250.327</ele>
        <time>2011-04-02T10:46:49Z</time>
      </trkpt>
      <trkpt lat="42.31886" lon="2.5615">
        <ele>1247.568</ele>
        <time>2011-04-02T10:47:06Z</time>
      </trkpt>
      <trkpt lat="42.31881" lon="2.56142">
        <ele>1245.014</ele>
        <time>2011-04-02T10:47:16Z</time>
      </trkpt>
      <trkpt lat="42.31867" lon="2.56123">
        <ele>1245.507</ele>
        <time>2011-04-02T10:47:33Z</time>
      </trkpt>
      <trkpt lat="42.31864" lon="2.56114">
        <ele>1246.063</ele>
        <time>2011-04-02T10:47:38Z</time>
      </trkpt>
      <trkpt lat="42.31859" lon="2.56103">
        <ele>1247.577</ele>
        <time>2011-04-02T10:47:46Z</time>
      </trkpt>
      <trkpt lat="42.31857" lon="2.56088">
        <ele>1247.56</ele>
        <time>2011-04-02T10:47:55Z</time>
      </trkpt>
      <trkpt lat="42.31853" lon="2.56086">
        <ele>1248.919</ele>
        <time>2011-04-02T10:48:00Z</time>
      </trkpt>
      <trkpt lat="42.31847" lon="2.56085">
        <ele>1247.036</ele>
        <time>2011-04-02T10:48:04Z</time>
      </trkpt>
      <trkpt lat="42.31834" lon="2.56088">
        <ele>1248.954</ele>
        <time>2011-04-02T10:48:19Z</time>
      </trkpt>
      <trkpt lat="42.31832" lon="2.56089">
        <ele>1248.927</ele>
        <time>2011-04-02T10:48:22Z</time>
      </trkpt>
      <trkpt lat="42.31826" lon="2.56089">
        <ele>1249.451</ele>
        <time>2011-04-02T10:48:27Z</time>
      </trkpt>
      <trkpt lat="42.31816" lon="2.56088">
        <ele>1250.301</ele>
        <time>2011-04-02T10:48:34Z</time>
      </trkpt>
      <trkpt lat="42.31813" lon="2.56088">
        <ele>1250.311</ele>
        <time>2011-04-02T10:48:36Z</time>
      </trkpt>
      <trkpt lat="42.31805" lon="2.56092">
        <ele>1251.807</ele>
        <time>2011-04-02T10:48:45Z</time>
      </trkpt>
      <trkpt lat="42.31791" lon="2.56094">
        <ele>1254.786</ele>
        <time>2011-04-02T10:48:58Z</time>
      </trkpt>
      <trkpt lat="42.31779" lon="2.56091">
        <ele>1255.69</ele>
        <time>2011-04-02T10:49:08Z</time>
      </trkpt>
      <trkpt lat="42.31769" lon="2.56091">
        <ele>1257.153</ele>
        <time>2011-04-02T10:49:14Z</time>
      </trkpt>
      <trkpt lat="42.31759" lon="2.56094">
        <ele>1258.572</ele>
        <time>2011-04-02T10:49:22Z</time>
      </trkpt>
      <trkpt lat="42.31756" lon="2.56096">
        <ele>1258.039</ele>
        <time>2011-04-02T10:49:24Z</time>
      </trkpt>
      <trkpt lat="42.31752" lon="2.56098">
        <ele>1259.547</ele>
        <time>2011-04-02T10:49:28Z</time>
      </trkpt>
      <trkpt lat="42.31742" lon="2.56103">
        <ele>1260.49</ele>
        <time>2011-04-02T10:49:38Z</time>
      </trkpt>
      <trkpt lat="42.31737" lon="2.56107">
        <ele>1261.925</ele>
        <time>2011-04-02T10:49:43Z</time>
      </trkpt>
      <trkpt lat="42.3173" lon="2.56111">
        <ele>1262.826</ele>
        <time>2011-04-02T10:49:50Z</time>
      </trkpt>
      <trkpt lat="42.31717" lon="2.56119">
        <ele>1264.308</ele>
        <time>2011-04-02T10:50:01Z</time>
      </trkpt>
      <trkpt lat="42.317" lon="2.56122">
        <ele>1266.207</ele>
        <time>2011-04-02T10:50:12Z</time>
      </trkpt>
      <trkpt lat="42.31687" lon="2.56118">
        <ele>1269.193</ele>
        <time>2011-04-02T10:50:24Z</time>
      </trkpt>
      <trkpt lat="42.31677" lon="2.56109">
        <ele>1271.587</ele>
        <time>2011-04-02T10:50:38Z</time>
      </trkpt>
      <trkpt lat="42.31671" lon="2.56097">
        <ele>1273.46</ele>
        <time>2011-04-02T10:50:49Z</time>
      </trkpt>
      <trkpt lat="42.31666" lon="2.56081">
        <ele>1275.369</ele>
        <time>2011-04-02T10:51:01Z</time>
      </trkpt>
      <trkpt lat="42.31657" lon="2.56065">
        <ele>1277.366</ele>
        <time>2011-04-02T10:51:14Z</time>
      </trkpt>
      <trkpt lat="42.31656" lon="2.56064">
        <ele>1276.814</ele>
        <time>2011-04-02T10:51:15Z</time>
      </trkpt>
      <trkpt lat="42.31654" lon="2.56064">
        <ele>1277.387</ele>
        <time>2011-04-02T10:51:17Z</time>
      </trkpt>
      <trkpt lat="42.31652" lon="2.56064">
        <ele>1275.317</ele>
        <time>2011-04-02T10:51:19Z</time>
      </trkpt>
      <trkpt lat="42.31644" lon="2.56061">
        <ele>1276.887</ele>
        <time>2011-04-02T10:51:38Z</time>
      </trkpt>
      <trkpt lat="42.31636" lon="2.56063">
        <ele>1278.715</ele>
        <time>2011-04-02T10:51:54Z</time>
      </trkpt>
      <trkpt lat="42.31626" lon="2.56061">
        <ele>1278.707</ele>
        <time>2011-04-02T10:52:06Z</time>
      </trkpt>
      <trkpt lat="42.31617" lon="2.56067">
        <ele>1279.762</ele>
        <time>2011-04-02T10:52:18Z</time>
      </trkpt>
      <trkpt lat="42.31616" lon="2.56067">
        <ele>1279.216</ele>
        <time>2011-04-02T10:52:19Z</time>
      </trkpt>
      <trkpt lat="42.31606" lon="2.56072">
        <ele>1279.259</ele>
        <time>2011-04-02T10:52:30Z</time>
      </trkpt>
      <trkpt lat="42.31596" lon="2.56084">
        <ele>1280.638</ele>
        <time>2011-04-02T10:52:40Z</time>
      </trkpt>
      <trkpt lat="42.31592" lon="2.5609">
        <ele>1281.645</ele>
        <time>2011-04-02T10:52:45Z</time>
      </trkpt>
      <trkpt lat="42.31589" lon="2.56095">
        <ele>1280.693</ele>
        <time>2011-04-02T10:52:54Z</time>
      </trkpt>
      <trkpt lat="42.31586" lon="2.56101">
        <ele>1281.156</ele>
        <time>2011-04-02T10:53:00Z</time>
      </trkpt>
      <trkpt lat="42.31583" lon="2.56104">
        <ele>1279.731</ele>
        <time>2011-04-02T10:53:03Z</time>
      </trkpt>
      <trkpt lat="42.31575" lon="2.56122">
        <ele>1280.661</ele>
        <time>2011-04-02T10:53:16Z</time>
      </trkpt>
      <trkpt lat="42.31577" lon="2.56132">
        <ele>1283.507</ele>
        <time>2011-04-02T10:53:25Z</time>
      </trkpt>
      <trkpt lat="42.31577" lon="2.56136">
        <ele>1284.507</ele>
        <time>2011-04-02T10:53:28Z</time>
      </trkpt>
      <trkpt lat="42.31579" lon="2.5614">
        <ele>1285.444</ele>
        <time>2011-04-02T10:53:32Z</time>
      </trkpt>
      <trkpt lat="42.31573" lon="2.56153">
        <ele>1283.548</ele>
        <time>2011-04-02T10:53:40Z</time>
      </trkpt>
      <trkpt lat="42.31557" lon="2.56158">
        <ele>1279.781</ele>
        <time>2011-04-02T10:53:51Z</time>
      </trkpt>
      <trkpt lat="42.31553" lon="2.56172">
        <ele>1278.79</ele>
        <time>2011-04-02T10:54:04Z</time>
      </trkpt>
      <trkpt lat="42.3155" lon="2.56191">
        <ele>1277.747</ele>
        <time>2011-04-02T10:54:10Z</time>
      </trkpt>
      <trkpt lat="42.3155" lon="2.56209">
        <ele>1277.355</ele>
        <time>2011-04-02T10:54:17Z</time>
      </trkpt>
      <trkpt lat="42.31543" lon="2.56223">
        <ele>1274.448</ele>
        <time>2011-04-02T10:54:24Z</time>
      </trkpt>
      <trkpt lat="42.31534" lon="2.56231">
        <ele>1271.024</ele>
        <time>2011-04-02T10:54:30Z</time>
      </trkpt>
      <trkpt lat="42.3153" lon="2.56235">
        <ele>1270.004</ele>
        <time>2011-04-02T10:54:32Z</time>
      </trkpt>
      <trkpt lat="42.31517" lon="2.5624">
        <ele>1267.614</ele>
        <time>2011-04-02T10:54:40Z</time>
      </trkpt>
      <trkpt lat="42.31512" lon="2.56254">
        <ele>1265.207</ele>
        <time>2011-04-02T10:54:48Z</time>
      </trkpt>
      <trkpt lat="42.31511" lon="2.56274">
        <ele>1262.813</ele>
        <time>2011-04-02T10:54:55Z</time>
      </trkpt>
      <trkpt lat="42.31508" lon="2.5629">
        <ele>1262.497</ele>
        <time>2011-04-02T10:55:00Z</time>
      </trkpt>
      <trkpt lat="42.31501" lon="2.56313">
        <ele>1260.44</ele>
        <time>2011-04-02T10:55:11Z</time>
      </trkpt>
      <trkpt lat="42.31499" lon="2.56323">
        <ele>1259.559</ele>
        <time>2011-04-02T10:55:17Z</time>
      </trkpt>
      <trkpt lat="42.31498" lon="2.56338">
        <ele>1257.116</ele>
        <time>2011-04-02T10:55:23Z</time>
      </trkpt>
      <trkpt lat="42.31494" lon="2.56347">
        <ele>1256.194</ele>
        <time>2011-04-02T10:55:26Z</time>
      </trkpt>
      <trkpt lat="42.31482" lon="2.56353">
        <ele>1252.317</ele>
        <time>2011-04-02T10:55:31Z</time>
      </trkpt>
      <trkpt lat="42.31477" lon="2.56354">
        <ele>1250.838</ele>
        <time>2011-04-02T10:55:33Z</time>
      </trkpt>
      <trkpt lat="42.31462" lon="2.5636">
        <ele>1247.57</ele>
        <time>2011-04-02T10:55:38Z</time>
      </trkpt>
      <trkpt lat="42.31447" lon="2.56384">
        <ele>1246.017</ele>
        <time>2011-04-02T10:55:47Z</time>
      </trkpt>
      <trkpt lat="42.31434" lon="2.56418">
        <ele>1246.007</ele>
        <time>2011-04-02T10:55:59Z</time>
      </trkpt>
      <trkpt lat="42.31419" lon="2.56461">
        <ele>1245.024</ele>
        <time>2011-04-02T10:56:13Z</time>
      </trkpt>
      <trkpt lat="42.31412" lon="2.56472">
        <ele>1243.128</ele>
        <time>2011-04-02T10:56:27Z</time>
      </trkpt>
      <trkpt lat="42.31409" lon="2.56473">
        <ele>1241.211</ele>
        <time>2011-04-02T10:56:45Z</time>
      </trkpt>
      <trkpt lat="42.31403" lon="2.56475">
        <ele>1238.89</ele>
        <time>2011-04-02T10:56:50Z</time>
      </trkpt>
      <trkpt lat="42.31394" lon="2.56468">
        <ele>1236.947</ele>
        <time>2011-04-02T10:56:59Z</time>
      </trkpt>
      <trkpt lat="42.31393" lon="2.56467">
        <ele>1236.475</ele>
        <time>2011-04-02T10:57:00Z</time>
      </trkpt>
      <trkpt lat="42.31387" lon="2.56468">
        <ele>1234.038</ele>
        <time>2011-04-02T10:57:04Z</time>
      </trkpt>
      <trkpt lat="42.31386" lon="2.56469">
        <ele>1234.013</ele>
        <time>2011-04-02T10:57:05Z</time>
      </trkpt>
      <trkpt lat="42.31381" lon="2.56472">
        <ele>1232.643</ele>
        <time>2011-04-02T10:57:08Z</time>
      </trkpt>
      <trkpt lat="42.31377" lon="2.56476">
        <ele>1231.107</ele>
        <time>2011-04-02T10:57:12Z</time>
      </trkpt>
      <trkpt lat="42.31369" lon="2.56484">
        <ele>1228.707</ele>
        <time>2011-04-02T10:57:18Z</time>
      </trkpt>
      <trkpt lat="42.31354" lon="2.56499">
        <ele>1226.882</ele>
        <time>2011-04-02T10:57:28Z</time>
      </trkpt>
      <trkpt lat="42.31343" lon="2.5651">
        <ele>1222.936</ele>
        <time>2011-04-02T10:57:37Z</time>
      </trkpt>
      <trkpt lat="42.31338" lon="2.56514">
        <ele>1222.089</ele>
        <time>2011-04-02T10:57:41Z</time>
      </trkpt>
      <trkpt lat="42.31336" lon="2.56516">
        <ele>1220.588</ele>
        <time>2011-04-02T10:57:43Z</time>
      </trkpt>
      <trkpt lat="42.3132" lon="2.56524">
        <ele>1216.735</ele>
        <time>2011-04-02T10:57:52Z</time>
      </trkpt>
      <trkpt lat="42.31307" lon="2.56518">
        <ele>1215.753</ele>
        <time>2011-04-02T10:57:58Z</time>
      </trkpt>
      <trkpt lat="42.313" lon="2.56521">
        <ele>1213.826</ele>
        <time>2011-04-02T10:58:01Z</time>
      </trkpt>
      <trkpt lat="42.31273" lon="2.56535">
        <ele>1210.995</ele>
        <time>2011-04-02T10:58:12Z</time>
      </trkpt>
      <trkpt lat="42.31241" lon="2.56555">
        <ele>1210.449</ele>
        <time>2011-04-02T10:58:26Z</time>
      </trkpt>
      <trkpt lat="42.31212" lon="2.56579">
        <ele>1210.423</ele>
        <time>2011-04-02T10:58:40Z</time>
      </trkpt>
      <trkpt lat="42.31198" lon="2.56586">
        <ele>1210.407</ele>
        <time>2011-04-02T10:58:47Z</time>
      </trkpt>
      <trkpt lat="42.31187" lon="2.5659">
        <ele>1207.18</ele>
        <time>2011-04-02T10:58:56Z</time>
      </trkpt>
      <trkpt lat="42.31186" lon="2.56591">
        <ele>1206.694</ele>
        <time>2011-04-02T10:58:57Z</time>
      </trkpt>
      <trkpt lat="42.3118" lon="2.56589">
        <ele>1205.637</ele>
        <time>2011-04-02T10:59:05Z</time>
      </trkpt>
      <trkpt lat="42.31178" lon="2.56593">
        <ele>1204.716</ele>
        <time>2011-04-02T10:59:22Z</time>
      </trkpt>
      <trkpt lat="42.31178" lon="2.56594">
        <ele>1204.263</ele>
        <time>2011-04-02T10:59:45Z</time>
      </trkpt>
      <trkpt lat="42.31178" lon="2.56596">
        <ele>1204.261</ele>
        <time>2011-04-02T11:00:29Z</time>
      </trkpt>
      <trkpt lat="42.31175" lon="2.56603">
        <ele>1201.374</ele>
        <time>2011-04-02T11:00:38Z</time>
      </trkpt>
      <trkpt lat="42.31173" lon="2.56603">
        <ele>1199.947</ele>
        <time>2011-04-02T11:00:40Z</time>
      </trkpt>
      <trkpt lat="42.31166" lon="2.56607">
        <ele>1196.029</ele>
        <time>2011-04-02T11:00:49Z</time>
      </trkpt>
      <trkpt lat="42.31166" lon="2.56607">
        <ele>1196.021</ele>
        <time>2011-04-02T11:00:50Z</time>
      </trkpt>
      <trkpt lat="42.31165" lon="2.56608">
        <ele>1195.507</ele>
        <time>2011-04-02T11:00:52Z</time>
      </trkpt>
      <trkpt lat="42.31164" lon="2.56611">
        <ele>1194.165</ele>
        <time>2011-04-02T11:00:55Z</time>
      </trkpt>
      <trkpt lat="42.31162" lon="2.56626">
        <ele>1191.249</ele>
        <time>2011-04-02T11:01:04Z</time>
      </trkpt>
      <trkpt lat="42.31161" lon="2.5663">
        <ele>1189.842</ele>
        <time>2011-04-02T11:01:08Z</time>
      </trkpt>
      <trkpt lat="42.31157" lon="2.56632">
        <ele>1187.451</ele>
        <time>2011-04-02T11:01:12Z</time>
      </trkpt>
      <trkpt lat="42.31154" lon="2.56633">
        <ele>1185.498</ele>
        <time>2011-04-02T11:01:15Z</time>
      </trkpt>
      <trkpt lat="42.31151" lon="2.56637">
        <ele>1184.086</ele>
        <time>2011-04-02T11:01:20Z</time>
      </trkpt>
      <trkpt lat="42.3115" lon="2.56638">
        <ele>1182.649</ele>
        <time>2011-04-02T11:01:22Z</time>
      </trkpt>
      <trkpt lat="42.31147" lon="2.56636">
        <ele>1181.144</ele>
        <time>2011-04-02T11:01:25Z</time>
      </trkpt>
      <trkpt lat="42.31145" lon="2.56632">
        <ele>1179.705</ele>
        <time>2011-04-02T11:01:27Z</time>
      </trkpt>
      <trkpt lat="42.31141" lon="2.56628">
        <ele>1178.215</ele>
        <time>2011-04-02T11:01:30Z</time>
      </trkpt>
      <trkpt lat="42.31139" lon="2.56626">
        <ele>1176.807</ele>
        <time>2011-04-02T11:01:32Z</time>
      </trkpt>
      <trkpt lat="42.31134" lon="2.56623">
        <ele>1174.465</ele>
        <time>2011-04-02T11:01:36Z</time>
      </trkpt>
      <trkpt lat="42.31131" lon="2.56621">
        <ele>1173.019</ele>
        <time>2011-04-02T11:01:39Z</time>
      </trkpt>
      <trkpt lat="42.31128" lon="2.56621">
        <ele>1171.082</ele>
        <time>2011-04-02T11:01:42Z</time>
      </trkpt>
      <trkpt lat="42.31124" lon="2.56624">
        <ele>1169.611</ele>
        <time>2011-04-02T11:01:46Z</time>
      </trkpt>
      <trkpt lat="42.31122" lon="2.56624">
        <ele>1168.198</ele>
        <time>2011-04-02T11:01:48Z</time>
      </trkpt>
      <trkpt lat="42.31116" lon="2.56623">
        <ele>1167.286</ele>
        <time>2011-04-02T11:01:51Z</time>
      </trkpt>
      <trkpt lat="42.31113" lon="2.56622">
        <ele>1165.339</ele>
        <time>2011-04-02T11:01:53Z</time>
      </trkpt>
      <trkpt lat="42.31103" lon="2.56618">
        <ele>1161.445</ele>
        <time>2011-04-02T11:01:59Z</time>
      </trkpt>
      <trkpt lat="42.31102" lon="2.56625">
        <ele>1160.547</ele>
        <time>2011-04-02T11:02:04Z</time>
      </trkpt>
      <trkpt lat="42.31103" lon="2.56629">
        <ele>1159.011</ele>
        <time>2011-04-02T11:02:06Z</time>
      </trkpt>
      <trkpt lat="42.31105" lon="2.56632">
        <ele>1157.607</ele>
        <time>2011-04-02T11:02:11Z</time>
      </trkpt>
      <trkpt lat="42.3111" lon="2.56636">
        <ele>1154.275</ele>
        <time>2011-04-02T11:02:16Z</time>
      </trkpt>
      <trkpt lat="42.31117" lon="2.56645">
        <ele>1153.779</ele>
        <time>2011-04-02T11:02:25Z</time>
      </trkpt>
      <trkpt lat="42.31114" lon="2.56648">
        <ele>1150.892</ele>
        <time>2011-04-02T11:02:35Z</time>
      </trkpt>
      <trkpt lat="42.31109" lon="2.56648">
        <ele>1147.531</ele>
        <time>2011-04-02T11:02:46Z</time>
      </trkpt>
      <trkpt lat="42.31105" lon="2.56654">
        <ele>1144.158</ele>
        <time>2011-04-02T11:02:55Z</time>
      </trkpt>
      <trkpt lat="42.31103" lon="2.56656">
        <ele>1143.126</ele>
        <time>2011-04-02T11:02:58Z</time>
      </trkpt>
      <trkpt lat="42.31098" lon="2.56662">
        <ele>1140.729</ele>
        <time>2011-04-02T11:03:04Z</time>
      </trkpt>
      <trkpt lat="42.31094" lon="2.56664">
        <ele>1138.378</ele>
        <time>2011-04-02T11:03:11Z</time>
      </trkpt>
      <trkpt lat="42.31089" lon="2.56662">
        <ele>1135.933</ele>
        <time>2011-04-02T11:03:23Z</time>
      </trkpt>
      <trkpt lat="42.31086" lon="2.56664">
        <ele>1135.026</ele>
        <time>2011-04-02T11:03:26Z</time>
      </trkpt>
      <trkpt lat="42.31084" lon="2.56666">
        <ele>1134.007</ele>
        <time>2011-04-02T11:03:28Z</time>
      </trkpt>
      <trkpt lat="42.31079" lon="2.56677">
        <ele>1133.148</ele>
        <time>2011-04-02T11:03:41Z</time>
      </trkpt>
      <trkpt lat="42.31078" lon="2.56683">
        <ele>1132.652</ele>
        <time>2011-04-02T11:03:44Z</time>
      </trkpt>
      <trkpt lat="42.31077" lon="2.56685">
        <ele>1130.765</ele>
        <time>2011-04-02T11:03:46Z</time>
      </trkpt>
      <trkpt lat="42.31069" lon="2.5669">
        <ele>1127.854</ele>
        <time>2011-04-02T11:03:54Z</time>
      </trkpt>
      <trkpt lat="42.31062" lon="2.56695">
        <ele>1124.921</ele>
        <time>2011-04-02T11:04:00Z</time>
      </trkpt>
      <trkpt lat="42.31061" lon="2.56696">
        <ele>1124.959</ele>
        <time>2011-04-02T11:04:01Z</time>
      </trkpt>
      <trkpt lat="42.31057" lon="2.56698">
        <ele>1123.932</ele>
        <time>2011-04-02T11:04:04Z</time>
      </trkpt>
      <trkpt lat="42.31054" lon="2.56699">
        <ele>1123.055</ele>
        <time>2011-04-02T11:04:06Z</time>
      </trkpt>
      <trkpt lat="42.31049" lon="2.56697">
        <ele>1121.507</ele>
        <time>2011-04-02T11:04:10Z</time>
      </trkpt>
      <trkpt lat="42.31047" lon="2.56697">
        <ele>1120.117</ele>
        <time>2011-04-02T11:04:12Z</time>
      </trkpt>
      <trkpt lat="42.31045" lon="2.56698">
        <ele>1119.607</ele>
        <time>2011-04-02T11:04:14Z</time>
      </trkpt>
      <trkpt lat="42.31041" lon="2.567">
        <ele>1118.256</ele>
        <time>2011-04-02T11:04:17Z</time>
      </trkpt>
      <trkpt lat="42.31032" lon="2.56707">
        <ele>1113.87</ele>
        <time>2011-04-02T11:04:25Z</time>
      </trkpt>
      <trkpt lat="42.31031" lon="2.56707">
        <ele>1113.863</ele>
        <time>2011-04-02T11:04:26Z</time>
      </trkpt>
      <trkpt lat="42.31028" lon="2.56707">
        <ele>1112.952</ele>
        <time>2011-04-02T11:04:28Z</time>
      </trkpt>
      <trkpt lat="42.31015" lon="2.56713">
        <ele>1110.969</ele>
        <time>2011-04-02T11:04:38Z</time>
      </trkpt>
      <trkpt lat="42.31014" lon="2.56714">
        <ele>1110.077</ele>
        <time>2011-04-02T11:04:40Z</time>
      </trkpt>
      <trkpt lat="42.31012" lon="2.56714">
        <ele>1110.01</ele>
        <time>2011-04-02T11:04:42Z</time>
      </trkpt>
      <trkpt lat="42.31008" lon="2.56713">
        <ele>1108.525</ele>
        <time>2011-04-02T11:04:46Z</time>
      </trkpt>
      <trkpt lat="42.30992" lon="2.56719">
        <ele>1105.226</ele>
        <time>2011-04-02T11:04:56Z</time>
      </trkpt>
      <trkpt lat="42.3099" lon="2.56719">
        <ele>1103.708</ele>
        <time>2011-04-02T11:04:58Z</time>
      </trkpt>
      <trkpt lat="42.30984" lon="2.5672">
        <ele>1101.807</ele>
        <time>2011-04-02T11:05:03Z</time>
      </trkpt>
      <trkpt lat="42.30964" lon="2.56724">
        <ele>1098.423</ele>
        <time>2011-04-02T11:05:12Z</time>
      </trkpt>
      <trkpt lat="42.3095" lon="2.56731">
        <ele>1096.047</ele>
        <time>2011-04-02T11:05:19Z</time>
      </trkpt>
      <trkpt lat="42.30935" lon="2.56733">
        <ele>1093.22</ele>
        <time>2011-04-02T11:05:27Z</time>
      </trkpt>
      <trkpt lat="42.30922" lon="2.56737">
        <ele>1091.769</ele>
        <time>2011-04-02T11:05:35Z</time>
      </trkpt>
      <trkpt lat="42.3092" lon="2.56737">
        <ele>1090.326</ele>
        <time>2011-04-02T11:05:37Z</time>
      </trkpt>
      <trkpt lat="42.30899" lon="2.56737">
        <ele>1086.444</ele>
        <time>2011-04-02T11:05:47Z</time>
      </trkpt>
      <trkpt lat="42.30897" lon="2.56737">
        <ele>1085.017</ele>
        <time>2011-04-02T11:05:48Z</time>
      </trkpt>
      <trkpt lat="42.30892" lon="2.56737">
        <ele>1085.089</ele>
        <time>2011-04-02T11:05:50Z</time>
      </trkpt>
      <trkpt lat="42.30881" lon="2.56736">
        <ele>1083.106</ele>
        <time>2011-04-02T11:05:55Z</time>
      </trkpt>
      <trkpt lat="42.30873" lon="2.56738">
        <ele>1081.626</ele>
        <time>2011-04-02T11:06:00Z</time>
      </trkpt>
      <trkpt lat="42.30872" lon="2.56738">
        <ele>1080.707</ele>
        <time>2011-04-02T11:06:01Z</time>
      </trkpt>
      <trkpt lat="42.30851" lon="2.56731">
        <ele>1078.359</ele>
        <time>2011-04-02T11:06:11Z</time>
      </trkpt>
      <trkpt lat="42.30849" lon="2.56731">
        <ele>1078.323</ele>
        <time>2011-04-02T11:06:12Z</time>
      </trkpt>
      <trkpt lat="42.30843" lon="2.5673">
        <ele>1076.896</ele>
        <time>2011-04-02T11:06:16Z</time>
      </trkpt>
      <trkpt lat="42.30839" lon="2.56728">
        <ele>1074.975</ele>
        <time>2011-04-02T11:06:19Z</time>
      </trkpt>
      <trkpt lat="42.30834" lon="2.56726">
        <ele>1073.582</ele>
        <time>2011-04-02T11:06:22Z</time>
      </trkpt>
      <trkpt lat="42.30828" lon="2.56723">
        <ele>1072.06</ele>
        <time>2011-04-02T11:06:26Z</time>
      </trkpt>
      <trkpt lat="42.30812" lon="2.56715">
        <ele>1068.253</ele>
        <time>2011-04-02T11:06:35Z</time>
      </trkpt>
      <trkpt lat="42.30807" lon="2.56712">
        <ele>1067.231</ele>
        <time>2011-04-02T11:06:38Z</time>
      </trkpt>
      <trkpt lat="42.30787" lon="2.56713">
        <ele>1063.861</ele>
        <time>2011-04-02T11:06:48Z</time>
      </trkpt>
      <trkpt lat="42.30768" lon="2.56715">
        <ele>1060.507</ele>
        <time>2011-04-02T11:06:58Z</time>
      </trkpt>
      <trkpt lat="42.30763" lon="2.56717">
        <ele>1060.507</ele>
        <time>2011-04-02T11:07:00Z</time>
      </trkpt>
      <trkpt lat="42.30749" lon="2.56723">
        <ele>1058.614</ele>
        <time>2011-04-02T11:07:07Z</time>
      </trkpt>
      <trkpt lat="42.30745" lon="2.56723">
        <ele>1057.648</ele>
        <time>2011-04-02T11:07:10Z</time>
      </trkpt>
      <trkpt lat="42.30723" lon="2.56712">
        <ele>1057.141</ele>
        <time>2011-04-02T11:07:22Z</time>
      </trkpt>
      <trkpt lat="42.30718" lon="2.5671">
        <ele>1057.69</ele>
        <time>2011-04-02T11:07:26Z</time>
      </trkpt>
      <trkpt lat="42.30712" lon="2.56708">
        <ele>1055.257</ele>
        <time>2011-04-02T11:07:35Z</time>
      </trkpt>
      <trkpt lat="42.30705" lon="2.56702">
        <ele>1055.285</ele>
        <time>2011-04-02T11:07:41Z</time>
      </trkpt>
      <trkpt lat="42.30701" lon="2.56699">
        <ele>1053.368</ele>
        <time>2011-04-02T11:07:45Z</time>
      </trkpt>
      <trkpt lat="42.30698" lon="2.56698">
        <ele>1054.245</ele>
        <time>2011-04-02T11:07:47Z</time>
      </trkpt>
      <trkpt lat="42.30694" lon="2.56697">
        <ele>1053.347</ele>
        <time>2011-04-02T11:07:51Z</time>
      </trkpt>
      <trkpt lat="42.30685" lon="2.567">
        <ele>1053.311</ele>
        <time>2011-04-02T11:07:57Z</time>
      </trkpt>
      <trkpt lat="42.3068" lon="2.56705">
        <ele>1052.307</ele>
        <time>2011-04-02T11:08:03Z</time>
      </trkpt>
      <trkpt lat="42.30661" lon="2.56705">
        <ele>1048.975</ele>
        <time>2011-04-02T11:08:15Z</time>
      </trkpt>
      <trkpt lat="42.30658" lon="2.5671">
        <ele>1047.599</ele>
        <time>2011-04-02T11:08:31Z</time>
      </trkpt>
      <trkpt lat="42.30654" lon="2.56714">
        <ele>1045.132</ele>
        <time>2011-04-02T11:08:39Z</time>
      </trkpt>
      <trkpt lat="42.30646" lon="2.56716">
        <ele>1042.711</ele>
        <time>2011-04-02T11:08:50Z</time>
      </trkpt>
      <trkpt lat="42.30642" lon="2.5672">
        <ele>1040.868</ele>
        <time>2011-04-02T11:09:04Z</time>
      </trkpt>
      <trkpt lat="42.30643" lon="2.56721">
        <ele>1040.316</ele>
        <time>2011-04-02T11:09:20Z</time>
      </trkpt>
      <trkpt lat="42.30639" lon="2.56737">
        <ele>1039.379</ele>
        <time>2011-04-02T11:09:35Z</time>
      </trkpt>
      <trkpt lat="42.30638" lon="2.56738">
        <ele>1038.454</ele>
        <time>2011-04-02T11:09:40Z</time>
      </trkpt>
      <trkpt lat="42.30631" lon="2.56738">
        <ele>1035.556</ele>
        <time>2011-04-02T11:09:52Z</time>
      </trkpt>
      <trkpt lat="42.30626" lon="2.5674">
        <ele>1034.511</ele>
        <time>2011-04-02T11:10:00Z</time>
      </trkpt>
      <trkpt lat="42.30622" lon="2.56743">
        <ele>1034.507</ele>
        <time>2011-04-02T11:10:06Z</time>
      </trkpt>
      <trkpt lat="42.3062" lon="2.56743">
        <ele>1031.686</ele>
        <time>2011-04-02T11:10:09Z</time>
      </trkpt>
      <trkpt lat="42.30615" lon="2.56737">
        <ele>1029.77</ele>
        <time>2011-04-02T11:10:19Z</time>
      </trkpt>
      <trkpt lat="42.30613" lon="2.56734">
        <ele>1028.833</ele>
        <time>2011-04-02T11:10:22Z</time>
      </trkpt>
      <trkpt lat="42.30608" lon="2.56729">
        <ele>1028.342</ele>
        <time>2011-04-02T11:10:28Z</time>
      </trkpt>
      <trkpt lat="42.30607" lon="2.56725">
        <ele>1026.859</ele>
        <time>2011-04-02T11:10:31Z</time>
      </trkpt>
      <trkpt lat="42.30606" lon="2.56721">
        <ele>1026.867</ele>
        <time>2011-04-02T11:10:34Z</time>
      </trkpt>
      <trkpt lat="42.30602" lon="2.56717">
        <ele>1024.99</ele>
        <time>2011-04-02T11:10:38Z</time>
      </trkpt>
      <trkpt lat="42.306" lon="2.56716">
        <ele>1023.952</ele>
        <time>2011-04-02T11:10:41Z</time>
      </trkpt>
      <trkpt lat="42.30598" lon="2.56713">
        <ele>1023.053</ele>
        <time>2011-04-02T11:10:44Z</time>
      </trkpt>
      <trkpt lat="42.30596" lon="2.56703">
        <ele>1021.508</ele>
        <time>2011-04-02T11:10:50Z</time>
      </trkpt>
      <trkpt lat="42.30595" lon="2.5669">
        <ele>1021.107</ele>
        <time>2011-04-02T11:10:56Z</time>
      </trkpt>
      <trkpt lat="42.30595" lon="2.56686">
        <ele>1021.166</ele>
        <time>2011-04-02T11:10:58Z</time>
      </trkpt>
      <trkpt lat="42.30595" lon="2.56675">
        <ele>1020.18</ele>
        <time>2011-04-02T11:11:04Z</time>
      </trkpt>
      <trkpt lat="42.30597" lon="2.56666">
        <ele>1020.163</ele>
        <time>2011-04-02T11:11:17Z</time>
      </trkpt>
      <trkpt lat="42.30597" lon="2.56662">
        <ele>1020.112</ele>
        <time>2011-04-02T11:11:39Z</time>
      </trkpt>
      <trkpt lat="42.30598" lon="2.56662">
        <ele>1020.179</ele>
        <time>2011-04-02T11:12:12Z</time>
      </trkpt>
      <trkpt lat="42.30602" lon="2.5666">
        <ele>1019.647</ele>
        <time>2011-04-02T11:12:59Z</time>
      </trkpt>
      <trkpt lat="42.306" lon="2.56661">
        <ele>1020.14</ele>
        <time>2011-04-02T11:13:27Z</time>
      </trkpt>
      <trkpt lat="42.30606" lon="2.56651">
        <ele>1019.113</ele>
        <time>2011-04-02T11:14:23Z</time>
      </trkpt>
      <trkpt lat="42.30606" lon="2.56647">
        <ele>1019.143</ele>
        <time>2011-04-02T11:14:26Z</time>
      </trkpt>
      <trkpt lat="42.3061" lon="2.56611">
        <ele>1015.807</ele>
        <time>2011-04-02T11:14:39Z</time>
      </trkpt>
      <trkpt lat="42.30615" lon="2.56596">
        <ele>1012.407</ele>
        <time>2011-04-02T11:14:46Z</time>
      </trkpt>
      <trkpt lat="42.30616" lon="2.56593">
        <ele>1012.422</ele>
        <time>2011-04-02T11:14:47Z</time>
      </trkpt>
      <trkpt lat="42.30618" lon="2.56583">
        <ele>1010.046</ele>
        <time>2011-04-02T11:14:51Z</time>
      </trkpt>
      <trkpt lat="42.30632" lon="2.56562">
        <ele>1008.189</ele>
        <time>2011-04-02T11:15:01Z</time>
      </trkpt>
      <trkpt lat="42.30648" lon="2.56549">
        <ele>1006.658</ele>
        <time>2011-04-02T11:15:08Z</time>
      </trkpt>
      <trkpt lat="42.30662" lon="2.56546">
        <ele>1006.645</ele>
        <time>2011-04-02T11:15:14Z</time>
      </trkpt>
      <trkpt lat="42.30692" lon="2.56549">
        <ele>1005.233</ele>
        <time>2011-04-02T11:15:27Z</time>
      </trkpt>
      <trkpt lat="42.30694" lon="2.56549">
        <ele>1004.266</ele>
        <time>2011-04-02T11:15:28Z</time>
      </trkpt>
      <trkpt lat="42.3072" lon="2.5654">
        <ele>1001.491</ele>
        <time>2011-04-02T11:15:39Z</time>
      </trkpt>
      <trkpt lat="42.30726" lon="2.56541">
        <ele>999.981</ele>
        <time>2011-04-02T11:15:42Z</time>
      </trkpt>
      <trkpt lat="42.30733" lon="2.56551">
        <ele>997.019</ele>
        <time>2011-04-02T11:15:51Z</time>
      </trkpt>
      <trkpt lat="42.30738" lon="2.5655">
        <ele>993.707</ele>
        <time>2011-04-02T11:15:59Z</time>
      </trkpt>
      <trkpt lat="42.30739" lon="2.56549">
        <ele>993.21</ele>
        <time>2011-04-02T11:16:01Z</time>
      </trkpt>
      <trkpt lat="42.30741" lon="2.56545">
        <ele>991.374</ele>
        <time>2011-04-02T11:16:05Z</time>
      </trkpt>
      <trkpt lat="42.30739" lon="2.56537">
        <ele>988.437</ele>
        <time>2011-04-02T11:16:13Z</time>
      </trkpt>
      <trkpt lat="42.3074" lon="2.56535">
        <ele>987.416</ele>
        <time>2011-04-02T11:16:15Z</time>
      </trkpt>
      <trkpt lat="42.30742" lon="2.56532">
        <ele>986.033</ele>
        <time>2011-04-02T11:16:17Z</time>
      </trkpt>
      <trkpt lat="42.30744" lon="2.56528">
        <ele>985.531</ele>
        <time>2011-04-02T11:16:20Z</time>
      </trkpt>
      <trkpt lat="42.30743" lon="2.56523">
        <ele>983.624</ele>
        <time>2011-04-02T11:16:23Z</time>
      </trkpt>
      <trkpt lat="42.30741" lon="2.56519">
        <ele>983.144</ele>
        <time>2011-04-02T11:16:25Z</time>
      </trkpt>
      <trkpt lat="42.30733" lon="2.56508">
        <ele>979.705</ele>
        <time>2011-04-02T11:16:32Z</time>
      </trkpt>
      <trkpt lat="42.30725" lon="2.56498">
        <ele>978.815</ele>
        <time>2011-04-02T11:16:38Z</time>
      </trkpt>
      <trkpt lat="42.3072" lon="2.56494">
        <ele>978.307</ele>
        <time>2011-04-02T11:16:42Z</time>
      </trkpt>
      <trkpt lat="42.30712" lon="2.5649">
        <ele>977.815</ele>
        <time>2011-04-02T11:16:49Z</time>
      </trkpt>
      <trkpt lat="42.30703" lon="2.56485">
        <ele>975.979</ele>
        <time>2011-04-02T11:16:55Z</time>
      </trkpt>
      <trkpt lat="42.30698" lon="2.56482">
        <ele>977.342</ele>
        <time>2011-04-02T11:16:59Z</time>
      </trkpt>
      <trkpt lat="42.30694" lon="2.56481">
        <ele>977.841</ele>
        <time>2011-04-02T11:17:02Z</time>
      </trkpt>
      <trkpt lat="42.30684" lon="2.56475">
        <ele>976.468</ele>
        <time>2011-04-02T11:17:09Z</time>
      </trkpt>
      <trkpt lat="42.3068" lon="2.56472">
        <ele>975.486</ele>
        <time>2011-04-02T11:17:12Z</time>
      </trkpt>
      <trkpt lat="42.30673" lon="2.5647">
        <ele>975.429</ele>
        <time>2011-04-02T11:17:18Z</time>
      </trkpt>
      <trkpt lat="42.30668" lon="2.56467">
        <ele>974.994</ele>
        <time>2011-04-02T11:17:21Z</time>
      </trkpt>
      <trkpt lat="42.30653" lon="2.56467">
        <ele>973.057</ele>
        <time>2011-04-02T11:17:32Z</time>
      </trkpt>
      <trkpt lat="42.30643" lon="2.56467">
        <ele>971.122</ele>
        <time>2011-04-02T11:17:41Z</time>
      </trkpt>
      <trkpt lat="42.30635" lon="2.56471">
        <ele>971.607</ele>
        <time>2011-04-02T11:17:44Z</time>
      </trkpt>
      <trkpt lat="42.3063" lon="2.56475">
        <ele>971.18</ele>
        <time>2011-04-02T11:17:46Z</time>
      </trkpt>
      <trkpt lat="42.3062" lon="2.56478">
        <ele>971.114</ele>
        <time>2011-04-02T11:17:51Z</time>
      </trkpt>
      <trkpt lat="42.30612" lon="2.56477">
        <ele>970.697</ele>
        <time>2011-04-02T11:17:58Z</time>
      </trkpt>
      <trkpt lat="42.30603" lon="2.56498">
        <ele>974.026</ele>
        <time>2011-04-02T11:18:15Z</time>
      </trkpt>
      <trkpt lat="42.30603" lon="2.56504">
        <ele>974.473</ele>
        <time>2011-04-02T11:18:19Z</time>
      </trkpt>
      <trkpt lat="42.30596" lon="2.56535">
        <ele>976.811</ele>
        <time>2011-04-02T11:18:37Z</time>
      </trkpt>
      <trkpt lat="42.30591" lon="2.56559">
        <ele>976.864</ele>
        <time>2011-04-02T11:18:51Z</time>
      </trkpt>
      <trkpt lat="42.30589" lon="2.56563">
        <ele>977.315</ele>
        <time>2011-04-02T11:18:53Z</time>
      </trkpt>
      <trkpt lat="42.30584" lon="2.5657">
        <ele>974.465</ele>
        <time>2011-04-02T11:18:57Z</time>
      </trkpt>
      <trkpt lat="42.3057" lon="2.56584">
        <ele>970.611</ele>
        <time>2011-04-02T11:19:03Z</time>
      </trkpt>
      <trkpt lat="42.3056" lon="2.56595">
        <ele>967.707</ele>
        <time>2011-04-02T11:19:08Z</time>
      </trkpt>
      <trkpt lat="42.30552" lon="2.56615">
        <ele>964.362</ele>
        <time>2011-04-02T11:19:15Z</time>
      </trkpt>
      <trkpt lat="42.30547" lon="2.56625">
        <ele>962.916</ele>
        <time>2011-04-02T11:19:18Z</time>
      </trkpt>
      <trkpt lat="42.30535" lon="2.56638">
        <ele>960.069</ele>
        <time>2011-04-02T11:19:25Z</time>
      </trkpt>
      <trkpt lat="42.30525" lon="2.56642">
        <ele>956.758</ele>
        <time>2011-04-02T11:19:30Z</time>
      </trkpt>
      <trkpt lat="42.30511" lon="2.56646">
        <ele>952.815</ele>
        <time>2011-04-02T11:19:37Z</time>
      </trkpt>
      <trkpt lat="42.30508" lon="2.56647">
        <ele>952.893</ele>
        <time>2011-04-02T11:19:38Z</time>
      </trkpt>
      <trkpt lat="42.30497" lon="2.56647">
        <ele>949.436</ele>
        <time>2011-04-02T11:19:43Z</time>
      </trkpt>
      <trkpt lat="42.3049" lon="2.56646">
        <ele>947.548</ele>
        <time>2011-04-02T11:19:46Z</time>
      </trkpt>
      <trkpt lat="42.30475" lon="2.56653">
        <ele>944.261</ele>
        <time>2011-04-02T11:19:52Z</time>
      </trkpt>
      <trkpt lat="42.30474" lon="2.56655">
        <ele>943.217</ele>
        <time>2011-04-02T11:19:53Z</time>
      </trkpt>
      <trkpt lat="42.30467" lon="2.56655">
        <ele>942.207</ele>
        <time>2011-04-02T11:19:58Z</time>
      </trkpt>
      <trkpt lat="42.30484" lon="2.56623">
        <ele>938.415</ele>
        <time>2011-04-02T11:20:10Z</time>
      </trkpt>
      <trkpt lat="42.30512" lon="2.56603">
        <ele>936.989</ele>
        <time>2011-04-02T11:20:23Z</time>
      </trkpt>
      <trkpt lat="42.30524" lon="2.56573">
        <ele>933.642</ele>
        <time>2011-04-02T11:20:35Z</time>
      </trkpt>
      <trkpt lat="42.30524" lon="2.5657">
        <ele>933.681</ele>
        <time>2011-04-02T11:20:36Z</time>
      </trkpt>
      <trkpt lat="42.30525" lon="2.5656">
        <ele>931.748</ele>
        <time>2011-04-02T11:20:39Z</time>
      </trkpt>
      <trkpt lat="42.30534" lon="2.56516">
        <ele>928.396</ele>
        <time>2011-04-02T11:20:52Z</time>
      </trkpt>
      <trkpt lat="42.30536" lon="2.56489">
        <ele>925.449</ele>
        <time>2011-04-02T11:21:00Z</time>
      </trkpt>
      <trkpt lat="42.30538" lon="2.56474">
        <ele>924.554</ele>
        <time>2011-04-02T11:21:04Z</time>
      </trkpt>
      <trkpt lat="42.30539" lon="2.56448">
        <ele>921.656</ele>
        <time>2011-04-02T11:21:12Z</time>
      </trkpt>
      <trkpt lat="42.30543" lon="2.56414">
        <ele>918.711</ele>
        <time>2011-04-02T11:21:23Z</time>
      </trkpt>
      <trkpt lat="42.30549" lon="2.56395">
        <ele>915.307</ele>
        <time>2011-04-02T11:21:30Z</time>
      </trkpt>
      <trkpt lat="42.30549" lon="2.56389">
        <ele>913.916</ele>
        <time>2011-04-02T11:21:33Z</time>
      </trkpt>
      <trkpt lat="42.30543" lon="2.56388">
        <ele>912.44</ele>
        <time>2011-04-02T11:21:36Z</time>
      </trkpt>
      <trkpt lat="42.30534" lon="2.56407">
        <ele>911.583</ele>
        <time>2011-04-02T11:21:43Z</time>
      </trkpt>
      <trkpt lat="42.30525" lon="2.5643">
        <ele>908.692</ele>
        <time>2011-04-02T11:21:51Z</time>
      </trkpt>
      <trkpt lat="42.30513" lon="2.56463">
        <ele>905.719</ele>
        <time>2011-04-02T11:22:02Z</time>
      </trkpt>
      <trkpt lat="42.30501" lon="2.56504">
        <ele>904.327</ele>
        <time>2011-04-02T11:22:15Z</time>
      </trkpt>
      <trkpt lat="42.30489" lon="2.56521">
        <ele>900.96</ele>
        <time>2011-04-02T11:22:21Z</time>
      </trkpt>
      <trkpt lat="42.30465" lon="2.56546">
        <ele>898.554</ele>
        <time>2011-04-02T11:22:32Z</time>
      </trkpt>
      <trkpt lat="42.30438" lon="2.5657">
        <ele>895.156</ele>
        <time>2011-04-02T11:22:45Z</time>
      </trkpt>
      <trkpt lat="42.30436" lon="2.56571">
        <ele>894.611</ele>
        <time>2011-04-02T11:22:46Z</time>
      </trkpt>
      <trkpt lat="42.30421" lon="2.56586">
        <ele>892.707</ele>
        <time>2011-04-02T11:22:53Z</time>
      </trkpt>
      <trkpt lat="42.30412" lon="2.56596">
        <ele>891.346</ele>
        <time>2011-04-02T11:22:57Z</time>
      </trkpt>
      <trkpt lat="42.30386" lon="2.56627">
        <ele>888.41</ele>
        <time>2011-04-02T11:23:09Z</time>
      </trkpt>
      <trkpt lat="42.30382" lon="2.56633">
        <ele>887.993</ele>
        <time>2011-04-02T11:23:11Z</time>
      </trkpt>
      <trkpt lat="42.30372" lon="2.56654">
        <ele>884.682</ele>
        <time>2011-04-02T11:23:18Z</time>
      </trkpt>
      <trkpt lat="42.30355" lon="2.56682">
        <ele>882.279</ele>
        <time>2011-04-02T11:23:28Z</time>
      </trkpt>
      <trkpt lat="42.30342" lon="2.56701">
        <ele>880.237</ele>
        <time>2011-04-02T11:23:35Z</time>
      </trkpt>
      <trkpt lat="42.30328" lon="2.56717">
        <ele>875.91</ele>
        <time>2011-04-02T11:23:42Z</time>
      </trkpt>
      <trkpt lat="42.30318" lon="2.56733">
        <ele>874.069</ele>
        <time>2011-04-02T11:23:48Z</time>
      </trkpt>
      <trkpt lat="42.30312" lon="2.56734">
        <ele>873.004</ele>
        <time>2011-04-02T11:23:50Z</time>
      </trkpt>
      <trkpt lat="42.30305" lon="2.56727">
        <ele>872.524</ele>
        <time>2011-04-02T11:23:53Z</time>
      </trkpt>
      <trkpt lat="42.30299" lon="2.56705">
        <ele>869.207</ele>
        <time>2011-04-02T11:24:00Z</time>
      </trkpt>
      <trkpt lat="42.30294" lon="2.56666">
        <ele>865.857</ele>
        <time>2011-04-02T11:24:12Z</time>
      </trkpt>
      <trkpt lat="42.30294" lon="2.5666">
        <ele>864.471</ele>
        <time>2011-04-02T11:24:15Z</time>
      </trkpt>
      <trkpt lat="42.30289" lon="2.5666">
        <ele>863.494</ele>
        <time>2011-04-02T11:24:18Z</time>
      </trkpt>
      <trkpt lat="42.30286" lon="2.56662">
        <ele>862.973</ele>
        <time>2011-04-02T11:24:20Z</time>
      </trkpt>
      <trkpt lat="42.30284" lon="2.56665">
        <ele>862.01</ele>
        <time>2011-04-02T11:24:22Z</time>
      </trkpt>
      <trkpt lat="42.30276" lon="2.56678">
        <ele>860.088</ele>
        <time>2011-04-02T11:24:30Z</time>
      </trkpt>
      <trkpt lat="42.3027" lon="2.56686">
        <ele>859.181</ele>
        <time>2011-04-02T11:24:37Z</time>
      </trkpt>
      <trkpt lat="42.30268" lon="2.56683">
        <ele>858.672</ele>
        <time>2011-04-02T11:24:39Z</time>
      </trkpt>
      <trkpt lat="42.30261" lon="2.56678">
        <ele>857.213</ele>
        <time>2011-04-02T11:24:43Z</time>
      </trkpt>
      <trkpt lat="42.30258" lon="2.56675">
        <ele>857.214</ele>
        <time>2011-04-02T11:24:45Z</time>
      </trkpt>
      <trkpt lat="42.30253" lon="2.56676">
        <ele>855.207</ele>
        <time>2011-04-02T11:24:49Z</time>
      </trkpt>
      <trkpt lat="42.30238" lon="2.56698">
        <ele>849.928</ele>
        <time>2011-04-02T11:24:58Z</time>
      </trkpt>
      <trkpt lat="42.30228" lon="2.56709">
        <ele>848.062</ele>
        <time>2011-04-02T11:25:03Z</time>
      </trkpt>
      <trkpt lat="42.30222" lon="2.56728">
        <ele>844.745</ele>
        <time>2011-04-02T11:25:09Z</time>
      </trkpt>
      <trkpt lat="42.30219" lon="2.56735">
        <ele>844.284</ele>
        <time>2011-04-02T11:25:11Z</time>
      </trkpt>
      <trkpt lat="42.3021" lon="2.56752">
        <ele>842.781</ele>
        <time>2011-04-02T11:25:17Z</time>
      </trkpt>
      <trkpt lat="42.30194" lon="2.56783">
        <ele>839.499</ele>
        <time>2011-04-02T11:25:28Z</time>
      </trkpt>
      <trkpt lat="42.30193" lon="2.56786">
        <ele>838.412</ele>
        <time>2011-04-02T11:25:29Z</time>
      </trkpt>
      <trkpt lat="42.3019" lon="2.56817">
        <ele>835.093</ele>
        <time>2011-04-02T11:25:40Z</time>
      </trkpt>
      <trkpt lat="42.30188" lon="2.56819">
        <ele>834.665</ele>
        <time>2011-04-02T11:25:41Z</time>
      </trkpt>
      <trkpt lat="42.3018" lon="2.56824">
        <ele>833.621</ele>
        <time>2011-04-02T11:25:45Z</time>
      </trkpt>
      <trkpt lat="42.30165" lon="2.56833">
        <ele>832.207</ele>
        <time>2011-04-02T11:25:54Z</time>
      </trkpt>
      <trkpt lat="42.3016" lon="2.5684">
        <ele>830.71</ele>
        <time>2011-04-02T11:25:59Z</time>
      </trkpt>
      <trkpt lat="42.30143" lon="2.56854">
        <ele>828.854</ele>
        <time>2011-04-02T11:26:08Z</time>
      </trkpt>
      <trkpt lat="42.30139" lon="2.56858">
        <ele>827.437</ele>
        <time>2011-04-02T11:26:11Z</time>
      </trkpt>
      <trkpt lat="42.30141" lon="2.56859">
        <ele>825.976</ele>
        <time>2011-04-02T11:26:14Z</time>
      </trkpt>
      <trkpt lat="42.30159" lon="2.56866">
        <ele>823.513</ele>
        <time>2011-04-02T11:26:23Z</time>
      </trkpt>
      <trkpt lat="42.30172" lon="2.56898">
        <ele>821.161</ele>
        <time>2011-04-02T11:26:34Z</time>
      </trkpt>
      <trkpt lat="42.30172" lon="2.56902">
        <ele>821.194</ele>
        <time>2011-04-02T11:26:35Z</time>
      </trkpt>
      <trkpt lat="42.30172" lon="2.56908">
        <ele>820.685</ele>
        <time>2011-04-02T11:26:37Z</time>
      </trkpt>
      <trkpt lat="42.30158" lon="2.56937">
        <ele>817.389</ele>
        <time>2011-04-02T11:26:47Z</time>
      </trkpt>
      <trkpt lat="42.30153" lon="2.5695">
        <ele>816.817</ele>
        <time>2011-04-02T11:26:51Z</time>
      </trkpt>
      <trkpt lat="42.30148" lon="2.56964">
        <ele>815.807</ele>
        <time>2011-04-02T11:26:56Z</time>
      </trkpt>
      <trkpt lat="42.30147" lon="2.56968">
        <ele>813.469</ele>
        <time>2011-04-02T11:26:58Z</time>
      </trkpt>
      <trkpt lat="42.30139" lon="2.56981">
        <ele>810.533</ele>
        <time>2011-04-02T11:27:08Z</time>
      </trkpt>
      <trkpt lat="42.30135" lon="2.56984">
        <ele>809.686</ele>
        <time>2011-04-02T11:27:10Z</time>
      </trkpt>
      <trkpt lat="42.30129" lon="2.57003">
        <ele>805.245</ele>
        <time>2011-04-02T11:27:18Z</time>
      </trkpt>
      <trkpt lat="42.30127" lon="2.57011">
        <ele>804.812</ele>
        <time>2011-04-02T11:27:21Z</time>
      </trkpt>
      <trkpt lat="42.30127" lon="2.57034">
        <ele>800.42</ele>
        <time>2011-04-02T11:27:30Z</time>
      </trkpt>
      <trkpt lat="42.30126" lon="2.57037">
        <ele>800.043</ele>
        <time>2011-04-02T11:27:31Z</time>
      </trkpt>
      <trkpt lat="42.30126" lon="2.57046">
        <ele>798.098</ele>
        <time>2011-04-02T11:27:34Z</time>
      </trkpt>
      <trkpt lat="42.30125" lon="2.57056">
        <ele>796.615</ele>
        <time>2011-04-02T11:27:39Z</time>
      </trkpt>
      <trkpt lat="42.30124" lon="2.57063">
        <ele>794.226</ele>
        <time>2011-04-02T11:27:42Z</time>
      </trkpt>
      <trkpt lat="42.30121" lon="2.57074">
        <ele>792.707</ele>
        <time>2011-04-02T11:27:46Z</time>
      </trkpt>
      <trkpt lat="42.30119" lon="2.5708">
        <ele>790.84</ele>
        <time>2011-04-02T11:27:49Z</time>
      </trkpt>
      <trkpt lat="42.30114" lon="2.57084">
        <ele>788.964</ele>
        <time>2011-04-02T11:27:53Z</time>
      </trkpt>
      <trkpt lat="42.30113" lon="2.57091">
        <ele>787.017</ele>
        <time>2011-04-02T11:27:59Z</time>
      </trkpt>
      <trkpt lat="42.30112" lon="2.57099">
        <ele>785.536</ele>
        <time>2011-04-02T11:28:02Z</time>
      </trkpt>
      <trkpt lat="42.30113" lon="2.57123">
        <ele>782.753</ele>
        <time>2011-04-02T11:28:10Z</time>
      </trkpt>
      <trkpt lat="42.30118" lon="2.57161">
        <ele>780.351</ele>
        <time>2011-04-02T11:28:23Z</time>
      </trkpt>
      <trkpt lat="42.30118" lon="2.57199">
        <ele>780.784</ele>
        <time>2011-04-02T11:28:35Z</time>
      </trkpt>
      <trkpt lat="42.30109" lon="2.57226">
        <ele>780.349</ele>
        <time>2011-04-02T11:28:47Z</time>
      </trkpt>
      <trkpt lat="42.30104" lon="2.57235">
        <ele>780.702</ele>
        <time>2011-04-02T11:29:04Z</time>
      </trkpt>
      <trkpt lat="42.30104" lon="2.57238">
        <ele>781.222</ele>
        <time>2011-04-02T11:29:09Z</time>
      </trkpt>
      <trkpt lat="42.30095" lon="2.57249">
        <ele>781.207</ele>
        <time>2011-04-02T11:29:25Z</time>
      </trkpt>
      <trkpt lat="42.30092" lon="2.57253">
        <ele>780.715</ele>
        <time>2011-04-02T11:29:44Z</time>
      </trkpt>
      <trkpt lat="42.30092" lon="2.57252">
        <ele>779.399</ele>
        <time>2011-04-02T11:30:00Z</time>
      </trkpt>
      <trkpt lat="42.30091" lon="2.57251">
        <ele>780.342</ele>
        <time>2011-04-02T11:30:15Z</time>
      </trkpt>
      <trkpt lat="42.3009" lon="2.57249">
        <ele>779.881</ele>
        <time>2011-04-02T11:30:58Z</time>
      </trkpt>
      <trkpt lat="42.3009" lon="2.5725">
        <ele>780.338</ele>
        <time>2011-04-02T11:31:06Z</time>
      </trkpt>
      <trkpt lat="42.30086" lon="2.57247">
        <ele>779.866</ele>
        <time>2011-04-02T11:31:26Z</time>
      </trkpt>
      <trkpt lat="42.30083" lon="2.57246">
        <ele>779.359</ele>
        <time>2011-04-02T11:31:45Z</time>
      </trkpt>
      <trkpt lat="42.30082" lon="2.57246">
        <ele>776.927</ele>
        <time>2011-04-02T11:33:24Z</time>
      </trkpt>
      <trkpt lat="42.30083" lon="2.57244">
        <ele>777.868</ele>
        <time>2011-04-02T11:33:50Z</time>
      </trkpt>
      <trkpt lat="42.30081" lon="2.57244">
        <ele>778.314</ele>
        <time>2011-04-02T11:34:45Z</time>
      </trkpt>
      <trkpt lat="42.30081" lon="2.57245">
        <ele>777.807</ele>
        <time>2011-04-02T11:35:24Z</time>
      </trkpt>
      <trkpt lat="42.30082" lon="2.57245">
        <ele>777.813</ele>
        <time>2011-04-02T11:35:50Z</time>
      </trkpt>
      <trkpt lat="42.30082" lon="2.57245">
        <ele>776.447</ele>
        <time>2011-04-02T11:36:35Z</time>
      </trkpt>
      <trkpt lat="42.30082" lon="2.57245">
        <ele>777.42</ele>
        <time>2011-04-02T11:37:00Z</time>
      </trkpt>
      <trkpt lat="42.30081" lon="2.57243">
        <ele>776.479</ele>
        <time>2011-04-02T11:37:12Z</time>
      </trkpt>
      <trkpt lat="42.30081" lon="2.57243">
        <ele>775.936</ele>
        <time>2011-04-02T11:38:38Z</time>
      </trkpt>
      <trkpt lat="42.3008" lon="2.57244">
        <ele>776.944</ele>
        <time>2011-04-02T11:40:44Z</time>
      </trkpt>
      <trkpt lat="42.30065" lon="2.57241">
        <ele>775.437</ele>
        <time>2011-04-02T11:41:00Z</time>
      </trkpt>
      <trkpt lat="42.30059" lon="2.5724">
        <ele>774.556</ele>
        <time>2011-04-02T11:41:05Z</time>
      </trkpt>
      <trkpt lat="42.30045" lon="2.57241">
        <ele>773.059</ele>
        <time>2011-04-02T11:41:16Z</time>
      </trkpt>
      <trkpt lat="42.30028" lon="2.57241">
        <ele>769.714</ele>
        <time>2011-04-02T11:41:28Z</time>
      </trkpt>
      <trkpt lat="42.30022" lon="2.57238">
        <ele>770.207</ele>
        <time>2011-04-02T11:41:33Z</time>
      </trkpt>
      <trkpt lat="42.30008" lon="2.5723">
        <ele>767.336</ele>
        <time>2011-04-02T11:41:43Z</time>
      </trkpt>
      <trkpt lat="42.30006" lon="2.57232">
        <ele>767.32</ele>
        <time>2011-04-02T11:41:45Z</time>
      </trkpt>
      <trkpt lat="42.3" lon="2.57233">
        <ele>765.833</ele>
        <time>2011-04-02T11:41:50Z</time>
      </trkpt>
      <trkpt lat="42.29988" lon="2.57238">
        <ele>762.992</ele>
        <time>2011-04-02T11:41:58Z</time>
      </trkpt>
      <trkpt lat="42.29992" lon="2.57247">
        <ele>761.099</ele>
        <time>2011-04-02T11:42:05Z</time>
      </trkpt>
      <trkpt lat="42.29999" lon="2.57257">
        <ele>758.167</ele>
        <time>2011-04-02T11:42:12Z</time>
      </trkpt>
      <trkpt lat="42.29999" lon="2.57262">
        <ele>756.75</ele>
        <time>2011-04-02T11:42:14Z</time>
      </trkpt>
      <trkpt lat="42.30003" lon="2.57271">
        <ele>755.365</ele>
        <time>2011-04-02T11:42:18Z</time>
      </trkpt>
      <trkpt lat="42.30006" lon="2.57278">
        <ele>753.868</ele>
        <time>2011-04-02T11:42:21Z</time>
      </trkpt>
      <trkpt lat="42.30009" lon="2.57284">
        <ele>752.414</ele>
        <time>2011-04-02T11:42:25Z</time>
      </trkpt>
      <trkpt lat="42.30016" lon="2.57298">
        <ele>749.007</ele>
        <time>2011-04-02T11:42:31Z</time>
      </trkpt>
      <trkpt lat="42.30017" lon="2.573">
        <ele>748.017</ele>
        <time>2011-04-02T11:42:32Z</time>
      </trkpt>
      <trkpt lat="42.30024" lon="2.57308">
        <ele>746.641</ele>
        <time>2011-04-02T11:42:36Z</time>
      </trkpt>
      <trkpt lat="42.3004" lon="2.57332">
        <ele>743.214</ele>
        <time>2011-04-02T11:42:46Z</time>
      </trkpt>
      <trkpt lat="42.30044" lon="2.57336">
        <ele>742.833</ele>
        <time>2011-04-02T11:42:48Z</time>
      </trkpt>
      <trkpt lat="42.30062" lon="2.57355">
        <ele>741.35</ele>
        <time>2011-04-02T11:43:00Z</time>
      </trkpt>
      <trkpt lat="42.30063" lon="2.57359">
        <ele>741.878</ele>
        <time>2011-04-02T11:43:19Z</time>
      </trkpt>
      <trkpt lat="42.30063" lon="2.57359">
        <ele>741.371</ele>
        <time>2011-04-02T11:43:38Z</time>
      </trkpt>
      <trkpt lat="42.30063" lon="2.57358">
        <ele>741.883</ele>
        <time>2011-04-02T11:43:41Z</time>
      </trkpt>
      <trkpt lat="42.30065" lon="2.57361">
        <ele>739.925</ele>
        <time>2011-04-02T11:43:44Z</time>
      </trkpt>
      <trkpt lat="42.30089" lon="2.57388">
        <ele>738.917</ele>
        <time>2011-04-02T11:43:57Z</time>
      </trkpt>
      <trkpt lat="42.30097" lon="2.57399">
        <ele>738.007</ele>
        <time>2011-04-02T11:44:02Z</time>
      </trkpt>
      <trkpt lat="42.30101" lon="2.57413">
        <ele>736.539</ele>
        <time>2011-04-02T11:44:07Z</time>
      </trkpt>
      <trkpt lat="42.30112" lon="2.57425">
        <ele>735.153</ele>
        <time>2011-04-02T11:44:13Z</time>
      </trkpt>
      <trkpt lat="42.30115" lon="2.5743">
        <ele>734.176</ele>
        <time>2011-04-02T11:44:15Z</time>
      </trkpt>
      <trkpt lat="42.30116" lon="2.57433">
        <ele>734.145</ele>
        <time>2011-04-02T11:44:16Z</time>
      </trkpt>
      <trkpt lat="42.30115" lon="2.5745">
        <ele>731.242</ele>
        <time>2011-04-02T11:44:25Z</time>
      </trkpt>
      <trkpt lat="42.30119" lon="2.5746">
        <ele>728.86</ele>
        <time>2011-04-02T11:44:34Z</time>
      </trkpt>
      <trkpt lat="42.30122" lon="2.57466">
        <ele>729.333</ele>
        <time>2011-04-02T11:44:52Z</time>
      </trkpt>
      <trkpt lat="42.30123" lon="2.57466">
        <ele>728.377</ele>
        <time>2011-04-02T11:45:13Z</time>
      </trkpt>
      <trkpt lat="42.30128" lon="2.57461">
        <ele>728.361</ele>
        <time>2011-04-02T11:45:20Z</time>
      </trkpt>
      <trkpt lat="42.30136" lon="2.57457">
        <ele>727.427</ele>
        <time>2011-04-02T11:45:27Z</time>
      </trkpt>
      <trkpt lat="42.30154" lon="2.57437">
        <ele>724.007</ele>
        <time>2011-04-02T11:45:39Z</time>
      </trkpt>
      <trkpt lat="42.3016" lon="2.57429">
        <ele>723.598</ele>
        <time>2011-04-02T11:45:43Z</time>
      </trkpt>
      <trkpt lat="42.30171" lon="2.57414">
        <ele>721.692</ele>
        <time>2011-04-02T11:45:52Z</time>
      </trkpt>
      <trkpt lat="42.30173" lon="2.57412">
        <ele>720.215</ele>
        <time>2011-04-02T11:45:55Z</time>
      </trkpt>
      <trkpt lat="42.30179" lon="2.57415">
        <ele>717.874</ele>
        <time>2011-04-02T11:46:01Z</time>
      </trkpt>
      <trkpt lat="42.30185" lon="2.57415">
        <ele>717.371</ele>
        <time>2011-04-02T11:46:04Z</time>
      </trkpt>
      <trkpt lat="42.30199" lon="2.57414">
        <ele>716.319</ele>
        <time>2011-04-02T11:46:11Z</time>
      </trkpt>
      <trkpt lat="42.30208" lon="2.57415">
        <ele>713.912</ele>
        <time>2011-04-02T11:46:16Z</time>
      </trkpt>
      <trkpt lat="42.30214" lon="2.57419">
        <ele>713.915</ele>
        <time>2011-04-02T11:46:19Z</time>
      </trkpt>
      <trkpt lat="42.30227" lon="2.57413">
        <ele>712.065</ele>
        <time>2011-04-02T11:46:26Z</time>
      </trkpt>
      <trkpt lat="42.30233" lon="2.57402">
        <ele>711.011</ele>
        <time>2011-04-02T11:46:30Z</time>
      </trkpt>
      <trkpt lat="42.30236" lon="2.57397">
        <ele>710.607</ele>
        <time>2011-04-02T11:46:32Z</time>
      </trkpt>
      <trkpt lat="42.30243" lon="2.57377">
        <ele>707.242</ele>
        <time>2011-04-02T11:46:39Z</time>
      </trkpt>
      <trkpt lat="42.30245" lon="2.57373">
        <ele>707.246</ele>
        <time>2011-04-02T11:46:41Z</time>
      </trkpt>
      <trkpt lat="42.30262" lon="2.57351">
        <ele>705.859</ele>
        <time>2011-04-02T11:46:52Z</time>
      </trkpt>
      <trkpt lat="42.30276" lon="2.57352">
        <ele>705.898</ele>
        <time>2011-04-02T11:47:01Z</time>
      </trkpt>
      <trkpt lat="42.30285" lon="2.57364">
        <ele>706.225</ele>
        <time>2011-04-02T11:47:07Z</time>
      </trkpt>
      <trkpt lat="42.30308" lon="2.57364">
        <ele>704.873</ele>
        <time>2011-04-02T11:47:17Z</time>
      </trkpt>
      <trkpt lat="42.30314" lon="2.57382">
        <ele>702.976</ele>
        <time>2011-04-02T11:47:25Z</time>
      </trkpt>
      <trkpt lat="42.30314" lon="2.57389">
        <ele>701.953</ele>
        <time>2011-04-02T11:47:28Z</time>
      </trkpt>
      <trkpt lat="42.30314" lon="2.57392">
        <ele>700.004</ele>
        <time>2011-04-02T11:47:30Z</time>
      </trkpt>
      <trkpt lat="42.30316" lon="2.57399">
        <ele>700.914</ele>
        <time>2011-04-02T11:47:35Z</time>
      </trkpt>
      <trkpt lat="42.30319" lon="2.57415">
        <ele>698.507</ele>
        <time>2011-04-02T11:47:42Z</time>
      </trkpt>
      <trkpt lat="42.30316" lon="2.57436">
        <ele>697.146</ele>
        <time>2011-04-02T11:47:49Z</time>
      </trkpt>
      <trkpt lat="42.30313" lon="2.5747">
        <ele>696.11</ele>
        <time>2011-04-02T11:48:00Z</time>
      </trkpt>
      <trkpt lat="42.30319" lon="2.5749">
        <ele>695.743</ele>
        <time>2011-04-02T11:48:07Z</time>
      </trkpt>
      <trkpt lat="42.30329" lon="2.57524">
        <ele>695.232</ele>
        <time>2011-04-02T11:48:18Z</time>
      </trkpt>
      <trkpt lat="42.3033" lon="2.57527">
        <ele>694.739</ele>
        <time>2011-04-02T11:48:19Z</time>
      </trkpt>
      <trkpt lat="42.3033" lon="2.57544">
        <ele>693.767</ele>
        <time>2011-04-02T11:48:26Z</time>
      </trkpt>
      <trkpt lat="42.3033" lon="2.57552">
        <ele>692.37</ele>
        <time>2011-04-02T11:48:31Z</time>
      </trkpt>
      <trkpt lat="42.30328" lon="2.57571">
        <ele>689.932</ele>
        <time>2011-04-02T11:48:41Z</time>
      </trkpt>
      <trkpt lat="42.30327" lon="2.57572">
        <ele>689.492</ele>
        <time>2011-04-02T11:48:42Z</time>
      </trkpt>
      <trkpt lat="42.30328" lon="2.57577">
        <ele>689.911</ele>
        <time>2011-04-02T11:48:46Z</time>
      </trkpt>
      <trkpt lat="42.3033" lon="2.57586">
        <ele>687.007</ele>
        <time>2011-04-02T11:48:51Z</time>
      </trkpt>
      <trkpt lat="42.30332" lon="2.57594">
        <ele>687.074</ele>
        <time>2011-04-02T11:48:55Z</time>
      </trkpt>
      <trkpt lat="42.30337" lon="2.57603">
        <ele>685.668</ele>
        <time>2011-04-02T11:49:00Z</time>
      </trkpt>
      <trkpt lat="42.30338" lon="2.57609">
        <ele>684.691</ele>
        <time>2011-04-02T11:49:02Z</time>
      </trkpt>
      <trkpt lat="42.30344" lon="2.57623">
        <ele>684.69</ele>
        <time>2011-04-02T11:49:13Z</time>
      </trkpt>
      <trkpt lat="42.30348" lon="2.57627">
        <ele>684.657</ele>
        <time>2011-04-02T11:49:22Z</time>
      </trkpt>
      <trkpt lat="42.30349" lon="2.5763">
        <ele>686.015</ele>
        <time>2011-04-02T11:49:25Z</time>
      </trkpt>
      <trkpt lat="42.30349" lon="2.57632">
        <ele>686.528</ele>
        <time>2011-04-02T11:49:26Z</time>
      </trkpt>
      <trkpt lat="42.30351" lon="2.57638">
        <ele>687.025</ele>
        <time>2011-04-02T11:49:30Z</time>
      </trkpt>
      <trkpt lat="42.30353" lon="2.57641">
        <ele>687.026</ele>
        <time>2011-04-02T11:49:32Z</time>
      </trkpt>
      <trkpt lat="42.30359" lon="2.57641">
        <ele>686.008</ele>
        <time>2011-04-02T11:49:40Z</time>
      </trkpt>
      <trkpt lat="42.30366" lon="2.57642">
        <ele>685.107</ele>
        <time>2011-04-02T11:49:44Z</time>
      </trkpt>
      <trkpt lat="42.30369" lon="2.57662">
        <ele>683.673</ele>
        <time>2011-04-02T11:49:52Z</time>
      </trkpt>
      <trkpt lat="42.30369" lon="2.57686">
        <ele>680.347</ele>
        <time>2011-04-02T11:50:02Z</time>
      </trkpt>
      <trkpt lat="42.30378" lon="2.5771">
        <ele>679.37</ele>
        <time>2011-04-02T11:50:10Z</time>
      </trkpt>
      <trkpt lat="42.30384" lon="2.57721">
        <ele>678.849</ele>
        <time>2011-04-02T11:50:17Z</time>
      </trkpt>
      <trkpt lat="42.30388" lon="2.5773">
        <ele>679.816</ele>
        <time>2011-04-02T11:50:23Z</time>
      </trkpt>
      <trkpt lat="42.30391" lon="2.5774">
        <ele>679.344</ele>
        <time>2011-04-02T11:50:28Z</time>
      </trkpt>
      <trkpt lat="42.30393" lon="2.57764">
        <ele>676.997</ele>
        <time>2011-04-02T11:50:41Z</time>
      </trkpt>
      <trkpt lat="42.30383" lon="2.57777">
        <ele>676.453</ele>
        <time>2011-04-02T11:50:52Z</time>
      </trkpt>
      <trkpt lat="42.30385" lon="2.57781">
        <ele>675.004</ele>
        <time>2011-04-02T11:51:17Z</time>
      </trkpt>
      <trkpt lat="42.30377" lon="2.57794">
        <ele>673.114</ele>
        <time>2011-04-02T11:51:26Z</time>
      </trkpt>
      <trkpt lat="42.30376" lon="2.57798">
        <ele>671.607</ele>
        <time>2011-04-02T11:51:29Z</time>
      </trkpt>
      <trkpt lat="42.30378" lon="2.57807">
        <ele>670.236</ele>
        <time>2011-04-02T11:51:33Z</time>
      </trkpt>
      <trkpt lat="42.30382" lon="2.57816">
        <ele>669.23</ele>
        <time>2011-04-02T11:51:36Z</time>
      </trkpt>
      <trkpt lat="42.30388" lon="2.57825">
        <ele>671.623</ele>
        <time>2011-04-02T11:51:45Z</time>
      </trkpt>
      <trkpt lat="42.30394" lon="2.57841">
        <ele>673.122</ele>
        <time>2011-04-02T11:51:59Z</time>
      </trkpt>
      <trkpt lat="42.30398" lon="2.57847">
        <ele>674.589</ele>
        <time>2011-04-02T11:52:05Z</time>
      </trkpt>
      <trkpt lat="42.30399" lon="2.57858">
        <ele>675.547</ele>
        <time>2011-04-02T11:52:11Z</time>
      </trkpt>
      <trkpt lat="42.30403" lon="2.57876">
        <ele>676.46</ele>
        <time>2011-04-02T11:52:21Z</time>
      </trkpt>
      <trkpt lat="42.30404" lon="2.57886">
        <ele>676.923</ele>
        <time>2011-04-02T11:52:26Z</time>
      </trkpt>
      <trkpt lat="42.30402" lon="2.57892">
        <ele>676.483</ele>
        <time>2011-04-02T11:52:30Z</time>
      </trkpt>
      <trkpt lat="42.30402" lon="2.57907">
        <ele>677.411</ele>
        <time>2011-04-02T11:52:38Z</time>
      </trkpt>
      <trkpt lat="42.30399" lon="2.57924">
        <ele>676.907</ele>
        <time>2011-04-02T11:52:46Z</time>
      </trkpt>
      <trkpt lat="42.30398" lon="2.57934">
        <ele>677.493</ele>
        <time>2011-04-02T11:52:51Z</time>
      </trkpt>
      <trkpt lat="42.30391" lon="2.57966">
        <ele>674.047</ele>
        <time>2011-04-02T11:53:03Z</time>
      </trkpt>
      <trkpt lat="42.30387" lon="2.57987">
        <ele>672.63</ele>
        <time>2011-04-02T11:53:12Z</time>
      </trkpt>
      <trkpt lat="42.30382" lon="2.58005">
        <ele>669.719</ele>
        <time>2011-04-02T11:53:25Z</time>
      </trkpt>
      <trkpt lat="42.30383" lon="2.58013">
        <ele>667.346</ele>
        <time>2011-04-02T11:53:30Z</time>
      </trkpt>
      <trkpt lat="42.30382" lon="2.58016">
        <ele>667.354</ele>
        <time>2011-04-02T11:53:32Z</time>
      </trkpt>
      <trkpt lat="42.30381" lon="2.58024">
        <ele>664.927</ele>
        <time>2011-04-02T11:53:37Z</time>
      </trkpt>
      <trkpt lat="42.3038" lon="2.58036">
        <ele>663.586</ele>
        <time>2011-04-02T11:53:43Z</time>
      </trkpt>
      <trkpt lat="42.30381" lon="2.58039">
        <ele>662.56</ele>
        <time>2011-04-02T11:53:45Z</time>
      </trkpt>
      <trkpt lat="42.30384" lon="2.5804">
        <ele>660.626</ele>
        <time>2011-04-02T11:53:49Z</time>
      </trkpt>
      <trkpt lat="42.30386" lon="2.58042">
        <ele>660.107</ele>
        <time>2011-04-02T11:53:52Z</time>
      </trkpt>
      <trkpt lat="42.30387" lon="2.58045">
        <ele>660.129</ele>
        <time>2011-04-02T11:53:54Z</time>
      </trkpt>
      <trkpt lat="42.30396" lon="2.58063">
        <ele>658.213</ele>
        <time>2011-04-02T11:54:03Z</time>
      </trkpt>
      <trkpt lat="42.30404" lon="2.58075">
        <ele>656.716</ele>
        <time>2011-04-02T11:54:09Z</time>
      </trkpt>
      <trkpt lat="42.30407" lon="2.58096">
        <ele>654.885</ele>
        <time>2011-04-02T11:54:20Z</time>
      </trkpt>
      <trkpt lat="42.30406" lon="2.58112">
        <ele>652.942</ele>
        <time>2011-04-02T11:54:29Z</time>
      </trkpt>
      <trkpt lat="42.30406" lon="2.58128">
        <ele>650.02</ele>
        <time>2011-04-02T11:54:37Z</time>
      </trkpt>
      <trkpt lat="42.30405" lon="2.58143">
        <ele>649.033</ele>
        <time>2011-04-02T11:54:45Z</time>
      </trkpt>
      <trkpt lat="42.30404" lon="2.58149">
        <ele>648.133</ele>
        <time>2011-04-02T11:54:48Z</time>
      </trkpt>
      <trkpt lat="42.30397" lon="2.58166">
        <ele>647.623</ele>
        <time>2011-04-02T11:54:58Z</time>
      </trkpt>
      <trkpt lat="42.30389" lon="2.58184">
        <ele>644.715</ele>
        <time>2011-04-02T11:55:08Z</time>
      </trkpt>
      <trkpt lat="42.30388" lon="2.58187">
        <ele>643.707</ele>
        <time>2011-04-02T11:55:09Z</time>
      </trkpt>
      <trkpt lat="42.30385" lon="2.58198">
        <ele>643.384</ele>
        <time>2011-04-02T11:55:14Z</time>
      </trkpt>
      <trkpt lat="42.30384" lon="2.58207">
        <ele>641.868</ele>
        <time>2011-04-02T11:55:19Z</time>
      </trkpt>
      <trkpt lat="42.30385" lon="2.58215">
        <ele>640.951</ele>
        <time>2011-04-02T11:55:24Z</time>
      </trkpt>
      <trkpt lat="42.30385" lon="2.58241">
        <ele>638.54</ele>
        <time>2011-04-02T11:55:38Z</time>
      </trkpt>
      <trkpt lat="42.30384" lon="2.58244">
        <ele>638.587</ele>
        <time>2011-04-02T11:55:40Z</time>
      </trkpt>
      <trkpt lat="42.30383" lon="2.58252">
        <ele>637.545</ele>
        <time>2011-04-02T11:55:45Z</time>
      </trkpt>
      <trkpt lat="42.30383" lon="2.58258">
        <ele>636.518</ele>
        <time>2011-04-02T11:55:48Z</time>
      </trkpt>
      <trkpt lat="42.30384" lon="2.58284">
        <ele>634.153</ele>
        <time>2011-04-02T11:55:59Z</time>
      </trkpt>
      <trkpt lat="42.30384" lon="2.58291">
        <ele>632.704</ele>
        <time>2011-04-02T11:56:03Z</time>
      </trkpt>
      <trkpt lat="42.30384" lon="2.58292">
        <ele>632.214</ele>
        <time>2011-04-02T11:56:04Z</time>
      </trkpt>
      <trkpt lat="42.30384" lon="2.58299">
        <ele>630.307</ele>
        <time>2011-04-02T11:56:08Z</time>
      </trkpt>
      <trkpt lat="42.30393" lon="2.58309">
        <ele>627.976</ele>
        <time>2011-04-02T11:56:16Z</time>
      </trkpt>
      <trkpt lat="42.30405" lon="2.58331">
        <ele>626.04</ele>
        <time>2011-04-02T11:56:27Z</time>
      </trkpt>
      <trkpt lat="42.30406" lon="2.58339">
        <ele>625.523</ele>
        <time>2011-04-02T11:56:31Z</time>
      </trkpt>
      <trkpt lat="42.3041" lon="2.58348">
        <ele>623.122</ele>
        <time>2011-04-02T11:56:37Z</time>
      </trkpt>
      <trkpt lat="42.30411" lon="2.58354">
        <ele>623.159</ele>
        <time>2011-04-02T11:56:40Z</time>
      </trkpt>
      <trkpt lat="42.30412" lon="2.58359">
        <ele>621.237</ele>
        <time>2011-04-02T11:56:43Z</time>
      </trkpt>
      <trkpt lat="42.30414" lon="2.58366">
        <ele>619.74</ele>
        <time>2011-04-02T11:56:48Z</time>
      </trkpt>
      <trkpt lat="42.30417" lon="2.58373">
        <ele>619.226</ele>
        <time>2011-04-02T11:56:53Z</time>
      </trkpt>
      <trkpt lat="42.30418" lon="2.58378">
        <ele>616.847</ele>
        <time>2011-04-02T11:56:56Z</time>
      </trkpt>
      <trkpt lat="42.30418" lon="2.58386">
        <ele>615.911</ele>
        <time>2011-04-02T11:57:01Z</time>
      </trkpt>
      <trkpt lat="42.3042" lon="2.58395">
        <ele>613.907</ele>
        <time>2011-04-02T11:57:06Z</time>
      </trkpt>
      <trkpt lat="42.30424" lon="2.58412">
        <ele>613.943</ele>
        <time>2011-04-02T11:57:12Z</time>
      </trkpt>
      <trkpt lat="42.30425" lon="2.58425">
        <ele>612.547</ele>
        <time>2011-04-02T11:57:17Z</time>
      </trkpt>
      <trkpt lat="42.30426" lon="2.5843">
        <ele>612.09</ele>
        <time>2011-04-02T11:57:19Z</time>
      </trkpt>
      <trkpt lat="42.30427" lon="2.58439">
        <ele>611.169</ele>
        <time>2011-04-02T11:57:25Z</time>
      </trkpt>
      <trkpt lat="42.30429" lon="2.58448">
        <ele>609.646</ele>
        <time>2011-04-02T11:57:31Z</time>
      </trkpt>
      <trkpt lat="42.30434" lon="2.58475">
        <ele>607.724</ele>
        <time>2011-04-02T11:57:43Z</time>
      </trkpt>
      <trkpt lat="42.30439" lon="2.58488">
        <ele>605.897</ele>
        <time>2011-04-02T11:57:51Z</time>
      </trkpt>
      <trkpt lat="42.30438" lon="2.58493">
        <ele>605.323</ele>
        <time>2011-04-02T11:57:54Z</time>
      </trkpt>
      <trkpt lat="42.30441" lon="2.58508">
        <ele>602.983</ele>
        <time>2011-04-02T11:58:03Z</time>
      </trkpt>
      <trkpt lat="42.30451" lon="2.58513">
        <ele>599.511</ele>
        <time>2011-04-02T11:58:15Z</time>
      </trkpt>
      <trkpt lat="42.30457" lon="2.58514">
        <ele>598.107</ele>
        <time>2011-04-02T11:58:22Z</time>
      </trkpt>
      <trkpt lat="42.30459" lon="2.58518">
        <ele>597.143</ele>
        <time>2011-04-02T11:58:26Z</time>
      </trkpt>
      <trkpt lat="42.3046" lon="2.58523">
        <ele>597.117</ele>
        <time>2011-04-02T11:58:29Z</time>
      </trkpt>
      <trkpt lat="42.30465" lon="2.58533">
        <ele>595.29</ele>
        <time>2011-04-02T11:58:33Z</time>
      </trkpt>
      <trkpt lat="42.30471" lon="2.58545">
        <ele>593.369</ele>
        <time>2011-04-02T11:58:39Z</time>
      </trkpt>
      <trkpt lat="42.30474" lon="2.58556">
        <ele>591.826</ele>
        <time>2011-04-02T11:58:46Z</time>
      </trkpt>
      <trkpt lat="42.30481" lon="2.58567">
        <ele>588.574</ele>
        <time>2011-04-02T11:58:52Z</time>
      </trkpt>
      <trkpt lat="42.30487" lon="2.58574">
        <ele>587.547</ele>
        <time>2011-04-02T11:58:57Z</time>
      </trkpt>
      <trkpt lat="42.30489" lon="2.58592">
        <ele>584.114</ele>
        <time>2011-04-02T11:59:07Z</time>
      </trkpt>
      <trkpt lat="42.30489" lon="2.58594">
        <ele>583.254</ele>
        <time>2011-04-02T11:59:08Z</time>
      </trkpt>
      <trkpt lat="42.30489" lon="2.58598">
        <ele>582.709</ele>
        <time>2011-04-02T11:59:10Z</time>
      </trkpt>
      <trkpt lat="42.30489" lon="2.58606">
        <ele>581.707</ele>
        <time>2011-04-02T11:59:14Z</time>
      </trkpt>
      <trkpt lat="42.3049" lon="2.58619">
        <ele>578.992</ele>
        <time>2011-04-02T11:59:21Z</time>
      </trkpt>
      <trkpt lat="42.30489" lon="2.58627">
        <ele>576.556</ele>
        <time>2011-04-02T11:59:25Z</time>
      </trkpt>
      <trkpt lat="42.30488" lon="2.58637">
        <ele>574.579</ele>
        <time>2011-04-02T11:59:30Z</time>
      </trkpt>
      <trkpt lat="42.30487" lon="2.58664">
        <ele>573.148</ele>
        <time>2011-04-02T11:59:41Z</time>
      </trkpt>
      <trkpt lat="42.30484" lon="2.58682">
        <ele>570.755</ele>
        <time>2011-04-02T11:59:49Z</time>
      </trkpt>
      <trkpt lat="42.30486" lon="2.58699">
        <ele>570.293</ele>
        <time>2011-04-02T11:59:55Z</time>
      </trkpt>
      <trkpt lat="42.30487" lon="2.58705">
        <ele>568.816</ele>
        <time>2011-04-02T11:59:58Z</time>
      </trkpt>
      <trkpt lat="42.30488" lon="2.5871">
        <ele>568.814</ele>
        <time>2011-04-02T12:00:01Z</time>
      </trkpt>
      <trkpt lat="42.3049" lon="2.58728">
        <ele>566.454</ele>
        <time>2011-04-02T12:00:14Z</time>
      </trkpt>
      <trkpt lat="42.30491" lon="2.58741">
        <ele>563.009</ele>
        <time>2011-04-02T12:00:22Z</time>
      </trkpt>
      <trkpt lat="42.30492" lon="2.58748">
        <ele>562.007</ele>
        <time>2011-04-02T12:00:26Z</time>
      </trkpt>
      <trkpt lat="42.30496" lon="2.58758">
        <ele>561.642</ele>
        <time>2011-04-02T12:00:33Z</time>
      </trkpt>
      <trkpt lat="42.30496" lon="2.58769">
        <ele>560.616</ele>
        <time>2011-04-02T12:00:39Z</time>
      </trkpt>
      <trkpt lat="42.30495" lon="2.58775">
        <ele>561.169</ele>
        <time>2011-04-02T12:00:42Z</time>
      </trkpt>
      <trkpt lat="42.30498" lon="2.5878">
        <ele>560.148</ele>
        <time>2011-04-02T12:00:46Z</time>
      </trkpt>
      <trkpt lat="42.30505" lon="2.58782">
        <ele>560.155</ele>
        <time>2011-04-02T12:00:53Z</time>
      </trkpt>
      <trkpt lat="42.30511" lon="2.58786">
        <ele>561.163</ele>
        <time>2011-04-02T12:01:00Z</time>
      </trkpt>
      <trkpt lat="42.30517" lon="2.58802">
        <ele>563.076</ele>
        <time>2011-04-02T12:01:11Z</time>
      </trkpt>
      <trkpt lat="42.3052" lon="2.5881">
        <ele>564.456</ele>
        <time>2011-04-02T12:01:18Z</time>
      </trkpt>
      <trkpt lat="42.30528" lon="2.58801">
        <ele>566.459</ele>
        <time>2011-04-02T12:01:30Z</time>
      </trkpt>
      <trkpt lat="42.30537" lon="2.58791">
        <ele>568.314</ele>
        <time>2011-04-02T12:01:41Z</time>
      </trkpt>
      <trkpt lat="42.30541" lon="2.58788">
        <ele>569.707</ele>
        <time>2011-04-02T12:01:47Z</time>
      </trkpt>
      <trkpt lat="42.30551" lon="2.58785">
        <ele>572.196</ele>
        <time>2011-04-02T12:02:00Z</time>
      </trkpt>
      <trkpt lat="42.30553" lon="2.58784">
        <ele>572.68</ele>
        <time>2011-04-02T12:02:03Z</time>
      </trkpt>
      <trkpt lat="42.30568" lon="2.58784">
        <ele>573.163</ele>
        <time>2011-04-02T12:02:14Z</time>
      </trkpt>
      <trkpt lat="42.30569" lon="2.58784">
        <ele>573.672</ele>
        <time>2011-04-02T12:02:15Z</time>
      </trkpt>
      <trkpt lat="42.30573" lon="2.58784">
        <ele>575.559</ele>
        <time>2011-04-02T12:02:19Z</time>
      </trkpt>
      <trkpt lat="42.30582" lon="2.58786">
        <ele>578.427</ele>
        <time>2011-04-02T12:02:29Z</time>
      </trkpt>
      <trkpt lat="42.30583" lon="2.58787">
        <ele>578.93</ele>
        <time>2011-04-02T12:02:32Z</time>
      </trkpt>
      <trkpt lat="42.30585" lon="2.58787">
        <ele>578.422</ele>
        <time>2011-04-02T12:02:35Z</time>
      </trkpt>
      <trkpt lat="42.30586" lon="2.58775">
        <ele>576.962</ele>
        <time>2011-04-02T12:02:45Z</time>
      </trkpt>
      <trkpt lat="42.30588" lon="2.58772">
        <ele>575.508</ele>
        <time>2011-04-02T12:02:48Z</time>
      </trkpt>
      <trkpt lat="42.30594" lon="2.58769">
        <ele>574.507</ele>
        <time>2011-04-02T12:02:52Z</time>
      </trkpt>
      <trkpt lat="42.30605" lon="2.58769">
        <ele>576.013</ele>
        <time>2011-04-02T12:02:59Z</time>
      </trkpt>
      <trkpt lat="42.30608" lon="2.58768">
        <ele>573.677</ele>
        <time>2011-04-02T12:03:01Z</time>
      </trkpt>
      <trkpt lat="42.30615" lon="2.58771">
        <ele>572.68</ele>
        <time>2011-04-02T12:03:06Z</time>
      </trkpt>
      <trkpt lat="42.30624" lon="2.58776">
        <ele>572.189</ele>
        <time>2011-04-02T12:03:11Z</time>
      </trkpt>
      <trkpt lat="42.30635" lon="2.58786">
        <ele>572.136</ele>
        <time>2011-04-02T12:03:18Z</time>
      </trkpt>
      <trkpt lat="42.3065" lon="2.58795">
        <ele>571.274</ele>
        <time>2011-04-02T12:03:28Z</time>
      </trkpt>
      <trkpt lat="42.30674" lon="2.5877">
        <ele>570.257</ele>
        <time>2011-04-02T12:03:43Z</time>
      </trkpt>
      <trkpt lat="42.30678" lon="2.58762">
        <ele>568.831</ele>
        <time>2011-04-02T12:03:46Z</time>
      </trkpt>
      <trkpt lat="42.30681" lon="2.58754">
        <ele>567.861</ele>
        <time>2011-04-02T12:03:49Z</time>
      </trkpt>
      <trkpt lat="42.30683" lon="2.58747">
        <ele>566.407</ele>
        <time>2011-04-02T12:03:52Z</time>
      </trkpt>
      <trkpt lat="42.30686" lon="2.5874">
        <ele>565.907</ele>
        <time>2011-04-02T12:03:55Z</time>
      </trkpt>
      <trkpt lat="42.3069" lon="2.58722">
        <ele>563.574</ele>
        <time>2011-04-02T12:04:01Z</time>
      </trkpt>
      <trkpt lat="42.30693" lon="2.58707">
        <ele>563.078</ele>
        <time>2011-04-02T12:04:06Z</time>
      </trkpt>
      <trkpt lat="42.30696" lon="2.58698">
        <ele>562.541</ele>
        <time>2011-04-02T12:04:09Z</time>
      </trkpt>
      <trkpt lat="42.30699" lon="2.58678">
        <ele>563.03</ele>
        <time>2011-04-02T12:04:17Z</time>
      </trkpt>
      <trkpt lat="42.30704" lon="2.58669">
        <ele>561.617</ele>
        <time>2011-04-02T12:04:23Z</time>
      </trkpt>
      <trkpt lat="42.3072" lon="2.58661">
        <ele>559.145</ele>
        <time>2011-04-02T12:04:30Z</time>
      </trkpt>
      <trkpt lat="42.30741" lon="2.58643">
        <ele>557.728</ele>
        <time>2011-04-02T12:04:40Z</time>
      </trkpt>
      <trkpt lat="42.30749" lon="2.58643">
        <ele>556.779</ele>
        <time>2011-04-02T12:04:44Z</time>
      </trkpt>
      <trkpt lat="42.30754" lon="2.58645">
        <ele>553.905</ele>
        <time>2011-04-02T12:04:47Z</time>
      </trkpt>
      <trkpt lat="42.30757" lon="2.58646">
        <ele>553.425</ele>
        <time>2011-04-02T12:04:49Z</time>
      </trkpt>
      <trkpt lat="42.30766" lon="2.5865">
        <ele>550.507</ele>
        <time>2011-04-02T12:04:53Z</time>
      </trkpt>
      <trkpt lat="42.30768" lon="2.58651">
        <ele>550.578</ele>
        <time>2011-04-02T12:04:54Z</time>
      </trkpt>
      <trkpt lat="42.30773" lon="2.58653">
        <ele>549.172</ele>
        <time>2011-04-02T12:04:57Z</time>
      </trkpt>
      <trkpt lat="42.30775" lon="2.58656">
        <ele>547.615</ele>
        <time>2011-04-02T12:05:00Z</time>
      </trkpt>
      <trkpt lat="42.3078" lon="2.58662">
        <ele>544.714</ele>
        <time>2011-04-02T12:05:06Z</time>
      </trkpt>
      <trkpt lat="42.30784" lon="2.58666">
        <ele>543.321</ele>
        <time>2011-04-02T12:05:09Z</time>
      </trkpt>
      <trkpt lat="42.30791" lon="2.58674">
        <ele>540.919</ele>
        <time>2011-04-02T12:05:14Z</time>
      </trkpt>
      <trkpt lat="42.30802" lon="2.58679">
        <ele>539.972</ele>
        <time>2011-04-02T12:05:20Z</time>
      </trkpt>
      <trkpt lat="42.3081" lon="2.58682">
        <ele>538.049</ele>
        <time>2011-04-02T12:05:25Z</time>
      </trkpt>
      <trkpt lat="42.30813" lon="2.58683">
        <ele>537.502</ele>
        <time>2011-04-02T12:05:28Z</time>
      </trkpt>
      <trkpt lat="42.30823" lon="2.58685">
        <ele>533.722</ele>
        <time>2011-04-02T12:05:39Z</time>
      </trkpt>
      <trkpt lat="42.30824" lon="2.58684">
        <ele>533.707</ele>
        <time>2011-04-02T12:05:40Z</time>
      </trkpt>
      <trkpt lat="42.30837" lon="2.58675">
        <ele>531.855</ele>
        <time>2011-04-02T12:05:52Z</time>
      </trkpt>
      <trkpt lat="42.30841" lon="2.58674">
        <ele>530.899</ele>
        <time>2011-04-02T12:05:56Z</time>
      </trkpt>
      <trkpt lat="42.30851" lon="2.5868">
        <ele>527.432</ele>
        <time>2011-04-02T12:06:05Z</time>
      </trkpt>
      <trkpt lat="42.30856" lon="2.58681">
        <ele>528.431</ele>
        <time>2011-04-02T12:06:08Z</time>
      </trkpt>
      <trkpt lat="42.30858" lon="2.58681">
        <ele>527.428</ele>
        <time>2011-04-02T12:06:10Z</time>
      </trkpt>
      <trkpt lat="42.30865" lon="2.58689">
        <ele>528.916</ele>
        <time>2011-04-02T12:06:19Z</time>
      </trkpt>
      <trkpt lat="42.30876" lon="2.58701">
        <ele>531.829</ele>
        <time>2011-04-02T12:06:32Z</time>
      </trkpt>
      <trkpt lat="42.30887" lon="2.58709">
        <ele>533.752</ele>
        <time>2011-04-02T12:06:43Z</time>
      </trkpt>
      <trkpt lat="42.30892" lon="2.58714">
        <ele>534.653</ele>
        <time>2011-04-02T12:06:48Z</time>
      </trkpt>
      <trkpt lat="42.30895" lon="2.58716">
        <ele>535.608</ele>
        <time>2011-04-02T12:06:51Z</time>
      </trkpt>
      <trkpt lat="42.30899" lon="2.58722">
        <ele>537.507</ele>
        <time>2011-04-02T12:06:58Z</time>
      </trkpt>
      <trkpt lat="42.3091" lon="2.58719">
        <ele>541.426</ele>
        <time>2011-04-02T12:07:09Z</time>
      </trkpt>
      <trkpt lat="42.3091" lon="2.58719">
        <ele>541.41</ele>
        <time>2011-04-02T12:07:10Z</time>
      </trkpt>
      <trkpt lat="42.30914" lon="2.58714">
        <ele>543.833</ele>
        <time>2011-04-02T12:07:23Z</time>
      </trkpt>
      <trkpt lat="42.30917" lon="2.58709">
        <ele>546.252</ele>
        <time>2011-04-02T12:07:28Z</time>
      </trkpt>
      <trkpt lat="42.30921" lon="2.58704">
        <ele>548.189</ele>
        <time>2011-04-02T12:07:35Z</time>
      </trkpt>
      <trkpt lat="42.3093" lon="2.58688">
        <ele>551.087</ele>
        <time>2011-04-02T12:07:49Z</time>
      </trkpt>
      <trkpt lat="42.30931" lon="2.58685">
        <ele>551.96</ele>
        <time>2011-04-02T12:07:51Z</time>
      </trkpt>
      <trkpt lat="42.30942" lon="2.58667">
        <ele>554.863</ele>
        <time>2011-04-02T12:08:06Z</time>
      </trkpt>
      <trkpt lat="42.30954" lon="2.58649">
        <ele>555.344</ele>
        <time>2011-04-02T12:08:21Z</time>
      </trkpt>
      <trkpt lat="42.30964" lon="2.58636">
        <ele>555.818</ele>
        <time>2011-04-02T12:08:33Z</time>
      </trkpt>
      <trkpt lat="42.3097" lon="2.58629">
        <ele>555.307</ele>
        <time>2011-04-02T12:08:38Z</time>
      </trkpt>
      <trkpt lat="42.30974" lon="2.58627">
        <ele>555.337</ele>
        <time>2011-04-02T12:08:42Z</time>
      </trkpt>
      <trkpt lat="42.30983" lon="2.58626">
        <ele>557.231</ele>
        <time>2011-04-02T12:08:49Z</time>
      </trkpt>
      <trkpt lat="42.31" lon="2.58627">
        <ele>560.114</ele>
        <time>2011-04-02T12:09:04Z</time>
      </trkpt>
      <trkpt lat="42.31008" lon="2.58626">
        <ele>561.673</ele>
        <time>2011-04-02T12:09:11Z</time>
      </trkpt>
      <trkpt lat="42.31014" lon="2.58631">
        <ele>562.52</ele>
        <time>2011-04-02T12:09:16Z</time>
      </trkpt>
      <trkpt lat="42.3102" lon="2.58634">
        <ele>561.618</ele>
        <time>2011-04-02T12:09:21Z</time>
      </trkpt>
      <trkpt lat="42.3103" lon="2.58633">
        <ele>560.691</ele>
        <time>2011-04-02T12:09:29Z</time>
      </trkpt>
      <trkpt lat="42.31035" lon="2.58628">
        <ele>561.619</ele>
        <time>2011-04-02T12:09:33Z</time>
      </trkpt>
      <trkpt lat="42.31051" lon="2.58627">
        <ele>561.609</ele>
        <time>2011-04-02T12:09:46Z</time>
      </trkpt>
      <trkpt lat="42.3106" lon="2.58627">
        <ele>564.419</ele>
        <time>2011-04-02T12:09:55Z</time>
      </trkpt>
      <trkpt lat="42.31077" lon="2.58633">
        <ele>564.907</ele>
        <time>2011-04-02T12:10:10Z</time>
      </trkpt>
      <trkpt lat="42.31078" lon="2.58633">
        <ele>564.432</ele>
        <time>2011-04-02T12:10:11Z</time>
      </trkpt>
      <trkpt lat="42.31083" lon="2.5863">
        <ele>562.076</ele>
        <time>2011-04-02T12:10:17Z</time>
      </trkpt>
      <trkpt lat="42.31089" lon="2.58623">
        <ele>560.199</ele>
        <time>2011-04-02T12:10:24Z</time>
      </trkpt>
      <trkpt lat="42.311" lon="2.58613">
        <ele>557.298</ele>
        <time>2011-04-02T12:10:34Z</time>
      </trkpt>
      <trkpt lat="42.31101" lon="2.58612">
        <ele>556.745</ele>
        <time>2011-04-02T12:10:36Z</time>
      </trkpt>
      <trkpt lat="42.31103" lon="2.58607">
        <ele>554.363</ele>
        <time>2011-04-02T12:10:40Z</time>
      </trkpt>
      <trkpt lat="42.31109" lon="2.58602">
        <ele>552.476</ele>
        <time>2011-04-02T12:10:44Z</time>
      </trkpt>
      <trkpt lat="42.31113" lon="2.58604">
        <ele>550.014</ele>
        <time>2011-04-02T12:10:50Z</time>
      </trkpt>
      <trkpt lat="42.31113" lon="2.58611">
        <ele>548.654</ele>
        <time>2011-04-02T12:10:55Z</time>
      </trkpt>
      <trkpt lat="42.31112" lon="2.58617">
        <ele>546.709</ele>
        <time>2011-04-02T12:10:59Z</time>
      </trkpt>
      <trkpt lat="42.31112" lon="2.58625">
        <ele>545.207</ele>
        <time>2011-04-02T12:11:03Z</time>
      </trkpt>
      <trkpt lat="42.31112" lon="2.58629">
        <ele>544.262</ele>
        <time>2011-04-02T12:11:05Z</time>
      </trkpt>
      <trkpt lat="42.31115" lon="2.58631">
        <ele>542.896</ele>
        <time>2011-04-02T12:11:09Z</time>
      </trkpt>
      <trkpt lat="42.31119" lon="2.58622">
        <ele>540.919</ele>
        <time>2011-04-02T12:11:13Z</time>
      </trkpt>
      <trkpt lat="42.31121" lon="2.58614">
        <ele>540.498</ele>
        <time>2011-04-02T12:11:16Z</time>
      </trkpt>
      <trkpt lat="42.31126" lon="2.586">
        <ele>541.445</ele>
        <time>2011-04-02T12:11:22Z</time>
      </trkpt>
      <trkpt lat="42.31141" lon="2.58581">
        <ele>540.963</ele>
        <time>2011-04-02T12:11:33Z</time>
      </trkpt>
      <trkpt lat="42.31149" lon="2.58572">
        <ele>540.956</ele>
        <time>2011-04-02T12:11:42Z</time>
      </trkpt>
      <trkpt lat="42.31164" lon="2.58558">
        <ele>540.436</ele>
        <time>2011-04-02T12:11:54Z</time>
      </trkpt>
      <trkpt lat="42.31179" lon="2.58541">
        <ele>541.817</ele>
        <time>2011-04-02T12:12:07Z</time>
      </trkpt>
      <trkpt lat="42.31183" lon="2.58533">
        <ele>541.418</ele>
        <time>2011-04-02T12:12:10Z</time>
      </trkpt>
      <trkpt lat="42.3119" lon="2.58521">
        <ele>539.407</ele>
        <time>2011-04-02T12:12:15Z</time>
      </trkpt>
      <trkpt lat="42.31205" lon="2.585">
        <ele>536.694</ele>
        <time>2011-04-02T12:12:25Z</time>
      </trkpt>
      <trkpt lat="42.3121" lon="2.58503">
        <ele>536.118</ele>
        <time>2011-04-02T12:12:30Z</time>
      </trkpt>
      <trkpt lat="42.31212" lon="2.58503">
        <ele>535.651</ele>
        <time>2011-04-02T12:12:32Z</time>
      </trkpt>
      <trkpt lat="42.3122" lon="2.58505">
        <ele>534.24</ele>
        <time>2011-04-02T12:12:36Z</time>
      </trkpt>
      <trkpt lat="42.31231" lon="2.58506">
        <ele>532.257</ele>
        <time>2011-04-02T12:12:43Z</time>
      </trkpt>
      <trkpt lat="42.31234" lon="2.58506">
        <ele>531.315</ele>
        <time>2011-04-02T12:12:45Z</time>
      </trkpt>
      <trkpt lat="42.31237" lon="2.58508">
        <ele>529.388</ele>
        <time>2011-04-02T12:12:48Z</time>
      </trkpt>
      <trkpt lat="42.31246" lon="2.58512">
        <ele>527.475</ele>
        <time>2011-04-02T12:12:54Z</time>
      </trkpt>
      <trkpt lat="42.3125" lon="2.58512">
        <ele>526.028</ele>
        <time>2011-04-02T12:12:56Z</time>
      </trkpt>
      <trkpt lat="42.31252" lon="2.58512">
        <ele>526.52</ele>
        <time>2011-04-02T12:12:57Z</time>
      </trkpt>
      <trkpt lat="42.31255" lon="2.58512">
        <ele>525.007</ele>
        <time>2011-04-02T12:12:59Z</time>
      </trkpt>
      <trkpt lat="42.31261" lon="2.58514">
        <ele>523.658</ele>
        <time>2011-04-02T12:13:03Z</time>
      </trkpt>
      <trkpt lat="42.31272" lon="2.58514">
        <ele>523.192</ele>
        <time>2011-04-02T12:13:09Z</time>
      </trkpt>
      <trkpt lat="42.31294" lon="2.585">
        <ele>523.185</ele>
        <time>2011-04-02T12:13:20Z</time>
      </trkpt>
      <trkpt lat="42.31316" lon="2.58492">
        <ele>522.694</ele>
        <time>2011-04-02T12:13:31Z</time>
      </trkpt>
      <trkpt lat="42.31318" lon="2.58491">
        <ele>522.641</ele>
        <time>2011-04-02T12:13:32Z</time>
      </trkpt>
      <trkpt lat="42.31325" lon="2.58492">
        <ele>520.799</ele>
        <time>2011-04-02T12:13:36Z</time>
      </trkpt>
      <trkpt lat="42.31337" lon="2.58485">
        <ele>523.122</ele>
        <time>2011-04-02T12:13:46Z</time>
      </trkpt>
      <trkpt lat="42.31342" lon="2.58482">
        <ele>522.633</ele>
        <time>2011-04-02T12:13:51Z</time>
      </trkpt>
      <trkpt lat="42.31347" lon="2.5848">
        <ele>523.123</ele>
        <time>2011-04-02T12:13:55Z</time>
      </trkpt>
      <trkpt lat="42.31363" lon="2.58482">
        <ele>522.615</ele>
        <time>2011-04-02T12:14:07Z</time>
      </trkpt>
      <trkpt lat="42.31384" lon="2.58499">
        <ele>523.607</ele>
        <time>2011-04-02T12:14:19Z</time>
      </trkpt>
      <trkpt lat="42.31395" lon="2.5851">
        <ele>523.154</ele>
        <time>2011-04-02T12:14:25Z</time>
      </trkpt>
      <trkpt lat="42.31403" lon="2.58532">
        <ele>522.168</ele>
        <time>2011-04-02T12:14:32Z</time>
      </trkpt>
      <trkpt lat="42.31408" lon="2.58538">
        <ele>520.731</ele>
        <time>2011-04-02T12:14:37Z</time>
      </trkpt>
      <trkpt lat="42.31411" lon="2.58553">
        <ele>518.33</ele>
        <time>2011-04-02T12:14:48Z</time>
      </trkpt>
      <trkpt lat="42.31409" lon="2.58555">
        <ele>517.847</ele>
        <time>2011-04-02T12:14:50Z</time>
      </trkpt>
      <trkpt lat="42.31406" lon="2.58568">
        <ele>513.535</ele>
        <time>2011-04-02T12:15:03Z</time>
      </trkpt>
      <trkpt lat="42.31407" lon="2.58569">
        <ele>514.088</ele>
        <time>2011-04-02T12:15:04Z</time>
      </trkpt>
      <trkpt lat="42.31409" lon="2.58569">
        <ele>513.531</ele>
        <time>2011-04-02T12:15:06Z</time>
      </trkpt>
      <trkpt lat="42.31413" lon="2.58568">
        <ele>511.161</ele>
        <time>2011-04-02T12:15:11Z</time>
      </trkpt>
      <trkpt lat="42.31417" lon="2.58567">
        <ele>508.207</ele>
        <time>2011-04-02T12:15:23Z</time>
      </trkpt>
      <trkpt lat="42.31419" lon="2.58566">
        <ele>507.207</ele>
        <time>2011-04-02T12:15:25Z</time>
      </trkpt>
      <trkpt lat="42.31424" lon="2.58566">
        <ele>504.424</ele>
        <time>2011-04-02T12:15:31Z</time>
      </trkpt>
      <trkpt lat="42.31431" lon="2.58567">
        <ele>503.948</ele>
        <time>2011-04-02T12:15:35Z</time>
      </trkpt>
      <trkpt lat="42.31443" lon="2.58563">
        <ele>504.411</ele>
        <time>2011-04-02T12:15:43Z</time>
      </trkpt>
      <trkpt lat="42.31453" lon="2.58565">
        <ele>504.87</ele>
        <time>2011-04-02T12:15:51Z</time>
      </trkpt>
      <trkpt lat="42.31468" lon="2.58569">
        <ele>502.967</ele>
        <time>2011-04-02T12:15:58Z</time>
      </trkpt>
      <trkpt lat="42.31472" lon="2.5857">
        <ele>501.525</ele>
        <time>2011-04-02T12:16:00Z</time>
      </trkpt>
      <trkpt lat="42.31496" lon="2.58575">
        <ele>501.068</ele>
        <time>2011-04-02T12:16:13Z</time>
      </trkpt>
      <trkpt lat="42.31497" lon="2.58576">
        <ele>500.059</ele>
        <time>2011-04-02T12:16:14Z</time>
      </trkpt>
      <trkpt lat="42.31512" lon="2.58585">
        <ele>498.103</ele>
        <time>2011-04-02T12:16:24Z</time>
      </trkpt>
      <trkpt lat="42.31527" lon="2.58599">
        <ele>496.223</ele>
        <time>2011-04-02T12:16:34Z</time>
      </trkpt>
      <trkpt lat="42.31536" lon="2.58609">
        <ele>494.707</ele>
        <time>2011-04-02T12:16:40Z</time>
      </trkpt>
      <trkpt lat="42.31557" lon="2.58623">
        <ele>492.886</ele>
        <time>2011-04-02T12:16:50Z</time>
      </trkpt>
      <trkpt lat="42.31569" lon="2.58635">
        <ele>491.91</ele>
        <time>2011-04-02T12:16:56Z</time>
      </trkpt>
      <trkpt lat="42.31581" lon="2.5865">
        <ele>489.553</ele>
        <time>2011-04-02T12:17:04Z</time>
      </trkpt>
      <trkpt lat="42.31585" lon="2.58666">
        <ele>489.032</ele>
        <time>2011-04-02T12:17:10Z</time>
      </trkpt>
      <trkpt lat="42.31586" lon="2.58673">
        <ele>487.129</ele>
        <time>2011-04-02T12:17:14Z</time>
      </trkpt>
      <trkpt lat="42.31588" lon="2.58693">
        <ele>485.657</ele>
        <time>2011-04-02T12:17:26Z</time>
      </trkpt>
      <trkpt lat="42.31592" lon="2.58698">
        <ele>483.74</ele>
        <time>2011-04-02T12:17:31Z</time>
      </trkpt>
      <trkpt lat="42.31595" lon="2.58704">
        <ele>482.269</ele>
        <time>2011-04-02T12:17:34Z</time>
      </trkpt>
      <trkpt lat="42.31603" lon="2.5872">
        <ele>479.404</ele>
        <time>2011-04-02T12:17:44Z</time>
      </trkpt>
      <trkpt lat="42.31616" lon="2.58734">
        <ele>477.424</ele>
        <time>2011-04-02T12:17:55Z</time>
      </trkpt>
      <trkpt lat="42.3163" lon="2.58733">
        <ele>475.007</ele>
        <time>2011-04-02T12:18:04Z</time>
      </trkpt>
      <trkpt lat="42.31633" lon="2.58732">
        <ele>473.647</ele>
        <time>2011-04-02T12:18:06Z</time>
      </trkpt>
      <trkpt lat="42.31644" lon="2.58727">
        <ele>471.271</ele>
        <time>2011-04-02T12:18:17Z</time>
      </trkpt>
      <trkpt lat="42.31648" lon="2.58722">
        <ele>468.854</ele>
        <time>2011-04-02T12:18:25Z</time>
      </trkpt>
      <trkpt lat="42.31649" lon="2.58715">
        <ele>467.383</ele>
        <time>2011-04-02T12:18:30Z</time>
      </trkpt>
      <trkpt lat="42.31648" lon="2.58713">
        <ele>466.92</ele>
        <time>2011-04-02T12:18:32Z</time>
      </trkpt>
      <trkpt lat="42.31649" lon="2.58707">
        <ele>465.938</ele>
        <time>2011-04-02T12:18:36Z</time>
      </trkpt>
      <trkpt lat="42.31647" lon="2.587">
        <ele>465.471</ele>
        <time>2011-04-02T12:18:41Z</time>
      </trkpt>
      <trkpt lat="42.31652" lon="2.58696">
        <ele>464.977</ele>
        <time>2011-04-02T12:18:48Z</time>
      </trkpt>
      <trkpt lat="42.31665" lon="2.58695">
        <ele>464.561</ele>
        <time>2011-04-02T12:19:02Z</time>
      </trkpt>
      <trkpt lat="42.31676" lon="2.58703">
        <ele>462.527</ele>
        <time>2011-04-02T12:19:11Z</time>
      </trkpt>
      <trkpt lat="42.31682" lon="2.58717">
        <ele>462.107</ele>
        <time>2011-04-02T12:19:24Z</time>
      </trkpt>
      <trkpt lat="42.31686" lon="2.58718">
        <ele>462.578</ele>
        <time>2011-04-02T12:19:39Z</time>
      </trkpt>
      <trkpt lat="42.31692" lon="2.58725">
        <ele>462.522</ele>
        <time>2011-04-02T12:20:25Z</time>
      </trkpt>
      <trkpt lat="42.31691" lon="2.58727">
        <ele>461.165</ele>
        <time>2011-04-02T12:20:30Z</time>
      </trkpt>
      <trkpt lat="42.31686" lon="2.58719">
        <ele>462.184</ele>
        <time>2011-04-02T12:20:58Z</time>
      </trkpt>
      <trkpt lat="42.31689" lon="2.58721">
        <ele>461.671</ele>
        <time>2011-04-02T12:21:44Z</time>
      </trkpt>
      <trkpt lat="42.31686" lon="2.58718">
        <ele>462.169</ele>
        <time>2011-04-02T12:22:44Z</time>
      </trkpt>
      <trkpt lat="42.31688" lon="2.58722">
        <ele>462.522</ele>
        <time>2011-04-02T12:28:37Z</time>
      </trkpt>
      <trkpt lat="42.31686" lon="2.58722">
        <ele>463.531</ele>
        <time>2011-04-02T12:29:26Z</time>
      </trkpt>
      <trkpt lat="42.31693" lon="2.58725">
        <ele>464.061</ele>
        <time>2011-04-02T12:29:55Z</time>
      </trkpt>
      <trkpt lat="42.31703" lon="2.58733">
        <ele>463.007</ele>
        <time>2011-04-02T12:30:39Z</time>
      </trkpt>
      <trkpt lat="42.31698" lon="2.58731">
        <ele>464.007</ele>
        <time>2011-04-02T12:31:15Z</time>
      </trkpt>
      <trkpt lat="42.31704" lon="2.58718">
        <ele>464.064</ele>
        <time>2011-04-02T12:31:48Z</time>
      </trkpt>
      <trkpt lat="42.31698" lon="2.58717">
        <ele>464.048</ele>
        <time>2011-04-02T12:32:15Z</time>
      </trkpt>
      <trkpt lat="42.317" lon="2.58722">
        <ele>464.011</ele>
        <time>2011-04-02T12:32:30Z</time>
      </trkpt>
      <trkpt lat="42.31696" lon="2.58729">
        <ele>464.54</ele>
        <time>2011-04-02T12:33:08Z</time>
      </trkpt>
      <trkpt lat="42.31682" lon="2.58732">
        <ele>464.967</ele>
        <time>2011-04-02T12:33:22Z</time>
      </trkpt>
      <trkpt lat="42.31687" lon="2.58734">
        <ele>464.535</ele>
        <time>2011-04-02T12:33:53Z</time>
      </trkpt>
      <trkpt lat="42.31686" lon="2.58743">
        <ele>464.038</ele>
        <time>2011-04-02T12:34:17Z</time>
      </trkpt>
      <trkpt lat="42.31688" lon="2.58744">
        <ele>464.981</ele>
        <time>2011-04-02T12:34:59Z</time>
      </trkpt>
      <trkpt lat="42.3169" lon="2.58743">
        <ele>464.561</ele>
        <time>2011-04-02T12:35:03Z</time>
      </trkpt>
      <trkpt lat="42.31694" lon="2.58743">
        <ele>464.917</ele>
        <time>2011-04-02T12:35:06Z</time>
      </trkpt>
      <trkpt lat="42.31693" lon="2.58754">
        <ele>463.007</ele>
        <time>2011-04-02T12:35:17Z</time>
      </trkpt>
      <trkpt lat="42.31694" lon="2.58757">
        <ele>462.519</ele>
        <time>2011-04-02T12:35:19Z</time>
      </trkpt>
      <trkpt lat="42.31695" lon="2.5876">
        <ele>463.073</ele>
        <time>2011-04-02T12:35:21Z</time>
      </trkpt>
      <trkpt lat="42.31697" lon="2.58764">
        <ele>461.626</ele>
        <time>2011-04-02T12:35:23Z</time>
      </trkpt>
      <trkpt lat="42.317" lon="2.58776">
        <ele>460.675</ele>
        <time>2011-04-02T12:35:35Z</time>
      </trkpt>
      <trkpt lat="42.31702" lon="2.58783">
        <ele>459.772</ele>
        <time>2011-04-02T12:35:44Z</time>
      </trkpt>
      <trkpt lat="42.31709" lon="2.58785">
        <ele>458.76</ele>
        <time>2011-04-02T12:35:50Z</time>
      </trkpt>
      <trkpt lat="42.31722" lon="2.58782">
        <ele>456.843</ele>
        <time>2011-04-02T12:36:00Z</time>
      </trkpt>
      <trkpt lat="42.31724" lon="2.58786">
        <ele>456.339</ele>
        <time>2011-04-02T12:36:05Z</time>
      </trkpt>
      <trkpt lat="42.31725" lon="2.58792">
        <ele>456.301</ele>
        <time>2011-04-02T12:36:09Z</time>
      </trkpt>
      <trkpt lat="42.31734" lon="2.58804">
        <ele>456.321</ele>
        <time>2011-04-02T12:36:19Z</time>
      </trkpt>
      <trkpt lat="42.31736" lon="2.58808">
        <ele>454.807</ele>
        <time>2011-04-02T12:36:22Z</time>
      </trkpt>
      <trkpt lat="42.31732" lon="2.58819">
        <ele>458.254</ele>
        <time>2011-04-02T12:36:31Z</time>
      </trkpt>
      <trkpt lat="42.31729" lon="2.5883">
        <ele>458.788</ele>
        <time>2011-04-02T12:36:39Z</time>
      </trkpt>
      <trkpt lat="42.31709" lon="2.58845">
        <ele>460.691</ele>
        <time>2011-04-02T12:36:59Z</time>
      </trkpt>
      <trkpt lat="42.317" lon="2.58855">
        <ele>464.58</ele>
        <time>2011-04-02T12:37:13Z</time>
      </trkpt>
      <trkpt lat="42.31695" lon="2.58865">
        <ele>467.327</ele>
        <time>2011-04-02T12:37:26Z</time>
      </trkpt>
      <trkpt lat="42.31674" lon="2.58874">
        <ele>464.515</ele>
        <time>2011-04-02T12:37:38Z</time>
      </trkpt>
      <trkpt lat="42.31658" lon="2.58881">
        <ele>463.548</ele>
        <time>2011-04-02T12:37:46Z</time>
      </trkpt>
      <trkpt lat="42.31655" lon="2.58883">
        <ele>463.511</ele>
        <time>2011-04-02T12:37:48Z</time>
      </trkpt>
      <trkpt lat="42.31646" lon="2.58887">
        <ele>462.521</ele>
        <time>2011-04-02T12:37:53Z</time>
      </trkpt>
      <trkpt lat="42.31639" lon="2.58893">
        <ele>463.003</ele>
        <time>2011-04-02T12:37:57Z</time>
      </trkpt>
      <trkpt lat="42.31601" lon="2.58891">
        <ele>460.607</ele>
        <time>2011-04-02T12:38:09Z</time>
      </trkpt>
      <trkpt lat="42.31594" lon="2.58889">
        <ele>459.282</ele>
        <time>2011-04-02T12:38:12Z</time>
      </trkpt>
      <trkpt lat="42.31574" lon="2.58874">
        <ele>456.846</ele>
        <time>2011-04-02T12:38:21Z</time>
      </trkpt>
      <trkpt lat="42.31552" lon="2.58856">
        <ele>455.869</ele>
        <time>2011-04-02T12:38:31Z</time>
      </trkpt>
      <trkpt lat="42.31536" lon="2.58851">
        <ele>453.978</ele>
        <time>2011-04-02T12:38:39Z</time>
      </trkpt>
      <trkpt lat="42.31528" lon="2.58844">
        <ele>454.455</ele>
        <time>2011-04-02T12:38:45Z</time>
      </trkpt>
      <trkpt lat="42.31524" lon="2.5884">
        <ele>454.483</ele>
        <time>2011-04-02T12:38:48Z</time>
      </trkpt>
      <trkpt lat="42.31503" lon="2.58819">
        <ele>453.456</ele>
        <time>2011-04-02T12:38:59Z</time>
      </trkpt>
      <trkpt lat="42.31486" lon="2.58813">
        <ele>453.473</ele>
        <time>2011-04-02T12:39:07Z</time>
      </trkpt>
      <trkpt lat="42.31475" lon="2.58806">
        <ele>452.985</ele>
        <time>2011-04-02T12:39:19Z</time>
      </trkpt>
      <trkpt lat="42.31473" lon="2.58806">
        <ele>452.013</ele>
        <time>2011-04-02T12:39:21Z</time>
      </trkpt>
      <trkpt lat="42.31466" lon="2.58813">
        <ele>450.007</ele>
        <time>2011-04-02T12:39:28Z</time>
      </trkpt>
      <trkpt lat="42.31459" lon="2.58823">
        <ele>450.038</ele>
        <time>2011-04-02T12:39:37Z</time>
      </trkpt>
      <trkpt lat="42.3146" lon="2.58831">
        <ele>449.652</ele>
        <time>2011-04-02T12:39:42Z</time>
      </trkpt>
      <trkpt lat="42.31464" lon="2.58836">
        <ele>451.555</ele>
        <time>2011-04-02T12:39:46Z</time>
      </trkpt>
      <trkpt lat="42.31466" lon="2.58839">
        <ele>450.524</ele>
        <time>2011-04-02T12:39:49Z</time>
      </trkpt>
      <trkpt lat="42.3147" lon="2.58859">
        <ele>451.511</ele>
        <time>2011-04-02T12:40:03Z</time>
      </trkpt>
      <trkpt lat="42.31471" lon="2.58872">
        <ele>451.019</ele>
        <time>2011-04-02T12:40:09Z</time>
      </trkpt>
      <trkpt lat="42.3147" lon="2.58878">
        <ele>450.012</ele>
        <time>2011-04-02T12:40:11Z</time>
      </trkpt>
      <trkpt lat="42.31469" lon="2.5889">
        <ele>449.622</ele>
        <time>2011-04-02T12:40:15Z</time>
      </trkpt>
      <trkpt lat="42.31458" lon="2.58922">
        <ele>448.662</ele>
        <time>2011-04-02T12:40:27Z</time>
      </trkpt>
      <trkpt lat="42.31454" lon="2.58933">
        <ele>448.608</ele>
        <time>2011-04-02T12:40:31Z</time>
      </trkpt>
      <trkpt lat="42.3145" lon="2.58946">
        <ele>449.107</ele>
        <time>2011-04-02T12:40:39Z</time>
      </trkpt>
      <trkpt lat="42.31448" lon="2.58957">
        <ele>451.043</ele>
        <time>2011-04-02T12:40:49Z</time>
      </trkpt>
      <trkpt lat="42.31446" lon="2.58971">
        <ele>452.917</ele>
        <time>2011-04-02T12:40:58Z</time>
      </trkpt>
      <trkpt lat="42.31436" lon="2.58991">
        <ele>453.44</ele>
        <time>2011-04-02T12:41:11Z</time>
      </trkpt>
      <trkpt lat="42.31431" lon="2.58996">
        <ele>453.439</ele>
        <time>2011-04-02T12:41:16Z</time>
      </trkpt>
      <trkpt lat="42.31426" lon="2.59003">
        <ele>454.466</ele>
        <time>2011-04-02T12:41:22Z</time>
      </trkpt>
      <trkpt lat="42.3142" lon="2.59007">
        <ele>454.854</ele>
        <time>2011-04-02T12:41:27Z</time>
      </trkpt>
      <trkpt lat="42.31413" lon="2.59017">
        <ele>453.997</ele>
        <time>2011-04-02T12:41:35Z</time>
      </trkpt>
      <trkpt lat="42.31407" lon="2.5902">
        <ele>453.427</ele>
        <time>2011-04-02T12:41:39Z</time>
      </trkpt>
      <trkpt lat="42.31403" lon="2.59024">
        <ele>452.968</ele>
        <time>2011-04-02T12:41:41Z</time>
      </trkpt>
      <trkpt lat="42.31393" lon="2.59036">
        <ele>451.014</ele>
        <time>2011-04-02T12:41:49Z</time>
      </trkpt>
      <trkpt lat="42.31367" lon="2.59037">
        <ele>449.607</ele>
        <time>2011-04-02T12:41:59Z</time>
      </trkpt>
      <trkpt lat="42.31362" lon="2.59039">
        <ele>448.613</ele>
        <time>2011-04-02T12:42:03Z</time>
      </trkpt>
      <trkpt lat="42.31355" lon="2.59045">
        <ele>445.797</ele>
        <time>2011-04-02T12:42:12Z</time>
      </trkpt>
      <trkpt lat="42.31346" lon="2.59041">
        <ele>442.38</ele>
        <time>2011-04-02T12:42:20Z</time>
      </trkpt>
      <trkpt lat="42.31333" lon="2.59035">
        <ele>439.969</ele>
        <time>2011-04-02T12:42:27Z</time>
      </trkpt>
      <trkpt lat="42.31327" lon="2.59029">
        <ele>439.096</ele>
        <time>2011-04-02T12:42:32Z</time>
      </trkpt>
      <trkpt lat="42.31318" lon="2.59018">
        <ele>436.164</ele>
        <time>2011-04-02T12:42:44Z</time>
      </trkpt>
      <trkpt lat="42.31321" lon="2.59021">
        <ele>434.757</ele>
        <time>2011-04-02T12:42:47Z</time>
      </trkpt>
      <trkpt lat="42.31326" lon="2.59032">
        <ele>433.264</ele>
        <time>2011-04-02T12:42:54Z</time>
      </trkpt>
      <trkpt lat="42.31329" lon="2.59058">
        <ele>430.806</ele>
        <time>2011-04-02T12:43:04Z</time>
      </trkpt>
      <trkpt lat="42.31331" lon="2.59083">
        <ele>430.816</ele>
        <time>2011-04-02T12:43:13Z</time>
      </trkpt>
      <trkpt lat="42.3133" lon="2.5909">
        <ele>431.307</ele>
        <time>2011-04-02T12:43:18Z</time>
      </trkpt>
      <trkpt lat="42.31329" lon="2.59092">
        <ele>431.367</ele>
        <time>2011-04-02T12:43:20Z</time>
      </trkpt>
      <trkpt lat="42.31327" lon="2.59098">
        <ele>430.831</ele>
        <time>2011-04-02T12:43:25Z</time>
      </trkpt>
      <trkpt lat="42.31319" lon="2.59106">
        <ele>429.934</ele>
        <time>2011-04-02T12:43:40Z</time>
      </trkpt>
      <trkpt lat="42.31315" lon="2.59109">
        <ele>428.943</ele>
        <time>2011-04-02T12:43:44Z</time>
      </trkpt>
      <trkpt lat="42.31313" lon="2.59111">
        <ele>429.98</ele>
        <time>2011-04-02T12:44:04Z</time>
      </trkpt>
      <trkpt lat="42.31305" lon="2.59108">
        <ele>432.338</ele>
        <time>2011-04-02T12:44:20Z</time>
      </trkpt>
      <trkpt lat="42.31304" lon="2.59109">
        <ele>432.351</ele>
        <time>2011-04-02T12:44:24Z</time>
      </trkpt>
      <trkpt lat="42.31302" lon="2.5913">
        <ele>435.165</ele>
        <time>2011-04-02T12:44:42Z</time>
      </trkpt>
      <trkpt lat="42.31302" lon="2.59132">
        <ele>435.668</ele>
        <time>2011-04-02T12:44:44Z</time>
      </trkpt>
      <trkpt lat="42.31303" lon="2.59148">
        <ele>437.514</ele>
        <time>2011-04-02T12:44:57Z</time>
      </trkpt>
      <trkpt lat="42.31302" lon="2.5916">
        <ele>440.407</ele>
        <time>2011-04-02T12:45:09Z</time>
      </trkpt>
      <trkpt lat="42.313" lon="2.59166">
        <ele>440.477</ele>
        <time>2011-04-02T12:45:13Z</time>
      </trkpt>
      <trkpt lat="42.31297" lon="2.59175">
        <ele>440.941</ele>
        <time>2011-04-02T12:45:18Z</time>
      </trkpt>
      <trkpt lat="42.31295" lon="2.59197">
        <ele>442.884</ele>
        <time>2011-04-02T12:45:31Z</time>
      </trkpt>
      <trkpt lat="42.31294" lon="2.59201">
        <ele>443.353</ele>
        <time>2011-04-02T12:45:35Z</time>
      </trkpt>
      <trkpt lat="42.31296" lon="2.59217">
        <ele>445.75</ele>
        <time>2011-04-02T12:45:48Z</time>
      </trkpt>
      <trkpt lat="42.313" lon="2.59224">
        <ele>446.298</ele>
        <time>2011-04-02T12:45:53Z</time>
      </trkpt>
      <trkpt lat="42.31303" lon="2.59236">
        <ele>448.171</ele>
        <time>2011-04-02T12:46:02Z</time>
      </trkpt>
      <trkpt lat="42.31303" lon="2.59238">
        <ele>448.193</ele>
        <time>2011-04-02T12:46:04Z</time>
      </trkpt>
      <trkpt lat="42.31301" lon="2.59251">
        <ele>449.665</ele>
        <time>2011-04-02T12:46:13Z</time>
      </trkpt>
      <trkpt lat="42.31308" lon="2.59262">
        <ele>451.021</ele>
        <time>2011-04-02T12:46:21Z</time>
      </trkpt>
      <trkpt lat="42.31311" lon="2.59274">
        <ele>452.407</ele>
        <time>2011-04-02T12:46:33Z</time>
      </trkpt>
      <trkpt lat="42.31314" lon="2.5928">
        <ele>452.93</ele>
        <time>2011-04-02T12:46:36Z</time>
      </trkpt>
      <trkpt lat="42.31313" lon="2.59286">
        <ele>454.464</ele>
        <time>2011-04-02T12:46:42Z</time>
      </trkpt>
      <trkpt lat="42.31307" lon="2.59296">
        <ele>456.357</ele>
        <time>2011-04-02T12:46:53Z</time>
      </trkpt>
      <trkpt lat="42.31311" lon="2.5931">
        <ele>460.686</ele>
        <time>2011-04-02T12:47:09Z</time>
      </trkpt>
      <trkpt lat="42.3131" lon="2.5931">
        <ele>460.653</ele>
        <time>2011-04-02T12:47:10Z</time>
      </trkpt>
      <trkpt lat="42.31303" lon="2.59316">
        <ele>463.041</ele>
        <time>2011-04-02T12:47:24Z</time>
      </trkpt>
      <trkpt lat="42.313" lon="2.5932">
        <ele>465.964</ele>
        <time>2011-04-02T12:47:37Z</time>
      </trkpt>
      <trkpt lat="42.313" lon="2.59326">
        <ele>467.829</ele>
        <time>2011-04-02T12:47:49Z</time>
      </trkpt>
      <trkpt lat="42.31291" lon="2.59326">
        <ele>471.2</ele>
        <time>2011-04-02T12:48:05Z</time>
      </trkpt>
      <trkpt lat="42.31289" lon="2.59325">
        <ele>471.72</ele>
        <time>2011-04-02T12:48:06Z</time>
      </trkpt>
      <trkpt lat="42.31275" lon="2.59324">
        <ele>473.107</ele>
        <time>2011-04-02T12:48:19Z</time>
      </trkpt>
      <trkpt lat="42.31264" lon="2.59322">
        <ele>475.093</ele>
        <time>2011-04-02T12:48:34Z</time>
      </trkpt>
      <trkpt lat="42.31273" lon="2.5933">
        <ele>477.027</ele>
        <time>2011-04-02T12:48:50Z</time>
      </trkpt>
      <trkpt lat="42.31276" lon="2.59333">
        <ele>479.47</ele>
        <time>2011-04-02T12:49:01Z</time>
      </trkpt>
      <trkpt lat="42.31265" lon="2.59333">
        <ele>481.849</ele>
        <time>2011-04-02T12:49:20Z</time>
      </trkpt>
      <trkpt lat="42.31266" lon="2.59334">
        <ele>482.796</ele>
        <time>2011-04-02T12:49:23Z</time>
      </trkpt>
      <trkpt lat="42.31272" lon="2.5934">
        <ele>486.144</ele>
        <time>2011-04-02T12:49:36Z</time>
      </trkpt>
      <trkpt lat="42.31276" lon="2.59347">
        <ele>488.597</ele>
        <time>2011-04-02T12:49:48Z</time>
      </trkpt>
      <trkpt lat="42.31275" lon="2.59349">
        <ele>489.976</ele>
        <time>2011-04-02T12:49:51Z</time>
      </trkpt>
      <trkpt lat="42.31263" lon="2.59351">
        <ele>492.89</ele>
        <time>2011-04-02T12:50:06Z</time>
      </trkpt>
      <trkpt lat="42.31272" lon="2.59357">
        <ele>495.719</ele>
        <time>2011-04-02T12:50:20Z</time>
      </trkpt>
      <trkpt lat="42.31273" lon="2.59361">
        <ele>496.707</ele>
        <time>2011-04-02T12:50:25Z</time>
      </trkpt>
      <trkpt lat="42.31273" lon="2.5937">
        <ele>500.038</ele>
        <time>2011-04-02T12:50:38Z</time>
      </trkpt>
      <trkpt lat="42.31278" lon="2.59384">
        <ele>502.452</ele>
        <time>2011-04-02T12:50:56Z</time>
      </trkpt>
      <trkpt lat="42.31279" lon="2.59385">
        <ele>503.425</ele>
        <time>2011-04-02T12:50:58Z</time>
      </trkpt>
      <trkpt lat="42.31281" lon="2.59387">
        <ele>504.864</ele>
        <time>2011-04-02T12:51:03Z</time>
      </trkpt>
      <trkpt lat="42.31291" lon="2.594">
        <ele>506.861</ele>
        <time>2011-04-02T12:51:17Z</time>
      </trkpt>
      <trkpt lat="42.31297" lon="2.59414">
        <ele>509.219</ele>
        <time>2011-04-02T12:51:32Z</time>
      </trkpt>
      <trkpt lat="42.31289" lon="2.59416">
        <ele>510.622</ele>
        <time>2011-04-02T12:51:37Z</time>
      </trkpt>
      <trkpt lat="42.31271" lon="2.5942">
        <ele>513.029</ele>
        <time>2011-04-02T12:51:49Z</time>
      </trkpt>
      <trkpt lat="42.31278" lon="2.59433">
        <ele>515.4</ele>
        <time>2011-04-02T12:52:04Z</time>
      </trkpt>
      <trkpt lat="42.31277" lon="2.59433">
        <ele>516.92</ele>
        <time>2011-04-02T12:52:10Z</time>
      </trkpt>
      <trkpt lat="42.31275" lon="2.59439">
        <ele>518.807</ele>
        <time>2011-04-02T12:52:23Z</time>
      </trkpt>
      <trkpt lat="42.31277" lon="2.59449">
        <ele>521.283</ele>
        <time>2011-04-02T12:52:39Z</time>
      </trkpt>
      <trkpt lat="42.31282" lon="2.59458">
        <ele>523.677</ele>
        <time>2011-04-02T12:52:46Z</time>
      </trkpt>
      <trkpt lat="42.31287" lon="2.59464">
        <ele>523.65</ele>
        <time>2011-04-02T12:52:52Z</time>
      </trkpt>
      <trkpt lat="42.3129" lon="2.59472">
        <ele>525.049</ele>
        <time>2011-04-02T12:52:59Z</time>
      </trkpt>
      <trkpt lat="42.31296" lon="2.59484">
        <ele>526.976</ele>
        <time>2011-04-02T12:53:11Z</time>
      </trkpt>
      <trkpt lat="42.31302" lon="2.59496">
        <ele>529.854</ele>
        <time>2011-04-02T12:53:26Z</time>
      </trkpt>
      <trkpt lat="42.31302" lon="2.595">
        <ele>531.317</ele>
        <time>2011-04-02T12:53:30Z</time>
      </trkpt>
      <trkpt lat="42.31303" lon="2.59508">
        <ele>532.787</ele>
        <time>2011-04-02T12:53:42Z</time>
      </trkpt>
      <trkpt lat="42.31304" lon="2.59513">
        <ele>533.742</ele>
        <time>2011-04-02T12:53:47Z</time>
      </trkpt>
      <trkpt lat="42.31305" lon="2.5952">
        <ele>535.126</ele>
        <time>2011-04-02T12:53:54Z</time>
      </trkpt>
      <trkpt lat="42.31306" lon="2.5953">
        <ele>537.507</ele>
        <time>2011-04-02T12:54:08Z</time>
      </trkpt>
      <trkpt lat="42.31307" lon="2.59543">
        <ele>541.469</ele>
        <time>2011-04-02T12:54:23Z</time>
      </trkpt>
      <trkpt lat="42.31308" lon="2.59544">
        <ele>540.923</ele>
        <time>2011-04-02T12:54:24Z</time>
      </trkpt>
      <trkpt lat="42.31311" lon="2.59556">
        <ele>543.856</ele>
        <time>2011-04-02T12:54:36Z</time>
      </trkpt>
      <trkpt lat="42.31314" lon="2.59566">
        <ele>546.765</ele>
        <time>2011-04-02T12:54:49Z</time>
      </trkpt>
      <trkpt lat="42.31315" lon="2.59575">
        <ele>549.552</ele>
        <time>2011-04-02T12:55:01Z</time>
      </trkpt>
      <trkpt lat="42.31316" lon="2.59577">
        <ele>549.16</ele>
        <time>2011-04-02T12:55:04Z</time>
      </trkpt>
      <trkpt lat="42.31322" lon="2.59591">
        <ele>551.593</ele>
        <time>2011-04-02T12:55:17Z</time>
      </trkpt>
      <trkpt lat="42.31326" lon="2.59599">
        <ele>553.992</ele>
        <time>2011-04-02T12:55:31Z</time>
      </trkpt>
      <trkpt lat="42.31333" lon="2.59602">
        <ele>555.373</ele>
        <time>2011-04-02T12:55:41Z</time>
      </trkpt>
      <trkpt lat="42.31337" lon="2.59611">
        <ele>556.72</ele>
        <time>2011-04-02T12:55:49Z</time>
      </trkpt>
      <trkpt lat="42.31339" lon="2.59625">
        <ele>559.107</ele>
        <time>2011-04-02T12:56:01Z</time>
      </trkpt>
      <trkpt lat="42.31339" lon="2.59625">
        <ele>559.69</ele>
        <time>2011-04-02T12:56:02Z</time>
      </trkpt>
      <trkpt lat="42.31335" lon="2.59622">
        <ele>560.144</ele>
        <time>2011-04-02T12:56:08Z</time>
      </trkpt>
      <trkpt lat="42.31327" lon="2.59622">
        <ele>561.197</ele>
        <time>2011-04-02T12:56:16Z</time>
      </trkpt>
      <trkpt lat="42.31324" lon="2.59621">
        <ele>560.676</ele>
        <time>2011-04-02T12:56:19Z</time>
      </trkpt>
      <trkpt lat="42.31315" lon="2.59622">
        <ele>564.443</ele>
        <time>2011-04-02T12:56:32Z</time>
      </trkpt>
      <trkpt lat="42.3132" lon="2.59632">
        <ele>567.841</ele>
        <time>2011-04-02T12:56:45Z</time>
      </trkpt>
      <trkpt lat="42.31312" lon="2.59636">
        <ele>569.254</ele>
        <time>2011-04-02T12:56:59Z</time>
      </trkpt>
      <trkpt lat="42.31312" lon="2.59637">
        <ele>569.729</ele>
        <time>2011-04-02T12:57:01Z</time>
      </trkpt>
      <trkpt lat="42.31318" lon="2.59647">
        <ele>571.2</ele>
        <time>2011-04-02T12:57:12Z</time>
      </trkpt>
      <trkpt lat="42.31319" lon="2.59655">
        <ele>572.62</ele>
        <time>2011-04-02T12:57:19Z</time>
      </trkpt>
      <trkpt lat="42.31319" lon="2.59666">
        <ele>575.507</ele>
        <time>2011-04-02T12:57:28Z</time>
      </trkpt>
      <trkpt lat="42.31316" lon="2.59671">
        <ele>575.533</ele>
        <time>2011-04-02T12:57:35Z</time>
      </trkpt>
      <trkpt lat="42.31318" lon="2.59689">
        <ele>578.467</ele>
        <time>2011-04-02T12:57:50Z</time>
      </trkpt>
      <trkpt lat="42.31322" lon="2.59701">
        <ele>579.31</ele>
        <time>2011-04-02T12:58:02Z</time>
      </trkpt>
      <trkpt lat="42.31322" lon="2.59702">
        <ele>580.329</ele>
        <time>2011-04-02T12:58:03Z</time>
      </trkpt>
      <trkpt lat="42.31321" lon="2.5971">
        <ele>582.286</ele>
        <time>2011-04-02T12:58:14Z</time>
      </trkpt>
      <trkpt lat="42.31322" lon="2.59713">
        <ele>582.274</ele>
        <time>2011-04-02T12:58:17Z</time>
      </trkpt>
      <trkpt lat="42.31322" lon="2.59726">
        <ele>586.117</ele>
        <time>2011-04-02T12:58:30Z</time>
      </trkpt>
      <trkpt lat="42.31327" lon="2.59737">
        <ele>590.451</ele>
        <time>2011-04-02T12:58:45Z</time>
      </trkpt>
      <trkpt lat="42.31327" lon="2.59738">
        <ele>589.901</ele>
        <time>2011-04-02T12:58:46Z</time>
      </trkpt>
      <trkpt lat="42.3133" lon="2.59748">
        <ele>592.311</ele>
        <time>2011-04-02T12:58:57Z</time>
      </trkpt>
      <trkpt lat="42.31335" lon="2.59763">
        <ele>594.707</ele>
        <time>2011-04-02T12:59:10Z</time>
      </trkpt>
      <trkpt lat="42.31337" lon="2.59773">
        <ele>594.796</ele>
        <time>2011-04-02T12:59:20Z</time>
      </trkpt>
      <trkpt lat="42.31337" lon="2.59786">
        <ele>598.62</ele>
        <time>2011-04-02T12:59:32Z</time>
      </trkpt>
      <trkpt lat="42.31335" lon="2.59796">
        <ele>600.063</ele>
        <time>2011-04-02T12:59:43Z</time>
      </trkpt>
      <trkpt lat="42.31336" lon="2.59805">
        <ele>602.982</ele>
        <time>2011-04-02T12:59:54Z</time>
      </trkpt>
      <trkpt lat="42.31335" lon="2.59813">
        <ele>603.929</ele>
        <time>2011-04-02T13:00:01Z</time>
      </trkpt>
      <trkpt lat="42.31334" lon="2.59824">
        <ele>605.837</ele>
        <time>2011-04-02T13:00:11Z</time>
      </trkpt>
      <trkpt lat="42.31332" lon="2.59837">
        <ele>608.24</ele>
        <time>2011-04-02T13:00:24Z</time>
      </trkpt>
      <trkpt lat="42.31332" lon="2.59847">
        <ele>610.191</ele>
        <time>2011-04-02T13:00:32Z</time>
      </trkpt>
      <trkpt lat="42.31332" lon="2.59861">
        <ele>613.081</ele>
        <time>2011-04-02T13:00:46Z</time>
      </trkpt>
      <trkpt lat="42.31336" lon="2.59873">
        <ele>614.919</ele>
        <time>2011-04-02T13:00:58Z</time>
      </trkpt>
      <trkpt lat="42.31339" lon="2.59889">
        <ele>616.807</ele>
        <time>2011-04-02T13:01:13Z</time>
      </trkpt>
      <trkpt lat="42.31338" lon="2.59897">
        <ele>620.22</ele>
        <time>2011-04-02T13:01:22Z</time>
      </trkpt>
      <trkpt lat="42.31339" lon="2.59911">
        <ele>622.124</ele>
        <time>2011-04-02T13:01:36Z</time>
      </trkpt>
      <trkpt lat="42.31343" lon="2.59925">
        <ele>624.557</ele>
        <time>2011-04-02T13:01:50Z</time>
      </trkpt>
      <trkpt lat="42.31344" lon="2.59938">
        <ele>626.996</ele>
        <time>2011-04-02T13:02:01Z</time>
      </trkpt>
      <trkpt lat="42.31347" lon="2.59952">
        <ele>630.343</ele>
        <time>2011-04-02T13:02:14Z</time>
      </trkpt>
      <trkpt lat="42.31348" lon="2.59966">
        <ele>632.211</ele>
        <time>2011-04-02T13:02:27Z</time>
      </trkpt>
      <trkpt lat="42.3135" lon="2.59982">
        <ele>635.624</ele>
        <time>2011-04-02T13:02:43Z</time>
      </trkpt>
      <trkpt lat="42.31351" lon="2.59999">
        <ele>638.538</ele>
        <time>2011-04-02T13:02:57Z</time>
      </trkpt>
      <trkpt lat="42.31357" lon="2.60018">
        <ele>641.37</ele>
        <time>2011-04-02T13:03:14Z</time>
      </trkpt>
      <trkpt lat="42.31358" lon="2.60031">
        <ele>644.217</ele>
        <time>2011-04-02T13:03:26Z</time>
      </trkpt>
      <trkpt lat="42.31356" lon="2.60042">
        <ele>647.607</ele>
        <time>2011-04-02T13:03:41Z</time>
      </trkpt>
      <trkpt lat="42.31362" lon="2.60055">
        <ele>650.584</ele>
        <time>2011-04-02T13:03:56Z</time>
      </trkpt>
      <trkpt lat="42.31363" lon="2.60066">
        <ele>653.848</ele>
        <time>2011-04-02T13:04:11Z</time>
      </trkpt>
      <trkpt lat="42.31366" lon="2.60076">
        <ele>655.811</ele>
        <time>2011-04-02T13:04:22Z</time>
      </trkpt>
      <trkpt lat="42.31371" lon="2.60094">
        <ele>659.19</ele>
        <time>2011-04-02T13:04:41Z</time>
      </trkpt>
      <trkpt lat="42.31377" lon="2.60108">
        <ele>662.047</ele>
        <time>2011-04-02T13:04:55Z</time>
      </trkpt>
      <trkpt lat="42.31384" lon="2.60121">
        <ele>663.555</ele>
        <time>2011-04-02T13:05:10Z</time>
      </trkpt>
      <trkpt lat="42.3139" lon="2.60126">
        <ele>664.958</ele>
        <time>2011-04-02T13:05:17Z</time>
      </trkpt>
      <trkpt lat="42.31395" lon="2.60134">
        <ele>667.888</ele>
        <time>2011-04-02T13:05:29Z</time>
      </trkpt>
      <trkpt lat="42.31399" lon="2.60146">
        <ele>670.724</ele>
        <time>2011-04-02T13:05:41Z</time>
      </trkpt>
      <trkpt lat="42.31406" lon="2.60161">
        <ele>674.526</ele>
        <time>2011-04-02T13:05:57Z</time>
      </trkpt>
      <trkpt lat="42.31409" lon="2.60168">
        <ele>676.407</ele>
        <time>2011-04-02T13:06:08Z</time>
      </trkpt>
      <trkpt lat="42.31412" lon="2.60173">
        <ele>677.489</ele>
        <time>2011-04-02T13:06:15Z</time>
      </trkpt>
      <trkpt lat="42.3142" lon="2.6018">
        <ele>680.343</ele>
        <time>2011-04-02T13:06:27Z</time>
      </trkpt>
      <trkpt lat="42.31415" lon="2.6019">
        <ele>683.656</ele>
        <time>2011-04-02T13:06:39Z</time>
      </trkpt>
      <trkpt lat="42.31415" lon="2.60199">
        <ele>685.155</ele>
        <time>2011-04-02T13:06:52Z</time>
      </trkpt>
      <trkpt lat="42.31413" lon="2.6021">
        <ele>688.472</ele>
        <time>2011-04-02T13:07:04Z</time>
      </trkpt>
      <trkpt lat="42.31414" lon="2.60213">
        <ele>689.47</ele>
        <time>2011-04-02T13:07:06Z</time>
      </trkpt>
      <trkpt lat="42.31416" lon="2.60223">
        <ele>691.843</ele>
        <time>2011-04-02T13:07:17Z</time>
      </trkpt>
      <trkpt lat="42.31419" lon="2.60234">
        <ele>694.279</ele>
        <time>2011-04-02T13:07:26Z</time>
      </trkpt>
      <trkpt lat="42.31419" lon="2.60239">
        <ele>694.705</ele>
        <time>2011-04-02T13:07:30Z</time>
      </trkpt>
      <trkpt lat="42.31423" lon="2.60252">
        <ele>698.125</ele>
        <time>2011-04-02T13:07:42Z</time>
      </trkpt>
      <trkpt lat="42.31424" lon="2.60267">
        <ele>699.507</ele>
        <time>2011-04-02T13:07:53Z</time>
      </trkpt>
      <trkpt lat="42.31424" lon="2.60276">
        <ele>700.558</ele>
        <time>2011-04-02T13:07:59Z</time>
      </trkpt>
      <trkpt lat="42.31424" lon="2.60286">
        <ele>700.992</ele>
        <time>2011-04-02T13:08:06Z</time>
      </trkpt>
      <trkpt lat="42.31423" lon="2.6029">
        <ele>701.445</ele>
        <time>2011-04-02T13:08:09Z</time>
      </trkpt>
      <trkpt lat="42.31417" lon="2.60302">
        <ele>702.474</ele>
        <time>2011-04-02T13:08:23Z</time>
      </trkpt>
      <trkpt lat="42.31413" lon="2.60305">
        <ele>701.481</ele>
        <time>2011-04-02T13:09:01Z</time>
      </trkpt>
      <trkpt lat="42.314" lon="2.60318">
        <ele>701.939</ele>
        <time>2011-04-02T13:09:13Z</time>
      </trkpt>
      <trkpt lat="42.31389" lon="2.60327">
        <ele>700.522</ele>
        <time>2011-04-02T13:09:23Z</time>
      </trkpt>
      <trkpt lat="42.31386" lon="2.6033">
        <ele>701.937</ele>
        <time>2011-04-02T13:09:26Z</time>
      </trkpt>
      <trkpt lat="42.31385" lon="2.60336">
        <ele>700.549</ele>
        <time>2011-04-02T13:09:30Z</time>
      </trkpt>
      <trkpt lat="42.31389" lon="2.60369">
        <ele>700.913</ele>
        <time>2011-04-02T13:09:41Z</time>
      </trkpt>
      <trkpt lat="42.31388" lon="2.60382">
        <ele>701.407</ele>
        <time>2011-04-02T13:09:52Z</time>
      </trkpt>
      <trkpt lat="42.31388" lon="2.60385">
        <ele>700.984</ele>
        <time>2011-04-02T13:09:55Z</time>
      </trkpt>
      <trkpt lat="42.31389" lon="2.60393">
        <ele>700.568</ele>
        <time>2011-04-02T13:10:00Z</time>
      </trkpt>
      <trkpt lat="42.31386" lon="2.60404">
        <ele>700.971</ele>
        <time>2011-04-02T13:10:06Z</time>
      </trkpt>
      <trkpt lat="42.31383" lon="2.60415">
        <ele>700.59</ele>
        <time>2011-04-02T13:10:10Z</time>
      </trkpt>
      <trkpt lat="42.31381" lon="2.60427">
        <ele>700.997</ele>
        <time>2011-04-02T13:10:15Z</time>
      </trkpt>
      <trkpt lat="42.3138" lon="2.60434">
        <ele>701.415</ele>
        <time>2011-04-02T13:10:19Z</time>
      </trkpt>
      <trkpt lat="42.31379" lon="2.60437">
        <ele>702.438</ele>
        <time>2011-04-02T13:10:21Z</time>
      </trkpt>
      <trkpt lat="42.31374" lon="2.60461">
        <ele>703.335</ele>
        <time>2011-04-02T13:10:36Z</time>
      </trkpt>
      <trkpt lat="42.31375" lon="2.60463">
        <ele>702.986</ele>
        <time>2011-04-02T13:10:38Z</time>
      </trkpt>
      <trkpt lat="42.3138" lon="2.60478">
        <ele>703.814</ele>
        <time>2011-04-02T13:10:50Z</time>
      </trkpt>
      <trkpt lat="42.31379" lon="2.60498">
        <ele>707.207</ele>
        <time>2011-04-02T13:11:03Z</time>
      </trkpt>
      <trkpt lat="42.31378" lon="2.60505">
        <ele>706.774</ele>
        <time>2011-04-02T13:11:08Z</time>
      </trkpt>
      <trkpt lat="42.31375" lon="2.60517">
        <ele>708.238</ele>
        <time>2011-04-02T13:11:16Z</time>
      </trkpt>
      <trkpt lat="42.31371" lon="2.60537">
        <ele>711.091</ele>
        <time>2011-04-02T13:11:31Z</time>
      </trkpt>
      <trkpt lat="42.31369" lon="2.60554">
        <ele>712.56</ele>
        <time>2011-04-02T13:11:44Z</time>
      </trkpt>
      <trkpt lat="42.31362" lon="2.6057">
        <ele>715.477</ele>
        <time>2011-04-02T13:11:59Z</time>
      </trkpt>
      <trkpt lat="42.31361" lon="2.60572">
        <ele>715.855</ele>
        <time>2011-04-02T13:12:01Z</time>
      </trkpt>
      <trkpt lat="42.31358" lon="2.60584">
        <ele>718.288</ele>
        <time>2011-04-02T13:12:12Z</time>
      </trkpt>
      <trkpt lat="42.31354" lon="2.60592">
        <ele>718.264</ele>
        <time>2011-04-02T13:12:19Z</time>
      </trkpt>
      <trkpt lat="42.31352" lon="2.60597">
        <ele>721.106</ele>
        <time>2011-04-02T13:12:23Z</time>
      </trkpt>
      <trkpt lat="42.31348" lon="2.60607">
        <ele>723.516</ele>
        <time>2011-04-02T13:12:33Z</time>
      </trkpt>
      <trkpt lat="42.31345" lon="2.60623">
        <ele>723.107</ele>
        <time>2011-04-02T13:12:44Z</time>
      </trkpt>
      <trkpt lat="42.31342" lon="2.60636">
        <ele>724.057</ele>
        <time>2011-04-02T13:12:56Z</time>
      </trkpt>
      <trkpt lat="42.31341" lon="2.60646">
        <ele>724.541</ele>
        <time>2011-04-02T13:13:03Z</time>
      </trkpt>
      <trkpt lat="42.31339" lon="2.60655">
        <ele>725.544</ele>
        <time>2011-04-02T13:13:09Z</time>
      </trkpt>
      <trkpt lat="42.31339" lon="2.60658">
        <ele>724.513</ele>
        <time>2011-04-02T13:13:12Z</time>
      </trkpt>
      <trkpt lat="42.31345" lon="2.60665">
        <ele>725.56</ele>
        <time>2011-04-02T13:13:24Z</time>
      </trkpt>
      <trkpt lat="42.31349" lon="2.60671">
        <ele>727.418</ele>
        <time>2011-04-02T13:13:40Z</time>
      </trkpt>
      <trkpt lat="42.31345" lon="2.60683">
        <ele>729.811</ele>
        <time>2011-04-02T13:13:51Z</time>
      </trkpt>
      <trkpt lat="42.31346" lon="2.60693">
        <ele>732.772</ele>
        <time>2011-04-02T13:14:03Z</time>
      </trkpt>
      <trkpt lat="42.31346" lon="2.60698">
        <ele>734.113</ele>
        <time>2011-04-02T13:14:08Z</time>
      </trkpt>
      <trkpt lat="42.31343" lon="2.60707">
        <ele>736.514</ele>
        <time>2011-04-02T13:14:19Z</time>
      </trkpt>
      <trkpt lat="42.31343" lon="2.60711">
        <ele>736.507</ele>
        <time>2011-04-02T13:14:23Z</time>
      </trkpt>
      <trkpt lat="42.31343" lon="2.60712">
        <ele>737.068</ele>
        <time>2011-04-02T13:14:24Z</time>
      </trkpt>
      <trkpt lat="42.3134" lon="2.60717">
        <ele>738.442</ele>
        <time>2011-04-02T13:14:32Z</time>
      </trkpt>
      <trkpt lat="42.31341" lon="2.60729">
        <ele>742.315</ele>
        <time>2011-04-02T13:14:47Z</time>
      </trkpt>
      <trkpt lat="42.31344" lon="2.60739">
        <ele>743.794</ele>
        <time>2011-04-02T13:14:58Z</time>
      </trkpt>
      <trkpt lat="42.31346" lon="2.60751">
        <ele>744.731</ele>
        <time>2011-04-02T13:15:10Z</time>
      </trkpt>
      <trkpt lat="42.31353" lon="2.60769">
        <ele>744.719</ele>
        <time>2011-04-02T13:15:22Z</time>
      </trkpt>
      <trkpt lat="42.31362" lon="2.60791">
        <ele>745.292</ele>
        <time>2011-04-02T13:15:37Z</time>
      </trkpt>
      <trkpt lat="42.31365" lon="2.60812">
        <ele>748.083</ele>
        <time>2011-04-02T13:15:53Z</time>
      </trkpt>
      <trkpt lat="42.31365" lon="2.60815">
        <ele>748.525</ele>
        <time>2011-04-02T13:15:56Z</time>
      </trkpt>
      <trkpt lat="42.31372" lon="2.60834">
        <ele>751.417</ele>
        <time>2011-04-02T13:16:11Z</time>
      </trkpt>
      <trkpt lat="42.31378" lon="2.60843">
        <ele>752.907</ele>
        <time>2011-04-02T13:16:20Z</time>
      </trkpt>
      <trkpt lat="42.31388" lon="2.6085">
        <ele>753.899</ele>
        <time>2011-04-02T13:16:30Z</time>
      </trkpt>
      <trkpt lat="42.31398" lon="2.60865">
        <ele>756.723</ele>
        <time>2011-04-02T13:16:45Z</time>
      </trkpt>
      <trkpt lat="42.31403" lon="2.60874">
        <ele>759.156</ele>
        <time>2011-04-02T13:16:55Z</time>
      </trkpt>
      <trkpt lat="42.31411" lon="2.6089">
        <ele>762.585</ele>
        <time>2011-04-02T13:17:07Z</time>
      </trkpt>
      <trkpt lat="42.31418" lon="2.60906">
        <ele>765.822</ele>
        <time>2011-04-02T13:17:23Z</time>
      </trkpt>
      <trkpt lat="42.31424" lon="2.60923">
        <ele>768.21</ele>
        <time>2011-04-02T13:17:39Z</time>
      </trkpt>
      <trkpt lat="42.31426" lon="2.60932">
        <ele>768.713</ele>
        <time>2011-04-02T13:17:45Z</time>
      </trkpt>
      <trkpt lat="42.31432" lon="2.6095">
        <ele>771.666</ele>
        <time>2011-04-02T13:18:00Z</time>
      </trkpt>
      <trkpt lat="42.31437" lon="2.6096">
        <ele>775.029</ele>
        <time>2011-04-02T13:18:16Z</time>
      </trkpt>
      <trkpt lat="42.31443" lon="2.6097">
        <ele>776.421</ele>
        <time>2011-04-02T13:18:25Z</time>
      </trkpt>
      <trkpt lat="42.31447" lon="2.60981">
        <ele>778.807</ele>
        <time>2011-04-02T13:18:33Z</time>
      </trkpt>
      <trkpt lat="42.31452" lon="2.60985">
        <ele>780.347</ele>
        <time>2011-04-02T13:18:42Z</time>
      </trkpt>
      <trkpt lat="42.31458" lon="2.60987">
        <ele>780.791</ele>
        <time>2011-04-02T13:18:52Z</time>
      </trkpt>
      <trkpt lat="42.31464" lon="2.60999">
        <ele>784.114</ele>
        <time>2011-04-02T13:19:07Z</time>
      </trkpt>
      <trkpt lat="42.3147" lon="2.61017">
        <ele>787.023</ele>
        <time>2011-04-02T13:19:22Z</time>
      </trkpt>
      <trkpt lat="42.31475" lon="2.61029">
        <ele>790.31</ele>
        <time>2011-04-02T13:19:35Z</time>
      </trkpt>
      <trkpt lat="42.31478" lon="2.6103">
        <ele>789.958</ele>
        <time>2011-04-02T13:19:42Z</time>
      </trkpt>
      <trkpt lat="42.31485" lon="2.61015">
        <ele>792.711</ele>
        <time>2011-04-02T13:19:59Z</time>
      </trkpt>
      <trkpt lat="42.31494" lon="2.61003">
        <ele>794.277</ele>
        <time>2011-04-02T13:20:16Z</time>
      </trkpt>
      <trkpt lat="42.31501" lon="2.6099">
        <ele>799.061</ele>
        <time>2011-04-02T13:20:35Z</time>
      </trkpt>
      <trkpt lat="42.31508" lon="2.60976">
        <ele>799.527</ele>
        <time>2011-04-02T13:20:50Z</time>
      </trkpt>
      <trkpt lat="42.31511" lon="2.60964">
        <ele>801.407</ele>
        <time>2011-04-02T13:21:01Z</time>
      </trkpt>
      <trkpt lat="42.31513" lon="2.6096">
        <ele>803.318</ele>
        <time>2011-04-02T13:21:06Z</time>
      </trkpt>
      <trkpt lat="42.31514" lon="2.60976">
        <ele>805.782</ele>
        <time>2011-04-02T13:21:22Z</time>
      </trkpt>
      <trkpt lat="42.31513" lon="2.60995">
        <ele>807.625</ele>
        <time>2011-04-02T13:21:40Z</time>
      </trkpt>
      <trkpt lat="42.31513" lon="2.60998">
        <ele>809.614</ele>
        <time>2011-04-02T13:21:43Z</time>
      </trkpt>
      <trkpt lat="42.3151" lon="2.6101">
        <ele>812.531</ele>
        <time>2011-04-02T13:21:56Z</time>
      </trkpt>
      <trkpt lat="42.31513" lon="2.61027">
        <ele>813.469</ele>
        <time>2011-04-02T13:22:09Z</time>
      </trkpt>
      <trkpt lat="42.31511" lon="2.61042">
        <ele>815.312</ele>
        <time>2011-04-02T13:22:25Z</time>
      </trkpt>
      <trkpt lat="42.31509" lon="2.61046">
        <ele>815.381</ele>
        <time>2011-04-02T13:22:29Z</time>
      </trkpt>
      <trkpt lat="42.31511" lon="2.61065">
        <ele>818.761</ele>
        <time>2011-04-02T13:22:43Z</time>
      </trkpt>
      <trkpt lat="42.3151" lon="2.61068">
        <ele>820.117</ele>
        <time>2011-04-02T13:22:45Z</time>
      </trkpt>
      <trkpt lat="42.31508" lon="2.61075">
        <ele>819.207</ele>
        <time>2011-04-02T13:22:51Z</time>
      </trkpt>
      <trkpt lat="42.31508" lon="2.61081">
        <ele>819.719</ele>
        <time>2011-04-02T13:22:55Z</time>
      </trkpt>
      <trkpt lat="42.31506" lon="2.61101">
        <ele>822.163</ele>
        <time>2011-04-02T13:23:12Z</time>
      </trkpt>
      <trkpt lat="42.31502" lon="2.61115">
        <ele>825.916</ele>
        <time>2011-04-02T13:23:22Z</time>
      </trkpt>
      <trkpt lat="42.31503" lon="2.61127">
        <ele>826.915</ele>
        <time>2011-04-02T13:23:33Z</time>
      </trkpt>
      <trkpt lat="42.31502" lon="2.61145">
        <ele>829.822</ele>
        <time>2011-04-02T13:23:51Z</time>
      </trkpt>
      <trkpt lat="42.31496" lon="2.6116">
        <ele>833.18</ele>
        <time>2011-04-02T13:24:05Z</time>
      </trkpt>
      <trkpt lat="42.31494" lon="2.61164">
        <ele>831.233</ele>
        <time>2011-04-02T13:24:08Z</time>
      </trkpt>
      <trkpt lat="42.31491" lon="2.61175">
        <ele>835.539</ele>
        <time>2011-04-02T13:24:20Z</time>
      </trkpt>
      <trkpt lat="42.31494" lon="2.61182">
        <ele>835.501</ele>
        <time>2011-04-02T13:24:25Z</time>
      </trkpt>
      <trkpt lat="42.31496" lon="2.61195">
        <ele>837.521</ele>
        <time>2011-04-02T13:24:34Z</time>
      </trkpt>
      <trkpt lat="42.31496" lon="2.61206">
        <ele>840.307</ele>
        <time>2011-04-02T13:24:46Z</time>
      </trkpt>
      <trkpt lat="42.31496" lon="2.61211">
        <ele>841.324</ele>
        <time>2011-04-02T13:25:09Z</time>
      </trkpt>
      <trkpt lat="42.31495" lon="2.61214">
        <ele>841.828</ele>
        <time>2011-04-02T13:25:22Z</time>
      </trkpt>
      <trkpt lat="42.31494" lon="2.61227">
        <ele>840.331</ele>
        <time>2011-04-02T13:25:35Z</time>
      </trkpt>
      <trkpt lat="42.315" lon="2.61243">
        <ele>837.09</ele>
        <time>2011-04-02T13:25:44Z</time>
      </trkpt>
      <trkpt lat="42.31504" lon="2.61253">
        <ele>835.047</ele>
        <time>2011-04-02T13:25:53Z</time>
      </trkpt>
      <trkpt lat="42.31517" lon="2.61276">
        <ele>836.075</ele>
        <time>2011-04-02T13:26:07Z</time>
      </trkpt>
      <trkpt lat="42.31528" lon="2.61289">
        <ele>839.958</ele>
        <time>2011-04-02T13:26:22Z</time>
      </trkpt>
      <trkpt lat="42.31535" lon="2.61298">
        <ele>841.876</ele>
        <time>2011-04-02T13:26:36Z</time>
      </trkpt>
      <trkpt lat="42.31538" lon="2.613">
        <ele>843.79</ele>
        <time>2011-04-02T13:26:41Z</time>
      </trkpt>
      <trkpt lat="42.31543" lon="2.61305">
        <ele>845.119</ele>
        <time>2011-04-02T13:26:52Z</time>
      </trkpt>
      <trkpt lat="42.31548" lon="2.61313">
        <ele>848.507</ele>
        <time>2011-04-02T13:27:07Z</time>
      </trkpt>
      <trkpt lat="42.31554" lon="2.61324">
        <ele>851.938</ele>
        <time>2011-04-02T13:27:24Z</time>
      </trkpt>
      <trkpt lat="42.31563" lon="2.61342">
        <ele>855.212</ele>
        <time>2011-04-02T13:27:42Z</time>
      </trkpt>
      <trkpt lat="42.31566" lon="2.6135">
        <ele>855.265</ele>
        <time>2011-04-02T13:27:48Z</time>
      </trkpt>
      <trkpt lat="42.31566" lon="2.61356">
        <ele>856.214</ele>
        <time>2011-04-02T13:27:52Z</time>
      </trkpt>
      <trkpt lat="42.31572" lon="2.61366">
        <ele>858.691</ele>
        <time>2011-04-02T13:28:04Z</time>
      </trkpt>
      <trkpt lat="42.31572" lon="2.61367">
        <ele>859.119</ele>
        <time>2011-04-02T13:28:05Z</time>
      </trkpt>
      <trkpt lat="42.31576" lon="2.61378">
        <ele>862.472</ele>
        <time>2011-04-02T13:28:19Z</time>
      </trkpt>
      <trkpt lat="42.31574" lon="2.61385">
        <ele>861.584</ele>
        <time>2011-04-02T13:28:24Z</time>
      </trkpt>
      <trkpt lat="42.31587" lon="2.61411">
        <ele>864.807</ele>
        <time>2011-04-02T13:28:43Z</time>
      </trkpt>
      <trkpt lat="42.31596" lon="2.61422">
        <ele>866.817</ele>
        <time>2011-04-02T13:28:55Z</time>
      </trkpt>
      <trkpt lat="42.31604" lon="2.61434">
        <ele>867.307</ele>
        <time>2011-04-02T13:29:05Z</time>
      </trkpt>
      <trkpt lat="42.31606" lon="2.61441">
        <ele>868.249</ele>
        <time>2011-04-02T13:29:11Z</time>
      </trkpt>
      <trkpt lat="42.31615" lon="2.6145">
        <ele>869.243</ele>
        <time>2011-04-02T13:29:21Z</time>
      </trkpt>
      <trkpt lat="42.31621" lon="2.61455">
        <ele>872.176</ele>
        <time>2011-04-02T13:29:32Z</time>
      </trkpt>
      <trkpt lat="42.31631" lon="2.61458">
        <ele>874.975</ele>
        <time>2011-04-02T13:29:45Z</time>
      </trkpt>
      <trkpt lat="42.31641" lon="2.61459">
        <ele>877.832</ele>
        <time>2011-04-02T13:29:57Z</time>
      </trkpt>
      <trkpt lat="42.31653" lon="2.61467">
        <ele>879.73</ele>
        <time>2011-04-02T13:30:08Z</time>
      </trkpt>
      <trkpt lat="42.31663" lon="2.61479">
        <ele>882.223</ele>
        <time>2011-04-02T13:30:20Z</time>
      </trkpt>
      <trkpt lat="42.3167" lon="2.61494">
        <ele>883.668</ele>
        <time>2011-04-02T13:30:31Z</time>
      </trkpt>
      <trkpt lat="42.31679" lon="2.61507">
        <ele>886.542</ele>
        <time>2011-04-02T13:30:45Z</time>
      </trkpt>
      <trkpt lat="42.31681" lon="2.61509">
        <ele>887.426</ele>
        <time>2011-04-02T13:30:48Z</time>
      </trkpt>
      <trkpt lat="42.31695" lon="2.61522">
        <ele>887.907</ele>
        <time>2011-04-02T13:31:04Z</time>
      </trkpt>
      <trkpt lat="42.31703" lon="2.61529">
        <ele>890.357</ele>
        <time>2011-04-02T13:31:16Z</time>
      </trkpt>
      <trkpt lat="42.31716" lon="2.61532">
        <ele>889.821</ele>
        <time>2011-04-02T13:31:31Z</time>
      </trkpt>
      <trkpt lat="42.31738" lon="2.61534">
        <ele>890.814</ele>
        <time>2011-04-02T13:31:49Z</time>
      </trkpt>
      <trkpt lat="42.31761" lon="2.61539">
        <ele>893.773</ele>
        <time>2011-04-02T13:32:07Z</time>
      </trkpt>
      <trkpt lat="42.31767" lon="2.61544">
        <ele>892.28</ele>
        <time>2011-04-02T13:32:11Z</time>
      </trkpt>
      <trkpt lat="42.31777" lon="2.61548">
        <ele>889.828</ele>
        <time>2011-04-02T13:32:16Z</time>
      </trkpt>
      <trkpt lat="42.31795" lon="2.61555">
        <ele>887.941</ele>
        <time>2011-04-02T13:32:23Z</time>
      </trkpt>
      <trkpt lat="42.31819" lon="2.61574">
        <ele>887.424</ele>
        <time>2011-04-02T13:32:34Z</time>
      </trkpt>
      <trkpt lat="42.31825" lon="2.61584">
        <ele>889.404</ele>
        <time>2011-04-02T13:32:49Z</time>
      </trkpt>
      <trkpt lat="42.31824" lon="2.61591">
        <ele>889.814</ele>
        <time>2011-04-02T13:32:57Z</time>
      </trkpt>
      <trkpt lat="42.3182" lon="2.61621">
        <ele>889.407</ele>
        <time>2011-04-02T13:33:13Z</time>
      </trkpt>
      <trkpt lat="42.31819" lon="2.61623">
        <ele>888.933</ele>
        <time>2011-04-02T13:33:14Z</time>
      </trkpt>
      <trkpt lat="42.31817" lon="2.6163">
        <ele>889.447</ele>
        <time>2011-04-02T13:33:17Z</time>
      </trkpt>
      <trkpt lat="42.31816" lon="2.61635">
        <ele>890.33</ele>
        <time>2011-04-02T13:33:19Z</time>
      </trkpt>
      <trkpt lat="42.31817" lon="2.61651">
        <ele>891.899</ele>
        <time>2011-04-02T13:33:30Z</time>
      </trkpt>
      <trkpt lat="42.31815" lon="2.61662">
        <ele>892.216</ele>
        <time>2011-04-02T13:33:36Z</time>
      </trkpt>
      <trkpt lat="42.31816" lon="2.61674">
        <ele>891.854</ele>
        <time>2011-04-02T13:33:41Z</time>
      </trkpt>
      <trkpt lat="42.31815" lon="2.61687">
        <ele>893.747</ele>
        <time>2011-04-02T13:33:47Z</time>
      </trkpt>
      <trkpt lat="42.31815" lon="2.6169">
        <ele>893.733</ele>
        <time>2011-04-02T13:33:49Z</time>
      </trkpt>
      <trkpt lat="42.31823" lon="2.61702">
        <ele>894.623</ele>
        <time>2011-04-02T13:33:58Z</time>
      </trkpt>
      <trkpt lat="42.31834" lon="2.61704">
        <ele>894.215</ele>
        <time>2011-04-02T13:34:09Z</time>
      </trkpt>
      <trkpt lat="42.31844" lon="2.61711">
        <ele>893.707</ele>
        <time>2011-04-02T13:34:19Z</time>
      </trkpt>
      <trkpt lat="42.31855" lon="2.61713">
        <ele>894.684</ele>
        <time>2011-04-02T13:34:28Z</time>
      </trkpt>
      <trkpt lat="42.31877" lon="2.61729">
        <ele>893.298</ele>
        <time>2011-04-02T13:34:38Z</time>
      </trkpt>
      <trkpt lat="42.31886" lon="2.61733">
        <ele>892.771</ele>
        <time>2011-04-02T13:34:47Z</time>
      </trkpt>
      <trkpt lat="42.3189" lon="2.61735">
        <ele>893.22</ele>
        <time>2011-04-02T13:34:51Z</time>
      </trkpt>
      <trkpt lat="42.31896" lon="2.61738">
        <ele>892.227</ele>
        <time>2011-04-02T13:34:55Z</time>
      </trkpt>
      <trkpt lat="42.31916" lon="2.61756">
        <ele>892.255</ele>
        <time>2011-04-02T13:35:07Z</time>
      </trkpt>
      <trkpt lat="42.31934" lon="2.61763">
        <ele>888.968</ele>
        <time>2011-04-02T13:35:19Z</time>
      </trkpt>
      <trkpt lat="42.31937" lon="2.61763">
        <ele>887.917</ele>
        <time>2011-04-02T13:35:21Z</time>
      </trkpt>
      <trkpt lat="42.3194" lon="2.61768">
        <ele>885.587</ele>
        <time>2011-04-02T13:35:25Z</time>
      </trkpt>
      <trkpt lat="42.31939" lon="2.61774">
        <ele>884.115</ele>
        <time>2011-04-02T13:35:28Z</time>
      </trkpt>
      <trkpt lat="42.31942" lon="2.61781">
        <ele>882.207</ele>
        <time>2011-04-02T13:35:33Z</time>
      </trkpt>
      <trkpt lat="42.31943" lon="2.61788">
        <ele>880.752</ele>
        <time>2011-04-02T13:35:41Z</time>
      </trkpt>
      <trkpt lat="42.31946" lon="2.6179">
        <ele>878.366</ele>
        <time>2011-04-02T13:35:47Z</time>
      </trkpt>
      <trkpt lat="42.31949" lon="2.61793">
        <ele>876.919</ele>
        <time>2011-04-02T13:35:50Z</time>
      </trkpt>
      <trkpt lat="42.31954" lon="2.61801">
        <ele>874.588</ele>
        <time>2011-04-02T13:35:54Z</time>
      </trkpt>
      <trkpt lat="42.31958" lon="2.6181">
        <ele>873.575</ele>
        <time>2011-04-02T13:36:04Z</time>
      </trkpt>
      <trkpt lat="42.31957" lon="2.61811">
        <ele>874.073</ele>
        <time>2011-04-02T13:36:05Z</time>
      </trkpt>
      <trkpt lat="42.31952" lon="2.61817">
        <ele>874.576</ele>
        <time>2011-04-02T13:36:11Z</time>
      </trkpt>
      <trkpt lat="42.31949" lon="2.61829">
        <ele>876.467</ele>
        <time>2011-04-02T13:36:24Z</time>
      </trkpt>
      <trkpt lat="42.31946" lon="2.61843">
        <ele>879.781</ele>
        <time>2011-04-02T13:36:41Z</time>
      </trkpt>
      <trkpt lat="42.31938" lon="2.61863">
        <ele>882.219</ele>
        <time>2011-04-02T13:37:00Z</time>
      </trkpt>
      <trkpt lat="42.31935" lon="2.61872">
        <ele>883.607</ele>
        <time>2011-04-02T13:37:09Z</time>
      </trkpt>
      <trkpt lat="42.3193" lon="2.61882">
        <ele>886.547</ele>
        <time>2011-04-02T13:37:19Z</time>
      </trkpt>
      <trkpt lat="42.31925" lon="2.61902">
        <ele>887.451</ele>
        <time>2011-04-02T13:37:32Z</time>
      </trkpt>
      <trkpt lat="42.31924" lon="2.61903">
        <ele>887.054</ele>
        <time>2011-04-02T13:37:33Z</time>
      </trkpt>
      <trkpt lat="42.31917" lon="2.6191">
        <ele>887.433</ele>
        <time>2011-04-02T13:37:40Z</time>
      </trkpt>
      <trkpt lat="42.31917" lon="2.61917">
        <ele>889.49</ele>
        <time>2011-04-02T13:37:46Z</time>
      </trkpt>
      <trkpt lat="42.3191" lon="2.61936">
        <ele>892.238</ele>
        <time>2011-04-02T13:38:01Z</time>
      </trkpt>
      <trkpt lat="42.31908" lon="2.6194">
        <ele>893.251</ele>
        <time>2011-04-02T13:38:04Z</time>
      </trkpt>
      <trkpt lat="42.31906" lon="2.61944">
        <ele>893.288</ele>
        <time>2011-04-02T13:38:08Z</time>
      </trkpt>
      <trkpt lat="42.31904" lon="2.61947">
        <ele>893.724</ele>
        <time>2011-04-02T13:38:11Z</time>
      </trkpt>
      <trkpt lat="42.31894" lon="2.61955">
        <ele>894.226</ele>
        <time>2011-04-02T13:38:23Z</time>
      </trkpt>
      <trkpt lat="42.31887" lon="2.61955">
        <ele>895.607</ele>
        <time>2011-04-02T13:38:29Z</time>
      </trkpt>
      <trkpt lat="42.31888" lon="2.61954">
        <ele>897.199</ele>
        <time>2011-04-02T13:38:38Z</time>
      </trkpt>
      <trkpt lat="42.31887" lon="2.61955">
        <ele>898.063</ele>
        <time>2011-04-02T13:38:40Z</time>
      </trkpt>
      <trkpt lat="42.31876" lon="2.61964">
        <ele>899.916</ele>
        <time>2011-04-02T13:38:53Z</time>
      </trkpt>
      <trkpt lat="42.31876" lon="2.61965">
        <ele>901.935</ele>
        <time>2011-04-02T13:38:57Z</time>
      </trkpt>
      <trkpt lat="42.31876" lon="2.61976">
        <ele>904.732</ele>
        <time>2011-04-02T13:39:08Z</time>
      </trkpt>
      <trkpt lat="42.31878" lon="2.61983">
        <ele>905.75</ele>
        <time>2011-04-02T13:39:19Z</time>
      </trkpt>
      <trkpt lat="42.31877" lon="2.61992">
        <ele>908.613</ele>
        <time>2011-04-02T13:39:30Z</time>
      </trkpt>
      <trkpt lat="42.31877" lon="2.62001">
        <ele>909.171</ele>
        <time>2011-04-02T13:39:40Z</time>
      </trkpt>
      <trkpt lat="42.31885" lon="2.62004">
        <ele>911.541</ele>
        <time>2011-04-02T13:39:52Z</time>
      </trkpt>
      <trkpt lat="42.31885" lon="2.62004">
        <ele>911.515</ele>
        <time>2011-04-02T13:39:53Z</time>
      </trkpt>
      <trkpt lat="42.31896" lon="2.62003">
        <ele>914.807</ele>
        <time>2011-04-02T13:40:07Z</time>
      </trkpt>
      <trkpt lat="42.319" lon="2.62002">
        <ele>915.338</ele>
        <time>2011-04-02T13:40:11Z</time>
      </trkpt>
      <trkpt lat="42.31903" lon="2.61998">
        <ele>915.832</ele>
        <time>2011-04-02T13:40:18Z</time>
      </trkpt>
      <trkpt lat="42.31907" lon="2.61999">
        <ele>917.295</ele>
        <time>2011-04-02T13:40:23Z</time>
      </trkpt>
      <trkpt lat="42.31908" lon="2.62">
        <ele>917.284</ele>
        <time>2011-04-02T13:40:25Z</time>
      </trkpt>
      <trkpt lat="42.31913" lon="2.62004">
        <ele>918.721</ele>
        <time>2011-04-02T13:40:31Z</time>
      </trkpt>
      <trkpt lat="42.31911" lon="2.62016">
        <ele>919.229</ele>
        <time>2011-04-02T13:40:39Z</time>
      </trkpt>
      <trkpt lat="42.31912" lon="2.62024">
        <ele>919.262</ele>
        <time>2011-04-02T13:40:45Z</time>
      </trkpt>
      <trkpt lat="42.3192" lon="2.62034">
        <ele>919.686</ele>
        <time>2011-04-02T13:40:59Z</time>
      </trkpt>
      <trkpt lat="42.31921" lon="2.62038">
        <ele>919.26</ele>
        <time>2011-04-02T13:41:17Z</time>
      </trkpt>
      <trkpt lat="42.31923" lon="2.6204">
        <ele>918.726</ele>
        <time>2011-04-02T13:41:59Z</time>
      </trkpt>
      <trkpt lat="42.31934" lon="2.62056">
        <ele>919.207</ele>
        <time>2011-04-02T13:42:16Z</time>
      </trkpt>
      <trkpt lat="42.31938" lon="2.62064">
        <ele>921.639</ele>
        <time>2011-04-02T13:42:34Z</time>
      </trkpt>
      <trkpt lat="42.31942" lon="2.62077">
        <ele>924.063</ele>
        <time>2011-04-02T13:42:47Z</time>
      </trkpt>
      <trkpt lat="42.31951" lon="2.62084">
        <ele>926.476</ele>
        <time>2011-04-02T13:43:02Z</time>
      </trkpt>
      <trkpt lat="42.31953" lon="2.62084">
        <ele>926.915</ele>
        <time>2011-04-02T13:43:05Z</time>
      </trkpt>
      <trkpt lat="42.31961" lon="2.62081">
        <ele>929.382</ele>
        <time>2011-04-02T13:43:18Z</time>
      </trkpt>
      <trkpt lat="42.31965" lon="2.62083">
        <ele>929.71</ele>
        <time>2011-04-02T13:43:22Z</time>
      </trkpt>
      <trkpt lat="42.3197" lon="2.62093">
        <ele>930.723</ele>
        <time>2011-04-02T13:43:30Z</time>
      </trkpt>
      <trkpt lat="42.31973" lon="2.62097">
        <ele>930.792</ele>
        <time>2011-04-02T13:43:33Z</time>
      </trkpt>
      <trkpt lat="42.31981" lon="2.62116">
        <ele>932.173</ele>
        <time>2011-04-02T13:43:46Z</time>
      </trkpt>
      <trkpt lat="42.31989" lon="2.6214">
        <ele>930.22</ele>
        <time>2011-04-02T13:43:56Z</time>
      </trkpt>
      <trkpt lat="42.3199" lon="2.62142">
        <ele>930.707</ele>
        <time>2011-04-02T13:43:57Z</time>
      </trkpt>
      <trkpt lat="42.31992" lon="2.62149">
        <ele>929.36</ele>
        <time>2011-04-02T13:44:01Z</time>
      </trkpt>
      <trkpt lat="42.32007" lon="2.62179">
        <ele>927.374</ele>
        <time>2011-04-02T13:44:14Z</time>
      </trkpt>
      <trkpt lat="42.32013" lon="2.62185">
        <ele>927.877</ele>
        <time>2011-04-02T13:44:17Z</time>
      </trkpt>
      <trkpt lat="42.32021" lon="2.62194">
        <ele>926.926</ele>
        <time>2011-04-02T13:44:24Z</time>
      </trkpt>
      <trkpt lat="42.32035" lon="2.6221">
        <ele>928.383</ele>
        <time>2011-04-02T13:44:39Z</time>
      </trkpt>
      <trkpt lat="42.32042" lon="2.62221">
        <ele>926.951</ele>
        <time>2011-04-02T13:44:49Z</time>
      </trkpt>
      <trkpt lat="42.32048" lon="2.62236">
        <ele>925.914</ele>
        <time>2011-04-02T13:45:00Z</time>
      </trkpt>
      <trkpt lat="42.32053" lon="2.62245">
        <ele>925.992</ele>
        <time>2011-04-02T13:45:05Z</time>
      </trkpt>
      <trkpt lat="42.32065" lon="2.62262">
        <ele>926.973</ele>
        <time>2011-04-02T13:45:15Z</time>
      </trkpt>
      <trkpt lat="42.32067" lon="2.62264">
        <ele>927.32</ele>
        <time>2011-04-02T13:45:17Z</time>
      </trkpt>
      <trkpt lat="42.32074" lon="2.62272">
        <ele>927.307</ele>
        <time>2011-04-02T13:45:26Z</time>
      </trkpt>
      <trkpt lat="42.32078" lon="2.6228">
        <ele>926.95</ele>
        <time>2011-04-02T13:45:32Z</time>
      </trkpt>
      <trkpt lat="42.32084" lon="2.623">
        <ele>927.394</ele>
        <time>2011-04-02T13:45:42Z</time>
      </trkpt>
      <trkpt lat="42.32092" lon="2.62325">
        <ele>925.997</ele>
        <time>2011-04-02T13:45:55Z</time>
      </trkpt>
      <trkpt lat="42.32098" lon="2.62348">
        <ele>926.466</ele>
        <time>2011-04-02T13:46:07Z</time>
      </trkpt>
      <trkpt lat="42.32105" lon="2.62366">
        <ele>927.813</ele>
        <time>2011-04-02T13:46:19Z</time>
      </trkpt>
      <trkpt lat="42.32119" lon="2.62393">
        <ele>928.391</ele>
        <time>2011-04-02T13:46:37Z</time>
      </trkpt>
      <trkpt lat="42.3212" lon="2.62423">
        <ele>926.984</ele>
        <time>2011-04-02T13:46:48Z</time>
      </trkpt>
      <trkpt lat="42.32119" lon="2.62429">
        <ele>926.449</ele>
        <time>2011-04-02T13:46:50Z</time>
      </trkpt>
      <trkpt lat="42.32119" lon="2.62442">
        <ele>925.902</ele>
        <time>2011-04-02T13:46:55Z</time>
      </trkpt>
      <trkpt lat="42.32123" lon="2.62457">
        <ele>925.922</ele>
        <time>2011-04-02T13:47:04Z</time>
      </trkpt>
      <trkpt lat="42.32123" lon="2.62466">
        <ele>926.907</ele>
        <time>2011-04-02T13:47:09Z</time>
      </trkpt>
      <trkpt lat="42.32121" lon="2.62488">
        <ele>924.565</ele>
        <time>2011-04-02T13:47:17Z</time>
      </trkpt>
      <trkpt lat="42.32122" lon="2.62501">
        <ele>925.469</ele>
        <time>2011-04-02T13:47:21Z</time>
      </trkpt>
      <trkpt lat="42.32124" lon="2.62518">
        <ele>926.962</ele>
        <time>2011-04-02T13:47:33Z</time>
      </trkpt>
      <trkpt lat="42.32122" lon="2.6254">
        <ele>928.331</ele>
        <time>2011-04-02T13:47:45Z</time>
      </trkpt>
      <trkpt lat="42.32123" lon="2.62551">
        <ele>930.268</ele>
        <time>2011-04-02T13:47:53Z</time>
      </trkpt>
      <trkpt lat="42.32129" lon="2.62568">
        <ele>931.296</ele>
        <time>2011-04-02T13:48:03Z</time>
      </trkpt>
      <trkpt lat="42.3213" lon="2.62573">
        <ele>931.249</ele>
        <time>2011-04-02T13:48:05Z</time>
      </trkpt>
      <trkpt lat="42.32133" lon="2.6258">
        <ele>932.134</ele>
        <time>2011-04-02T13:48:09Z</time>
      </trkpt>
      <trkpt lat="42.3214" lon="2.6259">
        <ele>931.755</ele>
        <time>2011-04-02T13:48:15Z</time>
      </trkpt>
      <trkpt lat="42.32148" lon="2.62614">
        <ele>928.81</ele>
        <time>2011-04-02T13:48:22Z</time>
      </trkpt>
      <trkpt lat="42.32152" lon="2.62621">
        <ele>926.407</ele>
        <time>2011-04-02T13:48:28Z</time>
      </trkpt>
      <trkpt lat="42.32155" lon="2.6263">
        <ele>924.044</ele>
        <time>2011-04-02T13:48:38Z</time>
      </trkpt>
      <trkpt lat="42.32157" lon="2.62637">
        <ele>920.648</ele>
        <time>2011-04-02T13:48:44Z</time>
      </trkpt>
      <trkpt lat="42.32158" lon="2.62637">
        <ele>921.691</ele>
        <time>2011-04-02T13:48:45Z</time>
      </trkpt>
      <trkpt lat="42.32161" lon="2.6264">
        <ele>919.65</ele>
        <time>2011-04-02T13:48:49Z</time>
      </trkpt>
      <trkpt lat="42.32163" lon="2.62641">
        <ele>919.227</ele>
        <time>2011-04-02T13:48:51Z</time>
      </trkpt>
      <trkpt lat="42.32165" lon="2.62643">
        <ele>917.265</ele>
        <time>2011-04-02T13:48:54Z</time>
      </trkpt>
      <trkpt lat="42.32171" lon="2.62651">
        <ele>914.898</ele>
        <time>2011-04-02T13:48:59Z</time>
      </trkpt>
      <trkpt lat="42.32183" lon="2.62655">
        <ele>913.459</ele>
        <time>2011-04-02T13:49:04Z</time>
      </trkpt>
      <trkpt lat="42.32187" lon="2.62657">
        <ele>912.003</ele>
        <time>2011-04-02T13:49:06Z</time>
      </trkpt>
      <trkpt lat="42.3219" lon="2.62658">
        <ele>911.523</ele>
        <time>2011-04-02T13:49:10Z</time>
      </trkpt>
      <trkpt lat="42.32192" lon="2.62662">
        <ele>910.007</ele>
        <time>2011-04-02T13:49:14Z</time>
      </trkpt>
      <trkpt lat="42.32196" lon="2.62677">
        <ele>910.536</ele>
        <time>2011-04-02T13:49:31Z</time>
      </trkpt>
      <trkpt lat="42.32198" lon="2.62682">
        <ele>911.53</ele>
        <time>2011-04-02T13:49:43Z</time>
      </trkpt>
      <trkpt lat="42.322" lon="2.62686">
        <ele>913.453</ele>
        <time>2011-04-02T13:49:48Z</time>
      </trkpt>
      <trkpt lat="42.32196" lon="2.62691">
        <ele>916.312</ele>
        <time>2011-04-02T13:50:01Z</time>
      </trkpt>
      <trkpt lat="42.32184" lon="2.62692">
        <ele>919.679</ele>
        <time>2011-04-02T13:50:16Z</time>
      </trkpt>
      <trkpt lat="42.32185" lon="2.62696">
        <ele>921.647</ele>
        <time>2011-04-02T13:50:27Z</time>
      </trkpt>
      <trkpt lat="42.32181" lon="2.62703">
        <ele>924.57</ele>
        <time>2011-04-02T13:50:37Z</time>
      </trkpt>
      <trkpt lat="42.32175" lon="2.62708">
        <ele>926.416</ele>
        <time>2011-04-02T13:50:48Z</time>
      </trkpt>
      <trkpt lat="42.32173" lon="2.62709">
        <ele>927.376</ele>
        <time>2011-04-02T13:50:52Z</time>
      </trkpt>
      <trkpt lat="42.32175" lon="2.62712">
        <ele>928.813</ele>
        <time>2011-04-02T13:50:57Z</time>
      </trkpt>
      <trkpt lat="42.32177" lon="2.62715">
        <ele>929.307</ele>
        <time>2011-04-02T13:51:01Z</time>
      </trkpt>
      <trkpt lat="42.32171" lon="2.62725">
        <ele>931.272</ele>
        <time>2011-04-02T13:51:13Z</time>
      </trkpt>
      <trkpt lat="42.32167" lon="2.62728">
        <ele>932.156</ele>
        <time>2011-04-02T13:51:18Z</time>
      </trkpt>
      <trkpt lat="42.32167" lon="2.6273">
        <ele>934.169</ele>
        <time>2011-04-02T13:51:30Z</time>
      </trkpt>
      <trkpt lat="42.32165" lon="2.62735">
        <ele>936.998</ele>
        <time>2011-04-02T13:51:38Z</time>
      </trkpt>
      <trkpt lat="42.32158" lon="2.62742">
        <ele>937.955</ele>
        <time>2011-04-02T13:51:47Z</time>
      </trkpt>
      <trkpt lat="42.32155" lon="2.62744">
        <ele>938.433</ele>
        <time>2011-04-02T13:51:50Z</time>
      </trkpt>
      <trkpt lat="42.32147" lon="2.6275">
        <ele>939.456</ele>
        <time>2011-04-02T13:51:56Z</time>
      </trkpt>
      <trkpt lat="42.32127" lon="2.62754">
        <ele>938.953</ele>
        <time>2011-04-02T13:52:12Z</time>
      </trkpt>
      <trkpt lat="42.32123" lon="2.62754">
        <ele>938.904</ele>
        <time>2011-04-02T13:52:15Z</time>
      </trkpt>
      <trkpt lat="42.32115" lon="2.62751">
        <ele>939.414</ele>
        <time>2011-04-02T13:52:21Z</time>
      </trkpt>
      <trkpt lat="42.32103" lon="2.62748">
        <ele>939.407</ele>
        <time>2011-04-02T13:52:29Z</time>
      </trkpt>
      <trkpt lat="42.32095" lon="2.62753">
        <ele>938.996</ele>
        <time>2011-04-02T13:52:37Z</time>
      </trkpt>
      <trkpt lat="42.32093" lon="2.62756">
        <ele>938.49</ele>
        <time>2011-04-02T13:52:40Z</time>
      </trkpt>
      <trkpt lat="42.32087" lon="2.62763">
        <ele>937.433</ele>
        <time>2011-04-02T13:52:48Z</time>
      </trkpt>
      <trkpt lat="42.32078" lon="2.62768">
        <ele>936.922</ele>
        <time>2011-04-02T13:53:01Z</time>
      </trkpt>
      <trkpt lat="42.32071" lon="2.62773">
        <ele>938.959</ele>
        <time>2011-04-02T13:53:17Z</time>
      </trkpt>
      <trkpt lat="42.32068" lon="2.62788">
        <ele>941.817</ele>
        <time>2011-04-02T13:53:32Z</time>
      </trkpt>
      <trkpt lat="42.32066" lon="2.62793">
        <ele>943.26</ele>
        <time>2011-04-02T13:53:36Z</time>
      </trkpt>
      <trkpt lat="42.32062" lon="2.62799">
        <ele>945.661</ele>
        <time>2011-04-02T13:53:50Z</time>
      </trkpt>
      <trkpt lat="42.32057" lon="2.62805">
        <ele>948.521</ele>
        <time>2011-04-02T13:54:04Z</time>
      </trkpt>
      <trkpt lat="42.32061" lon="2.62809">
        <ele>949.913</ele>
        <time>2011-04-02T13:54:17Z</time>
      </trkpt>
      <trkpt lat="42.32063" lon="2.62811">
        <ele>951.407</ele>
        <time>2011-04-02T13:54:26Z</time>
      </trkpt>
      <trkpt lat="42.32063" lon="2.6282">
        <ele>952.897</ele>
        <time>2011-04-02T13:54:38Z</time>
      </trkpt>
      <trkpt lat="42.32063" lon="2.6282">
        <ele>953.391</ele>
        <time>2011-04-02T13:54:39Z</time>
      </trkpt>
      <trkpt lat="42.32068" lon="2.62836">
        <ele>956.784</ele>
        <time>2011-04-02T13:54:55Z</time>
      </trkpt>
      <trkpt lat="42.32067" lon="2.62851">
        <ele>957.683</ele>
        <time>2011-04-02T13:55:08Z</time>
      </trkpt>
      <trkpt lat="42.32064" lon="2.62859">
        <ele>959.58</ele>
        <time>2011-04-02T13:55:22Z</time>
      </trkpt>
      <trkpt lat="42.32064" lon="2.62854">
        <ele>961.528</ele>
        <time>2011-04-02T13:55:29Z</time>
      </trkpt>
      <trkpt lat="42.32072" lon="2.62842">
        <ele>962.951</ele>
        <time>2011-04-02T13:55:43Z</time>
      </trkpt>
      <trkpt lat="42.32075" lon="2.62834">
        <ele>964.866</ele>
        <time>2011-04-02T13:55:50Z</time>
      </trkpt>
      <trkpt lat="42.32076" lon="2.62833">
        <ele>966.329</ele>
        <time>2011-04-02T13:55:53Z</time>
      </trkpt>
      <trkpt lat="42.3208" lon="2.62825">
        <ele>968.721</ele>
        <time>2011-04-02T13:56:04Z</time>
      </trkpt>
      <trkpt lat="42.32084" lon="2.62821">
        <ele>969.207</ele>
        <time>2011-04-02T13:56:11Z</time>
      </trkpt>
      <trkpt lat="42.32089" lon="2.62816">
        <ele>971.117</ele>
        <time>2011-04-02T13:56:18Z</time>
      </trkpt>
      <trkpt lat="42.32093" lon="2.62813">
        <ele>970.141</ele>
        <time>2011-04-02T13:56:22Z</time>
      </trkpt>
      <trkpt lat="42.32103" lon="2.62815">
        <ele>973.034</ele>
        <time>2011-04-02T13:56:32Z</time>
      </trkpt>
      <trkpt lat="42.32101" lon="2.62829">
        <ele>974.443</ele>
        <time>2011-04-02T13:56:45Z</time>
      </trkpt>
      <trkpt lat="42.32101" lon="2.62836">
        <ele>975.97</ele>
        <time>2011-04-02T13:56:52Z</time>
      </trkpt>
      <trkpt lat="42.32101" lon="2.6284">
        <ele>977.358</ele>
        <time>2011-04-02T13:56:56Z</time>
      </trkpt>
      <trkpt lat="42.32103" lon="2.62845">
        <ele>979.781</ele>
        <time>2011-04-02T13:57:07Z</time>
      </trkpt>
      <trkpt lat="42.321" lon="2.62857">
        <ele>982.181</ele>
        <time>2011-04-02T13:57:20Z</time>
      </trkpt>
      <trkpt lat="42.32098" lon="2.62863">
        <ele>985.061</ele>
        <time>2011-04-02T13:57:33Z</time>
      </trkpt>
      <trkpt lat="42.321" lon="2.62871">
        <ele>987.417</ele>
        <time>2011-04-02T13:57:44Z</time>
      </trkpt>
      <trkpt lat="42.32099" lon="2.62876">
        <ele>989.807</ele>
        <time>2011-04-02T13:57:56Z</time>
      </trkpt>
      <trkpt lat="42.32099" lon="2.62889">
        <ele>992.749</ele>
        <time>2011-04-02T13:58:12Z</time>
      </trkpt>
      <trkpt lat="42.32099" lon="2.62896">
        <ele>995.623</ele>
        <time>2011-04-02T13:58:27Z</time>
      </trkpt>
      <trkpt lat="42.32098" lon="2.62902">
        <ele>996.186</ele>
        <time>2011-04-02T13:58:33Z</time>
      </trkpt>
      <trkpt lat="42.321" lon="2.62918">
        <ele>999.995</ele>
        <time>2011-04-02T13:58:48Z</time>
      </trkpt>
      <trkpt lat="42.32098" lon="2.62926">
        <ele>1003.832</ele>
        <time>2011-04-02T13:59:00Z</time>
      </trkpt>
      <trkpt lat="42.32097" lon="2.62943">
        <ele>1006.67</ele>
        <time>2011-04-02T13:59:21Z</time>
      </trkpt>
      <trkpt lat="42.321" lon="2.62953">
        <ele>1009.543</ele>
        <time>2011-04-02T13:59:35Z</time>
      </trkpt>
      <trkpt lat="42.32096" lon="2.62968">
        <ele>1013.454</ele>
        <time>2011-04-02T13:59:51Z</time>
      </trkpt>
      <trkpt lat="42.32095" lon="2.62979">
        <ele>1017.256</ele>
        <time>2011-04-02T14:00:10Z</time>
      </trkpt>
      <trkpt lat="42.32087" lon="2.62993">
        <ele>1018.711</ele>
        <time>2011-04-02T14:00:27Z</time>
      </trkpt>
      <trkpt lat="42.32087" lon="2.63012">
        <ele>1021.107</ele>
        <time>2011-04-02T14:00:43Z</time>
      </trkpt>
      <trkpt lat="42.32083" lon="2.63027">
        <ele>1023.056</ele>
        <time>2011-04-02T14:00:56Z</time>
      </trkpt>
      <trkpt lat="42.32083" lon="2.63034">
        <ele>1023.91</ele>
        <time>2011-04-02T14:01:01Z</time>
      </trkpt>
      <trkpt lat="42.32083" lon="2.63044">
        <ele>1026.393</ele>
        <time>2011-04-02T14:01:14Z</time>
      </trkpt>
      <trkpt lat="42.32084" lon="2.6305">
        <ele>1027.832</ele>
        <time>2011-04-02T14:01:23Z</time>
      </trkpt>
      <trkpt lat="42.32085" lon="2.63064">
        <ele>1031.229</ele>
        <time>2011-04-02T14:01:36Z</time>
      </trkpt>
      <trkpt lat="42.32086" lon="2.63075">
        <ele>1033.627</ele>
        <time>2011-04-02T14:01:48Z</time>
      </trkpt>
      <trkpt lat="42.32086" lon="2.63086">
        <ele>1036.97</ele>
        <time>2011-04-02T14:01:59Z</time>
      </trkpt>
      <trkpt lat="42.32089" lon="2.63095">
        <ele>1039.835</ele>
        <time>2011-04-02T14:02:11Z</time>
      </trkpt>
      <trkpt lat="42.3209" lon="2.63105">
        <ele>1040.886</ele>
        <time>2011-04-02T14:02:26Z</time>
      </trkpt>
      <trkpt lat="42.32091" lon="2.63118">
        <ele>1044.114</ele>
        <time>2011-04-02T14:02:40Z</time>
      </trkpt>
      <trkpt lat="42.32086" lon="2.63129">
        <ele>1046.507</ele>
        <time>2011-04-02T14:02:54Z</time>
      </trkpt>
      <trkpt lat="42.32088" lon="2.63132">
        <ele>1048.024</ele>
        <time>2011-04-02T14:03:07Z</time>
      </trkpt>
      <trkpt lat="42.32088" lon="2.63134">
        <ele>1051.368</ele>
        <time>2011-04-02T14:03:18Z</time>
      </trkpt>
      <trkpt lat="42.32088" lon="2.63143">
        <ele>1054.721</ele>
        <time>2011-04-02T14:03:32Z</time>
      </trkpt>
      <trkpt lat="42.32088" lon="2.63142">
        <ele>1054.78</ele>
        <time>2011-04-02T14:03:45Z</time>
      </trkpt>
      <trkpt lat="42.32088" lon="2.63141">
        <ele>1055.767</ele>
        <time>2011-04-02T14:03:47Z</time>
      </trkpt>
      <trkpt lat="42.32092" lon="2.63142">
        <ele>1059.025</ele>
        <time>2011-04-02T14:04:01Z</time>
      </trkpt>
      <trkpt lat="42.32092" lon="2.63145">
        <ele>1058.638</ele>
        <time>2011-04-02T14:04:03Z</time>
      </trkpt>
      <trkpt lat="42.32097" lon="2.63164">
        <ele>1062.425</ele>
        <time>2011-04-02T14:04:18Z</time>
      </trkpt>
      <trkpt lat="42.32096" lon="2.63176">
        <ele>1065.326</ele>
        <time>2011-04-02T14:04:31Z</time>
      </trkpt>
      <trkpt lat="42.32096" lon="2.63188">
        <ele>1068.608</ele>
        <time>2011-04-02T14:04:48Z</time>
      </trkpt>
      <trkpt lat="42.32091" lon="2.63202">
        <ele>1072.507</ele>
        <time>2011-04-02T14:05:05Z</time>
      </trkpt>
      <trkpt lat="42.32091" lon="2.63202">
        <ele>1072.063</ele>
        <time>2011-04-02T14:05:06Z</time>
      </trkpt>
      <trkpt lat="42.32089" lon="2.63212">
        <ele>1076.347</ele>
        <time>2011-04-02T14:05:21Z</time>
      </trkpt>
      <trkpt lat="42.32088" lon="2.63225">
        <ele>1079.72</ele>
        <time>2011-04-02T14:05:38Z</time>
      </trkpt>
      <trkpt lat="42.32084" lon="2.63237">
        <ele>1083.599</ele>
        <time>2011-04-02T14:05:51Z</time>
      </trkpt>
      <trkpt lat="42.32083" lon="2.63252">
        <ele>1085.096</ele>
        <time>2011-04-02T14:06:10Z</time>
      </trkpt>
      <trkpt lat="42.32077" lon="2.63259">
        <ele>1088.444</ele>
        <time>2011-04-02T14:06:23Z</time>
      </trkpt>
      <trkpt lat="42.32072" lon="2.63275">
        <ele>1091.767</ele>
        <time>2011-04-02T14:06:39Z</time>
      </trkpt>
      <trkpt lat="42.32075" lon="2.6328">
        <ele>1093.292</ele>
        <time>2011-04-02T14:06:53Z</time>
      </trkpt>
      <trkpt lat="42.32077" lon="2.63281">
        <ele>1094.673</ele>
        <time>2011-04-02T14:06:56Z</time>
      </trkpt>
      <trkpt lat="42.32079" lon="2.63289">
        <ele>1097.52</ele>
        <time>2011-04-02T14:07:11Z</time>
      </trkpt>
      <trkpt lat="42.32078" lon="2.63304">
        <ele>1098.007</ele>
        <time>2011-04-02T14:07:25Z</time>
      </trkpt>
      <trkpt lat="42.32077" lon="2.63311">
        <ele>1100.92</ele>
        <time>2011-04-02T14:07:46Z</time>
      </trkpt>
      <trkpt lat="42.32078" lon="2.63327">
        <ele>1103.774</ele>
        <time>2011-04-02T14:08:00Z</time>
      </trkpt>
      <trkpt lat="42.32078" lon="2.6333">
        <ele>1107.147</ele>
        <time>2011-04-02T14:08:15Z</time>
      </trkpt>
      <trkpt lat="42.32077" lon="2.63344">
        <ele>1110.976</ele>
        <time>2011-04-02T14:08:28Z</time>
      </trkpt>
      <trkpt lat="42.32084" lon="2.63349">
        <ele>1113.843</ele>
        <time>2011-04-02T14:08:47Z</time>
      </trkpt>
      <trkpt lat="42.32085" lon="2.6335">
        <ele>1115.341</ele>
        <time>2011-04-02T14:09:04Z</time>
      </trkpt>
      <trkpt lat="42.32084" lon="2.63349">
        <ele>1114.324</ele>
        <time>2011-04-02T14:09:46Z</time>
      </trkpt>
      <trkpt lat="42.32084" lon="2.63349">
        <ele>1113.825</ele>
        <time>2011-04-02T14:10:28Z</time>
      </trkpt>
      <trkpt lat="42.32078" lon="2.6336">
        <ele>1116.226</ele>
        <time>2011-04-02T14:10:42Z</time>
      </trkpt>
      <trkpt lat="42.32063" lon="2.63379">
        <ele>1119.108</ele>
        <time>2011-04-02T14:11:01Z</time>
      </trkpt>
      <trkpt lat="42.32058" lon="2.63384">
        <ele>1119.607</ele>
        <time>2011-04-02T14:11:07Z</time>
      </trkpt>
      <trkpt lat="42.32057" lon="2.63386">
        <ele>1120.173</ele>
        <time>2011-04-02T14:11:09Z</time>
      </trkpt>
      <trkpt lat="42.32043" lon="2.63402">
        <ele>1122.057</ele>
        <time>2011-04-02T14:11:24Z</time>
      </trkpt>
      <trkpt lat="42.32031" lon="2.63412">
        <ele>1122.57</ele>
        <time>2011-04-02T14:11:37Z</time>
      </trkpt>
      <trkpt lat="42.32029" lon="2.63415">
        <ele>1123.959</ele>
        <time>2011-04-02T14:11:39Z</time>
      </trkpt>
      <trkpt lat="42.32017" lon="2.63425">
        <ele>1126.376</ele>
        <time>2011-04-02T14:11:54Z</time>
      </trkpt>
      <trkpt lat="42.32005" lon="2.63431">
        <ele>1128.224</ele>
        <time>2011-04-02T14:12:06Z</time>
      </trkpt>
      <trkpt lat="42.31996" lon="2.63438">
        <ele>1130.767</ele>
        <time>2011-04-02T14:12:19Z</time>
      </trkpt>
      <trkpt lat="42.31995" lon="2.63439">
        <ele>1129.773</ele>
        <time>2011-04-02T14:12:21Z</time>
      </trkpt>
      <trkpt lat="42.3199" lon="2.63445">
        <ele>1129.785</ele>
        <time>2011-04-02T14:12:27Z</time>
      </trkpt>
      <trkpt lat="42.3198" lon="2.63459">
        <ele>1128.713</ele>
        <time>2011-04-02T14:12:39Z</time>
      </trkpt>
      <trkpt lat="42.31973" lon="2.63465">
        <ele>1128.207</ele>
        <time>2011-04-02T14:12:46Z</time>
      </trkpt>
      <trkpt lat="42.31969" lon="2.63467">
        <ele>1128.758</ele>
        <time>2011-04-02T14:12:50Z</time>
      </trkpt>
      <trkpt lat="42.31949" lon="2.63482">
        <ele>1129.272</ele>
        <time>2011-04-02T14:13:06Z</time>
      </trkpt>
      <trkpt lat="42.31939" lon="2.635">
        <ele>1129.715</ele>
        <time>2011-04-02T14:13:20Z</time>
      </trkpt>
      <trkpt lat="42.31938" lon="2.63502">
        <ele>1129.784</ele>
        <time>2011-04-02T14:13:22Z</time>
      </trkpt>
      <trkpt lat="42.31926" lon="2.63513">
        <ele>1130.281</ele>
        <time>2011-04-02T14:13:34Z</time>
      </trkpt>
      <trkpt lat="42.31917" lon="2.6352">
        <ele>1128.749</ele>
        <time>2011-04-02T14:13:42Z</time>
      </trkpt>
      <trkpt lat="42.31898" lon="2.63534">
        <ele>1129.262</ele>
        <time>2011-04-02T14:13:56Z</time>
      </trkpt>
      <trkpt lat="42.31895" lon="2.63536">
        <ele>1128.294</ele>
        <time>2011-04-02T14:13:58Z</time>
      </trkpt>
      <trkpt lat="42.31884" lon="2.63544">
        <ele>1128.757</ele>
        <time>2011-04-02T14:14:07Z</time>
      </trkpt>
      <trkpt lat="42.31874" lon="2.63566">
        <ele>1129.222</ele>
        <time>2011-04-02T14:14:22Z</time>
      </trkpt>
      <trkpt lat="42.31868" lon="2.63576">
        <ele>1129.707</ele>
        <time>2011-04-02T14:14:29Z</time>
      </trkpt>
      <trkpt lat="42.31853" lon="2.63597">
        <ele>1130.73</ele>
        <time>2011-04-02T14:14:45Z</time>
      </trkpt>
      <trkpt lat="42.3185" lon="2.63598">
        <ele>1131.124</ele>
        <time>2011-04-02T14:14:47Z</time>
      </trkpt>
      <trkpt lat="42.3184" lon="2.63596">
        <ele>1129.257</ele>
        <time>2011-04-02T14:14:51Z</time>
      </trkpt>
      <trkpt lat="42.31818" lon="2.63592">
        <ele>1128.276</ele>
        <time>2011-04-02T14:15:02Z</time>
      </trkpt>
      <trkpt lat="42.31798" lon="2.63593">
        <ele>1125.893</ele>
        <time>2011-04-02T14:15:17Z</time>
      </trkpt>
      <trkpt lat="42.31785" lon="2.63613">
        <ele>1123.431</ele>
        <time>2011-04-02T14:15:27Z</time>
      </trkpt>
      <trkpt lat="42.31775" lon="2.63639">
        <ele>1122.534</ele>
        <time>2011-04-02T14:15:39Z</time>
      </trkpt>
      <trkpt lat="42.31774" lon="2.63645">
        <ele>1122.046</ele>
        <time>2011-04-02T14:15:41Z</time>
      </trkpt>
      <trkpt lat="42.31771" lon="2.63658">
        <ele>1121.588</ele>
        <time>2011-04-02T14:15:45Z</time>
      </trkpt>
      <trkpt lat="42.31772" lon="2.63677">
        <ele>1122.016</ele>
        <time>2011-04-02T14:15:51Z</time>
      </trkpt>
      <trkpt lat="42.31773" lon="2.63707">
        <ele>1121.507</ele>
        <time>2011-04-02T14:16:02Z</time>
      </trkpt>
      <trkpt lat="42.31776" lon="2.63749">
        <ele>1120.155</ele>
        <time>2011-04-02T14:16:16Z</time>
      </trkpt>
      <trkpt lat="42.31774" lon="2.63786">
        <ele>1117.729</ele>
        <time>2011-04-02T14:16:28Z</time>
      </trkpt>
      <trkpt lat="42.31775" lon="2.63822">
        <ele>1115.852</ele>
        <time>2011-04-02T14:16:40Z</time>
      </trkpt>
      <trkpt lat="42.31774" lon="2.63849">
        <ele>1115.371</ele>
        <time>2011-04-02T14:16:50Z</time>
      </trkpt>
      <trkpt lat="42.31773" lon="2.639">
        <ele>1113.358</ele>
        <time>2011-04-02T14:17:07Z</time>
      </trkpt>
      <trkpt lat="42.31766" lon="2.6393">
        <ele>1111.486</ele>
        <time>2011-04-02T14:17:18Z</time>
      </trkpt>
      <trkpt lat="42.31755" lon="2.63973">
        <ele>1108.599</ele>
        <time>2011-04-02T14:17:32Z</time>
      </trkpt>
      <trkpt lat="42.31729" lon="2.64001">
        <ele>1108.595</ele>
        <time>2011-04-02T14:17:45Z</time>
      </trkpt>
      <trkpt lat="42.31707" lon="2.64022">
        <ele>1108.149</ele>
        <time>2011-04-02T14:17:58Z</time>
      </trkpt>
      <trkpt lat="42.31702" lon="2.64027">
        <ele>1108.123</ele>
        <time>2011-04-02T14:18:01Z</time>
      </trkpt>
      <trkpt lat="42.31682" lon="2.64038">
        <ele>1106.607</ele>
        <time>2011-04-02T14:18:10Z</time>
      </trkpt>
      <trkpt lat="42.31649" lon="2.64038">
        <ele>1104.29</ele>
        <time>2011-04-02T14:18:23Z</time>
      </trkpt>
      <trkpt lat="42.3164" lon="2.64036">
        <ele>1103.724</ele>
        <time>2011-04-02T14:18:27Z</time>
      </trkpt>
      <trkpt lat="42.31633" lon="2.64033">
        <ele>1102.367</ele>
        <time>2011-04-02T14:18:30Z</time>
      </trkpt>
      <trkpt lat="42.31621" lon="2.64022">
        <ele>1099.926</ele>
        <time>2011-04-02T14:18:35Z</time>
      </trkpt>
      <trkpt lat="42.31612" lon="2.6401">
        <ele>1098.493</ele>
        <time>2011-04-02T14:18:40Z</time>
      </trkpt>
      <trkpt lat="42.316" lon="2.63995">
        <ele>1095.161</ele>
        <time>2011-04-02T14:18:47Z</time>
      </trkpt>
      <trkpt lat="42.31593" lon="2.63979">
        <ele>1093.244</ele>
        <time>2011-04-02T14:18:53Z</time>
      </trkpt>
      <trkpt lat="42.31585" lon="2.63966">
        <ele>1092.226</ele>
        <time>2011-04-02T14:19:01Z</time>
      </trkpt>
      <trkpt lat="42.31571" lon="2.6396">
        <ele>1088.447</ele>
        <time>2011-04-02T14:19:13Z</time>
      </trkpt>
      <trkpt lat="42.31566" lon="2.63961">
        <ele>1086.911</ele>
        <time>2011-04-02T14:19:24Z</time>
      </trkpt>
      <trkpt lat="42.31567" lon="2.63962">
        <ele>1086.007</ele>
        <time>2011-04-02T14:19:26Z</time>
      </trkpt>
      <trkpt lat="42.31569" lon="2.63964">
        <ele>1085.093</ele>
        <time>2011-04-02T14:19:30Z</time>
      </trkpt>
      <trkpt lat="42.31567" lon="2.63967">
        <ele>1083.587</ele>
        <time>2011-04-02T14:19:35Z</time>
      </trkpt>
      <trkpt lat="42.31563" lon="2.63967">
        <ele>1081.16</ele>
        <time>2011-04-02T14:19:43Z</time>
      </trkpt>
      <trkpt lat="42.31568" lon="2.63981">
        <ele>1079.759</ele>
        <time>2011-04-02T14:19:54Z</time>
      </trkpt>
      <trkpt lat="42.31569" lon="2.63983">
        <ele>1079.236</ele>
        <time>2011-04-02T14:19:57Z</time>
      </trkpt>
      <trkpt lat="42.31571" lon="2.63994">
        <ele>1077.834</ele>
        <time>2011-04-02T14:20:06Z</time>
      </trkpt>
      <trkpt lat="42.31572" lon="2.64011">
        <ele>1075.457</ele>
        <time>2011-04-02T14:20:15Z</time>
      </trkpt>
      <trkpt lat="42.31573" lon="2.64031">
        <ele>1074.491</ele>
        <time>2011-04-02T14:20:26Z</time>
      </trkpt>
      <trkpt lat="42.31574" lon="2.64048">
        <ele>1074.481</ele>
        <time>2011-04-02T14:20:36Z</time>
      </trkpt>
      <trkpt lat="42.31573" lon="2.64053">
        <ele>1073.519</ele>
        <time>2011-04-02T14:20:39Z</time>
      </trkpt>
      <trkpt lat="42.31572" lon="2.64073">
        <ele>1072.007</ele>
        <time>2011-04-02T14:20:46Z</time>
      </trkpt>
      <trkpt lat="42.31572" lon="2.64083">
        <ele>1069.65</ele>
        <time>2011-04-02T14:20:53Z</time>
      </trkpt>
      <trkpt lat="42.3157" lon="2.64088">
        <ele>1068.644</ele>
        <time>2011-04-02T14:20:56Z</time>
      </trkpt>
      <trkpt lat="42.31568" lon="2.64091">
        <ele>1068.257</ele>
        <time>2011-04-02T14:20:58Z</time>
      </trkpt>
      <trkpt lat="42.31561" lon="2.64103">
        <ele>1065.376</ele>
        <time>2011-04-02T14:21:04Z</time>
      </trkpt>
      <trkpt lat="42.31559" lon="2.64111">
        <ele>1064.893</ele>
        <time>2011-04-02T14:21:10Z</time>
      </trkpt>
      <trkpt lat="42.31554" lon="2.6412">
        <ele>1062.441</ele>
        <time>2011-04-02T14:21:17Z</time>
      </trkpt>
      <trkpt lat="42.31553" lon="2.64123">
        <ele>1062.464</ele>
        <time>2011-04-02T14:21:19Z</time>
      </trkpt>
      <trkpt lat="42.31551" lon="2.64129">
        <ele>1060.521</ele>
        <time>2011-04-02T14:21:22Z</time>
      </trkpt>
      <trkpt lat="42.31547" lon="2.64138">
        <ele>1059.041</ele>
        <time>2011-04-02T14:21:26Z</time>
      </trkpt>
      <trkpt lat="42.31544" lon="2.64153">
        <ele>1056.605</ele>
        <time>2011-04-02T14:21:44Z</time>
      </trkpt>
      <trkpt lat="42.31542" lon="2.64159">
        <ele>1056.207</ele>
        <time>2011-04-02T14:21:49Z</time>
      </trkpt>
      <trkpt lat="42.3154" lon="2.64164">
        <ele>1054.783</ele>
        <time>2011-04-02T14:21:52Z</time>
      </trkpt>
      <trkpt lat="42.31539" lon="2.64167">
        <ele>1054.247</ele>
        <time>2011-04-02T14:21:54Z</time>
      </trkpt>
      <trkpt lat="42.31537" lon="2.64169">
        <ele>1054.25</ele>
        <time>2011-04-02T14:21:56Z</time>
      </trkpt>
      <trkpt lat="42.31535" lon="2.64172">
        <ele>1052.869</ele>
        <time>2011-04-02T14:21:59Z</time>
      </trkpt>
      <trkpt lat="42.31533" lon="2.64174">
        <ele>1051.866</ele>
        <time>2011-04-02T14:22:01Z</time>
      </trkpt>
      <trkpt lat="42.31529" lon="2.64173">
        <ele>1049.924</ele>
        <time>2011-04-02T14:22:07Z</time>
      </trkpt>
      <trkpt lat="42.31522" lon="2.64165">
        <ele>1047.027</ele>
        <time>2011-04-02T14:22:20Z</time>
      </trkpt>
      <trkpt lat="42.3152" lon="2.64168">
        <ele>1046.562</ele>
        <time>2011-04-02T14:22:23Z</time>
      </trkpt>
      <trkpt lat="42.31519" lon="2.64171">
        <ele>1045.183</ele>
        <time>2011-04-02T14:22:26Z</time>
      </trkpt>
      <trkpt lat="42.31518" lon="2.64183">
        <ele>1044.111</ele>
        <time>2011-04-02T14:22:35Z</time>
      </trkpt>
      <trkpt lat="42.31522" lon="2.64198">
        <ele>1042.707</ele>
        <time>2011-04-02T14:22:49Z</time>
      </trkpt>
      <trkpt lat="42.31518" lon="2.64205">
        <ele>1040.847</ele>
        <time>2011-04-02T14:22:57Z</time>
      </trkpt>
      <trkpt lat="42.31511" lon="2.64196">
        <ele>1038.871</ele>
        <time>2011-04-02T14:23:11Z</time>
      </trkpt>
      <trkpt lat="42.31506" lon="2.64191">
        <ele>1035.594</ele>
        <time>2011-04-02T14:23:23Z</time>
      </trkpt>
      <trkpt lat="42.31505" lon="2.64192">
        <ele>1035.093</ele>
        <time>2011-04-02T14:23:25Z</time>
      </trkpt>
      <trkpt lat="42.31504" lon="2.64195">
        <ele>1034.09</ele>
        <time>2011-04-02T14:23:29Z</time>
      </trkpt>
      <trkpt lat="42.31504" lon="2.64196">
        <ele>1034.078</ele>
        <time>2011-04-02T14:23:30Z</time>
      </trkpt>
      <trkpt lat="42.31503" lon="2.64199">
        <ele>1033.681</ele>
        <time>2011-04-02T14:23:33Z</time>
      </trkpt>
      <trkpt lat="42.31502" lon="2.64202">
        <ele>1033.663</ele>
        <time>2011-04-02T14:23:35Z</time>
      </trkpt>
      <trkpt lat="42.315" lon="2.64208">
        <ele>1033.644</ele>
        <time>2011-04-02T14:23:39Z</time>
      </trkpt>
      <trkpt lat="42.31502" lon="2.6422">
        <ele>1033.118</ele>
        <time>2011-04-02T14:23:46Z</time>
      </trkpt>
      <trkpt lat="42.31503" lon="2.64241">
        <ele>1031.607</ele>
        <time>2011-04-02T14:23:59Z</time>
      </trkpt>
      <trkpt lat="42.31502" lon="2.64245">
        <ele>1030.787</ele>
        <time>2011-04-02T14:24:03Z</time>
      </trkpt>
      <trkpt lat="42.31496" lon="2.64261">
        <ele>1027.811</ele>
        <time>2011-04-02T14:24:15Z</time>
      </trkpt>
      <trkpt lat="42.31492" lon="2.64255">
        <ele>1025.444</ele>
        <time>2011-04-02T14:24:24Z</time>
      </trkpt>
      <trkpt lat="42.31492" lon="2.64246">
        <ele>1023.943</ele>
        <time>2011-04-02T14:24:31Z</time>
      </trkpt>
      <trkpt lat="42.31491" lon="2.64241">
        <ele>1023.07</ele>
        <time>2011-04-02T14:24:37Z</time>
      </trkpt>
      <trkpt lat="42.31486" lon="2.64245">
        <ele>1019.188</ele>
        <time>2011-04-02T14:24:50Z</time>
      </trkpt>
      <trkpt lat="42.31483" lon="2.64241">
        <ele>1016.781</ele>
        <time>2011-04-02T14:24:59Z</time>
      </trkpt>
      <trkpt lat="42.3148" lon="2.64251">
        <ele>1013.489</ele>
        <time>2011-04-02T14:25:09Z</time>
      </trkpt>
      <trkpt lat="42.31479" lon="2.64252">
        <ele>1013.406</ele>
        <time>2011-04-02T14:25:10Z</time>
      </trkpt>
      <trkpt lat="42.31474" lon="2.6427">
        <ele>1010.526</ele>
        <time>2011-04-02T14:25:21Z</time>
      </trkpt>
      <trkpt lat="42.31474" lon="2.64272">
        <ele>1010.507</ele>
        <time>2011-04-02T14:25:22Z</time>
      </trkpt>
      <trkpt lat="42.31466" lon="2.6428">
        <ele>1006.269</ele>
        <time>2011-04-02T14:25:36Z</time>
      </trkpt>
      <trkpt lat="42.31464" lon="2.64276">
        <ele>1005.723</ele>
        <time>2011-04-02T14:25:40Z</time>
      </trkpt>
      <trkpt lat="42.31463" lon="2.64269">
        <ele>1004.286</ele>
        <time>2011-04-02T14:25:46Z</time>
      </trkpt>
      <trkpt lat="42.31463" lon="2.64263">
        <ele>1002.385</ele>
        <time>2011-04-02T14:25:50Z</time>
      </trkpt>
      <trkpt lat="42.31461" lon="2.64261">
        <ele>1002.392</ele>
        <time>2011-04-02T14:25:53Z</time>
      </trkpt>
      <trkpt lat="42.31459" lon="2.64277">
        <ele>999.47</ele>
        <time>2011-04-02T14:26:07Z</time>
      </trkpt>
      <trkpt lat="42.31458" lon="2.64278">
        <ele>999.013</ele>
        <time>2011-04-02T14:26:08Z</time>
      </trkpt>
      <trkpt lat="42.31456" lon="2.64283">
        <ele>998.044</ele>
        <time>2011-04-02T14:26:12Z</time>
      </trkpt>
      <trkpt lat="42.31451" lon="2.64285">
        <ele>996.105</ele>
        <time>2011-04-02T14:26:21Z</time>
      </trkpt>
      <trkpt lat="42.3145" lon="2.64287">
        <ele>996.115</ele>
        <time>2011-04-02T14:26:23Z</time>
      </trkpt>
      <trkpt lat="42.31445" lon="2.643">
        <ele>992.207</ele>
        <time>2011-04-02T14:26:33Z</time>
      </trkpt>
      <trkpt lat="42.31438" lon="2.64308">
        <ele>988.925</ele>
        <time>2011-04-02T14:26:46Z</time>
      </trkpt>
      <trkpt lat="42.31438" lon="2.64312">
        <ele>987.499</ele>
        <time>2011-04-02T14:26:50Z</time>
      </trkpt>
      <trkpt lat="42.3143" lon="2.64318">
        <ele>985.052</ele>
        <time>2011-04-02T14:27:01Z</time>
      </trkpt>
      <trkpt lat="42.31428" lon="2.64323">
        <ele>983.641</ele>
        <time>2011-04-02T14:27:05Z</time>
      </trkpt>
      <trkpt lat="42.31427" lon="2.64325">
        <ele>982.638</ele>
        <time>2011-04-02T14:27:07Z</time>
      </trkpt>
      <trkpt lat="42.31424" lon="2.64332">
        <ele>981.286</ele>
        <time>2011-04-02T14:27:13Z</time>
      </trkpt>
      <trkpt lat="42.31417" lon="2.64341">
        <ele>978.379</ele>
        <time>2011-04-02T14:27:24Z</time>
      </trkpt>
      <trkpt lat="42.31412" lon="2.64345">
        <ele>975.979</ele>
        <time>2011-04-02T14:27:31Z</time>
      </trkpt>
      <trkpt lat="42.31407" lon="2.64359">
        <ele>972.505</ele>
        <time>2011-04-02T14:27:42Z</time>
      </trkpt>
      <trkpt lat="42.31406" lon="2.64364">
        <ele>971.125</ele>
        <time>2011-04-02T14:27:47Z</time>
      </trkpt>
      <trkpt lat="42.31404" lon="2.64364">
        <ele>970.107</ele>
        <time>2011-04-02T14:27:50Z</time>
      </trkpt>
      <trkpt lat="42.314" lon="2.64358">
        <ele>968.768</ele>
        <time>2011-04-02T14:27:55Z</time>
      </trkpt>
      <trkpt lat="42.31397" lon="2.64352">
        <ele>967.272</ele>
        <time>2011-04-02T14:28:06Z</time>
      </trkpt>
      <trkpt lat="42.31395" lon="2.64356">
        <ele>964.875</ele>
        <time>2011-04-02T14:28:13Z</time>
      </trkpt>
      <trkpt lat="42.31394" lon="2.64356">
        <ele>963.984</ele>
        <time>2011-04-02T14:28:15Z</time>
      </trkpt>
      <trkpt lat="42.31387" lon="2.64361">
        <ele>960.551</ele>
        <time>2011-04-02T14:28:26Z</time>
      </trkpt>
      <trkpt lat="42.31387" lon="2.64362">
        <ele>961.049</ele>
        <time>2011-04-02T14:28:27Z</time>
      </trkpt>
      <trkpt lat="42.31385" lon="2.64364">
        <ele>960.082</ele>
        <time>2011-04-02T14:28:29Z</time>
      </trkpt>
      <trkpt lat="42.31382" lon="2.64371">
        <ele>958.655</ele>
        <time>2011-04-02T14:28:34Z</time>
      </trkpt>
      <trkpt lat="42.31379" lon="2.64372">
        <ele>957.107</ele>
        <time>2011-04-02T14:28:38Z</time>
      </trkpt>
      <trkpt lat="42.31378" lon="2.64372">
        <ele>957.617</ele>
        <time>2011-04-02T14:28:39Z</time>
      </trkpt>
      <trkpt lat="42.31376" lon="2.64369">
        <ele>956.207</ele>
        <time>2011-04-02T14:28:43Z</time>
      </trkpt>
      <trkpt lat="42.31374" lon="2.64365">
        <ele>955.796</ele>
        <time>2011-04-02T14:28:46Z</time>
      </trkpt>
      <trkpt lat="42.31373" lon="2.6436">
        <ele>955.24</ele>
        <time>2011-04-02T14:28:49Z</time>
      </trkpt>
      <trkpt lat="42.31369" lon="2.64349">
        <ele>952.363</ele>
        <time>2011-04-02T14:29:03Z</time>
      </trkpt>
      <trkpt lat="42.31362" lon="2.64355">
        <ele>949.052</ele>
        <time>2011-04-02T14:29:14Z</time>
      </trkpt>
      <trkpt lat="42.31361" lon="2.64357">
        <ele>948.519</ele>
        <time>2011-04-02T14:29:16Z</time>
      </trkpt>
      <trkpt lat="42.31357" lon="2.64367">
        <ele>944.627</ele>
        <time>2011-04-02T14:29:27Z</time>
      </trkpt>
      <trkpt lat="42.31356" lon="2.64368">
        <ele>944.64</ele>
        <time>2011-04-02T14:29:28Z</time>
      </trkpt>
      <trkpt lat="42.31353" lon="2.64379">
        <ele>941.399</ele>
        <time>2011-04-02T14:29:38Z</time>
      </trkpt>
      <trkpt lat="42.31353" lon="2.6438">
        <ele>941.307</ele>
        <time>2011-04-02T14:29:39Z</time>
      </trkpt>
      <trkpt lat="42.31351" lon="2.64384">
        <ele>941.327</ele>
        <time>2011-04-02T14:29:42Z</time>
      </trkpt>
      <trkpt lat="42.31348" lon="2.64394">
        <ele>939.807</ele>
        <time>2011-04-02T14:29:49Z</time>
      </trkpt>
      <trkpt lat="42.31346" lon="2.64399">
        <ele>938.97</ele>
        <time>2011-04-02T14:29:54Z</time>
      </trkpt>
      <trkpt lat="42.31343" lon="2.64403">
        <ele>936.934</ele>
        <time>2011-04-02T14:29:59Z</time>
      </trkpt>
      <trkpt lat="42.31342" lon="2.64406">
        <ele>936.947</ele>
        <time>2011-04-02T14:30:01Z</time>
      </trkpt>
      <trkpt lat="42.31338" lon="2.64416">
        <ele>933.656</ele>
        <time>2011-04-02T14:30:10Z</time>
      </trkpt>
      <trkpt lat="42.31333" lon="2.64423">
        <ele>931.773</ele>
        <time>2011-04-02T14:30:19Z</time>
      </trkpt>
      <trkpt lat="42.31328" lon="2.64423">
        <ele>928.821</ele>
        <time>2011-04-02T14:30:27Z</time>
      </trkpt>
      <trkpt lat="42.31328" lon="2.64422">
        <ele>927.834</ele>
        <time>2011-04-02T14:30:28Z</time>
      </trkpt>
      <trkpt lat="42.31325" lon="2.6442">
        <ele>926.991</ele>
        <time>2011-04-02T14:30:35Z</time>
      </trkpt>
      <trkpt lat="42.3132" lon="2.64441">
        <ele>924.081</ele>
        <time>2011-04-02T14:30:49Z</time>
      </trkpt>
      <trkpt lat="42.31319" lon="2.64457">
        <ele>923.019</ele>
        <time>2011-04-02T14:30:58Z</time>
      </trkpt>
      <trkpt lat="42.3132" lon="2.6446">
        <ele>923.007</ele>
        <time>2011-04-02T14:31:00Z</time>
      </trkpt>
      <trkpt lat="42.31317" lon="2.6447">
        <ele>919.61</ele>
        <time>2011-04-02T14:31:09Z</time>
      </trkpt>
      <trkpt lat="42.31314" lon="2.64483">
        <ele>916.824</ele>
        <time>2011-04-02T14:31:21Z</time>
      </trkpt>
      <trkpt lat="42.31308" lon="2.64484">
        <ele>914.827</ele>
        <time>2011-04-02T14:31:33Z</time>
      </trkpt>
      <trkpt lat="42.31304" lon="2.64494">
        <ele>911.526</ele>
        <time>2011-04-02T14:31:44Z</time>
      </trkpt>
      <trkpt lat="42.31302" lon="2.64503">
        <ele>908.663</ele>
        <time>2011-04-02T14:31:53Z</time>
      </trkpt>
      <trkpt lat="42.31298" lon="2.64511">
        <ele>907.181</ele>
        <time>2011-04-02T14:32:03Z</time>
      </trkpt>
      <trkpt lat="42.31292" lon="2.64516">
        <ele>903.344</ele>
        <time>2011-04-02T14:32:18Z</time>
      </trkpt>
      <trkpt lat="42.31287" lon="2.64521">
        <ele>900.471</ele>
        <time>2011-04-02T14:32:33Z</time>
      </trkpt>
      <trkpt lat="42.31288" lon="2.64527">
        <ele>899.041</ele>
        <time>2011-04-02T14:32:39Z</time>
      </trkpt>
      <trkpt lat="42.31285" lon="2.64537">
        <ele>896.615</ele>
        <time>2011-04-02T14:32:51Z</time>
      </trkpt>
      <trkpt lat="42.31284" lon="2.64544">
        <ele>895.107</ele>
        <time>2011-04-02T14:32:56Z</time>
      </trkpt>
      <trkpt lat="42.31282" lon="2.64558">
        <ele>891.328</ele>
        <time>2011-04-02T14:33:10Z</time>
      </trkpt>
      <trkpt lat="42.31279" lon="2.64567">
        <ele>889.432</ele>
        <time>2011-04-02T14:33:23Z</time>
      </trkpt>
      <trkpt lat="42.31277" lon="2.64573">
        <ele>887.085</ele>
        <time>2011-04-02T14:33:33Z</time>
      </trkpt>
      <trkpt lat="42.31274" lon="2.64579">
        <ele>884.674</ele>
        <time>2011-04-02T14:33:46Z</time>
      </trkpt>
      <trkpt lat="42.31277" lon="2.64592">
        <ele>881.271</ele>
        <time>2011-04-02T14:33:58Z</time>
      </trkpt>
      <trkpt lat="42.31275" lon="2.64598">
        <ele>879.399</ele>
        <time>2011-04-02T14:34:07Z</time>
      </trkpt>
      <trkpt lat="42.31276" lon="2.64607">
        <ele>875.432</ele>
        <time>2011-04-02T14:34:19Z</time>
      </trkpt>
      <trkpt lat="42.31275" lon="2.64608">
        <ele>875.479</ele>
        <time>2011-04-02T14:34:20Z</time>
      </trkpt>
      <trkpt lat="42.31271" lon="2.64621">
        <ele>873.505</ele>
        <time>2011-04-02T14:34:32Z</time>
      </trkpt>
      <trkpt lat="42.31272" lon="2.64623">
        <ele>872.525</ele>
        <time>2011-04-02T14:34:35Z</time>
      </trkpt>
      <trkpt lat="42.31272" lon="2.64629">
        <ele>871.107</ele>
        <time>2011-04-02T14:34:39Z</time>
      </trkpt>
      <trkpt lat="42.31277" lon="2.64649">
        <ele>869.298</ele>
        <time>2011-04-02T14:34:54Z</time>
      </trkpt>
      <trkpt lat="42.31278" lon="2.64663">
        <ele>866.372</ele>
        <time>2011-04-02T14:35:04Z</time>
      </trkpt>
      <trkpt lat="42.31276" lon="2.64679">
        <ele>863.425</ele>
        <time>2011-04-02T14:35:17Z</time>
      </trkpt>
      <trkpt lat="42.31277" lon="2.64685">
        <ele>862.464</ele>
        <time>2011-04-02T14:35:22Z</time>
      </trkpt>
      <trkpt lat="42.31277" lon="2.64689">
        <ele>863.491</ele>
        <time>2011-04-02T14:35:24Z</time>
      </trkpt>
      <trkpt lat="42.31277" lon="2.64695">
        <ele>862.959</ele>
        <time>2011-04-02T14:35:27Z</time>
      </trkpt>
      <trkpt lat="42.31276" lon="2.6472">
        <ele>859.132</ele>
        <time>2011-04-02T14:35:37Z</time>
      </trkpt>
      <trkpt lat="42.31274" lon="2.64738">
        <ele>855.748</ele>
        <time>2011-04-02T14:35:49Z</time>
      </trkpt>
      <trkpt lat="42.31274" lon="2.64739">
        <ele>855.761</ele>
        <time>2011-04-02T14:35:50Z</time>
      </trkpt>
      <trkpt lat="42.31276" lon="2.64753">
        <ele>851.917</ele>
        <time>2011-04-02T14:36:04Z</time>
      </trkpt>
      <trkpt lat="42.31271" lon="2.64766">
        <ele>849.007</ele>
        <time>2011-04-02T14:36:15Z</time>
      </trkpt>
      <trkpt lat="42.31265" lon="2.64776">
        <ele>846.615</ele>
        <time>2011-04-02T14:36:28Z</time>
      </trkpt>
      <trkpt lat="42.31263" lon="2.64785">
        <ele>843.779</ele>
        <time>2011-04-02T14:36:39Z</time>
      </trkpt>
      <trkpt lat="42.31259" lon="2.64791">
        <ele>840.862</ele>
        <time>2011-04-02T14:36:51Z</time>
      </trkpt>
      <trkpt lat="42.31258" lon="2.64799">
        <ele>838.491</ele>
        <time>2011-04-02T14:37:00Z</time>
      </trkpt>
      <trkpt lat="42.31257" lon="2.64808">
        <ele>836.058</ele>
        <time>2011-04-02T14:37:07Z</time>
      </trkpt>
      <trkpt lat="42.31256" lon="2.64816">
        <ele>833.666</ele>
        <time>2011-04-02T14:37:13Z</time>
      </trkpt>
      <trkpt lat="42.31252" lon="2.64816">
        <ele>831.249</ele>
        <time>2011-04-02T14:37:19Z</time>
      </trkpt>
      <trkpt lat="42.31251" lon="2.64826">
        <ele>828.354</ele>
        <time>2011-04-02T14:37:31Z</time>
      </trkpt>
      <trkpt lat="42.3125" lon="2.64831">
        <ele>826.956</ele>
        <time>2011-04-02T14:37:36Z</time>
      </trkpt>
      <trkpt lat="42.31245" lon="2.64832">
        <ele>823.511</ele>
        <time>2011-04-02T14:37:44Z</time>
      </trkpt>
      <trkpt lat="42.31241" lon="2.64834">
        <ele>822.607</ele>
        <time>2011-04-02T14:37:48Z</time>
      </trkpt>
      <trkpt lat="42.31241" lon="2.64846">
        <ele>821.126</ele>
        <time>2011-04-02T14:37:56Z</time>
      </trkpt>
      <trkpt lat="42.31252" lon="2.64857">
        <ele>820.69</ele>
        <time>2011-04-02T14:38:11Z</time>
      </trkpt>
      <trkpt lat="42.31269" lon="2.6488">
        <ele>821.683</ele>
        <time>2011-04-02T14:38:23Z</time>
      </trkpt>
      <trkpt lat="42.31281" lon="2.64896">
        <ele>822.662</ele>
        <time>2011-04-02T14:38:30Z</time>
      </trkpt>
      <trkpt lat="42.3129" lon="2.64912">
        <ele>821.689</ele>
        <time>2011-04-02T14:38:40Z</time>
      </trkpt>
      <trkpt lat="42.31292" lon="2.64915">
        <ele>821.137</ele>
        <time>2011-04-02T14:38:42Z</time>
      </trkpt>
      <trkpt lat="42.31296" lon="2.64921">
        <ele>821.15</ele>
        <time>2011-04-02T14:38:46Z</time>
      </trkpt>
      <trkpt lat="42.31303" lon="2.64934">
        <ele>819.222</ele>
        <time>2011-04-02T14:38:54Z</time>
      </trkpt>
      <trkpt lat="42.31307" lon="2.64942">
        <ele>818.762</ele>
        <time>2011-04-02T14:38:58Z</time>
      </trkpt>
      <trkpt lat="42.31309" lon="2.64945">
        <ele>819.708</ele>
        <time>2011-04-02T14:39:00Z</time>
      </trkpt>
      <trkpt lat="42.3132" lon="2.64964">
        <ele>819.207</ele>
        <time>2011-04-02T14:39:13Z</time>
      </trkpt>
      <trkpt lat="42.31313" lon="2.64987">
        <ele>819.213</ele>
        <time>2011-04-02T14:39:24Z</time>
      </trkpt>
      <trkpt lat="42.31313" lon="2.64995">
        <ele>818.237</ele>
        <time>2011-04-02T14:39:28Z</time>
      </trkpt>
      <trkpt lat="42.31313" lon="2.65002">
        <ele>818.72</ele>
        <time>2011-04-02T14:39:31Z</time>
      </trkpt>
      <trkpt lat="42.31313" lon="2.65009">
        <ele>817.759</ele>
        <time>2011-04-02T14:39:35Z</time>
      </trkpt>
      <trkpt lat="42.31314" lon="2.65014">
        <ele>817.716</ele>
        <time>2011-04-02T14:39:38Z</time>
      </trkpt>
      <trkpt lat="42.31312" lon="2.65025">
        <ele>815.884</ele>
        <time>2011-04-02T14:39:43Z</time>
      </trkpt>
      <trkpt lat="42.31306" lon="2.6504">
        <ele>814.427</ele>
        <time>2011-04-02T14:39:51Z</time>
      </trkpt>
      <trkpt lat="42.31305" lon="2.65045">
        <ele>812.963</ele>
        <time>2011-04-02T14:39:54Z</time>
      </trkpt>
      <trkpt lat="42.313" lon="2.65059">
        <ele>812.544</ele>
        <time>2011-04-02T14:40:02Z</time>
      </trkpt>
      <trkpt lat="42.31298" lon="2.65069">
        <ele>812.018</ele>
        <time>2011-04-02T14:40:09Z</time>
      </trkpt>
      <trkpt lat="42.31291" lon="2.6508">
        <ele>810.107</ele>
        <time>2011-04-02T14:40:20Z</time>
      </trkpt>
      <trkpt lat="42.31287" lon="2.65091">
        <ele>806.797</ele>
        <time>2011-04-02T14:40:29Z</time>
      </trkpt>
      <trkpt lat="42.31279" lon="2.65104">
        <ele>804.851</ele>
        <time>2011-04-02T14:40:40Z</time>
      </trkpt>
      <trkpt lat="42.31278" lon="2.65106">
        <ele>806.254</ele>
        <time>2011-04-02T14:40:41Z</time>
      </trkpt>
      <trkpt lat="42.31268" lon="2.65117">
        <ele>803.373</ele>
        <time>2011-04-02T14:40:52Z</time>
      </trkpt>
      <trkpt lat="42.31265" lon="2.65123">
        <ele>802.43</ele>
        <time>2011-04-02T14:40:58Z</time>
      </trkpt>
      <trkpt lat="42.31262" lon="2.65124">
        <ele>801.948</ele>
        <time>2011-04-02T14:41:01Z</time>
      </trkpt>
      <trkpt lat="42.31256" lon="2.65125">
        <ele>800.941</ele>
        <time>2011-04-02T14:41:07Z</time>
      </trkpt>
      <trkpt lat="42.31247" lon="2.65138">
        <ele>798.091</ele>
        <time>2011-04-02T14:41:17Z</time>
      </trkpt>
      <trkpt lat="42.31245" lon="2.65141">
        <ele>799.081</ele>
        <time>2011-04-02T14:41:19Z</time>
      </trkpt>
      <trkpt lat="42.31241" lon="2.65154">
        <ele>797.119</ele>
        <time>2011-04-02T14:41:25Z</time>
      </trkpt>
      <trkpt lat="42.31231" lon="2.65168">
        <ele>795.607</ele>
        <time>2011-04-02T14:41:37Z</time>
      </trkpt>
      <trkpt lat="42.3122" lon="2.65183">
        <ele>792.79</ele>
        <time>2011-04-02T14:41:49Z</time>
      </trkpt>
      <trkpt lat="42.3121" lon="2.65189">
        <ele>791.884</ele>
        <time>2011-04-02T14:41:59Z</time>
      </trkpt>
      <trkpt lat="42.31208" lon="2.6519">
        <ele>790.347</ele>
        <time>2011-04-02T14:42:02Z</time>
      </trkpt>
      <trkpt lat="42.31202" lon="2.65186">
        <ele>788.916</ele>
        <time>2011-04-02T14:42:08Z</time>
      </trkpt>
      <trkpt lat="42.31202" lon="2.65186">
        <ele>788.993</ele>
        <time>2011-04-02T14:42:09Z</time>
      </trkpt>
      <trkpt lat="42.31193" lon="2.65179">
        <ele>786.521</ele>
        <time>2011-04-02T14:42:20Z</time>
      </trkpt>
      <trkpt lat="42.3119" lon="2.65175">
        <ele>785.194</ele>
        <time>2011-04-02T14:42:36Z</time>
      </trkpt>
      <trkpt lat="42.31186" lon="2.6517">
        <ele>782.765</ele>
        <time>2011-04-02T14:42:41Z</time>
      </trkpt>
      <trkpt lat="42.31184" lon="2.65166">
        <ele>782.768</ele>
        <time>2011-04-02T14:42:44Z</time>
      </trkpt>
      <trkpt lat="42.31182" lon="2.65165">
        <ele>781.214</ele>
        <time>2011-04-02T14:42:47Z</time>
      </trkpt>
      <trkpt lat="42.31182" lon="2.65165">
        <ele>781.207</ele>
        <time>2011-04-02T14:42:48Z</time>
      </trkpt>
      <trkpt lat="42.31172" lon="2.65173">
        <ele>779.327</ele>
        <time>2011-04-02T14:42:57Z</time>
      </trkpt>
      <trkpt lat="42.31162" lon="2.6519">
        <ele>779.391</ele>
        <time>2011-04-02T14:43:11Z</time>
      </trkpt>
      <trkpt lat="42.31163" lon="2.652">
        <ele>779.384</ele>
        <time>2011-04-02T14:43:33Z</time>
      </trkpt>
      <trkpt lat="42.31161" lon="2.65201">
        <ele>777.813</ele>
        <time>2011-04-02T14:44:33Z</time>
      </trkpt>
      <trkpt lat="42.3116" lon="2.65202">
        <ele>776.96</ele>
        <time>2011-04-02T14:44:55Z</time>
      </trkpt>
      <trkpt lat="42.31159" lon="2.65201">
        <ele>777.438</ele>
        <time>2011-04-02T14:45:07Z</time>
      </trkpt>
      <trkpt lat="42.31157" lon="2.652">
        <ele>777.481</ele>
        <time>2011-04-02T14:46:22Z</time>
      </trkpt>
      <trkpt lat="42.3116" lon="2.65204">
        <ele>777.858</ele>
        <time>2011-04-02T14:47:11Z</time>
      </trkpt>
      <trkpt lat="42.31156" lon="2.652">
        <ele>777.852</ele>
        <time>2011-04-02T14:47:25Z</time>
      </trkpt>
      <trkpt lat="42.31157" lon="2.65201">
        <ele>776.417</ele>
        <time>2011-04-02T14:48:23Z</time>
      </trkpt>
      <trkpt lat="42.31157" lon="2.65201">
        <ele>775.407</ele>
        <time>2011-04-02T14:50:35Z</time>
      </trkpt>
      <trkpt lat="42.31157" lon="2.65201">
        <ele>775.986</ele>
        <time>2011-04-02T14:51:30Z</time>
      </trkpt>
      <trkpt lat="42.31156" lon="2.65201">
        <ele>772.65</ele>
        <time>2011-04-02T14:54:41Z</time>
      </trkpt>
      <trkpt lat="42.31157" lon="2.65201">
        <ele>772.193</ele>
        <time>2011-04-02T14:57:13Z</time>
      </trkpt>
      <trkpt lat="42.31156" lon="2.65202">
        <ele>773.052</ele>
        <time>2011-04-02T14:58:40Z</time>
      </trkpt>
      <trkpt lat="42.31156" lon="2.65202">
        <ele>770.669</ele>
        <time>2011-04-02T15:00:24Z</time>
      </trkpt>
      <trkpt lat="42.31156" lon="2.65202">
        <ele>770.677</ele>
        <time>2011-04-02T15:00:49Z</time>
      </trkpt>
      <trkpt lat="42.31155" lon="2.65202">
        <ele>771.14</ele>
        <time>2011-04-02T15:01:04Z</time>
      </trkpt>
      <trkpt lat="42.31157" lon="2.652">
        <ele>771.122</ele>
        <time>2011-04-02T15:02:13Z</time>
      </trkpt>
      <trkpt lat="42.31165" lon="2.652">
        <ele>772.662</ele>
        <time>2011-04-02T15:02:33Z</time>
      </trkpt>
      <trkpt lat="42.31158" lon="2.65203">
        <ele>774.008</ele>
        <time>2011-04-02T15:02:54Z</time>
      </trkpt>
      <trkpt lat="42.31148" lon="2.65213">
        <ele>774.007</ele>
        <time>2011-04-02T15:03:25Z</time>
      </trkpt>
      <trkpt lat="42.31151" lon="2.65215">
        <ele>773.083</ele>
        <time>2011-04-02T15:03:31Z</time>
      </trkpt>
      <trkpt lat="42.31165" lon="2.65199">
        <ele>769.737</ele>
        <time>2011-04-02T15:03:47Z</time>
      </trkpt>
      <trkpt lat="42.31162" lon="2.65198">
        <ele>769.79</ele>
        <time>2011-04-02T15:03:55Z</time>
      </trkpt>
      <trkpt lat="42.3116" lon="2.652">
        <ele>769.269</ele>
        <time>2011-04-02T15:05:01Z</time>
      </trkpt>
      <trkpt lat="42.31162" lon="2.652">
        <ele>770.216</ele>
        <time>2011-04-02T15:05:37Z</time>
      </trkpt>
      <trkpt lat="42.31158" lon="2.65196">
        <ele>768.754</ele>
        <time>2011-04-02T15:08:37Z</time>
      </trkpt>
      <trkpt lat="42.31153" lon="2.65192">
        <ele>768.757</ele>
        <time>2011-04-02T15:08:45Z</time>
      </trkpt>
      <trkpt lat="42.31153" lon="2.65193">
        <ele>768.263</ele>
        <time>2011-04-02T15:08:47Z</time>
      </trkpt>
      <trkpt lat="42.31153" lon="2.65198">
        <ele>766.844</ele>
        <time>2011-04-02T15:08:50Z</time>
      </trkpt>
      <trkpt lat="42.31156" lon="2.65217">
        <ele>764.918</ele>
        <time>2011-04-02T15:09:02Z</time>
      </trkpt>
      <trkpt lat="42.31171" lon="2.65244">
        <ele>762.507</ele>
        <time>2011-04-02T15:09:21Z</time>
      </trkpt>
      <trkpt lat="42.3118" lon="2.65278">
        <ele>762.587</ele>
        <time>2011-04-02T15:09:40Z</time>
      </trkpt>
      <trkpt lat="42.3118" lon="2.65311">
        <ele>762.081</ele>
        <time>2011-04-02T15:09:56Z</time>
      </trkpt>
      <trkpt lat="42.31163" lon="2.6533">
        <ele>759.174</ele>
        <time>2011-04-02T15:10:10Z</time>
      </trkpt>
      <trkpt lat="42.31137" lon="2.65341">
        <ele>756.733</ele>
        <time>2011-04-02T15:10:26Z</time>
      </trkpt>
      <trkpt lat="42.31118" lon="2.65361">
        <ele>755.38</ele>
        <time>2011-04-02T15:10:39Z</time>
      </trkpt>
      <trkpt lat="42.311" lon="2.65387">
        <ele>753.348</ele>
        <time>2011-04-02T15:10:51Z</time>
      </trkpt>
      <trkpt lat="42.31089" lon="2.65403">
        <ele>752.941</ele>
        <time>2011-04-02T15:11:02Z</time>
      </trkpt>
      <trkpt lat="42.31088" lon="2.6541">
        <ele>753.827</ele>
        <time>2011-04-02T15:11:16Z</time>
      </trkpt>
      <trkpt lat="42.31089" lon="2.6541">
        <ele>753.868</ele>
        <time>2011-04-02T15:11:33Z</time>
      </trkpt>
      <trkpt lat="42.31087" lon="2.65407">
        <ele>753.814</ele>
        <time>2011-04-02T15:11:44Z</time>
      </trkpt>
      <trkpt lat="42.31083" lon="2.65402">
        <ele>752.907</ele>
        <time>2011-04-02T15:11:53Z</time>
      </trkpt>
      <trkpt lat="42.3107" lon="2.65423">
        <ele>750.923</ele>
        <time>2011-04-02T15:12:10Z</time>
      </trkpt>
      <trkpt lat="42.31069" lon="2.65422">
        <ele>751.487</ele>
        <time>2011-04-02T15:12:49Z</time>
      </trkpt>
      <trkpt lat="42.31064" lon="2.65443">
        <ele>750.91</ele>
        <time>2011-04-02T15:13:02Z</time>
      </trkpt>
      <trkpt lat="42.31063" lon="2.65458">
        <ele>749.089</ele>
        <time>2011-04-02T15:13:13Z</time>
      </trkpt>
      <trkpt lat="42.31057" lon="2.65485">
        <ele>748.066</ele>
        <time>2011-04-02T15:13:30Z</time>
      </trkpt>
      <trkpt lat="42.31051" lon="2.65519">
        <ele>744.784</ele>
        <time>2011-04-02T15:13:49Z</time>
      </trkpt>
      <trkpt lat="42.31048" lon="2.65533">
        <ele>745.237</ele>
        <time>2011-04-02T15:13:57Z</time>
      </trkpt>
      <trkpt lat="42.31045" lon="2.6554">
        <ele>743.283</ele>
        <time>2011-04-02T15:14:14Z</time>
      </trkpt>
      <trkpt lat="42.31046" lon="2.65538">
        <ele>743.225</ele>
        <time>2011-04-02T15:15:21Z</time>
      </trkpt>
      <trkpt lat="42.31045" lon="2.65542">
        <ele>742.317</ele>
        <time>2011-04-02T15:17:48Z</time>
      </trkpt>
      <trkpt lat="42.31044" lon="2.65551">
        <ele>743.207</ele>
        <time>2011-04-02T15:17:55Z</time>
      </trkpt>
      <trkpt lat="42.3104" lon="2.65588">
        <ele>740.899</ele>
        <time>2011-04-02T15:18:10Z</time>
      </trkpt>
      <trkpt lat="42.31045" lon="2.65627">
        <ele>738.993</ele>
        <time>2011-04-02T15:18:24Z</time>
      </trkpt>
      <trkpt lat="42.31051" lon="2.65661">
        <ele>737.066</ele>
        <time>2011-04-02T15:18:36Z</time>
      </trkpt>
      <trkpt lat="42.31059" lon="2.65703">
        <ele>735.165</ele>
        <time>2011-04-02T15:18:50Z</time>
      </trkpt>
      <trkpt lat="42.31061" lon="2.65734">
        <ele>734.172</ele>
        <time>2011-04-02T15:19:00Z</time>
      </trkpt>
      <trkpt lat="42.31062" lon="2.65773">
        <ele>731.25</ele>
        <time>2011-04-02T15:19:12Z</time>
      </trkpt>
      <trkpt lat="42.31064" lon="2.65785">
        <ele>730.383</ele>
        <time>2011-04-02T15:19:16Z</time>
      </trkpt>
      <trkpt lat="42.31067" lon="2.65818">
        <ele>728.314</ele>
        <time>2011-04-02T15:19:26Z</time>
      </trkpt>
      <trkpt lat="42.31077" lon="2.65847">
        <ele>726.454</ele>
        <time>2011-04-02T15:19:37Z</time>
      </trkpt>
      <trkpt lat="42.31078" lon="2.6585">
        <ele>725.009</ele>
        <time>2011-04-02T15:19:38Z</time>
      </trkpt>
      <trkpt lat="42.31079" lon="2.65859">
        <ele>723.507</ele>
        <time>2011-04-02T15:19:41Z</time>
      </trkpt>
      <trkpt lat="42.31078" lon="2.65871">
        <ele>722.672</ele>
        <time>2011-04-02T15:19:45Z</time>
      </trkpt>
      <trkpt lat="42.31067" lon="2.65868">
        <ele>721.136</ele>
        <time>2011-04-02T15:19:52Z</time>
      </trkpt>
      <trkpt lat="42.31054" lon="2.65833">
        <ele>720.239</ele>
        <time>2011-04-02T15:20:04Z</time>
      </trkpt>
      <trkpt lat="42.31045" lon="2.65814">
        <ele>722.638</ele>
        <time>2011-04-02T15:20:15Z</time>
      </trkpt>
      <trkpt lat="42.31041" lon="2.65805">
        <ele>723.545</ele>
        <time>2011-04-02T15:20:22Z</time>
      </trkpt>
      <trkpt lat="42.3104" lon="2.65799">
        <ele>722.663</ele>
        <time>2011-04-02T15:20:26Z</time>
      </trkpt>
      <trkpt lat="42.31038" lon="2.65766">
        <ele>725.996</ele>
        <time>2011-04-02T15:20:43Z</time>
      </trkpt>
      <trkpt lat="42.31032" lon="2.6574">
        <ele>725.998</ele>
        <time>2011-04-02T15:20:59Z</time>
      </trkpt>
      <trkpt lat="42.31028" lon="2.65708">
        <ele>727.915</ele>
        <time>2011-04-02T15:21:15Z</time>
      </trkpt>
      <trkpt lat="42.31024" lon="2.6567">
        <ele>728.826</ele>
        <time>2011-04-02T15:21:34Z</time>
      </trkpt>
      <trkpt lat="42.31015" lon="2.65637">
        <ele>728.307</ele>
        <time>2011-04-02T15:21:45Z</time>
      </trkpt>
      <trkpt lat="42.31009" lon="2.65619">
        <ele>727.99</ele>
        <time>2011-04-02T15:21:51Z</time>
      </trkpt>
      <trkpt lat="42.30996" lon="2.65581">
        <ele>725.044</ele>
        <time>2011-04-02T15:22:04Z</time>
      </trkpt>
      <trkpt lat="42.30978" lon="2.65556">
        <ele>721.697</ele>
        <time>2011-04-02T15:22:14Z</time>
      </trkpt>
      <trkpt lat="42.30957" lon="2.65531">
        <ele>718.776</ele>
        <time>2011-04-02T15:22:25Z</time>
      </trkpt>
      <trkpt lat="42.30933" lon="2.65513">
        <ele>718.713</ele>
        <time>2011-04-02T15:22:38Z</time>
      </trkpt>
      <trkpt lat="42.30923" lon="2.65485">
        <ele>719.271</ele>
        <time>2011-04-02T15:22:48Z</time>
      </trkpt>
      <trkpt lat="42.30921" lon="2.65463">
        <ele>719.264</ele>
        <time>2011-04-02T15:22:55Z</time>
      </trkpt>
      <trkpt lat="42.30895" lon="2.65435">
        <ele>718.229</ele>
        <time>2011-04-02T15:23:10Z</time>
      </trkpt>
      <trkpt lat="42.30882" lon="2.65426">
        <ele>717.8</ele>
        <time>2011-04-02T15:23:17Z</time>
      </trkpt>
      <trkpt lat="42.30851" lon="2.6541">
        <ele>716.32</ele>
        <time>2011-04-02T15:23:31Z</time>
      </trkpt>
      <trkpt lat="42.30849" lon="2.65408">
        <ele>716.307</ele>
        <time>2011-04-02T15:23:33Z</time>
      </trkpt>
      <trkpt lat="42.30851" lon="2.65402">
        <ele>716.313</ele>
        <time>2011-04-02T15:23:45Z</time>
      </trkpt>
      <trkpt lat="42.30839" lon="2.65418">
        <ele>715.457</ele>
        <time>2011-04-02T15:24:00Z</time>
      </trkpt>
      <trkpt lat="42.30814" lon="2.65433">
        <ele>715.82</ele>
        <time>2011-04-02T15:24:10Z</time>
      </trkpt>
      <trkpt lat="42.3079" lon="2.65445">
        <ele>714.919</ele>
        <time>2011-04-02T15:24:20Z</time>
      </trkpt>
      <trkpt lat="42.30756" lon="2.65456">
        <ele>713.926</ele>
        <time>2011-04-02T15:24:33Z</time>
      </trkpt>
      <trkpt lat="42.30731" lon="2.65471">
        <ele>713.074</ele>
        <time>2011-04-02T15:24:44Z</time>
      </trkpt>
      <trkpt lat="42.30707" lon="2.65477">
        <ele>711.577</ele>
        <time>2011-04-02T15:24:54Z</time>
      </trkpt>
      <trkpt lat="42.30675" lon="2.65489">
        <ele>710.154</ele>
        <time>2011-04-02T15:25:06Z</time>
      </trkpt>
      <trkpt lat="42.3065" lon="2.65494">
        <ele>708.256</ele>
        <time>2011-04-02T15:25:16Z</time>
      </trkpt>
      <trkpt lat="42.30613" lon="2.65498">
        <ele>706.711</ele>
        <time>2011-04-02T15:25:29Z</time>
      </trkpt>
      <trkpt lat="42.30587" lon="2.6552">
        <ele>705.307</ele>
        <time>2011-04-02T15:25:41Z</time>
      </trkpt>
      <trkpt lat="42.30555" lon="2.65532">
        <ele>701.926</ele>
        <time>2011-04-02T15:25:53Z</time>
      </trkpt>
      <trkpt lat="42.30539" lon="2.65543">
        <ele>701.98</ele>
        <time>2011-04-02T15:25:59Z</time>
      </trkpt>
      <trkpt lat="42.30529" lon="2.65549">
        <ele>700.043</ele>
        <time>2011-04-02T15:26:03Z</time>
      </trkpt>
      <trkpt lat="42.30501" lon="2.65558">
        <ele>699.062</ele>
        <time>2011-04-02T15:26:15Z</time>
      </trkpt>
      <trkpt lat="42.30476" lon="2.65578">
        <ele>698.119</ele>
        <time>2011-04-02T15:26:26Z</time>
      </trkpt>
      <trkpt lat="42.30454" lon="2.65595">
        <ele>695.237</ele>
        <time>2011-04-02T15:26:36Z</time>
      </trkpt>
      <trkpt lat="42.30446" lon="2.65602">
        <ele>694.79</ele>
        <time>2011-04-02T15:26:40Z</time>
      </trkpt>
      <trkpt lat="42.30425" lon="2.65624">
        <ele>693.333</ele>
        <time>2011-04-02T15:26:51Z</time>
      </trkpt>
      <trkpt lat="42.30417" lon="2.65643">
        <ele>694.723</ele>
        <time>2011-04-02T15:27:04Z</time>
      </trkpt>
      <trkpt lat="42.30413" lon="2.6565">
        <ele>695.715</ele>
        <time>2011-04-02T15:27:09Z</time>
      </trkpt>
      <trkpt lat="42.30411" lon="2.65663">
        <ele>695.207</ele>
        <time>2011-04-02T15:27:18Z</time>
      </trkpt>
      <trkpt lat="42.30407" lon="2.65685">
        <ele>697.654</ele>
        <time>2011-04-02T15:27:32Z</time>
      </trkpt>
      <trkpt lat="42.30401" lon="2.65712">
        <ele>698.528</ele>
        <time>2011-04-02T15:27:47Z</time>
      </trkpt>
      <trkpt lat="42.30397" lon="2.65728">
        <ele>701.451</ele>
        <time>2011-04-02T15:27:57Z</time>
      </trkpt>
      <trkpt lat="42.30394" lon="2.65737">
        <ele>701.91</ele>
        <time>2011-04-02T15:28:04Z</time>
      </trkpt>
      <trkpt lat="42.30391" lon="2.65756">
        <ele>702.457</ele>
        <time>2011-04-02T15:28:14Z</time>
      </trkpt>
      <trkpt lat="42.30386" lon="2.65774">
        <ele>704.365</ele>
        <time>2011-04-02T15:28:25Z</time>
      </trkpt>
      <trkpt lat="42.30384" lon="2.65782">
        <ele>704.358</ele>
        <time>2011-04-02T15:28:30Z</time>
      </trkpt>
      <trkpt lat="42.30377" lon="2.65798">
        <ele>706.732</ele>
        <time>2011-04-02T15:28:40Z</time>
      </trkpt>
      <trkpt lat="42.30377" lon="2.65799">
        <ele>705.892</ele>
        <time>2011-04-02T15:28:41Z</time>
      </trkpt>
      <trkpt lat="42.30372" lon="2.65807">
        <ele>706.711</ele>
        <time>2011-04-02T15:28:47Z</time>
      </trkpt>
      <trkpt lat="42.30366" lon="2.65824">
        <ele>707.707</ele>
        <time>2011-04-02T15:28:57Z</time>
      </trkpt>
      <trkpt lat="42.30364" lon="2.65828">
        <ele>708.294</ele>
        <time>2011-04-02T15:28:59Z</time>
      </trkpt>
      <trkpt lat="42.30362" lon="2.65835">
        <ele>709.138</ele>
        <time>2011-04-02T15:29:03Z</time>
      </trkpt>
      <trkpt lat="42.3035" lon="2.65857">
        <ele>709.661</ele>
        <time>2011-04-02T15:29:17Z</time>
      </trkpt>
      <trkpt lat="42.30349" lon="2.6586">
        <ele>709.63</ele>
        <time>2011-04-02T15:29:19Z</time>
      </trkpt>
      <trkpt lat="42.30339" lon="2.65884">
        <ele>710.637</ele>
        <time>2011-04-02T15:29:34Z</time>
      </trkpt>
      <trkpt lat="42.30337" lon="2.65887">
        <ele>711.015</ele>
        <time>2011-04-02T15:29:36Z</time>
      </trkpt>
      <trkpt lat="42.30327" lon="2.65913">
        <ele>712.588</ele>
        <time>2011-04-02T15:29:51Z</time>
      </trkpt>
      <trkpt lat="42.3031" lon="2.6594">
        <ele>713.061</ele>
        <time>2011-04-02T15:30:08Z</time>
      </trkpt>
      <trkpt lat="42.303" lon="2.65966">
        <ele>713.921</ele>
        <time>2011-04-02T15:30:24Z</time>
      </trkpt>
      <trkpt lat="42.30283" lon="2.6598">
        <ele>714.413</ele>
        <time>2011-04-02T15:30:37Z</time>
      </trkpt>
      <trkpt lat="42.30267" lon="2.65989">
        <ele>715.407</ele>
        <time>2011-04-02T15:30:48Z</time>
      </trkpt>
      <trkpt lat="42.3026" lon="2.65993">
        <ele>716.327</ele>
        <time>2011-04-02T15:30:53Z</time>
      </trkpt>
      <trkpt lat="42.30242" lon="2.66004">
        <ele>717.321</ele>
        <time>2011-04-02T15:31:06Z</time>
      </trkpt>
      <trkpt lat="42.3022" lon="2.6602">
        <ele>719.784</ele>
        <time>2011-04-02T15:31:24Z</time>
      </trkpt>
      <trkpt lat="42.30199" lon="2.66026">
        <ele>720.743</ele>
        <time>2011-04-02T15:31:40Z</time>
      </trkpt>
      <trkpt lat="42.3018" lon="2.6603">
        <ele>723.12</ele>
        <time>2011-04-02T15:31:52Z</time>
      </trkpt>
      <trkpt lat="42.30166" lon="2.66032">
        <ele>724.598</ele>
        <time>2011-04-02T15:32:03Z</time>
      </trkpt>
      <trkpt lat="42.30154" lon="2.66031">
        <ele>725.051</ele>
        <time>2011-04-02T15:32:10Z</time>
      </trkpt>
      <trkpt lat="42.30144" lon="2.66028">
        <ele>725.545</ele>
        <time>2011-04-02T15:32:15Z</time>
      </trkpt>
      <trkpt lat="42.30127" lon="2.66023">
        <ele>725.947</ele>
        <time>2011-04-02T15:32:25Z</time>
      </trkpt>
      <trkpt lat="42.30115" lon="2.66018">
        <ele>725.911</ele>
        <time>2011-04-02T15:32:34Z</time>
      </trkpt>
      <trkpt lat="42.30096" lon="2.66026">
        <ele>727.407</ele>
        <time>2011-04-02T15:32:50Z</time>
      </trkpt>
      <trkpt lat="42.30072" lon="2.66042">
        <ele>727.915</ele>
        <time>2011-04-02T15:33:07Z</time>
      </trkpt>
      <trkpt lat="42.30053" lon="2.66064">
        <ele>728.839</ele>
        <time>2011-04-02T15:33:18Z</time>
      </trkpt>
      <trkpt lat="42.30028" lon="2.6608">
        <ele>728.882</ele>
        <time>2011-04-02T15:33:29Z</time>
      </trkpt>
      <trkpt lat="42.30009" lon="2.6609">
        <ele>729.851</ele>
        <time>2011-04-02T15:33:44Z</time>
      </trkpt>
      <trkpt lat="42.29986" lon="2.66098">
        <ele>730.718</ele>
        <time>2011-04-02T15:34:00Z</time>
      </trkpt>
      <trkpt lat="42.29958" lon="2.66115">
        <ele>731.796</ele>
        <time>2011-04-02T15:34:21Z</time>
      </trkpt>
      <trkpt lat="42.29938" lon="2.66136">
        <ele>733.179</ele>
        <time>2011-04-02T15:34:39Z</time>
      </trkpt>
      <trkpt lat="42.29929" lon="2.66166">
        <ele>734.678</ele>
        <time>2011-04-02T15:34:57Z</time>
      </trkpt>
      <trkpt lat="42.29905" lon="2.6619">
        <ele>736.033</ele>
        <time>2011-04-02T15:35:16Z</time>
      </trkpt>
      <trkpt lat="42.29881" lon="2.66211">
        <ele>736.026</ele>
        <time>2011-04-02T15:35:35Z</time>
      </trkpt>
      <trkpt lat="42.29869" lon="2.66216">
        <ele>738.007</ele>
        <time>2011-04-02T15:35:43Z</time>
      </trkpt>
      <trkpt lat="42.29865" lon="2.66217">
        <ele>737.588</ele>
        <time>2011-04-02T15:35:46Z</time>
      </trkpt>
      <trkpt lat="42.2984" lon="2.66224">
        <ele>738.472</ele>
        <time>2011-04-02T15:36:03Z</time>
      </trkpt>
      <trkpt lat="42.29812" lon="2.66233">
        <ele>739.485</ele>
        <time>2011-04-02T15:36:22Z</time>
      </trkpt>
      <trkpt lat="42.2979" lon="2.66246">
        <ele>741.314</ele>
        <time>2011-04-02T15:36:39Z</time>
      </trkpt>
      <trkpt lat="42.29765" lon="2.66261">
        <ele>740.821</ele>
        <time>2011-04-02T15:36:58Z</time>
      </trkpt>
      <trkpt lat="42.29748" lon="2.66274">
        <ele>742.879</ele>
        <time>2011-04-02T15:37:11Z</time>
      </trkpt>
      <trkpt lat="42.29727" lon="2.66295">
        <ele>742.362</ele>
        <time>2011-04-02T15:37:29Z</time>
      </trkpt>
      <trkpt lat="42.29714" lon="2.6631">
        <ele>743.731</ele>
        <time>2011-04-02T15:37:41Z</time>
      </trkpt>
      <trkpt lat="42.29697" lon="2.66333">
        <ele>744.761</ele>
        <time>2011-04-02T15:37:57Z</time>
      </trkpt>
      <trkpt lat="42.29682" lon="2.66361">
        <ele>747.107</ele>
        <time>2011-04-02T15:38:08Z</time>
      </trkpt>
      <trkpt lat="42.2965" lon="2.66382">
        <ele>747.607</ele>
        <time>2011-04-02T15:38:21Z</time>
      </trkpt>
      <trkpt lat="42.2963" lon="2.66404">
        <ele>747.644</ele>
        <time>2011-04-02T15:38:33Z</time>
      </trkpt>
      <trkpt lat="42.29605" lon="2.66442">
        <ele>748.088</ele>
        <time>2011-04-02T15:38:49Z</time>
      </trkpt>
      <trkpt lat="42.29594" lon="2.66484">
        <ele>747.161</ele>
        <time>2011-04-02T15:39:03Z</time>
      </trkpt>
      <trkpt lat="42.29591" lon="2.66509">
        <ele>747.62</ele>
        <time>2011-04-02T15:39:17Z</time>
      </trkpt>
      <trkpt lat="42.29588" lon="2.66528">
        <ele>748.027</ele>
        <time>2011-04-02T15:39:27Z</time>
      </trkpt>
      <trkpt lat="42.29586" lon="2.66559">
        <ele>749.065</ele>
        <time>2011-04-02T15:39:44Z</time>
      </trkpt>
      <trkpt lat="42.29586" lon="2.66561">
        <ele>750.558</ele>
        <time>2011-04-02T15:39:45Z</time>
      </trkpt>
      <trkpt lat="42.29581" lon="2.66593">
        <ele>751.425</ele>
        <time>2011-04-02T15:40:01Z</time>
      </trkpt>
      <trkpt lat="42.29573" lon="2.66625">
        <ele>753.826</ele>
        <time>2011-04-02T15:40:19Z</time>
      </trkpt>
      <trkpt lat="42.29572" lon="2.6663">
        <ele>753.808</ele>
        <time>2011-04-02T15:40:22Z</time>
      </trkpt>
      <trkpt lat="42.29564" lon="2.66651">
        <ele>755.307</ele>
        <time>2011-04-02T15:40:36Z</time>
      </trkpt>
      <trkpt lat="42.29551" lon="2.6667">
        <ele>756.773</ele>
        <time>2011-04-02T15:40:49Z</time>
      </trkpt>
      <trkpt lat="42.2954" lon="2.66684">
        <ele>759.617</ele>
        <time>2011-04-02T15:40:59Z</time>
      </trkpt>
      <trkpt lat="42.29526" lon="2.66705">
        <ele>761.09</ele>
        <time>2011-04-02T15:41:14Z</time>
      </trkpt>
      <trkpt lat="42.29515" lon="2.66724">
        <ele>763.479</ele>
        <time>2011-04-02T15:41:28Z</time>
      </trkpt>
      <trkpt lat="42.29494" lon="2.66742">
        <ele>762.926</ele>
        <time>2011-04-02T15:41:44Z</time>
      </trkpt>
      <trkpt lat="42.29466" lon="2.66758">
        <ele>764.484</ele>
        <time>2011-04-02T15:42:04Z</time>
      </trkpt>
      <trkpt lat="42.29446" lon="2.66779">
        <ele>766.397</ele>
        <time>2011-04-02T15:42:22Z</time>
      </trkpt>
      <trkpt lat="42.29445" lon="2.66804">
        <ele>768.736</ele>
        <time>2011-04-02T15:42:37Z</time>
      </trkpt>
      <trkpt lat="42.29451" lon="2.66828">
        <ele>772.117</ele>
        <time>2011-04-02T15:42:52Z</time>
      </trkpt>
      <trkpt lat="42.29459" lon="2.66852">
        <ele>774.018</ele>
        <time>2011-04-02T15:43:07Z</time>
      </trkpt>
      <trkpt lat="42.29466" lon="2.66882">
        <ele>774.507</ele>
        <time>2011-04-02T15:43:23Z</time>
      </trkpt>
      <trkpt lat="42.29474" lon="2.66906">
        <ele>777.814</ele>
        <time>2011-04-02T15:43:38Z</time>
      </trkpt>
      <trkpt lat="42.29484" lon="2.66931">
        <ele>779.318</ele>
        <time>2011-04-02T15:43:54Z</time>
      </trkpt>
      <trkpt lat="42.29492" lon="2.66959">
        <ele>781.741</ele>
        <time>2011-04-02T15:44:10Z</time>
      </trkpt>
      <trkpt lat="42.29501" lon="2.66992">
        <ele>783.66</ele>
        <time>2011-04-02T15:44:28Z</time>
      </trkpt>
      <trkpt lat="42.29502" lon="2.66998">
        <ele>783.627</ele>
        <time>2011-04-02T15:44:31Z</time>
      </trkpt>
      <trkpt lat="42.295" lon="2.67036">
        <ele>783.635</ele>
        <time>2011-04-02T15:44:50Z</time>
      </trkpt>
      <trkpt lat="42.29498" lon="2.67072">
        <ele>785.538</ele>
        <time>2011-04-02T15:45:08Z</time>
      </trkpt>
      <trkpt lat="42.29506" lon="2.67098">
        <ele>785.514</ele>
        <time>2011-04-02T15:45:23Z</time>
      </trkpt>
      <trkpt lat="42.29508" lon="2.67103">
        <ele>787.054</ele>
        <time>2011-04-02T15:45:26Z</time>
      </trkpt>
      <trkpt lat="42.29513" lon="2.67137">
        <ele>787.509</ele>
        <time>2011-04-02T15:45:43Z</time>
      </trkpt>
      <trkpt lat="42.29515" lon="2.67145">
        <ele>787.907</ele>
        <time>2011-04-02T15:45:47Z</time>
      </trkpt>
      <trkpt lat="42.29516" lon="2.67158">
        <ele>788.492</ele>
        <time>2011-04-02T15:45:53Z</time>
      </trkpt>
      <trkpt lat="42.2952" lon="2.67169">
        <ele>788.996</ele>
        <time>2011-04-02T15:45:59Z</time>
      </trkpt>
      <trkpt lat="42.29524" lon="2.67183">
        <ele>789.929</ele>
        <time>2011-04-02T15:46:07Z</time>
      </trkpt>
      <trkpt lat="42.29528" lon="2.67225">
        <ele>791.378</ele>
        <time>2011-04-02T15:46:27Z</time>
      </trkpt>
      <trkpt lat="42.29529" lon="2.67265">
        <ele>792.385</ele>
        <time>2011-04-02T15:46:41Z</time>
      </trkpt>
      <trkpt lat="42.29525" lon="2.67305">
        <ele>793.223</ele>
        <time>2011-04-02T15:46:53Z</time>
      </trkpt>
      <trkpt lat="42.29515" lon="2.67344">
        <ele>793.286</ele>
        <time>2011-04-02T15:47:05Z</time>
      </trkpt>
      <trkpt lat="42.29504" lon="2.67386">
        <ele>794.284</ele>
        <time>2011-04-02T15:47:20Z</time>
      </trkpt>
      <trkpt lat="42.29492" lon="2.67421">
        <ele>793.707</ele>
        <time>2011-04-02T15:47:33Z</time>
      </trkpt>
      <trkpt lat="42.29489" lon="2.67437">
        <ele>792.717</ele>
        <time>2011-04-02T15:47:38Z</time>
      </trkpt>
      <trkpt lat="42.29486" lon="2.67458">
        <ele>793.707</ele>
        <time>2011-04-02T15:47:45Z</time>
      </trkpt>
      <trkpt lat="42.29486" lon="2.67471">
        <ele>794.229</ele>
        <time>2011-04-02T15:47:49Z</time>
      </trkpt>
      <trkpt lat="42.29487" lon="2.67487">
        <ele>792.793</ele>
        <time>2011-04-02T15:47:54Z</time>
      </trkpt>
      <trkpt lat="42.29488" lon="2.67503">
        <ele>793.726</ele>
        <time>2011-04-02T15:47:59Z</time>
      </trkpt>
      <trkpt lat="42.2949" lon="2.67528">
        <ele>793.725</ele>
        <time>2011-04-02T15:48:07Z</time>
      </trkpt>
      <trkpt lat="42.2949" lon="2.67544">
        <ele>794.262</ele>
        <time>2011-04-02T15:48:16Z</time>
      </trkpt>
      <trkpt lat="42.2949" lon="2.67553">
        <ele>794.72</ele>
        <time>2011-04-02T15:48:21Z</time>
      </trkpt>
      <trkpt lat="42.29493" lon="2.67578">
        <ele>794.793</ele>
        <time>2011-04-02T15:48:35Z</time>
      </trkpt>
      <trkpt lat="42.29493" lon="2.6758">
        <ele>795.284</ele>
        <time>2011-04-02T15:48:36Z</time>
      </trkpt>
      <trkpt lat="42.29496" lon="2.6761">
        <ele>797.107</ele>
        <time>2011-04-02T15:48:50Z</time>
      </trkpt>
      <trkpt lat="42.29499" lon="2.67647">
        <ele>799.517</ele>
        <time>2011-04-02T15:49:04Z</time>
      </trkpt>
      <trkpt lat="42.29504" lon="2.67699">
        <ele>800.907</ele>
        <time>2011-04-02T15:49:20Z</time>
      </trkpt>
      <trkpt lat="42.29509" lon="2.67739">
        <ele>800.479</ele>
        <time>2011-04-02T15:49:32Z</time>
      </trkpt>
      <trkpt lat="42.29514" lon="2.67764">
        <ele>800.423</ele>
        <time>2011-04-02T15:49:44Z</time>
      </trkpt>
      <trkpt lat="42.29525" lon="2.678">
        <ele>800.076</ele>
        <time>2011-04-02T15:50:02Z</time>
      </trkpt>
      <trkpt lat="42.29547" lon="2.67841">
        <ele>797.625</ele>
        <time>2011-04-02T15:50:16Z</time>
      </trkpt>
      <trkpt lat="42.29569" lon="2.67874">
        <ele>795.662</ele>
        <time>2011-04-02T15:50:28Z</time>
      </trkpt>
      <trkpt lat="42.29584" lon="2.67899">
        <ele>794.75</ele>
        <time>2011-04-02T15:50:38Z</time>
      </trkpt>
      <trkpt lat="42.29602" lon="2.67913">
        <ele>795.283</ele>
        <time>2011-04-02T15:50:53Z</time>
      </trkpt>
      <trkpt lat="42.29619" lon="2.67935">
        <ele>792.774</ele>
        <time>2011-04-02T15:51:09Z</time>
      </trkpt>
      <trkpt lat="42.29631" lon="2.67958">
        <ele>789.956</ele>
        <time>2011-04-02T15:51:18Z</time>
      </trkpt>
      <trkpt lat="42.29633" lon="2.67962">
        <ele>790.321</ele>
        <time>2011-04-02T15:51:19Z</time>
      </trkpt>
      <trkpt lat="42.29637" lon="2.67991">
        <ele>789.407</ele>
        <time>2011-04-02T15:51:30Z</time>
      </trkpt>
      <trkpt lat="42.29637" lon="2.68007">
        <ele>790.398</ele>
        <time>2011-04-02T15:51:38Z</time>
      </trkpt>
      <trkpt lat="42.29644" lon="2.68033">
        <ele>791.322</ele>
        <time>2011-04-02T15:51:51Z</time>
      </trkpt>
      <trkpt lat="42.29656" lon="2.68046">
        <ele>792.725</ele>
        <time>2011-04-02T15:52:03Z</time>
      </trkpt>
      <trkpt lat="42.29669" lon="2.68058">
        <ele>792.324</ele>
        <time>2011-04-02T15:52:14Z</time>
      </trkpt>
      <trkpt lat="42.29675" lon="2.68069">
        <ele>793.211</ele>
        <time>2011-04-02T15:52:20Z</time>
      </trkpt>
      <trkpt lat="42.29678" lon="2.68073">
        <ele>793.729</ele>
        <time>2011-04-02T15:52:23Z</time>
      </trkpt>
      <trkpt lat="42.29682" lon="2.68079">
        <ele>794.272</ele>
        <time>2011-04-02T15:52:27Z</time>
      </trkpt>
      <trkpt lat="42.29687" lon="2.68086">
        <ele>792.753</ele>
        <time>2011-04-02T15:52:32Z</time>
      </trkpt>
      <trkpt lat="42.29691" lon="2.68094">
        <ele>792.704</ele>
        <time>2011-04-02T15:52:37Z</time>
      </trkpt>
      <trkpt lat="42.29703" lon="2.68125">
        <ele>793.214</ele>
        <time>2011-04-02T15:52:53Z</time>
      </trkpt>
      <trkpt lat="42.2971" lon="2.68148">
        <ele>793.707</ele>
        <time>2011-04-02T15:53:04Z</time>
      </trkpt>
      <trkpt lat="42.29709" lon="2.68156">
        <ele>793.796</ele>
        <time>2011-04-02T15:53:08Z</time>
      </trkpt>
      <trkpt lat="42.29714" lon="2.68172">
        <ele>793.24</ele>
        <time>2011-04-02T15:53:16Z</time>
      </trkpt>
      <trkpt lat="42.29716" lon="2.68178">
        <ele>794.223</ele>
        <time>2011-04-02T15:53:19Z</time>
      </trkpt>
      <trkpt lat="42.29718" lon="2.68187">
        <ele>794.212</ele>
        <time>2011-04-02T15:53:24Z</time>
      </trkpt>
      <trkpt lat="42.29721" lon="2.68198">
        <ele>794.729</ele>
        <time>2011-04-02T15:53:30Z</time>
      </trkpt>
      <trkpt lat="42.29726" lon="2.68218">
        <ele>794.787</ele>
        <time>2011-04-02T15:53:39Z</time>
      </trkpt>
      <trkpt lat="42.29726" lon="2.68225">
        <ele>794.73</ele>
        <time>2011-04-02T15:53:42Z</time>
      </trkpt>
      <trkpt lat="42.29727" lon="2.68243">
        <ele>795.656</ele>
        <time>2011-04-02T15:53:49Z</time>
      </trkpt>
      <trkpt lat="42.29736" lon="2.68288">
        <ele>795.659</ele>
        <time>2011-04-02T15:54:01Z</time>
      </trkpt>
      <trkpt lat="42.29736" lon="2.68297">
        <ele>795.214</ele>
        <time>2011-04-02T15:54:05Z</time>
      </trkpt>
      <trkpt lat="42.29734" lon="2.68307">
        <ele>796.107</ele>
        <time>2011-04-02T15:54:11Z</time>
      </trkpt>
      <trkpt lat="42.29733" lon="2.68328">
        <ele>796.166</ele>
        <time>2011-04-02T15:54:22Z</time>
      </trkpt>
      <trkpt lat="42.29734" lon="2.68341">
        <ele>795.63</ele>
        <time>2011-04-02T15:54:27Z</time>
      </trkpt>
      <trkpt lat="42.29724" lon="2.6837">
        <ele>797.113</ele>
        <time>2011-04-02T15:54:40Z</time>
      </trkpt>
      <trkpt lat="42.29712" lon="2.68393">
        <ele>797.642</ele>
        <time>2011-04-02T15:54:54Z</time>
      </trkpt>
      <trkpt lat="42.29697" lon="2.68418">
        <ele>799.039</ele>
        <time>2011-04-02T15:55:10Z</time>
      </trkpt>
      <trkpt lat="42.29695" lon="2.68425">
        <ele>799.517</ele>
        <time>2011-04-02T15:55:14Z</time>
      </trkpt>
      <trkpt lat="42.29691" lon="2.68432">
        <ele>800.02</ele>
        <time>2011-04-02T15:55:19Z</time>
      </trkpt>
      <trkpt lat="42.29684" lon="2.68446">
        <ele>800.024</ele>
        <time>2011-04-02T15:55:27Z</time>
      </trkpt>
      <trkpt lat="42.29679" lon="2.68459">
        <ele>800.004</ele>
        <time>2011-04-02T15:55:34Z</time>
      </trkpt>
      <trkpt lat="42.29677" lon="2.68463">
        <ele>800.414</ele>
        <time>2011-04-02T15:55:36Z</time>
      </trkpt>
      <trkpt lat="42.29669" lon="2.68493">
        <ele>800.007</ele>
        <time>2011-04-02T15:55:51Z</time>
      </trkpt>
      <trkpt lat="42.29661" lon="2.68517">
        <ele>800.913</ele>
        <time>2011-04-02T15:56:04Z</time>
      </trkpt>
      <trkpt lat="42.29659" lon="2.68528">
        <ele>801.437</ele>
        <time>2011-04-02T15:56:10Z</time>
      </trkpt>
      <trkpt lat="42.29654" lon="2.68543">
        <ele>801.95</ele>
        <time>2011-04-02T15:56:18Z</time>
      </trkpt>
      <trkpt lat="42.29649" lon="2.68564">
        <ele>801.949</ele>
        <time>2011-04-02T15:56:29Z</time>
      </trkpt>
      <trkpt lat="42.29645" lon="2.68579">
        <ele>801.916</ele>
        <time>2011-04-02T15:56:36Z</time>
      </trkpt>
      <trkpt lat="42.29634" lon="2.68608">
        <ele>802.854</ele>
        <time>2011-04-02T15:56:51Z</time>
      </trkpt>
      <trkpt lat="42.29631" lon="2.68638">
        <ele>804.367</ele>
        <time>2011-04-02T15:57:06Z</time>
      </trkpt>
      <trkpt lat="42.29621" lon="2.68674">
        <ele>805.744</ele>
        <time>2011-04-02T15:57:25Z</time>
      </trkpt>
      <trkpt lat="42.29619" lon="2.68681">
        <ele>805.205</ele>
        <time>2011-04-02T15:57:29Z</time>
      </trkpt>
      <trkpt lat="42.29612" lon="2.68709">
        <ele>807.215</ele>
        <time>2011-04-02T15:57:45Z</time>
      </trkpt>
      <trkpt lat="42.29597" lon="2.68755">
        <ele>806.207</ele>
        <time>2011-04-02T15:57:57Z</time>
      </trkpt>
      <trkpt lat="42.29571" lon="2.68778">
        <ele>806.255</ele>
        <time>2011-04-02T15:58:08Z</time>
      </trkpt>
      <trkpt lat="42.29559" lon="2.68812">
        <ele>803.839</ele>
        <time>2011-04-02T15:58:24Z</time>
      </trkpt>
      <trkpt lat="42.29542" lon="2.68844">
        <ele>801.492</ele>
        <time>2011-04-02T15:58:35Z</time>
      </trkpt>
      <trkpt lat="42.29529" lon="2.68862">
        <ele>801.461</ele>
        <time>2011-04-02T15:58:48Z</time>
      </trkpt>
      <trkpt lat="42.29518" lon="2.6889">
        <ele>801.918</ele>
        <time>2011-04-02T15:59:04Z</time>
      </trkpt>
      <trkpt lat="42.29505" lon="2.68911">
        <ele>802.456</ele>
        <time>2011-04-02T15:59:18Z</time>
      </trkpt>
      <trkpt lat="42.29502" lon="2.68915">
        <ele>802.439</ele>
        <time>2011-04-02T15:59:21Z</time>
      </trkpt>
      <trkpt lat="42.29496" lon="2.68922">
        <ele>803.342</ele>
        <time>2011-04-02T15:59:26Z</time>
      </trkpt>
      <trkpt lat="42.29479" lon="2.68948">
        <ele>804.322</ele>
        <time>2011-04-02T15:59:41Z</time>
      </trkpt>
      <trkpt lat="42.29467" lon="2.68971">
        <ele>805.214</ele>
        <time>2011-04-02T15:59:56Z</time>
      </trkpt>
      <trkpt lat="42.29458" lon="2.68998">
        <ele>804.807</ele>
        <time>2011-04-02T16:00:11Z</time>
      </trkpt>
      <trkpt lat="42.29448" lon="2.69026">
        <ele>804.885</ele>
        <time>2011-04-02T16:00:25Z</time>
      </trkpt>
      <trkpt lat="42.29447" lon="2.69035">
        <ele>804.849</ele>
        <time>2011-04-02T16:00:29Z</time>
      </trkpt>
      <trkpt lat="42.29439" lon="2.6907">
        <ele>804.812</ele>
        <time>2011-04-02T16:00:46Z</time>
      </trkpt>
      <trkpt lat="42.29428" lon="2.69099">
        <ele>801.911</ele>
        <time>2011-04-02T16:01:02Z</time>
      </trkpt>
      <trkpt lat="42.29423" lon="2.69112">
        <ele>802.898</ele>
        <time>2011-04-02T16:01:17Z</time>
      </trkpt>
      <trkpt lat="42.29412" lon="2.69113">
        <ele>802.466</ele>
        <time>2011-04-02T16:01:52Z</time>
      </trkpt>
      <trkpt lat="42.29412" lon="2.69116">
        <ele>802.839</ele>
        <time>2011-04-02T16:02:03Z</time>
      </trkpt>
      <trkpt lat="42.29409" lon="2.69114">
        <ele>802.488</ele>
        <time>2011-04-02T16:02:21Z</time>
      </trkpt>
      <trkpt lat="42.29404" lon="2.69117">
        <ele>802.424</ele>
        <time>2011-04-02T16:02:27Z</time>
      </trkpt>
      <trkpt lat="42.29402" lon="2.69118">
        <ele>802.426</ele>
        <time>2011-04-02T16:02:29Z</time>
      </trkpt>
      <trkpt lat="42.29396" lon="2.69126">
        <ele>801.407</ele>
        <time>2011-04-02T16:02:37Z</time>
      </trkpt>
      <trkpt lat="42.29383" lon="2.69154">
        <ele>800.459</ele>
        <time>2011-04-02T16:02:50Z</time>
      </trkpt>
      <trkpt lat="42.29364" lon="2.69184">
        <ele>798.023</ele>
        <time>2011-04-02T16:03:01Z</time>
      </trkpt>
      <trkpt lat="42.29356" lon="2.6919">
        <ele>796.186</ele>
        <time>2011-04-02T16:03:04Z</time>
      </trkpt>
      <trkpt lat="42.29344" lon="2.69199">
        <ele>794.755</ele>
        <time>2011-04-02T16:03:09Z</time>
      </trkpt>
      <trkpt lat="42.2934" lon="2.69211">
        <ele>793.282</ele>
        <time>2011-04-02T16:03:14Z</time>
      </trkpt>
      <trkpt lat="42.2934" lon="2.69213">
        <ele>793.27</ele>
        <time>2011-04-02T16:03:15Z</time>
      </trkpt>
      <trkpt lat="42.29349" lon="2.6924">
        <ele>788.953</ele>
        <time>2011-04-02T16:03:25Z</time>
      </trkpt>
      <trkpt lat="42.29349" lon="2.69244">
        <ele>789.974</ele>
        <time>2011-04-02T16:03:26Z</time>
      </trkpt>
      <trkpt lat="42.29351" lon="2.69253">
        <ele>787.956</ele>
        <time>2011-04-02T16:03:29Z</time>
      </trkpt>
      <trkpt lat="42.29335" lon="2.69276">
        <ele>785.521</ele>
        <time>2011-04-02T16:03:38Z</time>
      </trkpt>
      <trkpt lat="42.29325" lon="2.69283">
        <ele>784.607</ele>
        <time>2011-04-02T16:03:42Z</time>
      </trkpt>
      <trkpt lat="42.29305" lon="2.69287">
        <ele>784.658</ele>
        <time>2011-04-02T16:03:54Z</time>
      </trkpt>
      <trkpt lat="42.2928" lon="2.69299">
        <ele>783.152</ele>
        <time>2011-04-02T16:04:10Z</time>
      </trkpt>
      <trkpt lat="42.29247" lon="2.69323">
        <ele>783.155</ele>
        <time>2011-04-02T16:04:26Z</time>
      </trkpt>
      <trkpt lat="42.29213" lon="2.69354">
        <ele>783.644</ele>
        <time>2011-04-02T16:04:44Z</time>
      </trkpt>
      <trkpt lat="42.29188" lon="2.69388">
        <ele>781.261</ele>
        <time>2011-04-02T16:04:58Z</time>
      </trkpt>
      <trkpt lat="42.29169" lon="2.69414">
        <ele>780.399</ele>
        <time>2011-04-02T16:05:10Z</time>
      </trkpt>
      <trkpt lat="42.2914" lon="2.69432">
        <ele>779.332</ele>
        <time>2011-04-02T16:05:23Z</time>
      </trkpt>
      <trkpt lat="42.29118" lon="2.69436">
        <ele>778.843</ele>
        <time>2011-04-02T16:05:38Z</time>
      </trkpt>
      <trkpt lat="42.29088" lon="2.69436">
        <ele>777.464</ele>
        <time>2011-04-02T16:05:58Z</time>
      </trkpt>
      <trkpt lat="42.2906" lon="2.69437">
        <ele>774.51</ele>
        <time>2011-04-02T16:06:09Z</time>
      </trkpt>
      <trkpt lat="42.29036" lon="2.69426">
        <ele>771.607</ele>
        <time>2011-04-02T16:06:19Z</time>
      </trkpt>
      <trkpt lat="42.28998" lon="2.69404">
        <ele>769.275</ele>
        <time>2011-04-02T16:06:32Z</time>
      </trkpt>
      <trkpt lat="42.28972" lon="2.69369">
        <ele>766.879</ele>
        <time>2011-04-02T16:06:45Z</time>
      </trkpt>
      <trkpt lat="42.28942" lon="2.69343">
        <ele>763.432</ele>
        <time>2011-04-02T16:06:59Z</time>
      </trkpt>
      <trkpt lat="42.28922" lon="2.69332">
        <ele>760.111</ele>
        <time>2011-04-02T16:07:08Z</time>
      </trkpt>
      <trkpt lat="42.28907" lon="2.69307">
        <ele>756.768</ele>
        <time>2011-04-02T16:07:17Z</time>
      </trkpt>
      <trkpt lat="42.28901" lon="2.69296">
        <ele>756.276</ele>
        <time>2011-04-02T16:07:21Z</time>
      </trkpt>
      <trkpt lat="42.28886" lon="2.69277">
        <ele>752.959</ele>
        <time>2011-04-02T16:07:29Z</time>
      </trkpt>
      <trkpt lat="42.28863" lon="2.69255">
        <ele>750.959</ele>
        <time>2011-04-02T16:07:40Z</time>
      </trkpt>
      <trkpt lat="42.2885" lon="2.6924">
        <ele>749.003</ele>
        <time>2011-04-02T16:07:46Z</time>
      </trkpt>
      <trkpt lat="42.28823" lon="2.69221">
        <ele>748.023</ele>
        <time>2011-04-02T16:07:58Z</time>
      </trkpt>
      <trkpt lat="42.28807" lon="2.69196">
        <ele>748.007</ele>
        <time>2011-04-02T16:08:10Z</time>
      </trkpt>
      <trkpt lat="42.28784" lon="2.69161">
        <ele>749.066</ele>
        <time>2011-04-02T16:08:33Z</time>
      </trkpt>
      <trkpt lat="42.28767" lon="2.69143">
        <ele>750.94</ele>
        <time>2011-04-02T16:08:48Z</time>
      </trkpt>
      <trkpt lat="42.28751" lon="2.69135">
        <ele>752.963</ele>
        <time>2011-04-02T16:09:01Z</time>
      </trkpt>
      <trkpt lat="42.28724" lon="2.69137">
        <ele>752.492</ele>
        <time>2011-04-02T16:09:19Z</time>
      </trkpt>
      <trkpt lat="42.28693" lon="2.69136">
        <ele>753.869</ele>
        <time>2011-04-02T16:09:39Z</time>
      </trkpt>
      <trkpt lat="42.28666" lon="2.69144">
        <ele>753.367</ele>
        <time>2011-04-02T16:09:57Z</time>
      </trkpt>
      <trkpt lat="42.28652" lon="2.6915">
        <ele>752.45</ele>
        <time>2011-04-02T16:10:07Z</time>
      </trkpt>
      <trkpt lat="42.28639" lon="2.69156">
        <ele>751.953</ele>
        <time>2011-04-02T16:10:16Z</time>
      </trkpt>
      <trkpt lat="42.28614" lon="2.69167">
        <ele>751.404</ele>
        <time>2011-04-02T16:10:31Z</time>
      </trkpt>
      <trkpt lat="42.28588" lon="2.69178">
        <ele>749.014</ele>
        <time>2011-04-02T16:10:47Z</time>
      </trkpt>
      <trkpt lat="42.28565" lon="2.6919">
        <ele>748.007</ele>
        <time>2011-04-02T16:11:01Z</time>
      </trkpt>
      <trkpt lat="42.28541" lon="2.69208">
        <ele>746.636</ele>
        <time>2011-04-02T16:11:16Z</time>
      </trkpt>
      <trkpt lat="42.2851" lon="2.69229">
        <ele>746.16</ele>
        <time>2011-04-02T16:11:29Z</time>
      </trkpt>
      <trkpt lat="42.28492" lon="2.69237">
        <ele>745.693</ele>
        <time>2011-04-02T16:11:37Z</time>
      </trkpt>
      <trkpt lat="42.28482" lon="2.69239">
        <ele>745.622</ele>
        <time>2011-04-02T16:11:42Z</time>
      </trkpt>
      <trkpt lat="42.28477" lon="2.69241">
        <ele>746.129</ele>
        <time>2011-04-02T16:11:44Z</time>
      </trkpt>
      <trkpt lat="42.2846" lon="2.6924">
        <ele>744.797</ele>
        <time>2011-04-02T16:11:51Z</time>
      </trkpt>
      <trkpt lat="42.28439" lon="2.69236">
        <ele>744.71</ele>
        <time>2011-04-02T16:12:00Z</time>
      </trkpt>
      <trkpt lat="42.28409" lon="2.69232">
        <ele>744.291</ele>
        <time>2011-04-02T16:12:12Z</time>
      </trkpt>
      <trkpt lat="42.28376" lon="2.69229">
        <ele>743.781</ele>
        <time>2011-04-02T16:12:25Z</time>
      </trkpt>
      <trkpt lat="42.28348" lon="2.69227">
        <ele>743.719</ele>
        <time>2011-04-02T16:12:42Z</time>
      </trkpt>
      <trkpt lat="42.28341" lon="2.69227">
        <ele>743.207</ele>
        <time>2011-04-02T16:12:49Z</time>
      </trkpt>
      <trkpt lat="42.28312" lon="2.69227">
        <ele>742.37</ele>
        <time>2011-04-02T16:13:08Z</time>
      </trkpt>
      <trkpt lat="42.28285" lon="2.69223">
        <ele>740.424</ele>
        <time>2011-04-02T16:13:25Z</time>
      </trkpt>
      <trkpt lat="42.28262" lon="2.69217">
        <ele>738.447</ele>
        <time>2011-04-02T16:13:41Z</time>
      </trkpt>
      <trkpt lat="42.28232" lon="2.69221">
        <ele>736.066</ele>
        <time>2011-04-02T16:14:00Z</time>
      </trkpt>
      <trkpt lat="42.28207" lon="2.69227">
        <ele>736.053</ele>
        <time>2011-04-02T16:14:17Z</time>
      </trkpt>
      <trkpt lat="42.28204" lon="2.69229">
        <ele>736.021</ele>
        <time>2011-04-02T16:14:19Z</time>
      </trkpt>
      <trkpt lat="42.28203" lon="2.69234">
        <ele>737.024</ele>
        <time>2011-04-02T16:14:23Z</time>
      </trkpt>
      <trkpt lat="42.28215" lon="2.69249">
        <ele>736.586</ele>
        <time>2011-04-02T16:14:34Z</time>
      </trkpt>
      <trkpt lat="42.2822" lon="2.69251">
        <ele>738.46</ele>
        <time>2011-04-02T16:14:37Z</time>
      </trkpt>
      <trkpt lat="42.28221" lon="2.69252">
        <ele>737.026</ele>
        <time>2011-04-02T16:14:38Z</time>
      </trkpt>
      <trkpt lat="42.28226" lon="2.69261">
        <ele>738.907</ele>
        <time>2011-04-02T16:14:45Z</time>
      </trkpt>
      <trkpt lat="42.28226" lon="2.69264">
        <ele>738.049</ele>
        <time>2011-04-02T16:14:47Z</time>
      </trkpt>
      <trkpt lat="42.28225" lon="2.69267">
        <ele>738.433</ele>
        <time>2011-04-02T16:14:49Z</time>
      </trkpt>
      <trkpt lat="42.28226" lon="2.69273">
        <ele>740.416</ele>
        <time>2011-04-02T16:14:54Z</time>
      </trkpt>
      <trkpt lat="42.28226" lon="2.69288">
        <ele>742.395</ele>
        <time>2011-04-02T16:15:06Z</time>
      </trkpt>
      <trkpt lat="42.28227" lon="2.69304">
        <ele>743.722</ele>
        <time>2011-04-02T16:15:15Z</time>
      </trkpt>
      <trkpt lat="42.28225" lon="2.69317">
        <ele>745.65</ele>
        <time>2011-04-02T16:15:24Z</time>
      </trkpt>
      <trkpt lat="42.28218" lon="2.6933">
        <ele>746.693</ele>
        <time>2011-04-02T16:15:30Z</time>
      </trkpt>
      <trkpt lat="42.28212" lon="2.69337">
        <ele>747.186</ele>
        <time>2011-04-02T16:15:34Z</time>
      </trkpt>
      <trkpt lat="42.282" lon="2.69363">
        <ele>749.06</ele>
        <time>2011-04-02T16:15:49Z</time>
      </trkpt>
      <trkpt lat="42.28195" lon="2.69369">
        <ele>748.526</ele>
        <time>2011-04-02T16:15:53Z</time>
      </trkpt>
      <trkpt lat="42.28178" lon="2.69382">
        <ele>749.007</ele>
        <time>2011-04-02T16:16:06Z</time>
      </trkpt>
      <trkpt lat="42.28159" lon="2.69386">
        <ele>747.689</ele>
        <time>2011-04-02T16:16:18Z</time>
      </trkpt>
      <trkpt lat="42.28145" lon="2.69386">
        <ele>747.643</ele>
        <time>2011-04-02T16:16:31Z</time>
      </trkpt>
      <trkpt lat="42.28139" lon="2.69385">
        <ele>748.536</ele>
        <time>2011-04-02T16:16:37Z</time>
      </trkpt>
      <trkpt lat="42.28121" lon="2.69386">
        <ele>748.565</ele>
        <time>2011-04-02T16:16:51Z</time>
      </trkpt>
      <trkpt lat="42.28119" lon="2.6939">
        <ele>749.032</ele>
        <time>2011-04-02T16:16:58Z</time>
      </trkpt>
      <trkpt lat="42.2812" lon="2.69392">
        <ele>748.55</ele>
        <time>2011-04-02T16:17:01Z</time>
      </trkpt>
      <trkpt lat="42.28126" lon="2.69396">
        <ele>749.053</ele>
        <time>2011-04-02T16:17:07Z</time>
      </trkpt>
      <trkpt lat="42.28129" lon="2.69403">
        <ele>749.579</ele>
        <time>2011-04-02T16:17:12Z</time>
      </trkpt>
      <trkpt lat="42.28133" lon="2.69407">
        <ele>750.905</ele>
        <time>2011-04-02T16:17:16Z</time>
      </trkpt>
      <trkpt lat="42.28137" lon="2.69413">
        <ele>750.525</ele>
        <time>2011-04-02T16:17:20Z</time>
      </trkpt>
      <trkpt lat="42.28144" lon="2.69429">
        <ele>751.907</ele>
        <time>2011-04-02T16:17:31Z</time>
      </trkpt>
      <trkpt lat="42.28146" lon="2.69452">
        <ele>753.368</ele>
        <time>2011-04-02T16:17:43Z</time>
      </trkpt>
      <trkpt lat="42.28146" lon="2.69457">
        <ele>753.832</ele>
        <time>2011-04-02T16:17:45Z</time>
      </trkpt>
      <trkpt lat="42.28145" lon="2.69491">
        <ele>753.825</ele>
        <time>2011-04-02T16:18:01Z</time>
      </trkpt>
      <trkpt lat="42.28144" lon="2.69504">
        <ele>755.794</ele>
        <time>2011-04-02T16:18:08Z</time>
      </trkpt>
      <trkpt lat="42.28144" lon="2.69513">
        <ele>755.771</ele>
        <time>2011-04-02T16:18:14Z</time>
      </trkpt>
      <trkpt lat="42.28144" lon="2.69519">
        <ele>755.739</ele>
        <time>2011-04-02T16:18:17Z</time>
      </trkpt>
      <trkpt lat="42.28143" lon="2.69525">
        <ele>755.782</ele>
        <time>2011-04-02T16:18:21Z</time>
      </trkpt>
      <trkpt lat="42.28141" lon="2.69536">
        <ele>756.756</ele>
        <time>2011-04-02T16:18:27Z</time>
      </trkpt>
      <trkpt lat="42.28138" lon="2.69545">
        <ele>757.259</ele>
        <time>2011-04-02T16:18:31Z</time>
      </trkpt>
      <trkpt lat="42.28139" lon="2.69566">
        <ele>758.114</ele>
        <time>2011-04-02T16:18:43Z</time>
      </trkpt>
      <trkpt lat="42.2814" lon="2.69567">
        <ele>758.107</ele>
        <time>2011-04-02T16:18:44Z</time>
      </trkpt>
      <trkpt lat="42.28138" lon="2.69582">
        <ele>759.676</ele>
        <time>2011-04-02T16:18:54Z</time>
      </trkpt>
      <trkpt lat="42.28139" lon="2.6959">
        <ele>761.09</ele>
        <time>2011-04-02T16:18:59Z</time>
      </trkpt>
      <trkpt lat="42.28141" lon="2.69606">
        <ele>764.473</ele>
        <time>2011-04-02T16:19:11Z</time>
      </trkpt>
      <trkpt lat="42.28141" lon="2.69619">
        <ele>764.482</ele>
        <time>2011-04-02T16:19:19Z</time>
      </trkpt>
      <trkpt lat="42.28141" lon="2.69633">
        <ele>766.399</ele>
        <time>2011-04-02T16:19:27Z</time>
      </trkpt>
      <trkpt lat="42.28141" lon="2.69645">
        <ele>767.827</ele>
        <time>2011-04-02T16:19:37Z</time>
      </trkpt>
      <trkpt lat="42.2814" lon="2.69667">
        <ele>769.79</ele>
        <time>2011-04-02T16:19:51Z</time>
      </trkpt>
      <trkpt lat="42.28139" lon="2.69685">
        <ele>770.651</ele>
        <time>2011-04-02T16:20:01Z</time>
      </trkpt>
      <trkpt lat="42.28132" lon="2.69701">
        <ele>770.601</ele>
        <time>2011-04-02T16:20:10Z</time>
      </trkpt>
      <trkpt lat="42.28128" lon="2.69721">
        <ele>771.611</ele>
        <time>2011-04-02T16:20:21Z</time>
      </trkpt>
      <trkpt lat="42.28107" lon="2.69749">
        <ele>772.107</ele>
        <time>2011-04-02T16:20:38Z</time>
      </trkpt>
      <trkpt lat="42.281" lon="2.69768">
        <ele>773.076</ele>
        <time>2011-04-02T16:20:50Z</time>
      </trkpt>
      <trkpt lat="42.28098" lon="2.69772">
        <ele>774.04</ele>
        <time>2011-04-02T16:20:52Z</time>
      </trkpt>
      <trkpt lat="42.28091" lon="2.69795">
        <ele>774.023</ele>
        <time>2011-04-02T16:21:07Z</time>
      </trkpt>
      <trkpt lat="42.28089" lon="2.69803">
        <ele>774.072</ele>
        <time>2011-04-02T16:21:12Z</time>
      </trkpt>
      <trkpt lat="42.28081" lon="2.69815">
        <ele>774.519</ele>
        <time>2011-04-02T16:21:19Z</time>
      </trkpt>
      <trkpt lat="42.2808" lon="2.6982">
        <ele>774.027</ele>
        <time>2011-04-02T16:21:22Z</time>
      </trkpt>
      <trkpt lat="42.28079" lon="2.69833">
        <ele>775.07</ele>
        <time>2011-04-02T16:21:30Z</time>
      </trkpt>
      <trkpt lat="42.28073" lon="2.69848">
        <ele>775.497</ele>
        <time>2011-04-02T16:21:39Z</time>
      </trkpt>
      <trkpt lat="42.28062" lon="2.69871">
        <ele>776.923</ele>
        <time>2011-04-02T16:21:54Z</time>
      </trkpt>
      <trkpt lat="42.28061" lon="2.69877">
        <ele>776.425</ele>
        <time>2011-04-02T16:21:58Z</time>
      </trkpt>
      <trkpt lat="42.28056" lon="2.69892">
        <ele>777.407</ele>
        <time>2011-04-02T16:22:09Z</time>
      </trkpt>
      <trkpt lat="42.28048" lon="2.69917">
        <ele>780.74</ele>
        <time>2011-04-02T16:22:26Z</time>
      </trkpt>
      <trkpt lat="42.28038" lon="2.69937">
        <ele>782.784</ele>
        <time>2011-04-02T16:22:41Z</time>
      </trkpt>
      <trkpt lat="42.2803" lon="2.69947">
        <ele>785.587</ele>
        <time>2011-04-02T16:22:49Z</time>
      </trkpt>
      <trkpt lat="42.28019" lon="2.69965">
        <ele>787.916</ele>
        <time>2011-04-02T16:23:03Z</time>
      </trkpt>
      <trkpt lat="42.28009" lon="2.69977">
        <ele>789.923</ele>
        <time>2011-04-02T16:23:14Z</time>
      </trkpt>
      <trkpt lat="42.27994" lon="2.6999">
        <ele>793.221</ele>
        <time>2011-04-02T16:23:27Z</time>
      </trkpt>
      <trkpt lat="42.27986" lon="2.69995">
        <ele>794.764</ele>
        <time>2011-04-02T16:23:38Z</time>
      </trkpt>
      <trkpt lat="42.27981" lon="2.70007">
        <ele>797.696</ele>
        <time>2011-04-02T16:23:53Z</time>
      </trkpt>
      <trkpt lat="42.2798" lon="2.70011">
        <ele>798.531</ele>
        <time>2011-04-02T16:23:57Z</time>
      </trkpt>
      <trkpt lat="42.27968" lon="2.70023">
        <ele>801.424</ele>
        <time>2011-04-02T16:24:11Z</time>
      </trkpt>
      <trkpt lat="42.27957" lon="2.70034">
        <ele>803.307</ele>
        <time>2011-04-02T16:24:22Z</time>
      </trkpt>
      <trkpt lat="42.27943" lon="2.7005">
        <ele>805.24</ele>
        <time>2011-04-02T16:24:36Z</time>
      </trkpt>
      <trkpt lat="42.27929" lon="2.70061">
        <ele>807.224</ele>
        <time>2011-04-02T16:24:51Z</time>
      </trkpt>
      <trkpt lat="42.27915" lon="2.70072">
        <ele>810.197</ele>
        <time>2011-04-02T16:25:06Z</time>
      </trkpt>
      <trkpt lat="42.27908" lon="2.7008">
        <ele>810.136</ele>
        <time>2011-04-02T16:25:14Z</time>
      </trkpt>
      <trkpt lat="42.27901" lon="2.70089">
        <ele>810.563</ele>
        <time>2011-04-02T16:25:22Z</time>
      </trkpt>
      <trkpt lat="42.27887" lon="2.70108">
        <ele>812.091</ele>
        <time>2011-04-02T16:25:36Z</time>
      </trkpt>
      <trkpt lat="42.27868" lon="2.70122">
        <ele>813.934</ele>
        <time>2011-04-02T16:25:51Z</time>
      </trkpt>
      <trkpt lat="42.27863" lon="2.70123">
        <ele>813.998</ele>
        <time>2011-04-02T16:25:56Z</time>
      </trkpt>
      <trkpt lat="42.27859" lon="2.70123">
        <ele>814.415</ele>
        <time>2011-04-02T16:25:59Z</time>
      </trkpt>
      <trkpt lat="42.27847" lon="2.70127">
        <ele>818.226</ele>
        <time>2011-04-02T16:26:13Z</time>
      </trkpt>
      <trkpt lat="42.27832" lon="2.70129">
        <ele>820.607</ele>
        <time>2011-04-02T16:26:30Z</time>
      </trkpt>
      <trkpt lat="42.27825" lon="2.70132">
        <ele>820.66</ele>
        <time>2011-04-02T16:26:40Z</time>
      </trkpt>
      <trkpt lat="42.27815" lon="2.70135">
        <ele>823.574</ele>
        <time>2011-04-02T16:26:59Z</time>
      </trkpt>
      <trkpt lat="42.2781" lon="2.70127">
        <ele>826.477</ele>
        <time>2011-04-02T16:27:13Z</time>
      </trkpt>
      <trkpt lat="42.27809" lon="2.70123">
        <ele>827.426</ele>
        <time>2011-04-02T16:27:23Z</time>
      </trkpt>
      <trkpt lat="42.27802" lon="2.70119">
        <ele>828.363</ele>
        <time>2011-04-02T16:27:36Z</time>
      </trkpt>
      <trkpt lat="42.27795" lon="2.70113">
        <ele>831.771</ele>
        <time>2011-04-02T16:27:48Z</time>
      </trkpt>
      <trkpt lat="42.27791" lon="2.70107">
        <ele>833.624</ele>
        <time>2011-04-02T16:28:02Z</time>
      </trkpt>
      <trkpt lat="42.27789" lon="2.70108">
        <ele>834.691</ele>
        <time>2011-04-02T16:28:06Z</time>
      </trkpt>
      <trkpt lat="42.27784" lon="2.70096">
        <ele>837.981</ele>
        <time>2011-04-02T16:28:21Z</time>
      </trkpt>
      <trkpt lat="42.2778" lon="2.70096">
        <ele>838.419</ele>
        <time>2011-04-02T16:28:27Z</time>
      </trkpt>
      <trkpt lat="42.27777" lon="2.70098">
        <ele>839.407</ele>
        <time>2011-04-02T16:28:31Z</time>
      </trkpt>
      <trkpt lat="42.27775" lon="2.70098">
        <ele>839.48</ele>
        <time>2011-04-02T16:28:33Z</time>
      </trkpt>
      <trkpt lat="42.27774" lon="2.70098">
        <ele>839.424</ele>
        <time>2011-04-02T16:28:35Z</time>
      </trkpt>
      <trkpt lat="42.27762" lon="2.70107">
        <ele>842.717</ele>
        <time>2011-04-02T16:28:49Z</time>
      </trkpt>
      <trkpt lat="42.27756" lon="2.70114">
        <ele>845.176</ele>
        <time>2011-04-02T16:28:58Z</time>
      </trkpt>
      <trkpt lat="42.27749" lon="2.70124">
        <ele>846.683</ele>
        <time>2011-04-02T16:29:08Z</time>
      </trkpt>
      <trkpt lat="42.27742" lon="2.70134">
        <ele>848.511</ele>
        <time>2011-04-02T16:29:17Z</time>
      </trkpt>
      <trkpt lat="42.27735" lon="2.70138">
        <ele>848.584</ele>
        <time>2011-04-02T16:29:23Z</time>
      </trkpt>
      <trkpt lat="42.27734" lon="2.70138">
        <ele>849.064</ele>
        <time>2011-04-02T16:29:24Z</time>
      </trkpt>
      <trkpt lat="42.27721" lon="2.7015">
        <ele>851.406</ele>
        <time>2011-04-02T16:29:38Z</time>
      </trkpt>
      <trkpt lat="42.27718" lon="2.70154">
        <ele>851.916</ele>
        <time>2011-04-02T16:29:43Z</time>
      </trkpt>
      <trkpt lat="42.2771" lon="2.70164">
        <ele>855.707</ele>
        <time>2011-04-02T16:29:56Z</time>
      </trkpt>
      <trkpt lat="42.27706" lon="2.70167">
        <ele>857.257</ele>
        <time>2011-04-02T16:30:01Z</time>
      </trkpt>
      <trkpt lat="42.27692" lon="2.70177">
        <ele>860.041</ele>
        <time>2011-04-02T16:30:16Z</time>
      </trkpt>
      <trkpt lat="42.27679" lon="2.70192">
        <ele>862.994</ele>
        <time>2011-04-02T16:30:32Z</time>
      </trkpt>
      <trkpt lat="42.27676" lon="2.70195">
        <ele>863.973</ele>
        <time>2011-04-02T16:30:36Z</time>
      </trkpt>
      <trkpt lat="42.2767" lon="2.702">
        <ele>864.44</ele>
        <time>2011-04-02T16:30:42Z</time>
      </trkpt>
      <trkpt lat="42.27663" lon="2.7022">
        <ele>864.438</ele>
        <time>2011-04-02T16:30:57Z</time>
      </trkpt>
      <trkpt lat="42.27662" lon="2.70222">
        <ele>863.931</ele>
        <time>2011-04-02T16:30:58Z</time>
      </trkpt>
      <trkpt lat="42.27658" lon="2.7023">
        <ele>865.375</ele>
        <time>2011-04-02T16:31:02Z</time>
      </trkpt>
      <trkpt lat="42.27653" lon="2.7024">
        <ele>864.428</ele>
        <time>2011-04-02T16:31:08Z</time>
      </trkpt>
      <trkpt lat="42.27628" lon="2.70256">
        <ele>865.32</ele>
        <time>2011-04-02T16:31:20Z</time>
      </trkpt>
      <trkpt lat="42.27611" lon="2.70264">
        <ele>864.407</ele>
        <time>2011-04-02T16:31:32Z</time>
      </trkpt>
      <trkpt lat="42.27593" lon="2.70279">
        <ele>863.978</ele>
        <time>2011-04-02T16:31:46Z</time>
      </trkpt>
      <trkpt lat="42.27565" lon="2.70289">
        <ele>862.462</ele>
        <time>2011-04-02T16:31:58Z</time>
      </trkpt>
      <trkpt lat="42.2755" lon="2.70298">
        <ele>865.825</ele>
        <time>2011-04-02T16:32:11Z</time>
      </trkpt>
      <trkpt lat="42.27542" lon="2.70303">
        <ele>865.354</ele>
        <time>2011-04-02T16:32:16Z</time>
      </trkpt>
      <trkpt lat="42.27532" lon="2.70314">
        <ele>865.361</ele>
        <time>2011-04-02T16:32:27Z</time>
      </trkpt>
      <trkpt lat="42.27527" lon="2.70325">
        <ele>866.829</ele>
        <time>2011-04-02T16:32:37Z</time>
      </trkpt>
      <trkpt lat="42.27525" lon="2.70328">
        <ele>866.382</ele>
        <time>2011-04-02T16:32:40Z</time>
      </trkpt>
      <trkpt lat="42.27511" lon="2.70335">
        <ele>868.267</ele>
        <time>2011-04-02T16:32:48Z</time>
      </trkpt>
      <trkpt lat="42.27505" lon="2.70337">
        <ele>868.781</ele>
        <time>2011-04-02T16:32:52Z</time>
      </trkpt>
      <trkpt lat="42.27498" lon="2.70339">
        <ele>868.719</ele>
        <time>2011-04-02T16:32:57Z</time>
      </trkpt>
      <trkpt lat="42.27494" lon="2.70341">
        <ele>868.707</ele>
        <time>2011-04-02T16:33:00Z</time>
      </trkpt>
      <trkpt lat="42.27479" lon="2.70345">
        <ele>871.677</ele>
        <time>2011-04-02T16:33:14Z</time>
      </trkpt>
      <trkpt lat="42.27468" lon="2.70346">
        <ele>872.161</ele>
        <time>2011-04-02T16:33:22Z</time>
      </trkpt>
      <trkpt lat="42.27451" lon="2.70333">
        <ele>873.054</ele>
        <time>2011-04-02T16:33:36Z</time>
      </trkpt>
      <trkpt lat="42.27441" lon="2.70336">
        <ele>875.493</ele>
        <time>2011-04-02T16:33:49Z</time>
      </trkpt>
      <trkpt lat="42.27443" lon="2.70341">
        <ele>878.89</ele>
        <time>2011-04-02T16:34:02Z</time>
      </trkpt>
      <trkpt lat="42.27441" lon="2.70341">
        <ele>879.778</ele>
        <time>2011-04-02T16:34:04Z</time>
      </trkpt>
      <trkpt lat="42.27427" lon="2.70342">
        <ele>881.221</ele>
        <time>2011-04-02T16:34:20Z</time>
      </trkpt>
      <trkpt lat="42.27417" lon="2.70332">
        <ele>885.036</ele>
        <time>2011-04-02T16:34:36Z</time>
      </trkpt>
      <trkpt lat="42.27412" lon="2.70316">
        <ele>888.917</ele>
        <time>2011-04-02T16:34:52Z</time>
      </trkpt>
      <trkpt lat="42.27408" lon="2.70308">
        <ele>890.818</ele>
        <time>2011-04-02T16:35:06Z</time>
      </trkpt>
      <trkpt lat="42.27403" lon="2.70307">
        <ele>894.207</ele>
        <time>2011-04-02T16:35:19Z</time>
      </trkpt>
      <trkpt lat="42.27396" lon="2.70306">
        <ele>896.144</ele>
        <time>2011-04-02T16:35:33Z</time>
      </trkpt>
      <trkpt lat="42.27392" lon="2.70304">
        <ele>899.518</ele>
        <time>2011-04-02T16:35:41Z</time>
      </trkpt>
      <trkpt lat="42.2739" lon="2.70304">
        <ele>899.531</ele>
        <time>2011-04-02T16:35:48Z</time>
      </trkpt>
      <trkpt lat="42.27386" lon="2.70303">
        <ele>902.34</ele>
        <time>2011-04-02T16:35:58Z</time>
      </trkpt>
      <trkpt lat="42.27379" lon="2.70305">
        <ele>905.777</ele>
        <time>2011-04-02T16:36:13Z</time>
      </trkpt>
      <trkpt lat="42.27379" lon="2.70306">
        <ele>905.725</ele>
        <time>2011-04-02T16:36:14Z</time>
      </trkpt>
      <trkpt lat="42.27376" lon="2.70311">
        <ele>908.158</ele>
        <time>2011-04-02T16:36:29Z</time>
      </trkpt>
      <trkpt lat="42.27374" lon="2.70312">
        <ele>910.077</ele>
        <time>2011-04-02T16:36:34Z</time>
      </trkpt>
      <trkpt lat="42.2737" lon="2.70313">
        <ele>911.061</ele>
        <time>2011-04-02T16:36:38Z</time>
      </trkpt>
      <trkpt lat="42.27363" lon="2.70317">
        <ele>912.927</ele>
        <time>2011-04-02T16:36:47Z</time>
      </trkpt>
      <trkpt lat="42.27352" lon="2.70318">
        <ele>916.307</ele>
        <time>2011-04-02T16:37:02Z</time>
      </trkpt>
      <trkpt lat="42.27342" lon="2.7032">
        <ele>919.258</ele>
        <time>2011-04-02T16:37:18Z</time>
      </trkpt>
      <trkpt lat="42.27327" lon="2.70321">
        <ele>922.512</ele>
        <time>2011-04-02T16:37:36Z</time>
      </trkpt>
      <trkpt lat="42.27318" lon="2.70321">
        <ele>926.485</ele>
        <time>2011-04-02T16:37:50Z</time>
      </trkpt>
      <trkpt lat="42.27318" lon="2.70321">
        <ele>926.474</ele>
        <time>2011-04-02T16:37:51Z</time>
      </trkpt>
      <trkpt lat="42.27312" lon="2.70321">
        <ele>928.871</ele>
        <time>2011-04-02T16:38:01Z</time>
      </trkpt>
      <trkpt lat="42.27305" lon="2.70324">
        <ele>931.769</ele>
        <time>2011-04-02T16:38:14Z</time>
      </trkpt>
      <trkpt lat="42.27297" lon="2.70324">
        <ele>934.132</ele>
        <time>2011-04-02T16:38:28Z</time>
      </trkpt>
      <trkpt lat="42.27289" lon="2.70327">
        <ele>936.942</ele>
        <time>2011-04-02T16:38:39Z</time>
      </trkpt>
      <trkpt lat="42.27276" lon="2.70335">
        <ele>940.322</ele>
        <time>2011-04-02T16:38:57Z</time>
      </trkpt>
      <trkpt lat="42.27269" lon="2.70339">
        <ele>941.314</ele>
        <time>2011-04-02T16:39:05Z</time>
      </trkpt>
      <trkpt lat="42.27259" lon="2.70351">
        <ele>942.707</ele>
        <time>2011-04-02T16:39:19Z</time>
      </trkpt>
      <trkpt lat="42.27247" lon="2.70367">
        <ele>944.225</ele>
        <time>2011-04-02T16:39:35Z</time>
      </trkpt>
      <trkpt lat="42.2724" lon="2.70377">
        <ele>947.599</ele>
        <time>2011-04-02T16:39:46Z</time>
      </trkpt>
      <trkpt lat="42.27234" lon="2.70384">
        <ele>949.072</ele>
        <time>2011-04-02T16:39:56Z</time>
      </trkpt>
      <trkpt lat="42.2722" lon="2.70393">
        <ele>951.831</ele>
        <time>2011-04-02T16:40:09Z</time>
      </trkpt>
      <trkpt lat="42.27213" lon="2.70399">
        <ele>954.718</ele>
        <time>2011-04-02T16:40:21Z</time>
      </trkpt>
      <trkpt lat="42.27204" lon="2.70405">
        <ele>958.116</ele>
        <time>2011-04-02T16:40:36Z</time>
      </trkpt>
      <trkpt lat="42.27202" lon="2.70407">
        <ele>959.149</ele>
        <time>2011-04-02T16:40:41Z</time>
      </trkpt>
      <trkpt lat="42.27189" lon="2.7042">
        <ele>959.197</ele>
        <time>2011-04-02T16:40:54Z</time>
      </trkpt>
      <trkpt lat="42.27177" lon="2.70437">
        <ele>959.123</ele>
        <time>2011-04-02T16:41:06Z</time>
      </trkpt>
      <trkpt lat="42.2717" lon="2.70443">
        <ele>961.025</ele>
        <time>2011-04-02T16:41:13Z</time>
      </trkpt>
      <trkpt lat="42.27163" lon="2.70451">
        <ele>963.407</ele>
        <time>2011-04-02T16:41:27Z</time>
      </trkpt>
      <trkpt lat="42.27151" lon="2.70465">
        <ele>966.74</ele>
        <time>2011-04-02T16:41:42Z</time>
      </trkpt>
      <trkpt lat="42.27144" lon="2.70475">
        <ele>970.194</ele>
        <time>2011-04-02T16:41:56Z</time>
      </trkpt>
      <trkpt lat="42.2714" lon="2.70488">
        <ele>973.537</ele>
        <time>2011-04-02T16:42:12Z</time>
      </trkpt>
      <trkpt lat="42.27139" lon="2.70495">
        <ele>976.876</ele>
        <time>2011-04-02T16:42:25Z</time>
      </trkpt>
      <trkpt lat="42.27127" lon="2.70507">
        <ele>979.723</ele>
        <time>2011-04-02T16:42:41Z</time>
      </trkpt>
      <trkpt lat="42.27119" lon="2.70515">
        <ele>982.651</ele>
        <time>2011-04-02T16:42:54Z</time>
      </trkpt>
      <trkpt lat="42.27115" lon="2.70518">
        <ele>984.144</ele>
        <time>2011-04-02T16:42:59Z</time>
      </trkpt>
      <trkpt lat="42.27105" lon="2.70525">
        <ele>986.912</ele>
        <time>2011-04-02T16:43:14Z</time>
      </trkpt>
      <trkpt lat="42.27096" lon="2.70537">
        <ele>990.332</ele>
        <time>2011-04-02T16:43:31Z</time>
      </trkpt>
      <trkpt lat="42.27094" lon="2.70539">
        <ele>991.305</ele>
        <time>2011-04-02T16:43:33Z</time>
      </trkpt>
      <trkpt lat="42.27089" lon="2.70545">
        <ele>994.607</ele>
        <time>2011-04-02T16:43:46Z</time>
      </trkpt>
      <trkpt lat="42.27081" lon="2.70554">
        <ele>997.092</ele>
        <time>2011-04-02T16:43:59Z</time>
      </trkpt>
      <trkpt lat="42.27078" lon="2.70562">
        <ele>997.096</ele>
        <time>2011-04-02T16:44:08Z</time>
      </trkpt>
      <trkpt lat="42.27073" lon="2.70573">
        <ele>1000.469</ele>
        <time>2011-04-02T16:44:21Z</time>
      </trkpt>
      <trkpt lat="42.27072" lon="2.70574">
        <ele>1000.458</ele>
        <time>2011-04-02T16:44:22Z</time>
      </trkpt>
      <trkpt lat="42.27063" lon="2.70588">
        <ele>1003.385</ele>
        <time>2011-04-02T16:44:39Z</time>
      </trkpt>
      <trkpt lat="42.27056" lon="2.70594">
        <ele>1005.773</ele>
        <time>2011-04-02T16:44:50Z</time>
      </trkpt>
      <trkpt lat="42.27049" lon="2.706">
        <ele>1007.676</ele>
        <time>2011-04-02T16:45:00Z</time>
      </trkpt>
      <trkpt lat="42.2704" lon="2.70605">
        <ele>1010.553</ele>
        <time>2011-04-02T16:45:12Z</time>
      </trkpt>
      <trkpt lat="42.27034" lon="2.70606">
        <ele>1011.404</ele>
        <time>2011-04-02T16:45:18Z</time>
      </trkpt>
      <trkpt lat="42.27025" lon="2.70623">
        <ele>1012.914</ele>
        <time>2011-04-02T16:45:35Z</time>
      </trkpt>
      <trkpt lat="42.27025" lon="2.70638">
        <ele>1014.307</ele>
        <time>2011-04-02T16:45:47Z</time>
      </trkpt>
      <trkpt lat="42.27017" lon="2.70647">
        <ele>1016.766</ele>
        <time>2011-04-02T16:45:56Z</time>
      </trkpt>
      <trkpt lat="42.27005" lon="2.70657">
        <ele>1020.11</ele>
        <time>2011-04-02T16:46:10Z</time>
      </trkpt>
      <trkpt lat="42.26991" lon="2.70663">
        <ele>1022.043</ele>
        <time>2011-04-02T16:46:24Z</time>
      </trkpt>
      <trkpt lat="42.26982" lon="2.70672">
        <ele>1022.572</ele>
        <time>2011-04-02T16:46:33Z</time>
      </trkpt>
      <trkpt lat="42.2698" lon="2.70674">
        <ele>1023.049</ele>
        <time>2011-04-02T16:46:35Z</time>
      </trkpt>
      <trkpt lat="42.26962" lon="2.70682">
        <ele>1024.927</ele>
        <time>2011-04-02T16:46:51Z</time>
      </trkpt>
      <trkpt lat="42.26946" lon="2.7069">
        <ele>1025.49</ele>
        <time>2011-04-02T16:47:06Z</time>
      </trkpt>
      <trkpt lat="42.26942" lon="2.70692">
        <ele>1025.981</ele>
        <time>2011-04-02T16:47:20Z</time>
      </trkpt>
      <trkpt lat="42.26942" lon="2.70693">
        <ele>1025.961</ele>
        <time>2011-04-02T16:47:53Z</time>
      </trkpt>
      <trkpt lat="42.26938" lon="2.70698">
        <ele>1025.417</ele>
        <time>2011-04-02T16:47:57Z</time>
      </trkpt>
      <trkpt lat="42.26924" lon="2.70707">
        <ele>1024.407</ele>
        <time>2011-04-02T16:48:06Z</time>
      </trkpt>
      <trkpt lat="42.26906" lon="2.70726">
        <ele>1023.089</ele>
        <time>2011-04-02T16:48:16Z</time>
      </trkpt>
      <trkpt lat="42.269" lon="2.70729">
        <ele>1023.043</ele>
        <time>2011-04-02T16:48:20Z</time>
      </trkpt>
      <trkpt lat="42.26895" lon="2.70727">
        <ele>1024.416</ele>
        <time>2011-04-02T16:48:24Z</time>
      </trkpt>
      <trkpt lat="42.26888" lon="2.7072">
        <ele>1024.965</ele>
        <time>2011-04-02T16:48:33Z</time>
      </trkpt>
      <trkpt lat="42.26879" lon="2.70714">
        <ele>1026.352</ele>
        <time>2011-04-02T16:48:45Z</time>
      </trkpt>
      <trkpt lat="42.26864" lon="2.70704">
        <ele>1028.88</ele>
        <time>2011-04-02T16:49:00Z</time>
      </trkpt>
      <trkpt lat="42.26862" lon="2.70703">
        <ele>1028.323</ele>
        <time>2011-04-02T16:49:01Z</time>
      </trkpt>
      <trkpt lat="42.26859" lon="2.707">
        <ele>1028.846</ele>
        <time>2011-04-02T16:49:04Z</time>
      </trkpt>
      <trkpt lat="42.26848" lon="2.70703">
        <ele>1029.288</ele>
        <time>2011-04-02T16:49:10Z</time>
      </trkpt>
      <trkpt lat="42.26829" lon="2.70697">
        <ele>1028.816</ele>
        <time>2011-04-02T16:49:23Z</time>
      </trkpt>
      <trkpt lat="42.26823" lon="2.70698">
        <ele>1029.207</ele>
        <time>2011-04-02T16:49:27Z</time>
      </trkpt>
      <trkpt lat="42.26816" lon="2.70696">
        <ele>1026.345</ele>
        <time>2011-04-02T16:49:35Z</time>
      </trkpt>
      <trkpt lat="42.2681" lon="2.70693">
        <ele>1025.499</ele>
        <time>2011-04-02T16:49:45Z</time>
      </trkpt>
      <trkpt lat="42.26805" lon="2.70694">
        <ele>1023.592</ele>
        <time>2011-04-02T16:49:49Z</time>
      </trkpt>
      <trkpt lat="42.268" lon="2.70692">
        <ele>1021.161</ele>
        <time>2011-04-02T16:49:53Z</time>
      </trkpt>
      <trkpt lat="42.26798" lon="2.70688">
        <ele>1019.688</ele>
        <time>2011-04-02T16:49:56Z</time>
      </trkpt>
      <trkpt lat="42.26795" lon="2.70683">
        <ele>1018.236</ele>
        <time>2011-04-02T16:50:01Z</time>
      </trkpt>
      <trkpt lat="42.26789" lon="2.70676">
        <ele>1014.849</ele>
        <time>2011-04-02T16:50:09Z</time>
      </trkpt>
      <trkpt lat="42.26789" lon="2.70675">
        <ele>1014.378</ele>
        <time>2011-04-02T16:50:10Z</time>
      </trkpt>
      <trkpt lat="42.26788" lon="2.70674">
        <ele>1014.333</ele>
        <time>2011-04-02T16:50:11Z</time>
      </trkpt>
      <trkpt lat="42.26786" lon="2.70673">
        <ele>1013.426</ele>
        <time>2011-04-02T16:50:13Z</time>
      </trkpt>
      <trkpt lat="42.26779" lon="2.70677">
        <ele>1009.507</ele>
        <time>2011-04-02T16:50:22Z</time>
      </trkpt>
      <trkpt lat="42.26778" lon="2.70679">
        <ele>1008.198</ele>
        <time>2011-04-02T16:50:25Z</time>
      </trkpt>
      <trkpt lat="42.26773" lon="2.70684">
        <ele>1004.772</ele>
        <time>2011-04-02T16:50:33Z</time>
      </trkpt>
      <trkpt lat="42.26772" lon="2.70684">
        <ele>1005.295</ele>
        <time>2011-04-02T16:50:34Z</time>
      </trkpt>
      <trkpt lat="42.26766" lon="2.70686">
        <ele>1001.814</ele>
        <time>2011-04-02T16:50:40Z</time>
      </trkpt>
      <trkpt lat="42.26759" lon="2.7069">
        <ele>999.481</ele>
        <time>2011-04-02T16:50:46Z</time>
      </trkpt>
      <trkpt lat="42.26748" lon="2.70694">
        <ele>998.539</ele>
        <time>2011-04-02T16:50:55Z</time>
      </trkpt>
      <trkpt lat="42.26738" lon="2.70704">
        <ele>995.642</ele>
        <time>2011-04-02T16:51:07Z</time>
      </trkpt>
      <trkpt lat="42.26732" lon="2.70708">
        <ele>994.127</ele>
        <time>2011-04-02T16:51:13Z</time>
      </trkpt>
      <trkpt lat="42.26726" lon="2.70708">
        <ele>991.368</ele>
        <time>2011-04-02T16:51:23Z</time>
      </trkpt>
      <trkpt lat="42.26723" lon="2.70707">
        <ele>990.814</ele>
        <time>2011-04-02T16:51:28Z</time>
      </trkpt>
      <trkpt lat="42.26721" lon="2.70708">
        <ele>990.307</ele>
        <time>2011-04-02T16:51:30Z</time>
      </trkpt>
      <trkpt lat="42.26712" lon="2.70714">
        <ele>990.363</ele>
        <time>2011-04-02T16:51:42Z</time>
      </trkpt>
      <trkpt lat="42.26712" lon="2.70714">
        <ele>989.857</ele>
        <time>2011-04-02T16:52:07Z</time>
      </trkpt>
      <trkpt lat="42.26708" lon="2.70721">
        <ele>987.44</ele>
        <time>2011-04-02T16:52:12Z</time>
      </trkpt>
      <trkpt lat="42.26702" lon="2.70726">
        <ele>986.599</ele>
        <time>2011-04-02T16:52:17Z</time>
      </trkpt>
      <trkpt lat="42.267" lon="2.7073">
        <ele>984.556</ele>
        <time>2011-04-02T16:52:21Z</time>
      </trkpt>
      <trkpt lat="42.2669" lon="2.70735">
        <ele>982.174</ele>
        <time>2011-04-02T16:52:26Z</time>
      </trkpt>
      <trkpt lat="42.26685" lon="2.70738">
        <ele>978.827</ele>
        <time>2011-04-02T16:52:30Z</time>
      </trkpt>
      <trkpt lat="42.26673" lon="2.70752">
        <ele>977.867</ele>
        <time>2011-04-02T16:52:43Z</time>
      </trkpt>
      <trkpt lat="42.26665" lon="2.7076">
        <ele>974.481</ele>
        <time>2011-04-02T16:52:53Z</time>
      </trkpt>
      <trkpt lat="42.26656" lon="2.70758">
        <ele>970.619</ele>
        <time>2011-04-02T16:53:06Z</time>
      </trkpt>
      <trkpt lat="42.26651" lon="2.70761">
        <ele>969.207</ele>
        <time>2011-04-02T16:53:10Z</time>
      </trkpt>
      <trkpt lat="42.26643" lon="2.70766">
        <ele>966.727</ele>
        <time>2011-04-02T16:53:15Z</time>
      </trkpt>
      <trkpt lat="42.26639" lon="2.70768">
        <ele>965.331</ele>
        <time>2011-04-02T16:53:17Z</time>
      </trkpt>
      <trkpt lat="42.26637" lon="2.70769">
        <ele>964.814</ele>
        <time>2011-04-02T16:53:18Z</time>
      </trkpt>
      <trkpt lat="42.26624" lon="2.70777">
        <ele>960.043</ele>
        <time>2011-04-02T16:53:26Z</time>
      </trkpt>
      <trkpt lat="42.26621" lon="2.70779">
        <ele>958.69</ele>
        <time>2011-04-02T16:53:28Z</time>
      </trkpt>
      <trkpt lat="42.26615" lon="2.7078">
        <ele>957.188</ele>
        <time>2011-04-02T16:53:33Z</time>
      </trkpt>
      <trkpt lat="42.26612" lon="2.70782">
        <ele>956.231</ele>
        <time>2011-04-02T16:53:36Z</time>
      </trkpt>
      <trkpt lat="42.26607" lon="2.70785">
        <ele>955.246</ele>
        <time>2011-04-02T16:53:41Z</time>
      </trkpt>
      <trkpt lat="42.26596" lon="2.70792">
        <ele>952.388</ele>
        <time>2011-04-02T16:53:53Z</time>
      </trkpt>
      <trkpt lat="42.26586" lon="2.70788">
        <ele>949.016</ele>
        <time>2011-04-02T16:54:04Z</time>
      </trkpt>
      <trkpt lat="42.26585" lon="2.70789">
        <ele>949.407</ele>
        <time>2011-04-02T16:54:05Z</time>
      </trkpt>
      <trkpt lat="42.26583" lon="2.7079">
        <ele>949.095</ele>
        <time>2011-04-02T16:54:06Z</time>
      </trkpt>
      <trkpt lat="42.26575" lon="2.70792">
        <ele>947.039</ele>
        <time>2011-04-02T16:54:10Z</time>
      </trkpt>
      <trkpt lat="42.26555" lon="2.70792">
        <ele>944.212</ele>
        <time>2011-04-02T16:54:22Z</time>
      </trkpt>
      <trkpt lat="42.26539" lon="2.70791">
        <ele>941.381</ele>
        <time>2011-04-02T16:54:35Z</time>
      </trkpt>
      <trkpt lat="42.26526" lon="2.70785">
        <ele>939.498</ele>
        <time>2011-04-02T16:54:42Z</time>
      </trkpt>
      <trkpt lat="42.26509" lon="2.70787">
        <ele>937.926</ele>
        <time>2011-04-02T16:54:55Z</time>
      </trkpt>
      <trkpt lat="42.265" lon="2.70794">
        <ele>936.589</ele>
        <time>2011-04-02T16:55:06Z</time>
      </trkpt>
      <trkpt lat="42.26491" lon="2.7079">
        <ele>933.628</ele>
        <time>2011-04-02T16:55:21Z</time>
      </trkpt>
      <trkpt lat="42.26488" lon="2.70787">
        <ele>932.689</ele>
        <time>2011-04-02T16:55:26Z</time>
      </trkpt>
      <trkpt lat="42.26482" lon="2.70785">
        <ele>930.717</ele>
        <time>2011-04-02T16:55:32Z</time>
      </trkpt>
      <trkpt lat="42.26476" lon="2.70783">
        <ele>928.307</ele>
        <time>2011-04-02T16:55:37Z</time>
      </trkpt>
      <trkpt lat="42.26472" lon="2.70785">
        <ele>927.343</ele>
        <time>2011-04-02T16:55:41Z</time>
      </trkpt>
      <trkpt lat="42.26463" lon="2.70789">
        <ele>924.557</ele>
        <time>2011-04-02T16:55:49Z</time>
      </trkpt>
      <trkpt lat="42.26457" lon="2.70793">
        <ele>921.61</ele>
        <time>2011-04-02T16:55:54Z</time>
      </trkpt>
      <trkpt lat="42.26455" lon="2.70793">
        <ele>921.659</ele>
        <time>2011-04-02T16:55:55Z</time>
      </trkpt>
      <trkpt lat="42.26446" lon="2.70795">
        <ele>920.676</ele>
        <time>2011-04-02T16:55:59Z</time>
      </trkpt>
      <trkpt lat="42.26428" lon="2.70798">
        <ele>916.334</ele>
        <time>2011-04-02T16:56:05Z</time>
      </trkpt>
      <trkpt lat="42.26399" lon="2.70802">
        <ele>915.837</ele>
        <time>2011-04-02T16:56:20Z</time>
      </trkpt>
      <trkpt lat="42.26377" lon="2.70798">
        <ele>916.339</ele>
        <time>2011-04-02T16:56:35Z</time>
      </trkpt>
      <trkpt lat="42.26357" lon="2.70782">
        <ele>915.801</ele>
        <time>2011-04-02T16:56:52Z</time>
      </trkpt>
      <trkpt lat="42.26351" lon="2.70774">
        <ele>917.221</ele>
        <time>2011-04-02T16:57:01Z</time>
      </trkpt>
      <trkpt lat="42.26348" lon="2.70768">
        <ele>917.707</ele>
        <time>2011-04-02T16:57:06Z</time>
      </trkpt>
      <trkpt lat="42.26336" lon="2.70752">
        <ele>920.164</ele>
        <time>2011-04-02T16:57:22Z</time>
      </trkpt>
      <trkpt lat="42.26326" lon="2.70741">
        <ele>922.558</ele>
        <time>2011-04-02T16:57:36Z</time>
      </trkpt>
      <trkpt lat="42.26318" lon="2.70731">
        <ele>925.961</ele>
        <time>2011-04-02T16:57:50Z</time>
      </trkpt>
      <trkpt lat="42.26308" lon="2.70728">
        <ele>929.39</ele>
        <time>2011-04-02T16:58:07Z</time>
      </trkpt>
      <trkpt lat="42.263" lon="2.70724">
        <ele>932.677</ele>
        <time>2011-04-02T16:58:20Z</time>
      </trkpt>
      <trkpt lat="42.26296" lon="2.70721">
        <ele>933.165</ele>
        <time>2011-04-02T16:58:25Z</time>
      </trkpt>
      <trkpt lat="42.26284" lon="2.70724">
        <ele>935.578</ele>
        <time>2011-04-02T16:58:38Z</time>
      </trkpt>
      <trkpt lat="42.26275" lon="2.70731">
        <ele>938.411</ele>
        <time>2011-04-02T16:58:52Z</time>
      </trkpt>
      <trkpt lat="42.26263" lon="2.70735">
        <ele>941.321</ele>
        <time>2011-04-02T16:59:08Z</time>
      </trkpt>
      <trkpt lat="42.26256" lon="2.70737">
        <ele>942.703</ele>
        <time>2011-04-02T16:59:21Z</time>
      </trkpt>
      <trkpt lat="42.2625" lon="2.70737">
        <ele>945.607</ele>
        <time>2011-04-02T16:59:32Z</time>
      </trkpt>
      <trkpt lat="42.26249" lon="2.70737">
        <ele>945.682</ele>
        <time>2011-04-02T16:59:33Z</time>
      </trkpt>
      <trkpt lat="42.26241" lon="2.70734">
        <ele>949.466</ele>
        <time>2011-04-02T16:59:44Z</time>
      </trkpt>
      <trkpt lat="42.2624" lon="2.70734">
        <ele>949.949</ele>
        <time>2011-04-02T16:59:45Z</time>
      </trkpt>
      <trkpt lat="42.26238" lon="2.70733">
        <ele>950.998</ele>
        <time>2011-04-02T16:59:51Z</time>
      </trkpt>
      <trkpt lat="42.2623" lon="2.70718">
        <ele>953.895</ele>
        <time>2011-04-02T17:00:09Z</time>
      </trkpt>
      <trkpt lat="42.26223" lon="2.70703">
        <ele>956.773</ele>
        <time>2011-04-02T17:00:25Z</time>
      </trkpt>
      <trkpt lat="42.26217" lon="2.70696">
        <ele>960.526</ele>
        <time>2011-04-02T17:00:45Z</time>
      </trkpt>
      <trkpt lat="42.26213" lon="2.70697">
        <ele>962.438</ele>
        <time>2011-04-02T17:00:59Z</time>
      </trkpt>
      <trkpt lat="42.26209" lon="2.70701">
        <ele>965.87</ele>
        <time>2011-04-02T17:01:13Z</time>
      </trkpt>
      <trkpt lat="42.26206" lon="2.7071">
        <ele>967.217</ele>
        <time>2011-04-02T17:01:27Z</time>
      </trkpt>
      <trkpt lat="42.26202" lon="2.70714">
        <ele>970.107</ele>
        <time>2011-04-02T17:01:36Z</time>
      </trkpt>
      <trkpt lat="42.26194" lon="2.70718">
        <ele>973.094</ele>
        <time>2011-04-02T17:01:51Z</time>
      </trkpt>
      <trkpt lat="42.26185" lon="2.70721">
        <ele>974.978</ele>
        <time>2011-04-02T17:02:02Z</time>
      </trkpt>
      <trkpt lat="42.26178" lon="2.70725">
        <ele>977.851</ele>
        <time>2011-04-02T17:02:16Z</time>
      </trkpt>
      <trkpt lat="42.26166" lon="2.70726">
        <ele>981.22</ele>
        <time>2011-04-02T17:02:35Z</time>
      </trkpt>
      <trkpt lat="42.26156" lon="2.70733">
        <ele>984.137</ele>
        <time>2011-04-02T17:02:50Z</time>
      </trkpt>
      <trkpt lat="42.26146" lon="2.70735">
        <ele>987.475</ele>
        <time>2011-04-02T17:03:08Z</time>
      </trkpt>
      <trkpt lat="42.26141" lon="2.70724">
        <ele>989.358</ele>
        <time>2011-04-02T17:03:22Z</time>
      </trkpt>
      <trkpt lat="42.26141" lon="2.70717">
        <ele>991.325</ele>
        <time>2011-04-02T17:03:28Z</time>
      </trkpt>
      <trkpt lat="42.26138" lon="2.70705">
        <ele>994.126</ele>
        <time>2011-04-02T17:03:43Z</time>
      </trkpt>
      <trkpt lat="42.26137" lon="2.70699">
        <ele>996.508</ele>
        <time>2011-04-02T17:03:56Z</time>
      </trkpt>
      <trkpt lat="42.26136" lon="2.70702">
        <ele>998.507</ele>
        <time>2011-04-02T17:04:08Z</time>
      </trkpt>
      <trkpt lat="42.26135" lon="2.70705">
        <ele>998.593</ele>
        <time>2011-04-02T17:04:12Z</time>
      </trkpt>
      <trkpt lat="42.26135" lon="2.70708">
        <ele>999.447</ele>
        <time>2011-04-02T17:04:15Z</time>
      </trkpt>
      <trkpt lat="42.26128" lon="2.70724">
        <ele>999.97</ele>
        <time>2011-04-02T17:04:30Z</time>
      </trkpt>
      <trkpt lat="42.26123" lon="2.70732">
        <ele>1001.879</ele>
        <time>2011-04-02T17:04:42Z</time>
      </trkpt>
      <trkpt lat="42.26113" lon="2.70741">
        <ele>1003.876</ele>
        <time>2011-04-02T17:04:55Z</time>
      </trkpt>
      <trkpt lat="42.26102" lon="2.70749">
        <ele>1004.764</ele>
        <time>2011-04-02T17:05:10Z</time>
      </trkpt>
      <trkpt lat="42.2609" lon="2.70754">
        <ele>1007.637</ele>
        <time>2011-04-02T17:05:23Z</time>
      </trkpt>
      <trkpt lat="42.26087" lon="2.70747">
        <ele>1008.693</ele>
        <time>2011-04-02T17:05:31Z</time>
      </trkpt>
      <trkpt lat="42.26084" lon="2.70732">
        <ele>1011.965</ele>
        <time>2011-04-02T17:05:49Z</time>
      </trkpt>
      <trkpt lat="42.26084" lon="2.70731">
        <ele>1011.921</ele>
        <time>2011-04-02T17:05:50Z</time>
      </trkpt>
      <trkpt lat="42.26087" lon="2.7071">
        <ele>1015.807</ele>
        <time>2011-04-02T17:06:11Z</time>
      </trkpt>
      <trkpt lat="42.26088" lon="2.70693">
        <ele>1017.79</ele>
        <time>2011-04-02T17:06:26Z</time>
      </trkpt>
      <trkpt lat="42.26083" lon="2.707">
        <ele>1020.624</ele>
        <time>2011-04-02T17:06:41Z</time>
      </trkpt>
      <trkpt lat="42.26075" lon="2.70708">
        <ele>1022.597</ele>
        <time>2011-04-02T17:06:57Z</time>
      </trkpt>
      <trkpt lat="42.26074" lon="2.70712">
        <ele>1023.056</ele>
        <time>2011-04-02T17:07:01Z</time>
      </trkpt>
      <trkpt lat="42.26065" lon="2.70719">
        <ele>1024.943</ele>
        <time>2011-04-02T17:07:16Z</time>
      </trkpt>
      <trkpt lat="42.2605" lon="2.70729">
        <ele>1025.941</ele>
        <time>2011-04-02T17:07:33Z</time>
      </trkpt>
      <trkpt lat="42.26038" lon="2.70734">
        <ele>1028.864</ele>
        <time>2011-04-02T17:07:45Z</time>
      </trkpt>
      <trkpt lat="42.26027" lon="2.70742">
        <ele>1030.228</ele>
        <time>2011-04-02T17:08:00Z</time>
      </trkpt>
      <trkpt lat="42.26022" lon="2.70733">
        <ele>1032.689</ele>
        <time>2011-04-02T17:08:12Z</time>
      </trkpt>
      <trkpt lat="42.26021" lon="2.7072">
        <ele>1036.417</ele>
        <time>2011-04-02T17:08:28Z</time>
      </trkpt>
      <trkpt lat="42.26018" lon="2.70709">
        <ele>1037.907</ele>
        <time>2011-04-02T17:08:39Z</time>
      </trkpt>
      <trkpt lat="42.26019" lon="2.70695">
        <ele>1041.343</ele>
        <time>2011-04-02T17:08:56Z</time>
      </trkpt>
      <trkpt lat="42.26016" lon="2.7069">
        <ele>1044.147</ele>
        <time>2011-04-02T17:09:11Z</time>
      </trkpt>
      <trkpt lat="42.26012" lon="2.70693">
        <ele>1046.58</ele>
        <time>2011-04-02T17:09:24Z</time>
      </trkpt>
      <trkpt lat="42.26004" lon="2.70693">
        <ele>1049.949</ele>
        <time>2011-04-02T17:09:37Z</time>
      </trkpt>
      <trkpt lat="42.25995" lon="2.707">
        <ele>1051.886</ele>
        <time>2011-04-02T17:09:54Z</time>
      </trkpt>
      <trkpt lat="42.25986" lon="2.70704">
        <ele>1053.714</ele>
        <time>2011-04-02T17:10:03Z</time>
      </trkpt>
      <trkpt lat="42.25975" lon="2.70716">
        <ele>1055.797</ele>
        <time>2011-04-02T17:10:18Z</time>
      </trkpt>
      <trkpt lat="42.25969" lon="2.70724">
        <ele>1056.614</ele>
        <time>2011-04-02T17:10:30Z</time>
      </trkpt>
      <trkpt lat="42.25962" lon="2.70728">
        <ele>1059.554</ele>
        <time>2011-04-02T17:10:44Z</time>
      </trkpt>
      <trkpt lat="42.2595" lon="2.70736">
        <ele>1062.909</ele>
        <time>2011-04-02T17:11:00Z</time>
      </trkpt>
      <trkpt lat="42.25938" lon="2.70744">
        <ele>1065.807</ele>
        <time>2011-04-02T17:11:14Z</time>
      </trkpt>
      <trkpt lat="42.25926" lon="2.70749">
        <ele>1068.692</ele>
        <time>2011-04-02T17:11:31Z</time>
      </trkpt>
      <trkpt lat="42.25918" lon="2.70756">
        <ele>1071.596</ele>
        <time>2011-04-02T17:11:43Z</time>
      </trkpt>
      <trkpt lat="42.25909" lon="2.70766">
        <ele>1073.999</ele>
        <time>2011-04-02T17:12:00Z</time>
      </trkpt>
      <trkpt lat="42.25901" lon="2.70771">
        <ele>1077.368</ele>
        <time>2011-04-02T17:12:16Z</time>
      </trkpt>
      <trkpt lat="42.25901" lon="2.70771">
        <ele>1077.385</ele>
        <time>2011-04-02T17:12:17Z</time>
      </trkpt>
      <trkpt lat="42.25894" lon="2.70776">
        <ele>1080.783</ele>
        <time>2011-04-02T17:12:32Z</time>
      </trkpt>
      <trkpt lat="42.25887" lon="2.70773">
        <ele>1083.596</ele>
        <time>2011-04-02T17:12:43Z</time>
      </trkpt>
      <trkpt lat="42.25879" lon="2.70763">
        <ele>1086.433</ele>
        <time>2011-04-02T17:12:59Z</time>
      </trkpt>
      <trkpt lat="42.25875" lon="2.70758">
        <ele>1089.323</ele>
        <time>2011-04-02T17:13:11Z</time>
      </trkpt>
      <trkpt lat="42.2587" lon="2.70766">
        <ele>1092.215</ele>
        <time>2011-04-02T17:13:27Z</time>
      </trkpt>
      <trkpt lat="42.2587" lon="2.70767">
        <ele>1092.207</ele>
        <time>2011-04-02T17:13:28Z</time>
      </trkpt>
      <trkpt lat="42.2587" lon="2.70779">
        <ele>1094.154</ele>
        <time>2011-04-02T17:13:40Z</time>
      </trkpt>
      <trkpt lat="42.25864" lon="2.70788">
        <ele>1095.618</ele>
        <time>2011-04-02T17:13:54Z</time>
      </trkpt>
      <trkpt lat="42.2586" lon="2.70778">
        <ele>1098.471</ele>
        <time>2011-04-02T17:14:07Z</time>
      </trkpt>
      <trkpt lat="42.25857" lon="2.7077">
        <ele>1099.44</ele>
        <time>2011-04-02T17:14:17Z</time>
      </trkpt>
      <trkpt lat="42.25856" lon="2.70767">
        <ele>1099.977</ele>
        <time>2011-04-02T17:14:20Z</time>
      </trkpt>
      <trkpt lat="42.2586" lon="2.7075">
        <ele>1100.925</ele>
        <time>2011-04-02T17:14:31Z</time>
      </trkpt>
      <trkpt lat="42.25864" lon="2.70733">
        <ele>1102.328</ele>
        <time>2011-04-02T17:14:44Z</time>
      </trkpt>
      <trkpt lat="42.25864" lon="2.70733">
        <ele>1102.858</ele>
        <time>2011-04-02T17:14:46Z</time>
      </trkpt>
      <trkpt lat="42.25854" lon="2.70751">
        <ele>1104.252</ele>
        <time>2011-04-02T17:15:02Z</time>
      </trkpt>
      <trkpt lat="42.25849" lon="2.70773">
        <ele>1106.617</ele>
        <time>2011-04-02T17:15:18Z</time>
      </trkpt>
      <trkpt lat="42.25846" lon="2.7078">
        <ele>1107.107</ele>
        <time>2011-04-02T17:15:23Z</time>
      </trkpt>
      <trkpt lat="42.25842" lon="2.7078">
        <ele>1107.616</ele>
        <time>2011-04-02T17:15:27Z</time>
      </trkpt>
      <trkpt lat="42.25842" lon="2.70777">
        <ele>1107.62</ele>
        <time>2011-04-02T17:15:29Z</time>
      </trkpt>
      <trkpt lat="42.2585" lon="2.70746">
        <ele>1109.523</ele>
        <time>2011-04-02T17:15:46Z</time>
      </trkpt>
      <trkpt lat="42.25858" lon="2.70713">
        <ele>1111.422</ele>
        <time>2011-04-02T17:15:57Z</time>
      </trkpt>
      <trkpt lat="42.25862" lon="2.70695">
        <ele>1113.359</ele>
        <time>2011-04-02T17:16:04Z</time>
      </trkpt>
      <trkpt lat="42.25869" lon="2.70665">
        <ele>1116.217</ele>
        <time>2011-04-02T17:16:16Z</time>
      </trkpt>
      <trkpt lat="42.2587" lon="2.70661">
        <ele>1116.76</ele>
        <time>2011-04-02T17:16:19Z</time>
      </trkpt>
      <trkpt lat="42.25872" lon="2.70655">
        <ele>1118.692</ele>
        <time>2011-04-02T17:16:23Z</time>
      </trkpt>
      <trkpt lat="42.25873" lon="2.70652">
        <ele>1119.673</ele>
        <time>2011-04-02T17:16:25Z</time>
      </trkpt>
      <trkpt lat="42.25877" lon="2.70645">
        <ele>1119.62</ele>
        <time>2011-04-02T17:16:38Z</time>
      </trkpt>
      <trkpt lat="42.25881" lon="2.70643">
        <ele>1119.607</ele>
        <time>2011-04-02T17:16:50Z</time>
      </trkpt>
      <trkpt lat="42.25883" lon="2.70642">
        <ele>1119.69</ele>
        <time>2011-04-02T17:17:06Z</time>
      </trkpt>
      <trkpt lat="42.25882" lon="2.70639">
        <ele>1120.624</ele>
        <time>2011-04-02T17:17:24Z</time>
      </trkpt>
      <trkpt lat="42.25883" lon="2.7064">
        <ele>1120.637</ele>
        <time>2011-04-02T17:17:37Z</time>
      </trkpt>
      <trkpt lat="42.25879" lon="2.70638">
        <ele>1120.646</ele>
        <time>2011-04-02T17:17:52Z</time>
      </trkpt>
      <trkpt lat="42.25884" lon="2.7064">
        <ele>1120.693</ele>
        <time>2011-04-02T17:18:09Z</time>
      </trkpt>
      <trkpt lat="42.25885" lon="2.7064">
        <ele>1119.681</ele>
        <time>2011-04-02T17:18:26Z</time>
      </trkpt>
      <trkpt lat="42.25885" lon="2.70639">
        <ele>1119.634</ele>
        <time>2011-04-02T17:19:13Z</time>
      </trkpt>
      <trkpt lat="42.25885" lon="2.7064">
        <ele>1121.063</ele>
        <time>2011-04-02T17:19:19Z</time>
      </trkpt>
      <trkpt lat="42.25883" lon="2.70645">
        <ele>1120.144</ele>
        <time>2011-04-02T17:19:39Z</time>
      </trkpt>
      <trkpt lat="42.25883" lon="2.70644">
        <ele>1120.118</ele>
        <time>2011-04-02T17:20:23Z</time>
      </trkpt>
      <trkpt lat="42.25883" lon="2.70645">
        <ele>1121.007</ele>
        <time>2011-04-02T17:20:38Z</time>
      </trkpt>
      <trkpt lat="42.25879" lon="2.70653">
        <ele>1119.617</ele>
        <time>2011-04-02T17:22:17Z</time>
      </trkpt>
      <trkpt lat="42.25876" lon="2.70665">
        <ele>1116.291</ele>
        <time>2011-04-02T17:22:31Z</time>
      </trkpt>
      <trkpt lat="42.25875" lon="2.70667">
        <ele>1115.864</ele>
        <time>2011-04-02T17:22:33Z</time>
      </trkpt>
      <trkpt lat="42.25874" lon="2.7068">
        <ele>1114.363</ele>
        <time>2011-04-02T17:22:42Z</time>
      </trkpt>
      <trkpt lat="42.25871" lon="2.70688">
        <ele>1113.85</ele>
        <time>2011-04-02T17:22:47Z</time>
      </trkpt>
      <trkpt lat="42.25862" lon="2.70715">
        <ele>1110.968</ele>
        <time>2011-04-02T17:23:04Z</time>
      </trkpt>
      <trkpt lat="42.25852" lon="2.70746">
        <ele>1109.571</ele>
        <time>2011-04-02T17:23:21Z</time>
      </trkpt>
      <trkpt lat="42.25843" lon="2.70765">
        <ele>1108.587</ele>
        <time>2011-04-02T17:23:32Z</time>
      </trkpt>
      <trkpt lat="42.25842" lon="2.70768">
        <ele>1107.642</ele>
        <time>2011-04-02T17:23:34Z</time>
      </trkpt>
      <trkpt lat="42.25833" lon="2.70775">
        <ele>1108.126</ele>
        <time>2011-04-02T17:23:43Z</time>
      </trkpt>
      <trkpt lat="42.2583" lon="2.70783">
        <ele>1109.507</ele>
        <time>2011-04-02T17:23:55Z</time>
      </trkpt>
      <trkpt lat="42.25829" lon="2.70784">
        <ele>1108.189</ele>
        <time>2011-04-02T17:23:58Z</time>
      </trkpt>
      <trkpt lat="42.25827" lon="2.70783">
        <ele>1105.723</ele>
        <time>2011-04-02T17:24:05Z</time>
      </trkpt>
      <trkpt lat="42.25823" lon="2.70774">
        <ele>1102.886</ele>
        <time>2011-04-02T17:24:16Z</time>
      </trkpt>
      <trkpt lat="42.25822" lon="2.70772">
        <ele>1100.935</ele>
        <time>2011-04-02T17:24:27Z</time>
      </trkpt>
      <trkpt lat="42.25819" lon="2.70776">
        <ele>1100.472</ele>
        <time>2011-04-02T17:24:41Z</time>
      </trkpt>
      <trkpt lat="42.25818" lon="2.70774">
        <ele>1097.55</ele>
        <time>2011-04-02T17:24:49Z</time>
      </trkpt>
      <trkpt lat="42.25817" lon="2.70771">
        <ele>1096.583</ele>
        <time>2011-04-02T17:24:54Z</time>
      </trkpt>
      <trkpt lat="42.25811" lon="2.70773">
        <ele>1094.133</ele>
        <time>2011-04-02T17:25:03Z</time>
      </trkpt>
      <trkpt lat="42.25808" lon="2.70763">
        <ele>1089.823</ele>
        <time>2011-04-02T17:25:13Z</time>
      </trkpt>
      <trkpt lat="42.25804" lon="2.70761">
        <ele>1087.415</ele>
        <time>2011-04-02T17:25:19Z</time>
      </trkpt>
      <trkpt lat="42.25799" lon="2.70765">
        <ele>1084.007</ele>
        <time>2011-04-02T17:25:29Z</time>
      </trkpt>
      <trkpt lat="42.25796" lon="2.70772">
        <ele>1081.694</ele>
        <time>2011-04-02T17:25:37Z</time>
      </trkpt>
      <trkpt lat="42.25794" lon="2.7079">
        <ele>1078.798</ele>
        <time>2011-04-02T17:25:50Z</time>
      </trkpt>
      <trkpt lat="42.25794" lon="2.70796">
        <ele>1077.881</ele>
        <time>2011-04-02T17:25:57Z</time>
      </trkpt>
      <trkpt lat="42.2579" lon="2.70813">
        <ele>1075.95</ele>
        <time>2011-04-02T17:26:09Z</time>
      </trkpt>
      <trkpt lat="42.25789" lon="2.70819">
        <ele>1074.927</ele>
        <time>2011-04-02T17:26:12Z</time>
      </trkpt>
      <trkpt lat="42.25787" lon="2.70827">
        <ele>1073.045</ele>
        <time>2011-04-02T17:26:17Z</time>
      </trkpt>
      <trkpt lat="42.25785" lon="2.70832">
        <ele>1072.588</ele>
        <time>2011-04-02T17:26:20Z</time>
      </trkpt>
      <trkpt lat="42.2578" lon="2.70848">
        <ele>1070.158</ele>
        <time>2011-04-02T17:26:32Z</time>
      </trkpt>
      <trkpt lat="42.25778" lon="2.70851">
        <ele>1068.252</ele>
        <time>2011-04-02T17:26:35Z</time>
      </trkpt>
      <trkpt lat="42.25773" lon="2.70859">
        <ele>1066.217</ele>
        <time>2011-04-02T17:26:41Z</time>
      </trkpt>
      <trkpt lat="42.25773" lon="2.70862">
        <ele>1066.207</ele>
        <time>2011-04-02T17:26:43Z</time>
      </trkpt>
      <trkpt lat="42.25771" lon="2.70874">
        <ele>1065.336</ele>
        <time>2011-04-02T17:26:50Z</time>
      </trkpt>
      <trkpt lat="42.25769" lon="2.70878">
        <ele>1063.41</ele>
        <time>2011-04-02T17:26:53Z</time>
      </trkpt>
      <trkpt lat="42.25766" lon="2.70883">
        <ele>1062.453</ele>
        <time>2011-04-02T17:26:57Z</time>
      </trkpt>
      <trkpt lat="42.25764" lon="2.70886">
        <ele>1061.952</ele>
        <time>2011-04-02T17:27:00Z</time>
      </trkpt>
      <trkpt lat="42.2576" lon="2.70883">
        <ele>1059.099</ele>
        <time>2011-04-02T17:27:12Z</time>
      </trkpt>
      <trkpt lat="42.25758" lon="2.70887">
        <ele>1057.677</ele>
        <time>2011-04-02T17:27:16Z</time>
      </trkpt>
      <trkpt lat="42.25756" lon="2.70897">
        <ele>1056.68</ele>
        <time>2011-04-02T17:27:23Z</time>
      </trkpt>
      <trkpt lat="42.25754" lon="2.70908">
        <ele>1053.728</ele>
        <time>2011-04-02T17:27:29Z</time>
      </trkpt>
      <trkpt lat="42.2575" lon="2.70926">
        <ele>1051.389</ele>
        <time>2011-04-02T17:27:41Z</time>
      </trkpt>
      <trkpt lat="42.25749" lon="2.70929">
        <ele>1050.917</ele>
        <time>2011-04-02T17:27:44Z</time>
      </trkpt>
      <trkpt lat="42.25747" lon="2.70939">
        <ele>1048.007</ele>
        <time>2011-04-02T17:27:51Z</time>
      </trkpt>
      <trkpt lat="42.25746" lon="2.70943">
        <ele>1047.073</ele>
        <time>2011-04-02T17:27:54Z</time>
      </trkpt>
      <trkpt lat="42.25743" lon="2.7096">
        <ele>1044.187</ele>
        <time>2011-04-02T17:28:04Z</time>
      </trkpt>
      <trkpt lat="42.25741" lon="2.70964">
        <ele>1043.72</ele>
        <time>2011-04-02T17:28:07Z</time>
      </trkpt>
      <trkpt lat="42.2574" lon="2.70977">
        <ele>1040.889</ele>
        <time>2011-04-02T17:28:16Z</time>
      </trkpt>
      <trkpt lat="42.25738" lon="2.70992">
        <ele>1037.416</ele>
        <time>2011-04-02T17:28:30Z</time>
      </trkpt>
      <trkpt lat="42.25737" lon="2.70996">
        <ele>1036.484</ele>
        <time>2011-04-02T17:28:35Z</time>
      </trkpt>
      <trkpt lat="42.25739" lon="2.71021">
        <ele>1034.547</ele>
        <time>2011-04-02T17:28:45Z</time>
      </trkpt>
      <trkpt lat="42.25743" lon="2.7104">
        <ele>1032.675</ele>
        <time>2011-04-02T17:28:53Z</time>
      </trkpt>
      <trkpt lat="42.25741" lon="2.71043">
        <ele>1031.228</ele>
        <time>2011-04-02T17:28:56Z</time>
      </trkpt>
      <trkpt lat="42.25737" lon="2.71042">
        <ele>1030.72</ele>
        <time>2011-04-02T17:29:00Z</time>
      </trkpt>
      <trkpt lat="42.25729" lon="2.71032">
        <ele>1029.207</ele>
        <time>2011-04-02T17:29:05Z</time>
      </trkpt>
      <trkpt lat="42.25717" lon="2.71005">
        <ele>1026.838</ele>
        <time>2011-04-02T17:29:17Z</time>
      </trkpt>
      <trkpt lat="42.2571" lon="2.70987">
        <ele>1025.462</ele>
        <time>2011-04-02T17:29:31Z</time>
      </trkpt>
      <trkpt lat="42.25709" lon="2.70987">
        <ele>1023.075</ele>
        <time>2011-04-02T17:29:42Z</time>
      </trkpt>
      <trkpt lat="42.25708" lon="2.7099">
        <ele>1021.554</ele>
        <time>2011-04-02T17:29:47Z</time>
      </trkpt>
      <trkpt lat="42.25712" lon="2.71004">
        <ele>1021.561</ele>
        <time>2011-04-02T17:29:56Z</time>
      </trkpt>
      <trkpt lat="42.25714" lon="2.71019">
        <ele>1019.699</ele>
        <time>2011-04-02T17:30:08Z</time>
      </trkpt>
      <trkpt lat="42.25713" lon="2.71023">
        <ele>1018.232</ele>
        <time>2011-04-02T17:30:12Z</time>
      </trkpt>
      <trkpt lat="42.25712" lon="2.71033">
        <ele>1016.315</ele>
        <time>2011-04-02T17:30:17Z</time>
      </trkpt>
      <trkpt lat="42.25711" lon="2.71039">
        <ele>1014.865</ele>
        <time>2011-04-02T17:30:21Z</time>
      </trkpt>
      <trkpt lat="42.25707" lon="2.71039">
        <ele>1013.911</ele>
        <time>2011-04-02T17:30:25Z</time>
      </trkpt>
      <trkpt lat="42.25704" lon="2.71036">
        <ele>1014.307</ele>
        <time>2011-04-02T17:30:27Z</time>
      </trkpt>
      <trkpt lat="42.25701" lon="2.71029">
        <ele>1012.952</ele>
        <time>2011-04-02T17:30:31Z</time>
      </trkpt>
      <trkpt lat="42.25699" lon="2.71025">
        <ele>1011.936</ele>
        <time>2011-04-02T17:30:35Z</time>
      </trkpt>
      <trkpt lat="42.25695" lon="2.7102">
        <ele>1009.019</ele>
        <time>2011-04-02T17:30:42Z</time>
      </trkpt>
      <trkpt lat="42.25693" lon="2.71017">
        <ele>1007.648</ele>
        <time>2011-04-02T17:30:45Z</time>
      </trkpt>
      <trkpt lat="42.25689" lon="2.71013">
        <ele>1006.265</ele>
        <time>2011-04-02T17:30:52Z</time>
      </trkpt>
      <trkpt lat="42.25684" lon="2.71008">
        <ele>1002.383</ele>
        <time>2011-04-02T17:31:02Z</time>
      </trkpt>
      <trkpt lat="42.25681" lon="2.71005">
        <ele>999.976</ele>
        <time>2011-04-02T17:31:07Z</time>
      </trkpt>
      <trkpt lat="42.2568" lon="2.71008">
        <ele>998.059</ele>
        <time>2011-04-02T17:31:10Z</time>
      </trkpt>
      <trkpt lat="42.25674" lon="2.71018">
        <ele>995.603</ele>
        <time>2011-04-02T17:31:19Z</time>
      </trkpt>
      <trkpt lat="42.25672" lon="2.71016">
        <ele>994.123</ele>
        <time>2011-04-02T17:31:23Z</time>
      </trkpt>
      <trkpt lat="42.25668" lon="2.71013">
        <ele>991.707</ele>
        <time>2011-04-02T17:31:29Z</time>
      </trkpt>
      <trkpt lat="42.25665" lon="2.71016">
        <ele>990.376</ele>
        <time>2011-04-02T17:31:33Z</time>
      </trkpt>
      <trkpt lat="42.25659" lon="2.71022">
        <ele>988.94</ele>
        <time>2011-04-02T17:31:41Z</time>
      </trkpt>
      <trkpt lat="42.25658" lon="2.71016">
        <ele>986.563</ele>
        <time>2011-04-02T17:31:46Z</time>
      </trkpt>
      <trkpt lat="42.25658" lon="2.71013">
        <ele>986.512</ele>
        <time>2011-04-02T17:31:48Z</time>
      </trkpt>
      <trkpt lat="42.25657" lon="2.71007">
        <ele>984.579</ele>
        <time>2011-04-02T17:31:53Z</time>
      </trkpt>
      <trkpt lat="42.25656" lon="2.71007">
        <ele>984.197</ele>
        <time>2011-04-02T17:31:55Z</time>
      </trkpt>
      <trkpt lat="42.25651" lon="2.71013">
        <ele>982.18</ele>
        <time>2011-04-02T17:32:01Z</time>
      </trkpt>
      <trkpt lat="42.25646" lon="2.71048">
        <ele>979.289</ele>
        <time>2011-04-02T17:32:14Z</time>
      </trkpt>
      <trkpt lat="42.25645" lon="2.71056">
        <ele>978.806</ele>
        <time>2011-04-02T17:32:17Z</time>
      </trkpt>
      <trkpt lat="42.25636" lon="2.71068">
        <ele>975.926</ele>
        <time>2011-04-02T17:32:28Z</time>
      </trkpt>
      <trkpt lat="42.25636" lon="2.71077">
        <ele>974.007</ele>
        <time>2011-04-02T17:32:34Z</time>
      </trkpt>
      <trkpt lat="42.25634" lon="2.71087">
        <ele>971.119</ele>
        <time>2011-04-02T17:32:39Z</time>
      </trkpt>
      <trkpt lat="42.25633" lon="2.71092">
        <ele>970.663</ele>
        <time>2011-04-02T17:32:42Z</time>
      </trkpt>
      <trkpt lat="42.25633" lon="2.71099">
        <ele>968.756</ele>
        <time>2011-04-02T17:32:46Z</time>
      </trkpt>
      <trkpt lat="42.25633" lon="2.71101">
        <ele>968.225</ele>
        <time>2011-04-02T17:32:47Z</time>
      </trkpt>
      <trkpt lat="42.25629" lon="2.71112">
        <ele>965.872</ele>
        <time>2011-04-02T17:32:54Z</time>
      </trkpt>
      <trkpt lat="42.25626" lon="2.71119">
        <ele>964.86</ele>
        <time>2011-04-02T17:33:06Z</time>
      </trkpt>
      <trkpt lat="42.25627" lon="2.71119">
        <ele>965.313</ele>
        <time>2011-04-02T17:33:09Z</time>
      </trkpt>
      <trkpt lat="42.25631" lon="2.71114">
        <ele>965.849</ele>
        <time>2011-04-02T17:33:20Z</time>
      </trkpt>
      <trkpt lat="42.25632" lon="2.71114">
        <ele>966.302</ele>
        <time>2011-04-02T17:33:21Z</time>
      </trkpt>
      <trkpt lat="42.2564" lon="2.71123">
        <ele>964.322</ele>
        <time>2011-04-02T17:33:32Z</time>
      </trkpt>
      <trkpt lat="42.25642" lon="2.71128">
        <ele>962.407</ele>
        <time>2011-04-02T17:33:36Z</time>
      </trkpt>
      <trkpt lat="42.25635" lon="2.71138">
        <ele>959.525</ele>
        <time>2011-04-02T17:33:47Z</time>
      </trkpt>
      <trkpt lat="42.25634" lon="2.71147">
        <ele>957.629</ele>
        <time>2011-04-02T17:33:56Z</time>
      </trkpt>
      <trkpt lat="42.25635" lon="2.71166">
        <ele>953.312</ele>
        <time>2011-04-02T17:34:09Z</time>
      </trkpt>
      <trkpt lat="42.25636" lon="2.71168">
        <ele>953.811</ele>
        <time>2011-04-02T17:34:10Z</time>
      </trkpt>
      <trkpt lat="42.25637" lon="2.71169">
        <ele>953.898</ele>
        <time>2011-04-02T17:34:11Z</time>
      </trkpt>
      <trkpt lat="42.25637" lon="2.71191">
        <ele>949.426</ele>
        <time>2011-04-02T17:34:22Z</time>
      </trkpt>
      <trkpt lat="42.25637" lon="2.71197">
        <ele>949.029</ele>
        <time>2011-04-02T17:34:24Z</time>
      </trkpt>
      <trkpt lat="42.25637" lon="2.71209">
        <ele>947.579</ele>
        <time>2011-04-02T17:34:30Z</time>
      </trkpt>
      <trkpt lat="42.25632" lon="2.71223">
        <ele>944.605</ele>
        <time>2011-04-02T17:34:38Z</time>
      </trkpt>
      <trkpt lat="42.25628" lon="2.71248">
        <ele>942.725</ele>
        <time>2011-04-02T17:34:49Z</time>
      </trkpt>
      <trkpt lat="42.25625" lon="2.71263">
        <ele>940.307</ele>
        <time>2011-04-02T17:34:58Z</time>
      </trkpt>
      <trkpt lat="42.25625" lon="2.71267">
        <ele>939.828</ele>
        <time>2011-04-02T17:35:00Z</time>
      </trkpt>
      <trkpt lat="42.25627" lon="2.71289">
        <ele>936.922</ele>
        <time>2011-04-02T17:35:11Z</time>
      </trkpt>
      <trkpt lat="42.25628" lon="2.71304">
        <ele>935.575</ele>
        <time>2011-04-02T17:35:19Z</time>
      </trkpt>
      <trkpt lat="42.25628" lon="2.71312">
        <ele>934.154</ele>
        <time>2011-04-02T17:35:24Z</time>
      </trkpt>
      <trkpt lat="42.25629" lon="2.71319">
        <ele>933.181</ele>
        <time>2011-04-02T17:35:27Z</time>
      </trkpt>
      <trkpt lat="42.25627" lon="2.71332">
        <ele>930.729</ele>
        <time>2011-04-02T17:35:33Z</time>
      </trkpt>
      <trkpt lat="42.25625" lon="2.71339">
        <ele>929.392</ele>
        <time>2011-04-02T17:35:37Z</time>
      </trkpt>
      <trkpt lat="42.25623" lon="2.71354">
        <ele>925.437</ele>
        <time>2011-04-02T17:35:47Z</time>
      </trkpt>
      <trkpt lat="42.25623" lon="2.71355">
        <ele>924.949</ele>
        <time>2011-04-02T17:35:48Z</time>
      </trkpt>
      <trkpt lat="42.25622" lon="2.71376">
        <ele>921.113</ele>
        <time>2011-04-02T17:35:58Z</time>
      </trkpt>
      <trkpt lat="42.2562" lon="2.71389">
        <ele>919.607</ele>
        <time>2011-04-02T17:36:04Z</time>
      </trkpt>
      <trkpt lat="42.25618" lon="2.71395">
        <ele>918.264</ele>
        <time>2011-04-02T17:36:09Z</time>
      </trkpt>
      <trkpt lat="42.25614" lon="2.71391">
        <ele>917.238</ele>
        <time>2011-04-02T17:36:14Z</time>
      </trkpt>
      <trkpt lat="42.25609" lon="2.7139">
        <ele>915.341</ele>
        <time>2011-04-02T17:36:20Z</time>
      </trkpt>
      <trkpt lat="42.25602" lon="2.71391">
        <ele>913.49</ele>
        <time>2011-04-02T17:36:27Z</time>
      </trkpt>
      <trkpt lat="42.2559" lon="2.7138">
        <ele>910.557</ele>
        <time>2011-04-02T17:36:36Z</time>
      </trkpt>
      <trkpt lat="42.25577" lon="2.71368">
        <ele>908.615</ele>
        <time>2011-04-02T17:36:46Z</time>
      </trkpt>
      <trkpt lat="42.25576" lon="2.7136">
        <ele>905.748</ele>
        <time>2011-04-02T17:36:51Z</time>
      </trkpt>
      <trkpt lat="42.25574" lon="2.71349">
        <ele>905.793</ele>
        <time>2011-04-02T17:36:56Z</time>
      </trkpt>
      <trkpt lat="42.25567" lon="2.71351">
        <ele>904.765</ele>
        <time>2011-04-02T17:37:04Z</time>
      </trkpt>
      <trkpt lat="42.25559" lon="2.71355">
        <ele>904.321</ele>
        <time>2011-04-02T17:37:11Z</time>
      </trkpt>
      <trkpt lat="42.25555" lon="2.71357">
        <ele>904.307</ele>
        <time>2011-04-02T17:37:15Z</time>
      </trkpt>
      <trkpt lat="42.25554" lon="2.71358">
        <ele>903.81</ele>
        <time>2011-04-02T17:37:18Z</time>
      </trkpt>
      <trkpt lat="42.25553" lon="2.71365">
        <ele>900.924</ele>
        <time>2011-04-02T17:37:24Z</time>
      </trkpt>
      <trkpt lat="42.2555" lon="2.71372">
        <ele>899.517</ele>
        <time>2011-04-02T17:37:31Z</time>
      </trkpt>
      <trkpt lat="42.25546" lon="2.71375">
        <ele>897.186</ele>
        <time>2011-04-02T17:37:35Z</time>
      </trkpt>
      <trkpt lat="42.25541" lon="2.71382">
        <ele>895.673</ele>
        <time>2011-04-02T17:37:40Z</time>
      </trkpt>
      <trkpt lat="42.25536" lon="2.71389">
        <ele>894.291</ele>
        <time>2011-04-02T17:37:45Z</time>
      </trkpt>
      <trkpt lat="42.25533" lon="2.71391">
        <ele>892.714</ele>
        <time>2011-04-02T17:37:47Z</time>
      </trkpt>
      <trkpt lat="42.25531" lon="2.71394">
        <ele>892.222</ele>
        <time>2011-04-02T17:37:49Z</time>
      </trkpt>
      <trkpt lat="42.25528" lon="2.71399">
        <ele>890.862</ele>
        <time>2011-04-02T17:37:52Z</time>
      </trkpt>
      <trkpt lat="42.25527" lon="2.71404">
        <ele>889.808</ele>
        <time>2011-04-02T17:37:56Z</time>
      </trkpt>
      <trkpt lat="42.25521" lon="2.71413">
        <ele>887.007</ele>
        <time>2011-04-02T17:38:02Z</time>
      </trkpt>
      <trkpt lat="42.25518" lon="2.71415">
        <ele>887.473</ele>
        <time>2011-04-02T17:38:04Z</time>
      </trkpt>
      <trkpt lat="42.2551" lon="2.71425">
        <ele>883.657</ele>
        <time>2011-04-02T17:38:12Z</time>
      </trkpt>
      <trkpt lat="42.25508" lon="2.71428">
        <ele>883.18</ele>
        <time>2011-04-02T17:38:18Z</time>
      </trkpt>
      <trkpt lat="42.25509" lon="2.71433">
        <ele>880.739</ele>
        <time>2011-04-02T17:38:22Z</time>
      </trkpt>
      <trkpt lat="42.25516" lon="2.71442">
        <ele>879.336</ele>
        <time>2011-04-02T17:38:27Z</time>
      </trkpt>
      <trkpt lat="42.25522" lon="2.71447">
        <ele>878.894</ele>
        <time>2011-04-02T17:38:30Z</time>
      </trkpt>
      <trkpt lat="42.25529" lon="2.71456">
        <ele>877.327</ele>
        <time>2011-04-02T17:38:34Z</time>
      </trkpt>
      <trkpt lat="42.25529" lon="2.71489">
        <ele>875.492</ele>
        <time>2011-04-02T17:38:51Z</time>
      </trkpt>
      <trkpt lat="42.25528" lon="2.7149">
        <ele>875.473</ele>
        <time>2011-04-02T17:38:55Z</time>
      </trkpt>
      <trkpt lat="42.25526" lon="2.7149">
        <ele>874.02</ele>
        <time>2011-04-02T17:39:00Z</time>
      </trkpt>
      <trkpt lat="42.25507" lon="2.71492">
        <ele>871.107</ele>
        <time>2011-04-02T17:39:09Z</time>
      </trkpt>
      <trkpt lat="42.25502" lon="2.71489">
        <ele>871.61</ele>
        <time>2011-04-02T17:39:13Z</time>
      </trkpt>
      <trkpt lat="42.25484" lon="2.71478">
        <ele>872.574</ele>
        <time>2011-04-02T17:39:24Z</time>
      </trkpt>
      <trkpt lat="42.25467" lon="2.71465">
        <ele>869.767</ele>
        <time>2011-04-02T17:39:36Z</time>
      </trkpt>
      <trkpt lat="42.25456" lon="2.71461">
        <ele>868.726</ele>
        <time>2011-04-02T17:39:50Z</time>
      </trkpt>
      <trkpt lat="42.25445" lon="2.71458">
        <ele>871.613</ele>
        <time>2011-04-02T17:40:00Z</time>
      </trkpt>
      <trkpt lat="42.2542" lon="2.71451">
        <ele>870.151</ele>
        <time>2011-04-02T17:40:12Z</time>
      </trkpt>
      <trkpt lat="42.254" lon="2.71446">
        <ele>866.854</ele>
        <time>2011-04-02T17:40:23Z</time>
      </trkpt>
      <trkpt lat="42.25399" lon="2.71445">
        <ele>867.398</ele>
        <time>2011-04-02T17:40:24Z</time>
      </trkpt>
      <trkpt lat="42.2539" lon="2.71443">
        <ele>863.915</ele>
        <time>2011-04-02T17:40:33Z</time>
      </trkpt>
      <trkpt lat="42.25383" lon="2.71445">
        <ele>863.426</ele>
        <time>2011-04-02T17:40:40Z</time>
      </trkpt>
      <trkpt lat="42.2538" lon="2.7145">
        <ele>860.507</ele>
        <time>2011-04-02T17:40:46Z</time>
      </trkpt>
      <trkpt lat="42.25374" lon="2.71461">
        <ele>857.63</ele>
        <time>2011-04-02T17:40:55Z</time>
      </trkpt>
      <trkpt lat="42.25367" lon="2.71468">
        <ele>854.884</ele>
        <time>2011-04-02T17:41:08Z</time>
      </trkpt>
      <trkpt lat="42.25361" lon="2.71471">
        <ele>852.427</ele>
        <time>2011-04-02T17:41:14Z</time>
      </trkpt>
      <trkpt lat="42.25357" lon="2.71476">
        <ele>851.486</ele>
        <time>2011-04-02T17:41:18Z</time>
      </trkpt>
      <trkpt lat="42.25349" lon="2.71481">
        <ele>849.083</ele>
        <time>2011-04-02T17:41:24Z</time>
      </trkpt>
      <trkpt lat="42.25342" lon="2.71485">
        <ele>848.591</ele>
        <time>2011-04-02T17:41:29Z</time>
      </trkpt>
      <trkpt lat="42.25338" lon="2.71488">
        <ele>847.164</ele>
        <time>2011-04-02T17:41:32Z</time>
      </trkpt>
      <trkpt lat="42.25331" lon="2.71494">
        <ele>845.195</ele>
        <time>2011-04-02T17:41:39Z</time>
      </trkpt>
      <trkpt lat="42.25328" lon="2.71498">
        <ele>843.249</ele>
        <time>2011-04-02T17:41:45Z</time>
      </trkpt>
      <trkpt lat="42.25317" lon="2.71499">
        <ele>839.423</ele>
        <time>2011-04-02T17:41:55Z</time>
      </trkpt>
      <trkpt lat="42.25309" lon="2.71497">
        <ele>837.507</ele>
        <time>2011-04-02T17:42:00Z</time>
      </trkpt>
      <trkpt lat="42.25304" lon="2.71496">
        <ele>836.58</ele>
        <time>2011-04-02T17:42:07Z</time>
      </trkpt>
      <trkpt lat="42.25302" lon="2.715">
        <ele>835.044</ele>
        <time>2011-04-02T17:42:11Z</time>
      </trkpt>
      <trkpt lat="42.25298" lon="2.715">
        <ele>834.197</ele>
        <time>2011-04-02T17:42:15Z</time>
      </trkpt>
      <trkpt lat="42.25295" lon="2.715">
        <ele>831.786</ele>
        <time>2011-04-02T17:42:18Z</time>
      </trkpt>
      <trkpt lat="42.25288" lon="2.71494">
        <ele>828.343</ele>
        <time>2011-04-02T17:42:29Z</time>
      </trkpt>
      <trkpt lat="42.25288" lon="2.71489">
        <ele>826.971</ele>
        <time>2011-04-02T17:42:36Z</time>
      </trkpt>
      <trkpt lat="42.25284" lon="2.71491">
        <ele>825.414</ele>
        <time>2011-04-02T17:42:43Z</time>
      </trkpt>
      <trkpt lat="42.25281" lon="2.71489">
        <ele>824.511</ele>
        <time>2011-04-02T17:42:48Z</time>
      </trkpt>
      <trkpt lat="42.25277" lon="2.71486">
        <ele>822.121</ele>
        <time>2011-04-02T17:42:53Z</time>
      </trkpt>
      <trkpt lat="42.25273" lon="2.71488">
        <ele>819.703</ele>
        <time>2011-04-02T17:43:02Z</time>
      </trkpt>
      <trkpt lat="42.25272" lon="2.71489">
        <ele>818.707</ele>
        <time>2011-04-02T17:43:04Z</time>
      </trkpt>
      <trkpt lat="42.25268" lon="2.71488">
        <ele>816.352</ele>
        <time>2011-04-02T17:43:13Z</time>
      </trkpt>
      <trkpt lat="42.25263" lon="2.71488">
        <ele>812.566</ele>
        <time>2011-04-02T17:43:21Z</time>
      </trkpt>
      <trkpt lat="42.25256" lon="2.71489">
        <ele>808.649</ele>
        <time>2011-04-02T17:43:32Z</time>
      </trkpt>
      <trkpt lat="42.25251" lon="2.7149">
        <ele>805.238</ele>
        <time>2011-04-02T17:43:43Z</time>
      </trkpt>
      <trkpt lat="42.25245" lon="2.71491">
        <ele>802.485</ele>
        <time>2011-04-02T17:43:53Z</time>
      </trkpt>
      <trkpt lat="42.25244" lon="2.71491">
        <ele>801.963</ele>
        <time>2011-04-02T17:43:54Z</time>
      </trkpt>
      <trkpt lat="42.25242" lon="2.71492">
        <ele>800.496</ele>
        <time>2011-04-02T17:43:59Z</time>
      </trkpt>
      <trkpt lat="42.25241" lon="2.71493">
        <ele>798.593</ele>
        <time>2011-04-02T17:44:01Z</time>
      </trkpt>
      <trkpt lat="42.25239" lon="2.71497">
        <ele>798.565</ele>
        <time>2011-04-02T17:44:05Z</time>
      </trkpt>
      <trkpt lat="42.2523" lon="2.71495">
        <ele>792.721</ele>
        <time>2011-04-02T17:44:17Z</time>
      </trkpt>
      <trkpt lat="42.25229" lon="2.71496">
        <ele>792.307</ele>
        <time>2011-04-02T17:44:18Z</time>
      </trkpt>
      <trkpt lat="42.25227" lon="2.71499">
        <ele>789.95</ele>
        <time>2011-04-02T17:44:21Z</time>
      </trkpt>
      <trkpt lat="42.25221" lon="2.715">
        <ele>786.064</ele>
        <time>2011-04-02T17:44:33Z</time>
      </trkpt>
      <trkpt lat="42.2522" lon="2.71499">
        <ele>785.577</ele>
        <time>2011-04-02T17:44:35Z</time>
      </trkpt>
      <trkpt lat="42.25216" lon="2.71503">
        <ele>781.736</ele>
        <time>2011-04-02T17:44:44Z</time>
      </trkpt>
      <trkpt lat="42.25215" lon="2.71504">
        <ele>781.763</ele>
        <time>2011-04-02T17:44:45Z</time>
      </trkpt>
      <trkpt lat="42.25211" lon="2.71507">
        <ele>778.321</ele>
        <time>2011-04-02T17:44:55Z</time>
      </trkpt>
      <trkpt lat="42.25206" lon="2.71507">
        <ele>775.094</ele>
        <time>2011-04-02T17:45:02Z</time>
      </trkpt>
      <trkpt lat="42.25205" lon="2.71508">
        <ele>773.514</ele>
        <time>2011-04-02T17:45:03Z</time>
      </trkpt>
      <trkpt lat="42.25195" lon="2.71507">
        <ele>772.654</ele>
        <time>2011-04-02T17:45:12Z</time>
      </trkpt>
      <trkpt lat="42.25193" lon="2.71508">
        <ele>771.109</ele>
        <time>2011-04-02T17:45:14Z</time>
      </trkpt>
      <trkpt lat="42.25188" lon="2.71509">
        <ele>769.207</ele>
        <time>2011-04-02T17:45:29Z</time>
      </trkpt>
      <trkpt lat="42.2518" lon="2.71515">
        <ele>767.882</ele>
        <time>2011-04-02T17:45:34Z</time>
      </trkpt>
      <trkpt lat="42.25174" lon="2.71517">
        <ele>767.356</ele>
        <time>2011-04-02T17:45:37Z</time>
      </trkpt>
      <trkpt lat="42.25168" lon="2.71516">
        <ele>765.489</ele>
        <time>2011-04-02T17:45:42Z</time>
      </trkpt>
      <trkpt lat="42.25162" lon="2.71513">
        <ele>764.448</ele>
        <time>2011-04-02T17:45:47Z</time>
      </trkpt>
      <trkpt lat="42.25159" lon="2.71515">
        <ele>762.985</ele>
        <time>2011-04-02T17:45:51Z</time>
      </trkpt>
      <trkpt lat="42.25155" lon="2.71516">
        <ele>761.533</ele>
        <time>2011-04-02T17:45:54Z</time>
      </trkpt>
      <trkpt lat="42.25153" lon="2.71517">
        <ele>759.636</ele>
        <time>2011-04-02T17:45:57Z</time>
      </trkpt>
      <trkpt lat="42.25139" lon="2.71511">
        <ele>757.796</ele>
        <time>2011-04-02T17:46:08Z</time>
      </trkpt>
      <trkpt lat="42.25138" lon="2.7151">
        <ele>756.731</ele>
        <time>2011-04-02T17:46:09Z</time>
      </trkpt>
      <trkpt lat="42.25128" lon="2.71505">
        <ele>754.824</ele>
        <time>2011-04-02T17:46:15Z</time>
      </trkpt>
      <trkpt lat="42.25127" lon="2.71505">
        <ele>754.307</ele>
        <time>2011-04-02T17:46:16Z</time>
      </trkpt>
      <trkpt lat="42.25109" lon="2.71495">
        <ele>752.96</ele>
        <time>2011-04-02T17:46:27Z</time>
      </trkpt>
      <trkpt lat="42.25105" lon="2.71491">
        <ele>752.954</ele>
        <time>2011-04-02T17:46:29Z</time>
      </trkpt>
      <trkpt lat="42.25101" lon="2.71484">
        <ele>752.487</ele>
        <time>2011-04-02T17:46:32Z</time>
      </trkpt>
      <trkpt lat="42.25097" lon="2.71474">
        <ele>750.916</ele>
        <time>2011-04-02T17:46:36Z</time>
      </trkpt>
      <trkpt lat="42.25094" lon="2.71466">
        <ele>751.453</ele>
        <time>2011-04-02T17:46:40Z</time>
      </trkpt>
      <trkpt lat="42.25093" lon="2.71457">
        <ele>749.551</ele>
        <time>2011-04-02T17:46:45Z</time>
      </trkpt>
      <trkpt lat="42.25088" lon="2.71444">
        <ele>747.624</ele>
        <time>2011-04-02T17:46:50Z</time>
      </trkpt>
      <trkpt lat="42.25083" lon="2.71432">
        <ele>746.133</ele>
        <time>2011-04-02T17:46:55Z</time>
      </trkpt>
      <trkpt lat="42.25079" lon="2.71429">
        <ele>744.223</ele>
        <time>2011-04-02T17:47:00Z</time>
      </trkpt>
      <trkpt lat="42.25074" lon="2.71439">
        <ele>739.915</ele>
        <time>2011-04-02T17:47:07Z</time>
      </trkpt>
      <trkpt lat="42.25072" lon="2.71446">
        <ele>738.907</ele>
        <time>2011-04-02T17:47:11Z</time>
      </trkpt>
      <trkpt lat="42.25072" lon="2.71448">
        <ele>738.474</ele>
        <time>2011-04-02T17:47:13Z</time>
      </trkpt>
      <trkpt lat="42.25068" lon="2.71453">
        <ele>736.578</ele>
        <time>2011-04-02T17:47:18Z</time>
      </trkpt>
      <trkpt lat="42.25069" lon="2.7146">
        <ele>734.681</ele>
        <time>2011-04-02T17:47:22Z</time>
      </trkpt>
      <trkpt lat="42.2507" lon="2.71472">
        <ele>732.77</ele>
        <time>2011-04-02T17:47:27Z</time>
      </trkpt>
      <trkpt lat="42.25069" lon="2.71483">
        <ele>730.777</ele>
        <time>2011-04-02T17:47:32Z</time>
      </trkpt>
      <trkpt lat="42.25064" lon="2.71483">
        <ele>728.895</ele>
        <time>2011-04-02T17:47:37Z</time>
      </trkpt>
      <trkpt lat="42.25058" lon="2.71484">
        <ele>726.938</ele>
        <time>2011-04-02T17:47:41Z</time>
      </trkpt>
      <trkpt lat="42.25054" lon="2.71485">
        <ele>725.531</ele>
        <time>2011-04-02T17:47:44Z</time>
      </trkpt>
      <trkpt lat="42.25052" lon="2.71487">
        <ele>725.061</ele>
        <time>2011-04-02T17:47:46Z</time>
      </trkpt>
      <trkpt lat="42.2505" lon="2.71491">
        <ele>723.507</ele>
        <time>2011-04-02T17:47:49Z</time>
      </trkpt>
      <trkpt lat="42.25047" lon="2.71495">
        <ele>721.607</ele>
        <time>2011-04-02T17:47:53Z</time>
      </trkpt>
      <trkpt lat="42.25043" lon="2.715">
        <ele>718.784</ele>
        <time>2011-04-02T17:47:57Z</time>
      </trkpt>
      <trkpt lat="42.25042" lon="2.715">
        <ele>717.858</ele>
        <time>2011-04-02T17:47:58Z</time>
      </trkpt>
      <trkpt lat="42.25036" lon="2.71506">
        <ele>714.951</ele>
        <time>2011-04-02T17:48:04Z</time>
      </trkpt>
      <trkpt lat="42.25031" lon="2.71516">
        <ele>713.04</ele>
        <time>2011-04-02T17:48:08Z</time>
      </trkpt>
      <trkpt lat="42.25031" lon="2.71521">
        <ele>713.427</ele>
        <time>2011-04-02T17:48:14Z</time>
      </trkpt>
      <trkpt lat="42.25031" lon="2.71522">
        <ele>712.515</ele>
        <time>2011-04-02T17:48:15Z</time>
      </trkpt>
      <trkpt lat="42.25028" lon="2.71534">
        <ele>710.188</ele>
        <time>2011-04-02T17:48:23Z</time>
      </trkpt>
      <trkpt lat="42.25012" lon="2.71534">
        <ele>708.254</ele>
        <time>2011-04-02T17:48:32Z</time>
      </trkpt>
      <trkpt lat="42.25002" lon="2.7153">
        <ele>704.856</ele>
        <time>2011-04-02T17:48:39Z</time>
      </trkpt>
      <trkpt lat="42.24987" lon="2.71509">
        <ele>701.411</ele>
        <time>2011-04-02T17:48:49Z</time>
      </trkpt>
      <trkpt lat="42.24978" lon="2.71487">
        <ele>698.507</ele>
        <time>2011-04-02T17:48:58Z</time>
      </trkpt>
      <trkpt lat="42.2497" lon="2.71475">
        <ele>697.696</ele>
        <time>2011-04-02T17:49:03Z</time>
      </trkpt>
      <trkpt lat="42.24968" lon="2.71467">
        <ele>698.17</ele>
        <time>2011-04-02T17:49:07Z</time>
      </trkpt>
      <trkpt lat="42.24969" lon="2.71459">
        <ele>695.753</ele>
        <time>2011-04-02T17:49:11Z</time>
      </trkpt>
      <trkpt lat="42.24969" lon="2.7145">
        <ele>695.242</ele>
        <time>2011-04-02T17:49:15Z</time>
      </trkpt>
      <trkpt lat="42.24967" lon="2.71444">
        <ele>693.379</ele>
        <time>2011-04-02T17:49:19Z</time>
      </trkpt>
      <trkpt lat="42.2496" lon="2.71424">
        <ele>691.857</ele>
        <time>2011-04-02T17:49:27Z</time>
      </trkpt>
      <trkpt lat="42.24959" lon="2.71419">
        <ele>690.44</ele>
        <time>2011-04-02T17:49:30Z</time>
      </trkpt>
      <trkpt lat="42.24958" lon="2.71416">
        <ele>689.423</ele>
        <time>2011-04-02T17:49:32Z</time>
      </trkpt>
      <trkpt lat="42.24956" lon="2.71412">
        <ele>688.083</ele>
        <time>2011-04-02T17:49:36Z</time>
      </trkpt>
      <trkpt lat="42.24955" lon="2.71415">
        <ele>685.611</ele>
        <time>2011-04-02T17:49:41Z</time>
      </trkpt>
      <trkpt lat="42.24955" lon="2.71417">
        <ele>684.107</ele>
        <time>2011-04-02T17:49:43Z</time>
      </trkpt>
      <trkpt lat="42.24951" lon="2.71423">
        <ele>681.283</ele>
        <time>2011-04-02T17:49:51Z</time>
      </trkpt>
      <trkpt lat="42.24948" lon="2.71422">
        <ele>679.827</ele>
        <time>2011-04-02T17:49:56Z</time>
      </trkpt>
      <trkpt lat="42.24946" lon="2.71422">
        <ele>678.42</ele>
        <time>2011-04-02T17:49:59Z</time>
      </trkpt>
      <trkpt lat="42.24943" lon="2.7142">
        <ele>677.919</ele>
        <time>2011-04-02T17:50:02Z</time>
      </trkpt>
      <trkpt lat="42.24941" lon="2.71419">
        <ele>675.956</ele>
        <time>2011-04-02T17:50:04Z</time>
      </trkpt>
      <trkpt lat="42.24934" lon="2.71419">
        <ele>674.074</ele>
        <time>2011-04-02T17:50:09Z</time>
      </trkpt>
      <trkpt lat="42.24932" lon="2.71419">
        <ele>673.557</ele>
        <time>2011-04-02T17:50:11Z</time>
      </trkpt>
      <trkpt lat="42.24929" lon="2.71421">
        <ele>672.183</ele>
        <time>2011-04-02T17:50:15Z</time>
      </trkpt>
      <trkpt lat="42.24922" lon="2.71415">
        <ele>668.325</ele>
        <time>2011-04-02T17:50:21Z</time>
      </trkpt>
      <trkpt lat="42.24918" lon="2.71414">
        <ele>667.817</ele>
        <time>2011-04-02T17:50:23Z</time>
      </trkpt>
      <trkpt lat="42.24915" lon="2.71412">
        <ele>666.807</ele>
        <time>2011-04-02T17:50:25Z</time>
      </trkpt>
      <trkpt lat="42.24907" lon="2.71409">
        <ele>665.479</ele>
        <time>2011-04-02T17:50:29Z</time>
      </trkpt>
      <trkpt lat="42.249" lon="2.71408">
        <ele>663.583</ele>
        <time>2011-04-02T17:50:33Z</time>
      </trkpt>
      <trkpt lat="42.24892" lon="2.71405">
        <ele>662.026</ele>
        <time>2011-04-02T17:50:39Z</time>
      </trkpt>
      <trkpt lat="42.24883" lon="2.71403">
        <ele>660.135</ele>
        <time>2011-04-02T17:50:45Z</time>
      </trkpt>
      <trkpt lat="42.2488" lon="2.714">
        <ele>659.622</ele>
        <time>2011-04-02T17:50:47Z</time>
      </trkpt>
      <trkpt lat="42.24878" lon="2.71399">
        <ele>657.29</ele>
        <time>2011-04-02T17:50:58Z</time>
      </trkpt>
      <trkpt lat="42.2488" lon="2.71403">
        <ele>655.333</ele>
        <time>2011-04-02T17:51:03Z</time>
      </trkpt>
      <trkpt lat="42.24879" lon="2.71408">
        <ele>654.364</ele>
        <time>2011-04-02T17:51:08Z</time>
      </trkpt>
      <trkpt lat="42.24877" lon="2.71409">
        <ele>653.406</ele>
        <time>2011-04-02T17:51:10Z</time>
      </trkpt>
      <trkpt lat="42.24871" lon="2.71411">
        <ele>650.016</ele>
        <time>2011-04-02T17:51:18Z</time>
      </trkpt>
      <trkpt lat="42.24863" lon="2.71412">
        <ele>648.107</ele>
        <time>2011-04-02T17:51:23Z</time>
      </trkpt>
      <trkpt lat="42.24858" lon="2.71413">
        <ele>647.127</ele>
        <time>2011-04-02T17:51:27Z</time>
      </trkpt>
      <trkpt lat="42.24857" lon="2.71414">
        <ele>646.611</ele>
        <time>2011-04-02T17:51:28Z</time>
      </trkpt>
      <trkpt lat="42.24856" lon="2.71417">
        <ele>646.114</ele>
        <time>2011-04-02T17:51:31Z</time>
      </trkpt>
      <trkpt lat="42.2485" lon="2.71421">
        <ele>644.733</ele>
        <time>2011-04-02T17:51:36Z</time>
      </trkpt>
      <trkpt lat="42.24838" lon="2.71422">
        <ele>641.85</ele>
        <time>2011-04-02T17:51:43Z</time>
      </trkpt>
      <trkpt lat="42.24834" lon="2.71421">
        <ele>639.968</ele>
        <time>2011-04-02T17:51:46Z</time>
      </trkpt>
      <trkpt lat="42.24826" lon="2.71422">
        <ele>638.511</ele>
        <time>2011-04-02T17:51:50Z</time>
      </trkpt>
      <trkpt lat="42.24819" lon="2.71425">
        <ele>636.596</ele>
        <time>2011-04-02T17:51:54Z</time>
      </trkpt>
      <trkpt lat="42.24806" lon="2.71429">
        <ele>634.131</ele>
        <time>2011-04-02T17:52:01Z</time>
      </trkpt>
      <trkpt lat="42.248" lon="2.71428">
        <ele>633.224</ele>
        <time>2011-04-02T17:52:04Z</time>
      </trkpt>
      <trkpt lat="42.24794" lon="2.71425">
        <ele>631.207</ele>
        <time>2011-04-02T17:52:09Z</time>
      </trkpt>
      <trkpt lat="42.2479" lon="2.71432">
        <ele>628.43</ele>
        <time>2011-04-02T17:52:16Z</time>
      </trkpt>
      <trkpt lat="42.2479" lon="2.71434">
        <ele>627.964</ele>
        <time>2011-04-02T17:52:17Z</time>
      </trkpt>
      <trkpt lat="42.24788" lon="2.71437">
        <ele>626.477</ele>
        <time>2011-04-02T17:52:20Z</time>
      </trkpt>
      <trkpt lat="42.24787" lon="2.71441">
        <ele>625.586</ele>
        <time>2011-04-02T17:52:24Z</time>
      </trkpt>
      <trkpt lat="42.24788" lon="2.71442">
        <ele>624.043</ele>
        <time>2011-04-02T17:52:26Z</time>
      </trkpt>
      <trkpt lat="42.24788" lon="2.71445">
        <ele>622.631</ele>
        <time>2011-04-02T17:52:28Z</time>
      </trkpt>
      <trkpt lat="42.24783" lon="2.71447">
        <ele>621.634</ele>
        <time>2011-04-02T17:52:33Z</time>
      </trkpt>
      <trkpt lat="42.24778" lon="2.71447">
        <ele>620.228</ele>
        <time>2011-04-02T17:52:36Z</time>
      </trkpt>
      <trkpt lat="42.24768" lon="2.71446">
        <ele>618.889</ele>
        <time>2011-04-02T17:52:48Z</time>
      </trkpt>
      <trkpt lat="42.24768" lon="2.71446">
        <ele>618.317</ele>
        <time>2011-04-02T17:53:23Z</time>
      </trkpt>
      <trkpt lat="42.24765" lon="2.71444">
        <ele>615.907</ele>
        <time>2011-04-02T17:53:52Z</time>
      </trkpt>
      <trkpt lat="42.24751" lon="2.71438">
        <ele>613.043</ele>
        <time>2011-04-02T17:54:02Z</time>
      </trkpt>
      <trkpt lat="42.2475" lon="2.71438">
        <ele>613.097</ele>
        <time>2011-04-02T17:54:03Z</time>
      </trkpt>
      <trkpt lat="42.24754" lon="2.7145">
        <ele>612.58</ele>
        <time>2011-04-02T17:54:13Z</time>
      </trkpt>
      <trkpt lat="42.24756" lon="2.71452">
        <ele>611.549</ele>
        <time>2011-04-02T17:54:16Z</time>
      </trkpt>
      <trkpt lat="42.24757" lon="2.71464">
        <ele>609.116</ele>
        <time>2011-04-02T17:54:24Z</time>
      </trkpt>
      <trkpt lat="42.24758" lon="2.71468">
        <ele>608.274</ele>
        <time>2011-04-02T17:54:26Z</time>
      </trkpt>
      <trkpt lat="42.24761" lon="2.71479">
        <ele>606.317</ele>
        <time>2011-04-02T17:54:33Z</time>
      </trkpt>
      <trkpt lat="42.24758" lon="2.71482">
        <ele>605.826</ele>
        <time>2011-04-02T17:54:37Z</time>
      </trkpt>
      <trkpt lat="42.24751" lon="2.71482">
        <ele>602.947</ele>
        <time>2011-04-02T17:54:43Z</time>
      </trkpt>
      <trkpt lat="42.2475" lon="2.71483">
        <ele>602.411</ele>
        <time>2011-04-02T17:54:44Z</time>
      </trkpt>
      <trkpt lat="42.24748" lon="2.71494">
        <ele>601.007</ele>
        <time>2011-04-02T17:54:51Z</time>
      </trkpt>
      <trkpt lat="42.24748" lon="2.71504">
        <ele>599.063</ele>
        <time>2011-04-02T17:54:55Z</time>
      </trkpt>
      <trkpt lat="42.24748" lon="2.71514">
        <ele>596.657</ele>
        <time>2011-04-02T17:55:02Z</time>
      </trkpt>
      <trkpt lat="42.24747" lon="2.71514">
        <ele>597.11</ele>
        <time>2011-04-02T17:55:04Z</time>
      </trkpt>
      <trkpt lat="42.24739" lon="2.71511">
        <ele>596.219</ele>
        <time>2011-04-02T17:55:09Z</time>
      </trkpt>
      <trkpt lat="42.24734" lon="2.71508">
        <ele>594.756</ele>
        <time>2011-04-02T17:55:13Z</time>
      </trkpt>
      <trkpt lat="42.2473" lon="2.71503">
        <ele>592.864</ele>
        <time>2011-04-02T17:55:18Z</time>
      </trkpt>
      <trkpt lat="42.24724" lon="2.71502">
        <ele>590.917</ele>
        <time>2011-04-02T17:55:23Z</time>
      </trkpt>
      <trkpt lat="42.24713" lon="2.7151">
        <ele>588.066</ele>
        <time>2011-04-02T17:55:33Z</time>
      </trkpt>
      <trkpt lat="42.24707" lon="2.71511">
        <ele>586.529</ele>
        <time>2011-04-02T17:55:38Z</time>
      </trkpt>
      <trkpt lat="42.24705" lon="2.7151">
        <ele>585.621</ele>
        <time>2011-04-02T17:55:40Z</time>
      </trkpt>
      <trkpt lat="42.24699" lon="2.71517">
        <ele>583.207</ele>
        <time>2011-04-02T17:55:46Z</time>
      </trkpt>
      <trkpt lat="42.24703" lon="2.71525">
        <ele>582.747</ele>
        <time>2011-04-02T17:55:51Z</time>
      </trkpt>
      <trkpt lat="42.24704" lon="2.71529">
        <ele>582.211</ele>
        <time>2011-04-02T17:55:54Z</time>
      </trkpt>
      <trkpt lat="42.24702" lon="2.71531">
        <ele>580.334</ele>
        <time>2011-04-02T17:55:58Z</time>
      </trkpt>
      <trkpt lat="42.24708" lon="2.71546">
        <ele>579.823</ele>
        <time>2011-04-02T17:56:08Z</time>
      </trkpt>
      <trkpt lat="42.24708" lon="2.71547">
        <ele>579.39</ele>
        <time>2011-04-02T17:56:09Z</time>
      </trkpt>
      <trkpt lat="42.24711" lon="2.71558">
        <ele>578.968</ele>
        <time>2011-04-02T17:56:15Z</time>
      </trkpt>
      <trkpt lat="42.24715" lon="2.71568">
        <ele>577.491</ele>
        <time>2011-04-02T17:56:25Z</time>
      </trkpt>
      <trkpt lat="42.24714" lon="2.71576">
        <ele>576.548</ele>
        <time>2011-04-02T17:56:30Z</time>
      </trkpt>
      <trkpt lat="42.2471" lon="2.71579">
        <ele>576.061</ele>
        <time>2011-04-02T17:56:33Z</time>
      </trkpt>
      <trkpt lat="42.24704" lon="2.71578">
        <ele>575.017</ele>
        <time>2011-04-02T17:56:38Z</time>
      </trkpt>
      <trkpt lat="42.24696" lon="2.71583">
        <ele>571.207</ele>
        <time>2011-04-02T17:56:46Z</time>
      </trkpt>
      <trkpt lat="42.24688" lon="2.71585">
        <ele>569.255</ele>
        <time>2011-04-02T17:56:52Z</time>
      </trkpt>
      <trkpt lat="42.24684" lon="2.71583">
        <ele>568.379</ele>
        <time>2011-04-02T17:56:56Z</time>
      </trkpt>
      <trkpt lat="42.24682" lon="2.71581">
        <ele>567.322</ele>
        <time>2011-04-02T17:56:58Z</time>
      </trkpt>
      <trkpt lat="42.24679" lon="2.71575">
        <ele>565.941</ele>
        <time>2011-04-02T17:57:02Z</time>
      </trkpt>
      <trkpt lat="42.24677" lon="2.71574">
        <ele>565.488</ele>
        <time>2011-04-02T17:57:04Z</time>
      </trkpt>
      <trkpt lat="42.24671" lon="2.71569">
        <ele>562.046</ele>
        <time>2011-04-02T17:57:09Z</time>
      </trkpt>
      <trkpt lat="42.24662" lon="2.71559">
        <ele>558.239</ele>
        <time>2011-04-02T17:57:17Z</time>
      </trkpt>
      <trkpt lat="42.24661" lon="2.71559">
        <ele>558.794</ele>
        <time>2011-04-02T17:57:18Z</time>
      </trkpt>
      <trkpt lat="42.24659" lon="2.71556">
        <ele>557.257</ele>
        <time>2011-04-02T17:57:21Z</time>
      </trkpt>
      <trkpt lat="42.24657" lon="2.71555">
        <ele>557.222</ele>
        <time>2011-04-02T17:57:23Z</time>
      </trkpt>
      <trkpt lat="42.24651" lon="2.71552">
        <ele>554.307</ele>
        <time>2011-04-02T17:57:29Z</time>
      </trkpt>
      <trkpt lat="42.24648" lon="2.71549">
        <ele>553.48</ele>
        <time>2011-04-02T17:57:32Z</time>
      </trkpt>
      <trkpt lat="42.24645" lon="2.71549">
        <ele>552.484</ele>
        <time>2011-04-02T17:57:36Z</time>
      </trkpt>
      <trkpt lat="42.24643" lon="2.71549">
        <ele>551.077</ele>
        <time>2011-04-02T17:57:39Z</time>
      </trkpt>
      <trkpt lat="42.24636" lon="2.71547">
        <ele>549.516</ele>
        <time>2011-04-02T17:57:45Z</time>
      </trkpt>
      <trkpt lat="42.2463" lon="2.71549">
        <ele>546.293</ele>
        <time>2011-04-02T17:57:53Z</time>
      </trkpt>
      <trkpt lat="42.24627" lon="2.71549">
        <ele>544.761</ele>
        <time>2011-04-02T17:57:57Z</time>
      </trkpt>
      <trkpt lat="42.2463" lon="2.71551">
        <ele>542.834</ele>
        <time>2011-04-02T17:58:01Z</time>
      </trkpt>
      <trkpt lat="42.24633" lon="2.71551">
        <ele>542.358</ele>
        <time>2011-04-02T17:58:04Z</time>
      </trkpt>
      <trkpt lat="42.24637" lon="2.71552">
        <ele>541.452</ele>
        <time>2011-04-02T17:58:08Z</time>
      </trkpt>
      <trkpt lat="42.24638" lon="2.71555">
        <ele>540.417</ele>
        <time>2011-04-02T17:58:10Z</time>
      </trkpt>
      <trkpt lat="42.24634" lon="2.71563">
        <ele>537.007</ele>
        <time>2011-04-02T17:58:20Z</time>
      </trkpt>
      <trkpt lat="42.24631" lon="2.71567">
        <ele>534.216</ele>
        <time>2011-04-02T17:58:29Z</time>
      </trkpt>
      <trkpt lat="42.24628" lon="2.71572">
        <ele>531.39</ele>
        <time>2011-04-02T17:58:36Z</time>
      </trkpt>
      <trkpt lat="42.24626" lon="2.71574">
        <ele>530.873</ele>
        <time>2011-04-02T17:58:39Z</time>
      </trkpt>
      <trkpt lat="42.24621" lon="2.71572">
        <ele>529.382</ele>
        <time>2011-04-02T17:58:43Z</time>
      </trkpt>
      <trkpt lat="42.24619" lon="2.71579">
        <ele>525.589</ele>
        <time>2011-04-02T17:58:51Z</time>
      </trkpt>
      <trkpt lat="42.24619" lon="2.71581">
        <ele>526.047</ele>
        <time>2011-04-02T17:58:53Z</time>
      </trkpt>
      <trkpt lat="42.24617" lon="2.71581">
        <ele>524.55</ele>
        <time>2011-04-02T17:58:55Z</time>
      </trkpt>
      <trkpt lat="42.24614" lon="2.7158">
        <ele>524.587</ele>
        <time>2011-04-02T17:58:57Z</time>
      </trkpt>
      <trkpt lat="42.2461" lon="2.7158">
        <ele>523.142</ele>
        <time>2011-04-02T17:58:59Z</time>
      </trkpt>
      <trkpt lat="42.24605" lon="2.7158">
        <ele>522.126</ele>
        <time>2011-04-02T17:59:04Z</time>
      </trkpt>
      <trkpt lat="42.24595" lon="2.71583">
        <ele>518.807</ele>
        <time>2011-04-02T17:59:12Z</time>
      </trkpt>
      <trkpt lat="42.24584" lon="2.71578">
        <ele>516.459</ele>
        <time>2011-04-02T17:59:17Z</time>
      </trkpt>
      <trkpt lat="42.24573" lon="2.7157">
        <ele>514.433</ele>
        <time>2011-04-02T17:59:23Z</time>
      </trkpt>
      <trkpt lat="42.24565" lon="2.71552">
        <ele>512.046</ele>
        <time>2011-04-02T17:59:30Z</time>
      </trkpt>
      <trkpt lat="42.24562" lon="2.71547">
        <ele>510.695</ele>
        <time>2011-04-02T17:59:33Z</time>
      </trkpt>
      <trkpt lat="42.24557" lon="2.71543">
        <ele>508.782</ele>
        <time>2011-04-02T17:59:38Z</time>
      </trkpt>
      <trkpt lat="42.24561" lon="2.7155">
        <ele>507.76</ele>
        <time>2011-04-02T17:59:45Z</time>
      </trkpt>
      <trkpt lat="42.24554" lon="2.71542">
        <ele>503.983</ele>
        <time>2011-04-02T17:59:54Z</time>
      </trkpt>
      <trkpt lat="42.24553" lon="2.71541">
        <ele>504.444</ele>
        <time>2011-04-02T17:59:56Z</time>
      </trkpt>
      <trkpt lat="42.24553" lon="2.71547">
        <ele>504.405</ele>
        <time>2011-04-02T18:00:00Z</time>
      </trkpt>
      <trkpt lat="42.24553" lon="2.71555">
        <ele>501.515</ele>
        <time>2011-04-02T18:00:05Z</time>
      </trkpt>
      <trkpt lat="42.24551" lon="2.7156">
        <ele>499.107</ele>
        <time>2011-04-02T18:00:09Z</time>
      </trkpt>
      <trkpt lat="42.24548" lon="2.71562">
        <ele>498.185</ele>
        <time>2011-04-02T18:00:13Z</time>
      </trkpt>
      <trkpt lat="42.24545" lon="2.71554">
        <ele>497.649</ele>
        <time>2011-04-02T18:00:17Z</time>
      </trkpt>
      <trkpt lat="42.24543" lon="2.7155">
        <ele>497.692</ele>
        <time>2011-04-02T18:00:19Z</time>
      </trkpt>
      <trkpt lat="42.24538" lon="2.71535">
        <ele>493.831</ele>
        <time>2011-04-02T18:00:30Z</time>
      </trkpt>
      <trkpt lat="42.24538" lon="2.71534">
        <ele>493.818</ele>
        <time>2011-04-02T18:00:31Z</time>
      </trkpt>
      <trkpt lat="42.24537" lon="2.71537">
        <ele>492.316</ele>
        <time>2011-04-02T18:00:37Z</time>
      </trkpt>
      <trkpt lat="42.24535" lon="2.71542">
        <ele>489.959</ele>
        <time>2011-04-02T18:00:43Z</time>
      </trkpt>
      <trkpt lat="42.24534" lon="2.71547">
        <ele>488.579</ele>
        <time>2011-04-02T18:00:47Z</time>
      </trkpt>
      <trkpt lat="42.24534" lon="2.71551">
        <ele>488.005</ele>
        <time>2011-04-02T18:00:50Z</time>
      </trkpt>
      <trkpt lat="42.24535" lon="2.71567">
        <ele>484.625</ele>
        <time>2011-04-02T18:00:58Z</time>
      </trkpt>
      <trkpt lat="42.24528" lon="2.71568">
        <ele>483.707</ele>
        <time>2011-04-02T18:01:05Z</time>
      </trkpt>
      <trkpt lat="42.24523" lon="2.71567">
        <ele>481.388</ele>
        <time>2011-04-02T18:01:09Z</time>
      </trkpt>
      <trkpt lat="42.24511" lon="2.7156">
        <ele>477.492</ele>
        <time>2011-04-02T18:01:19Z</time>
      </trkpt>
      <trkpt lat="42.24508" lon="2.71559">
        <ele>478.435</ele>
        <time>2011-04-02T18:01:21Z</time>
      </trkpt>
      <trkpt lat="42.24499" lon="2.71547">
        <ele>476.584</ele>
        <time>2011-04-02T18:01:31Z</time>
      </trkpt>
      <trkpt lat="42.24497" lon="2.71545">
        <ele>473.621</ele>
        <time>2011-04-02T18:01:50Z</time>
      </trkpt>
      <trkpt lat="42.24498" lon="2.71548">
        <ele>473.149</ele>
        <time>2011-04-02T18:01:53Z</time>
      </trkpt>
      <trkpt lat="42.245" lon="2.71552">
        <ele>472.152</ele>
        <time>2011-04-02T18:02:00Z</time>
      </trkpt>
      <trkpt lat="42.24505" lon="2.71559">
        <ele>468.892</ele>
        <time>2011-04-02T18:02:13Z</time>
      </trkpt>
      <trkpt lat="42.24504" lon="2.71569">
        <ele>466.973</ele>
        <time>2011-04-02T18:02:24Z</time>
      </trkpt>
      <trkpt lat="42.24507" lon="2.71578">
        <ele>464.92</ele>
        <time>2011-04-02T18:02:32Z</time>
      </trkpt>
      <trkpt lat="42.24515" lon="2.71589">
        <ele>464.507</ele>
        <time>2011-04-02T18:02:43Z</time>
      </trkpt>
      <trkpt lat="42.24521" lon="2.71593">
        <ele>462.53</ele>
        <time>2011-04-02T18:02:48Z</time>
      </trkpt>
      <trkpt lat="42.24523" lon="2.71596">
        <ele>462.584</ele>
        <time>2011-04-02T18:02:50Z</time>
      </trkpt>
      <trkpt lat="42.24525" lon="2.716">
        <ele>462.147</ele>
        <time>2011-04-02T18:02:52Z</time>
      </trkpt>
      <trkpt lat="42.24524" lon="2.71606">
        <ele>460.666</ele>
        <time>2011-04-02T18:02:57Z</time>
      </trkpt>
      <trkpt lat="42.24514" lon="2.71607">
        <ele>457.243</ele>
        <time>2011-04-02T18:03:08Z</time>
      </trkpt>
      <trkpt lat="42.24501" lon="2.71602">
        <ele>457.721</ele>
        <time>2011-04-02T18:03:21Z</time>
      </trkpt>
      <trkpt lat="42.24501" lon="2.71601">
        <ele>458.274</ele>
        <time>2011-04-02T18:03:22Z</time>
      </trkpt>
      <trkpt lat="42.24499" lon="2.716">
        <ele>457.756</ele>
        <time>2011-04-02T18:03:24Z</time>
      </trkpt>
      <trkpt lat="42.24492" lon="2.71598">
        <ele>454.859</ele>
        <time>2011-04-02T18:03:30Z</time>
      </trkpt>
      <trkpt lat="42.24482" lon="2.71591">
        <ele>451.514</ele>
        <time>2011-04-02T18:03:41Z</time>
      </trkpt>
      <trkpt lat="42.2448" lon="2.71582">
        <ele>450.507</ele>
        <time>2011-04-02T18:03:56Z</time>
      </trkpt>
      <trkpt lat="42.24481" lon="2.71581">
        <ele>447.236</ele>
        <time>2011-04-02T18:04:00Z</time>
      </trkpt>
      <trkpt lat="42.24481" lon="2.71581">
        <ele>451.56</ele>
        <time>2011-04-02T18:04:01Z</time>
      </trkpt>
      <trkpt lat="42.24481" lon="2.71581">
        <ele>451.063</ele>
        <time>2011-04-02T18:04:02Z</time>
      </trkpt>
      <trkpt lat="42.24473" lon="2.71569">
        <ele>450.532</ele>
        <time>2011-04-02T18:04:18Z</time>
      </trkpt>
      <trkpt lat="42.24472" lon="2.71566">
        <ele>451.059</ele>
        <time>2011-04-02T18:04:20Z</time>
      </trkpt>
      <trkpt lat="42.24469" lon="2.7156">
        <ele>450.577</ele>
        <time>2011-04-02T18:04:24Z</time>
      </trkpt>
      <trkpt lat="42.2446" lon="2.71545">
        <ele>449.14</ele>
        <time>2011-04-02T18:04:34Z</time>
      </trkpt>
      <trkpt lat="42.24455" lon="2.71538">
        <ele>449.171</ele>
        <time>2011-04-02T18:04:39Z</time>
      </trkpt>
      <trkpt lat="42.24452" lon="2.71533">
        <ele>449.141</ele>
        <time>2011-04-02T18:04:43Z</time>
      </trkpt>
      <trkpt lat="42.24446" lon="2.71523">
        <ele>449.115</ele>
        <time>2011-04-02T18:04:49Z</time>
      </trkpt>
      <trkpt lat="42.24437" lon="2.71517">
        <ele>449.107</ele>
        <time>2011-04-02T18:04:57Z</time>
      </trkpt>
      <trkpt lat="42.24429" lon="2.71518">
        <ele>448.658</ele>
        <time>2011-04-02T18:05:03Z</time>
      </trkpt>
      <trkpt lat="42.24414" lon="2.71513">
        <ele>446.282</ele>
        <time>2011-04-02T18:05:12Z</time>
      </trkpt>
      <trkpt lat="42.24407" lon="2.71512">
        <ele>445.735</ele>
        <time>2011-04-02T18:05:17Z</time>
      </trkpt>
      <trkpt lat="42.24396" lon="2.71511">
        <ele>444.844</ele>
        <time>2011-04-02T18:05:32Z</time>
      </trkpt>
      <trkpt lat="42.24383" lon="2.71516">
        <ele>444.891</ele>
        <time>2011-04-02T18:05:45Z</time>
      </trkpt>
      <trkpt lat="42.24382" lon="2.71518">
        <ele>444.349</ele>
        <time>2011-04-02T18:05:46Z</time>
      </trkpt>
      <trkpt lat="42.24371" lon="2.71526">
        <ele>443.812</ele>
        <time>2011-04-02T18:05:54Z</time>
      </trkpt>
      <trkpt lat="42.24361" lon="2.71531">
        <ele>444.393</ele>
        <time>2011-04-02T18:06:01Z</time>
      </trkpt>
      <trkpt lat="42.24343" lon="2.71533">
        <ele>440.465</ele>
        <time>2011-04-02T18:06:12Z</time>
      </trkpt>
      <trkpt lat="42.24342" lon="2.71533">
        <ele>439.921</ele>
        <time>2011-04-02T18:06:13Z</time>
      </trkpt>
      <trkpt lat="42.24337" lon="2.71531">
        <ele>438.007</ele>
        <time>2011-04-02T18:06:16Z</time>
      </trkpt>
      <trkpt lat="42.24331" lon="2.71526">
        <ele>436.61</ele>
        <time>2011-04-02T18:06:20Z</time>
      </trkpt>
      <trkpt lat="42.24327" lon="2.71527">
        <ele>434.714</ele>
        <time>2011-04-02T18:06:24Z</time>
      </trkpt>
      <trkpt lat="42.2432" lon="2.71528">
        <ele>433.757</ele>
        <time>2011-04-02T18:06:27Z</time>
      </trkpt>
      <trkpt lat="42.24306" lon="2.71532">
        <ele>430.896</ele>
        <time>2011-04-02T18:06:34Z</time>
      </trkpt>
      <trkpt lat="42.24299" lon="2.71537">
        <ele>429.983</ele>
        <time>2011-04-02T18:06:40Z</time>
      </trkpt>
      <trkpt lat="42.24296" lon="2.7154">
        <ele>428.951</ele>
        <time>2011-04-02T18:06:44Z</time>
      </trkpt>
      <trkpt lat="42.24293" lon="2.71541">
        <ele>428.454</ele>
        <time>2011-04-02T18:06:46Z</time>
      </trkpt>
      <trkpt lat="42.2429" lon="2.71542">
        <ele>427.063</ele>
        <time>2011-04-02T18:06:49Z</time>
      </trkpt>
      <trkpt lat="42.24285" lon="2.71541">
        <ele>425.544</ele>
        <time>2011-04-02T18:06:53Z</time>
      </trkpt>
      <trkpt lat="42.24282" lon="2.7154">
        <ele>425.018</ele>
        <time>2011-04-02T18:06:55Z</time>
      </trkpt>
      <trkpt lat="42.24279" lon="2.7154">
        <ele>424.607</ele>
        <time>2011-04-02T18:06:57Z</time>
      </trkpt>
      <trkpt lat="42.24268" lon="2.71537">
        <ele>422.677</ele>
        <time>2011-04-02T18:07:01Z</time>
      </trkpt>
      <trkpt lat="42.2426" lon="2.71539">
        <ele>422.251</ele>
        <time>2011-04-02T18:07:07Z</time>
      </trkpt>
      <trkpt lat="42.24256" lon="2.71539">
        <ele>421.274</ele>
        <time>2011-04-02T18:07:10Z</time>
      </trkpt>
      <trkpt lat="42.24252" lon="2.7154">
        <ele>419.393</ele>
        <time>2011-04-02T18:07:13Z</time>
      </trkpt>
      <trkpt lat="42.2425" lon="2.71541">
        <ele>418.89</ele>
        <time>2011-04-02T18:07:15Z</time>
      </trkpt>
      <trkpt lat="42.24241" lon="2.71544">
        <ele>417.858</ele>
        <time>2011-04-02T18:07:22Z</time>
      </trkpt>
      <trkpt lat="42.24232" lon="2.71547">
        <ele>417.891</ele>
        <time>2011-04-02T18:07:29Z</time>
      </trkpt>
      <trkpt lat="42.24223" lon="2.71545">
        <ele>415.991</ele>
        <time>2011-04-02T18:07:33Z</time>
      </trkpt>
      <trkpt lat="42.24214" lon="2.71541">
        <ele>414.581</ele>
        <time>2011-04-02T18:07:36Z</time>
      </trkpt>
      <trkpt lat="42.24195" lon="2.71532">
        <ele>411.119</ele>
        <time>2011-04-02T18:07:45Z</time>
      </trkpt>
      <trkpt lat="42.24175" lon="2.71529">
        <ele>408.207</ele>
        <time>2011-04-02T18:07:54Z</time>
      </trkpt>
      <trkpt lat="42.24154" lon="2.71496">
        <ele>405.33</ele>
        <time>2011-04-02T18:08:07Z</time>
      </trkpt>
      <trkpt lat="42.24139" lon="2.71462">
        <ele>402.914</ele>
        <time>2011-04-02T18:08:18Z</time>
      </trkpt>
      <trkpt lat="42.24124" lon="2.71456">
        <ele>400.197</ele>
        <time>2011-04-02T18:08:24Z</time>
      </trkpt>
      <trkpt lat="42.24122" lon="2.71458">
        <ele>399.656</ele>
        <time>2011-04-02T18:08:25Z</time>
      </trkpt>
      <trkpt lat="42.24097" lon="2.71492">
        <ele>396.273</ele>
        <time>2011-04-02T18:08:38Z</time>
      </trkpt>
      <trkpt lat="42.24095" lon="2.71494">
        <ele>396.271</ele>
        <time>2011-04-02T18:08:39Z</time>
      </trkpt>
      <trkpt lat="42.24074" lon="2.71502">
        <ele>393.384</ele>
        <time>2011-04-02T18:08:46Z</time>
      </trkpt>
      <trkpt lat="42.24047" lon="2.71496">
        <ele>390.099</ele>
        <time>2011-04-02T18:08:55Z</time>
      </trkpt>
      <trkpt lat="42.24032" lon="2.71504">
        <ele>387.107</ele>
        <time>2011-04-02T18:09:02Z</time>
      </trkpt>
      <trkpt lat="42.24012" lon="2.71513">
        <ele>383.727</ele>
        <time>2011-04-02T18:09:11Z</time>
      </trkpt>
      <trkpt lat="42.2398" lon="2.71499">
        <ele>380.807</ele>
        <time>2011-04-02T18:09:20Z</time>
      </trkpt>
      <trkpt lat="42.23988" lon="2.71452">
        <ele>378.45</ele>
        <time>2011-04-02T18:09:32Z</time>
      </trkpt>
      <trkpt lat="42.23989" lon="2.7145">
        <ele>378.484</ele>
        <time>2011-04-02T18:09:33Z</time>
      </trkpt>
      <trkpt lat="42.24015" lon="2.71416">
        <ele>377.027</ele>
        <time>2011-04-02T18:09:46Z</time>
      </trkpt>
      <trkpt lat="42.24008" lon="2.71384">
        <ele>377.516</ele>
        <time>2011-04-02T18:09:57Z</time>
      </trkpt>
      <trkpt lat="42.24" lon="2.71356">
        <ele>377.973</ele>
        <time>2011-04-02T18:10:12Z</time>
      </trkpt>
      <trkpt lat="42.23988" lon="2.71327">
        <ele>380.361</ele>
        <time>2011-04-02T18:10:29Z</time>
      </trkpt>
      <trkpt lat="42.23982" lon="2.71321">
        <ele>380.324</ele>
        <time>2011-04-02T18:10:34Z</time>
      </trkpt>
      <trkpt lat="42.23977" lon="2.71317">
        <ele>380.812</ele>
        <time>2011-04-02T18:10:38Z</time>
      </trkpt>
      <trkpt lat="42.2395" lon="2.71304">
        <ele>378.932</ele>
        <time>2011-04-02T18:10:50Z</time>
      </trkpt>
      <trkpt lat="42.23938" lon="2.71294">
        <ele>376.505</ele>
        <time>2011-04-02T18:10:55Z</time>
      </trkpt>
      <trkpt lat="42.23912" lon="2.71279">
        <ele>373.107</ele>
        <time>2011-04-02T18:11:06Z</time>
      </trkpt>
      <trkpt lat="42.23887" lon="2.71274">
        <ele>369.882</ele>
        <time>2011-04-02T18:11:16Z</time>
      </trkpt>
      <trkpt lat="42.2388" lon="2.71266">
        <ele>368.876</ele>
        <time>2011-04-02T18:11:20Z</time>
      </trkpt>
      <trkpt lat="42.23876" lon="2.71244">
        <ele>367.489</ele>
        <time>2011-04-02T18:11:30Z</time>
      </trkpt>
      <trkpt lat="42.23876" lon="2.71241">
        <ele>365.978</ele>
        <time>2011-04-02T18:11:32Z</time>
      </trkpt>
      <trkpt lat="42.23875" lon="2.71234">
        <ele>364.045</ele>
        <time>2011-04-02T18:11:36Z</time>
      </trkpt>
      <trkpt lat="42.23872" lon="2.71231">
        <ele>363.093</ele>
        <time>2011-04-02T18:11:38Z</time>
      </trkpt>
      <trkpt lat="42.23871" lon="2.7123">
        <ele>363.026</ele>
        <time>2011-04-02T18:11:39Z</time>
      </trkpt>
      <trkpt lat="42.2387" lon="2.71227">
        <ele>361.636</ele>
        <time>2011-04-02T18:11:41Z</time>
      </trkpt>
      <trkpt lat="42.23876" lon="2.71224">
        <ele>358.717</ele>
        <time>2011-04-02T18:11:46Z</time>
      </trkpt>
      <trkpt lat="42.2388" lon="2.71218">
        <ele>357.318</ele>
        <time>2011-04-02T18:11:50Z</time>
      </trkpt>
      <trkpt lat="42.23881" lon="2.71216">
        <ele>356.807</ele>
        <time>2011-04-02T18:11:51Z</time>
      </trkpt>
      <trkpt lat="42.23888" lon="2.71206">
        <ele>355.334</ele>
        <time>2011-04-02T18:11:56Z</time>
      </trkpt>
      <trkpt lat="42.23891" lon="2.71203">
        <ele>354.968</ele>
        <time>2011-04-02T18:11:58Z</time>
      </trkpt>
      <trkpt lat="42.23897" lon="2.71195">
        <ele>358.741</ele>
        <time>2011-04-02T18:12:10Z</time>
      </trkpt>
      <trkpt lat="42.23886" lon="2.71191">
        <ele>358.74</ele>
        <time>2011-04-02T18:12:22Z</time>
      </trkpt>
      <trkpt lat="42.23874" lon="2.71178">
        <ele>359.287</ele>
        <time>2011-04-02T18:12:32Z</time>
      </trkpt>
      <trkpt lat="42.23867" lon="2.71173">
        <ele>358.255</ele>
        <time>2011-04-02T18:12:37Z</time>
      </trkpt>
      <trkpt lat="42.23851" lon="2.71145">
        <ele>358.768</ele>
        <time>2011-04-02T18:12:50Z</time>
      </trkpt>
      <trkpt lat="42.23832" lon="2.71124">
        <ele>357.342</ele>
        <time>2011-04-02T18:13:06Z</time>
      </trkpt>
      <trkpt lat="42.2381" lon="2.71099">
        <ele>355.822</ele>
        <time>2011-04-02T18:13:24Z</time>
      </trkpt>
      <trkpt lat="42.23793" lon="2.71074">
        <ele>354.414</ele>
        <time>2011-04-02T18:13:39Z</time>
      </trkpt>
      <trkpt lat="42.23782" lon="2.7106">
        <ele>352.907</ele>
        <time>2011-04-02T18:13:48Z</time>
      </trkpt>
      <trkpt lat="42.23766" lon="2.71041">
        <ele>352.985</ele>
        <time>2011-04-02T18:14:01Z</time>
      </trkpt>
      <trkpt lat="42.23751" lon="2.71023">
        <ele>353.499</ele>
        <time>2011-04-02T18:14:14Z</time>
      </trkpt>
      <trkpt lat="42.2373" lon="2.71007">
        <ele>352.512</ele>
        <time>2011-04-02T18:14:30Z</time>
      </trkpt>
      <trkpt lat="42.23715" lon="2.70983">
        <ele>353.411</ele>
        <time>2011-04-02T18:14:45Z</time>
      </trkpt>
      <trkpt lat="42.23711" lon="2.70953">
        <ele>353.448</ele>
        <time>2011-04-02T18:15:01Z</time>
      </trkpt>
      <trkpt lat="42.23699" lon="2.70931">
        <ele>353.416</ele>
        <time>2011-04-02T18:15:14Z</time>
      </trkpt>
      <trkpt lat="42.23701" lon="2.70915">
        <ele>352.559</ele>
        <time>2011-04-02T18:15:27Z</time>
      </trkpt>
      <trkpt lat="42.23699" lon="2.70909">
        <ele>352.045</ele>
        <time>2011-04-02T18:15:39Z</time>
      </trkpt>
      <trkpt lat="42.23699" lon="2.7091">
        <ele>352.547</ele>
        <time>2011-04-02T18:16:39Z</time>
      </trkpt>
      <trkpt lat="42.23699" lon="2.70911">
        <ele>351.511</ele>
        <time>2011-04-02T18:17:36Z</time>
      </trkpt>
      <trkpt lat="42.237" lon="2.70912">
        <ele>351.507</ele>
        <time>2011-04-02T18:18:04Z</time>
      </trkpt>
      <trkpt lat="42.237" lon="2.70913">
        <ele>352.585</ele>
        <time>2011-04-02T18:18:24Z</time>
      </trkpt>
      <trkpt lat="42.23706" lon="2.70909">
        <ele>352.049</ele>
        <time>2011-04-02T18:18:34Z</time>
      </trkpt>
      <trkpt lat="42.237" lon="2.70912">
        <ele>351.532</ele>
        <time>2011-04-02T18:18:51Z</time>
      </trkpt>
      <trkpt lat="42.237" lon="2.7091">
        <ele>351.031</ele>
        <time>2011-04-02T18:19:36Z</time>
      </trkpt>
      <trkpt lat="42.237" lon="2.70907">
        <ele>351.088</ele>
        <time>2011-04-02T18:19:41Z</time>
      </trkpt>
      <trkpt lat="42.23697" lon="2.70891">
        <ele>349.676</ele>
        <time>2011-04-02T18:19:55Z</time>
      </trkpt>
      <trkpt lat="42.23696" lon="2.70888">
        <ele>349.129</ele>
        <time>2011-04-02T18:19:57Z</time>
      </trkpt>
      <trkpt lat="42.23688" lon="2.7088">
        <ele>346.217</ele>
        <time>2011-04-02T18:20:08Z</time>
      </trkpt>
      <trkpt lat="42.23684" lon="2.70882">
        <ele>346.287</ele>
        <time>2011-04-02T18:20:32Z</time>
      </trkpt>
      <trkpt lat="42.23684" lon="2.70875">
        <ele>345.315</ele>
        <time>2011-04-02T18:20:36Z</time>
      </trkpt>
      <trkpt lat="42.23684" lon="2.70851">
        <ele>342.407</ele>
        <time>2011-04-02T18:20:51Z</time>
      </trkpt>
      <trkpt lat="42.23683" lon="2.70824">
        <ele>339.022</ele>
        <time>2011-04-02T18:21:02Z</time>
      </trkpt>
      <trkpt lat="42.23683" lon="2.7082">
        <ele>338.096</ele>
        <time>2011-04-02T18:21:04Z</time>
      </trkpt>
      <trkpt lat="42.23677" lon="2.70811">
        <ele>335.259</ele>
        <time>2011-04-02T18:21:11Z</time>
      </trkpt>
      <trkpt lat="42.23671" lon="2.70805">
        <ele>332.818</ele>
        <time>2011-04-02T18:21:15Z</time>
      </trkpt>
      <trkpt lat="42.2367" lon="2.70804">
        <ele>332.375</ele>
        <time>2011-04-02T18:21:16Z</time>
      </trkpt>
      <trkpt lat="42.23663" lon="2.70799">
        <ele>329.933</ele>
        <time>2011-04-02T18:21:21Z</time>
      </trkpt>
      <trkpt lat="42.23657" lon="2.70793">
        <ele>327.596</ele>
        <time>2011-04-02T18:21:27Z</time>
      </trkpt>
      <trkpt lat="42.23647" lon="2.70782">
        <ele>324.118</ele>
        <time>2011-04-02T18:21:32Z</time>
      </trkpt>
      <trkpt lat="42.2362" lon="2.70767">
        <ele>321.298</ele>
        <time>2011-04-02T18:21:43Z</time>
      </trkpt>
      <trkpt lat="42.23604" lon="2.70757">
        <ele>319.817</ele>
        <time>2011-04-02T18:21:51Z</time>
      </trkpt>
      <trkpt lat="42.2357" lon="2.7074">
        <ele>316.407</ele>
        <time>2011-04-02T18:22:07Z</time>
      </trkpt>
      <trkpt lat="42.23547" lon="2.70712">
        <ele>314.012</ele>
        <time>2011-04-02T18:22:19Z</time>
      </trkpt>
      <trkpt lat="42.23533" lon="2.70682">
        <ele>311.696</ele>
        <time>2011-04-02T18:22:29Z</time>
      </trkpt>
      <trkpt lat="42.23506" lon="2.70648">
        <ele>309.229</ele>
        <time>2011-04-02T18:22:43Z</time>
      </trkpt>
      <trkpt lat="42.23485" lon="2.70623">
        <ele>307.898</ele>
        <time>2011-04-02T18:22:54Z</time>
      </trkpt>
      <trkpt lat="42.23458" lon="2.70594">
        <ele>307.345</ele>
        <time>2011-04-02T18:23:09Z</time>
      </trkpt>
      <trkpt lat="42.23434" lon="2.70575">
        <ele>304.913</ele>
        <time>2011-04-02T18:23:21Z</time>
      </trkpt>
      <trkpt lat="42.23408" lon="2.70582">
        <ele>303.046</ele>
        <time>2011-04-02T18:23:34Z</time>
      </trkpt>
      <trkpt lat="42.23379" lon="2.7059">
        <ele>301.089</ele>
        <time>2011-04-02T18:23:46Z</time>
      </trkpt>
      <trkpt lat="42.23346" lon="2.70593">
        <ele>301.006</ele>
        <time>2011-04-02T18:23:58Z</time>
      </trkpt>
      <trkpt lat="42.23311" lon="2.70596">
        <ele>299.126</ele>
        <time>2011-04-02T18:24:12Z</time>
      </trkpt>
      <trkpt lat="42.23308" lon="2.70597">
        <ele>299.107</ele>
        <time>2011-04-02T18:24:13Z</time>
      </trkpt>
      <trkpt lat="42.23278" lon="2.70593">
        <ele>297.299</ele>
        <time>2011-04-02T18:24:25Z</time>
      </trkpt>
      <trkpt lat="42.23245" lon="2.70583">
        <ele>295.323</ele>
        <time>2011-04-02T18:24:37Z</time>
      </trkpt>
      <trkpt lat="42.23218" lon="2.70588">
        <ele>291.926</ele>
        <time>2011-04-02T18:24:49Z</time>
      </trkpt>
      <trkpt lat="42.23194" lon="2.70597">
        <ele>289.565</ele>
        <time>2011-04-02T18:24:59Z</time>
      </trkpt>
      <trkpt lat="42.23169" lon="2.70603">
        <ele>289.512</ele>
        <time>2011-04-02T18:25:08Z</time>
      </trkpt>
      <trkpt lat="42.23141" lon="2.70607">
        <ele>289.56</ele>
        <time>2011-04-02T18:25:19Z</time>
      </trkpt>
      <trkpt lat="42.23112" lon="2.70606">
        <ele>289.083</ele>
        <time>2011-04-02T18:25:30Z</time>
      </trkpt>
      <trkpt lat="42.23084" lon="2.70599">
        <ele>287.617</ele>
        <time>2011-04-02T18:25:40Z</time>
      </trkpt>
      <trkpt lat="42.23059" lon="2.70591">
        <ele>288.587</ele>
        <time>2011-04-02T18:25:51Z</time>
      </trkpt>
      <trkpt lat="42.23054" lon="2.7059">
        <ele>287.115</ele>
        <time>2011-04-02T18:25:56Z</time>
      </trkpt>
      <trkpt lat="42.23049" lon="2.7059">
        <ele>289.007</ele>
        <time>2011-04-02T18:26:00Z</time>
      </trkpt>
      <trkpt lat="42.23033" lon="2.70592">
        <ele>290.042</ele>
        <time>2011-04-02T18:26:11Z</time>
      </trkpt>
      <trkpt lat="42.23026" lon="2.7059">
        <ele>289.546</ele>
        <time>2011-04-02T18:26:15Z</time>
      </trkpt>
      <trkpt lat="42.23006" lon="2.70586">
        <ele>290.049</ele>
        <time>2011-04-02T18:26:28Z</time>
      </trkpt>
      <trkpt lat="42.23005" lon="2.70585">
        <ele>289.538</ele>
        <time>2011-04-02T18:26:30Z</time>
      </trkpt>
      <trkpt lat="42.22992" lon="2.70581">
        <ele>289.045</ele>
        <time>2011-04-02T18:26:41Z</time>
      </trkpt>
      <trkpt lat="42.22987" lon="2.70573">
        <ele>290.093</ele>
        <time>2011-04-02T18:26:48Z</time>
      </trkpt>
      <trkpt lat="42.22977" lon="2.70573">
        <ele>290.986</ele>
        <time>2011-04-02T18:26:56Z</time>
      </trkpt>
      <trkpt lat="42.22972" lon="2.70573">
        <ele>290.924</ele>
        <time>2011-04-02T18:27:00Z</time>
      </trkpt>
      <trkpt lat="42.22954" lon="2.70573">
        <ele>292.404</ele>
        <time>2011-04-02T18:27:13Z</time>
      </trkpt>
      <trkpt lat="42.22951" lon="2.70572">
        <ele>292.414</ele>
        <time>2011-04-02T18:27:15Z</time>
      </trkpt>
      <trkpt lat="42.22947" lon="2.70571">
        <ele>293.307</ele>
        <time>2011-04-02T18:27:18Z</time>
      </trkpt>
      <trkpt lat="42.22935" lon="2.70563">
        <ele>295.323</ele>
        <time>2011-04-02T18:27:28Z</time>
      </trkpt>
      <trkpt lat="42.2292" lon="2.70554">
        <ele>297.247</ele>
        <time>2011-04-02T18:27:40Z</time>
      </trkpt>
      <trkpt lat="42.22903" lon="2.70539">
        <ele>296.24</ele>
        <time>2011-04-02T18:27:54Z</time>
      </trkpt>
      <trkpt lat="42.229" lon="2.70534">
        <ele>296.779</ele>
        <time>2011-04-02T18:27:56Z</time>
      </trkpt>
      <trkpt lat="42.22883" lon="2.70522">
        <ele>296.216</ele>
        <time>2011-04-02T18:28:04Z</time>
      </trkpt>
      <trkpt lat="42.22874" lon="2.70512">
        <ele>296.724</ele>
        <time>2011-04-02T18:28:11Z</time>
      </trkpt>
      <trkpt lat="42.22857" lon="2.705">
        <ele>296.787</ele>
        <time>2011-04-02T18:28:24Z</time>
      </trkpt>
      <trkpt lat="42.22843" lon="2.70483">
        <ele>298.681</ele>
        <time>2011-04-02T18:28:38Z</time>
      </trkpt>
      <trkpt lat="42.22842" lon="2.70482">
        <ele>298.261</ele>
        <time>2011-04-02T18:28:39Z</time>
      </trkpt>
      <trkpt lat="42.22831" lon="2.70471">
        <ele>299.117</ele>
        <time>2011-04-02T18:28:48Z</time>
      </trkpt>
      <trkpt lat="42.22825" lon="2.70448">
        <ele>301.007</ele>
        <time>2011-04-02T18:29:01Z</time>
      </trkpt>
      <trkpt lat="42.22813" lon="2.70432">
        <ele>304.429</ele>
        <time>2011-04-02T18:29:15Z</time>
      </trkpt>
      <trkpt lat="42.22808" lon="2.70419">
        <ele>304.943</ele>
        <time>2011-04-02T18:29:25Z</time>
      </trkpt>
      <trkpt lat="42.22807" lon="2.70413">
        <ele>305.836</ele>
        <time>2011-04-02T18:29:28Z</time>
      </trkpt>
      <trkpt lat="42.22803" lon="2.70403">
        <ele>305.445</ele>
        <time>2011-04-02T18:29:33Z</time>
      </trkpt>
      <trkpt lat="42.22789" lon="2.70369">
        <ele>304.952</ele>
        <time>2011-04-02T18:29:45Z</time>
      </trkpt>
      <trkpt lat="42.22786" lon="2.70363">
        <ele>304.46</ele>
        <time>2011-04-02T18:29:47Z</time>
      </trkpt>
      <trkpt lat="42.22784" lon="2.70347">
        <ele>304.463</ele>
        <time>2011-04-02T18:29:51Z</time>
      </trkpt>
      <trkpt lat="42.22779" lon="2.70313">
        <ele>304.438</ele>
        <time>2011-04-02T18:30:01Z</time>
      </trkpt>
      <trkpt lat="42.22765" lon="2.70309">
        <ele>305.87</ele>
        <time>2011-04-02T18:30:13Z</time>
      </trkpt>
      <trkpt lat="42.22762" lon="2.70307">
        <ele>306.817</ele>
        <time>2011-04-02T18:30:17Z</time>
      </trkpt>
      <trkpt lat="42.22758" lon="2.70304">
        <ele>307.807</ele>
        <time>2011-04-02T18:30:21Z</time>
      </trkpt>
      <trkpt lat="42.22734" lon="2.70302">
        <ele>310.214</ele>
        <time>2011-04-02T18:30:39Z</time>
      </trkpt>
      <trkpt lat="42.22721" lon="2.70293">
        <ele>311.188</ele>
        <time>2011-04-02T18:30:52Z</time>
      </trkpt>
      <trkpt lat="42.22717" lon="2.7029">
        <ele>312.151</ele>
        <time>2011-04-02T18:30:55Z</time>
      </trkpt>
      <trkpt lat="42.22709" lon="2.70287">
        <ele>312.66</ele>
        <time>2011-04-02T18:31:01Z</time>
      </trkpt>
      <trkpt lat="42.22705" lon="2.7029">
        <ele>311.637</ele>
        <time>2011-04-02T18:31:06Z</time>
      </trkpt>
      <trkpt lat="42.22692" lon="2.70287">
        <ele>314.535</ele>
        <time>2011-04-02T18:31:20Z</time>
      </trkpt>
      <trkpt lat="42.2268" lon="2.70283">
        <ele>317.978</ele>
        <time>2011-04-02T18:31:33Z</time>
      </trkpt>
      <trkpt lat="42.22664" lon="2.7028">
        <ele>321.248</ele>
        <time>2011-04-02T18:31:52Z</time>
      </trkpt>
      <trkpt lat="42.22657" lon="2.70268">
        <ele>325.161</ele>
        <time>2011-04-02T18:32:09Z</time>
      </trkpt>
      <trkpt lat="42.22647" lon="2.70257">
        <ele>328.017</ele>
        <time>2011-04-02T18:32:25Z</time>
      </trkpt>
      <trkpt lat="42.22633" lon="2.70251">
        <ele>329.407</ele>
        <time>2011-04-02T18:32:39Z</time>
      </trkpt>
      <trkpt lat="42.22617" lon="2.70236">
        <ele>333.225</ele>
        <time>2011-04-02T18:32:52Z</time>
      </trkpt>
      <trkpt lat="42.22608" lon="2.70227">
        <ele>331.899</ele>
        <time>2011-04-02T18:33:00Z</time>
      </trkpt>
      <trkpt lat="42.22602" lon="2.7022">
        <ele>331.812</ele>
        <time>2011-04-02T18:33:04Z</time>
      </trkpt>
      <trkpt lat="42.22594" lon="2.70186">
        <ele>328.041</ele>
        <time>2011-04-02T18:33:16Z</time>
      </trkpt>
      <trkpt lat="42.22585" lon="2.70167">
        <ele>326.018</ele>
        <time>2011-04-02T18:33:30Z</time>
      </trkpt>
      <trkpt lat="42.22577" lon="2.70154">
        <ele>323.166</ele>
        <time>2011-04-02T18:33:41Z</time>
      </trkpt>
      <trkpt lat="42.22575" lon="2.70151">
        <ele>322.719</ele>
        <time>2011-04-02T18:33:43Z</time>
      </trkpt>
      <trkpt lat="42.22566" lon="2.70124">
        <ele>321.729</ele>
        <time>2011-04-02T18:33:56Z</time>
      </trkpt>
      <trkpt lat="42.22561" lon="2.70101">
        <ele>320.7</ele>
        <time>2011-04-02T18:34:03Z</time>
      </trkpt>
      <trkpt lat="42.22553" lon="2.70075">
        <ele>319.82</ele>
        <time>2011-04-02T18:34:15Z</time>
      </trkpt>
      <trkpt lat="42.22551" lon="2.70071">
        <ele>318.807</ele>
        <time>2011-04-02T18:34:17Z</time>
      </trkpt>
      <trkpt lat="42.22538" lon="2.70046">
        <ele>316.963</ele>
        <time>2011-04-02T18:34:27Z</time>
      </trkpt>
      <trkpt lat="42.22534" lon="2.70042">
        <ele>317.457</ele>
        <time>2011-04-02T18:34:29Z</time>
      </trkpt>
      <trkpt lat="42.22527" lon="2.70031">
        <ele>315.97</ele>
        <time>2011-04-02T18:34:34Z</time>
      </trkpt>
      <trkpt lat="42.22518" lon="2.70019">
        <ele>315.519</ele>
        <time>2011-04-02T18:34:40Z</time>
      </trkpt>
      <trkpt lat="42.22505" lon="2.70008">
        <ele>314.526</ele>
        <time>2011-04-02T18:34:47Z</time>
      </trkpt>
      <trkpt lat="42.22481" lon="2.69988">
        <ele>312.634</ele>
        <time>2011-04-02T18:34:58Z</time>
      </trkpt>
      <trkpt lat="42.22476" lon="2.69974">
        <ele>312.177</ele>
        <time>2011-04-02T18:35:02Z</time>
      </trkpt>
      <trkpt lat="42.22475" lon="2.69948">
        <ele>310.211</ele>
        <time>2011-04-02T18:35:08Z</time>
      </trkpt>
      <trkpt lat="42.22465" lon="2.69934">
        <ele>310.221</ele>
        <time>2011-04-02T18:35:15Z</time>
      </trkpt>
      <trkpt lat="42.22452" lon="2.69925">
        <ele>309.203</ele>
        <time>2011-04-02T18:35:21Z</time>
      </trkpt>
      <trkpt lat="42.22426" lon="2.6989">
        <ele>308.207</ele>
        <time>2011-04-02T18:35:36Z</time>
      </trkpt>
      <trkpt lat="42.2242" lon="2.69869">
        <ele>306.882</ele>
        <time>2011-04-02T18:35:42Z</time>
      </trkpt>
      <trkpt lat="42.22398" lon="2.69849">
        <ele>305.826</ele>
        <time>2011-04-02T18:35:55Z</time>
      </trkpt>
      <trkpt lat="42.22394" lon="2.69847">
        <ele>305.829</ele>
        <time>2011-04-02T18:35:58Z</time>
      </trkpt>
      <trkpt lat="42.2239" lon="2.69837">
        <ele>305.878</ele>
        <time>2011-04-02T18:36:11Z</time>
      </trkpt>
      <trkpt lat="42.22386" lon="2.69837">
        <ele>305.425</ele>
        <time>2011-04-02T18:36:15Z</time>
      </trkpt>
      <trkpt lat="42.22384" lon="2.69838">
        <ele>304.983</ele>
        <time>2011-04-02T18:36:17Z</time>
      </trkpt>
      <trkpt lat="42.22372" lon="2.69839">
        <ele>305.496</ele>
        <time>2011-04-02T18:36:32Z</time>
      </trkpt>
      <trkpt lat="42.22364" lon="2.6984">
        <ele>304.493</ele>
        <time>2011-04-02T18:36:38Z</time>
      </trkpt>
      <trkpt lat="42.22359" lon="2.69834">
        <ele>302.065</ele>
        <time>2011-04-02T18:36:43Z</time>
      </trkpt>
      <trkpt lat="42.22356" lon="2.69816">
        <ele>299.121</ele>
        <time>2011-04-02T18:36:53Z</time>
      </trkpt>
      <trkpt lat="42.22356" lon="2.69805">
        <ele>297.207</ele>
        <time>2011-04-02T18:36:58Z</time>
      </trkpt>
      <trkpt lat="42.22351" lon="2.69788">
        <ele>293.34</ele>
        <time>2011-04-02T18:37:08Z</time>
      </trkpt>
      <trkpt lat="42.22351" lon="2.69785">
        <ele>293.834</ele>
        <time>2011-04-02T18:37:09Z</time>
      </trkpt>
      <trkpt lat="42.22349" lon="2.69779">
        <ele>292.977</ele>
        <time>2011-04-02T18:37:13Z</time>
      </trkpt>
      <trkpt lat="42.2234" lon="2.69761">
        <ele>289.086</ele>
        <time>2011-04-02T18:37:26Z</time>
      </trkpt>
      <trkpt lat="42.22338" lon="2.69755">
        <ele>288.163</ele>
        <time>2011-04-02T18:37:30Z</time>
      </trkpt>
      <trkpt lat="42.22326" lon="2.69748">
        <ele>285.281</ele>
        <time>2011-04-02T18:37:43Z</time>
      </trkpt>
      <trkpt lat="42.22309" lon="2.69748">
        <ele>284.244</ele>
        <time>2011-04-02T18:37:53Z</time>
      </trkpt>
      <trkpt lat="42.22306" lon="2.69744">
        <ele>282.819</ele>
        <time>2011-04-02T18:37:57Z</time>
      </trkpt>
      <trkpt lat="42.22275" lon="2.69744">
        <ele>279.409</ele>
        <time>2011-04-02T18:38:09Z</time>
      </trkpt>
      <trkpt lat="42.22256" lon="2.69772">
        <ele>280.419</ele>
        <time>2011-04-02T18:38:20Z</time>
      </trkpt>
      <trkpt lat="42.22223" lon="2.69801">
        <ele>278.407</ele>
        <time>2011-04-02T18:38:33Z</time>
      </trkpt>
      <trkpt lat="42.22206" lon="2.69801">
        <ele>277.562</ele>
        <time>2011-04-02T18:38:38Z</time>
      </trkpt>
      <trkpt lat="42.22192" lon="2.69801">
        <ele>274.616</ele>
        <time>2011-04-02T18:38:44Z</time>
      </trkpt>
      <trkpt lat="42.22187" lon="2.69791">
        <ele>273.649</ele>
        <time>2011-04-02T18:38:48Z</time>
      </trkpt>
      <trkpt lat="42.22186" lon="2.69774">
        <ele>274.168</ele>
        <time>2011-04-02T18:38:52Z</time>
      </trkpt>
      <trkpt lat="42.22163" lon="2.69771">
        <ele>269.815</ele>
        <time>2011-04-02T18:39:06Z</time>
      </trkpt>
      <trkpt lat="42.22162" lon="2.69771">
        <ele>270.323</ele>
        <time>2011-04-02T18:39:07Z</time>
      </trkpt>
      <trkpt lat="42.2216" lon="2.69768">
        <ele>270.376</ele>
        <time>2011-04-02T18:39:21Z</time>
      </trkpt>
      <trkpt lat="42.22142" lon="2.69757">
        <ele>267.453</ele>
        <time>2011-04-02T18:39:35Z</time>
      </trkpt>
      <trkpt lat="42.22141" lon="2.69756">
        <ele>266.904</ele>
        <time>2011-04-02T18:39:36Z</time>
      </trkpt>
      <trkpt lat="42.2213" lon="2.69747">
        <ele>264.514</ele>
        <time>2011-04-02T18:39:42Z</time>
      </trkpt>
      <trkpt lat="42.22106" lon="2.69717">
        <ele>261.607</ele>
        <time>2011-04-02T18:39:54Z</time>
      </trkpt>
      <trkpt lat="42.22097" lon="2.69713">
        <ele>257.836</ele>
        <time>2011-04-02T18:40:01Z</time>
      </trkpt>
      <trkpt lat="42.22088" lon="2.69707">
        <ele>257.89</ele>
        <time>2011-04-02T18:40:05Z</time>
      </trkpt>
      <trkpt lat="42.22084" lon="2.69704">
        <ele>255.463</ele>
        <time>2011-04-02T18:40:10Z</time>
      </trkpt>
      <trkpt lat="42.22072" lon="2.69703">
        <ele>253.052</ele>
        <time>2011-04-02T18:40:19Z</time>
      </trkpt>
      <trkpt lat="42.22069" lon="2.69703">
        <ele>252.569</ele>
        <time>2011-04-02T18:40:22Z</time>
      </trkpt>
      <trkpt lat="42.22068" lon="2.6971">
        <ele>248.247</ele>
        <time>2011-04-02T18:40:29Z</time>
      </trkpt>
      <trkpt lat="42.22068" lon="2.69721">
        <ele>247.28</ele>
        <time>2011-04-02T18:40:34Z</time>
      </trkpt>
      <trkpt lat="42.22055" lon="2.69733">
        <ele>245.821</ele>
        <time>2011-04-02T18:40:43Z</time>
      </trkpt>
      <trkpt lat="42.2205" lon="2.69734">
        <ele>245.341</ele>
        <time>2011-04-02T18:40:45Z</time>
      </trkpt>
      <trkpt lat="42.22043" lon="2.69733">
        <ele>243.805</ele>
        <time>2011-04-02T18:40:48Z</time>
      </trkpt>
      <trkpt lat="42.22028" lon="2.69718">
        <ele>240.507</ele>
        <time>2011-04-02T18:40:56Z</time>
      </trkpt>
      <trkpt lat="42.22023" lon="2.69711">
        <ele>240.083</ele>
        <time>2011-04-02T18:41:00Z</time>
      </trkpt>
      <trkpt lat="42.22015" lon="2.69704">
        <ele>238.587</ele>
        <time>2011-04-02T18:41:05Z</time>
      </trkpt>
      <trkpt lat="42.21987" lon="2.69686">
        <ele>236.63</ele>
        <time>2011-04-02T18:41:17Z</time>
      </trkpt>
      <trkpt lat="42.2196" lon="2.69662">
        <ele>234.219</ele>
        <time>2011-04-02T18:41:30Z</time>
      </trkpt>
      <trkpt lat="42.21947" lon="2.69622">
        <ele>232.886</ele>
        <time>2011-04-02T18:41:42Z</time>
      </trkpt>
      <trkpt lat="42.21942" lon="2.6959">
        <ele>232.364</ele>
        <time>2011-04-02T18:41:50Z</time>
      </trkpt>
      <trkpt lat="42.21936" lon="2.69581">
        <ele>230.917</ele>
        <time>2011-04-02T18:41:57Z</time>
      </trkpt>
      <trkpt lat="42.21932" lon="2.69576">
        <ele>230.486</ele>
        <time>2011-04-02T18:42:02Z</time>
      </trkpt>
      <trkpt lat="42.2193" lon="2.69561">
        <ele>230.46</ele>
        <time>2011-04-02T18:42:15Z</time>
      </trkpt>
      <trkpt lat="42.21928" lon="2.69562">
        <ele>230.926</ele>
        <time>2011-04-02T18:42:19Z</time>
      </trkpt>
      <trkpt lat="42.21921" lon="2.69559">
        <ele>231.807</ele>
        <time>2011-04-02T18:42:24Z</time>
      </trkpt>
      <trkpt lat="42.21912" lon="2.69553">
        <ele>231.379</ele>
        <time>2011-04-02T18:42:30Z</time>
      </trkpt>
      <trkpt lat="42.21907" lon="2.6955">
        <ele>231.883</ele>
        <time>2011-04-02T18:42:35Z</time>
      </trkpt>
      <trkpt lat="42.21909" lon="2.69532">
        <ele>232.866</ele>
        <time>2011-04-02T18:42:48Z</time>
      </trkpt>
      <trkpt lat="42.2191" lon="2.69531">
        <ele>233.385</ele>
        <time>2011-04-02T18:42:49Z</time>
      </trkpt>
      <trkpt lat="42.21912" lon="2.6953">
        <ele>233.762</ele>
        <time>2011-04-02T18:42:51Z</time>
      </trkpt>
      <trkpt lat="42.21931" lon="2.69525">
        <ele>233.77</ele>
        <time>2011-04-02T18:43:04Z</time>
      </trkpt>
      <trkpt lat="42.21935" lon="2.69521">
        <ele>235.263</ele>
        <time>2011-04-02T18:43:11Z</time>
      </trkpt>
      <trkpt lat="42.21932" lon="2.69523">
        <ele>236.153</ele>
        <time>2011-04-02T18:43:18Z</time>
      </trkpt>
      <trkpt lat="42.21918" lon="2.69522">
        <ele>237.104</ele>
        <time>2011-04-02T18:43:31Z</time>
      </trkpt>
      <trkpt lat="42.21901" lon="2.69514">
        <ele>239.014</ele>
        <time>2011-04-02T18:43:45Z</time>
      </trkpt>
      <trkpt lat="42.21893" lon="2.69507">
        <ele>239.507</ele>
        <time>2011-04-02T18:43:53Z</time>
      </trkpt>
      <trkpt lat="42.21883" lon="2.69503">
        <ele>239.516</ele>
        <time>2011-04-02T18:44:00Z</time>
      </trkpt>
      <trkpt lat="42.21869" lon="2.69496">
        <ele>240.59</ele>
        <time>2011-04-02T18:44:12Z</time>
      </trkpt>
      <trkpt lat="42.21848" lon="2.69491">
        <ele>241.923</ele>
        <time>2011-04-02T18:44:27Z</time>
      </trkpt>
      <trkpt lat="42.21841" lon="2.69487">
        <ele>241.052</ele>
        <time>2011-04-02T18:44:33Z</time>
      </trkpt>
      <trkpt lat="42.21827" lon="2.69459">
        <ele>242.459</ele>
        <time>2011-04-02T18:44:49Z</time>
      </trkpt>
      <trkpt lat="42.21826" lon="2.69455">
        <ele>241.927</ele>
        <time>2011-04-02T18:44:51Z</time>
      </trkpt>
      <trkpt lat="42.21822" lon="2.69447">
        <ele>240.06</ele>
        <time>2011-04-02T18:44:55Z</time>
      </trkpt>
      <trkpt lat="42.21817" lon="2.69435">
        <ele>238.595</ele>
        <time>2011-04-02T18:44:58Z</time>
      </trkpt>
      <trkpt lat="42.21795" lon="2.69402">
        <ele>235.249</ele>
        <time>2011-04-02T18:45:08Z</time>
      </trkpt>
      <trkpt lat="42.21781" lon="2.69378">
        <ele>231.823</ele>
        <time>2011-04-02T18:45:17Z</time>
      </trkpt>
      <trkpt lat="42.21773" lon="2.69359">
        <ele>228.007</ele>
        <time>2011-04-02T18:45:26Z</time>
      </trkpt>
      <trkpt lat="42.21772" lon="2.69356">
        <ele>228.03</ele>
        <time>2011-04-02T18:45:27Z</time>
      </trkpt>
      <trkpt lat="42.21753" lon="2.6934">
        <ele>227.564</ele>
        <time>2011-04-02T18:45:38Z</time>
      </trkpt>
      <trkpt lat="42.21733" lon="2.69327">
        <ele>228.067</ele>
        <time>2011-04-02T18:45:54Z</time>
      </trkpt>
      <trkpt lat="42.21712" lon="2.69303">
        <ele>228.036</ele>
        <time>2011-04-02T18:46:09Z</time>
      </trkpt>
      <trkpt lat="42.21708" lon="2.69295">
        <ele>228.953</ele>
        <time>2011-04-02T18:46:13Z</time>
      </trkpt>
      <trkpt lat="42.21703" lon="2.69287">
        <ele>228.921</ele>
        <time>2011-04-02T18:46:18Z</time>
      </trkpt>
      <trkpt lat="42.21695" lon="2.69281">
        <ele>228.574</ele>
        <time>2011-04-02T18:46:25Z</time>
      </trkpt>
      <trkpt lat="42.21687" lon="2.6928">
        <ele>228.516</ele>
        <time>2011-04-02T18:46:31Z</time>
      </trkpt>
      <trkpt lat="42.21658" lon="2.69271">
        <ele>227.576</ele>
        <time>2011-04-02T18:46:44Z</time>
      </trkpt>
      <trkpt lat="42.21625" lon="2.69254">
        <ele>228.013</ele>
        <time>2011-04-02T18:46:59Z</time>
      </trkpt>
      <trkpt lat="42.21606" lon="2.6924">
        <ele>228.007</ele>
        <time>2011-04-02T18:47:08Z</time>
      </trkpt>
      <trkpt lat="42.21585" lon="2.69225">
        <ele>227.012</ele>
        <time>2011-04-02T18:47:22Z</time>
      </trkpt>
      <trkpt lat="42.21577" lon="2.69215">
        <ele>228.026</ele>
        <time>2011-04-02T18:47:29Z</time>
      </trkpt>
      <trkpt lat="42.21573" lon="2.69209">
        <ele>228.949</ele>
        <time>2011-04-02T18:47:33Z</time>
      </trkpt>
      <trkpt lat="42.21569" lon="2.69205">
        <ele>228.968</ele>
        <time>2011-04-02T18:47:37Z</time>
      </trkpt>
      <trkpt lat="42.21565" lon="2.692">
        <ele>229.465</ele>
        <time>2011-04-02T18:47:41Z</time>
      </trkpt>
      <trkpt lat="42.21553" lon="2.69181">
        <ele>231.373</ele>
        <time>2011-04-02T18:47:56Z</time>
      </trkpt>
      <trkpt lat="42.2154" lon="2.69167">
        <ele>233.336</ele>
        <time>2011-04-02T18:48:10Z</time>
      </trkpt>
      <trkpt lat="42.21535" lon="2.69159">
        <ele>234.293</ele>
        <time>2011-04-02T18:48:17Z</time>
      </trkpt>
      <trkpt lat="42.21511" lon="2.6915">
        <ele>232.865</ele>
        <time>2011-04-02T18:48:29Z</time>
      </trkpt>
      <trkpt lat="42.21491" lon="2.69141">
        <ele>231.821</ele>
        <time>2011-04-02T18:48:40Z</time>
      </trkpt>
      <trkpt lat="42.21475" lon="2.69121">
        <ele>229.407</ele>
        <time>2011-04-02T18:48:53Z</time>
      </trkpt>
      <trkpt lat="42.21476" lon="2.691">
        <ele>228.01</ele>
        <time>2011-04-02T18:49:02Z</time>
      </trkpt>
      <trkpt lat="42.21467" lon="2.69086">
        <ele>226.524</ele>
        <time>2011-04-02T18:49:11Z</time>
      </trkpt>
      <trkpt lat="42.21459" lon="2.69089">
        <ele>225.697</ele>
        <time>2011-04-02T18:49:18Z</time>
      </trkpt>
      <trkpt lat="42.21454" lon="2.69089">
        <ele>223.656</ele>
        <time>2011-04-02T18:49:22Z</time>
      </trkpt>
      <trkpt lat="42.21445" lon="2.69091">
        <ele>222.223</ele>
        <time>2011-04-02T18:49:29Z</time>
      </trkpt>
      <trkpt lat="42.2144" lon="2.6909">
        <ele>222.791</ele>
        <time>2011-04-02T18:49:32Z</time>
      </trkpt>
      <trkpt lat="42.21414" lon="2.69086">
        <ele>220.864</ele>
        <time>2011-04-02T18:49:47Z</time>
      </trkpt>
      <trkpt lat="42.21412" lon="2.69086">
        <ele>221.271</ele>
        <time>2011-04-02T18:49:48Z</time>
      </trkpt>
      <trkpt lat="42.21396" lon="2.69073">
        <ele>219.841</ele>
        <time>2011-04-02T18:50:02Z</time>
      </trkpt>
      <trkpt lat="42.21391" lon="2.69067">
        <ele>219.315</ele>
        <time>2011-04-02T18:50:07Z</time>
      </trkpt>
      <trkpt lat="42.21385" lon="2.69058">
        <ele>218.807</ele>
        <time>2011-04-02T18:50:13Z</time>
      </trkpt>
      <trkpt lat="42.21382" lon="2.69047">
        <ele>218.888</ele>
        <time>2011-04-02T18:50:18Z</time>
      </trkpt>
      <trkpt lat="42.21364" lon="2.69025">
        <ele>216.432</ele>
        <time>2011-04-02T18:50:31Z</time>
      </trkpt>
      <trkpt lat="42.21348" lon="2.69013">
        <ele>213.165</ele>
        <time>2011-04-02T18:50:42Z</time>
      </trkpt>
      <trkpt lat="42.21341" lon="2.69001">
        <ele>212.644</ele>
        <time>2011-04-02T18:50:47Z</time>
      </trkpt>
      <trkpt lat="42.21338" lon="2.68996">
        <ele>211.651</ele>
        <time>2011-04-02T18:50:49Z</time>
      </trkpt>
      <trkpt lat="42.21332" lon="2.68986">
        <ele>210.779</ele>
        <time>2011-04-02T18:50:53Z</time>
      </trkpt>
      <trkpt lat="42.21303" lon="2.68953">
        <ele>208.392</ele>
        <time>2011-04-02T18:51:08Z</time>
      </trkpt>
      <trkpt lat="42.21274" lon="2.68935">
        <ele>208.318</ele>
        <time>2011-04-02T18:51:20Z</time>
      </trkpt>
      <trkpt lat="42.21251" lon="2.6893">
        <ele>209.298</ele>
        <time>2011-04-02T18:51:33Z</time>
      </trkpt>
      <trkpt lat="42.21244" lon="2.68929">
        <ele>209.717</ele>
        <time>2011-04-02T18:51:38Z</time>
      </trkpt>
      <trkpt lat="42.21227" lon="2.68922">
        <ele>212.607</ele>
        <time>2011-04-02T18:51:53Z</time>
      </trkpt>
      <trkpt lat="42.21221" lon="2.68917">
        <ele>213.152</ele>
        <time>2011-04-02T18:51:58Z</time>
      </trkpt>
      <trkpt lat="42.21201" lon="2.68899">
        <ele>214.586</ele>
        <time>2011-04-02T18:52:15Z</time>
      </trkpt>
      <trkpt lat="42.21175" lon="2.68873">
        <ele>215.599</ele>
        <time>2011-04-02T18:52:36Z</time>
      </trkpt>
      <trkpt lat="42.2115" lon="2.6886">
        <ele>216.938</ele>
        <time>2011-04-02T18:52:55Z</time>
      </trkpt>
      <trkpt lat="42.21149" lon="2.68859">
        <ele>216.945</ele>
        <time>2011-04-02T18:52:56Z</time>
      </trkpt>
      <trkpt lat="42.21145" lon="2.68853">
        <ele>216.443</ele>
        <time>2011-04-02T18:53:00Z</time>
      </trkpt>
      <trkpt lat="42.21128" lon="2.68841">
        <ele>216.916</ele>
        <time>2011-04-02T18:53:16Z</time>
      </trkpt>
      <trkpt lat="42.21126" lon="2.68841">
        <ele>217.986</ele>
        <time>2011-04-02T18:53:17Z</time>
      </trkpt>
      <trkpt lat="42.21105" lon="2.6883">
        <ele>218.86</ele>
        <time>2011-04-02T18:53:32Z</time>
      </trkpt>
      <trkpt lat="42.2108" lon="2.68827">
        <ele>217.426</ele>
        <time>2011-04-02T18:53:51Z</time>
      </trkpt>
      <trkpt lat="42.21077" lon="2.68823">
        <ele>218.407</ele>
        <time>2011-04-02T18:54:02Z</time>
      </trkpt>
      <trkpt lat="42.21066" lon="2.6884">
        <ele>214.059</ele>
        <time>2011-04-02T18:54:15Z</time>
      </trkpt>
      <trkpt lat="42.21065" lon="2.68842">
        <ele>214.593</ele>
        <time>2011-04-02T18:54:16Z</time>
      </trkpt>
      <trkpt lat="42.21045" lon="2.68854">
        <ele>211.226</ele>
        <time>2011-04-02T18:54:24Z</time>
      </trkpt>
      <trkpt lat="42.21015" lon="2.68846">
        <ele>209.755</ele>
        <time>2011-04-02T18:54:34Z</time>
      </trkpt>
      <trkpt lat="42.20999" lon="2.68844">
        <ele>210.222</ele>
        <time>2011-04-02T18:54:40Z</time>
      </trkpt>
      <trkpt lat="42.20997" lon="2.68851">
        <ele>208.35</ele>
        <time>2011-04-02T18:54:46Z</time>
      </trkpt>
      <trkpt lat="42.21002" lon="2.68862">
        <ele>204.983</ele>
        <time>2011-04-02T18:54:52Z</time>
      </trkpt>
      <trkpt lat="42.20999" lon="2.68901">
        <ele>203.553</ele>
        <time>2011-04-02T18:55:03Z</time>
      </trkpt>
      <trkpt lat="42.20979" lon="2.68938">
        <ele>201.504</ele>
        <time>2011-04-02T18:55:15Z</time>
      </trkpt>
      <trkpt lat="42.20951" lon="2.68957">
        <ele>200.614</ele>
        <time>2011-04-02T18:55:28Z</time>
      </trkpt>
      <trkpt lat="42.20922" lon="2.68975">
        <ele>199.607</ele>
        <time>2011-04-02T18:55:40Z</time>
      </trkpt>
      <trkpt lat="42.20897" lon="2.68984">
        <ele>199.156</ele>
        <time>2011-04-02T18:55:51Z</time>
      </trkpt>
      <trkpt lat="42.20865" lon="2.68977">
        <ele>198.25</ele>
        <time>2011-04-02T18:56:04Z</time>
      </trkpt>
      <trkpt lat="42.20834" lon="2.68979">
        <ele>196.783</ele>
        <time>2011-04-02T18:56:16Z</time>
      </trkpt>
      <trkpt lat="42.20803" lon="2.6899">
        <ele>197.232</ele>
        <time>2011-04-02T18:56:30Z</time>
      </trkpt>
      <trkpt lat="42.20779" lon="2.69003">
        <ele>197.789</ele>
        <time>2011-04-02T18:56:42Z</time>
      </trkpt>
      <trkpt lat="42.20746" lon="2.69023">
        <ele>198.757</ele>
        <time>2011-04-02T18:56:59Z</time>
      </trkpt>
      <trkpt lat="42.20721" lon="2.6904">
        <ele>199.63</ele>
        <time>2011-04-02T18:57:13Z</time>
      </trkpt>
      <trkpt lat="42.207" lon="2.69057">
        <ele>198.276</ele>
        <time>2011-04-02T18:57:24Z</time>
      </trkpt>
      <trkpt lat="42.20694" lon="2.69063">
        <ele>196.79</ele>
        <time>2011-04-02T18:57:27Z</time>
      </trkpt>
      <trkpt lat="42.20682" lon="2.69089">
        <ele>196.319</ele>
        <time>2011-04-02T18:57:38Z</time>
      </trkpt>
      <trkpt lat="42.20686" lon="2.69133">
        <ele>194.807</ele>
        <time>2011-04-02T18:57:51Z</time>
      </trkpt>
      <trkpt lat="42.20688" lon="2.69178">
        <ele>191.028</ele>
        <time>2011-04-02T18:58:05Z</time>
      </trkpt>
      <trkpt lat="42.2069" lon="2.69211">
        <ele>188.152</ele>
        <time>2011-04-02T18:58:15Z</time>
      </trkpt>
      <trkpt lat="42.20691" lon="2.69243">
        <ele>185.285</ele>
        <time>2011-04-02T18:58:28Z</time>
      </trkpt>
      <trkpt lat="42.20691" lon="2.6927">
        <ele>183.814</ele>
        <time>2011-04-02T18:58:40Z</time>
      </trkpt>
      <trkpt lat="42.20701" lon="2.693">
        <ele>179.911</ele>
        <time>2011-04-02T18:58:50Z</time>
      </trkpt>
      <trkpt lat="42.20706" lon="2.69335">
        <ele>178.539</ele>
        <time>2011-04-02T18:59:01Z</time>
      </trkpt>
      <trkpt lat="42.20706" lon="2.69372">
        <ele>176.142</ele>
        <time>2011-04-02T18:59:13Z</time>
      </trkpt>
      <trkpt lat="42.20706" lon="2.69376">
        <ele>175.691</ele>
        <time>2011-04-02T18:59:14Z</time>
      </trkpt>
      <trkpt lat="42.20713" lon="2.6942">
        <ele>174.181</ele>
        <time>2011-04-02T18:59:27Z</time>
      </trkpt>
      <trkpt lat="42.20716" lon="2.69469">
        <ele>172.219</ele>
        <time>2011-04-02T18:59:42Z</time>
      </trkpt>
      <trkpt lat="42.20708" lon="2.69503">
        <ele>171.307</ele>
        <time>2011-04-02T18:59:54Z</time>
      </trkpt>
      <trkpt lat="42.20707" lon="2.69516">
        <ele>169.88</ele>
        <time>2011-04-02T19:00:01Z</time>
      </trkpt>
      <trkpt lat="42.20704" lon="2.69531">
        <ele>166.944</ele>
        <time>2011-04-02T19:00:07Z</time>
      </trkpt>
      <trkpt lat="42.20686" lon="2.69558">
        <ele>164.057</ele>
        <time>2011-04-02T19:00:19Z</time>
      </trkpt>
      <trkpt lat="42.20692" lon="2.69576">
        <ele>165.066</ele>
        <time>2011-04-02T19:00:30Z</time>
      </trkpt>
      <trkpt lat="42.20695" lon="2.69586">
        <ele>165.553</ele>
        <time>2011-04-02T19:00:38Z</time>
      </trkpt>
      <trkpt lat="42.20698" lon="2.69594">
        <ele>165.511</ele>
        <time>2011-04-02T19:00:42Z</time>
      </trkpt>
      <trkpt lat="42.20699" lon="2.69601">
        <ele>166.044</ele>
        <time>2011-04-02T19:00:46Z</time>
      </trkpt>
      <trkpt lat="42.20701" lon="2.69611">
        <ele>166.086</ele>
        <time>2011-04-02T19:00:51Z</time>
      </trkpt>
      <trkpt lat="42.20704" lon="2.69623">
        <ele>166.56</ele>
        <time>2011-04-02T19:00:57Z</time>
      </trkpt>
      <trkpt lat="42.20705" lon="2.69635">
        <ele>166.026</ele>
        <time>2011-04-02T19:01:03Z</time>
      </trkpt>
      <trkpt lat="42.20707" lon="2.69645">
        <ele>166.907</ele>
        <time>2011-04-02T19:01:08Z</time>
      </trkpt>
      <trkpt lat="42.20708" lon="2.69648">
        <ele>166.549</ele>
        <time>2011-04-02T19:01:10Z</time>
      </trkpt>
      <trkpt lat="42.20712" lon="2.69659">
        <ele>167.433</ele>
        <time>2011-04-02T19:01:17Z</time>
      </trkpt>
      <trkpt lat="42.20713" lon="2.69664">
        <ele>165.516</ele>
        <time>2011-04-02T19:01:20Z</time>
      </trkpt>
      <trkpt lat="42.20712" lon="2.69703">
        <ele>166.055</ele>
        <time>2011-04-02T19:01:36Z</time>
      </trkpt>
      <trkpt lat="42.20713" lon="2.69721">
        <ele>165.562</ele>
        <time>2011-04-02T19:01:41Z</time>
      </trkpt>
      <trkpt lat="42.20712" lon="2.69737">
        <ele>165.09</ele>
        <time>2011-04-02T19:01:46Z</time>
      </trkpt>
      <trkpt lat="42.20699" lon="2.69748">
        <ele>163.643</ele>
        <time>2011-04-02T19:01:53Z</time>
      </trkpt>
      <trkpt lat="42.20663" lon="2.69755">
        <ele>163.661</ele>
        <time>2011-04-02T19:02:06Z</time>
      </trkpt>
      <trkpt lat="42.20634" lon="2.69756">
        <ele>162.121</ele>
        <time>2011-04-02T19:02:19Z</time>
      </trkpt>
      <trkpt lat="42.20609" lon="2.69747">
        <ele>161.613</ele>
        <time>2011-04-02T19:02:33Z</time>
      </trkpt>
      <trkpt lat="42.2059" lon="2.69738">
        <ele>160.707</ele>
        <time>2011-04-02T19:02:47Z</time>
      </trkpt>
      <trkpt lat="42.20576" lon="2.69729">
        <ele>159.247</ele>
        <time>2011-04-02T19:02:59Z</time>
      </trkpt>
      <trkpt lat="42.20561" lon="2.69727">
        <ele>159.721</ele>
        <time>2011-04-02T19:03:10Z</time>
      </trkpt>
      <trkpt lat="42.2055" lon="2.69719">
        <ele>160.224</ele>
        <time>2011-04-02T19:03:20Z</time>
      </trkpt>
      <trkpt lat="42.20548" lon="2.69718">
        <ele>159.743</ele>
        <time>2011-04-02T19:03:22Z</time>
      </trkpt>
      <trkpt lat="42.20539" lon="2.69725">
        <ele>159.73</ele>
        <time>2011-04-02T19:03:30Z</time>
      </trkpt>
      <trkpt lat="42.20533" lon="2.69732">
        <ele>158.388</ele>
        <time>2011-04-02T19:03:36Z</time>
      </trkpt>
      <trkpt lat="42.20526" lon="2.69739">
        <ele>157.881</ele>
        <time>2011-04-02T19:03:42Z</time>
      </trkpt>
      <trkpt lat="42.20503" lon="2.69753">
        <ele>157.835</ele>
        <time>2011-04-02T19:03:57Z</time>
      </trkpt>
      <trkpt lat="42.20477" lon="2.69754">
        <ele>155.986</ele>
        <time>2011-04-02T19:04:12Z</time>
      </trkpt>
      <trkpt lat="42.20462" lon="2.69748">
        <ele>155.414</ele>
        <time>2011-04-02T19:04:20Z</time>
      </trkpt>
      <trkpt lat="42.2046" lon="2.69747">
        <ele>156.407</ele>
        <time>2011-04-02T19:04:23Z</time>
      </trkpt>
      <trkpt lat="42.20455" lon="2.69747">
        <ele>156.434</ele>
        <time>2011-04-02T19:04:28Z</time>
      </trkpt>
      <trkpt lat="42.20447" lon="2.69736">
        <ele>156.428</ele>
        <time>2011-04-02T19:04:36Z</time>
      </trkpt>
      <trkpt lat="42.2043" lon="2.69704">
        <ele>155.431</ele>
        <time>2011-04-02T19:04:45Z</time>
      </trkpt>
      <trkpt lat="42.20428" lon="2.69702">
        <ele>155.92</ele>
        <time>2011-04-02T19:04:48Z</time>
      </trkpt>
      <trkpt lat="42.20417" lon="2.69698">
        <ele>154.987</ele>
        <time>2011-04-02T19:04:58Z</time>
      </trkpt>
      <trkpt lat="42.20413" lon="2.69694">
        <ele>154.935</ele>
        <time>2011-04-02T19:05:02Z</time>
      </trkpt>
      <trkpt lat="42.20408" lon="2.69694">
        <ele>155.978</ele>
        <time>2011-04-02T19:05:06Z</time>
      </trkpt>
      <trkpt lat="42.20404" lon="2.69695">
        <ele>155.488</ele>
        <time>2011-04-02T19:05:13Z</time>
      </trkpt>
      <trkpt lat="42.20398" lon="2.69699">
        <ele>155.924</ele>
        <time>2011-04-02T19:05:26Z</time>
      </trkpt>
      <trkpt lat="42.20384" lon="2.69707">
        <ele>154.426</ele>
        <time>2011-04-02T19:05:36Z</time>
      </trkpt>
      <trkpt lat="42.20365" lon="2.69681">
        <ele>153.507</ele>
        <time>2011-04-02T19:05:48Z</time>
      </trkpt>
      <trkpt lat="42.20364" lon="2.69678">
        <ele>153.029</ele>
        <time>2011-04-02T19:05:50Z</time>
      </trkpt>
      <trkpt lat="42.2036" lon="2.69672">
        <ele>153.013</ele>
        <time>2011-04-02T19:05:55Z</time>
      </trkpt>
      <trkpt lat="42.20353" lon="2.69649">
        <ele>154.476</ele>
        <time>2011-04-02T19:06:08Z</time>
      </trkpt>
      <trkpt lat="42.2036" lon="2.69611">
        <ele>155.455</ele>
        <time>2011-04-02T19:06:27Z</time>
      </trkpt>
      <trkpt lat="42.20364" lon="2.69593">
        <ele>155.492</ele>
        <time>2011-04-02T19:06:36Z</time>
      </trkpt>
      <trkpt lat="42.20359" lon="2.69589">
        <ele>156.43</ele>
        <time>2011-04-02T19:06:42Z</time>
      </trkpt>
      <trkpt lat="42.20337" lon="2.69596">
        <ele>156.833</ele>
        <time>2011-04-02T19:06:59Z</time>
      </trkpt>
      <trkpt lat="42.2032" lon="2.69598">
        <ele>159.287</ele>
        <time>2011-04-02T19:07:13Z</time>
      </trkpt>
      <trkpt lat="42.20306" lon="2.6959">
        <ele>161.242</ele>
        <time>2011-04-02T19:07:24Z</time>
      </trkpt>
      <trkpt lat="42.20304" lon="2.69589">
        <ele>162.126</ele>
        <time>2011-04-02T19:07:26Z</time>
      </trkpt>
      <trkpt lat="42.20292" lon="2.69581">
        <ele>165.507</ele>
        <time>2011-04-02T19:07:40Z</time>
      </trkpt>
      <trkpt lat="42.20279" lon="2.69571">
        <ele>168.459</ele>
        <time>2011-04-02T19:07:55Z</time>
      </trkpt>
      <trkpt lat="42.20276" lon="2.69569">
        <ele>169.363</ele>
        <time>2011-04-02T19:07:57Z</time>
      </trkpt>
      <trkpt lat="42.20257" lon="2.69562">
        <ele>172.786</ele>
        <time>2011-04-02T19:08:11Z</time>
      </trkpt>
      <trkpt lat="42.20241" lon="2.69554">
        <ele>175.195</ele>
        <time>2011-04-02T19:08:27Z</time>
      </trkpt>
      <trkpt lat="42.20231" lon="2.69552">
        <ele>176.162</ele>
        <time>2011-04-02T19:08:37Z</time>
      </trkpt>
      <trkpt lat="42.20208" lon="2.69552">
        <ele>176.59</ele>
        <time>2011-04-02T19:08:54Z</time>
      </trkpt>
      <trkpt lat="42.20179" lon="2.69564">
        <ele>177.083</ele>
        <time>2011-04-02T19:09:16Z</time>
      </trkpt>
      <trkpt lat="42.20155" lon="2.69583">
        <ele>177.537</ele>
        <time>2011-04-02T19:09:35Z</time>
      </trkpt>
      <trkpt lat="42.20135" lon="2.69602">
        <ele>176.549</ele>
        <time>2011-04-02T19:09:53Z</time>
      </trkpt>
      <trkpt lat="42.20123" lon="2.69616">
        <ele>178.513</ele>
        <time>2011-04-02T19:10:05Z</time>
      </trkpt>
      <trkpt lat="42.20095" lon="2.69632">
        <ele>178.507</ele>
        <time>2011-04-02T19:10:25Z</time>
      </trkpt>
      <trkpt lat="42.20078" lon="2.69655">
        <ele>178.974</ele>
        <time>2011-04-02T19:10:41Z</time>
      </trkpt>
      <trkpt lat="42.20077" lon="2.69656">
        <ele>178.558</ele>
        <time>2011-04-02T19:10:42Z</time>
      </trkpt>
      <trkpt lat="42.20067" lon="2.69666">
        <ele>177.581</ele>
        <time>2011-04-02T19:10:56Z</time>
      </trkpt>
      <trkpt lat="42.20064" lon="2.69674">
        <ele>177.01</ele>
        <time>2011-04-02T19:11:00Z</time>
      </trkpt>
      <trkpt lat="42.20061" lon="2.69683">
        <ele>177.087</ele>
        <time>2011-04-02T19:11:05Z</time>
      </trkpt>
      <trkpt lat="42.20055" lon="2.69722">
        <ele>174.185</ele>
        <time>2011-04-02T19:11:25Z</time>
      </trkpt>
      <trkpt lat="42.20055" lon="2.69724">
        <ele>174.138</ele>
        <time>2011-04-02T19:11:26Z</time>
      </trkpt>
      <trkpt lat="42.20058" lon="2.6975">
        <ele>172.718</ele>
        <time>2011-04-02T19:11:42Z</time>
      </trkpt>
      <trkpt lat="42.2006" lon="2.69755">
        <ele>170.898</ele>
        <time>2011-04-02T19:11:45Z</time>
      </trkpt>
      <trkpt lat="42.20064" lon="2.69767">
        <ele>167.917</ele>
        <time>2011-04-02T19:11:53Z</time>
      </trkpt>
      <trkpt lat="42.20064" lon="2.69773">
        <ele>166.907</ele>
        <time>2011-04-02T19:12:01Z</time>
      </trkpt>
      <trkpt lat="42.20055" lon="2.69779">
        <ele>165.042</ele>
        <time>2011-04-02T19:12:12Z</time>
      </trkpt>
      <trkpt lat="42.2005" lon="2.69778">
        <ele>162.196</ele>
        <time>2011-04-02T19:12:19Z</time>
      </trkpt>
      <trkpt lat="42.20031" lon="2.69783">
        <ele>160.799</ele>
        <time>2011-04-02T19:12:38Z</time>
      </trkpt>
      <trkpt lat="42.20032" lon="2.69789">
        <ele>161.258</ele>
        <time>2011-04-02T19:13:03Z</time>
      </trkpt>
      <trkpt lat="42.20037" lon="2.69802">
        <ele>161.295</ele>
        <time>2011-04-02T19:13:20Z</time>
      </trkpt>
      <trkpt lat="42.20036" lon="2.69807">
        <ele>160.783</ele>
        <time>2011-04-02T19:13:23Z</time>
      </trkpt>
      <trkpt lat="42.20024" lon="2.69819">
        <ele>161.256</ele>
        <time>2011-04-02T19:13:38Z</time>
      </trkpt>
      <trkpt lat="42.20007" lon="2.6983">
        <ele>160.751</ele>
        <time>2011-04-02T19:13:56Z</time>
      </trkpt>
      <trkpt lat="42.20006" lon="2.69833">
        <ele>160.701</ele>
        <time>2011-04-02T19:13:59Z</time>
      </trkpt>
      <trkpt lat="42.19996" lon="2.6984">
        <ele>160.711</ele>
        <time>2011-04-02T19:14:08Z</time>
      </trkpt>
      <trkpt lat="42.19993" lon="2.6984">
        <ele>159.207</ele>
        <time>2011-04-02T19:14:10Z</time>
      </trkpt>
      <trkpt lat="42.19984" lon="2.69849">
        <ele>159.216</ele>
        <time>2011-04-02T19:14:18Z</time>
      </trkpt>
      <trkpt lat="42.19977" lon="2.6986">
        <ele>159.79</ele>
        <time>2011-04-02T19:14:28Z</time>
      </trkpt>
      <trkpt lat="42.19969" lon="2.69868">
        <ele>159.273</ele>
        <time>2011-04-02T19:14:43Z</time>
      </trkpt>
      <trkpt lat="42.19961" lon="2.69878">
        <ele>159.242</ele>
        <time>2011-04-02T19:14:46Z</time>
      </trkpt>
      <trkpt lat="42.19952" lon="2.69891">
        <ele>158.849</ele>
        <time>2011-04-02T19:14:49Z</time>
      </trkpt>
      <trkpt lat="42.19917" lon="2.69925">
        <ele>158.837</ele>
        <time>2011-04-02T19:14:59Z</time>
      </trkpt>
      <trkpt lat="42.19897" lon="2.69939">
        <ele>155.99</ele>
        <time>2011-04-02T19:15:04Z</time>
      </trkpt>
      <trkpt lat="42.19891" lon="2.69943">
        <ele>155.937</ele>
        <time>2011-04-02T19:15:06Z</time>
      </trkpt>
      <trkpt lat="42.19895" lon="2.69965">
        <ele>154.949</ele>
        <time>2011-04-02T19:15:15Z</time>
      </trkpt>
      <trkpt lat="42.19895" lon="2.69975">
        <ele>154.413</ele>
        <time>2011-04-02T19:15:17Z</time>
      </trkpt>
      <trkpt lat="42.19917" lon="2.7001">
        <ele>153.507</ele>
        <time>2011-04-02T19:15:22Z</time>
      </trkpt>
      <trkpt lat="42.19924" lon="2.70018">
        <ele>153.034</ele>
        <time>2011-04-02T19:15:24Z</time>
      </trkpt>
      <trkpt lat="42.19931" lon="2.70033">
        <ele>153.038</ele>
        <time>2011-04-02T19:15:28Z</time>
      </trkpt>
      <trkpt lat="42.19924" lon="2.70058">
        <ele>152.081</ele>
        <time>2011-04-02T19:15:37Z</time>
      </trkpt>
      <trkpt lat="42.19927" lon="2.70063">
        <ele>153.03</ele>
        <time>2011-04-02T19:15:53Z</time>
      </trkpt>
      <trkpt lat="42.1993" lon="2.70092">
        <ele>153.057</ele>
        <time>2011-04-02T19:16:00Z</time>
      </trkpt>
      <trkpt lat="42.19936" lon="2.70143">
        <ele>153.575</ele>
        <time>2011-04-02T19:16:12Z</time>
      </trkpt>
      <trkpt lat="42.19936" lon="2.70156">
        <ele>155.998</ele>
        <time>2011-04-02T19:16:27Z</time>
      </trkpt>
      <trkpt lat="42.19936" lon="2.70156">
        <ele>154.084</ele>
        <time>2011-04-02T19:16:28Z</time>
      </trkpt>
      <trkpt lat="42.19937" lon="2.70154">
        <ele>152.507</ele>
        <time>2011-04-02T19:16:30Z</time>
      </trkpt>
    </trkseg>
  </trk>
</gpx>